<?xml version="1.0" encoding="UTF-8"?>
<gpx version="1.1" creator="https://www.youtrack.es" xsi:schemaLocation="http://www.topografix.com/GPX/1/1 http://www.topografix.com/GPX/1/1/gpx.xsd http://www.garmin.com/xmlschemas/GpxExtensions/v3 http://www.garmin.com/xmlschemas/GpxExtensionsv3.xsd http://www.garmin.com/xmlschemas/TrackPointExtension/v1 http://www.garmin.com/xmlschemas/TrackPointExtensionv1.xsd" xmlns:gpxtpx="http://www.garmin.com/xmlschemas/TrackPointExtension/v1" xmlns:gpxx="http://www.garmin.com/xmlschemas/GpxExtensions/v3" xmlns:xsi="http://www.w3.org/2001/XMLSchema-instance">
  <metadata>
    <link href="https://www.youtrack.es">
      <text>YouTrack.es</text>
    </link>
    <time>2026-05-08T02:20:32Z</time>
  </metadata>
  <trk>
    <src>https://www.youtrack.es</src>
    <link href="https://www.youtrack.es/ruta/2543-coca-en-agost">
      <text>YouTrack.es</text>
    </link>
    <trkseg>
      <trkpt lat="38.3859350" lon="-0.7739670">
        <ele>239.0</ele>
        <time>2018-10-14T06:10:00Z</time>
      </trkpt>
      <trkpt lat="38.3859430" lon="-0.7739380">
        <ele>244.0</ele>
        <time>2018-10-14T06:10:01Z</time>
      </trkpt>
      <trkpt lat="38.3859430" lon="-0.7739380">
        <ele>244.0</ele>
        <time>2018-10-14T06:10:02Z</time>
      </trkpt>
      <trkpt lat="38.3859650" lon="-0.7738700">
        <ele>245.0</ele>
        <time>2018-10-14T06:10:03Z</time>
      </trkpt>
      <trkpt lat="38.3859820" lon="-0.7738300">
        <ele>245.0</ele>
        <time>2018-10-14T06:10:04Z</time>
      </trkpt>
      <trkpt lat="38.3859820" lon="-0.7738300">
        <ele>245.0</ele>
        <time>2018-10-14T06:10:05Z</time>
      </trkpt>
      <trkpt lat="38.3860130" lon="-0.7737370">
        <ele>245.0</ele>
        <time>2018-10-14T06:10:06Z</time>
      </trkpt>
      <trkpt lat="38.3860130" lon="-0.7737370">
        <ele>245.0</ele>
        <time>2018-10-14T06:10:07Z</time>
      </trkpt>
      <trkpt lat="38.3860500" lon="-0.7736350">
        <ele>245.0</ele>
        <time>2018-10-14T06:10:08Z</time>
      </trkpt>
      <trkpt lat="38.3860500" lon="-0.7736350">
        <ele>245.0</ele>
        <time>2018-10-14T06:10:09Z</time>
      </trkpt>
      <trkpt lat="38.3860750" lon="-0.7735320">
        <ele>245.0</ele>
        <time>2018-10-14T06:10:10Z</time>
      </trkpt>
      <trkpt lat="38.3860900" lon="-0.7734800">
        <ele>245.0</ele>
        <time>2018-10-14T06:10:11Z</time>
      </trkpt>
      <trkpt lat="38.3860900" lon="-0.7734800">
        <ele>245.0</ele>
        <time>2018-10-14T06:10:12Z</time>
      </trkpt>
      <trkpt lat="38.3861180" lon="-0.7733650">
        <ele>244.0</ele>
        <time>2018-10-14T06:10:13Z</time>
      </trkpt>
      <trkpt lat="38.3861180" lon="-0.7733650">
        <ele>244.0</ele>
        <time>2018-10-14T06:10:14Z</time>
      </trkpt>
      <trkpt lat="38.3861500" lon="-0.7732400">
        <ele>244.0</ele>
        <time>2018-10-14T06:10:15Z</time>
      </trkpt>
      <trkpt lat="38.3861500" lon="-0.7732400">
        <ele>244.0</ele>
        <time>2018-10-14T06:10:16Z</time>
      </trkpt>
      <trkpt lat="38.3861880" lon="-0.7731050">
        <ele>243.0</ele>
        <time>2018-10-14T06:10:17Z</time>
      </trkpt>
      <trkpt lat="38.3862070" lon="-0.7730350">
        <ele>243.0</ele>
        <time>2018-10-14T06:10:18Z</time>
      </trkpt>
      <trkpt lat="38.3862070" lon="-0.7730350">
        <ele>243.0</ele>
        <time>2018-10-14T06:10:19Z</time>
      </trkpt>
      <trkpt lat="38.3862420" lon="-0.7728950">
        <ele>243.0</ele>
        <time>2018-10-14T06:10:20Z</time>
      </trkpt>
      <trkpt lat="38.3862420" lon="-0.7728950">
        <ele>242.0</ele>
        <time>2018-10-14T06:10:21Z</time>
      </trkpt>
      <trkpt lat="38.3862820" lon="-0.7727530">
        <ele>242.0</ele>
        <time>2018-10-14T06:10:22Z</time>
      </trkpt>
      <trkpt lat="38.3862820" lon="-0.7727530">
        <ele>241.0</ele>
        <time>2018-10-14T06:10:23Z</time>
      </trkpt>
      <trkpt lat="38.3863230" lon="-0.7726050">
        <ele>241.0</ele>
        <time>2018-10-14T06:10:24Z</time>
      </trkpt>
      <trkpt lat="38.3863230" lon="-0.7726050">
        <ele>241.0</ele>
        <time>2018-10-14T06:10:25Z</time>
      </trkpt>
      <trkpt lat="38.3863620" lon="-0.7724730">
        <ele>241.0</ele>
        <time>2018-10-14T06:10:26Z</time>
      </trkpt>
      <trkpt lat="38.3863620" lon="-0.7724730">
        <ele>241.0</ele>
        <time>2018-10-14T06:10:27Z</time>
      </trkpt>
      <trkpt lat="38.3863920" lon="-0.7723700">
        <ele>240.0</ele>
        <time>2018-10-14T06:10:28Z</time>
      </trkpt>
      <trkpt lat="38.3863920" lon="-0.7723700">
        <ele>240.0</ele>
        <time>2018-10-14T06:10:29Z</time>
      </trkpt>
      <trkpt lat="38.3864180" lon="-0.7722670">
        <ele>240.0</ele>
        <time>2018-10-14T06:10:30Z</time>
      </trkpt>
      <trkpt lat="38.3864350" lon="-0.7722150">
        <ele>240.0</ele>
        <time>2018-10-14T06:10:31Z</time>
      </trkpt>
      <trkpt lat="38.3864350" lon="-0.7722150">
        <ele>239.0</ele>
        <time>2018-10-14T06:10:32Z</time>
      </trkpt>
      <trkpt lat="38.3864700" lon="-0.7721030">
        <ele>239.0</ele>
        <time>2018-10-14T06:10:33Z</time>
      </trkpt>
      <trkpt lat="38.3864870" lon="-0.7720430">
        <ele>239.0</ele>
        <time>2018-10-14T06:10:34Z</time>
      </trkpt>
      <trkpt lat="38.3864870" lon="-0.7720430">
        <ele>239.0</ele>
        <time>2018-10-14T06:10:35Z</time>
      </trkpt>
      <trkpt lat="38.3865200" lon="-0.7719220">
        <ele>238.0</ele>
        <time>2018-10-14T06:10:36Z</time>
      </trkpt>
      <trkpt lat="38.3865200" lon="-0.7719220">
        <ele>238.0</ele>
        <time>2018-10-14T06:10:37Z</time>
      </trkpt>
      <trkpt lat="38.3865550" lon="-0.7717980">
        <ele>238.0</ele>
        <time>2018-10-14T06:10:38Z</time>
      </trkpt>
      <trkpt lat="38.3865550" lon="-0.7717980">
        <ele>238.0</ele>
        <time>2018-10-14T06:10:39Z</time>
      </trkpt>
      <trkpt lat="38.3865830" lon="-0.7716720">
        <ele>238.0</ele>
        <time>2018-10-14T06:10:40Z</time>
      </trkpt>
      <trkpt lat="38.3865830" lon="-0.7716720">
        <ele>238.0</ele>
        <time>2018-10-14T06:10:41Z</time>
      </trkpt>
      <trkpt lat="38.3866200" lon="-0.7715400">
        <ele>238.0</ele>
        <time>2018-10-14T06:10:42Z</time>
      </trkpt>
      <trkpt lat="38.3866200" lon="-0.7715400">
        <ele>238.0</ele>
        <time>2018-10-14T06:10:43Z</time>
      </trkpt>
      <trkpt lat="38.3866680" lon="-0.7714170">
        <ele>237.0</ele>
        <time>2018-10-14T06:10:44Z</time>
      </trkpt>
      <trkpt lat="38.3866680" lon="-0.7714170">
        <ele>237.0</ele>
        <time>2018-10-14T06:10:45Z</time>
      </trkpt>
      <trkpt lat="38.3866970" lon="-0.7712800">
        <ele>237.0</ele>
        <time>2018-10-14T06:10:46Z</time>
      </trkpt>
      <trkpt lat="38.3866970" lon="-0.7712800">
        <ele>237.0</ele>
        <time>2018-10-14T06:10:47Z</time>
      </trkpt>
      <trkpt lat="38.3867300" lon="-0.7711380">
        <ele>237.0</ele>
        <time>2018-10-14T06:10:48Z</time>
      </trkpt>
      <trkpt lat="38.3867300" lon="-0.7711380">
        <ele>236.0</ele>
        <time>2018-10-14T06:10:49Z</time>
      </trkpt>
      <trkpt lat="38.3867550" lon="-0.7710650">
        <ele>236.0</ele>
        <time>2018-10-14T06:10:50Z</time>
      </trkpt>
      <trkpt lat="38.3867550" lon="-0.7710650">
        <ele>236.0</ele>
        <time>2018-10-14T06:10:51Z</time>
      </trkpt>
      <trkpt lat="38.3868050" lon="-0.7710300">
        <ele>236.0</ele>
        <time>2018-10-14T06:10:52Z</time>
      </trkpt>
      <trkpt lat="38.3868400" lon="-0.7710170">
        <ele>236.0</ele>
        <time>2018-10-14T06:10:53Z</time>
      </trkpt>
      <trkpt lat="38.3868400" lon="-0.7710170">
        <ele>236.0</ele>
        <time>2018-10-14T06:10:54Z</time>
      </trkpt>
      <trkpt lat="38.3868420" lon="-0.7709820">
        <ele>236.0</ele>
        <time>2018-10-14T06:10:55Z</time>
      </trkpt>
      <trkpt lat="38.3868430" lon="-0.7709570">
        <ele>236.0</ele>
        <time>2018-10-14T06:10:56Z</time>
      </trkpt>
      <trkpt lat="38.3868430" lon="-0.7709570">
        <ele>236.0</ele>
        <time>2018-10-14T06:10:57Z</time>
      </trkpt>
      <trkpt lat="38.3868830" lon="-0.7709080">
        <ele>236.0</ele>
        <time>2018-10-14T06:10:58Z</time>
      </trkpt>
      <trkpt lat="38.3869100" lon="-0.7708880">
        <ele>236.0</ele>
        <time>2018-10-14T06:10:59Z</time>
      </trkpt>
      <trkpt lat="38.3869380" lon="-0.7708770">
        <ele>236.0</ele>
        <time>2018-10-14T06:11:00Z</time>
      </trkpt>
      <trkpt lat="38.3869380" lon="-0.7708770">
        <ele>236.0</ele>
        <time>2018-10-14T06:11:01Z</time>
      </trkpt>
      <trkpt lat="38.3870020" lon="-0.7708520">
        <ele>236.0</ele>
        <time>2018-10-14T06:11:02Z</time>
      </trkpt>
      <trkpt lat="38.3870320" lon="-0.7708500">
        <ele>236.0</ele>
        <time>2018-10-14T06:11:03Z</time>
      </trkpt>
      <trkpt lat="38.3870320" lon="-0.7708500">
        <ele>236.0</ele>
        <time>2018-10-14T06:11:04Z</time>
      </trkpt>
      <trkpt lat="38.3870020" lon="-0.7709070">
        <ele>236.0</ele>
        <time>2018-10-14T06:11:05Z</time>
      </trkpt>
      <trkpt lat="38.3869930" lon="-0.7709280">
        <ele>236.0</ele>
        <time>2018-10-14T06:11:06Z</time>
      </trkpt>
      <trkpt lat="38.3869930" lon="-0.7709280">
        <ele>236.0</ele>
        <time>2018-10-14T06:11:07Z</time>
      </trkpt>
      <trkpt lat="38.3870130" lon="-0.7709470">
        <ele>236.0</ele>
        <time>2018-10-14T06:11:08Z</time>
      </trkpt>
      <trkpt lat="38.3870270" lon="-0.7709570">
        <ele>236.0</ele>
        <time>2018-10-14T06:11:09Z</time>
      </trkpt>
      <trkpt lat="38.3870270" lon="-0.7709570">
        <ele>236.0</ele>
        <time>2018-10-14T06:11:10Z</time>
      </trkpt>
      <trkpt lat="38.3870580" lon="-0.7709700">
        <ele>236.0</ele>
        <time>2018-10-14T06:11:11Z</time>
      </trkpt>
      <trkpt lat="38.3870700" lon="-0.7709800">
        <ele>236.0</ele>
        <time>2018-10-14T06:11:12Z</time>
      </trkpt>
      <trkpt lat="38.3870700" lon="-0.7709800">
        <ele>236.0</ele>
        <time>2018-10-14T06:11:13Z</time>
      </trkpt>
      <trkpt lat="38.3871100" lon="-0.7709980">
        <ele>236.0</ele>
        <time>2018-10-14T06:11:14Z</time>
      </trkpt>
      <trkpt lat="38.3871100" lon="-0.7709980">
        <ele>236.0</ele>
        <time>2018-10-14T06:11:15Z</time>
      </trkpt>
      <trkpt lat="38.3871170" lon="-0.7710470">
        <ele>236.0</ele>
        <time>2018-10-14T06:11:16Z</time>
      </trkpt>
      <trkpt lat="38.3871170" lon="-0.7710470">
        <ele>236.0</ele>
        <time>2018-10-14T06:11:17Z</time>
      </trkpt>
      <trkpt lat="38.3871580" lon="-0.7710630">
        <ele>236.0</ele>
        <time>2018-10-14T06:11:18Z</time>
      </trkpt>
      <trkpt lat="38.3871580" lon="-0.7710630">
        <ele>236.0</ele>
        <time>2018-10-14T06:11:19Z</time>
      </trkpt>
      <trkpt lat="38.3871980" lon="-0.7710750">
        <ele>236.0</ele>
        <time>2018-10-14T06:11:20Z</time>
      </trkpt>
      <trkpt lat="38.3871980" lon="-0.7710750">
        <ele>236.0</ele>
        <time>2018-10-14T06:11:21Z</time>
      </trkpt>
      <trkpt lat="38.3872380" lon="-0.7710870">
        <ele>236.0</ele>
        <time>2018-10-14T06:11:22Z</time>
      </trkpt>
      <trkpt lat="38.3872570" lon="-0.7710930">
        <ele>236.0</ele>
        <time>2018-10-14T06:11:23Z</time>
      </trkpt>
      <trkpt lat="38.3872570" lon="-0.7710930">
        <ele>236.0</ele>
        <time>2018-10-14T06:11:24Z</time>
      </trkpt>
      <trkpt lat="38.3873000" lon="-0.7711070">
        <ele>236.0</ele>
        <time>2018-10-14T06:11:25Z</time>
      </trkpt>
      <trkpt lat="38.3873000" lon="-0.7711070">
        <ele>236.0</ele>
        <time>2018-10-14T06:11:26Z</time>
      </trkpt>
      <trkpt lat="38.3873350" lon="-0.7711220">
        <ele>236.0</ele>
        <time>2018-10-14T06:11:27Z</time>
      </trkpt>
      <trkpt lat="38.3873620" lon="-0.7711270">
        <ele>236.0</ele>
        <time>2018-10-14T06:11:28Z</time>
      </trkpt>
      <trkpt lat="38.3873620" lon="-0.7711270">
        <ele>237.0</ele>
        <time>2018-10-14T06:11:29Z</time>
      </trkpt>
      <trkpt lat="38.3874070" lon="-0.7711270">
        <ele>237.0</ele>
        <time>2018-10-14T06:11:30Z</time>
      </trkpt>
      <trkpt lat="38.3874070" lon="-0.7711270">
        <ele>237.0</ele>
        <time>2018-10-14T06:11:31Z</time>
      </trkpt>
      <trkpt lat="38.3874570" lon="-0.7711520">
        <ele>237.0</ele>
        <time>2018-10-14T06:11:32Z</time>
      </trkpt>
      <trkpt lat="38.3874570" lon="-0.7711520">
        <ele>237.0</ele>
        <time>2018-10-14T06:11:33Z</time>
      </trkpt>
      <trkpt lat="38.3874830" lon="-0.7711750">
        <ele>237.0</ele>
        <time>2018-10-14T06:11:34Z</time>
      </trkpt>
      <trkpt lat="38.3874830" lon="-0.7711750">
        <ele>237.0</ele>
        <time>2018-10-14T06:11:35Z</time>
      </trkpt>
      <trkpt lat="38.3875130" lon="-0.7712030">
        <ele>237.0</ele>
        <time>2018-10-14T06:11:36Z</time>
      </trkpt>
      <trkpt lat="38.3875130" lon="-0.7712030">
        <ele>237.0</ele>
        <time>2018-10-14T06:11:37Z</time>
      </trkpt>
      <trkpt lat="38.3875470" lon="-0.7712180">
        <ele>237.0</ele>
        <time>2018-10-14T06:11:38Z</time>
      </trkpt>
      <trkpt lat="38.3875470" lon="-0.7712180">
        <ele>238.0</ele>
        <time>2018-10-14T06:11:39Z</time>
      </trkpt>
      <trkpt lat="38.3875850" lon="-0.7712620">
        <ele>238.0</ele>
        <time>2018-10-14T06:11:40Z</time>
      </trkpt>
      <trkpt lat="38.3875850" lon="-0.7712620">
        <ele>238.0</ele>
        <time>2018-10-14T06:11:41Z</time>
      </trkpt>
      <trkpt lat="38.3876280" lon="-0.7712950">
        <ele>238.0</ele>
        <time>2018-10-14T06:11:42Z</time>
      </trkpt>
      <trkpt lat="38.3876280" lon="-0.7712950">
        <ele>238.0</ele>
        <time>2018-10-14T06:11:43Z</time>
      </trkpt>
      <trkpt lat="38.3876880" lon="-0.7712500">
        <ele>238.0</ele>
        <time>2018-10-14T06:11:44Z</time>
      </trkpt>
      <trkpt lat="38.3876880" lon="-0.7712500">
        <ele>238.0</ele>
        <time>2018-10-14T06:11:45Z</time>
      </trkpt>
      <trkpt lat="38.3877380" lon="-0.7711700">
        <ele>238.0</ele>
        <time>2018-10-14T06:11:46Z</time>
      </trkpt>
      <trkpt lat="38.3877380" lon="-0.7711700">
        <ele>238.0</ele>
        <time>2018-10-14T06:11:47Z</time>
      </trkpt>
      <trkpt lat="38.3877870" lon="-0.7710900">
        <ele>238.0</ele>
        <time>2018-10-14T06:11:48Z</time>
      </trkpt>
      <trkpt lat="38.3877870" lon="-0.7710900">
        <ele>238.0</ele>
        <time>2018-10-14T06:11:49Z</time>
      </trkpt>
      <trkpt lat="38.3878580" lon="-0.7710180">
        <ele>238.0</ele>
        <time>2018-10-14T06:11:50Z</time>
      </trkpt>
      <trkpt lat="38.3878580" lon="-0.7710180">
        <ele>238.0</ele>
        <time>2018-10-14T06:11:51Z</time>
      </trkpt>
      <trkpt lat="38.3879450" lon="-0.7709400">
        <ele>238.0</ele>
        <time>2018-10-14T06:11:52Z</time>
      </trkpt>
      <trkpt lat="38.3879450" lon="-0.7709400">
        <ele>238.0</ele>
        <time>2018-10-14T06:11:53Z</time>
      </trkpt>
      <trkpt lat="38.3880230" lon="-0.7708530">
        <ele>238.0</ele>
        <time>2018-10-14T06:11:54Z</time>
      </trkpt>
      <trkpt lat="38.3880230" lon="-0.7708530">
        <ele>238.0</ele>
        <time>2018-10-14T06:11:55Z</time>
      </trkpt>
      <trkpt lat="38.3881170" lon="-0.7707570">
        <ele>238.0</ele>
        <time>2018-10-14T06:11:56Z</time>
      </trkpt>
      <trkpt lat="38.3881170" lon="-0.7707570">
        <ele>238.0</ele>
        <time>2018-10-14T06:11:57Z</time>
      </trkpt>
      <trkpt lat="38.3881520" lon="-0.7706370">
        <ele>238.0</ele>
        <time>2018-10-14T06:11:58Z</time>
      </trkpt>
      <trkpt lat="38.3881520" lon="-0.7706370">
        <ele>238.0</ele>
        <time>2018-10-14T06:11:59Z</time>
      </trkpt>
      <trkpt lat="38.3881780" lon="-0.7705080">
        <ele>238.0</ele>
        <time>2018-10-14T06:12:00Z</time>
      </trkpt>
      <trkpt lat="38.3881780" lon="-0.7705080">
        <ele>238.0</ele>
        <time>2018-10-14T06:12:01Z</time>
      </trkpt>
      <trkpt lat="38.3881900" lon="-0.7703870">
        <ele>237.0</ele>
        <time>2018-10-14T06:12:02Z</time>
      </trkpt>
      <trkpt lat="38.3881850" lon="-0.7703200">
        <ele>237.0</ele>
        <time>2018-10-14T06:12:03Z</time>
      </trkpt>
      <trkpt lat="38.3881850" lon="-0.7703200">
        <ele>237.0</ele>
        <time>2018-10-14T06:12:04Z</time>
      </trkpt>
      <trkpt lat="38.3882100" lon="-0.7701880">
        <ele>237.0</ele>
        <time>2018-10-14T06:12:05Z</time>
      </trkpt>
      <trkpt lat="38.3882370" lon="-0.7701300">
        <ele>237.0</ele>
        <time>2018-10-14T06:12:06Z</time>
      </trkpt>
      <trkpt lat="38.3882370" lon="-0.7701300">
        <ele>237.0</ele>
        <time>2018-10-14T06:12:07Z</time>
      </trkpt>
      <trkpt lat="38.3882720" lon="-0.7700130">
        <ele>236.0</ele>
        <time>2018-10-14T06:12:08Z</time>
      </trkpt>
      <trkpt lat="38.3882830" lon="-0.7699430">
        <ele>236.0</ele>
        <time>2018-10-14T06:12:09Z</time>
      </trkpt>
      <trkpt lat="38.3882830" lon="-0.7699430">
        <ele>236.0</ele>
        <time>2018-10-14T06:12:10Z</time>
      </trkpt>
      <trkpt lat="38.3883070" lon="-0.7698020">
        <ele>236.0</ele>
        <time>2018-10-14T06:12:11Z</time>
      </trkpt>
      <trkpt lat="38.3883170" lon="-0.7697330">
        <ele>236.0</ele>
        <time>2018-10-14T06:12:12Z</time>
      </trkpt>
      <trkpt lat="38.3883300" lon="-0.7696670">
        <ele>236.0</ele>
        <time>2018-10-14T06:12:13Z</time>
      </trkpt>
      <trkpt lat="38.3883300" lon="-0.7696670">
        <ele>235.0</ele>
        <time>2018-10-14T06:12:14Z</time>
      </trkpt>
      <trkpt lat="38.3883570" lon="-0.7695420">
        <ele>235.0</ele>
        <time>2018-10-14T06:12:15Z</time>
      </trkpt>
      <trkpt lat="38.3883570" lon="-0.7695420">
        <ele>235.0</ele>
        <time>2018-10-14T06:12:16Z</time>
      </trkpt>
      <trkpt lat="38.3883770" lon="-0.7694230">
        <ele>235.0</ele>
        <time>2018-10-14T06:12:17Z</time>
      </trkpt>
      <trkpt lat="38.3883770" lon="-0.7694230">
        <ele>235.0</ele>
        <time>2018-10-14T06:12:18Z</time>
      </trkpt>
      <trkpt lat="38.3884050" lon="-0.7693080">
        <ele>235.0</ele>
        <time>2018-10-14T06:12:19Z</time>
      </trkpt>
      <trkpt lat="38.3884230" lon="-0.7692580">
        <ele>235.0</ele>
        <time>2018-10-14T06:12:20Z</time>
      </trkpt>
      <trkpt lat="38.3884230" lon="-0.7692580">
        <ele>235.0</ele>
        <time>2018-10-14T06:12:21Z</time>
      </trkpt>
      <trkpt lat="38.3884520" lon="-0.7691370">
        <ele>235.0</ele>
        <time>2018-10-14T06:12:22Z</time>
      </trkpt>
      <trkpt lat="38.3884720" lon="-0.7690770">
        <ele>235.0</ele>
        <time>2018-10-14T06:12:23Z</time>
      </trkpt>
      <trkpt lat="38.3884720" lon="-0.7690770">
        <ele>235.0</ele>
        <time>2018-10-14T06:12:24Z</time>
      </trkpt>
      <trkpt lat="38.3885080" lon="-0.7689600">
        <ele>235.0</ele>
        <time>2018-10-14T06:12:25Z</time>
      </trkpt>
      <trkpt lat="38.3885280" lon="-0.7689070">
        <ele>235.0</ele>
        <time>2018-10-14T06:12:26Z</time>
      </trkpt>
      <trkpt lat="38.3885280" lon="-0.7689070">
        <ele>235.0</ele>
        <time>2018-10-14T06:12:27Z</time>
      </trkpt>
      <trkpt lat="38.3885630" lon="-0.7687900">
        <ele>235.0</ele>
        <time>2018-10-14T06:12:28Z</time>
      </trkpt>
      <trkpt lat="38.3885800" lon="-0.7687320">
        <ele>235.0</ele>
        <time>2018-10-14T06:12:29Z</time>
      </trkpt>
      <trkpt lat="38.3885980" lon="-0.7686720">
        <ele>234.0</ele>
        <time>2018-10-14T06:12:30Z</time>
      </trkpt>
      <trkpt lat="38.3885980" lon="-0.7686720">
        <ele>234.0</ele>
        <time>2018-10-14T06:12:31Z</time>
      </trkpt>
      <trkpt lat="38.3886380" lon="-0.7685550">
        <ele>234.0</ele>
        <time>2018-10-14T06:12:32Z</time>
      </trkpt>
      <trkpt lat="38.3886530" lon="-0.7684930">
        <ele>234.0</ele>
        <time>2018-10-14T06:12:33Z</time>
      </trkpt>
      <trkpt lat="38.3886530" lon="-0.7684930">
        <ele>234.0</ele>
        <time>2018-10-14T06:12:34Z</time>
      </trkpt>
      <trkpt lat="38.3886700" lon="-0.7683620">
        <ele>234.0</ele>
        <time>2018-10-14T06:12:35Z</time>
      </trkpt>
      <trkpt lat="38.3886870" lon="-0.7683020">
        <ele>234.0</ele>
        <time>2018-10-14T06:12:36Z</time>
      </trkpt>
      <trkpt lat="38.3886870" lon="-0.7683020">
        <ele>234.0</ele>
        <time>2018-10-14T06:12:37Z</time>
      </trkpt>
      <trkpt lat="38.3887150" lon="-0.7681950">
        <ele>234.0</ele>
        <time>2018-10-14T06:12:38Z</time>
      </trkpt>
      <trkpt lat="38.3887150" lon="-0.7681950">
        <ele>234.0</ele>
        <time>2018-10-14T06:12:39Z</time>
      </trkpt>
      <trkpt lat="38.3887450" lon="-0.7680850">
        <ele>234.0</ele>
        <time>2018-10-14T06:12:40Z</time>
      </trkpt>
      <trkpt lat="38.3887450" lon="-0.7680850">
        <ele>234.0</ele>
        <time>2018-10-14T06:12:41Z</time>
      </trkpt>
      <trkpt lat="38.3887780" lon="-0.7679730">
        <ele>234.0</ele>
        <time>2018-10-14T06:12:42Z</time>
      </trkpt>
      <trkpt lat="38.3887780" lon="-0.7679730">
        <ele>234.0</ele>
        <time>2018-10-14T06:12:43Z</time>
      </trkpt>
      <trkpt lat="38.3888170" lon="-0.7678600">
        <ele>234.0</ele>
        <time>2018-10-14T06:12:44Z</time>
      </trkpt>
      <trkpt lat="38.3888170" lon="-0.7678600">
        <ele>234.0</ele>
        <time>2018-10-14T06:12:45Z</time>
      </trkpt>
      <trkpt lat="38.3888520" lon="-0.7677500">
        <ele>234.0</ele>
        <time>2018-10-14T06:12:46Z</time>
      </trkpt>
      <trkpt lat="38.3888520" lon="-0.7677500">
        <ele>234.0</ele>
        <time>2018-10-14T06:12:47Z</time>
      </trkpt>
      <trkpt lat="38.3888820" lon="-0.7676450">
        <ele>234.0</ele>
        <time>2018-10-14T06:12:48Z</time>
      </trkpt>
      <trkpt lat="38.3888820" lon="-0.7676450">
        <ele>234.0</ele>
        <time>2018-10-14T06:12:49Z</time>
      </trkpt>
      <trkpt lat="38.3889080" lon="-0.7675320">
        <ele>234.0</ele>
        <time>2018-10-14T06:12:50Z</time>
      </trkpt>
      <trkpt lat="38.3889080" lon="-0.7675320">
        <ele>234.0</ele>
        <time>2018-10-14T06:12:51Z</time>
      </trkpt>
      <trkpt lat="38.3889370" lon="-0.7674200">
        <ele>234.0</ele>
        <time>2018-10-14T06:12:52Z</time>
      </trkpt>
      <trkpt lat="38.3889370" lon="-0.7674200">
        <ele>234.0</ele>
        <time>2018-10-14T06:12:53Z</time>
      </trkpt>
      <trkpt lat="38.3889670" lon="-0.7673100">
        <ele>234.0</ele>
        <time>2018-10-14T06:12:54Z</time>
      </trkpt>
      <trkpt lat="38.3889820" lon="-0.7672550">
        <ele>234.0</ele>
        <time>2018-10-14T06:12:55Z</time>
      </trkpt>
      <trkpt lat="38.3889970" lon="-0.7672000">
        <ele>234.0</ele>
        <time>2018-10-14T06:12:56Z</time>
      </trkpt>
      <trkpt lat="38.3889970" lon="-0.7672000">
        <ele>234.0</ele>
        <time>2018-10-14T06:12:57Z</time>
      </trkpt>
      <trkpt lat="38.3890250" lon="-0.7670950">
        <ele>234.0</ele>
        <time>2018-10-14T06:12:58Z</time>
      </trkpt>
      <trkpt lat="38.3890380" lon="-0.7670400">
        <ele>234.0</ele>
        <time>2018-10-14T06:12:59Z</time>
      </trkpt>
      <trkpt lat="38.3890380" lon="-0.7670400">
        <ele>234.0</ele>
        <time>2018-10-14T06:13:00Z</time>
      </trkpt>
      <trkpt lat="38.3890720" lon="-0.7669300">
        <ele>234.0</ele>
        <time>2018-10-14T06:13:01Z</time>
      </trkpt>
      <trkpt lat="38.3890900" lon="-0.7668780">
        <ele>234.0</ele>
        <time>2018-10-14T06:13:02Z</time>
      </trkpt>
      <trkpt lat="38.3890900" lon="-0.7668780">
        <ele>234.0</ele>
        <time>2018-10-14T06:13:03Z</time>
      </trkpt>
      <trkpt lat="38.3891250" lon="-0.7667720">
        <ele>234.0</ele>
        <time>2018-10-14T06:13:04Z</time>
      </trkpt>
      <trkpt lat="38.3891250" lon="-0.7667720">
        <ele>234.0</ele>
        <time>2018-10-14T06:13:05Z</time>
      </trkpt>
      <trkpt lat="38.3891450" lon="-0.7666570">
        <ele>234.0</ele>
        <time>2018-10-14T06:13:06Z</time>
      </trkpt>
      <trkpt lat="38.3891450" lon="-0.7666570">
        <ele>234.0</ele>
        <time>2018-10-14T06:13:07Z</time>
      </trkpt>
      <trkpt lat="38.3891770" lon="-0.7665470">
        <ele>234.0</ele>
        <time>2018-10-14T06:13:08Z</time>
      </trkpt>
      <trkpt lat="38.3891770" lon="-0.7665470">
        <ele>234.0</ele>
        <time>2018-10-14T06:13:09Z</time>
      </trkpt>
      <trkpt lat="38.3892120" lon="-0.7664370">
        <ele>234.0</ele>
        <time>2018-10-14T06:13:10Z</time>
      </trkpt>
      <trkpt lat="38.3892120" lon="-0.7664370">
        <ele>234.0</ele>
        <time>2018-10-14T06:13:11Z</time>
      </trkpt>
      <trkpt lat="38.3892480" lon="-0.7663280">
        <ele>234.0</ele>
        <time>2018-10-14T06:13:12Z</time>
      </trkpt>
      <trkpt lat="38.3892480" lon="-0.7663280">
        <ele>234.0</ele>
        <time>2018-10-14T06:13:13Z</time>
      </trkpt>
      <trkpt lat="38.3892820" lon="-0.7662230">
        <ele>234.0</ele>
        <time>2018-10-14T06:13:14Z</time>
      </trkpt>
      <trkpt lat="38.3892820" lon="-0.7662230">
        <ele>234.0</ele>
        <time>2018-10-14T06:13:15Z</time>
      </trkpt>
      <trkpt lat="38.3893220" lon="-0.7661280">
        <ele>234.0</ele>
        <time>2018-10-14T06:13:16Z</time>
      </trkpt>
      <trkpt lat="38.3893420" lon="-0.7660820">
        <ele>234.0</ele>
        <time>2018-10-14T06:13:17Z</time>
      </trkpt>
      <trkpt lat="38.3893420" lon="-0.7660820">
        <ele>234.0</ele>
        <time>2018-10-14T06:13:18Z</time>
      </trkpt>
      <trkpt lat="38.3893770" lon="-0.7659820">
        <ele>234.0</ele>
        <time>2018-10-14T06:13:19Z</time>
      </trkpt>
      <trkpt lat="38.3893930" lon="-0.7659330">
        <ele>234.0</ele>
        <time>2018-10-14T06:13:20Z</time>
      </trkpt>
      <trkpt lat="38.3893930" lon="-0.7659330">
        <ele>234.0</ele>
        <time>2018-10-14T06:13:21Z</time>
      </trkpt>
      <trkpt lat="38.3894220" lon="-0.7658400">
        <ele>233.0</ele>
        <time>2018-10-14T06:13:22Z</time>
      </trkpt>
      <trkpt lat="38.3894330" lon="-0.7657970">
        <ele>233.0</ele>
        <time>2018-10-14T06:13:23Z</time>
      </trkpt>
      <trkpt lat="38.3894450" lon="-0.7657600">
        <ele>233.0</ele>
        <time>2018-10-14T06:13:24Z</time>
      </trkpt>
      <trkpt lat="38.3894450" lon="-0.7657600">
        <ele>233.0</ele>
        <time>2018-10-14T06:13:25Z</time>
      </trkpt>
      <trkpt lat="38.3894680" lon="-0.7656850">
        <ele>233.0</ele>
        <time>2018-10-14T06:13:26Z</time>
      </trkpt>
      <trkpt lat="38.3894770" lon="-0.7656580">
        <ele>233.0</ele>
        <time>2018-10-14T06:13:27Z</time>
      </trkpt>
      <trkpt lat="38.3894820" lon="-0.7656330">
        <ele>233.0</ele>
        <time>2018-10-14T06:13:28Z</time>
      </trkpt>
      <trkpt lat="38.3894820" lon="-0.7656330">
        <ele>233.0</ele>
        <time>2018-10-14T06:13:29Z</time>
      </trkpt>
      <trkpt lat="38.3894970" lon="-0.7655930">
        <ele>233.0</ele>
        <time>2018-10-14T06:13:30Z</time>
      </trkpt>
      <trkpt lat="38.3894970" lon="-0.7655930">
        <ele>233.0</ele>
        <time>2018-10-14T06:13:31Z</time>
      </trkpt>
      <trkpt lat="38.3895100" lon="-0.7655580">
        <ele>233.0</ele>
        <time>2018-10-14T06:13:32Z</time>
      </trkpt>
      <trkpt lat="38.3895100" lon="-0.7655580">
        <ele>233.0</ele>
        <time>2018-10-14T06:13:33Z</time>
      </trkpt>
      <trkpt lat="38.3895220" lon="-0.7655350">
        <ele>233.0</ele>
        <time>2018-10-14T06:13:34Z</time>
      </trkpt>
      <trkpt lat="38.3895220" lon="-0.7655350">
        <ele>233.0</ele>
        <time>2018-10-14T06:13:35Z</time>
      </trkpt>
      <trkpt lat="38.3895270" lon="-0.7655230">
        <ele>233.0</ele>
        <time>2018-10-14T06:13:36Z</time>
      </trkpt>
      <trkpt lat="38.3895270" lon="-0.7655230">
        <ele>233.0</ele>
        <time>2018-10-14T06:13:50Z</time>
      </trkpt>
      <trkpt lat="38.3895780" lon="-0.7654670">
        <ele>233.0</ele>
        <time>2018-10-14T06:13:51Z</time>
      </trkpt>
      <trkpt lat="38.3895780" lon="-0.7654670">
        <ele>233.0</ele>
        <time>2018-10-14T06:13:52Z</time>
      </trkpt>
      <trkpt lat="38.3896220" lon="-0.7654100">
        <ele>233.0</ele>
        <time>2018-10-14T06:13:53Z</time>
      </trkpt>
      <trkpt lat="38.3896220" lon="-0.7654100">
        <ele>233.0</ele>
        <time>2018-10-14T06:13:54Z</time>
      </trkpt>
      <trkpt lat="38.3896780" lon="-0.7653720">
        <ele>233.0</ele>
        <time>2018-10-14T06:13:55Z</time>
      </trkpt>
      <trkpt lat="38.3896780" lon="-0.7653720">
        <ele>233.0</ele>
        <time>2018-10-14T06:13:56Z</time>
      </trkpt>
      <trkpt lat="38.3897470" lon="-0.7653800">
        <ele>233.0</ele>
        <time>2018-10-14T06:13:57Z</time>
      </trkpt>
      <trkpt lat="38.3897470" lon="-0.7653800">
        <ele>233.0</ele>
        <time>2018-10-14T06:13:58Z</time>
      </trkpt>
      <trkpt lat="38.3898020" lon="-0.7654180">
        <ele>233.0</ele>
        <time>2018-10-14T06:13:59Z</time>
      </trkpt>
      <trkpt lat="38.3898020" lon="-0.7654180">
        <ele>233.0</ele>
        <time>2018-10-14T06:14:00Z</time>
      </trkpt>
      <trkpt lat="38.3898480" lon="-0.7654550">
        <ele>233.0</ele>
        <time>2018-10-14T06:14:01Z</time>
      </trkpt>
      <trkpt lat="38.3898480" lon="-0.7654550">
        <ele>233.0</ele>
        <time>2018-10-14T06:14:02Z</time>
      </trkpt>
      <trkpt lat="38.3899070" lon="-0.7654630">
        <ele>233.0</ele>
        <time>2018-10-14T06:14:03Z</time>
      </trkpt>
      <trkpt lat="38.3899070" lon="-0.7654630">
        <ele>233.0</ele>
        <time>2018-10-14T06:14:04Z</time>
      </trkpt>
      <trkpt lat="38.3899750" lon="-0.7654580">
        <ele>233.0</ele>
        <time>2018-10-14T06:14:05Z</time>
      </trkpt>
      <trkpt lat="38.3900100" lon="-0.7654650">
        <ele>233.0</ele>
        <time>2018-10-14T06:14:06Z</time>
      </trkpt>
      <trkpt lat="38.3900500" lon="-0.7654750">
        <ele>233.0</ele>
        <time>2018-10-14T06:14:07Z</time>
      </trkpt>
      <trkpt lat="38.3900500" lon="-0.7654750">
        <ele>233.0</ele>
        <time>2018-10-14T06:14:08Z</time>
      </trkpt>
      <trkpt lat="38.3901230" lon="-0.7655180">
        <ele>233.0</ele>
        <time>2018-10-14T06:14:09Z</time>
      </trkpt>
      <trkpt lat="38.3901470" lon="-0.7655550">
        <ele>233.0</ele>
        <time>2018-10-14T06:14:10Z</time>
      </trkpt>
      <trkpt lat="38.3901650" lon="-0.7655980">
        <ele>233.0</ele>
        <time>2018-10-14T06:14:11Z</time>
      </trkpt>
      <trkpt lat="38.3901650" lon="-0.7655980">
        <ele>233.0</ele>
        <time>2018-10-14T06:14:12Z</time>
      </trkpt>
      <trkpt lat="38.3901970" lon="-0.7656880">
        <ele>233.0</ele>
        <time>2018-10-14T06:14:13Z</time>
      </trkpt>
      <trkpt lat="38.3901970" lon="-0.7656880">
        <ele>233.0</ele>
        <time>2018-10-14T06:14:14Z</time>
      </trkpt>
      <trkpt lat="38.3902320" lon="-0.7657820">
        <ele>233.0</ele>
        <time>2018-10-14T06:14:15Z</time>
      </trkpt>
      <trkpt lat="38.3902320" lon="-0.7657820">
        <ele>233.0</ele>
        <time>2018-10-14T06:14:16Z</time>
      </trkpt>
      <trkpt lat="38.3902720" lon="-0.7658680">
        <ele>233.0</ele>
        <time>2018-10-14T06:14:17Z</time>
      </trkpt>
      <trkpt lat="38.3902720" lon="-0.7658680">
        <ele>233.0</ele>
        <time>2018-10-14T06:14:18Z</time>
      </trkpt>
      <trkpt lat="38.3903200" lon="-0.7659480">
        <ele>233.0</ele>
        <time>2018-10-14T06:14:19Z</time>
      </trkpt>
      <trkpt lat="38.3903200" lon="-0.7659480">
        <ele>233.0</ele>
        <time>2018-10-14T06:14:20Z</time>
      </trkpt>
      <trkpt lat="38.3903720" lon="-0.7660200">
        <ele>233.0</ele>
        <time>2018-10-14T06:14:21Z</time>
      </trkpt>
      <trkpt lat="38.3903720" lon="-0.7660200">
        <ele>233.0</ele>
        <time>2018-10-14T06:14:22Z</time>
      </trkpt>
      <trkpt lat="38.3904200" lon="-0.7660930">
        <ele>233.0</ele>
        <time>2018-10-14T06:14:23Z</time>
      </trkpt>
      <trkpt lat="38.3904200" lon="-0.7660930">
        <ele>233.0</ele>
        <time>2018-10-14T06:14:24Z</time>
      </trkpt>
      <trkpt lat="38.3904770" lon="-0.7661670">
        <ele>233.0</ele>
        <time>2018-10-14T06:14:25Z</time>
      </trkpt>
      <trkpt lat="38.3904770" lon="-0.7661670">
        <ele>233.0</ele>
        <time>2018-10-14T06:14:26Z</time>
      </trkpt>
      <trkpt lat="38.3905430" lon="-0.7662230">
        <ele>234.0</ele>
        <time>2018-10-14T06:14:27Z</time>
      </trkpt>
      <trkpt lat="38.3905430" lon="-0.7662230">
        <ele>234.0</ele>
        <time>2018-10-14T06:14:28Z</time>
      </trkpt>
      <trkpt lat="38.3906120" lon="-0.7662500">
        <ele>234.0</ele>
        <time>2018-10-14T06:14:29Z</time>
      </trkpt>
      <trkpt lat="38.3906120" lon="-0.7662500">
        <ele>234.0</ele>
        <time>2018-10-14T06:14:30Z</time>
      </trkpt>
      <trkpt lat="38.3907030" lon="-0.7662420">
        <ele>234.0</ele>
        <time>2018-10-14T06:14:31Z</time>
      </trkpt>
      <trkpt lat="38.3907030" lon="-0.7662420">
        <ele>234.0</ele>
        <time>2018-10-14T06:14:32Z</time>
      </trkpt>
      <trkpt lat="38.3907950" lon="-0.7662380">
        <ele>234.0</ele>
        <time>2018-10-14T06:14:33Z</time>
      </trkpt>
      <trkpt lat="38.3907950" lon="-0.7662380">
        <ele>234.0</ele>
        <time>2018-10-14T06:14:34Z</time>
      </trkpt>
      <trkpt lat="38.3908900" lon="-0.7662350">
        <ele>234.0</ele>
        <time>2018-10-14T06:14:35Z</time>
      </trkpt>
      <trkpt lat="38.3908900" lon="-0.7662350">
        <ele>234.0</ele>
        <time>2018-10-14T06:14:36Z</time>
      </trkpt>
      <trkpt lat="38.3909880" lon="-0.7662270">
        <ele>234.0</ele>
        <time>2018-10-14T06:14:37Z</time>
      </trkpt>
      <trkpt lat="38.3909880" lon="-0.7662270">
        <ele>234.0</ele>
        <time>2018-10-14T06:14:38Z</time>
      </trkpt>
      <trkpt lat="38.3910820" lon="-0.7662220">
        <ele>234.0</ele>
        <time>2018-10-14T06:14:39Z</time>
      </trkpt>
      <trkpt lat="38.3910820" lon="-0.7662220">
        <ele>234.0</ele>
        <time>2018-10-14T06:14:40Z</time>
      </trkpt>
      <trkpt lat="38.3911700" lon="-0.7662120">
        <ele>234.0</ele>
        <time>2018-10-14T06:14:41Z</time>
      </trkpt>
      <trkpt lat="38.3911700" lon="-0.7662120">
        <ele>234.0</ele>
        <time>2018-10-14T06:14:42Z</time>
      </trkpt>
      <trkpt lat="38.3912620" lon="-0.7661970">
        <ele>234.0</ele>
        <time>2018-10-14T06:14:43Z</time>
      </trkpt>
      <trkpt lat="38.3912620" lon="-0.7661970">
        <ele>234.0</ele>
        <time>2018-10-14T06:14:44Z</time>
      </trkpt>
      <trkpt lat="38.3913450" lon="-0.7661830">
        <ele>234.0</ele>
        <time>2018-10-14T06:14:45Z</time>
      </trkpt>
      <trkpt lat="38.3913780" lon="-0.7661670">
        <ele>234.0</ele>
        <time>2018-10-14T06:14:46Z</time>
      </trkpt>
      <trkpt lat="38.3914050" lon="-0.7661300">
        <ele>234.0</ele>
        <time>2018-10-14T06:14:47Z</time>
      </trkpt>
      <trkpt lat="38.3914050" lon="-0.7661300">
        <ele>234.0</ele>
        <time>2018-10-14T06:14:48Z</time>
      </trkpt>
      <trkpt lat="38.3914330" lon="-0.7660370">
        <ele>234.0</ele>
        <time>2018-10-14T06:14:49Z</time>
      </trkpt>
      <trkpt lat="38.3914330" lon="-0.7660370">
        <ele>234.0</ele>
        <time>2018-10-14T06:14:50Z</time>
      </trkpt>
      <trkpt lat="38.3914680" lon="-0.7659320">
        <ele>234.0</ele>
        <time>2018-10-14T06:14:51Z</time>
      </trkpt>
      <trkpt lat="38.3914680" lon="-0.7659320">
        <ele>234.0</ele>
        <time>2018-10-14T06:14:52Z</time>
      </trkpt>
      <trkpt lat="38.3915200" lon="-0.7658420">
        <ele>235.0</ele>
        <time>2018-10-14T06:14:53Z</time>
      </trkpt>
      <trkpt lat="38.3915200" lon="-0.7658420">
        <ele>235.0</ele>
        <time>2018-10-14T06:14:54Z</time>
      </trkpt>
      <trkpt lat="38.3915850" lon="-0.7657650">
        <ele>235.0</ele>
        <time>2018-10-14T06:14:55Z</time>
      </trkpt>
      <trkpt lat="38.3916150" lon="-0.7657280">
        <ele>235.0</ele>
        <time>2018-10-14T06:14:56Z</time>
      </trkpt>
      <trkpt lat="38.3916150" lon="-0.7657280">
        <ele>235.0</ele>
        <time>2018-10-14T06:14:57Z</time>
      </trkpt>
      <trkpt lat="38.3916700" lon="-0.7656550">
        <ele>235.0</ele>
        <time>2018-10-14T06:14:58Z</time>
      </trkpt>
      <trkpt lat="38.3916900" lon="-0.7656180">
        <ele>235.0</ele>
        <time>2018-10-14T06:14:59Z</time>
      </trkpt>
      <trkpt lat="38.3916900" lon="-0.7656180">
        <ele>235.0</ele>
        <time>2018-10-14T06:15:00Z</time>
      </trkpt>
      <trkpt lat="38.3917320" lon="-0.7655330">
        <ele>235.0</ele>
        <time>2018-10-14T06:15:01Z</time>
      </trkpt>
      <trkpt lat="38.3917320" lon="-0.7655330">
        <ele>235.0</ele>
        <time>2018-10-14T06:15:02Z</time>
      </trkpt>
      <trkpt lat="38.3917770" lon="-0.7654450">
        <ele>235.0</ele>
        <time>2018-10-14T06:15:03Z</time>
      </trkpt>
      <trkpt lat="38.3917770" lon="-0.7654450">
        <ele>235.0</ele>
        <time>2018-10-14T06:15:04Z</time>
      </trkpt>
      <trkpt lat="38.3918180" lon="-0.7653570">
        <ele>235.0</ele>
        <time>2018-10-14T06:15:05Z</time>
      </trkpt>
      <trkpt lat="38.3918180" lon="-0.7653570">
        <ele>235.0</ele>
        <time>2018-10-14T06:15:06Z</time>
      </trkpt>
      <trkpt lat="38.3918570" lon="-0.7652730">
        <ele>235.0</ele>
        <time>2018-10-14T06:15:07Z</time>
      </trkpt>
      <trkpt lat="38.3918570" lon="-0.7652730">
        <ele>235.0</ele>
        <time>2018-10-14T06:15:08Z</time>
      </trkpt>
      <trkpt lat="38.3918950" lon="-0.7651870">
        <ele>235.0</ele>
        <time>2018-10-14T06:15:09Z</time>
      </trkpt>
      <trkpt lat="38.3919070" lon="-0.7651400">
        <ele>235.0</ele>
        <time>2018-10-14T06:15:10Z</time>
      </trkpt>
      <trkpt lat="38.3919070" lon="-0.7651400">
        <ele>235.0</ele>
        <time>2018-10-14T06:15:11Z</time>
      </trkpt>
      <trkpt lat="38.3919000" lon="-0.7650500">
        <ele>235.0</ele>
        <time>2018-10-14T06:15:12Z</time>
      </trkpt>
      <trkpt lat="38.3918850" lon="-0.7650080">
        <ele>235.0</ele>
        <time>2018-10-14T06:15:13Z</time>
      </trkpt>
      <trkpt lat="38.3918850" lon="-0.7650080">
        <ele>235.0</ele>
        <time>2018-10-14T06:15:14Z</time>
      </trkpt>
      <trkpt lat="38.3918330" lon="-0.7649270">
        <ele>235.0</ele>
        <time>2018-10-14T06:15:15Z</time>
      </trkpt>
      <trkpt lat="38.3918020" lon="-0.7648850">
        <ele>235.0</ele>
        <time>2018-10-14T06:15:16Z</time>
      </trkpt>
      <trkpt lat="38.3918020" lon="-0.7648850">
        <ele>235.0</ele>
        <time>2018-10-14T06:15:17Z</time>
      </trkpt>
      <trkpt lat="38.3917400" lon="-0.7647920">
        <ele>235.0</ele>
        <time>2018-10-14T06:15:18Z</time>
      </trkpt>
      <trkpt lat="38.3917400" lon="-0.7647920">
        <ele>235.0</ele>
        <time>2018-10-14T06:15:19Z</time>
      </trkpt>
      <trkpt lat="38.3916830" lon="-0.7646930">
        <ele>235.0</ele>
        <time>2018-10-14T06:15:20Z</time>
      </trkpt>
      <trkpt lat="38.3916580" lon="-0.7646420">
        <ele>235.0</ele>
        <time>2018-10-14T06:15:21Z</time>
      </trkpt>
      <trkpt lat="38.3916580" lon="-0.7646420">
        <ele>235.0</ele>
        <time>2018-10-14T06:15:22Z</time>
      </trkpt>
      <trkpt lat="38.3916050" lon="-0.7645400">
        <ele>235.0</ele>
        <time>2018-10-14T06:15:23Z</time>
      </trkpt>
      <trkpt lat="38.3916050" lon="-0.7645400">
        <ele>235.0</ele>
        <time>2018-10-14T06:15:24Z</time>
      </trkpt>
      <trkpt lat="38.3915520" lon="-0.7644420">
        <ele>235.0</ele>
        <time>2018-10-14T06:15:25Z</time>
      </trkpt>
      <trkpt lat="38.3915520" lon="-0.7644420">
        <ele>235.0</ele>
        <time>2018-10-14T06:15:26Z</time>
      </trkpt>
      <trkpt lat="38.3914950" lon="-0.7643420">
        <ele>235.0</ele>
        <time>2018-10-14T06:15:27Z</time>
      </trkpt>
      <trkpt lat="38.3914950" lon="-0.7643420">
        <ele>235.0</ele>
        <time>2018-10-14T06:15:28Z</time>
      </trkpt>
      <trkpt lat="38.3914320" lon="-0.7642500">
        <ele>235.0</ele>
        <time>2018-10-14T06:15:29Z</time>
      </trkpt>
      <trkpt lat="38.3913930" lon="-0.7642070">
        <ele>235.0</ele>
        <time>2018-10-14T06:15:30Z</time>
      </trkpt>
      <trkpt lat="38.3913550" lon="-0.7641650">
        <ele>235.0</ele>
        <time>2018-10-14T06:15:31Z</time>
      </trkpt>
      <trkpt lat="38.3913550" lon="-0.7641650">
        <ele>234.0</ele>
        <time>2018-10-14T06:15:32Z</time>
      </trkpt>
      <trkpt lat="38.3912800" lon="-0.7640800">
        <ele>234.0</ele>
        <time>2018-10-14T06:15:33Z</time>
      </trkpt>
      <trkpt lat="38.3912800" lon="-0.7640800">
        <ele>234.0</ele>
        <time>2018-10-14T06:15:34Z</time>
      </trkpt>
      <trkpt lat="38.3912200" lon="-0.7639800">
        <ele>234.0</ele>
        <time>2018-10-14T06:15:35Z</time>
      </trkpt>
      <trkpt lat="38.3912200" lon="-0.7639800">
        <ele>234.0</ele>
        <time>2018-10-14T06:15:36Z</time>
      </trkpt>
      <trkpt lat="38.3911630" lon="-0.7638720">
        <ele>234.0</ele>
        <time>2018-10-14T06:15:37Z</time>
      </trkpt>
      <trkpt lat="38.3911630" lon="-0.7638720">
        <ele>234.0</ele>
        <time>2018-10-14T06:15:38Z</time>
      </trkpt>
      <trkpt lat="38.3911130" lon="-0.7637620">
        <ele>234.0</ele>
        <time>2018-10-14T06:15:39Z</time>
      </trkpt>
      <trkpt lat="38.3910880" lon="-0.7637080">
        <ele>234.0</ele>
        <time>2018-10-14T06:15:40Z</time>
      </trkpt>
      <trkpt lat="38.3910650" lon="-0.7636530">
        <ele>234.0</ele>
        <time>2018-10-14T06:15:41Z</time>
      </trkpt>
      <trkpt lat="38.3910650" lon="-0.7636530">
        <ele>234.0</ele>
        <time>2018-10-14T06:15:42Z</time>
      </trkpt>
      <trkpt lat="38.3910200" lon="-0.7635380">
        <ele>234.0</ele>
        <time>2018-10-14T06:15:43Z</time>
      </trkpt>
      <trkpt lat="38.3910200" lon="-0.7635380">
        <ele>233.0</ele>
        <time>2018-10-14T06:15:44Z</time>
      </trkpt>
      <trkpt lat="38.3909720" lon="-0.7634230">
        <ele>233.0</ele>
        <time>2018-10-14T06:15:45Z</time>
      </trkpt>
      <trkpt lat="38.3909470" lon="-0.7633650">
        <ele>233.0</ele>
        <time>2018-10-14T06:15:46Z</time>
      </trkpt>
      <trkpt lat="38.3909230" lon="-0.7633100">
        <ele>233.0</ele>
        <time>2018-10-14T06:15:47Z</time>
      </trkpt>
      <trkpt lat="38.3909230" lon="-0.7633100">
        <ele>233.0</ele>
        <time>2018-10-14T06:15:48Z</time>
      </trkpt>
      <trkpt lat="38.3908830" lon="-0.7632030">
        <ele>233.0</ele>
        <time>2018-10-14T06:15:49Z</time>
      </trkpt>
      <trkpt lat="38.3908830" lon="-0.7632030">
        <ele>232.0</ele>
        <time>2018-10-14T06:15:50Z</time>
      </trkpt>
      <trkpt lat="38.3908850" lon="-0.7631020">
        <ele>232.0</ele>
        <time>2018-10-14T06:15:51Z</time>
      </trkpt>
      <trkpt lat="38.3908850" lon="-0.7631020">
        <ele>232.0</ele>
        <time>2018-10-14T06:15:52Z</time>
      </trkpt>
      <trkpt lat="38.3909600" lon="-0.7630470">
        <ele>232.0</ele>
        <time>2018-10-14T06:15:53Z</time>
      </trkpt>
      <trkpt lat="38.3909600" lon="-0.7630470">
        <ele>232.0</ele>
        <time>2018-10-14T06:15:54Z</time>
      </trkpt>
      <trkpt lat="38.3910470" lon="-0.7630180">
        <ele>232.0</ele>
        <time>2018-10-14T06:15:55Z</time>
      </trkpt>
      <trkpt lat="38.3910470" lon="-0.7630180">
        <ele>232.0</ele>
        <time>2018-10-14T06:15:56Z</time>
      </trkpt>
      <trkpt lat="38.3911370" lon="-0.7629850">
        <ele>232.0</ele>
        <time>2018-10-14T06:15:57Z</time>
      </trkpt>
      <trkpt lat="38.3911370" lon="-0.7629850">
        <ele>232.0</ele>
        <time>2018-10-14T06:15:58Z</time>
      </trkpt>
      <trkpt lat="38.3912270" lon="-0.7629530">
        <ele>232.0</ele>
        <time>2018-10-14T06:15:59Z</time>
      </trkpt>
      <trkpt lat="38.3912270" lon="-0.7629530">
        <ele>231.0</ele>
        <time>2018-10-14T06:16:00Z</time>
      </trkpt>
      <trkpt lat="38.3913180" lon="-0.7629220">
        <ele>231.0</ele>
        <time>2018-10-14T06:16:01Z</time>
      </trkpt>
      <trkpt lat="38.3913180" lon="-0.7629220">
        <ele>231.0</ele>
        <time>2018-10-14T06:16:02Z</time>
      </trkpt>
      <trkpt lat="38.3914070" lon="-0.7628900">
        <ele>231.0</ele>
        <time>2018-10-14T06:16:03Z</time>
      </trkpt>
      <trkpt lat="38.3914070" lon="-0.7628900">
        <ele>231.0</ele>
        <time>2018-10-14T06:16:04Z</time>
      </trkpt>
      <trkpt lat="38.3914950" lon="-0.7628630">
        <ele>231.0</ele>
        <time>2018-10-14T06:16:05Z</time>
      </trkpt>
      <trkpt lat="38.3914950" lon="-0.7628630">
        <ele>231.0</ele>
        <time>2018-10-14T06:16:06Z</time>
      </trkpt>
      <trkpt lat="38.3915850" lon="-0.7628430">
        <ele>231.0</ele>
        <time>2018-10-14T06:16:07Z</time>
      </trkpt>
      <trkpt lat="38.3915850" lon="-0.7628430">
        <ele>231.0</ele>
        <time>2018-10-14T06:16:08Z</time>
      </trkpt>
      <trkpt lat="38.3916700" lon="-0.7628280">
        <ele>231.0</ele>
        <time>2018-10-14T06:16:09Z</time>
      </trkpt>
      <trkpt lat="38.3916700" lon="-0.7628280">
        <ele>231.0</ele>
        <time>2018-10-14T06:16:10Z</time>
      </trkpt>
      <trkpt lat="38.3917600" lon="-0.7628220">
        <ele>231.0</ele>
        <time>2018-10-14T06:16:11Z</time>
      </trkpt>
      <trkpt lat="38.3917600" lon="-0.7628220">
        <ele>231.0</ele>
        <time>2018-10-14T06:16:12Z</time>
      </trkpt>
      <trkpt lat="38.3918500" lon="-0.7628030">
        <ele>231.0</ele>
        <time>2018-10-14T06:16:13Z</time>
      </trkpt>
      <trkpt lat="38.3918500" lon="-0.7628030">
        <ele>232.0</ele>
        <time>2018-10-14T06:16:14Z</time>
      </trkpt>
      <trkpt lat="38.3919420" lon="-0.7627900">
        <ele>232.0</ele>
        <time>2018-10-14T06:16:15Z</time>
      </trkpt>
      <trkpt lat="38.3919880" lon="-0.7627830">
        <ele>232.0</ele>
        <time>2018-10-14T06:16:16Z</time>
      </trkpt>
      <trkpt lat="38.3919880" lon="-0.7627830">
        <ele>232.0</ele>
        <time>2018-10-14T06:16:17Z</time>
      </trkpt>
      <trkpt lat="38.3920770" lon="-0.7627700">
        <ele>232.0</ele>
        <time>2018-10-14T06:16:18Z</time>
      </trkpt>
      <trkpt lat="38.3921220" lon="-0.7627620">
        <ele>232.0</ele>
        <time>2018-10-14T06:16:19Z</time>
      </trkpt>
      <trkpt lat="38.3921220" lon="-0.7627620">
        <ele>232.0</ele>
        <time>2018-10-14T06:16:20Z</time>
      </trkpt>
      <trkpt lat="38.3922070" lon="-0.7627470">
        <ele>232.0</ele>
        <time>2018-10-14T06:16:21Z</time>
      </trkpt>
      <trkpt lat="38.3922070" lon="-0.7627470">
        <ele>232.0</ele>
        <time>2018-10-14T06:16:22Z</time>
      </trkpt>
      <trkpt lat="38.3922900" lon="-0.7627370">
        <ele>232.0</ele>
        <time>2018-10-14T06:16:23Z</time>
      </trkpt>
      <trkpt lat="38.3922900" lon="-0.7627370">
        <ele>232.0</ele>
        <time>2018-10-14T06:16:24Z</time>
      </trkpt>
      <trkpt lat="38.3923620" lon="-0.7627250">
        <ele>232.0</ele>
        <time>2018-10-14T06:16:25Z</time>
      </trkpt>
      <trkpt lat="38.3923620" lon="-0.7627250">
        <ele>232.0</ele>
        <time>2018-10-14T06:16:26Z</time>
      </trkpt>
      <trkpt lat="38.3924100" lon="-0.7626770">
        <ele>232.0</ele>
        <time>2018-10-14T06:16:27Z</time>
      </trkpt>
      <trkpt lat="38.3924100" lon="-0.7626770">
        <ele>232.0</ele>
        <time>2018-10-14T06:16:28Z</time>
      </trkpt>
      <trkpt lat="38.3924280" lon="-0.7625830">
        <ele>232.0</ele>
        <time>2018-10-14T06:16:29Z</time>
      </trkpt>
      <trkpt lat="38.3924280" lon="-0.7625830">
        <ele>232.0</ele>
        <time>2018-10-14T06:16:30Z</time>
      </trkpt>
      <trkpt lat="38.3924320" lon="-0.7624750">
        <ele>232.0</ele>
        <time>2018-10-14T06:16:31Z</time>
      </trkpt>
      <trkpt lat="38.3924320" lon="-0.7624180">
        <ele>232.0</ele>
        <time>2018-10-14T06:16:32Z</time>
      </trkpt>
      <trkpt lat="38.3924320" lon="-0.7624180">
        <ele>232.0</ele>
        <time>2018-10-14T06:16:33Z</time>
      </trkpt>
      <trkpt lat="38.3924420" lon="-0.7623080">
        <ele>232.0</ele>
        <time>2018-10-14T06:16:34Z</time>
      </trkpt>
      <trkpt lat="38.3924450" lon="-0.7622520">
        <ele>232.0</ele>
        <time>2018-10-14T06:16:35Z</time>
      </trkpt>
      <trkpt lat="38.3924450" lon="-0.7622520">
        <ele>232.0</ele>
        <time>2018-10-14T06:16:36Z</time>
      </trkpt>
      <trkpt lat="38.3924530" lon="-0.7621380">
        <ele>232.0</ele>
        <time>2018-10-14T06:16:37Z</time>
      </trkpt>
      <trkpt lat="38.3924530" lon="-0.7621380">
        <ele>232.0</ele>
        <time>2018-10-14T06:16:38Z</time>
      </trkpt>
      <trkpt lat="38.3924630" lon="-0.7620230">
        <ele>232.0</ele>
        <time>2018-10-14T06:16:39Z</time>
      </trkpt>
      <trkpt lat="38.3924630" lon="-0.7620230">
        <ele>232.0</ele>
        <time>2018-10-14T06:16:40Z</time>
      </trkpt>
      <trkpt lat="38.3924730" lon="-0.7619030">
        <ele>232.0</ele>
        <time>2018-10-14T06:16:41Z</time>
      </trkpt>
      <trkpt lat="38.3924730" lon="-0.7619030">
        <ele>232.0</ele>
        <time>2018-10-14T06:16:42Z</time>
      </trkpt>
      <trkpt lat="38.3924870" lon="-0.7617850">
        <ele>232.0</ele>
        <time>2018-10-14T06:16:43Z</time>
      </trkpt>
      <trkpt lat="38.3924870" lon="-0.7617850">
        <ele>232.0</ele>
        <time>2018-10-14T06:16:44Z</time>
      </trkpt>
      <trkpt lat="38.3924980" lon="-0.7616700">
        <ele>232.0</ele>
        <time>2018-10-14T06:16:45Z</time>
      </trkpt>
      <trkpt lat="38.3924980" lon="-0.7616700">
        <ele>232.0</ele>
        <time>2018-10-14T06:16:46Z</time>
      </trkpt>
      <trkpt lat="38.3925100" lon="-0.7615600">
        <ele>232.0</ele>
        <time>2018-10-14T06:16:47Z</time>
      </trkpt>
      <trkpt lat="38.3925100" lon="-0.7615600">
        <ele>232.0</ele>
        <time>2018-10-14T06:16:48Z</time>
      </trkpt>
      <trkpt lat="38.3925250" lon="-0.7614430">
        <ele>232.0</ele>
        <time>2018-10-14T06:16:49Z</time>
      </trkpt>
      <trkpt lat="38.3925250" lon="-0.7614430">
        <ele>232.0</ele>
        <time>2018-10-14T06:16:50Z</time>
      </trkpt>
      <trkpt lat="38.3925400" lon="-0.7613220">
        <ele>232.0</ele>
        <time>2018-10-14T06:16:51Z</time>
      </trkpt>
      <trkpt lat="38.3925400" lon="-0.7613220">
        <ele>232.0</ele>
        <time>2018-10-14T06:16:52Z</time>
      </trkpt>
      <trkpt lat="38.3925600" lon="-0.7612000">
        <ele>232.0</ele>
        <time>2018-10-14T06:16:53Z</time>
      </trkpt>
      <trkpt lat="38.3925600" lon="-0.7612000">
        <ele>232.0</ele>
        <time>2018-10-14T06:16:54Z</time>
      </trkpt>
      <trkpt lat="38.3925730" lon="-0.7610780">
        <ele>232.0</ele>
        <time>2018-10-14T06:16:55Z</time>
      </trkpt>
      <trkpt lat="38.3925730" lon="-0.7610780">
        <ele>232.0</ele>
        <time>2018-10-14T06:16:56Z</time>
      </trkpt>
      <trkpt lat="38.3925900" lon="-0.7609500">
        <ele>232.0</ele>
        <time>2018-10-14T06:16:57Z</time>
      </trkpt>
      <trkpt lat="38.3925900" lon="-0.7609500">
        <ele>232.0</ele>
        <time>2018-10-14T06:16:58Z</time>
      </trkpt>
      <trkpt lat="38.3926050" lon="-0.7608230">
        <ele>232.0</ele>
        <time>2018-10-14T06:16:59Z</time>
      </trkpt>
      <trkpt lat="38.3926050" lon="-0.7608230">
        <ele>232.0</ele>
        <time>2018-10-14T06:17:00Z</time>
      </trkpt>
      <trkpt lat="38.3926200" lon="-0.7607020">
        <ele>232.0</ele>
        <time>2018-10-14T06:17:01Z</time>
      </trkpt>
      <trkpt lat="38.3926200" lon="-0.7607020">
        <ele>232.0</ele>
        <time>2018-10-14T06:17:02Z</time>
      </trkpt>
      <trkpt lat="38.3926320" lon="-0.7605850">
        <ele>232.0</ele>
        <time>2018-10-14T06:17:03Z</time>
      </trkpt>
      <trkpt lat="38.3926320" lon="-0.7605850">
        <ele>232.0</ele>
        <time>2018-10-14T06:17:04Z</time>
      </trkpt>
      <trkpt lat="38.3926470" lon="-0.7604720">
        <ele>232.0</ele>
        <time>2018-10-14T06:17:05Z</time>
      </trkpt>
      <trkpt lat="38.3926470" lon="-0.7604720">
        <ele>232.0</ele>
        <time>2018-10-14T06:17:06Z</time>
      </trkpt>
      <trkpt lat="38.3926580" lon="-0.7603670">
        <ele>232.0</ele>
        <time>2018-10-14T06:17:07Z</time>
      </trkpt>
      <trkpt lat="38.3926580" lon="-0.7603670">
        <ele>232.0</ele>
        <time>2018-10-14T06:17:08Z</time>
      </trkpt>
      <trkpt lat="38.3926620" lon="-0.7602730">
        <ele>232.0</ele>
        <time>2018-10-14T06:17:09Z</time>
      </trkpt>
      <trkpt lat="38.3926620" lon="-0.7602730">
        <ele>232.0</ele>
        <time>2018-10-14T06:17:10Z</time>
      </trkpt>
      <trkpt lat="38.3926570" lon="-0.7602080">
        <ele>232.0</ele>
        <time>2018-10-14T06:17:11Z</time>
      </trkpt>
      <trkpt lat="38.3926570" lon="-0.7602080">
        <ele>232.0</ele>
        <time>2018-10-14T06:17:12Z</time>
      </trkpt>
      <trkpt lat="38.3926750" lon="-0.7601520">
        <ele>232.0</ele>
        <time>2018-10-14T06:17:13Z</time>
      </trkpt>
      <trkpt lat="38.3926750" lon="-0.7601520">
        <ele>232.0</ele>
        <time>2018-10-14T06:17:14Z</time>
      </trkpt>
      <trkpt lat="38.3927380" lon="-0.7601200">
        <ele>232.0</ele>
        <time>2018-10-14T06:17:15Z</time>
      </trkpt>
      <trkpt lat="38.3927380" lon="-0.7601200">
        <ele>232.0</ele>
        <time>2018-10-14T06:17:16Z</time>
      </trkpt>
      <trkpt lat="38.3928230" lon="-0.7600900">
        <ele>231.0</ele>
        <time>2018-10-14T06:17:17Z</time>
      </trkpt>
      <trkpt lat="38.3928230" lon="-0.7600900">
        <ele>231.0</ele>
        <time>2018-10-14T06:17:18Z</time>
      </trkpt>
      <trkpt lat="38.3929100" lon="-0.7600550">
        <ele>231.0</ele>
        <time>2018-10-14T06:17:19Z</time>
      </trkpt>
      <trkpt lat="38.3929100" lon="-0.7600550">
        <ele>231.0</ele>
        <time>2018-10-14T06:17:20Z</time>
      </trkpt>
      <trkpt lat="38.3929950" lon="-0.7600130">
        <ele>231.0</ele>
        <time>2018-10-14T06:17:21Z</time>
      </trkpt>
      <trkpt lat="38.3930350" lon="-0.7599900">
        <ele>231.0</ele>
        <time>2018-10-14T06:17:22Z</time>
      </trkpt>
      <trkpt lat="38.3930770" lon="-0.7599620">
        <ele>231.0</ele>
        <time>2018-10-14T06:17:23Z</time>
      </trkpt>
      <trkpt lat="38.3930770" lon="-0.7599620">
        <ele>231.0</ele>
        <time>2018-10-14T06:17:24Z</time>
      </trkpt>
      <trkpt lat="38.3931470" lon="-0.7598880">
        <ele>231.0</ele>
        <time>2018-10-14T06:17:25Z</time>
      </trkpt>
      <trkpt lat="38.3931470" lon="-0.7598880">
        <ele>231.0</ele>
        <time>2018-10-14T06:17:26Z</time>
      </trkpt>
      <trkpt lat="38.3932070" lon="-0.7597970">
        <ele>231.0</ele>
        <time>2018-10-14T06:17:27Z</time>
      </trkpt>
      <trkpt lat="38.3932070" lon="-0.7597970">
        <ele>231.0</ele>
        <time>2018-10-14T06:17:28Z</time>
      </trkpt>
      <trkpt lat="38.3932700" lon="-0.7597080">
        <ele>231.0</ele>
        <time>2018-10-14T06:17:29Z</time>
      </trkpt>
      <trkpt lat="38.3932700" lon="-0.7597080">
        <ele>231.0</ele>
        <time>2018-10-14T06:17:30Z</time>
      </trkpt>
      <trkpt lat="38.3933430" lon="-0.7596330">
        <ele>231.0</ele>
        <time>2018-10-14T06:17:31Z</time>
      </trkpt>
      <trkpt lat="38.3933430" lon="-0.7596330">
        <ele>231.0</ele>
        <time>2018-10-14T06:17:32Z</time>
      </trkpt>
      <trkpt lat="38.3934220" lon="-0.7595650">
        <ele>231.0</ele>
        <time>2018-10-14T06:17:33Z</time>
      </trkpt>
      <trkpt lat="38.3934220" lon="-0.7595650">
        <ele>231.0</ele>
        <time>2018-10-14T06:17:34Z</time>
      </trkpt>
      <trkpt lat="38.3935000" lon="-0.7595020">
        <ele>231.0</ele>
        <time>2018-10-14T06:17:35Z</time>
      </trkpt>
      <trkpt lat="38.3935380" lon="-0.7594730">
        <ele>231.0</ele>
        <time>2018-10-14T06:17:36Z</time>
      </trkpt>
      <trkpt lat="38.3935770" lon="-0.7594450">
        <ele>231.0</ele>
        <time>2018-10-14T06:17:37Z</time>
      </trkpt>
      <trkpt lat="38.3935770" lon="-0.7594450">
        <ele>231.0</ele>
        <time>2018-10-14T06:17:38Z</time>
      </trkpt>
      <trkpt lat="38.3936550" lon="-0.7593870">
        <ele>231.0</ele>
        <time>2018-10-14T06:17:39Z</time>
      </trkpt>
      <trkpt lat="38.3936550" lon="-0.7593870">
        <ele>231.0</ele>
        <time>2018-10-14T06:17:40Z</time>
      </trkpt>
      <trkpt lat="38.3937350" lon="-0.7593200">
        <ele>231.0</ele>
        <time>2018-10-14T06:17:41Z</time>
      </trkpt>
      <trkpt lat="38.3937750" lon="-0.7592870">
        <ele>231.0</ele>
        <time>2018-10-14T06:17:42Z</time>
      </trkpt>
      <trkpt lat="38.3938150" lon="-0.7592550">
        <ele>231.0</ele>
        <time>2018-10-14T06:17:43Z</time>
      </trkpt>
      <trkpt lat="38.3938150" lon="-0.7592550">
        <ele>231.0</ele>
        <time>2018-10-14T06:17:44Z</time>
      </trkpt>
      <trkpt lat="38.3938930" lon="-0.7591920">
        <ele>231.0</ele>
        <time>2018-10-14T06:17:45Z</time>
      </trkpt>
      <trkpt lat="38.3938930" lon="-0.7591920">
        <ele>231.0</ele>
        <time>2018-10-14T06:17:46Z</time>
      </trkpt>
      <trkpt lat="38.3939670" lon="-0.7591270">
        <ele>231.0</ele>
        <time>2018-10-14T06:17:47Z</time>
      </trkpt>
      <trkpt lat="38.3939670" lon="-0.7591270">
        <ele>232.0</ele>
        <time>2018-10-14T06:17:48Z</time>
      </trkpt>
      <trkpt lat="38.3940420" lon="-0.7590670">
        <ele>232.0</ele>
        <time>2018-10-14T06:17:49Z</time>
      </trkpt>
      <trkpt lat="38.3940420" lon="-0.7590670">
        <ele>232.0</ele>
        <time>2018-10-14T06:17:50Z</time>
      </trkpt>
      <trkpt lat="38.3941130" lon="-0.7590070">
        <ele>232.0</ele>
        <time>2018-10-14T06:17:51Z</time>
      </trkpt>
      <trkpt lat="38.3941130" lon="-0.7590070">
        <ele>232.0</ele>
        <time>2018-10-14T06:17:52Z</time>
      </trkpt>
      <trkpt lat="38.3941870" lon="-0.7589500">
        <ele>232.0</ele>
        <time>2018-10-14T06:17:53Z</time>
      </trkpt>
      <trkpt lat="38.3941870" lon="-0.7589500">
        <ele>232.0</ele>
        <time>2018-10-14T06:17:54Z</time>
      </trkpt>
      <trkpt lat="38.3942620" lon="-0.7588900">
        <ele>232.0</ele>
        <time>2018-10-14T06:17:55Z</time>
      </trkpt>
      <trkpt lat="38.3942620" lon="-0.7588900">
        <ele>233.0</ele>
        <time>2018-10-14T06:17:56Z</time>
      </trkpt>
      <trkpt lat="38.3943300" lon="-0.7588330">
        <ele>233.0</ele>
        <time>2018-10-14T06:17:57Z</time>
      </trkpt>
      <trkpt lat="38.3943300" lon="-0.7588330">
        <ele>233.0</ele>
        <time>2018-10-14T06:17:58Z</time>
      </trkpt>
      <trkpt lat="38.3944020" lon="-0.7587750">
        <ele>233.0</ele>
        <time>2018-10-14T06:17:59Z</time>
      </trkpt>
      <trkpt lat="38.3944020" lon="-0.7587750">
        <ele>233.0</ele>
        <time>2018-10-14T06:18:00Z</time>
      </trkpt>
      <trkpt lat="38.3944730" lon="-0.7587100">
        <ele>233.0</ele>
        <time>2018-10-14T06:18:01Z</time>
      </trkpt>
      <trkpt lat="38.3945080" lon="-0.7586800">
        <ele>233.0</ele>
        <time>2018-10-14T06:18:02Z</time>
      </trkpt>
      <trkpt lat="38.3945080" lon="-0.7586800">
        <ele>233.0</ele>
        <time>2018-10-14T06:18:03Z</time>
      </trkpt>
      <trkpt lat="38.3945820" lon="-0.7586370">
        <ele>233.0</ele>
        <time>2018-10-14T06:18:04Z</time>
      </trkpt>
      <trkpt lat="38.3946170" lon="-0.7586170">
        <ele>233.0</ele>
        <time>2018-10-14T06:18:05Z</time>
      </trkpt>
      <trkpt lat="38.3946170" lon="-0.7586170">
        <ele>233.0</ele>
        <time>2018-10-14T06:18:06Z</time>
      </trkpt>
      <trkpt lat="38.3947020" lon="-0.7585680">
        <ele>233.0</ele>
        <time>2018-10-14T06:18:07Z</time>
      </trkpt>
      <trkpt lat="38.3947020" lon="-0.7585680">
        <ele>233.0</ele>
        <time>2018-10-14T06:18:08Z</time>
      </trkpt>
      <trkpt lat="38.3947820" lon="-0.7585180">
        <ele>233.0</ele>
        <time>2018-10-14T06:18:09Z</time>
      </trkpt>
      <trkpt lat="38.3947820" lon="-0.7585180">
        <ele>233.0</ele>
        <time>2018-10-14T06:18:10Z</time>
      </trkpt>
      <trkpt lat="38.3948620" lon="-0.7584830">
        <ele>234.0</ele>
        <time>2018-10-14T06:18:11Z</time>
      </trkpt>
      <trkpt lat="38.3948620" lon="-0.7584830">
        <ele>234.0</ele>
        <time>2018-10-14T06:18:12Z</time>
      </trkpt>
      <trkpt lat="38.3949430" lon="-0.7584450">
        <ele>234.0</ele>
        <time>2018-10-14T06:18:13Z</time>
      </trkpt>
      <trkpt lat="38.3949430" lon="-0.7584450">
        <ele>234.0</ele>
        <time>2018-10-14T06:18:14Z</time>
      </trkpt>
      <trkpt lat="38.3950230" lon="-0.7584050">
        <ele>234.0</ele>
        <time>2018-10-14T06:18:15Z</time>
      </trkpt>
      <trkpt lat="38.3950230" lon="-0.7584050">
        <ele>234.0</ele>
        <time>2018-10-14T06:18:16Z</time>
      </trkpt>
      <trkpt lat="38.3950980" lon="-0.7583620">
        <ele>234.0</ele>
        <time>2018-10-14T06:18:17Z</time>
      </trkpt>
      <trkpt lat="38.3950980" lon="-0.7583620">
        <ele>234.0</ele>
        <time>2018-10-14T06:18:18Z</time>
      </trkpt>
      <trkpt lat="38.3951680" lon="-0.7583050">
        <ele>234.0</ele>
        <time>2018-10-14T06:18:19Z</time>
      </trkpt>
      <trkpt lat="38.3951680" lon="-0.7583050">
        <ele>234.0</ele>
        <time>2018-10-14T06:18:20Z</time>
      </trkpt>
      <trkpt lat="38.3952420" lon="-0.7582430">
        <ele>234.0</ele>
        <time>2018-10-14T06:18:21Z</time>
      </trkpt>
      <trkpt lat="38.3952420" lon="-0.7582430">
        <ele>235.0</ele>
        <time>2018-10-14T06:18:22Z</time>
      </trkpt>
      <trkpt lat="38.3953130" lon="-0.7581970">
        <ele>235.0</ele>
        <time>2018-10-14T06:18:23Z</time>
      </trkpt>
      <trkpt lat="38.3953400" lon="-0.7581730">
        <ele>235.0</ele>
        <time>2018-10-14T06:18:24Z</time>
      </trkpt>
      <trkpt lat="38.3953400" lon="-0.7581730">
        <ele>235.0</ele>
        <time>2018-10-14T06:18:25Z</time>
      </trkpt>
      <trkpt lat="38.3953900" lon="-0.7581370">
        <ele>235.0</ele>
        <time>2018-10-14T06:18:26Z</time>
      </trkpt>
      <trkpt lat="38.3953900" lon="-0.7581370">
        <ele>235.0</ele>
        <time>2018-10-14T06:18:27Z</time>
      </trkpt>
      <trkpt lat="38.3954470" lon="-0.7580970">
        <ele>236.0</ele>
        <time>2018-10-14T06:18:28Z</time>
      </trkpt>
      <trkpt lat="38.3954770" lon="-0.7580730">
        <ele>236.0</ele>
        <time>2018-10-14T06:18:29Z</time>
      </trkpt>
      <trkpt lat="38.3954770" lon="-0.7580730">
        <ele>236.0</ele>
        <time>2018-10-14T06:18:30Z</time>
      </trkpt>
      <trkpt lat="38.3955270" lon="-0.7580250">
        <ele>236.0</ele>
        <time>2018-10-14T06:18:31Z</time>
      </trkpt>
      <trkpt lat="38.3955520" lon="-0.7580030">
        <ele>236.0</ele>
        <time>2018-10-14T06:18:32Z</time>
      </trkpt>
      <trkpt lat="38.3955520" lon="-0.7580030">
        <ele>236.0</ele>
        <time>2018-10-14T06:18:33Z</time>
      </trkpt>
      <trkpt lat="38.3956070" lon="-0.7579650">
        <ele>236.0</ele>
        <time>2018-10-14T06:18:34Z</time>
      </trkpt>
      <trkpt lat="38.3956370" lon="-0.7579400">
        <ele>237.0</ele>
        <time>2018-10-14T06:18:35Z</time>
      </trkpt>
      <trkpt lat="38.3956370" lon="-0.7579400">
        <ele>237.0</ele>
        <time>2018-10-14T06:18:36Z</time>
      </trkpt>
      <trkpt lat="38.3957000" lon="-0.7578920">
        <ele>237.0</ele>
        <time>2018-10-14T06:18:37Z</time>
      </trkpt>
      <trkpt lat="38.3957000" lon="-0.7578920">
        <ele>237.0</ele>
        <time>2018-10-14T06:18:38Z</time>
      </trkpt>
      <trkpt lat="38.3957650" lon="-0.7578400">
        <ele>237.0</ele>
        <time>2018-10-14T06:18:39Z</time>
      </trkpt>
      <trkpt lat="38.3957650" lon="-0.7578400">
        <ele>237.0</ele>
        <time>2018-10-14T06:18:40Z</time>
      </trkpt>
      <trkpt lat="38.3958300" lon="-0.7577900">
        <ele>237.0</ele>
        <time>2018-10-14T06:18:41Z</time>
      </trkpt>
      <trkpt lat="38.3958300" lon="-0.7577900">
        <ele>237.0</ele>
        <time>2018-10-14T06:18:42Z</time>
      </trkpt>
      <trkpt lat="38.3958950" lon="-0.7577380">
        <ele>237.0</ele>
        <time>2018-10-14T06:18:43Z</time>
      </trkpt>
      <trkpt lat="38.3958950" lon="-0.7577380">
        <ele>237.0</ele>
        <time>2018-10-14T06:18:44Z</time>
      </trkpt>
      <trkpt lat="38.3959620" lon="-0.7576870">
        <ele>238.0</ele>
        <time>2018-10-14T06:18:45Z</time>
      </trkpt>
      <trkpt lat="38.3959620" lon="-0.7576870">
        <ele>238.0</ele>
        <time>2018-10-14T06:18:46Z</time>
      </trkpt>
      <trkpt lat="38.3960280" lon="-0.7576380">
        <ele>238.0</ele>
        <time>2018-10-14T06:18:47Z</time>
      </trkpt>
      <trkpt lat="38.3960280" lon="-0.7576380">
        <ele>238.0</ele>
        <time>2018-10-14T06:18:48Z</time>
      </trkpt>
      <trkpt lat="38.3960930" lon="-0.7575880">
        <ele>239.0</ele>
        <time>2018-10-14T06:18:49Z</time>
      </trkpt>
      <trkpt lat="38.3960930" lon="-0.7575880">
        <ele>239.0</ele>
        <time>2018-10-14T06:18:50Z</time>
      </trkpt>
      <trkpt lat="38.3961600" lon="-0.7575400">
        <ele>239.0</ele>
        <time>2018-10-14T06:18:51Z</time>
      </trkpt>
      <trkpt lat="38.3961950" lon="-0.7575180">
        <ele>239.0</ele>
        <time>2018-10-14T06:18:52Z</time>
      </trkpt>
      <trkpt lat="38.3962280" lon="-0.7575020">
        <ele>239.0</ele>
        <time>2018-10-14T06:18:53Z</time>
      </trkpt>
      <trkpt lat="38.3962280" lon="-0.7575020">
        <ele>239.0</ele>
        <time>2018-10-14T06:18:54Z</time>
      </trkpt>
      <trkpt lat="38.3962950" lon="-0.7574800">
        <ele>240.0</ele>
        <time>2018-10-14T06:18:55Z</time>
      </trkpt>
      <trkpt lat="38.3963300" lon="-0.7574720">
        <ele>240.0</ele>
        <time>2018-10-14T06:18:56Z</time>
      </trkpt>
      <trkpt lat="38.3963300" lon="-0.7574720">
        <ele>240.0</ele>
        <time>2018-10-14T06:18:57Z</time>
      </trkpt>
      <trkpt lat="38.3964030" lon="-0.7574570">
        <ele>240.0</ele>
        <time>2018-10-14T06:18:58Z</time>
      </trkpt>
      <trkpt lat="38.3964030" lon="-0.7574570">
        <ele>240.0</ele>
        <time>2018-10-14T06:18:59Z</time>
      </trkpt>
      <trkpt lat="38.3964780" lon="-0.7574450">
        <ele>240.0</ele>
        <time>2018-10-14T06:19:00Z</time>
      </trkpt>
      <trkpt lat="38.3965170" lon="-0.7574400">
        <ele>240.0</ele>
        <time>2018-10-14T06:19:01Z</time>
      </trkpt>
      <trkpt lat="38.3965170" lon="-0.7574400">
        <ele>240.0</ele>
        <time>2018-10-14T06:19:02Z</time>
      </trkpt>
      <trkpt lat="38.3965920" lon="-0.7574300">
        <ele>240.0</ele>
        <time>2018-10-14T06:19:03Z</time>
      </trkpt>
      <trkpt lat="38.3965920" lon="-0.7574300">
        <ele>240.0</ele>
        <time>2018-10-14T06:19:04Z</time>
      </trkpt>
      <trkpt lat="38.3966720" lon="-0.7574130">
        <ele>240.0</ele>
        <time>2018-10-14T06:19:05Z</time>
      </trkpt>
      <trkpt lat="38.3966720" lon="-0.7574130">
        <ele>240.0</ele>
        <time>2018-10-14T06:19:06Z</time>
      </trkpt>
      <trkpt lat="38.3967520" lon="-0.7574020">
        <ele>240.0</ele>
        <time>2018-10-14T06:19:07Z</time>
      </trkpt>
      <trkpt lat="38.3967520" lon="-0.7574020">
        <ele>240.0</ele>
        <time>2018-10-14T06:19:08Z</time>
      </trkpt>
      <trkpt lat="38.3968300" lon="-0.7574000">
        <ele>240.0</ele>
        <time>2018-10-14T06:19:09Z</time>
      </trkpt>
      <trkpt lat="38.3968300" lon="-0.7574000">
        <ele>240.0</ele>
        <time>2018-10-14T06:19:10Z</time>
      </trkpt>
      <trkpt lat="38.3969080" lon="-0.7573950">
        <ele>240.0</ele>
        <time>2018-10-14T06:19:11Z</time>
      </trkpt>
      <trkpt lat="38.3969080" lon="-0.7573950">
        <ele>242.0</ele>
        <time>2018-10-14T06:19:12Z</time>
      </trkpt>
      <trkpt lat="38.3969830" lon="-0.7573950">
        <ele>242.0</ele>
        <time>2018-10-14T06:19:13Z</time>
      </trkpt>
      <trkpt lat="38.3969830" lon="-0.7573950">
        <ele>242.0</ele>
        <time>2018-10-14T06:19:14Z</time>
      </trkpt>
      <trkpt lat="38.3970620" lon="-0.7573920">
        <ele>242.0</ele>
        <time>2018-10-14T06:19:15Z</time>
      </trkpt>
      <trkpt lat="38.3970980" lon="-0.7573880">
        <ele>243.0</ele>
        <time>2018-10-14T06:19:16Z</time>
      </trkpt>
      <trkpt lat="38.3971370" lon="-0.7573830">
        <ele>243.0</ele>
        <time>2018-10-14T06:19:17Z</time>
      </trkpt>
      <trkpt lat="38.3971370" lon="-0.7573830">
        <ele>243.0</ele>
        <time>2018-10-14T06:19:18Z</time>
      </trkpt>
      <trkpt lat="38.3972170" lon="-0.7573800">
        <ele>243.0</ele>
        <time>2018-10-14T06:19:19Z</time>
      </trkpt>
      <trkpt lat="38.3972170" lon="-0.7573800">
        <ele>244.0</ele>
        <time>2018-10-14T06:19:20Z</time>
      </trkpt>
      <trkpt lat="38.3972980" lon="-0.7573720">
        <ele>244.0</ele>
        <time>2018-10-14T06:19:21Z</time>
      </trkpt>
      <trkpt lat="38.3972980" lon="-0.7573720">
        <ele>244.0</ele>
        <time>2018-10-14T06:19:22Z</time>
      </trkpt>
      <trkpt lat="38.3973800" lon="-0.7573620">
        <ele>244.0</ele>
        <time>2018-10-14T06:19:23Z</time>
      </trkpt>
      <trkpt lat="38.3973800" lon="-0.7573620">
        <ele>245.0</ele>
        <time>2018-10-14T06:19:24Z</time>
      </trkpt>
      <trkpt lat="38.3974570" lon="-0.7573480">
        <ele>245.0</ele>
        <time>2018-10-14T06:19:25Z</time>
      </trkpt>
      <trkpt lat="38.3974950" lon="-0.7573400">
        <ele>245.0</ele>
        <time>2018-10-14T06:19:26Z</time>
      </trkpt>
      <trkpt lat="38.3975330" lon="-0.7573280">
        <ele>245.0</ele>
        <time>2018-10-14T06:19:27Z</time>
      </trkpt>
      <trkpt lat="38.3975330" lon="-0.7573280">
        <ele>246.0</ele>
        <time>2018-10-14T06:19:28Z</time>
      </trkpt>
      <trkpt lat="38.3976080" lon="-0.7573020">
        <ele>246.0</ele>
        <time>2018-10-14T06:19:29Z</time>
      </trkpt>
      <trkpt lat="38.3976450" lon="-0.7572880">
        <ele>246.0</ele>
        <time>2018-10-14T06:19:30Z</time>
      </trkpt>
      <trkpt lat="38.3976450" lon="-0.7572880">
        <ele>246.0</ele>
        <time>2018-10-14T06:19:31Z</time>
      </trkpt>
      <trkpt lat="38.3977230" lon="-0.7572630">
        <ele>246.0</ele>
        <time>2018-10-14T06:19:32Z</time>
      </trkpt>
      <trkpt lat="38.3977230" lon="-0.7572630">
        <ele>248.0</ele>
        <time>2018-10-14T06:19:33Z</time>
      </trkpt>
      <trkpt lat="38.3977970" lon="-0.7572400">
        <ele>248.0</ele>
        <time>2018-10-14T06:19:34Z</time>
      </trkpt>
      <trkpt lat="38.3978330" lon="-0.7572300">
        <ele>248.0</ele>
        <time>2018-10-14T06:19:35Z</time>
      </trkpt>
      <trkpt lat="38.3978330" lon="-0.7572300">
        <ele>248.0</ele>
        <time>2018-10-14T06:19:36Z</time>
      </trkpt>
      <trkpt lat="38.3979080" lon="-0.7571950">
        <ele>249.0</ele>
        <time>2018-10-14T06:19:37Z</time>
      </trkpt>
      <trkpt lat="38.3979080" lon="-0.7571950">
        <ele>249.0</ele>
        <time>2018-10-14T06:19:38Z</time>
      </trkpt>
      <trkpt lat="38.3979720" lon="-0.7571680">
        <ele>249.0</ele>
        <time>2018-10-14T06:19:39Z</time>
      </trkpt>
      <trkpt lat="38.3979720" lon="-0.7571680">
        <ele>250.0</ele>
        <time>2018-10-14T06:19:40Z</time>
      </trkpt>
      <trkpt lat="38.3980380" lon="-0.7571420">
        <ele>250.0</ele>
        <time>2018-10-14T06:19:41Z</time>
      </trkpt>
      <trkpt lat="38.3980380" lon="-0.7571420">
        <ele>250.0</ele>
        <time>2018-10-14T06:19:42Z</time>
      </trkpt>
      <trkpt lat="38.3981050" lon="-0.7571150">
        <ele>250.0</ele>
        <time>2018-10-14T06:19:43Z</time>
      </trkpt>
      <trkpt lat="38.3981050" lon="-0.7571150">
        <ele>250.0</ele>
        <time>2018-10-14T06:19:44Z</time>
      </trkpt>
      <trkpt lat="38.3981730" lon="-0.7570830">
        <ele>251.0</ele>
        <time>2018-10-14T06:19:45Z</time>
      </trkpt>
      <trkpt lat="38.3982120" lon="-0.7570680">
        <ele>251.0</ele>
        <time>2018-10-14T06:19:46Z</time>
      </trkpt>
      <trkpt lat="38.3982480" lon="-0.7570530">
        <ele>251.0</ele>
        <time>2018-10-14T06:19:47Z</time>
      </trkpt>
      <trkpt lat="38.3982480" lon="-0.7570530">
        <ele>251.0</ele>
        <time>2018-10-14T06:19:48Z</time>
      </trkpt>
      <trkpt lat="38.3983230" lon="-0.7570270">
        <ele>251.0</ele>
        <time>2018-10-14T06:19:49Z</time>
      </trkpt>
      <trkpt lat="38.3983230" lon="-0.7570270">
        <ele>251.0</ele>
        <time>2018-10-14T06:19:50Z</time>
      </trkpt>
      <trkpt lat="38.3983930" lon="-0.7570000">
        <ele>251.0</ele>
        <time>2018-10-14T06:19:51Z</time>
      </trkpt>
      <trkpt lat="38.3983930" lon="-0.7570000">
        <ele>251.0</ele>
        <time>2018-10-14T06:19:52Z</time>
      </trkpt>
      <trkpt lat="38.3984600" lon="-0.7569700">
        <ele>252.0</ele>
        <time>2018-10-14T06:19:53Z</time>
      </trkpt>
      <trkpt lat="38.3984600" lon="-0.7569700">
        <ele>252.0</ele>
        <time>2018-10-14T06:19:54Z</time>
      </trkpt>
      <trkpt lat="38.3985280" lon="-0.7569350">
        <ele>252.0</ele>
        <time>2018-10-14T06:19:55Z</time>
      </trkpt>
      <trkpt lat="38.3985280" lon="-0.7569350">
        <ele>252.0</ele>
        <time>2018-10-14T06:19:56Z</time>
      </trkpt>
      <trkpt lat="38.3986070" lon="-0.7568920">
        <ele>252.0</ele>
        <time>2018-10-14T06:19:57Z</time>
      </trkpt>
      <trkpt lat="38.3986070" lon="-0.7568920">
        <ele>252.0</ele>
        <time>2018-10-14T06:19:58Z</time>
      </trkpt>
      <trkpt lat="38.3986870" lon="-0.7568280">
        <ele>252.0</ele>
        <time>2018-10-14T06:19:59Z</time>
      </trkpt>
      <trkpt lat="38.3986870" lon="-0.7568280">
        <ele>252.0</ele>
        <time>2018-10-14T06:20:00Z</time>
      </trkpt>
      <trkpt lat="38.3987580" lon="-0.7567550">
        <ele>251.0</ele>
        <time>2018-10-14T06:20:01Z</time>
      </trkpt>
      <trkpt lat="38.3987580" lon="-0.7567550">
        <ele>251.0</ele>
        <time>2018-10-14T06:20:02Z</time>
      </trkpt>
      <trkpt lat="38.3988220" lon="-0.7566800">
        <ele>251.0</ele>
        <time>2018-10-14T06:20:03Z</time>
      </trkpt>
      <trkpt lat="38.3988520" lon="-0.7566380">
        <ele>251.0</ele>
        <time>2018-10-14T06:20:04Z</time>
      </trkpt>
      <trkpt lat="38.3988830" lon="-0.7565980">
        <ele>250.0</ele>
        <time>2018-10-14T06:20:05Z</time>
      </trkpt>
      <trkpt lat="38.3988830" lon="-0.7565980">
        <ele>250.0</ele>
        <time>2018-10-14T06:20:06Z</time>
      </trkpt>
      <trkpt lat="38.3989500" lon="-0.7565130">
        <ele>249.0</ele>
        <time>2018-10-14T06:20:07Z</time>
      </trkpt>
      <trkpt lat="38.3989500" lon="-0.7565130">
        <ele>249.0</ele>
        <time>2018-10-14T06:20:08Z</time>
      </trkpt>
      <trkpt lat="38.3990320" lon="-0.7564430">
        <ele>249.0</ele>
        <time>2018-10-14T06:20:09Z</time>
      </trkpt>
      <trkpt lat="38.3990320" lon="-0.7564430">
        <ele>249.0</ele>
        <time>2018-10-14T06:20:10Z</time>
      </trkpt>
      <trkpt lat="38.3991200" lon="-0.7563870">
        <ele>248.0</ele>
        <time>2018-10-14T06:20:11Z</time>
      </trkpt>
      <trkpt lat="38.3991200" lon="-0.7563870">
        <ele>248.0</ele>
        <time>2018-10-14T06:20:12Z</time>
      </trkpt>
      <trkpt lat="38.3992080" lon="-0.7563350">
        <ele>248.0</ele>
        <time>2018-10-14T06:20:13Z</time>
      </trkpt>
      <trkpt lat="38.3992080" lon="-0.7563350">
        <ele>248.0</ele>
        <time>2018-10-14T06:20:14Z</time>
      </trkpt>
      <trkpt lat="38.3992900" lon="-0.7562900">
        <ele>248.0</ele>
        <time>2018-10-14T06:20:15Z</time>
      </trkpt>
      <trkpt lat="38.3993280" lon="-0.7562720">
        <ele>248.0</ele>
        <time>2018-10-14T06:20:16Z</time>
      </trkpt>
      <trkpt lat="38.3993680" lon="-0.7562520">
        <ele>248.0</ele>
        <time>2018-10-14T06:20:17Z</time>
      </trkpt>
      <trkpt lat="38.3993680" lon="-0.7562520">
        <ele>248.0</ele>
        <time>2018-10-14T06:20:18Z</time>
      </trkpt>
      <trkpt lat="38.3994430" lon="-0.7562100">
        <ele>247.0</ele>
        <time>2018-10-14T06:20:19Z</time>
      </trkpt>
      <trkpt lat="38.3994430" lon="-0.7562100">
        <ele>247.0</ele>
        <time>2018-10-14T06:20:20Z</time>
      </trkpt>
      <trkpt lat="38.3995200" lon="-0.7561670">
        <ele>247.0</ele>
        <time>2018-10-14T06:20:21Z</time>
      </trkpt>
      <trkpt lat="38.3995200" lon="-0.7561670">
        <ele>247.0</ele>
        <time>2018-10-14T06:20:22Z</time>
      </trkpt>
      <trkpt lat="38.3995930" lon="-0.7561250">
        <ele>247.0</ele>
        <time>2018-10-14T06:20:23Z</time>
      </trkpt>
      <trkpt lat="38.3995930" lon="-0.7561250">
        <ele>247.0</ele>
        <time>2018-10-14T06:20:24Z</time>
      </trkpt>
      <trkpt lat="38.3996720" lon="-0.7560830">
        <ele>247.0</ele>
        <time>2018-10-14T06:20:25Z</time>
      </trkpt>
      <trkpt lat="38.3996720" lon="-0.7560830">
        <ele>247.0</ele>
        <time>2018-10-14T06:20:26Z</time>
      </trkpt>
      <trkpt lat="38.3997430" lon="-0.7560420">
        <ele>247.0</ele>
        <time>2018-10-14T06:20:27Z</time>
      </trkpt>
      <trkpt lat="38.3997780" lon="-0.7560220">
        <ele>247.0</ele>
        <time>2018-10-14T06:20:28Z</time>
      </trkpt>
      <trkpt lat="38.3998150" lon="-0.7559980">
        <ele>248.0</ele>
        <time>2018-10-14T06:20:29Z</time>
      </trkpt>
      <trkpt lat="38.3998150" lon="-0.7559980">
        <ele>248.0</ele>
        <time>2018-10-14T06:20:30Z</time>
      </trkpt>
      <trkpt lat="38.3998820" lon="-0.7559520">
        <ele>248.0</ele>
        <time>2018-10-14T06:20:31Z</time>
      </trkpt>
      <trkpt lat="38.3998820" lon="-0.7559520">
        <ele>248.0</ele>
        <time>2018-10-14T06:20:32Z</time>
      </trkpt>
      <trkpt lat="38.3999480" lon="-0.7559000">
        <ele>248.0</ele>
        <time>2018-10-14T06:20:33Z</time>
      </trkpt>
      <trkpt lat="38.3999480" lon="-0.7559000">
        <ele>248.0</ele>
        <time>2018-10-14T06:20:34Z</time>
      </trkpt>
      <trkpt lat="38.4000170" lon="-0.7558530">
        <ele>249.0</ele>
        <time>2018-10-14T06:20:35Z</time>
      </trkpt>
      <trkpt lat="38.4000170" lon="-0.7558530">
        <ele>249.0</ele>
        <time>2018-10-14T06:20:36Z</time>
      </trkpt>
      <trkpt lat="38.4000830" lon="-0.7558120">
        <ele>249.0</ele>
        <time>2018-10-14T06:20:37Z</time>
      </trkpt>
      <trkpt lat="38.4000830" lon="-0.7558120">
        <ele>249.0</ele>
        <time>2018-10-14T06:20:38Z</time>
      </trkpt>
      <trkpt lat="38.4001620" lon="-0.7557630">
        <ele>249.0</ele>
        <time>2018-10-14T06:20:39Z</time>
      </trkpt>
      <trkpt lat="38.4001620" lon="-0.7557630">
        <ele>249.0</ele>
        <time>2018-10-14T06:20:40Z</time>
      </trkpt>
      <trkpt lat="38.4002370" lon="-0.7557080">
        <ele>250.0</ele>
        <time>2018-10-14T06:20:41Z</time>
      </trkpt>
      <trkpt lat="38.4002370" lon="-0.7557080">
        <ele>250.0</ele>
        <time>2018-10-14T06:20:42Z</time>
      </trkpt>
      <trkpt lat="38.4003120" lon="-0.7556570">
        <ele>250.0</ele>
        <time>2018-10-14T06:20:43Z</time>
      </trkpt>
      <trkpt lat="38.4003120" lon="-0.7556570">
        <ele>250.0</ele>
        <time>2018-10-14T06:20:44Z</time>
      </trkpt>
      <trkpt lat="38.4003850" lon="-0.7556080">
        <ele>250.0</ele>
        <time>2018-10-14T06:20:45Z</time>
      </trkpt>
      <trkpt lat="38.4003850" lon="-0.7556080">
        <ele>250.0</ele>
        <time>2018-10-14T06:20:46Z</time>
      </trkpt>
      <trkpt lat="38.4004550" lon="-0.7555570">
        <ele>250.0</ele>
        <time>2018-10-14T06:20:47Z</time>
      </trkpt>
      <trkpt lat="38.4004550" lon="-0.7555570">
        <ele>250.0</ele>
        <time>2018-10-14T06:20:48Z</time>
      </trkpt>
      <trkpt lat="38.4005200" lon="-0.7554920">
        <ele>250.0</ele>
        <time>2018-10-14T06:20:49Z</time>
      </trkpt>
      <trkpt lat="38.4005200" lon="-0.7554920">
        <ele>251.0</ele>
        <time>2018-10-14T06:20:50Z</time>
      </trkpt>
      <trkpt lat="38.4005800" lon="-0.7554270">
        <ele>251.0</ele>
        <time>2018-10-14T06:20:51Z</time>
      </trkpt>
      <trkpt lat="38.4006100" lon="-0.7553930">
        <ele>251.0</ele>
        <time>2018-10-14T06:20:52Z</time>
      </trkpt>
      <trkpt lat="38.4006400" lon="-0.7553580">
        <ele>251.0</ele>
        <time>2018-10-14T06:20:53Z</time>
      </trkpt>
      <trkpt lat="38.4006400" lon="-0.7553580">
        <ele>251.0</ele>
        <time>2018-10-14T06:20:54Z</time>
      </trkpt>
      <trkpt lat="38.4006970" lon="-0.7552850">
        <ele>251.0</ele>
        <time>2018-10-14T06:20:55Z</time>
      </trkpt>
      <trkpt lat="38.4006970" lon="-0.7552850">
        <ele>251.0</ele>
        <time>2018-10-14T06:20:56Z</time>
      </trkpt>
      <trkpt lat="38.4007550" lon="-0.7552080">
        <ele>251.0</ele>
        <time>2018-10-14T06:20:57Z</time>
      </trkpt>
      <trkpt lat="38.4007550" lon="-0.7552080">
        <ele>252.0</ele>
        <time>2018-10-14T06:20:58Z</time>
      </trkpt>
      <trkpt lat="38.4008120" lon="-0.7551300">
        <ele>252.0</ele>
        <time>2018-10-14T06:20:59Z</time>
      </trkpt>
      <trkpt lat="38.4008120" lon="-0.7551300">
        <ele>252.0</ele>
        <time>2018-10-14T06:21:00Z</time>
      </trkpt>
      <trkpt lat="38.4008620" lon="-0.7550430">
        <ele>252.0</ele>
        <time>2018-10-14T06:21:01Z</time>
      </trkpt>
      <trkpt lat="38.4008620" lon="-0.7550430">
        <ele>252.0</ele>
        <time>2018-10-14T06:21:02Z</time>
      </trkpt>
      <trkpt lat="38.4009070" lon="-0.7549520">
        <ele>252.0</ele>
        <time>2018-10-14T06:21:03Z</time>
      </trkpt>
      <trkpt lat="38.4009280" lon="-0.7549020">
        <ele>252.0</ele>
        <time>2018-10-14T06:21:04Z</time>
      </trkpt>
      <trkpt lat="38.4009280" lon="-0.7549020">
        <ele>252.0</ele>
        <time>2018-10-14T06:21:05Z</time>
      </trkpt>
      <trkpt lat="38.4009670" lon="-0.7547980">
        <ele>252.0</ele>
        <time>2018-10-14T06:21:06Z</time>
      </trkpt>
      <trkpt lat="38.4009870" lon="-0.7547480">
        <ele>252.0</ele>
        <time>2018-10-14T06:21:07Z</time>
      </trkpt>
      <trkpt lat="38.4009870" lon="-0.7547480">
        <ele>252.0</ele>
        <time>2018-10-14T06:21:08Z</time>
      </trkpt>
      <trkpt lat="38.4010250" lon="-0.7546430">
        <ele>253.0</ele>
        <time>2018-10-14T06:21:09Z</time>
      </trkpt>
      <trkpt lat="38.4010430" lon="-0.7545920">
        <ele>253.0</ele>
        <time>2018-10-14T06:21:10Z</time>
      </trkpt>
      <trkpt lat="38.4010430" lon="-0.7545920">
        <ele>253.0</ele>
        <time>2018-10-14T06:21:11Z</time>
      </trkpt>
      <trkpt lat="38.4010820" lon="-0.7544880">
        <ele>253.0</ele>
        <time>2018-10-14T06:21:12Z</time>
      </trkpt>
      <trkpt lat="38.4011000" lon="-0.7544370">
        <ele>253.0</ele>
        <time>2018-10-14T06:21:13Z</time>
      </trkpt>
      <trkpt lat="38.4011000" lon="-0.7544370">
        <ele>253.0</ele>
        <time>2018-10-14T06:21:14Z</time>
      </trkpt>
      <trkpt lat="38.4011370" lon="-0.7543370">
        <ele>253.0</ele>
        <time>2018-10-14T06:21:15Z</time>
      </trkpt>
      <trkpt lat="38.4011370" lon="-0.7543370">
        <ele>253.0</ele>
        <time>2018-10-14T06:21:16Z</time>
      </trkpt>
      <trkpt lat="38.4011750" lon="-0.7542420">
        <ele>253.0</ele>
        <time>2018-10-14T06:21:17Z</time>
      </trkpt>
      <trkpt lat="38.4011750" lon="-0.7542420">
        <ele>253.0</ele>
        <time>2018-10-14T06:21:18Z</time>
      </trkpt>
      <trkpt lat="38.4012080" lon="-0.7541430">
        <ele>253.0</ele>
        <time>2018-10-14T06:21:19Z</time>
      </trkpt>
      <trkpt lat="38.4012080" lon="-0.7541430">
        <ele>253.0</ele>
        <time>2018-10-14T06:21:20Z</time>
      </trkpt>
      <trkpt lat="38.4012450" lon="-0.7540450">
        <ele>253.0</ele>
        <time>2018-10-14T06:21:21Z</time>
      </trkpt>
      <trkpt lat="38.4012450" lon="-0.7540450">
        <ele>253.0</ele>
        <time>2018-10-14T06:21:22Z</time>
      </trkpt>
      <trkpt lat="38.4012900" lon="-0.7539480">
        <ele>253.0</ele>
        <time>2018-10-14T06:21:23Z</time>
      </trkpt>
      <trkpt lat="38.4012900" lon="-0.7539480">
        <ele>253.0</ele>
        <time>2018-10-14T06:21:24Z</time>
      </trkpt>
      <trkpt lat="38.4013420" lon="-0.7538600">
        <ele>253.0</ele>
        <time>2018-10-14T06:21:25Z</time>
      </trkpt>
      <trkpt lat="38.4013420" lon="-0.7538600">
        <ele>253.0</ele>
        <time>2018-10-14T06:21:26Z</time>
      </trkpt>
      <trkpt lat="38.4013950" lon="-0.7537780">
        <ele>253.0</ele>
        <time>2018-10-14T06:21:27Z</time>
      </trkpt>
      <trkpt lat="38.4013950" lon="-0.7537780">
        <ele>253.0</ele>
        <time>2018-10-14T06:21:28Z</time>
      </trkpt>
      <trkpt lat="38.4014480" lon="-0.7537030">
        <ele>253.0</ele>
        <time>2018-10-14T06:21:29Z</time>
      </trkpt>
      <trkpt lat="38.4014480" lon="-0.7537030">
        <ele>253.0</ele>
        <time>2018-10-14T06:21:30Z</time>
      </trkpt>
      <trkpt lat="38.4015030" lon="-0.7536230">
        <ele>253.0</ele>
        <time>2018-10-14T06:21:31Z</time>
      </trkpt>
      <trkpt lat="38.4015030" lon="-0.7536230">
        <ele>253.0</ele>
        <time>2018-10-14T06:21:32Z</time>
      </trkpt>
      <trkpt lat="38.4015570" lon="-0.7535450">
        <ele>254.0</ele>
        <time>2018-10-14T06:21:33Z</time>
      </trkpt>
      <trkpt lat="38.4015570" lon="-0.7535450">
        <ele>254.0</ele>
        <time>2018-10-14T06:21:34Z</time>
      </trkpt>
      <trkpt lat="38.4016100" lon="-0.7534670">
        <ele>254.0</ele>
        <time>2018-10-14T06:21:35Z</time>
      </trkpt>
      <trkpt lat="38.4016380" lon="-0.7534300">
        <ele>254.0</ele>
        <time>2018-10-14T06:21:36Z</time>
      </trkpt>
      <trkpt lat="38.4016680" lon="-0.7533970">
        <ele>254.0</ele>
        <time>2018-10-14T06:21:37Z</time>
      </trkpt>
      <trkpt lat="38.4016680" lon="-0.7533970">
        <ele>254.0</ele>
        <time>2018-10-14T06:21:38Z</time>
      </trkpt>
      <trkpt lat="38.4017370" lon="-0.7533270">
        <ele>254.0</ele>
        <time>2018-10-14T06:21:39Z</time>
      </trkpt>
      <trkpt lat="38.4017370" lon="-0.7533270">
        <ele>254.0</ele>
        <time>2018-10-14T06:21:40Z</time>
      </trkpt>
      <trkpt lat="38.4018020" lon="-0.7532620">
        <ele>255.0</ele>
        <time>2018-10-14T06:21:41Z</time>
      </trkpt>
      <trkpt lat="38.4018020" lon="-0.7532620">
        <ele>255.0</ele>
        <time>2018-10-14T06:21:42Z</time>
      </trkpt>
      <trkpt lat="38.4018670" lon="-0.7531970">
        <ele>255.0</ele>
        <time>2018-10-14T06:21:43Z</time>
      </trkpt>
      <trkpt lat="38.4019000" lon="-0.7531650">
        <ele>255.0</ele>
        <time>2018-10-14T06:21:44Z</time>
      </trkpt>
      <trkpt lat="38.4019000" lon="-0.7531650">
        <ele>255.0</ele>
        <time>2018-10-14T06:21:45Z</time>
      </trkpt>
      <trkpt lat="38.4019680" lon="-0.7531070">
        <ele>255.0</ele>
        <time>2018-10-14T06:21:46Z</time>
      </trkpt>
      <trkpt lat="38.4020030" lon="-0.7530750">
        <ele>255.0</ele>
        <time>2018-10-14T06:21:47Z</time>
      </trkpt>
      <trkpt lat="38.4020030" lon="-0.7530750">
        <ele>255.0</ele>
        <time>2018-10-14T06:21:48Z</time>
      </trkpt>
      <trkpt lat="38.4020720" lon="-0.7530080">
        <ele>255.0</ele>
        <time>2018-10-14T06:21:49Z</time>
      </trkpt>
      <trkpt lat="38.4020720" lon="-0.7530080">
        <ele>255.0</ele>
        <time>2018-10-14T06:21:50Z</time>
      </trkpt>
      <trkpt lat="38.4021380" lon="-0.7529450">
        <ele>255.0</ele>
        <time>2018-10-14T06:21:51Z</time>
      </trkpt>
      <trkpt lat="38.4021730" lon="-0.7529170">
        <ele>256.0</ele>
        <time>2018-10-14T06:21:52Z</time>
      </trkpt>
      <trkpt lat="38.4021730" lon="-0.7529170">
        <ele>256.0</ele>
        <time>2018-10-14T06:21:53Z</time>
      </trkpt>
      <trkpt lat="38.4022420" lon="-0.7528570">
        <ele>256.0</ele>
        <time>2018-10-14T06:21:54Z</time>
      </trkpt>
      <trkpt lat="38.4022780" lon="-0.7528270">
        <ele>256.0</ele>
        <time>2018-10-14T06:21:55Z</time>
      </trkpt>
      <trkpt lat="38.4022780" lon="-0.7528270">
        <ele>256.0</ele>
        <time>2018-10-14T06:21:56Z</time>
      </trkpt>
      <trkpt lat="38.4023500" lon="-0.7527670">
        <ele>256.0</ele>
        <time>2018-10-14T06:21:57Z</time>
      </trkpt>
      <trkpt lat="38.4023500" lon="-0.7527670">
        <ele>256.0</ele>
        <time>2018-10-14T06:21:58Z</time>
      </trkpt>
      <trkpt lat="38.4024170" lon="-0.7527050">
        <ele>256.0</ele>
        <time>2018-10-14T06:21:59Z</time>
      </trkpt>
      <trkpt lat="38.4024170" lon="-0.7527050">
        <ele>257.0</ele>
        <time>2018-10-14T06:22:00Z</time>
      </trkpt>
      <trkpt lat="38.4024850" lon="-0.7526480">
        <ele>257.0</ele>
        <time>2018-10-14T06:22:01Z</time>
      </trkpt>
      <trkpt lat="38.4024850" lon="-0.7526480">
        <ele>257.0</ele>
        <time>2018-10-14T06:22:02Z</time>
      </trkpt>
      <trkpt lat="38.4025480" lon="-0.7525830">
        <ele>257.0</ele>
        <time>2018-10-14T06:22:03Z</time>
      </trkpt>
      <trkpt lat="38.4025800" lon="-0.7525520">
        <ele>257.0</ele>
        <time>2018-10-14T06:22:04Z</time>
      </trkpt>
      <trkpt lat="38.4026120" lon="-0.7525230">
        <ele>257.0</ele>
        <time>2018-10-14T06:22:05Z</time>
      </trkpt>
      <trkpt lat="38.4026120" lon="-0.7525230">
        <ele>257.0</ele>
        <time>2018-10-14T06:22:06Z</time>
      </trkpt>
      <trkpt lat="38.4026750" lon="-0.7524700">
        <ele>257.0</ele>
        <time>2018-10-14T06:22:07Z</time>
      </trkpt>
      <trkpt lat="38.4026750" lon="-0.7524700">
        <ele>258.0</ele>
        <time>2018-10-14T06:22:08Z</time>
      </trkpt>
      <trkpt lat="38.4027370" lon="-0.7524120">
        <ele>258.0</ele>
        <time>2018-10-14T06:22:09Z</time>
      </trkpt>
      <trkpt lat="38.4027370" lon="-0.7524120">
        <ele>258.0</ele>
        <time>2018-10-14T06:22:10Z</time>
      </trkpt>
      <trkpt lat="38.4028000" lon="-0.7523530">
        <ele>258.0</ele>
        <time>2018-10-14T06:22:11Z</time>
      </trkpt>
      <trkpt lat="38.4028000" lon="-0.7523530">
        <ele>258.0</ele>
        <time>2018-10-14T06:22:12Z</time>
      </trkpt>
      <trkpt lat="38.4028630" lon="-0.7523000">
        <ele>258.0</ele>
        <time>2018-10-14T06:22:13Z</time>
      </trkpt>
      <trkpt lat="38.4028930" lon="-0.7522750">
        <ele>259.0</ele>
        <time>2018-10-14T06:22:14Z</time>
      </trkpt>
      <trkpt lat="38.4029220" lon="-0.7522500">
        <ele>259.0</ele>
        <time>2018-10-14T06:22:15Z</time>
      </trkpt>
      <trkpt lat="38.4029220" lon="-0.7522500">
        <ele>259.0</ele>
        <time>2018-10-14T06:22:16Z</time>
      </trkpt>
      <trkpt lat="38.4029800" lon="-0.7522020">
        <ele>259.0</ele>
        <time>2018-10-14T06:22:17Z</time>
      </trkpt>
      <trkpt lat="38.4029800" lon="-0.7522020">
        <ele>259.0</ele>
        <time>2018-10-14T06:22:18Z</time>
      </trkpt>
      <trkpt lat="38.4030350" lon="-0.7521430">
        <ele>259.0</ele>
        <time>2018-10-14T06:22:19Z</time>
      </trkpt>
      <trkpt lat="38.4030350" lon="-0.7521430">
        <ele>259.0</ele>
        <time>2018-10-14T06:22:20Z</time>
      </trkpt>
      <trkpt lat="38.4030850" lon="-0.7520780">
        <ele>259.0</ele>
        <time>2018-10-14T06:22:21Z</time>
      </trkpt>
      <trkpt lat="38.4031070" lon="-0.7520370">
        <ele>259.0</ele>
        <time>2018-10-14T06:22:22Z</time>
      </trkpt>
      <trkpt lat="38.4031070" lon="-0.7520370">
        <ele>259.0</ele>
        <time>2018-10-14T06:22:23Z</time>
      </trkpt>
      <trkpt lat="38.4031370" lon="-0.7519400">
        <ele>259.0</ele>
        <time>2018-10-14T06:22:24Z</time>
      </trkpt>
      <trkpt lat="38.4031370" lon="-0.7519400">
        <ele>259.0</ele>
        <time>2018-10-14T06:22:25Z</time>
      </trkpt>
      <trkpt lat="38.4031570" lon="-0.7518400">
        <ele>259.0</ele>
        <time>2018-10-14T06:22:26Z</time>
      </trkpt>
      <trkpt lat="38.4031570" lon="-0.7518400">
        <ele>259.0</ele>
        <time>2018-10-14T06:22:27Z</time>
      </trkpt>
      <trkpt lat="38.4031730" lon="-0.7517380">
        <ele>259.0</ele>
        <time>2018-10-14T06:22:28Z</time>
      </trkpt>
      <trkpt lat="38.4031820" lon="-0.7516880">
        <ele>259.0</ele>
        <time>2018-10-14T06:22:29Z</time>
      </trkpt>
      <trkpt lat="38.4031820" lon="-0.7516880">
        <ele>259.0</ele>
        <time>2018-10-14T06:22:30Z</time>
      </trkpt>
      <trkpt lat="38.4031930" lon="-0.7515850">
        <ele>259.0</ele>
        <time>2018-10-14T06:22:31Z</time>
      </trkpt>
      <trkpt lat="38.4031930" lon="-0.7515850">
        <ele>259.0</ele>
        <time>2018-10-14T06:22:32Z</time>
      </trkpt>
      <trkpt lat="38.4032050" lon="-0.7514830">
        <ele>259.0</ele>
        <time>2018-10-14T06:22:33Z</time>
      </trkpt>
      <trkpt lat="38.4032050" lon="-0.7514830">
        <ele>259.0</ele>
        <time>2018-10-14T06:22:34Z</time>
      </trkpt>
      <trkpt lat="38.4032120" lon="-0.7513770">
        <ele>259.0</ele>
        <time>2018-10-14T06:22:35Z</time>
      </trkpt>
      <trkpt lat="38.4032120" lon="-0.7513770">
        <ele>259.0</ele>
        <time>2018-10-14T06:22:36Z</time>
      </trkpt>
      <trkpt lat="38.4032180" lon="-0.7512620">
        <ele>259.0</ele>
        <time>2018-10-14T06:22:37Z</time>
      </trkpt>
      <trkpt lat="38.4032180" lon="-0.7512620">
        <ele>259.0</ele>
        <time>2018-10-14T06:22:38Z</time>
      </trkpt>
      <trkpt lat="38.4032230" lon="-0.7511520">
        <ele>259.0</ele>
        <time>2018-10-14T06:22:39Z</time>
      </trkpt>
      <trkpt lat="38.4032230" lon="-0.7511520">
        <ele>259.0</ele>
        <time>2018-10-14T06:22:40Z</time>
      </trkpt>
      <trkpt lat="38.4032250" lon="-0.7510400">
        <ele>259.0</ele>
        <time>2018-10-14T06:22:41Z</time>
      </trkpt>
      <trkpt lat="38.4032250" lon="-0.7510400">
        <ele>259.0</ele>
        <time>2018-10-14T06:22:42Z</time>
      </trkpt>
      <trkpt lat="38.4032300" lon="-0.7509300">
        <ele>259.0</ele>
        <time>2018-10-14T06:22:43Z</time>
      </trkpt>
      <trkpt lat="38.4032300" lon="-0.7509300">
        <ele>259.0</ele>
        <time>2018-10-14T06:22:44Z</time>
      </trkpt>
      <trkpt lat="38.4032400" lon="-0.7508380">
        <ele>259.0</ele>
        <time>2018-10-14T06:22:45Z</time>
      </trkpt>
      <trkpt lat="38.4032450" lon="-0.7508070">
        <ele>259.0</ele>
        <time>2018-10-14T06:22:46Z</time>
      </trkpt>
      <trkpt lat="38.4032450" lon="-0.7508070">
        <ele>259.0</ele>
        <time>2018-10-14T06:22:47Z</time>
      </trkpt>
      <trkpt lat="38.4032650" lon="-0.7507570">
        <ele>259.0</ele>
        <time>2018-10-14T06:22:48Z</time>
      </trkpt>
      <trkpt lat="38.4032650" lon="-0.7507570">
        <ele>259.0</ele>
        <time>2018-10-14T06:22:49Z</time>
      </trkpt>
      <trkpt lat="38.4033020" lon="-0.7507180">
        <ele>259.0</ele>
        <time>2018-10-14T06:22:50Z</time>
      </trkpt>
      <trkpt lat="38.4033320" lon="-0.7507000">
        <ele>259.0</ele>
        <time>2018-10-14T06:22:51Z</time>
      </trkpt>
      <trkpt lat="38.4033550" lon="-0.7507000">
        <ele>259.0</ele>
        <time>2018-10-14T06:22:52Z</time>
      </trkpt>
      <trkpt lat="38.4033550" lon="-0.7507000">
        <ele>259.0</ele>
        <time>2018-10-14T06:22:53Z</time>
      </trkpt>
      <trkpt lat="38.4034050" lon="-0.7506830">
        <ele>259.0</ele>
        <time>2018-10-14T06:22:54Z</time>
      </trkpt>
      <trkpt lat="38.4034270" lon="-0.7506700">
        <ele>259.0</ele>
        <time>2018-10-14T06:22:55Z</time>
      </trkpt>
      <trkpt lat="38.4034270" lon="-0.7506700">
        <ele>259.0</ele>
        <time>2018-10-14T06:22:56Z</time>
      </trkpt>
      <trkpt lat="38.4034450" lon="-0.7506280">
        <ele>259.0</ele>
        <time>2018-10-14T06:22:57Z</time>
      </trkpt>
      <trkpt lat="38.4034400" lon="-0.7506030">
        <ele>259.0</ele>
        <time>2018-10-14T06:22:58Z</time>
      </trkpt>
      <trkpt lat="38.4034400" lon="-0.7506030">
        <ele>259.0</ele>
        <time>2018-10-14T06:22:59Z</time>
      </trkpt>
      <trkpt lat="38.4034280" lon="-0.7505550">
        <ele>259.0</ele>
        <time>2018-10-14T06:23:00Z</time>
      </trkpt>
      <trkpt lat="38.4034220" lon="-0.7505180">
        <ele>259.0</ele>
        <time>2018-10-14T06:23:01Z</time>
      </trkpt>
      <trkpt lat="38.4034220" lon="-0.7505180">
        <ele>259.0</ele>
        <time>2018-10-14T06:23:02Z</time>
      </trkpt>
      <trkpt lat="38.4034100" lon="-0.7504420">
        <ele>259.0</ele>
        <time>2018-10-14T06:23:03Z</time>
      </trkpt>
      <trkpt lat="38.4034080" lon="-0.7504050">
        <ele>259.0</ele>
        <time>2018-10-14T06:23:04Z</time>
      </trkpt>
      <trkpt lat="38.4034080" lon="-0.7504050">
        <ele>260.0</ele>
        <time>2018-10-14T06:23:05Z</time>
      </trkpt>
      <trkpt lat="38.4034030" lon="-0.7503280">
        <ele>260.0</ele>
        <time>2018-10-14T06:23:06Z</time>
      </trkpt>
      <trkpt lat="38.4034030" lon="-0.7502900">
        <ele>260.0</ele>
        <time>2018-10-14T06:23:07Z</time>
      </trkpt>
      <trkpt lat="38.4034030" lon="-0.7502900">
        <ele>260.0</ele>
        <time>2018-10-14T06:23:08Z</time>
      </trkpt>
      <trkpt lat="38.4033980" lon="-0.7502000">
        <ele>261.0</ele>
        <time>2018-10-14T06:23:09Z</time>
      </trkpt>
      <trkpt lat="38.4033980" lon="-0.7502000">
        <ele>261.0</ele>
        <time>2018-10-14T06:23:10Z</time>
      </trkpt>
      <trkpt lat="38.4033900" lon="-0.7501030">
        <ele>261.0</ele>
        <time>2018-10-14T06:23:11Z</time>
      </trkpt>
      <trkpt lat="38.4033900" lon="-0.7501030">
        <ele>261.0</ele>
        <time>2018-10-14T06:23:12Z</time>
      </trkpt>
      <trkpt lat="38.4033820" lon="-0.7500020">
        <ele>261.0</ele>
        <time>2018-10-14T06:23:13Z</time>
      </trkpt>
      <trkpt lat="38.4033820" lon="-0.7500020">
        <ele>261.0</ele>
        <time>2018-10-14T06:23:14Z</time>
      </trkpt>
      <trkpt lat="38.4033750" lon="-0.7498970">
        <ele>261.0</ele>
        <time>2018-10-14T06:23:15Z</time>
      </trkpt>
      <trkpt lat="38.4033720" lon="-0.7498420">
        <ele>261.0</ele>
        <time>2018-10-14T06:23:16Z</time>
      </trkpt>
      <trkpt lat="38.4033720" lon="-0.7498420">
        <ele>261.0</ele>
        <time>2018-10-14T06:23:17Z</time>
      </trkpt>
      <trkpt lat="38.4033630" lon="-0.7497300">
        <ele>261.0</ele>
        <time>2018-10-14T06:23:18Z</time>
      </trkpt>
      <trkpt lat="38.4033620" lon="-0.7496780">
        <ele>261.0</ele>
        <time>2018-10-14T06:23:19Z</time>
      </trkpt>
      <trkpt lat="38.4033620" lon="-0.7496780">
        <ele>261.0</ele>
        <time>2018-10-14T06:23:20Z</time>
      </trkpt>
      <trkpt lat="38.4033520" lon="-0.7495880">
        <ele>261.0</ele>
        <time>2018-10-14T06:23:21Z</time>
      </trkpt>
      <trkpt lat="38.4033430" lon="-0.7495470">
        <ele>261.0</ele>
        <time>2018-10-14T06:23:22Z</time>
      </trkpt>
      <trkpt lat="38.4033430" lon="-0.7495470">
        <ele>261.0</ele>
        <time>2018-10-14T06:23:23Z</time>
      </trkpt>
      <trkpt lat="38.4033330" lon="-0.7494530">
        <ele>261.0</ele>
        <time>2018-10-14T06:23:24Z</time>
      </trkpt>
      <trkpt lat="38.4033330" lon="-0.7494030">
        <ele>261.0</ele>
        <time>2018-10-14T06:23:25Z</time>
      </trkpt>
      <trkpt lat="38.4033330" lon="-0.7494030">
        <ele>261.0</ele>
        <time>2018-10-14T06:23:26Z</time>
      </trkpt>
      <trkpt lat="38.4033250" lon="-0.7493080">
        <ele>261.0</ele>
        <time>2018-10-14T06:23:27Z</time>
      </trkpt>
      <trkpt lat="38.4033250" lon="-0.7493080">
        <ele>261.0</ele>
        <time>2018-10-14T06:23:28Z</time>
      </trkpt>
      <trkpt lat="38.4033170" lon="-0.7492150">
        <ele>261.0</ele>
        <time>2018-10-14T06:23:29Z</time>
      </trkpt>
      <trkpt lat="38.4033170" lon="-0.7492150">
        <ele>261.0</ele>
        <time>2018-10-14T06:23:30Z</time>
      </trkpt>
      <trkpt lat="38.4033080" lon="-0.7491200">
        <ele>261.0</ele>
        <time>2018-10-14T06:23:31Z</time>
      </trkpt>
      <trkpt lat="38.4033080" lon="-0.7491200">
        <ele>261.0</ele>
        <time>2018-10-14T06:23:32Z</time>
      </trkpt>
      <trkpt lat="38.4033000" lon="-0.7490250">
        <ele>262.0</ele>
        <time>2018-10-14T06:23:33Z</time>
      </trkpt>
      <trkpt lat="38.4033000" lon="-0.7490250">
        <ele>262.0</ele>
        <time>2018-10-14T06:23:34Z</time>
      </trkpt>
      <trkpt lat="38.4032920" lon="-0.7489350">
        <ele>262.0</ele>
        <time>2018-10-14T06:23:35Z</time>
      </trkpt>
      <trkpt lat="38.4032920" lon="-0.7489350">
        <ele>262.0</ele>
        <time>2018-10-14T06:23:36Z</time>
      </trkpt>
      <trkpt lat="38.4032820" lon="-0.7488420">
        <ele>262.0</ele>
        <time>2018-10-14T06:23:37Z</time>
      </trkpt>
      <trkpt lat="38.4032820" lon="-0.7488420">
        <ele>262.0</ele>
        <time>2018-10-14T06:23:38Z</time>
      </trkpt>
      <trkpt lat="38.4032730" lon="-0.7487480">
        <ele>262.0</ele>
        <time>2018-10-14T06:23:39Z</time>
      </trkpt>
      <trkpt lat="38.4032730" lon="-0.7487480">
        <ele>262.0</ele>
        <time>2018-10-14T06:23:40Z</time>
      </trkpt>
      <trkpt lat="38.4032650" lon="-0.7486520">
        <ele>262.0</ele>
        <time>2018-10-14T06:23:41Z</time>
      </trkpt>
      <trkpt lat="38.4032650" lon="-0.7486520">
        <ele>262.0</ele>
        <time>2018-10-14T06:23:42Z</time>
      </trkpt>
      <trkpt lat="38.4032570" lon="-0.7485580">
        <ele>262.0</ele>
        <time>2018-10-14T06:23:43Z</time>
      </trkpt>
      <trkpt lat="38.4032570" lon="-0.7485580">
        <ele>262.0</ele>
        <time>2018-10-14T06:23:44Z</time>
      </trkpt>
      <trkpt lat="38.4032450" lon="-0.7484670">
        <ele>262.0</ele>
        <time>2018-10-14T06:23:45Z</time>
      </trkpt>
      <trkpt lat="38.4032420" lon="-0.7484200">
        <ele>262.0</ele>
        <time>2018-10-14T06:23:46Z</time>
      </trkpt>
      <trkpt lat="38.4032420" lon="-0.7484200">
        <ele>262.0</ele>
        <time>2018-10-14T06:23:47Z</time>
      </trkpt>
      <trkpt lat="38.4032320" lon="-0.7483270">
        <ele>262.0</ele>
        <time>2018-10-14T06:23:48Z</time>
      </trkpt>
      <trkpt lat="38.4032270" lon="-0.7482830">
        <ele>262.0</ele>
        <time>2018-10-14T06:23:49Z</time>
      </trkpt>
      <trkpt lat="38.4032270" lon="-0.7482830">
        <ele>262.0</ele>
        <time>2018-10-14T06:23:50Z</time>
      </trkpt>
      <trkpt lat="38.4032130" lon="-0.7481920">
        <ele>262.0</ele>
        <time>2018-10-14T06:23:51Z</time>
      </trkpt>
      <trkpt lat="38.4032130" lon="-0.7481920">
        <ele>262.0</ele>
        <time>2018-10-14T06:23:52Z</time>
      </trkpt>
      <trkpt lat="38.4032000" lon="-0.7481050">
        <ele>262.0</ele>
        <time>2018-10-14T06:23:53Z</time>
      </trkpt>
      <trkpt lat="38.4032000" lon="-0.7481050">
        <ele>262.0</ele>
        <time>2018-10-14T06:23:54Z</time>
      </trkpt>
      <trkpt lat="38.4031880" lon="-0.7480180">
        <ele>262.0</ele>
        <time>2018-10-14T06:23:55Z</time>
      </trkpt>
      <trkpt lat="38.4031830" lon="-0.7479730">
        <ele>262.0</ele>
        <time>2018-10-14T06:23:56Z</time>
      </trkpt>
      <trkpt lat="38.4031830" lon="-0.7479730">
        <ele>262.0</ele>
        <time>2018-10-14T06:23:57Z</time>
      </trkpt>
      <trkpt lat="38.4031720" lon="-0.7478800">
        <ele>262.0</ele>
        <time>2018-10-14T06:23:58Z</time>
      </trkpt>
      <trkpt lat="38.4031670" lon="-0.7478330">
        <ele>262.0</ele>
        <time>2018-10-14T06:23:59Z</time>
      </trkpt>
      <trkpt lat="38.4031670" lon="-0.7478330">
        <ele>262.0</ele>
        <time>2018-10-14T06:24:00Z</time>
      </trkpt>
      <trkpt lat="38.4031550" lon="-0.7477470">
        <ele>262.0</ele>
        <time>2018-10-14T06:24:01Z</time>
      </trkpt>
      <trkpt lat="38.4031550" lon="-0.7477470">
        <ele>262.0</ele>
        <time>2018-10-14T06:24:02Z</time>
      </trkpt>
      <trkpt lat="38.4031430" lon="-0.7476520">
        <ele>262.0</ele>
        <time>2018-10-14T06:24:03Z</time>
      </trkpt>
      <trkpt lat="38.4031430" lon="-0.7476520">
        <ele>262.0</ele>
        <time>2018-10-14T06:24:04Z</time>
      </trkpt>
      <trkpt lat="38.4031350" lon="-0.7475530">
        <ele>262.0</ele>
        <time>2018-10-14T06:24:05Z</time>
      </trkpt>
      <trkpt lat="38.4031350" lon="-0.7475530">
        <ele>262.0</ele>
        <time>2018-10-14T06:24:06Z</time>
      </trkpt>
      <trkpt lat="38.4031270" lon="-0.7474530">
        <ele>262.0</ele>
        <time>2018-10-14T06:24:07Z</time>
      </trkpt>
      <trkpt lat="38.4031270" lon="-0.7474530">
        <ele>262.0</ele>
        <time>2018-10-14T06:24:08Z</time>
      </trkpt>
      <trkpt lat="38.4031200" lon="-0.7473550">
        <ele>262.0</ele>
        <time>2018-10-14T06:24:09Z</time>
      </trkpt>
      <trkpt lat="38.4031200" lon="-0.7473550">
        <ele>262.0</ele>
        <time>2018-10-14T06:24:10Z</time>
      </trkpt>
      <trkpt lat="38.4031130" lon="-0.7472570">
        <ele>262.0</ele>
        <time>2018-10-14T06:24:11Z</time>
      </trkpt>
      <trkpt lat="38.4031130" lon="-0.7472570">
        <ele>262.0</ele>
        <time>2018-10-14T06:24:12Z</time>
      </trkpt>
      <trkpt lat="38.4031050" lon="-0.7471620">
        <ele>262.0</ele>
        <time>2018-10-14T06:24:13Z</time>
      </trkpt>
      <trkpt lat="38.4031050" lon="-0.7471620">
        <ele>262.0</ele>
        <time>2018-10-14T06:24:14Z</time>
      </trkpt>
      <trkpt lat="38.4030970" lon="-0.7470620">
        <ele>262.0</ele>
        <time>2018-10-14T06:24:15Z</time>
      </trkpt>
      <trkpt lat="38.4030970" lon="-0.7470620">
        <ele>262.0</ele>
        <time>2018-10-14T06:24:16Z</time>
      </trkpt>
      <trkpt lat="38.4030870" lon="-0.7469630">
        <ele>262.0</ele>
        <time>2018-10-14T06:24:17Z</time>
      </trkpt>
      <trkpt lat="38.4030870" lon="-0.7469630">
        <ele>262.0</ele>
        <time>2018-10-14T06:24:18Z</time>
      </trkpt>
      <trkpt lat="38.4030770" lon="-0.7468720">
        <ele>262.0</ele>
        <time>2018-10-14T06:24:19Z</time>
      </trkpt>
      <trkpt lat="38.4030770" lon="-0.7468720">
        <ele>262.0</ele>
        <time>2018-10-14T06:24:20Z</time>
      </trkpt>
      <trkpt lat="38.4030720" lon="-0.7467770">
        <ele>262.0</ele>
        <time>2018-10-14T06:24:21Z</time>
      </trkpt>
      <trkpt lat="38.4030680" lon="-0.7467280">
        <ele>262.0</ele>
        <time>2018-10-14T06:24:22Z</time>
      </trkpt>
      <trkpt lat="38.4030680" lon="-0.7467280">
        <ele>262.0</ele>
        <time>2018-10-14T06:24:23Z</time>
      </trkpt>
      <trkpt lat="38.4030620" lon="-0.7466320">
        <ele>262.0</ele>
        <time>2018-10-14T06:24:24Z</time>
      </trkpt>
      <trkpt lat="38.4030620" lon="-0.7466320">
        <ele>262.0</ele>
        <time>2018-10-14T06:24:25Z</time>
      </trkpt>
      <trkpt lat="38.4030550" lon="-0.7465350">
        <ele>262.0</ele>
        <time>2018-10-14T06:24:26Z</time>
      </trkpt>
      <trkpt lat="38.4030550" lon="-0.7465350">
        <ele>262.0</ele>
        <time>2018-10-14T06:24:27Z</time>
      </trkpt>
      <trkpt lat="38.4030470" lon="-0.7464370">
        <ele>262.0</ele>
        <time>2018-10-14T06:24:28Z</time>
      </trkpt>
      <trkpt lat="38.4030420" lon="-0.7463900">
        <ele>262.0</ele>
        <time>2018-10-14T06:24:29Z</time>
      </trkpt>
      <trkpt lat="38.4030420" lon="-0.7463900">
        <ele>262.0</ele>
        <time>2018-10-14T06:24:30Z</time>
      </trkpt>
      <trkpt lat="38.4030320" lon="-0.7462950">
        <ele>262.0</ele>
        <time>2018-10-14T06:24:31Z</time>
      </trkpt>
      <trkpt lat="38.4030320" lon="-0.7462950">
        <ele>262.0</ele>
        <time>2018-10-14T06:24:32Z</time>
      </trkpt>
      <trkpt lat="38.4030220" lon="-0.7462020">
        <ele>262.0</ele>
        <time>2018-10-14T06:24:33Z</time>
      </trkpt>
      <trkpt lat="38.4030220" lon="-0.7462020">
        <ele>262.0</ele>
        <time>2018-10-14T06:24:34Z</time>
      </trkpt>
      <trkpt lat="38.4030120" lon="-0.7461100">
        <ele>262.0</ele>
        <time>2018-10-14T06:24:35Z</time>
      </trkpt>
      <trkpt lat="38.4030070" lon="-0.7460620">
        <ele>262.0</ele>
        <time>2018-10-14T06:24:36Z</time>
      </trkpt>
      <trkpt lat="38.4030070" lon="-0.7460620">
        <ele>262.0</ele>
        <time>2018-10-14T06:24:37Z</time>
      </trkpt>
      <trkpt lat="38.4029980" lon="-0.7459630">
        <ele>262.0</ele>
        <time>2018-10-14T06:24:38Z</time>
      </trkpt>
      <trkpt lat="38.4029980" lon="-0.7459630">
        <ele>262.0</ele>
        <time>2018-10-14T06:24:39Z</time>
      </trkpt>
      <trkpt lat="38.4029920" lon="-0.7458670">
        <ele>262.0</ele>
        <time>2018-10-14T06:24:40Z</time>
      </trkpt>
      <trkpt lat="38.4029900" lon="-0.7458180">
        <ele>262.0</ele>
        <time>2018-10-14T06:24:41Z</time>
      </trkpt>
      <trkpt lat="38.4029900" lon="-0.7458180">
        <ele>262.0</ele>
        <time>2018-10-14T06:24:42Z</time>
      </trkpt>
      <trkpt lat="38.4029820" lon="-0.7457200">
        <ele>262.0</ele>
        <time>2018-10-14T06:24:43Z</time>
      </trkpt>
      <trkpt lat="38.4029820" lon="-0.7457200">
        <ele>262.0</ele>
        <time>2018-10-14T06:24:44Z</time>
      </trkpt>
      <trkpt lat="38.4029720" lon="-0.7456250">
        <ele>262.0</ele>
        <time>2018-10-14T06:24:45Z</time>
      </trkpt>
      <trkpt lat="38.4029720" lon="-0.7456250">
        <ele>262.0</ele>
        <time>2018-10-14T06:24:46Z</time>
      </trkpt>
      <trkpt lat="38.4029650" lon="-0.7455280">
        <ele>262.0</ele>
        <time>2018-10-14T06:24:47Z</time>
      </trkpt>
      <trkpt lat="38.4029650" lon="-0.7455280">
        <ele>261.0</ele>
        <time>2018-10-14T06:24:48Z</time>
      </trkpt>
      <trkpt lat="38.4029530" lon="-0.7454280">
        <ele>261.0</ele>
        <time>2018-10-14T06:24:49Z</time>
      </trkpt>
      <trkpt lat="38.4029530" lon="-0.7454280">
        <ele>261.0</ele>
        <time>2018-10-14T06:24:50Z</time>
      </trkpt>
      <trkpt lat="38.4029450" lon="-0.7453270">
        <ele>261.0</ele>
        <time>2018-10-14T06:24:51Z</time>
      </trkpt>
      <trkpt lat="38.4029450" lon="-0.7453270">
        <ele>261.0</ele>
        <time>2018-10-14T06:24:52Z</time>
      </trkpt>
      <trkpt lat="38.4029380" lon="-0.7452230">
        <ele>261.0</ele>
        <time>2018-10-14T06:24:53Z</time>
      </trkpt>
      <trkpt lat="38.4029380" lon="-0.7452230">
        <ele>261.0</ele>
        <time>2018-10-14T06:24:54Z</time>
      </trkpt>
      <trkpt lat="38.4029300" lon="-0.7451180">
        <ele>261.0</ele>
        <time>2018-10-14T06:24:55Z</time>
      </trkpt>
      <trkpt lat="38.4029300" lon="-0.7451180">
        <ele>261.0</ele>
        <time>2018-10-14T06:24:56Z</time>
      </trkpt>
      <trkpt lat="38.4029230" lon="-0.7450150">
        <ele>261.0</ele>
        <time>2018-10-14T06:24:57Z</time>
      </trkpt>
      <trkpt lat="38.4029230" lon="-0.7450150">
        <ele>261.0</ele>
        <time>2018-10-14T06:24:58Z</time>
      </trkpt>
      <trkpt lat="38.4029120" lon="-0.7449100">
        <ele>261.0</ele>
        <time>2018-10-14T06:24:59Z</time>
      </trkpt>
      <trkpt lat="38.4029120" lon="-0.7449100">
        <ele>261.0</ele>
        <time>2018-10-14T06:25:00Z</time>
      </trkpt>
      <trkpt lat="38.4029020" lon="-0.7448020">
        <ele>261.0</ele>
        <time>2018-10-14T06:25:01Z</time>
      </trkpt>
      <trkpt lat="38.4029020" lon="-0.7448020">
        <ele>261.0</ele>
        <time>2018-10-14T06:25:02Z</time>
      </trkpt>
      <trkpt lat="38.4028970" lon="-0.7446930">
        <ele>261.0</ele>
        <time>2018-10-14T06:25:03Z</time>
      </trkpt>
      <trkpt lat="38.4028930" lon="-0.7446380">
        <ele>261.0</ele>
        <time>2018-10-14T06:25:04Z</time>
      </trkpt>
      <trkpt lat="38.4028930" lon="-0.7446380">
        <ele>261.0</ele>
        <time>2018-10-14T06:25:05Z</time>
      </trkpt>
      <trkpt lat="38.4028830" lon="-0.7445350">
        <ele>261.0</ele>
        <time>2018-10-14T06:25:06Z</time>
      </trkpt>
      <trkpt lat="38.4028830" lon="-0.7445350">
        <ele>261.0</ele>
        <time>2018-10-14T06:25:07Z</time>
      </trkpt>
      <trkpt lat="38.4028770" lon="-0.7444300">
        <ele>261.0</ele>
        <time>2018-10-14T06:25:08Z</time>
      </trkpt>
      <trkpt lat="38.4028770" lon="-0.7444300">
        <ele>260.0</ele>
        <time>2018-10-14T06:25:09Z</time>
      </trkpt>
      <trkpt lat="38.4028670" lon="-0.7443230">
        <ele>260.0</ele>
        <time>2018-10-14T06:25:10Z</time>
      </trkpt>
      <trkpt lat="38.4028670" lon="-0.7443230">
        <ele>260.0</ele>
        <time>2018-10-14T06:25:11Z</time>
      </trkpt>
      <trkpt lat="38.4028570" lon="-0.7442200">
        <ele>260.0</ele>
        <time>2018-10-14T06:25:12Z</time>
      </trkpt>
      <trkpt lat="38.4028570" lon="-0.7442200">
        <ele>260.0</ele>
        <time>2018-10-14T06:25:13Z</time>
      </trkpt>
      <trkpt lat="38.4028500" lon="-0.7441170">
        <ele>260.0</ele>
        <time>2018-10-14T06:25:14Z</time>
      </trkpt>
      <trkpt lat="38.4028500" lon="-0.7441170">
        <ele>260.0</ele>
        <time>2018-10-14T06:25:15Z</time>
      </trkpt>
      <trkpt lat="38.4028430" lon="-0.7440150">
        <ele>260.0</ele>
        <time>2018-10-14T06:25:16Z</time>
      </trkpt>
      <trkpt lat="38.4028430" lon="-0.7440150">
        <ele>260.0</ele>
        <time>2018-10-14T06:25:17Z</time>
      </trkpt>
      <trkpt lat="38.4028350" lon="-0.7439220">
        <ele>260.0</ele>
        <time>2018-10-14T06:25:18Z</time>
      </trkpt>
      <trkpt lat="38.4028300" lon="-0.7438720">
        <ele>260.0</ele>
        <time>2018-10-14T06:25:19Z</time>
      </trkpt>
      <trkpt lat="38.4028300" lon="-0.7438720">
        <ele>260.0</ele>
        <time>2018-10-14T06:25:20Z</time>
      </trkpt>
      <trkpt lat="38.4028220" lon="-0.7437680">
        <ele>260.0</ele>
        <time>2018-10-14T06:25:21Z</time>
      </trkpt>
      <trkpt lat="38.4028200" lon="-0.7437150">
        <ele>260.0</ele>
        <time>2018-10-14T06:25:22Z</time>
      </trkpt>
      <trkpt lat="38.4028200" lon="-0.7437150">
        <ele>260.0</ele>
        <time>2018-10-14T06:25:23Z</time>
      </trkpt>
      <trkpt lat="38.4028130" lon="-0.7436080">
        <ele>260.0</ele>
        <time>2018-10-14T06:25:24Z</time>
      </trkpt>
      <trkpt lat="38.4028080" lon="-0.7435550">
        <ele>260.0</ele>
        <time>2018-10-14T06:25:25Z</time>
      </trkpt>
      <trkpt lat="38.4028080" lon="-0.7435550">
        <ele>260.0</ele>
        <time>2018-10-14T06:25:26Z</time>
      </trkpt>
      <trkpt lat="38.4028020" lon="-0.7434450">
        <ele>260.0</ele>
        <time>2018-10-14T06:25:27Z</time>
      </trkpt>
      <trkpt lat="38.4028020" lon="-0.7434450">
        <ele>260.0</ele>
        <time>2018-10-14T06:25:28Z</time>
      </trkpt>
      <trkpt lat="38.4027900" lon="-0.7433400">
        <ele>260.0</ele>
        <time>2018-10-14T06:25:29Z</time>
      </trkpt>
      <trkpt lat="38.4027850" lon="-0.7432880">
        <ele>260.0</ele>
        <time>2018-10-14T06:25:30Z</time>
      </trkpt>
      <trkpt lat="38.4027800" lon="-0.7432370">
        <ele>260.0</ele>
        <time>2018-10-14T06:25:31Z</time>
      </trkpt>
      <trkpt lat="38.4027800" lon="-0.7432370">
        <ele>260.0</ele>
        <time>2018-10-14T06:25:32Z</time>
      </trkpt>
      <trkpt lat="38.4027730" lon="-0.7431330">
        <ele>260.0</ele>
        <time>2018-10-14T06:25:33Z</time>
      </trkpt>
      <trkpt lat="38.4027730" lon="-0.7431330">
        <ele>260.0</ele>
        <time>2018-10-14T06:25:34Z</time>
      </trkpt>
      <trkpt lat="38.4027650" lon="-0.7430270">
        <ele>260.0</ele>
        <time>2018-10-14T06:25:35Z</time>
      </trkpt>
      <trkpt lat="38.4027650" lon="-0.7430270">
        <ele>260.0</ele>
        <time>2018-10-14T06:25:36Z</time>
      </trkpt>
      <trkpt lat="38.4027600" lon="-0.7429220">
        <ele>260.0</ele>
        <time>2018-10-14T06:25:37Z</time>
      </trkpt>
      <trkpt lat="38.4027570" lon="-0.7428720">
        <ele>260.0</ele>
        <time>2018-10-14T06:25:38Z</time>
      </trkpt>
      <trkpt lat="38.4027570" lon="-0.7428720">
        <ele>260.0</ele>
        <time>2018-10-14T06:25:39Z</time>
      </trkpt>
      <trkpt lat="38.4027500" lon="-0.7427680">
        <ele>260.0</ele>
        <time>2018-10-14T06:25:40Z</time>
      </trkpt>
      <trkpt lat="38.4027470" lon="-0.7427170">
        <ele>260.0</ele>
        <time>2018-10-14T06:25:41Z</time>
      </trkpt>
      <trkpt lat="38.4027470" lon="-0.7427170">
        <ele>260.0</ele>
        <time>2018-10-14T06:25:42Z</time>
      </trkpt>
      <trkpt lat="38.4027400" lon="-0.7426120">
        <ele>260.0</ele>
        <time>2018-10-14T06:25:43Z</time>
      </trkpt>
      <trkpt lat="38.4027400" lon="-0.7426120">
        <ele>260.0</ele>
        <time>2018-10-14T06:25:44Z</time>
      </trkpt>
      <trkpt lat="38.4027330" lon="-0.7425070">
        <ele>260.0</ele>
        <time>2018-10-14T06:25:45Z</time>
      </trkpt>
      <trkpt lat="38.4027330" lon="-0.7425070">
        <ele>260.0</ele>
        <time>2018-10-14T06:25:46Z</time>
      </trkpt>
      <trkpt lat="38.4027270" lon="-0.7424000">
        <ele>260.0</ele>
        <time>2018-10-14T06:25:47Z</time>
      </trkpt>
      <trkpt lat="38.4027270" lon="-0.7424000">
        <ele>260.0</ele>
        <time>2018-10-14T06:25:48Z</time>
      </trkpt>
      <trkpt lat="38.4027200" lon="-0.7422920">
        <ele>260.0</ele>
        <time>2018-10-14T06:25:49Z</time>
      </trkpt>
      <trkpt lat="38.4027200" lon="-0.7422920">
        <ele>260.0</ele>
        <time>2018-10-14T06:25:50Z</time>
      </trkpt>
      <trkpt lat="38.4027150" lon="-0.7421900">
        <ele>260.0</ele>
        <time>2018-10-14T06:25:51Z</time>
      </trkpt>
      <trkpt lat="38.4027150" lon="-0.7421900">
        <ele>260.0</ele>
        <time>2018-10-14T06:25:52Z</time>
      </trkpt>
      <trkpt lat="38.4027100" lon="-0.7420900">
        <ele>260.0</ele>
        <time>2018-10-14T06:25:53Z</time>
      </trkpt>
      <trkpt lat="38.4027100" lon="-0.7420900">
        <ele>260.0</ele>
        <time>2018-10-14T06:25:54Z</time>
      </trkpt>
      <trkpt lat="38.4027020" lon="-0.7419870">
        <ele>260.0</ele>
        <time>2018-10-14T06:25:55Z</time>
      </trkpt>
      <trkpt lat="38.4027020" lon="-0.7419870">
        <ele>260.0</ele>
        <time>2018-10-14T06:25:56Z</time>
      </trkpt>
      <trkpt lat="38.4026950" lon="-0.7418800">
        <ele>260.0</ele>
        <time>2018-10-14T06:25:57Z</time>
      </trkpt>
      <trkpt lat="38.4026950" lon="-0.7418800">
        <ele>260.0</ele>
        <time>2018-10-14T06:25:58Z</time>
      </trkpt>
      <trkpt lat="38.4026880" lon="-0.7417780">
        <ele>260.0</ele>
        <time>2018-10-14T06:25:59Z</time>
      </trkpt>
      <trkpt lat="38.4026880" lon="-0.7417780">
        <ele>260.0</ele>
        <time>2018-10-14T06:26:00Z</time>
      </trkpt>
      <trkpt lat="38.4026820" lon="-0.7416800">
        <ele>260.0</ele>
        <time>2018-10-14T06:26:01Z</time>
      </trkpt>
      <trkpt lat="38.4026820" lon="-0.7416800">
        <ele>260.0</ele>
        <time>2018-10-14T06:26:02Z</time>
      </trkpt>
      <trkpt lat="38.4026750" lon="-0.7415770">
        <ele>260.0</ele>
        <time>2018-10-14T06:26:03Z</time>
      </trkpt>
      <trkpt lat="38.4026750" lon="-0.7415770">
        <ele>260.0</ele>
        <time>2018-10-14T06:26:04Z</time>
      </trkpt>
      <trkpt lat="38.4026680" lon="-0.7414770">
        <ele>260.0</ele>
        <time>2018-10-14T06:26:05Z</time>
      </trkpt>
      <trkpt lat="38.4026680" lon="-0.7414770">
        <ele>260.0</ele>
        <time>2018-10-14T06:26:06Z</time>
      </trkpt>
      <trkpt lat="38.4026580" lon="-0.7413780">
        <ele>260.0</ele>
        <time>2018-10-14T06:26:07Z</time>
      </trkpt>
      <trkpt lat="38.4026580" lon="-0.7413780">
        <ele>260.0</ele>
        <time>2018-10-14T06:26:08Z</time>
      </trkpt>
      <trkpt lat="38.4026500" lon="-0.7412820">
        <ele>260.0</ele>
        <time>2018-10-14T06:26:09Z</time>
      </trkpt>
      <trkpt lat="38.4026470" lon="-0.7412320">
        <ele>260.0</ele>
        <time>2018-10-14T06:26:10Z</time>
      </trkpt>
      <trkpt lat="38.4026470" lon="-0.7412320">
        <ele>260.0</ele>
        <time>2018-10-14T06:26:11Z</time>
      </trkpt>
      <trkpt lat="38.4026380" lon="-0.7411300">
        <ele>260.0</ele>
        <time>2018-10-14T06:26:12Z</time>
      </trkpt>
      <trkpt lat="38.4026350" lon="-0.7410800">
        <ele>260.0</ele>
        <time>2018-10-14T06:26:13Z</time>
      </trkpt>
      <trkpt lat="38.4026350" lon="-0.7410800">
        <ele>260.0</ele>
        <time>2018-10-14T06:26:14Z</time>
      </trkpt>
      <trkpt lat="38.4026270" lon="-0.7409800">
        <ele>260.0</ele>
        <time>2018-10-14T06:26:15Z</time>
      </trkpt>
      <trkpt lat="38.4026270" lon="-0.7409800">
        <ele>260.0</ele>
        <time>2018-10-14T06:26:16Z</time>
      </trkpt>
      <trkpt lat="38.4026170" lon="-0.7408820">
        <ele>260.0</ele>
        <time>2018-10-14T06:26:17Z</time>
      </trkpt>
      <trkpt lat="38.4026170" lon="-0.7408820">
        <ele>260.0</ele>
        <time>2018-10-14T06:26:18Z</time>
      </trkpt>
      <trkpt lat="38.4026100" lon="-0.7407780">
        <ele>260.0</ele>
        <time>2018-10-14T06:26:19Z</time>
      </trkpt>
      <trkpt lat="38.4026100" lon="-0.7407780">
        <ele>260.0</ele>
        <time>2018-10-14T06:26:20Z</time>
      </trkpt>
      <trkpt lat="38.4026030" lon="-0.7406780">
        <ele>260.0</ele>
        <time>2018-10-14T06:26:21Z</time>
      </trkpt>
      <trkpt lat="38.4026030" lon="-0.7406780">
        <ele>260.0</ele>
        <time>2018-10-14T06:26:22Z</time>
      </trkpt>
      <trkpt lat="38.4025930" lon="-0.7405820">
        <ele>260.0</ele>
        <time>2018-10-14T06:26:23Z</time>
      </trkpt>
      <trkpt lat="38.4025930" lon="-0.7405820">
        <ele>260.0</ele>
        <time>2018-10-14T06:26:24Z</time>
      </trkpt>
      <trkpt lat="38.4025870" lon="-0.7404870">
        <ele>260.0</ele>
        <time>2018-10-14T06:26:25Z</time>
      </trkpt>
      <trkpt lat="38.4025870" lon="-0.7404870">
        <ele>260.0</ele>
        <time>2018-10-14T06:26:26Z</time>
      </trkpt>
      <trkpt lat="38.4025780" lon="-0.7403920">
        <ele>260.0</ele>
        <time>2018-10-14T06:26:27Z</time>
      </trkpt>
      <trkpt lat="38.4025750" lon="-0.7403450">
        <ele>260.0</ele>
        <time>2018-10-14T06:26:28Z</time>
      </trkpt>
      <trkpt lat="38.4025750" lon="-0.7403450">
        <ele>260.0</ele>
        <time>2018-10-14T06:26:29Z</time>
      </trkpt>
      <trkpt lat="38.4025650" lon="-0.7402530">
        <ele>260.0</ele>
        <time>2018-10-14T06:26:30Z</time>
      </trkpt>
      <trkpt lat="38.4025620" lon="-0.7402070">
        <ele>260.0</ele>
        <time>2018-10-14T06:26:31Z</time>
      </trkpt>
      <trkpt lat="38.4025620" lon="-0.7402070">
        <ele>260.0</ele>
        <time>2018-10-14T06:26:32Z</time>
      </trkpt>
      <trkpt lat="38.4025530" lon="-0.7401170">
        <ele>260.0</ele>
        <time>2018-10-14T06:26:33Z</time>
      </trkpt>
      <trkpt lat="38.4025530" lon="-0.7401170">
        <ele>260.0</ele>
        <time>2018-10-14T06:26:34Z</time>
      </trkpt>
      <trkpt lat="38.4025450" lon="-0.7400350">
        <ele>260.0</ele>
        <time>2018-10-14T06:26:35Z</time>
      </trkpt>
      <trkpt lat="38.4025450" lon="-0.7400350">
        <ele>260.0</ele>
        <time>2018-10-14T06:26:36Z</time>
      </trkpt>
      <trkpt lat="38.4025350" lon="-0.7399620">
        <ele>260.0</ele>
        <time>2018-10-14T06:26:37Z</time>
      </trkpt>
      <trkpt lat="38.4025350" lon="-0.7399620">
        <ele>260.0</ele>
        <time>2018-10-14T06:26:38Z</time>
      </trkpt>
      <trkpt lat="38.4025280" lon="-0.7399020">
        <ele>260.0</ele>
        <time>2018-10-14T06:26:39Z</time>
      </trkpt>
      <trkpt lat="38.4025270" lon="-0.7398770">
        <ele>260.0</ele>
        <time>2018-10-14T06:26:40Z</time>
      </trkpt>
      <trkpt lat="38.4025230" lon="-0.7398550">
        <ele>260.0</ele>
        <time>2018-10-14T06:26:41Z</time>
      </trkpt>
      <trkpt lat="38.4025230" lon="-0.7398550">
        <ele>260.0</ele>
        <time>2018-10-14T06:26:42Z</time>
      </trkpt>
      <trkpt lat="38.4025270" lon="-0.7398300">
        <ele>260.0</ele>
        <time>2018-10-14T06:26:43Z</time>
      </trkpt>
      <trkpt lat="38.4025270" lon="-0.7398300">
        <ele>260.0</ele>
        <time>2018-10-14T06:26:44Z</time>
      </trkpt>
      <trkpt lat="38.4025280" lon="-0.7398170">
        <ele>260.0</ele>
        <time>2018-10-14T06:26:45Z</time>
      </trkpt>
      <trkpt lat="38.4025280" lon="-0.7398170">
        <ele>260.0</ele>
        <time>2018-10-14T06:26:46Z</time>
      </trkpt>
      <trkpt lat="38.4025280" lon="-0.7398170">
        <ele>260.0</ele>
        <time>2018-10-14T06:29:12Z</time>
      </trkpt>
      <trkpt lat="38.4025280" lon="-0.7398170">
        <ele>260.0</ele>
        <time>2018-10-14T06:29:13Z</time>
      </trkpt>
      <trkpt lat="38.4025000" lon="-0.7397630">
        <ele>260.0</ele>
        <time>2018-10-14T06:29:14Z</time>
      </trkpt>
      <trkpt lat="38.4025000" lon="-0.7397630">
        <ele>260.0</ele>
        <time>2018-10-14T06:29:15Z</time>
      </trkpt>
      <trkpt lat="38.4024980" lon="-0.7397180">
        <ele>260.0</ele>
        <time>2018-10-14T06:29:16Z</time>
      </trkpt>
      <trkpt lat="38.4024980" lon="-0.7397180">
        <ele>260.0</ele>
        <time>2018-10-14T06:29:17Z</time>
      </trkpt>
      <trkpt lat="38.4024950" lon="-0.7396620">
        <ele>260.0</ele>
        <time>2018-10-14T06:29:18Z</time>
      </trkpt>
      <trkpt lat="38.4024950" lon="-0.7396620">
        <ele>260.0</ele>
        <time>2018-10-14T06:29:19Z</time>
      </trkpt>
      <trkpt lat="38.4024900" lon="-0.7395870">
        <ele>260.0</ele>
        <time>2018-10-14T06:29:20Z</time>
      </trkpt>
      <trkpt lat="38.4024900" lon="-0.7395870">
        <ele>260.0</ele>
        <time>2018-10-14T06:29:21Z</time>
      </trkpt>
      <trkpt lat="38.4024850" lon="-0.7395050">
        <ele>260.0</ele>
        <time>2018-10-14T06:29:22Z</time>
      </trkpt>
      <trkpt lat="38.4024850" lon="-0.7395050">
        <ele>261.0</ele>
        <time>2018-10-14T06:29:23Z</time>
      </trkpt>
      <trkpt lat="38.4024780" lon="-0.7394230">
        <ele>261.0</ele>
        <time>2018-10-14T06:29:24Z</time>
      </trkpt>
      <trkpt lat="38.4024780" lon="-0.7394230">
        <ele>261.0</ele>
        <time>2018-10-14T06:29:25Z</time>
      </trkpt>
      <trkpt lat="38.4024750" lon="-0.7393430">
        <ele>261.0</ele>
        <time>2018-10-14T06:29:26Z</time>
      </trkpt>
      <trkpt lat="38.4024720" lon="-0.7393050">
        <ele>261.0</ele>
        <time>2018-10-14T06:29:27Z</time>
      </trkpt>
      <trkpt lat="38.4024720" lon="-0.7393050">
        <ele>261.0</ele>
        <time>2018-10-14T06:29:28Z</time>
      </trkpt>
      <trkpt lat="38.4024650" lon="-0.7392230">
        <ele>261.0</ele>
        <time>2018-10-14T06:29:29Z</time>
      </trkpt>
      <trkpt lat="38.4024630" lon="-0.7391820">
        <ele>261.0</ele>
        <time>2018-10-14T06:29:30Z</time>
      </trkpt>
      <trkpt lat="38.4024630" lon="-0.7391820">
        <ele>261.0</ele>
        <time>2018-10-14T06:29:31Z</time>
      </trkpt>
      <trkpt lat="38.4024600" lon="-0.7390980">
        <ele>261.0</ele>
        <time>2018-10-14T06:29:32Z</time>
      </trkpt>
      <trkpt lat="38.4024600" lon="-0.7390980">
        <ele>261.0</ele>
        <time>2018-10-14T06:29:33Z</time>
      </trkpt>
      <trkpt lat="38.4024530" lon="-0.7390200">
        <ele>261.0</ele>
        <time>2018-10-14T06:29:34Z</time>
      </trkpt>
      <trkpt lat="38.4024520" lon="-0.7389820">
        <ele>261.0</ele>
        <time>2018-10-14T06:29:35Z</time>
      </trkpt>
      <trkpt lat="38.4024500" lon="-0.7389420">
        <ele>261.0</ele>
        <time>2018-10-14T06:29:36Z</time>
      </trkpt>
      <trkpt lat="38.4024500" lon="-0.7389420">
        <ele>261.0</ele>
        <time>2018-10-14T06:29:37Z</time>
      </trkpt>
      <trkpt lat="38.4024450" lon="-0.7388620">
        <ele>261.0</ele>
        <time>2018-10-14T06:29:38Z</time>
      </trkpt>
      <trkpt lat="38.4024450" lon="-0.7388620">
        <ele>261.0</ele>
        <time>2018-10-14T06:29:39Z</time>
      </trkpt>
      <trkpt lat="38.4024400" lon="-0.7387770">
        <ele>261.0</ele>
        <time>2018-10-14T06:29:40Z</time>
      </trkpt>
      <trkpt lat="38.4024400" lon="-0.7387770">
        <ele>261.0</ele>
        <time>2018-10-14T06:29:41Z</time>
      </trkpt>
      <trkpt lat="38.4024350" lon="-0.7386900">
        <ele>261.0</ele>
        <time>2018-10-14T06:29:42Z</time>
      </trkpt>
      <trkpt lat="38.4024350" lon="-0.7386900">
        <ele>261.0</ele>
        <time>2018-10-14T06:29:43Z</time>
      </trkpt>
      <trkpt lat="38.4024300" lon="-0.7386000">
        <ele>261.0</ele>
        <time>2018-10-14T06:29:44Z</time>
      </trkpt>
      <trkpt lat="38.4024300" lon="-0.7386000">
        <ele>261.0</ele>
        <time>2018-10-14T06:29:45Z</time>
      </trkpt>
      <trkpt lat="38.4024230" lon="-0.7385050">
        <ele>261.0</ele>
        <time>2018-10-14T06:29:46Z</time>
      </trkpt>
      <trkpt lat="38.4024230" lon="-0.7385050">
        <ele>261.0</ele>
        <time>2018-10-14T06:29:47Z</time>
      </trkpt>
      <trkpt lat="38.4024170" lon="-0.7384120">
        <ele>261.0</ele>
        <time>2018-10-14T06:29:48Z</time>
      </trkpt>
      <trkpt lat="38.4024170" lon="-0.7384120">
        <ele>261.0</ele>
        <time>2018-10-14T06:29:49Z</time>
      </trkpt>
      <trkpt lat="38.4024120" lon="-0.7383220">
        <ele>261.0</ele>
        <time>2018-10-14T06:29:50Z</time>
      </trkpt>
      <trkpt lat="38.4024120" lon="-0.7383220">
        <ele>261.0</ele>
        <time>2018-10-14T06:29:51Z</time>
      </trkpt>
      <trkpt lat="38.4024050" lon="-0.7382320">
        <ele>261.0</ele>
        <time>2018-10-14T06:29:52Z</time>
      </trkpt>
      <trkpt lat="38.4024050" lon="-0.7382320">
        <ele>261.0</ele>
        <time>2018-10-14T06:29:53Z</time>
      </trkpt>
      <trkpt lat="38.4023970" lon="-0.7381420">
        <ele>261.0</ele>
        <time>2018-10-14T06:29:54Z</time>
      </trkpt>
      <trkpt lat="38.4023970" lon="-0.7381420">
        <ele>261.0</ele>
        <time>2018-10-14T06:29:55Z</time>
      </trkpt>
      <trkpt lat="38.4023880" lon="-0.7380500">
        <ele>261.0</ele>
        <time>2018-10-14T06:29:56Z</time>
      </trkpt>
      <trkpt lat="38.4023880" lon="-0.7380500">
        <ele>261.0</ele>
        <time>2018-10-14T06:29:57Z</time>
      </trkpt>
      <trkpt lat="38.4023780" lon="-0.7379580">
        <ele>261.0</ele>
        <time>2018-10-14T06:29:58Z</time>
      </trkpt>
      <trkpt lat="38.4023780" lon="-0.7379580">
        <ele>261.0</ele>
        <time>2018-10-14T06:29:59Z</time>
      </trkpt>
      <trkpt lat="38.4023680" lon="-0.7378700">
        <ele>261.0</ele>
        <time>2018-10-14T06:30:00Z</time>
      </trkpt>
      <trkpt lat="38.4023680" lon="-0.7378700">
        <ele>262.0</ele>
        <time>2018-10-14T06:30:01Z</time>
      </trkpt>
      <trkpt lat="38.4023620" lon="-0.7377780">
        <ele>262.0</ele>
        <time>2018-10-14T06:30:02Z</time>
      </trkpt>
      <trkpt lat="38.4023620" lon="-0.7377780">
        <ele>262.0</ele>
        <time>2018-10-14T06:30:03Z</time>
      </trkpt>
      <trkpt lat="38.4023600" lon="-0.7376670">
        <ele>262.0</ele>
        <time>2018-10-14T06:30:04Z</time>
      </trkpt>
      <trkpt lat="38.4023600" lon="-0.7376670">
        <ele>262.0</ele>
        <time>2018-10-14T06:30:05Z</time>
      </trkpt>
      <trkpt lat="38.4023550" lon="-0.7375550">
        <ele>262.0</ele>
        <time>2018-10-14T06:30:06Z</time>
      </trkpt>
      <trkpt lat="38.4023550" lon="-0.7375550">
        <ele>262.0</ele>
        <time>2018-10-14T06:30:07Z</time>
      </trkpt>
      <trkpt lat="38.4023520" lon="-0.7374470">
        <ele>262.0</ele>
        <time>2018-10-14T06:30:08Z</time>
      </trkpt>
      <trkpt lat="38.4023520" lon="-0.7374470">
        <ele>262.0</ele>
        <time>2018-10-14T06:30:09Z</time>
      </trkpt>
      <trkpt lat="38.4023480" lon="-0.7373400">
        <ele>262.0</ele>
        <time>2018-10-14T06:30:10Z</time>
      </trkpt>
      <trkpt lat="38.4023480" lon="-0.7373400">
        <ele>261.0</ele>
        <time>2018-10-14T06:30:11Z</time>
      </trkpt>
      <trkpt lat="38.4023420" lon="-0.7372370">
        <ele>261.0</ele>
        <time>2018-10-14T06:30:12Z</time>
      </trkpt>
      <trkpt lat="38.4023420" lon="-0.7372370">
        <ele>261.0</ele>
        <time>2018-10-14T06:30:13Z</time>
      </trkpt>
      <trkpt lat="38.4023400" lon="-0.7371300">
        <ele>261.0</ele>
        <time>2018-10-14T06:30:14Z</time>
      </trkpt>
      <trkpt lat="38.4023400" lon="-0.7371300">
        <ele>261.0</ele>
        <time>2018-10-14T06:30:15Z</time>
      </trkpt>
      <trkpt lat="38.4023380" lon="-0.7370180">
        <ele>261.0</ele>
        <time>2018-10-14T06:30:16Z</time>
      </trkpt>
      <trkpt lat="38.4023370" lon="-0.7369620">
        <ele>261.0</ele>
        <time>2018-10-14T06:30:17Z</time>
      </trkpt>
      <trkpt lat="38.4023300" lon="-0.7369050">
        <ele>261.0</ele>
        <time>2018-10-14T06:30:18Z</time>
      </trkpt>
      <trkpt lat="38.4023300" lon="-0.7369050">
        <ele>261.0</ele>
        <time>2018-10-14T06:30:19Z</time>
      </trkpt>
      <trkpt lat="38.4023180" lon="-0.7367880">
        <ele>261.0</ele>
        <time>2018-10-14T06:30:20Z</time>
      </trkpt>
      <trkpt lat="38.4023180" lon="-0.7367880">
        <ele>261.0</ele>
        <time>2018-10-14T06:30:21Z</time>
      </trkpt>
      <trkpt lat="38.4023070" lon="-0.7366730">
        <ele>261.0</ele>
        <time>2018-10-14T06:30:22Z</time>
      </trkpt>
      <trkpt lat="38.4023070" lon="-0.7366730">
        <ele>261.0</ele>
        <time>2018-10-14T06:30:23Z</time>
      </trkpt>
      <trkpt lat="38.4022970" lon="-0.7365580">
        <ele>261.0</ele>
        <time>2018-10-14T06:30:24Z</time>
      </trkpt>
      <trkpt lat="38.4022970" lon="-0.7365580">
        <ele>261.0</ele>
        <time>2018-10-14T06:30:25Z</time>
      </trkpt>
      <trkpt lat="38.4022880" lon="-0.7364500">
        <ele>261.0</ele>
        <time>2018-10-14T06:30:26Z</time>
      </trkpt>
      <trkpt lat="38.4022880" lon="-0.7364500">
        <ele>261.0</ele>
        <time>2018-10-14T06:30:27Z</time>
      </trkpt>
      <trkpt lat="38.4022800" lon="-0.7363400">
        <ele>261.0</ele>
        <time>2018-10-14T06:30:28Z</time>
      </trkpt>
      <trkpt lat="38.4022750" lon="-0.7362850">
        <ele>261.0</ele>
        <time>2018-10-14T06:30:29Z</time>
      </trkpt>
      <trkpt lat="38.4022750" lon="-0.7362850">
        <ele>261.0</ele>
        <time>2018-10-14T06:30:30Z</time>
      </trkpt>
      <trkpt lat="38.4022630" lon="-0.7361730">
        <ele>261.0</ele>
        <time>2018-10-14T06:30:31Z</time>
      </trkpt>
      <trkpt lat="38.4022580" lon="-0.7361180">
        <ele>261.0</ele>
        <time>2018-10-14T06:30:32Z</time>
      </trkpt>
      <trkpt lat="38.4022580" lon="-0.7361180">
        <ele>261.0</ele>
        <time>2018-10-14T06:30:33Z</time>
      </trkpt>
      <trkpt lat="38.4022480" lon="-0.7360050">
        <ele>261.0</ele>
        <time>2018-10-14T06:30:34Z</time>
      </trkpt>
      <trkpt lat="38.4022480" lon="-0.7360050">
        <ele>261.0</ele>
        <time>2018-10-14T06:30:35Z</time>
      </trkpt>
      <trkpt lat="38.4022370" lon="-0.7358850">
        <ele>260.0</ele>
        <time>2018-10-14T06:30:36Z</time>
      </trkpt>
      <trkpt lat="38.4022370" lon="-0.7358850">
        <ele>260.0</ele>
        <time>2018-10-14T06:30:37Z</time>
      </trkpt>
      <trkpt lat="38.4022280" lon="-0.7357650">
        <ele>260.0</ele>
        <time>2018-10-14T06:30:38Z</time>
      </trkpt>
      <trkpt lat="38.4022280" lon="-0.7357650">
        <ele>260.0</ele>
        <time>2018-10-14T06:30:39Z</time>
      </trkpt>
      <trkpt lat="38.4022170" lon="-0.7356470">
        <ele>260.0</ele>
        <time>2018-10-14T06:30:40Z</time>
      </trkpt>
      <trkpt lat="38.4022120" lon="-0.7355900">
        <ele>260.0</ele>
        <time>2018-10-14T06:30:41Z</time>
      </trkpt>
      <trkpt lat="38.4022120" lon="-0.7355900">
        <ele>260.0</ele>
        <time>2018-10-14T06:30:42Z</time>
      </trkpt>
      <trkpt lat="38.4022000" lon="-0.7354780">
        <ele>260.0</ele>
        <time>2018-10-14T06:30:43Z</time>
      </trkpt>
      <trkpt lat="38.4021970" lon="-0.7354230">
        <ele>260.0</ele>
        <time>2018-10-14T06:30:44Z</time>
      </trkpt>
      <trkpt lat="38.4021970" lon="-0.7354230">
        <ele>260.0</ele>
        <time>2018-10-14T06:30:45Z</time>
      </trkpt>
      <trkpt lat="38.4021870" lon="-0.7353100">
        <ele>260.0</ele>
        <time>2018-10-14T06:30:46Z</time>
      </trkpt>
      <trkpt lat="38.4021820" lon="-0.7352530">
        <ele>260.0</ele>
        <time>2018-10-14T06:30:47Z</time>
      </trkpt>
      <trkpt lat="38.4021770" lon="-0.7351980">
        <ele>260.0</ele>
        <time>2018-10-14T06:30:48Z</time>
      </trkpt>
      <trkpt lat="38.4021770" lon="-0.7351980">
        <ele>260.0</ele>
        <time>2018-10-14T06:30:49Z</time>
      </trkpt>
      <trkpt lat="38.4021630" lon="-0.7350870">
        <ele>260.0</ele>
        <time>2018-10-14T06:30:50Z</time>
      </trkpt>
      <trkpt lat="38.4021630" lon="-0.7350870">
        <ele>260.0</ele>
        <time>2018-10-14T06:30:51Z</time>
      </trkpt>
      <trkpt lat="38.4021550" lon="-0.7349700">
        <ele>260.0</ele>
        <time>2018-10-14T06:30:52Z</time>
      </trkpt>
      <trkpt lat="38.4021550" lon="-0.7349700">
        <ele>260.0</ele>
        <time>2018-10-14T06:30:53Z</time>
      </trkpt>
      <trkpt lat="38.4021430" lon="-0.7348530">
        <ele>260.0</ele>
        <time>2018-10-14T06:30:54Z</time>
      </trkpt>
      <trkpt lat="38.4021430" lon="-0.7348530">
        <ele>260.0</ele>
        <time>2018-10-14T06:30:55Z</time>
      </trkpt>
      <trkpt lat="38.4021300" lon="-0.7347350">
        <ele>260.0</ele>
        <time>2018-10-14T06:30:56Z</time>
      </trkpt>
      <trkpt lat="38.4021300" lon="-0.7347350">
        <ele>260.0</ele>
        <time>2018-10-14T06:30:57Z</time>
      </trkpt>
      <trkpt lat="38.4021180" lon="-0.7346150">
        <ele>260.0</ele>
        <time>2018-10-14T06:30:58Z</time>
      </trkpt>
      <trkpt lat="38.4021180" lon="-0.7346150">
        <ele>260.0</ele>
        <time>2018-10-14T06:30:59Z</time>
      </trkpt>
      <trkpt lat="38.4021070" lon="-0.7344980">
        <ele>260.0</ele>
        <time>2018-10-14T06:31:00Z</time>
      </trkpt>
      <trkpt lat="38.4021070" lon="-0.7344980">
        <ele>260.0</ele>
        <time>2018-10-14T06:31:01Z</time>
      </trkpt>
      <trkpt lat="38.4020930" lon="-0.7343850">
        <ele>260.0</ele>
        <time>2018-10-14T06:31:02Z</time>
      </trkpt>
      <trkpt lat="38.4020930" lon="-0.7343850">
        <ele>260.0</ele>
        <time>2018-10-14T06:31:03Z</time>
      </trkpt>
      <trkpt lat="38.4020830" lon="-0.7342720">
        <ele>260.0</ele>
        <time>2018-10-14T06:31:04Z</time>
      </trkpt>
      <trkpt lat="38.4020830" lon="-0.7342720">
        <ele>260.0</ele>
        <time>2018-10-14T06:31:05Z</time>
      </trkpt>
      <trkpt lat="38.4020730" lon="-0.7341600">
        <ele>260.0</ele>
        <time>2018-10-14T06:31:06Z</time>
      </trkpt>
      <trkpt lat="38.4020730" lon="-0.7341600">
        <ele>260.0</ele>
        <time>2018-10-14T06:31:07Z</time>
      </trkpt>
      <trkpt lat="38.4020630" lon="-0.7340470">
        <ele>260.0</ele>
        <time>2018-10-14T06:31:08Z</time>
      </trkpt>
      <trkpt lat="38.4020620" lon="-0.7339930">
        <ele>260.0</ele>
        <time>2018-10-14T06:31:09Z</time>
      </trkpt>
      <trkpt lat="38.4020620" lon="-0.7339930">
        <ele>260.0</ele>
        <time>2018-10-14T06:31:10Z</time>
      </trkpt>
      <trkpt lat="38.4020680" lon="-0.7338850">
        <ele>260.0</ele>
        <time>2018-10-14T06:31:11Z</time>
      </trkpt>
      <trkpt lat="38.4020800" lon="-0.7338230">
        <ele>260.0</ele>
        <time>2018-10-14T06:31:12Z</time>
      </trkpt>
      <trkpt lat="38.4020800" lon="-0.7338230">
        <ele>260.0</ele>
        <time>2018-10-14T06:31:13Z</time>
      </trkpt>
      <trkpt lat="38.4020980" lon="-0.7336750">
        <ele>260.0</ele>
        <time>2018-10-14T06:31:14Z</time>
      </trkpt>
      <trkpt lat="38.4020980" lon="-0.7336750">
        <ele>259.0</ele>
        <time>2018-10-14T06:31:15Z</time>
      </trkpt>
      <trkpt lat="38.4020950" lon="-0.7335130">
        <ele>259.0</ele>
        <time>2018-10-14T06:31:16Z</time>
      </trkpt>
      <trkpt lat="38.4020920" lon="-0.7334330">
        <ele>258.0</ele>
        <time>2018-10-14T06:31:17Z</time>
      </trkpt>
      <trkpt lat="38.4020830" lon="-0.7333580">
        <ele>258.0</ele>
        <time>2018-10-14T06:31:18Z</time>
      </trkpt>
      <trkpt lat="38.4020830" lon="-0.7333580">
        <ele>258.0</ele>
        <time>2018-10-14T06:31:19Z</time>
      </trkpt>
      <trkpt lat="38.4020650" lon="-0.7332220">
        <ele>258.0</ele>
        <time>2018-10-14T06:31:20Z</time>
      </trkpt>
      <trkpt lat="38.4020650" lon="-0.7332220">
        <ele>258.0</ele>
        <time>2018-10-14T06:31:21Z</time>
      </trkpt>
      <trkpt lat="38.4020470" lon="-0.7330830">
        <ele>258.0</ele>
        <time>2018-10-14T06:31:22Z</time>
      </trkpt>
      <trkpt lat="38.4020470" lon="-0.7330830">
        <ele>258.0</ele>
        <time>2018-10-14T06:31:23Z</time>
      </trkpt>
      <trkpt lat="38.4020350" lon="-0.7329470">
        <ele>258.0</ele>
        <time>2018-10-14T06:31:24Z</time>
      </trkpt>
      <trkpt lat="38.4020350" lon="-0.7329470">
        <ele>258.0</ele>
        <time>2018-10-14T06:31:25Z</time>
      </trkpt>
      <trkpt lat="38.4020230" lon="-0.7328120">
        <ele>258.0</ele>
        <time>2018-10-14T06:31:26Z</time>
      </trkpt>
      <trkpt lat="38.4020230" lon="-0.7328120">
        <ele>258.0</ele>
        <time>2018-10-14T06:31:27Z</time>
      </trkpt>
      <trkpt lat="38.4020080" lon="-0.7326830">
        <ele>258.0</ele>
        <time>2018-10-14T06:31:28Z</time>
      </trkpt>
      <trkpt lat="38.4020020" lon="-0.7326230">
        <ele>258.0</ele>
        <time>2018-10-14T06:31:29Z</time>
      </trkpt>
      <trkpt lat="38.4020020" lon="-0.7326230">
        <ele>258.0</ele>
        <time>2018-10-14T06:31:30Z</time>
      </trkpt>
      <trkpt lat="38.4019870" lon="-0.7325080">
        <ele>258.0</ele>
        <time>2018-10-14T06:31:31Z</time>
      </trkpt>
      <trkpt lat="38.4019780" lon="-0.7324500">
        <ele>258.0</ele>
        <time>2018-10-14T06:31:32Z</time>
      </trkpt>
      <trkpt lat="38.4019780" lon="-0.7324500">
        <ele>258.0</ele>
        <time>2018-10-14T06:31:33Z</time>
      </trkpt>
      <trkpt lat="38.4019680" lon="-0.7323380">
        <ele>258.0</ele>
        <time>2018-10-14T06:31:34Z</time>
      </trkpt>
      <trkpt lat="38.4019680" lon="-0.7323380">
        <ele>258.0</ele>
        <time>2018-10-14T06:31:35Z</time>
      </trkpt>
      <trkpt lat="38.4019570" lon="-0.7322320">
        <ele>259.0</ele>
        <time>2018-10-14T06:31:36Z</time>
      </trkpt>
      <trkpt lat="38.4019570" lon="-0.7322320">
        <ele>259.0</ele>
        <time>2018-10-14T06:31:37Z</time>
      </trkpt>
      <trkpt lat="38.4019520" lon="-0.7321220">
        <ele>259.0</ele>
        <time>2018-10-14T06:31:38Z</time>
      </trkpt>
      <trkpt lat="38.4019520" lon="-0.7321220">
        <ele>259.0</ele>
        <time>2018-10-14T06:31:39Z</time>
      </trkpt>
      <trkpt lat="38.4019500" lon="-0.7320050">
        <ele>259.0</ele>
        <time>2018-10-14T06:31:40Z</time>
      </trkpt>
      <trkpt lat="38.4019480" lon="-0.7319420">
        <ele>259.0</ele>
        <time>2018-10-14T06:31:41Z</time>
      </trkpt>
      <trkpt lat="38.4019480" lon="-0.7319420">
        <ele>259.0</ele>
        <time>2018-10-14T06:31:42Z</time>
      </trkpt>
      <trkpt lat="38.4019480" lon="-0.7318100">
        <ele>259.0</ele>
        <time>2018-10-14T06:31:43Z</time>
      </trkpt>
      <trkpt lat="38.4019480" lon="-0.7317430">
        <ele>259.0</ele>
        <time>2018-10-14T06:31:44Z</time>
      </trkpt>
      <trkpt lat="38.4019480" lon="-0.7317430">
        <ele>259.0</ele>
        <time>2018-10-14T06:31:45Z</time>
      </trkpt>
      <trkpt lat="38.4019480" lon="-0.7316130">
        <ele>259.0</ele>
        <time>2018-10-14T06:31:46Z</time>
      </trkpt>
      <trkpt lat="38.4019450" lon="-0.7315480">
        <ele>259.0</ele>
        <time>2018-10-14T06:31:47Z</time>
      </trkpt>
      <trkpt lat="38.4019450" lon="-0.7315480">
        <ele>259.0</ele>
        <time>2018-10-14T06:31:48Z</time>
      </trkpt>
      <trkpt lat="38.4019330" lon="-0.7314250">
        <ele>259.0</ele>
        <time>2018-10-14T06:31:49Z</time>
      </trkpt>
      <trkpt lat="38.4019330" lon="-0.7314250">
        <ele>259.0</ele>
        <time>2018-10-14T06:31:50Z</time>
      </trkpt>
      <trkpt lat="38.4019230" lon="-0.7313100">
        <ele>259.0</ele>
        <time>2018-10-14T06:31:51Z</time>
      </trkpt>
      <trkpt lat="38.4019200" lon="-0.7312530">
        <ele>259.0</ele>
        <time>2018-10-14T06:31:52Z</time>
      </trkpt>
      <trkpt lat="38.4019200" lon="-0.7312530">
        <ele>259.0</ele>
        <time>2018-10-14T06:31:53Z</time>
      </trkpt>
      <trkpt lat="38.4019080" lon="-0.7311400">
        <ele>259.0</ele>
        <time>2018-10-14T06:31:54Z</time>
      </trkpt>
      <trkpt lat="38.4019080" lon="-0.7311400">
        <ele>259.0</ele>
        <time>2018-10-14T06:31:55Z</time>
      </trkpt>
      <trkpt lat="38.4018970" lon="-0.7310280">
        <ele>259.0</ele>
        <time>2018-10-14T06:31:56Z</time>
      </trkpt>
      <trkpt lat="38.4018970" lon="-0.7310280">
        <ele>259.0</ele>
        <time>2018-10-14T06:31:57Z</time>
      </trkpt>
      <trkpt lat="38.4018830" lon="-0.7309270">
        <ele>259.0</ele>
        <time>2018-10-14T06:31:58Z</time>
      </trkpt>
      <trkpt lat="38.4018770" lon="-0.7308770">
        <ele>259.0</ele>
        <time>2018-10-14T06:31:59Z</time>
      </trkpt>
      <trkpt lat="38.4018730" lon="-0.7308250">
        <ele>259.0</ele>
        <time>2018-10-14T06:32:00Z</time>
      </trkpt>
      <trkpt lat="38.4018730" lon="-0.7308250">
        <ele>259.0</ele>
        <time>2018-10-14T06:32:01Z</time>
      </trkpt>
      <trkpt lat="38.4018650" lon="-0.7307420">
        <ele>259.0</ele>
        <time>2018-10-14T06:32:02Z</time>
      </trkpt>
      <trkpt lat="38.4018650" lon="-0.7307420">
        <ele>259.0</ele>
        <time>2018-10-14T06:32:03Z</time>
      </trkpt>
      <trkpt lat="38.4018650" lon="-0.7307000">
        <ele>259.0</ele>
        <time>2018-10-14T06:32:04Z</time>
      </trkpt>
      <trkpt lat="38.4018650" lon="-0.7307000">
        <ele>259.0</ele>
        <time>2018-10-14T06:32:05Z</time>
      </trkpt>
      <trkpt lat="38.4018970" lon="-0.7306620">
        <ele>259.0</ele>
        <time>2018-10-14T06:32:06Z</time>
      </trkpt>
      <trkpt lat="38.4019170" lon="-0.7306380">
        <ele>259.0</ele>
        <time>2018-10-14T06:32:07Z</time>
      </trkpt>
      <trkpt lat="38.4019420" lon="-0.7306230">
        <ele>259.0</ele>
        <time>2018-10-14T06:32:08Z</time>
      </trkpt>
      <trkpt lat="38.4019420" lon="-0.7306230">
        <ele>259.0</ele>
        <time>2018-10-14T06:32:09Z</time>
      </trkpt>
      <trkpt lat="38.4020050" lon="-0.7306000">
        <ele>258.0</ele>
        <time>2018-10-14T06:32:10Z</time>
      </trkpt>
      <trkpt lat="38.4020050" lon="-0.7306000">
        <ele>258.0</ele>
        <time>2018-10-14T06:32:11Z</time>
      </trkpt>
      <trkpt lat="38.4020770" lon="-0.7305780">
        <ele>258.0</ele>
        <time>2018-10-14T06:32:12Z</time>
      </trkpt>
      <trkpt lat="38.4020770" lon="-0.7305780">
        <ele>258.0</ele>
        <time>2018-10-14T06:32:13Z</time>
      </trkpt>
      <trkpt lat="38.4021530" lon="-0.7305600">
        <ele>258.0</ele>
        <time>2018-10-14T06:32:14Z</time>
      </trkpt>
      <trkpt lat="38.4021530" lon="-0.7305600">
        <ele>258.0</ele>
        <time>2018-10-14T06:32:15Z</time>
      </trkpt>
      <trkpt lat="38.4022280" lon="-0.7305420">
        <ele>258.0</ele>
        <time>2018-10-14T06:32:16Z</time>
      </trkpt>
      <trkpt lat="38.4022280" lon="-0.7305420">
        <ele>258.0</ele>
        <time>2018-10-14T06:32:17Z</time>
      </trkpt>
      <trkpt lat="38.4023020" lon="-0.7305270">
        <ele>258.0</ele>
        <time>2018-10-14T06:32:18Z</time>
      </trkpt>
      <trkpt lat="38.4023020" lon="-0.7305270">
        <ele>258.0</ele>
        <time>2018-10-14T06:32:19Z</time>
      </trkpt>
      <trkpt lat="38.4023770" lon="-0.7305200">
        <ele>258.0</ele>
        <time>2018-10-14T06:32:20Z</time>
      </trkpt>
      <trkpt lat="38.4023770" lon="-0.7305200">
        <ele>258.0</ele>
        <time>2018-10-14T06:32:21Z</time>
      </trkpt>
      <trkpt lat="38.4023700" lon="-0.7305330">
        <ele>258.0</ele>
        <time>2018-10-14T06:32:22Z</time>
      </trkpt>
      <trkpt lat="38.4024170" lon="-0.7305320">
        <ele>258.0</ele>
        <time>2018-10-14T06:32:23Z</time>
      </trkpt>
      <trkpt lat="38.4024170" lon="-0.7305320">
        <ele>258.0</ele>
        <time>2018-10-14T06:32:24Z</time>
      </trkpt>
      <trkpt lat="38.4024980" lon="-0.7305030">
        <ele>258.0</ele>
        <time>2018-10-14T06:32:25Z</time>
      </trkpt>
      <trkpt lat="38.4025330" lon="-0.7304730">
        <ele>259.0</ele>
        <time>2018-10-14T06:32:26Z</time>
      </trkpt>
      <trkpt lat="38.4025330" lon="-0.7304730">
        <ele>259.0</ele>
        <time>2018-10-14T06:32:27Z</time>
      </trkpt>
      <trkpt lat="38.4025770" lon="-0.7303950">
        <ele>259.0</ele>
        <time>2018-10-14T06:32:28Z</time>
      </trkpt>
      <trkpt lat="38.4025770" lon="-0.7303950">
        <ele>259.0</ele>
        <time>2018-10-14T06:32:29Z</time>
      </trkpt>
      <trkpt lat="38.4025750" lon="-0.7303120">
        <ele>259.0</ele>
        <time>2018-10-14T06:32:30Z</time>
      </trkpt>
      <trkpt lat="38.4025750" lon="-0.7303120">
        <ele>259.0</ele>
        <time>2018-10-14T06:32:31Z</time>
      </trkpt>
      <trkpt lat="38.4025600" lon="-0.7302330">
        <ele>259.0</ele>
        <time>2018-10-14T06:32:32Z</time>
      </trkpt>
      <trkpt lat="38.4025600" lon="-0.7302330">
        <ele>259.0</ele>
        <time>2018-10-14T06:32:33Z</time>
      </trkpt>
      <trkpt lat="38.4025420" lon="-0.7301550">
        <ele>259.0</ele>
        <time>2018-10-14T06:32:34Z</time>
      </trkpt>
      <trkpt lat="38.4025420" lon="-0.7301550">
        <ele>260.0</ele>
        <time>2018-10-14T06:32:35Z</time>
      </trkpt>
      <trkpt lat="38.4025300" lon="-0.7300820">
        <ele>260.0</ele>
        <time>2018-10-14T06:32:36Z</time>
      </trkpt>
      <trkpt lat="38.4025300" lon="-0.7300820">
        <ele>260.0</ele>
        <time>2018-10-14T06:32:37Z</time>
      </trkpt>
      <trkpt lat="38.4025230" lon="-0.7300080">
        <ele>260.0</ele>
        <time>2018-10-14T06:32:38Z</time>
      </trkpt>
      <trkpt lat="38.4025230" lon="-0.7300080">
        <ele>260.0</ele>
        <time>2018-10-14T06:32:39Z</time>
      </trkpt>
      <trkpt lat="38.4025170" lon="-0.7299300">
        <ele>260.0</ele>
        <time>2018-10-14T06:32:40Z</time>
      </trkpt>
      <trkpt lat="38.4025170" lon="-0.7299300">
        <ele>261.0</ele>
        <time>2018-10-14T06:32:41Z</time>
      </trkpt>
      <trkpt lat="38.4025050" lon="-0.7298470">
        <ele>261.0</ele>
        <time>2018-10-14T06:32:42Z</time>
      </trkpt>
      <trkpt lat="38.4025050" lon="-0.7298470">
        <ele>261.0</ele>
        <time>2018-10-14T06:32:43Z</time>
      </trkpt>
      <trkpt lat="38.4024970" lon="-0.7297600">
        <ele>261.0</ele>
        <time>2018-10-14T06:32:44Z</time>
      </trkpt>
      <trkpt lat="38.4024970" lon="-0.7297600">
        <ele>261.0</ele>
        <time>2018-10-14T06:32:45Z</time>
      </trkpt>
      <trkpt lat="38.4024970" lon="-0.7296730">
        <ele>261.0</ele>
        <time>2018-10-14T06:32:46Z</time>
      </trkpt>
      <trkpt lat="38.4024970" lon="-0.7296730">
        <ele>262.0</ele>
        <time>2018-10-14T06:32:47Z</time>
      </trkpt>
      <trkpt lat="38.4024950" lon="-0.7295870">
        <ele>262.0</ele>
        <time>2018-10-14T06:32:48Z</time>
      </trkpt>
      <trkpt lat="38.4024930" lon="-0.7295430">
        <ele>262.0</ele>
        <time>2018-10-14T06:32:49Z</time>
      </trkpt>
      <trkpt lat="38.4024930" lon="-0.7295430">
        <ele>262.0</ele>
        <time>2018-10-14T06:32:50Z</time>
      </trkpt>
      <trkpt lat="38.4024920" lon="-0.7294530">
        <ele>262.0</ele>
        <time>2018-10-14T06:32:51Z</time>
      </trkpt>
      <trkpt lat="38.4024930" lon="-0.7294070">
        <ele>262.0</ele>
        <time>2018-10-14T06:32:52Z</time>
      </trkpt>
      <trkpt lat="38.4024930" lon="-0.7294070">
        <ele>262.0</ele>
        <time>2018-10-14T06:32:53Z</time>
      </trkpt>
      <trkpt lat="38.4024920" lon="-0.7293120">
        <ele>262.0</ele>
        <time>2018-10-14T06:32:54Z</time>
      </trkpt>
      <trkpt lat="38.4024920" lon="-0.7293120">
        <ele>262.0</ele>
        <time>2018-10-14T06:32:55Z</time>
      </trkpt>
      <trkpt lat="38.4024930" lon="-0.7292170">
        <ele>262.0</ele>
        <time>2018-10-14T06:32:56Z</time>
      </trkpt>
      <trkpt lat="38.4024930" lon="-0.7292170">
        <ele>263.0</ele>
        <time>2018-10-14T06:32:57Z</time>
      </trkpt>
      <trkpt lat="38.4024900" lon="-0.7291180">
        <ele>263.0</ele>
        <time>2018-10-14T06:32:58Z</time>
      </trkpt>
      <trkpt lat="38.4024900" lon="-0.7291180">
        <ele>263.0</ele>
        <time>2018-10-14T06:32:59Z</time>
      </trkpt>
      <trkpt lat="38.4024920" lon="-0.7290170">
        <ele>263.0</ele>
        <time>2018-10-14T06:33:00Z</time>
      </trkpt>
      <trkpt lat="38.4024920" lon="-0.7290170">
        <ele>263.0</ele>
        <time>2018-10-14T06:33:01Z</time>
      </trkpt>
      <trkpt lat="38.4024970" lon="-0.7289150">
        <ele>263.0</ele>
        <time>2018-10-14T06:33:02Z</time>
      </trkpt>
      <trkpt lat="38.4024970" lon="-0.7289150">
        <ele>263.0</ele>
        <time>2018-10-14T06:33:03Z</time>
      </trkpt>
      <trkpt lat="38.4025030" lon="-0.7288130">
        <ele>263.0</ele>
        <time>2018-10-14T06:33:04Z</time>
      </trkpt>
      <trkpt lat="38.4025030" lon="-0.7288130">
        <ele>263.0</ele>
        <time>2018-10-14T06:33:05Z</time>
      </trkpt>
      <trkpt lat="38.4025100" lon="-0.7287100">
        <ele>263.0</ele>
        <time>2018-10-14T06:33:06Z</time>
      </trkpt>
      <trkpt lat="38.4025100" lon="-0.7287100">
        <ele>263.0</ele>
        <time>2018-10-14T06:33:07Z</time>
      </trkpt>
      <trkpt lat="38.4025170" lon="-0.7286050">
        <ele>263.0</ele>
        <time>2018-10-14T06:33:08Z</time>
      </trkpt>
      <trkpt lat="38.4025170" lon="-0.7286050">
        <ele>263.0</ele>
        <time>2018-10-14T06:33:09Z</time>
      </trkpt>
      <trkpt lat="38.4025220" lon="-0.7284980">
        <ele>263.0</ele>
        <time>2018-10-14T06:33:10Z</time>
      </trkpt>
      <trkpt lat="38.4025220" lon="-0.7284980">
        <ele>263.0</ele>
        <time>2018-10-14T06:33:11Z</time>
      </trkpt>
      <trkpt lat="38.4025270" lon="-0.7283900">
        <ele>263.0</ele>
        <time>2018-10-14T06:33:12Z</time>
      </trkpt>
      <trkpt lat="38.4025270" lon="-0.7283900">
        <ele>263.0</ele>
        <time>2018-10-14T06:33:13Z</time>
      </trkpt>
      <trkpt lat="38.4025300" lon="-0.7282770">
        <ele>263.0</ele>
        <time>2018-10-14T06:33:14Z</time>
      </trkpt>
      <trkpt lat="38.4025300" lon="-0.7282770">
        <ele>263.0</ele>
        <time>2018-10-14T06:33:15Z</time>
      </trkpt>
      <trkpt lat="38.4025350" lon="-0.7281680">
        <ele>263.0</ele>
        <time>2018-10-14T06:33:16Z</time>
      </trkpt>
      <trkpt lat="38.4025370" lon="-0.7281130">
        <ele>263.0</ele>
        <time>2018-10-14T06:33:17Z</time>
      </trkpt>
      <trkpt lat="38.4025380" lon="-0.7280570">
        <ele>263.0</ele>
        <time>2018-10-14T06:33:18Z</time>
      </trkpt>
      <trkpt lat="38.4025380" lon="-0.7280570">
        <ele>263.0</ele>
        <time>2018-10-14T06:33:19Z</time>
      </trkpt>
      <trkpt lat="38.4025430" lon="-0.7279420">
        <ele>263.0</ele>
        <time>2018-10-14T06:33:20Z</time>
      </trkpt>
      <trkpt lat="38.4025430" lon="-0.7279420">
        <ele>263.0</ele>
        <time>2018-10-14T06:33:21Z</time>
      </trkpt>
      <trkpt lat="38.4025470" lon="-0.7278300">
        <ele>263.0</ele>
        <time>2018-10-14T06:33:22Z</time>
      </trkpt>
      <trkpt lat="38.4025480" lon="-0.7277730">
        <ele>263.0</ele>
        <time>2018-10-14T06:33:23Z</time>
      </trkpt>
      <trkpt lat="38.4025530" lon="-0.7277170">
        <ele>263.0</ele>
        <time>2018-10-14T06:33:24Z</time>
      </trkpt>
      <trkpt lat="38.4025530" lon="-0.7277170">
        <ele>263.0</ele>
        <time>2018-10-14T06:33:25Z</time>
      </trkpt>
      <trkpt lat="38.4025650" lon="-0.7276020">
        <ele>263.0</ele>
        <time>2018-10-14T06:33:26Z</time>
      </trkpt>
      <trkpt lat="38.4025650" lon="-0.7276020">
        <ele>263.0</ele>
        <time>2018-10-14T06:33:27Z</time>
      </trkpt>
      <trkpt lat="38.4025770" lon="-0.7274870">
        <ele>263.0</ele>
        <time>2018-10-14T06:33:28Z</time>
      </trkpt>
      <trkpt lat="38.4025770" lon="-0.7274870">
        <ele>263.0</ele>
        <time>2018-10-14T06:33:29Z</time>
      </trkpt>
      <trkpt lat="38.4025930" lon="-0.7273770">
        <ele>263.0</ele>
        <time>2018-10-14T06:33:30Z</time>
      </trkpt>
      <trkpt lat="38.4025930" lon="-0.7273770">
        <ele>263.0</ele>
        <time>2018-10-14T06:33:31Z</time>
      </trkpt>
      <trkpt lat="38.4026080" lon="-0.7272750">
        <ele>263.0</ele>
        <time>2018-10-14T06:33:32Z</time>
      </trkpt>
      <trkpt lat="38.4026080" lon="-0.7272750">
        <ele>263.0</ele>
        <time>2018-10-14T06:33:33Z</time>
      </trkpt>
      <trkpt lat="38.4026150" lon="-0.7271730">
        <ele>263.0</ele>
        <time>2018-10-14T06:33:34Z</time>
      </trkpt>
      <trkpt lat="38.4026150" lon="-0.7271730">
        <ele>263.0</ele>
        <time>2018-10-14T06:33:35Z</time>
      </trkpt>
      <trkpt lat="38.4026200" lon="-0.7270670">
        <ele>263.0</ele>
        <time>2018-10-14T06:33:36Z</time>
      </trkpt>
      <trkpt lat="38.4026200" lon="-0.7270670">
        <ele>263.0</ele>
        <time>2018-10-14T06:33:37Z</time>
      </trkpt>
      <trkpt lat="38.4026270" lon="-0.7269600">
        <ele>263.0</ele>
        <time>2018-10-14T06:33:38Z</time>
      </trkpt>
      <trkpt lat="38.4026270" lon="-0.7269600">
        <ele>263.0</ele>
        <time>2018-10-14T06:33:39Z</time>
      </trkpt>
      <trkpt lat="38.4026380" lon="-0.7268520">
        <ele>263.0</ele>
        <time>2018-10-14T06:33:40Z</time>
      </trkpt>
      <trkpt lat="38.4026380" lon="-0.7268520">
        <ele>263.0</ele>
        <time>2018-10-14T06:33:41Z</time>
      </trkpt>
      <trkpt lat="38.4026480" lon="-0.7267370">
        <ele>263.0</ele>
        <time>2018-10-14T06:33:42Z</time>
      </trkpt>
      <trkpt lat="38.4026480" lon="-0.7267370">
        <ele>263.0</ele>
        <time>2018-10-14T06:33:43Z</time>
      </trkpt>
      <trkpt lat="38.4026570" lon="-0.7266220">
        <ele>263.0</ele>
        <time>2018-10-14T06:33:44Z</time>
      </trkpt>
      <trkpt lat="38.4026570" lon="-0.7266220">
        <ele>263.0</ele>
        <time>2018-10-14T06:33:45Z</time>
      </trkpt>
      <trkpt lat="38.4026650" lon="-0.7265080">
        <ele>263.0</ele>
        <time>2018-10-14T06:33:46Z</time>
      </trkpt>
      <trkpt lat="38.4026700" lon="-0.7264530">
        <ele>263.0</ele>
        <time>2018-10-14T06:33:47Z</time>
      </trkpt>
      <trkpt lat="38.4026750" lon="-0.7263970">
        <ele>263.0</ele>
        <time>2018-10-14T06:33:48Z</time>
      </trkpt>
      <trkpt lat="38.4026750" lon="-0.7263970">
        <ele>263.0</ele>
        <time>2018-10-14T06:33:49Z</time>
      </trkpt>
      <trkpt lat="38.4026800" lon="-0.7262770">
        <ele>263.0</ele>
        <time>2018-10-14T06:33:50Z</time>
      </trkpt>
      <trkpt lat="38.4026800" lon="-0.7262770">
        <ele>263.0</ele>
        <time>2018-10-14T06:33:51Z</time>
      </trkpt>
      <trkpt lat="38.4026830" lon="-0.7261530">
        <ele>263.0</ele>
        <time>2018-10-14T06:33:52Z</time>
      </trkpt>
      <trkpt lat="38.4026830" lon="-0.7261530">
        <ele>263.0</ele>
        <time>2018-10-14T06:33:53Z</time>
      </trkpt>
      <trkpt lat="38.4026870" lon="-0.7260300">
        <ele>263.0</ele>
        <time>2018-10-14T06:33:54Z</time>
      </trkpt>
      <trkpt lat="38.4026870" lon="-0.7260300">
        <ele>263.0</ele>
        <time>2018-10-14T06:33:55Z</time>
      </trkpt>
      <trkpt lat="38.4026920" lon="-0.7259050">
        <ele>263.0</ele>
        <time>2018-10-14T06:33:56Z</time>
      </trkpt>
      <trkpt lat="38.4026950" lon="-0.7258430">
        <ele>263.0</ele>
        <time>2018-10-14T06:33:57Z</time>
      </trkpt>
      <trkpt lat="38.4027000" lon="-0.7257850">
        <ele>263.0</ele>
        <time>2018-10-14T06:33:58Z</time>
      </trkpt>
      <trkpt lat="38.4027000" lon="-0.7257850">
        <ele>263.0</ele>
        <time>2018-10-14T06:33:59Z</time>
      </trkpt>
      <trkpt lat="38.4027070" lon="-0.7256780">
        <ele>263.0</ele>
        <time>2018-10-14T06:34:00Z</time>
      </trkpt>
      <trkpt lat="38.4027080" lon="-0.7256270">
        <ele>263.0</ele>
        <time>2018-10-14T06:34:01Z</time>
      </trkpt>
      <trkpt lat="38.4027120" lon="-0.7255730">
        <ele>263.0</ele>
        <time>2018-10-14T06:34:02Z</time>
      </trkpt>
      <trkpt lat="38.4027120" lon="-0.7255730">
        <ele>263.0</ele>
        <time>2018-10-14T06:34:03Z</time>
      </trkpt>
      <trkpt lat="38.4027180" lon="-0.7254620">
        <ele>263.0</ele>
        <time>2018-10-14T06:34:04Z</time>
      </trkpt>
      <trkpt lat="38.4027180" lon="-0.7254620">
        <ele>263.0</ele>
        <time>2018-10-14T06:34:05Z</time>
      </trkpt>
      <trkpt lat="38.4027250" lon="-0.7253380">
        <ele>263.0</ele>
        <time>2018-10-14T06:34:06Z</time>
      </trkpt>
      <trkpt lat="38.4027250" lon="-0.7253380">
        <ele>263.0</ele>
        <time>2018-10-14T06:34:07Z</time>
      </trkpt>
      <trkpt lat="38.4027320" lon="-0.7252150">
        <ele>263.0</ele>
        <time>2018-10-14T06:34:08Z</time>
      </trkpt>
      <trkpt lat="38.4027320" lon="-0.7252150">
        <ele>263.0</ele>
        <time>2018-10-14T06:34:09Z</time>
      </trkpt>
      <trkpt lat="38.4027370" lon="-0.7250930">
        <ele>263.0</ele>
        <time>2018-10-14T06:34:10Z</time>
      </trkpt>
      <trkpt lat="38.4027370" lon="-0.7250930">
        <ele>263.0</ele>
        <time>2018-10-14T06:34:11Z</time>
      </trkpt>
      <trkpt lat="38.4027450" lon="-0.7249720">
        <ele>263.0</ele>
        <time>2018-10-14T06:34:12Z</time>
      </trkpt>
      <trkpt lat="38.4027450" lon="-0.7249720">
        <ele>263.0</ele>
        <time>2018-10-14T06:34:13Z</time>
      </trkpt>
      <trkpt lat="38.4027520" lon="-0.7248520">
        <ele>263.0</ele>
        <time>2018-10-14T06:34:14Z</time>
      </trkpt>
      <trkpt lat="38.4027520" lon="-0.7248520">
        <ele>263.0</ele>
        <time>2018-10-14T06:34:15Z</time>
      </trkpt>
      <trkpt lat="38.4027620" lon="-0.7247320">
        <ele>263.0</ele>
        <time>2018-10-14T06:34:16Z</time>
      </trkpt>
      <trkpt lat="38.4027680" lon="-0.7246730">
        <ele>263.0</ele>
        <time>2018-10-14T06:34:17Z</time>
      </trkpt>
      <trkpt lat="38.4027680" lon="-0.7246730">
        <ele>263.0</ele>
        <time>2018-10-14T06:34:18Z</time>
      </trkpt>
      <trkpt lat="38.4027820" lon="-0.7245530">
        <ele>263.0</ele>
        <time>2018-10-14T06:34:19Z</time>
      </trkpt>
      <trkpt lat="38.4027870" lon="-0.7244950">
        <ele>263.0</ele>
        <time>2018-10-14T06:34:20Z</time>
      </trkpt>
      <trkpt lat="38.4027870" lon="-0.7244950">
        <ele>263.0</ele>
        <time>2018-10-14T06:34:21Z</time>
      </trkpt>
      <trkpt lat="38.4027980" lon="-0.7243750">
        <ele>263.0</ele>
        <time>2018-10-14T06:34:22Z</time>
      </trkpt>
      <trkpt lat="38.4027980" lon="-0.7243750">
        <ele>263.0</ele>
        <time>2018-10-14T06:34:23Z</time>
      </trkpt>
      <trkpt lat="38.4028100" lon="-0.7242580">
        <ele>263.0</ele>
        <time>2018-10-14T06:34:24Z</time>
      </trkpt>
      <trkpt lat="38.4028100" lon="-0.7242580">
        <ele>263.0</ele>
        <time>2018-10-14T06:34:25Z</time>
      </trkpt>
      <trkpt lat="38.4028180" lon="-0.7241450">
        <ele>263.0</ele>
        <time>2018-10-14T06:34:26Z</time>
      </trkpt>
      <trkpt lat="38.4028180" lon="-0.7241450">
        <ele>263.0</ele>
        <time>2018-10-14T06:34:27Z</time>
      </trkpt>
      <trkpt lat="38.4028270" lon="-0.7240300">
        <ele>263.0</ele>
        <time>2018-10-14T06:34:28Z</time>
      </trkpt>
      <trkpt lat="38.4028270" lon="-0.7240300">
        <ele>263.0</ele>
        <time>2018-10-14T06:34:29Z</time>
      </trkpt>
      <trkpt lat="38.4028350" lon="-0.7239120">
        <ele>263.0</ele>
        <time>2018-10-14T06:34:30Z</time>
      </trkpt>
      <trkpt lat="38.4028350" lon="-0.7239120">
        <ele>263.0</ele>
        <time>2018-10-14T06:34:31Z</time>
      </trkpt>
      <trkpt lat="38.4028480" lon="-0.7237970">
        <ele>264.0</ele>
        <time>2018-10-14T06:34:32Z</time>
      </trkpt>
      <trkpt lat="38.4028480" lon="-0.7237970">
        <ele>264.0</ele>
        <time>2018-10-14T06:34:33Z</time>
      </trkpt>
      <trkpt lat="38.4028630" lon="-0.7236800">
        <ele>264.0</ele>
        <time>2018-10-14T06:34:34Z</time>
      </trkpt>
      <trkpt lat="38.4028720" lon="-0.7236230">
        <ele>264.0</ele>
        <time>2018-10-14T06:34:35Z</time>
      </trkpt>
      <trkpt lat="38.4028720" lon="-0.7236230">
        <ele>264.0</ele>
        <time>2018-10-14T06:34:36Z</time>
      </trkpt>
      <trkpt lat="38.4028870" lon="-0.7235070">
        <ele>264.0</ele>
        <time>2018-10-14T06:34:37Z</time>
      </trkpt>
      <trkpt lat="38.4028950" lon="-0.7234500">
        <ele>264.0</ele>
        <time>2018-10-14T06:34:38Z</time>
      </trkpt>
      <trkpt lat="38.4028950" lon="-0.7234500">
        <ele>264.0</ele>
        <time>2018-10-14T06:34:39Z</time>
      </trkpt>
      <trkpt lat="38.4029100" lon="-0.7233270">
        <ele>264.0</ele>
        <time>2018-10-14T06:34:40Z</time>
      </trkpt>
      <trkpt lat="38.4029100" lon="-0.7233270">
        <ele>264.0</ele>
        <time>2018-10-14T06:34:41Z</time>
      </trkpt>
      <trkpt lat="38.4029280" lon="-0.7232130">
        <ele>265.0</ele>
        <time>2018-10-14T06:34:42Z</time>
      </trkpt>
      <trkpt lat="38.4029280" lon="-0.7232130">
        <ele>265.0</ele>
        <time>2018-10-14T06:34:43Z</time>
      </trkpt>
      <trkpt lat="38.4029530" lon="-0.7231020">
        <ele>265.0</ele>
        <time>2018-10-14T06:34:44Z</time>
      </trkpt>
      <trkpt lat="38.4029530" lon="-0.7231020">
        <ele>265.0</ele>
        <time>2018-10-14T06:34:45Z</time>
      </trkpt>
      <trkpt lat="38.4029770" lon="-0.7229880">
        <ele>265.0</ele>
        <time>2018-10-14T06:34:46Z</time>
      </trkpt>
      <trkpt lat="38.4029830" lon="-0.7229280">
        <ele>265.0</ele>
        <time>2018-10-14T06:34:47Z</time>
      </trkpt>
      <trkpt lat="38.4029900" lon="-0.7228720">
        <ele>265.0</ele>
        <time>2018-10-14T06:34:48Z</time>
      </trkpt>
      <trkpt lat="38.4029970" lon="-0.7228130">
        <ele>265.0</ele>
        <time>2018-10-14T06:34:49Z</time>
      </trkpt>
      <trkpt lat="38.4029970" lon="-0.7228130">
        <ele>265.0</ele>
        <time>2018-10-14T06:34:50Z</time>
      </trkpt>
      <trkpt lat="38.4030100" lon="-0.7226880">
        <ele>265.0</ele>
        <time>2018-10-14T06:34:51Z</time>
      </trkpt>
      <trkpt lat="38.4030100" lon="-0.7226880">
        <ele>265.0</ele>
        <time>2018-10-14T06:34:52Z</time>
      </trkpt>
      <trkpt lat="38.4030200" lon="-0.7225630">
        <ele>265.0</ele>
        <time>2018-10-14T06:34:53Z</time>
      </trkpt>
      <trkpt lat="38.4030250" lon="-0.7224980">
        <ele>265.0</ele>
        <time>2018-10-14T06:34:54Z</time>
      </trkpt>
      <trkpt lat="38.4030250" lon="-0.7224980">
        <ele>265.0</ele>
        <time>2018-10-14T06:34:55Z</time>
      </trkpt>
      <trkpt lat="38.4030350" lon="-0.7223770">
        <ele>265.0</ele>
        <time>2018-10-14T06:34:56Z</time>
      </trkpt>
      <trkpt lat="38.4030350" lon="-0.7223770">
        <ele>265.0</ele>
        <time>2018-10-14T06:34:57Z</time>
      </trkpt>
      <trkpt lat="38.4030470" lon="-0.7222570">
        <ele>265.0</ele>
        <time>2018-10-14T06:34:58Z</time>
      </trkpt>
      <trkpt lat="38.4030470" lon="-0.7222570">
        <ele>265.0</ele>
        <time>2018-10-14T06:34:59Z</time>
      </trkpt>
      <trkpt lat="38.4030580" lon="-0.7221350">
        <ele>265.0</ele>
        <time>2018-10-14T06:35:00Z</time>
      </trkpt>
      <trkpt lat="38.4030580" lon="-0.7221350">
        <ele>265.0</ele>
        <time>2018-10-14T06:35:01Z</time>
      </trkpt>
      <trkpt lat="38.4030720" lon="-0.7220120">
        <ele>265.0</ele>
        <time>2018-10-14T06:35:02Z</time>
      </trkpt>
      <trkpt lat="38.4030720" lon="-0.7220120">
        <ele>265.0</ele>
        <time>2018-10-14T06:35:03Z</time>
      </trkpt>
      <trkpt lat="38.4030820" lon="-0.7218830">
        <ele>265.0</ele>
        <time>2018-10-14T06:35:04Z</time>
      </trkpt>
      <trkpt lat="38.4030820" lon="-0.7218830">
        <ele>264.0</ele>
        <time>2018-10-14T06:35:05Z</time>
      </trkpt>
      <trkpt lat="38.4030930" lon="-0.7217550">
        <ele>264.0</ele>
        <time>2018-10-14T06:35:06Z</time>
      </trkpt>
      <trkpt lat="38.4030930" lon="-0.7217550">
        <ele>264.0</ele>
        <time>2018-10-14T06:35:07Z</time>
      </trkpt>
      <trkpt lat="38.4031070" lon="-0.7216280">
        <ele>264.0</ele>
        <time>2018-10-14T06:35:08Z</time>
      </trkpt>
      <trkpt lat="38.4031070" lon="-0.7216280">
        <ele>264.0</ele>
        <time>2018-10-14T06:35:09Z</time>
      </trkpt>
      <trkpt lat="38.4031200" lon="-0.7215020">
        <ele>264.0</ele>
        <time>2018-10-14T06:35:10Z</time>
      </trkpt>
      <trkpt lat="38.4031200" lon="-0.7215020">
        <ele>264.0</ele>
        <time>2018-10-14T06:35:11Z</time>
      </trkpt>
      <trkpt lat="38.4031330" lon="-0.7213780">
        <ele>264.0</ele>
        <time>2018-10-14T06:35:12Z</time>
      </trkpt>
      <trkpt lat="38.4031330" lon="-0.7213780">
        <ele>263.0</ele>
        <time>2018-10-14T06:35:13Z</time>
      </trkpt>
      <trkpt lat="38.4031450" lon="-0.7212550">
        <ele>263.0</ele>
        <time>2018-10-14T06:35:14Z</time>
      </trkpt>
      <trkpt lat="38.4031450" lon="-0.7212550">
        <ele>263.0</ele>
        <time>2018-10-14T06:35:15Z</time>
      </trkpt>
      <trkpt lat="38.4031580" lon="-0.7211420">
        <ele>263.0</ele>
        <time>2018-10-14T06:35:16Z</time>
      </trkpt>
      <trkpt lat="38.4031620" lon="-0.7211100">
        <ele>263.0</ele>
        <time>2018-10-14T06:35:17Z</time>
      </trkpt>
      <trkpt lat="38.4031620" lon="-0.7211100">
        <ele>263.0</ele>
        <time>2018-10-14T06:35:18Z</time>
      </trkpt>
      <trkpt lat="38.4031680" lon="-0.7210730">
        <ele>263.0</ele>
        <time>2018-10-14T06:35:19Z</time>
      </trkpt>
      <trkpt lat="38.4031730" lon="-0.7210550">
        <ele>263.0</ele>
        <time>2018-10-14T06:35:20Z</time>
      </trkpt>
      <trkpt lat="38.4031730" lon="-0.7210550">
        <ele>263.0</ele>
        <time>2018-10-14T06:35:21Z</time>
      </trkpt>
      <trkpt lat="38.4031820" lon="-0.7210130">
        <ele>263.0</ele>
        <time>2018-10-14T06:35:22Z</time>
      </trkpt>
      <trkpt lat="38.4031820" lon="-0.7210130">
        <ele>263.0</ele>
        <time>2018-10-14T06:35:23Z</time>
      </trkpt>
      <trkpt lat="38.4031870" lon="-0.7209880">
        <ele>263.0</ele>
        <time>2018-10-14T06:35:24Z</time>
      </trkpt>
      <trkpt lat="38.4031870" lon="-0.7209880">
        <ele>263.0</ele>
        <time>2018-10-14T06:35:25Z</time>
      </trkpt>
      <trkpt lat="38.4031870" lon="-0.7209570">
        <ele>263.0</ele>
        <time>2018-10-14T06:35:26Z</time>
      </trkpt>
      <trkpt lat="38.4031870" lon="-0.7209570">
        <ele>263.0</ele>
        <time>2018-10-14T06:35:27Z</time>
      </trkpt>
      <trkpt lat="38.4031900" lon="-0.7209130">
        <ele>263.0</ele>
        <time>2018-10-14T06:35:28Z</time>
      </trkpt>
      <trkpt lat="38.4031900" lon="-0.7209130">
        <ele>263.0</ele>
        <time>2018-10-14T06:35:29Z</time>
      </trkpt>
      <trkpt lat="38.4032020" lon="-0.7208580">
        <ele>263.0</ele>
        <time>2018-10-14T06:35:30Z</time>
      </trkpt>
      <trkpt lat="38.4032020" lon="-0.7208580">
        <ele>263.0</ele>
        <time>2018-10-14T06:35:31Z</time>
      </trkpt>
      <trkpt lat="38.4032120" lon="-0.7207900">
        <ele>263.0</ele>
        <time>2018-10-14T06:35:32Z</time>
      </trkpt>
      <trkpt lat="38.4032170" lon="-0.7207500">
        <ele>263.0</ele>
        <time>2018-10-14T06:35:33Z</time>
      </trkpt>
      <trkpt lat="38.4032170" lon="-0.7207500">
        <ele>263.0</ele>
        <time>2018-10-14T06:35:34Z</time>
      </trkpt>
      <trkpt lat="38.4032280" lon="-0.7206650">
        <ele>263.0</ele>
        <time>2018-10-14T06:35:35Z</time>
      </trkpt>
      <trkpt lat="38.4032350" lon="-0.7206220">
        <ele>263.0</ele>
        <time>2018-10-14T06:35:36Z</time>
      </trkpt>
      <trkpt lat="38.4032350" lon="-0.7206220">
        <ele>263.0</ele>
        <time>2018-10-14T06:35:37Z</time>
      </trkpt>
      <trkpt lat="38.4032470" lon="-0.7205250">
        <ele>263.0</ele>
        <time>2018-10-14T06:35:38Z</time>
      </trkpt>
      <trkpt lat="38.4032470" lon="-0.7205250">
        <ele>263.0</ele>
        <time>2018-10-14T06:35:39Z</time>
      </trkpt>
      <trkpt lat="38.4032600" lon="-0.7204230">
        <ele>263.0</ele>
        <time>2018-10-14T06:35:40Z</time>
      </trkpt>
      <trkpt lat="38.4032600" lon="-0.7204230">
        <ele>263.0</ele>
        <time>2018-10-14T06:35:41Z</time>
      </trkpt>
      <trkpt lat="38.4032750" lon="-0.7203180">
        <ele>263.0</ele>
        <time>2018-10-14T06:35:42Z</time>
      </trkpt>
      <trkpt lat="38.4032820" lon="-0.7202630">
        <ele>263.0</ele>
        <time>2018-10-14T06:35:43Z</time>
      </trkpt>
      <trkpt lat="38.4032900" lon="-0.7202100">
        <ele>263.0</ele>
        <time>2018-10-14T06:35:44Z</time>
      </trkpt>
      <trkpt lat="38.4032900" lon="-0.7202100">
        <ele>262.0</ele>
        <time>2018-10-14T06:35:45Z</time>
      </trkpt>
      <trkpt lat="38.4033070" lon="-0.7200970">
        <ele>262.0</ele>
        <time>2018-10-14T06:35:46Z</time>
      </trkpt>
      <trkpt lat="38.4033070" lon="-0.7200970">
        <ele>262.0</ele>
        <time>2018-10-14T06:35:47Z</time>
      </trkpt>
      <trkpt lat="38.4033220" lon="-0.7199850">
        <ele>262.0</ele>
        <time>2018-10-14T06:35:48Z</time>
      </trkpt>
      <trkpt lat="38.4033220" lon="-0.7199850">
        <ele>262.0</ele>
        <time>2018-10-14T06:35:49Z</time>
      </trkpt>
      <trkpt lat="38.4033370" lon="-0.7198750">
        <ele>262.0</ele>
        <time>2018-10-14T06:35:50Z</time>
      </trkpt>
      <trkpt lat="38.4033370" lon="-0.7198750">
        <ele>262.0</ele>
        <time>2018-10-14T06:35:51Z</time>
      </trkpt>
      <trkpt lat="38.4033530" lon="-0.7197550">
        <ele>262.0</ele>
        <time>2018-10-14T06:35:52Z</time>
      </trkpt>
      <trkpt lat="38.4033530" lon="-0.7197550">
        <ele>262.0</ele>
        <time>2018-10-14T06:35:53Z</time>
      </trkpt>
      <trkpt lat="38.4033700" lon="-0.7196380">
        <ele>262.0</ele>
        <time>2018-10-14T06:35:54Z</time>
      </trkpt>
      <trkpt lat="38.4033700" lon="-0.7196380">
        <ele>262.0</ele>
        <time>2018-10-14T06:35:55Z</time>
      </trkpt>
      <trkpt lat="38.4033870" lon="-0.7195200">
        <ele>262.0</ele>
        <time>2018-10-14T06:35:56Z</time>
      </trkpt>
      <trkpt lat="38.4033870" lon="-0.7195200">
        <ele>262.0</ele>
        <time>2018-10-14T06:35:57Z</time>
      </trkpt>
      <trkpt lat="38.4034030" lon="-0.7193970">
        <ele>262.0</ele>
        <time>2018-10-14T06:35:58Z</time>
      </trkpt>
      <trkpt lat="38.4034030" lon="-0.7193970">
        <ele>262.0</ele>
        <time>2018-10-14T06:35:59Z</time>
      </trkpt>
      <trkpt lat="38.4034200" lon="-0.7192720">
        <ele>262.0</ele>
        <time>2018-10-14T06:36:00Z</time>
      </trkpt>
      <trkpt lat="38.4034200" lon="-0.7192720">
        <ele>262.0</ele>
        <time>2018-10-14T06:36:01Z</time>
      </trkpt>
      <trkpt lat="38.4034330" lon="-0.7191450">
        <ele>262.0</ele>
        <time>2018-10-14T06:36:02Z</time>
      </trkpt>
      <trkpt lat="38.4034330" lon="-0.7191450">
        <ele>262.0</ele>
        <time>2018-10-14T06:36:03Z</time>
      </trkpt>
      <trkpt lat="38.4034480" lon="-0.7190180">
        <ele>261.0</ele>
        <time>2018-10-14T06:36:04Z</time>
      </trkpt>
      <trkpt lat="38.4034480" lon="-0.7190180">
        <ele>261.0</ele>
        <time>2018-10-14T06:36:05Z</time>
      </trkpt>
      <trkpt lat="38.4034650" lon="-0.7188900">
        <ele>261.0</ele>
        <time>2018-10-14T06:36:06Z</time>
      </trkpt>
      <trkpt lat="38.4034650" lon="-0.7188900">
        <ele>261.0</ele>
        <time>2018-10-14T06:36:07Z</time>
      </trkpt>
      <trkpt lat="38.4034800" lon="-0.7187600">
        <ele>261.0</ele>
        <time>2018-10-14T06:36:08Z</time>
      </trkpt>
      <trkpt lat="38.4034800" lon="-0.7187600">
        <ele>261.0</ele>
        <time>2018-10-14T06:36:09Z</time>
      </trkpt>
      <trkpt lat="38.4034970" lon="-0.7186270">
        <ele>261.0</ele>
        <time>2018-10-14T06:36:10Z</time>
      </trkpt>
      <trkpt lat="38.4034970" lon="-0.7186270">
        <ele>261.0</ele>
        <time>2018-10-14T06:36:11Z</time>
      </trkpt>
      <trkpt lat="38.4035130" lon="-0.7184900">
        <ele>260.0</ele>
        <time>2018-10-14T06:36:12Z</time>
      </trkpt>
      <trkpt lat="38.4035130" lon="-0.7184900">
        <ele>260.0</ele>
        <time>2018-10-14T06:36:13Z</time>
      </trkpt>
      <trkpt lat="38.4035320" lon="-0.7183570">
        <ele>260.0</ele>
        <time>2018-10-14T06:36:14Z</time>
      </trkpt>
      <trkpt lat="38.4035320" lon="-0.7183570">
        <ele>260.0</ele>
        <time>2018-10-14T06:36:15Z</time>
      </trkpt>
      <trkpt lat="38.4035500" lon="-0.7182250">
        <ele>260.0</ele>
        <time>2018-10-14T06:36:16Z</time>
      </trkpt>
      <trkpt lat="38.4035500" lon="-0.7182250">
        <ele>260.0</ele>
        <time>2018-10-14T06:36:17Z</time>
      </trkpt>
      <trkpt lat="38.4035700" lon="-0.7180950">
        <ele>260.0</ele>
        <time>2018-10-14T06:36:18Z</time>
      </trkpt>
      <trkpt lat="38.4035700" lon="-0.7180950">
        <ele>260.0</ele>
        <time>2018-10-14T06:36:19Z</time>
      </trkpt>
      <trkpt lat="38.4035900" lon="-0.7179670">
        <ele>260.0</ele>
        <time>2018-10-14T06:36:20Z</time>
      </trkpt>
      <trkpt lat="38.4035900" lon="-0.7179670">
        <ele>260.0</ele>
        <time>2018-10-14T06:36:21Z</time>
      </trkpt>
      <trkpt lat="38.4036100" lon="-0.7178400">
        <ele>260.0</ele>
        <time>2018-10-14T06:36:22Z</time>
      </trkpt>
      <trkpt lat="38.4036100" lon="-0.7178400">
        <ele>260.0</ele>
        <time>2018-10-14T06:36:23Z</time>
      </trkpt>
      <trkpt lat="38.4036280" lon="-0.7177170">
        <ele>260.0</ele>
        <time>2018-10-14T06:36:24Z</time>
      </trkpt>
      <trkpt lat="38.4036280" lon="-0.7177170">
        <ele>260.0</ele>
        <time>2018-10-14T06:36:25Z</time>
      </trkpt>
      <trkpt lat="38.4036480" lon="-0.7175970">
        <ele>260.0</ele>
        <time>2018-10-14T06:36:26Z</time>
      </trkpt>
      <trkpt lat="38.4036480" lon="-0.7175970">
        <ele>260.0</ele>
        <time>2018-10-14T06:36:27Z</time>
      </trkpt>
      <trkpt lat="38.4036680" lon="-0.7174730">
        <ele>260.0</ele>
        <time>2018-10-14T06:36:28Z</time>
      </trkpt>
      <trkpt lat="38.4036680" lon="-0.7174730">
        <ele>260.0</ele>
        <time>2018-10-14T06:36:29Z</time>
      </trkpt>
      <trkpt lat="38.4036870" lon="-0.7173530">
        <ele>260.0</ele>
        <time>2018-10-14T06:36:30Z</time>
      </trkpt>
      <trkpt lat="38.4036870" lon="-0.7173530">
        <ele>260.0</ele>
        <time>2018-10-14T06:36:31Z</time>
      </trkpt>
      <trkpt lat="38.4037070" lon="-0.7172320">
        <ele>260.0</ele>
        <time>2018-10-14T06:36:32Z</time>
      </trkpt>
      <trkpt lat="38.4037070" lon="-0.7172320">
        <ele>260.0</ele>
        <time>2018-10-14T06:36:33Z</time>
      </trkpt>
      <trkpt lat="38.4037270" lon="-0.7171080">
        <ele>260.0</ele>
        <time>2018-10-14T06:36:34Z</time>
      </trkpt>
      <trkpt lat="38.4037270" lon="-0.7171080">
        <ele>260.0</ele>
        <time>2018-10-14T06:36:35Z</time>
      </trkpt>
      <trkpt lat="38.4037470" lon="-0.7169830">
        <ele>260.0</ele>
        <time>2018-10-14T06:36:36Z</time>
      </trkpt>
      <trkpt lat="38.4037570" lon="-0.7169220">
        <ele>260.0</ele>
        <time>2018-10-14T06:36:37Z</time>
      </trkpt>
      <trkpt lat="38.4037670" lon="-0.7168620">
        <ele>260.0</ele>
        <time>2018-10-14T06:36:38Z</time>
      </trkpt>
      <trkpt lat="38.4037670" lon="-0.7168620">
        <ele>260.0</ele>
        <time>2018-10-14T06:36:39Z</time>
      </trkpt>
      <trkpt lat="38.4037870" lon="-0.7167420">
        <ele>260.0</ele>
        <time>2018-10-14T06:36:40Z</time>
      </trkpt>
      <trkpt lat="38.4037870" lon="-0.7167420">
        <ele>260.0</ele>
        <time>2018-10-14T06:36:41Z</time>
      </trkpt>
      <trkpt lat="38.4038070" lon="-0.7166180">
        <ele>260.0</ele>
        <time>2018-10-14T06:36:42Z</time>
      </trkpt>
      <trkpt lat="38.4038070" lon="-0.7166180">
        <ele>260.0</ele>
        <time>2018-10-14T06:36:43Z</time>
      </trkpt>
      <trkpt lat="38.4038250" lon="-0.7164950">
        <ele>260.0</ele>
        <time>2018-10-14T06:36:44Z</time>
      </trkpt>
      <trkpt lat="38.4038250" lon="-0.7164950">
        <ele>260.0</ele>
        <time>2018-10-14T06:36:45Z</time>
      </trkpt>
      <trkpt lat="38.4038450" lon="-0.7163700">
        <ele>260.0</ele>
        <time>2018-10-14T06:36:46Z</time>
      </trkpt>
      <trkpt lat="38.4038530" lon="-0.7163080">
        <ele>260.0</ele>
        <time>2018-10-14T06:36:47Z</time>
      </trkpt>
      <trkpt lat="38.4038530" lon="-0.7163080">
        <ele>260.0</ele>
        <time>2018-10-14T06:36:48Z</time>
      </trkpt>
      <trkpt lat="38.4038720" lon="-0.7161850">
        <ele>260.0</ele>
        <time>2018-10-14T06:36:49Z</time>
      </trkpt>
      <trkpt lat="38.4038800" lon="-0.7161250">
        <ele>260.0</ele>
        <time>2018-10-14T06:36:50Z</time>
      </trkpt>
      <trkpt lat="38.4038800" lon="-0.7161250">
        <ele>260.0</ele>
        <time>2018-10-14T06:36:51Z</time>
      </trkpt>
      <trkpt lat="38.4038980" lon="-0.7160050">
        <ele>260.0</ele>
        <time>2018-10-14T06:36:52Z</time>
      </trkpt>
      <trkpt lat="38.4039080" lon="-0.7159450">
        <ele>260.0</ele>
        <time>2018-10-14T06:36:53Z</time>
      </trkpt>
      <trkpt lat="38.4039180" lon="-0.7158850">
        <ele>260.0</ele>
        <time>2018-10-14T06:36:54Z</time>
      </trkpt>
      <trkpt lat="38.4039180" lon="-0.7158850">
        <ele>260.0</ele>
        <time>2018-10-14T06:36:55Z</time>
      </trkpt>
      <trkpt lat="38.4039450" lon="-0.7157670">
        <ele>260.0</ele>
        <time>2018-10-14T06:36:56Z</time>
      </trkpt>
      <trkpt lat="38.4039450" lon="-0.7157670">
        <ele>260.0</ele>
        <time>2018-10-14T06:36:57Z</time>
      </trkpt>
      <trkpt lat="38.4039920" lon="-0.7156620">
        <ele>260.0</ele>
        <time>2018-10-14T06:36:58Z</time>
      </trkpt>
      <trkpt lat="38.4039920" lon="-0.7156620">
        <ele>260.0</ele>
        <time>2018-10-14T06:36:59Z</time>
      </trkpt>
      <trkpt lat="38.4040670" lon="-0.7156000">
        <ele>260.0</ele>
        <time>2018-10-14T06:37:00Z</time>
      </trkpt>
      <trkpt lat="38.4040670" lon="-0.7156000">
        <ele>260.0</ele>
        <time>2018-10-14T06:37:01Z</time>
      </trkpt>
      <trkpt lat="38.4041550" lon="-0.7155800">
        <ele>260.0</ele>
        <time>2018-10-14T06:37:02Z</time>
      </trkpt>
      <trkpt lat="38.4041550" lon="-0.7155800">
        <ele>260.0</ele>
        <time>2018-10-14T06:37:03Z</time>
      </trkpt>
      <trkpt lat="38.4042430" lon="-0.7155900">
        <ele>260.0</ele>
        <time>2018-10-14T06:37:04Z</time>
      </trkpt>
      <trkpt lat="38.4042430" lon="-0.7155900">
        <ele>260.0</ele>
        <time>2018-10-14T06:37:05Z</time>
      </trkpt>
      <trkpt lat="38.4043300" lon="-0.7156070">
        <ele>260.0</ele>
        <time>2018-10-14T06:37:06Z</time>
      </trkpt>
      <trkpt lat="38.4043300" lon="-0.7156070">
        <ele>260.0</ele>
        <time>2018-10-14T06:37:07Z</time>
      </trkpt>
      <trkpt lat="38.4044220" lon="-0.7156100">
        <ele>259.0</ele>
        <time>2018-10-14T06:37:08Z</time>
      </trkpt>
      <trkpt lat="38.4044220" lon="-0.7156100">
        <ele>259.0</ele>
        <time>2018-10-14T06:37:09Z</time>
      </trkpt>
      <trkpt lat="38.4045030" lon="-0.7155770">
        <ele>259.0</ele>
        <time>2018-10-14T06:37:10Z</time>
      </trkpt>
      <trkpt lat="38.4045380" lon="-0.7155430">
        <ele>259.0</ele>
        <time>2018-10-14T06:37:11Z</time>
      </trkpt>
      <trkpt lat="38.4045380" lon="-0.7155430">
        <ele>258.0</ele>
        <time>2018-10-14T06:37:12Z</time>
      </trkpt>
      <trkpt lat="38.4045820" lon="-0.7154630">
        <ele>258.0</ele>
        <time>2018-10-14T06:37:13Z</time>
      </trkpt>
      <trkpt lat="38.4045950" lon="-0.7154230">
        <ele>258.0</ele>
        <time>2018-10-14T06:37:14Z</time>
      </trkpt>
      <trkpt lat="38.4045950" lon="-0.7154230">
        <ele>258.0</ele>
        <time>2018-10-14T06:37:15Z</time>
      </trkpt>
      <trkpt lat="38.4046380" lon="-0.7153700">
        <ele>258.0</ele>
        <time>2018-10-14T06:37:16Z</time>
      </trkpt>
      <trkpt lat="38.4046380" lon="-0.7153700">
        <ele>258.0</ele>
        <time>2018-10-14T06:37:17Z</time>
      </trkpt>
      <trkpt lat="38.4047000" lon="-0.7153670">
        <ele>258.0</ele>
        <time>2018-10-14T06:37:18Z</time>
      </trkpt>
      <trkpt lat="38.4047000" lon="-0.7153670">
        <ele>258.0</ele>
        <time>2018-10-14T06:37:19Z</time>
      </trkpt>
      <trkpt lat="38.4047630" lon="-0.7153720">
        <ele>258.0</ele>
        <time>2018-10-14T06:37:20Z</time>
      </trkpt>
      <trkpt lat="38.4047630" lon="-0.7153720">
        <ele>258.0</ele>
        <time>2018-10-14T06:37:21Z</time>
      </trkpt>
      <trkpt lat="38.4048250" lon="-0.7153720">
        <ele>258.0</ele>
        <time>2018-10-14T06:37:22Z</time>
      </trkpt>
      <trkpt lat="38.4048250" lon="-0.7153720">
        <ele>258.0</ele>
        <time>2018-10-14T06:37:23Z</time>
      </trkpt>
      <trkpt lat="38.4048850" lon="-0.7153550">
        <ele>259.0</ele>
        <time>2018-10-14T06:37:24Z</time>
      </trkpt>
      <trkpt lat="38.4048850" lon="-0.7153550">
        <ele>259.0</ele>
        <time>2018-10-14T06:37:25Z</time>
      </trkpt>
      <trkpt lat="38.4049420" lon="-0.7153350">
        <ele>259.0</ele>
        <time>2018-10-14T06:37:26Z</time>
      </trkpt>
      <trkpt lat="38.4049420" lon="-0.7153350">
        <ele>259.0</ele>
        <time>2018-10-14T06:37:27Z</time>
      </trkpt>
      <trkpt lat="38.4049930" lon="-0.7153100">
        <ele>260.0</ele>
        <time>2018-10-14T06:37:28Z</time>
      </trkpt>
      <trkpt lat="38.4049930" lon="-0.7153100">
        <ele>260.0</ele>
        <time>2018-10-14T06:37:29Z</time>
      </trkpt>
      <trkpt lat="38.4050420" lon="-0.7152770">
        <ele>260.0</ele>
        <time>2018-10-14T06:37:30Z</time>
      </trkpt>
      <trkpt lat="38.4050420" lon="-0.7152770">
        <ele>260.0</ele>
        <time>2018-10-14T06:37:31Z</time>
      </trkpt>
      <trkpt lat="38.4050550" lon="-0.7152270">
        <ele>260.0</ele>
        <time>2018-10-14T06:37:32Z</time>
      </trkpt>
      <trkpt lat="38.4050550" lon="-0.7152270">
        <ele>261.0</ele>
        <time>2018-10-14T06:37:33Z</time>
      </trkpt>
      <trkpt lat="38.4050200" lon="-0.7151970">
        <ele>261.0</ele>
        <time>2018-10-14T06:37:34Z</time>
      </trkpt>
      <trkpt lat="38.4050200" lon="-0.7151970">
        <ele>261.0</ele>
        <time>2018-10-14T06:37:35Z</time>
      </trkpt>
      <trkpt lat="38.4049700" lon="-0.7152020">
        <ele>261.0</ele>
        <time>2018-10-14T06:37:36Z</time>
      </trkpt>
      <trkpt lat="38.4049700" lon="-0.7152020">
        <ele>261.0</ele>
        <time>2018-10-14T06:37:37Z</time>
      </trkpt>
      <trkpt lat="38.4049230" lon="-0.7152180">
        <ele>261.0</ele>
        <time>2018-10-14T06:37:38Z</time>
      </trkpt>
      <trkpt lat="38.4049230" lon="-0.7152180">
        <ele>261.0</ele>
        <time>2018-10-14T06:37:39Z</time>
      </trkpt>
      <trkpt lat="38.4048800" lon="-0.7152280">
        <ele>261.0</ele>
        <time>2018-10-14T06:37:40Z</time>
      </trkpt>
      <trkpt lat="38.4048800" lon="-0.7152280">
        <ele>261.0</ele>
        <time>2018-10-14T06:37:41Z</time>
      </trkpt>
      <trkpt lat="38.4048300" lon="-0.7152320">
        <ele>261.0</ele>
        <time>2018-10-14T06:37:42Z</time>
      </trkpt>
      <trkpt lat="38.4048300" lon="-0.7152320">
        <ele>261.0</ele>
        <time>2018-10-14T06:37:43Z</time>
      </trkpt>
      <trkpt lat="38.4047750" lon="-0.7152270">
        <ele>261.0</ele>
        <time>2018-10-14T06:37:44Z</time>
      </trkpt>
      <trkpt lat="38.4047750" lon="-0.7152270">
        <ele>261.0</ele>
        <time>2018-10-14T06:37:45Z</time>
      </trkpt>
      <trkpt lat="38.4047180" lon="-0.7152270">
        <ele>261.0</ele>
        <time>2018-10-14T06:37:46Z</time>
      </trkpt>
      <trkpt lat="38.4047180" lon="-0.7152270">
        <ele>261.0</ele>
        <time>2018-10-14T06:37:47Z</time>
      </trkpt>
      <trkpt lat="38.4046580" lon="-0.7152120">
        <ele>261.0</ele>
        <time>2018-10-14T06:37:48Z</time>
      </trkpt>
      <trkpt lat="38.4046580" lon="-0.7152120">
        <ele>261.0</ele>
        <time>2018-10-14T06:37:49Z</time>
      </trkpt>
      <trkpt lat="38.4045930" lon="-0.7151980">
        <ele>261.0</ele>
        <time>2018-10-14T06:37:50Z</time>
      </trkpt>
      <trkpt lat="38.4045930" lon="-0.7151980">
        <ele>261.0</ele>
        <time>2018-10-14T06:37:51Z</time>
      </trkpt>
      <trkpt lat="38.4045250" lon="-0.7151770">
        <ele>261.0</ele>
        <time>2018-10-14T06:37:52Z</time>
      </trkpt>
      <trkpt lat="38.4045250" lon="-0.7151770">
        <ele>261.0</ele>
        <time>2018-10-14T06:37:53Z</time>
      </trkpt>
      <trkpt lat="38.4044520" lon="-0.7151520">
        <ele>261.0</ele>
        <time>2018-10-14T06:37:54Z</time>
      </trkpt>
      <trkpt lat="38.4044520" lon="-0.7151520">
        <ele>261.0</ele>
        <time>2018-10-14T06:37:55Z</time>
      </trkpt>
      <trkpt lat="38.4043800" lon="-0.7151320">
        <ele>261.0</ele>
        <time>2018-10-14T06:37:56Z</time>
      </trkpt>
      <trkpt lat="38.4043430" lon="-0.7151200">
        <ele>261.0</ele>
        <time>2018-10-14T06:37:57Z</time>
      </trkpt>
      <trkpt lat="38.4043430" lon="-0.7151200">
        <ele>261.0</ele>
        <time>2018-10-14T06:37:58Z</time>
      </trkpt>
      <trkpt lat="38.4042700" lon="-0.7150970">
        <ele>261.0</ele>
        <time>2018-10-14T06:37:59Z</time>
      </trkpt>
      <trkpt lat="38.4042350" lon="-0.7150850">
        <ele>260.0</ele>
        <time>2018-10-14T06:38:00Z</time>
      </trkpt>
      <trkpt lat="38.4042350" lon="-0.7150850">
        <ele>260.0</ele>
        <time>2018-10-14T06:38:01Z</time>
      </trkpt>
      <trkpt lat="38.4041600" lon="-0.7150580">
        <ele>260.0</ele>
        <time>2018-10-14T06:38:02Z</time>
      </trkpt>
      <trkpt lat="38.4041600" lon="-0.7150580">
        <ele>260.0</ele>
        <time>2018-10-14T06:38:03Z</time>
      </trkpt>
      <trkpt lat="38.4040980" lon="-0.7149950">
        <ele>259.0</ele>
        <time>2018-10-14T06:38:04Z</time>
      </trkpt>
      <trkpt lat="38.4040980" lon="-0.7149950">
        <ele>259.0</ele>
        <time>2018-10-14T06:38:05Z</time>
      </trkpt>
      <trkpt lat="38.4040570" lon="-0.7148950">
        <ele>259.0</ele>
        <time>2018-10-14T06:38:06Z</time>
      </trkpt>
      <trkpt lat="38.4040570" lon="-0.7148950">
        <ele>259.0</ele>
        <time>2018-10-14T06:38:07Z</time>
      </trkpt>
      <trkpt lat="38.4040480" lon="-0.7147800">
        <ele>259.0</ele>
        <time>2018-10-14T06:38:08Z</time>
      </trkpt>
      <trkpt lat="38.4040480" lon="-0.7147800">
        <ele>259.0</ele>
        <time>2018-10-14T06:38:09Z</time>
      </trkpt>
      <trkpt lat="38.4040550" lon="-0.7146730">
        <ele>258.0</ele>
        <time>2018-10-14T06:38:10Z</time>
      </trkpt>
      <trkpt lat="38.4040550" lon="-0.7146730">
        <ele>258.0</ele>
        <time>2018-10-14T06:38:11Z</time>
      </trkpt>
      <trkpt lat="38.4040670" lon="-0.7145700">
        <ele>258.0</ele>
        <time>2018-10-14T06:38:12Z</time>
      </trkpt>
      <trkpt lat="38.4040670" lon="-0.7145700">
        <ele>258.0</ele>
        <time>2018-10-14T06:38:13Z</time>
      </trkpt>
      <trkpt lat="38.4040830" lon="-0.7144600">
        <ele>258.0</ele>
        <time>2018-10-14T06:38:14Z</time>
      </trkpt>
      <trkpt lat="38.4040830" lon="-0.7144600">
        <ele>258.0</ele>
        <time>2018-10-14T06:38:15Z</time>
      </trkpt>
      <trkpt lat="38.4041000" lon="-0.7143520">
        <ele>258.0</ele>
        <time>2018-10-14T06:38:16Z</time>
      </trkpt>
      <trkpt lat="38.4041000" lon="-0.7143520">
        <ele>258.0</ele>
        <time>2018-10-14T06:38:17Z</time>
      </trkpt>
      <trkpt lat="38.4041170" lon="-0.7142450">
        <ele>258.0</ele>
        <time>2018-10-14T06:38:18Z</time>
      </trkpt>
      <trkpt lat="38.4041170" lon="-0.7142450">
        <ele>258.0</ele>
        <time>2018-10-14T06:38:19Z</time>
      </trkpt>
      <trkpt lat="38.4041320" lon="-0.7141470">
        <ele>258.0</ele>
        <time>2018-10-14T06:38:20Z</time>
      </trkpt>
      <trkpt lat="38.4041320" lon="-0.7141470">
        <ele>258.0</ele>
        <time>2018-10-14T06:38:21Z</time>
      </trkpt>
      <trkpt lat="38.4041480" lon="-0.7140520">
        <ele>258.0</ele>
        <time>2018-10-14T06:38:22Z</time>
      </trkpt>
      <trkpt lat="38.4041480" lon="-0.7140520">
        <ele>258.0</ele>
        <time>2018-10-14T06:38:23Z</time>
      </trkpt>
      <trkpt lat="38.4041630" lon="-0.7139550">
        <ele>258.0</ele>
        <time>2018-10-14T06:38:24Z</time>
      </trkpt>
      <trkpt lat="38.4041630" lon="-0.7139550">
        <ele>258.0</ele>
        <time>2018-10-14T06:38:25Z</time>
      </trkpt>
      <trkpt lat="38.4041780" lon="-0.7138580">
        <ele>258.0</ele>
        <time>2018-10-14T06:38:26Z</time>
      </trkpt>
      <trkpt lat="38.4041780" lon="-0.7138580">
        <ele>258.0</ele>
        <time>2018-10-14T06:38:27Z</time>
      </trkpt>
      <trkpt lat="38.4041980" lon="-0.7137600">
        <ele>258.0</ele>
        <time>2018-10-14T06:38:28Z</time>
      </trkpt>
      <trkpt lat="38.4041980" lon="-0.7137600">
        <ele>258.0</ele>
        <time>2018-10-14T06:38:29Z</time>
      </trkpt>
      <trkpt lat="38.4042170" lon="-0.7136620">
        <ele>258.0</ele>
        <time>2018-10-14T06:38:30Z</time>
      </trkpt>
      <trkpt lat="38.4042170" lon="-0.7136620">
        <ele>258.0</ele>
        <time>2018-10-14T06:38:31Z</time>
      </trkpt>
      <trkpt lat="38.4042370" lon="-0.7135570">
        <ele>258.0</ele>
        <time>2018-10-14T06:38:32Z</time>
      </trkpt>
      <trkpt lat="38.4042370" lon="-0.7135570">
        <ele>258.0</ele>
        <time>2018-10-14T06:38:33Z</time>
      </trkpt>
      <trkpt lat="38.4042570" lon="-0.7134470">
        <ele>258.0</ele>
        <time>2018-10-14T06:38:34Z</time>
      </trkpt>
      <trkpt lat="38.4042570" lon="-0.7134470">
        <ele>258.0</ele>
        <time>2018-10-14T06:38:35Z</time>
      </trkpt>
      <trkpt lat="38.4042770" lon="-0.7133330">
        <ele>258.0</ele>
        <time>2018-10-14T06:38:36Z</time>
      </trkpt>
      <trkpt lat="38.4042770" lon="-0.7133330">
        <ele>258.0</ele>
        <time>2018-10-14T06:38:37Z</time>
      </trkpt>
      <trkpt lat="38.4042970" lon="-0.7132220">
        <ele>256.0</ele>
        <time>2018-10-14T06:38:38Z</time>
      </trkpt>
      <trkpt lat="38.4042970" lon="-0.7132220">
        <ele>256.0</ele>
        <time>2018-10-14T06:38:39Z</time>
      </trkpt>
      <trkpt lat="38.4043150" lon="-0.7131120">
        <ele>256.0</ele>
        <time>2018-10-14T06:38:40Z</time>
      </trkpt>
      <trkpt lat="38.4043230" lon="-0.7130580">
        <ele>256.0</ele>
        <time>2018-10-14T06:38:41Z</time>
      </trkpt>
      <trkpt lat="38.4043230" lon="-0.7130580">
        <ele>256.0</ele>
        <time>2018-10-14T06:38:42Z</time>
      </trkpt>
      <trkpt lat="38.4043420" lon="-0.7129520">
        <ele>256.0</ele>
        <time>2018-10-14T06:38:43Z</time>
      </trkpt>
      <trkpt lat="38.4043500" lon="-0.7128980">
        <ele>256.0</ele>
        <time>2018-10-14T06:38:44Z</time>
      </trkpt>
      <trkpt lat="38.4043500" lon="-0.7128980">
        <ele>256.0</ele>
        <time>2018-10-14T06:38:45Z</time>
      </trkpt>
      <trkpt lat="38.4043620" lon="-0.7127930">
        <ele>256.0</ele>
        <time>2018-10-14T06:38:46Z</time>
      </trkpt>
      <trkpt lat="38.4043670" lon="-0.7127400">
        <ele>256.0</ele>
        <time>2018-10-14T06:38:47Z</time>
      </trkpt>
      <trkpt lat="38.4043730" lon="-0.7126880">
        <ele>256.0</ele>
        <time>2018-10-14T06:38:48Z</time>
      </trkpt>
      <trkpt lat="38.4043730" lon="-0.7126880">
        <ele>256.0</ele>
        <time>2018-10-14T06:38:49Z</time>
      </trkpt>
      <trkpt lat="38.4043950" lon="-0.7125820">
        <ele>256.0</ele>
        <time>2018-10-14T06:38:50Z</time>
      </trkpt>
      <trkpt lat="38.4043950" lon="-0.7125820">
        <ele>256.0</ele>
        <time>2018-10-14T06:38:51Z</time>
      </trkpt>
      <trkpt lat="38.4044150" lon="-0.7124730">
        <ele>256.0</ele>
        <time>2018-10-14T06:38:52Z</time>
      </trkpt>
      <trkpt lat="38.4044150" lon="-0.7124730">
        <ele>256.0</ele>
        <time>2018-10-14T06:38:53Z</time>
      </trkpt>
      <trkpt lat="38.4044370" lon="-0.7123700">
        <ele>256.0</ele>
        <time>2018-10-14T06:38:54Z</time>
      </trkpt>
      <trkpt lat="38.4044370" lon="-0.7123700">
        <ele>256.0</ele>
        <time>2018-10-14T06:38:55Z</time>
      </trkpt>
      <trkpt lat="38.4044550" lon="-0.7122670">
        <ele>256.0</ele>
        <time>2018-10-14T06:38:56Z</time>
      </trkpt>
      <trkpt lat="38.4044550" lon="-0.7122670">
        <ele>256.0</ele>
        <time>2018-10-14T06:38:57Z</time>
      </trkpt>
      <trkpt lat="38.4044750" lon="-0.7121630">
        <ele>256.0</ele>
        <time>2018-10-14T06:38:58Z</time>
      </trkpt>
      <trkpt lat="38.4044750" lon="-0.7121630">
        <ele>256.0</ele>
        <time>2018-10-14T06:38:59Z</time>
      </trkpt>
      <trkpt lat="38.4044950" lon="-0.7120580">
        <ele>256.0</ele>
        <time>2018-10-14T06:39:00Z</time>
      </trkpt>
      <trkpt lat="38.4044950" lon="-0.7120580">
        <ele>256.0</ele>
        <time>2018-10-14T06:39:01Z</time>
      </trkpt>
      <trkpt lat="38.4045130" lon="-0.7119480">
        <ele>256.0</ele>
        <time>2018-10-14T06:39:02Z</time>
      </trkpt>
      <trkpt lat="38.4045130" lon="-0.7119480">
        <ele>256.0</ele>
        <time>2018-10-14T06:39:03Z</time>
      </trkpt>
      <trkpt lat="38.4045330" lon="-0.7118370">
        <ele>256.0</ele>
        <time>2018-10-14T06:39:04Z</time>
      </trkpt>
      <trkpt lat="38.4045450" lon="-0.7117820">
        <ele>256.0</ele>
        <time>2018-10-14T06:39:05Z</time>
      </trkpt>
      <trkpt lat="38.4045550" lon="-0.7117280">
        <ele>256.0</ele>
        <time>2018-10-14T06:39:06Z</time>
      </trkpt>
      <trkpt lat="38.4045550" lon="-0.7117280">
        <ele>256.0</ele>
        <time>2018-10-14T06:39:07Z</time>
      </trkpt>
      <trkpt lat="38.4045720" lon="-0.7116250">
        <ele>256.0</ele>
        <time>2018-10-14T06:39:08Z</time>
      </trkpt>
      <trkpt lat="38.4045720" lon="-0.7116250">
        <ele>256.0</ele>
        <time>2018-10-14T06:39:09Z</time>
      </trkpt>
      <trkpt lat="38.4045870" lon="-0.7115270">
        <ele>256.0</ele>
        <time>2018-10-14T06:39:10Z</time>
      </trkpt>
      <trkpt lat="38.4045870" lon="-0.7115270">
        <ele>256.0</ele>
        <time>2018-10-14T06:39:11Z</time>
      </trkpt>
      <trkpt lat="38.4046050" lon="-0.7114270">
        <ele>256.0</ele>
        <time>2018-10-14T06:39:12Z</time>
      </trkpt>
      <trkpt lat="38.4046050" lon="-0.7114270">
        <ele>256.0</ele>
        <time>2018-10-14T06:39:13Z</time>
      </trkpt>
      <trkpt lat="38.4046230" lon="-0.7113250">
        <ele>256.0</ele>
        <time>2018-10-14T06:39:14Z</time>
      </trkpt>
      <trkpt lat="38.4046320" lon="-0.7112720">
        <ele>256.0</ele>
        <time>2018-10-14T06:39:15Z</time>
      </trkpt>
      <trkpt lat="38.4046320" lon="-0.7112720">
        <ele>256.0</ele>
        <time>2018-10-14T06:39:16Z</time>
      </trkpt>
      <trkpt lat="38.4046470" lon="-0.7111630">
        <ele>255.0</ele>
        <time>2018-10-14T06:39:17Z</time>
      </trkpt>
      <trkpt lat="38.4046550" lon="-0.7111080">
        <ele>255.0</ele>
        <time>2018-10-14T06:39:18Z</time>
      </trkpt>
      <trkpt lat="38.4046550" lon="-0.7111080">
        <ele>255.0</ele>
        <time>2018-10-14T06:39:19Z</time>
      </trkpt>
      <trkpt lat="38.4046750" lon="-0.7109970">
        <ele>255.0</ele>
        <time>2018-10-14T06:39:20Z</time>
      </trkpt>
      <trkpt lat="38.4046750" lon="-0.7109970">
        <ele>255.0</ele>
        <time>2018-10-14T06:39:21Z</time>
      </trkpt>
      <trkpt lat="38.4046900" lon="-0.7108830">
        <ele>255.0</ele>
        <time>2018-10-14T06:39:22Z</time>
      </trkpt>
      <trkpt lat="38.4046980" lon="-0.7108270">
        <ele>255.0</ele>
        <time>2018-10-14T06:39:23Z</time>
      </trkpt>
      <trkpt lat="38.4046980" lon="-0.7108270">
        <ele>255.0</ele>
        <time>2018-10-14T06:39:24Z</time>
      </trkpt>
      <trkpt lat="38.4047180" lon="-0.7107120">
        <ele>254.0</ele>
        <time>2018-10-14T06:39:25Z</time>
      </trkpt>
      <trkpt lat="38.4047300" lon="-0.7106530">
        <ele>254.0</ele>
        <time>2018-10-14T06:39:26Z</time>
      </trkpt>
      <trkpt lat="38.4047400" lon="-0.7105950">
        <ele>254.0</ele>
        <time>2018-10-14T06:39:27Z</time>
      </trkpt>
      <trkpt lat="38.4047400" lon="-0.7105950">
        <ele>254.0</ele>
        <time>2018-10-14T06:39:28Z</time>
      </trkpt>
      <trkpt lat="38.4047630" lon="-0.7104750">
        <ele>254.0</ele>
        <time>2018-10-14T06:39:29Z</time>
      </trkpt>
      <trkpt lat="38.4047750" lon="-0.7104170">
        <ele>254.0</ele>
        <time>2018-10-14T06:39:30Z</time>
      </trkpt>
      <trkpt lat="38.4047750" lon="-0.7104170">
        <ele>254.0</ele>
        <time>2018-10-14T06:39:31Z</time>
      </trkpt>
      <trkpt lat="38.4047970" lon="-0.7103020">
        <ele>254.0</ele>
        <time>2018-10-14T06:39:32Z</time>
      </trkpt>
      <trkpt lat="38.4047970" lon="-0.7103020">
        <ele>254.0</ele>
        <time>2018-10-14T06:39:33Z</time>
      </trkpt>
      <trkpt lat="38.4048180" lon="-0.7101900">
        <ele>254.0</ele>
        <time>2018-10-14T06:39:34Z</time>
      </trkpt>
      <trkpt lat="38.4048180" lon="-0.7101900">
        <ele>254.0</ele>
        <time>2018-10-14T06:39:35Z</time>
      </trkpt>
      <trkpt lat="38.4048430" lon="-0.7100750">
        <ele>254.0</ele>
        <time>2018-10-14T06:39:36Z</time>
      </trkpt>
      <trkpt lat="38.4048430" lon="-0.7100750">
        <ele>254.0</ele>
        <time>2018-10-14T06:39:37Z</time>
      </trkpt>
      <trkpt lat="38.4048650" lon="-0.7099570">
        <ele>254.0</ele>
        <time>2018-10-14T06:39:38Z</time>
      </trkpt>
      <trkpt lat="38.4048650" lon="-0.7099570">
        <ele>254.0</ele>
        <time>2018-10-14T06:39:39Z</time>
      </trkpt>
      <trkpt lat="38.4048920" lon="-0.7098330">
        <ele>254.0</ele>
        <time>2018-10-14T06:39:40Z</time>
      </trkpt>
      <trkpt lat="38.4048920" lon="-0.7098330">
        <ele>254.0</ele>
        <time>2018-10-14T06:39:41Z</time>
      </trkpt>
      <trkpt lat="38.4049170" lon="-0.7097080">
        <ele>254.0</ele>
        <time>2018-10-14T06:39:42Z</time>
      </trkpt>
      <trkpt lat="38.4049170" lon="-0.7097080">
        <ele>254.0</ele>
        <time>2018-10-14T06:39:43Z</time>
      </trkpt>
      <trkpt lat="38.4049450" lon="-0.7095950">
        <ele>254.0</ele>
        <time>2018-10-14T06:39:44Z</time>
      </trkpt>
      <trkpt lat="38.4049450" lon="-0.7095950">
        <ele>253.0</ele>
        <time>2018-10-14T06:39:45Z</time>
      </trkpt>
      <trkpt lat="38.4049730" lon="-0.7094900">
        <ele>253.0</ele>
        <time>2018-10-14T06:39:46Z</time>
      </trkpt>
      <trkpt lat="38.4049730" lon="-0.7094900">
        <ele>253.0</ele>
        <time>2018-10-14T06:39:47Z</time>
      </trkpt>
      <trkpt lat="38.4049970" lon="-0.7093900">
        <ele>253.0</ele>
        <time>2018-10-14T06:39:48Z</time>
      </trkpt>
      <trkpt lat="38.4049970" lon="-0.7093900">
        <ele>253.0</ele>
        <time>2018-10-14T06:39:49Z</time>
      </trkpt>
      <trkpt lat="38.4050130" lon="-0.7092830">
        <ele>253.0</ele>
        <time>2018-10-14T06:39:50Z</time>
      </trkpt>
      <trkpt lat="38.4050130" lon="-0.7092830">
        <ele>253.0</ele>
        <time>2018-10-14T06:39:51Z</time>
      </trkpt>
      <trkpt lat="38.4050300" lon="-0.7091750">
        <ele>253.0</ele>
        <time>2018-10-14T06:39:52Z</time>
      </trkpt>
      <trkpt lat="38.4050300" lon="-0.7091750">
        <ele>253.0</ele>
        <time>2018-10-14T06:39:53Z</time>
      </trkpt>
      <trkpt lat="38.4050400" lon="-0.7090670">
        <ele>253.0</ele>
        <time>2018-10-14T06:39:54Z</time>
      </trkpt>
      <trkpt lat="38.4050400" lon="-0.7090670">
        <ele>253.0</ele>
        <time>2018-10-14T06:39:55Z</time>
      </trkpt>
      <trkpt lat="38.4050480" lon="-0.7089570">
        <ele>253.0</ele>
        <time>2018-10-14T06:39:56Z</time>
      </trkpt>
      <trkpt lat="38.4050480" lon="-0.7089570">
        <ele>254.0</ele>
        <time>2018-10-14T06:39:57Z</time>
      </trkpt>
      <trkpt lat="38.4050570" lon="-0.7088500">
        <ele>254.0</ele>
        <time>2018-10-14T06:39:58Z</time>
      </trkpt>
      <trkpt lat="38.4050570" lon="-0.7088500">
        <ele>254.0</ele>
        <time>2018-10-14T06:39:59Z</time>
      </trkpt>
      <trkpt lat="38.4050670" lon="-0.7087500">
        <ele>254.0</ele>
        <time>2018-10-14T06:40:00Z</time>
      </trkpt>
      <trkpt lat="38.4050670" lon="-0.7087500">
        <ele>254.0</ele>
        <time>2018-10-14T06:40:01Z</time>
      </trkpt>
      <trkpt lat="38.4050770" lon="-0.7086480">
        <ele>254.0</ele>
        <time>2018-10-14T06:40:02Z</time>
      </trkpt>
      <trkpt lat="38.4050770" lon="-0.7086480">
        <ele>254.0</ele>
        <time>2018-10-14T06:40:03Z</time>
      </trkpt>
      <trkpt lat="38.4050900" lon="-0.7085430">
        <ele>254.0</ele>
        <time>2018-10-14T06:40:04Z</time>
      </trkpt>
      <trkpt lat="38.4050970" lon="-0.7084920">
        <ele>255.0</ele>
        <time>2018-10-14T06:40:05Z</time>
      </trkpt>
      <trkpt lat="38.4050970" lon="-0.7084920">
        <ele>255.0</ele>
        <time>2018-10-14T06:40:06Z</time>
      </trkpt>
      <trkpt lat="38.4051100" lon="-0.7083880">
        <ele>255.0</ele>
        <time>2018-10-14T06:40:07Z</time>
      </trkpt>
      <trkpt lat="38.4051170" lon="-0.7083380">
        <ele>255.0</ele>
        <time>2018-10-14T06:40:08Z</time>
      </trkpt>
      <trkpt lat="38.4051170" lon="-0.7083380">
        <ele>255.0</ele>
        <time>2018-10-14T06:40:09Z</time>
      </trkpt>
      <trkpt lat="38.4051280" lon="-0.7082350">
        <ele>255.0</ele>
        <time>2018-10-14T06:40:10Z</time>
      </trkpt>
      <trkpt lat="38.4051280" lon="-0.7082350">
        <ele>255.0</ele>
        <time>2018-10-14T06:40:11Z</time>
      </trkpt>
      <trkpt lat="38.4051450" lon="-0.7081280">
        <ele>255.0</ele>
        <time>2018-10-14T06:40:12Z</time>
      </trkpt>
      <trkpt lat="38.4051450" lon="-0.7081280">
        <ele>255.0</ele>
        <time>2018-10-14T06:40:13Z</time>
      </trkpt>
      <trkpt lat="38.4051620" lon="-0.7080170">
        <ele>256.0</ele>
        <time>2018-10-14T06:40:14Z</time>
      </trkpt>
      <trkpt lat="38.4051620" lon="-0.7080170">
        <ele>256.0</ele>
        <time>2018-10-14T06:40:15Z</time>
      </trkpt>
      <trkpt lat="38.4051800" lon="-0.7079000">
        <ele>256.0</ele>
        <time>2018-10-14T06:40:16Z</time>
      </trkpt>
      <trkpt lat="38.4051900" lon="-0.7078420">
        <ele>256.0</ele>
        <time>2018-10-14T06:40:17Z</time>
      </trkpt>
      <trkpt lat="38.4051900" lon="-0.7078420">
        <ele>256.0</ele>
        <time>2018-10-14T06:40:18Z</time>
      </trkpt>
      <trkpt lat="38.4052080" lon="-0.7077300">
        <ele>256.0</ele>
        <time>2018-10-14T06:40:19Z</time>
      </trkpt>
      <trkpt lat="38.4052170" lon="-0.7076730">
        <ele>256.0</ele>
        <time>2018-10-14T06:40:20Z</time>
      </trkpt>
      <trkpt lat="38.4052170" lon="-0.7076730">
        <ele>256.0</ele>
        <time>2018-10-14T06:40:21Z</time>
      </trkpt>
      <trkpt lat="38.4052350" lon="-0.7075630">
        <ele>257.0</ele>
        <time>2018-10-14T06:40:22Z</time>
      </trkpt>
      <trkpt lat="38.4052450" lon="-0.7075100">
        <ele>257.0</ele>
        <time>2018-10-14T06:40:23Z</time>
      </trkpt>
      <trkpt lat="38.4052450" lon="-0.7075100">
        <ele>257.0</ele>
        <time>2018-10-14T06:40:24Z</time>
      </trkpt>
      <trkpt lat="38.4052620" lon="-0.7073980">
        <ele>257.0</ele>
        <time>2018-10-14T06:40:25Z</time>
      </trkpt>
      <trkpt lat="38.4052730" lon="-0.7073420">
        <ele>257.0</ele>
        <time>2018-10-14T06:40:26Z</time>
      </trkpt>
      <trkpt lat="38.4052730" lon="-0.7073420">
        <ele>257.0</ele>
        <time>2018-10-14T06:40:27Z</time>
      </trkpt>
      <trkpt lat="38.4052930" lon="-0.7072280">
        <ele>257.0</ele>
        <time>2018-10-14T06:40:28Z</time>
      </trkpt>
      <trkpt lat="38.4052930" lon="-0.7072280">
        <ele>257.0</ele>
        <time>2018-10-14T06:40:29Z</time>
      </trkpt>
      <trkpt lat="38.4053120" lon="-0.7071130">
        <ele>257.0</ele>
        <time>2018-10-14T06:40:30Z</time>
      </trkpt>
      <trkpt lat="38.4053120" lon="-0.7071130">
        <ele>257.0</ele>
        <time>2018-10-14T06:40:31Z</time>
      </trkpt>
      <trkpt lat="38.4053320" lon="-0.7069950">
        <ele>257.0</ele>
        <time>2018-10-14T06:40:32Z</time>
      </trkpt>
      <trkpt lat="38.4053320" lon="-0.7069950">
        <ele>257.0</ele>
        <time>2018-10-14T06:40:33Z</time>
      </trkpt>
      <trkpt lat="38.4053480" lon="-0.7068720">
        <ele>257.0</ele>
        <time>2018-10-14T06:40:34Z</time>
      </trkpt>
      <trkpt lat="38.4053580" lon="-0.7068100">
        <ele>257.0</ele>
        <time>2018-10-14T06:40:35Z</time>
      </trkpt>
      <trkpt lat="38.4053580" lon="-0.7068100">
        <ele>257.0</ele>
        <time>2018-10-14T06:40:36Z</time>
      </trkpt>
      <trkpt lat="38.4053750" lon="-0.7066880">
        <ele>257.0</ele>
        <time>2018-10-14T06:40:37Z</time>
      </trkpt>
      <trkpt lat="38.4053850" lon="-0.7066270">
        <ele>257.0</ele>
        <time>2018-10-14T06:40:38Z</time>
      </trkpt>
      <trkpt lat="38.4053850" lon="-0.7066270">
        <ele>257.0</ele>
        <time>2018-10-14T06:40:39Z</time>
      </trkpt>
      <trkpt lat="38.4054020" lon="-0.7065050">
        <ele>257.0</ele>
        <time>2018-10-14T06:40:40Z</time>
      </trkpt>
      <trkpt lat="38.4054120" lon="-0.7064450">
        <ele>257.0</ele>
        <time>2018-10-14T06:40:41Z</time>
      </trkpt>
      <trkpt lat="38.4054220" lon="-0.7063830">
        <ele>257.0</ele>
        <time>2018-10-14T06:40:42Z</time>
      </trkpt>
      <trkpt lat="38.4054220" lon="-0.7063830">
        <ele>257.0</ele>
        <time>2018-10-14T06:40:43Z</time>
      </trkpt>
      <trkpt lat="38.4054420" lon="-0.7062670">
        <ele>258.0</ele>
        <time>2018-10-14T06:40:44Z</time>
      </trkpt>
      <trkpt lat="38.4054420" lon="-0.7062670">
        <ele>258.0</ele>
        <time>2018-10-14T06:40:45Z</time>
      </trkpt>
      <trkpt lat="38.4054670" lon="-0.7061550">
        <ele>258.0</ele>
        <time>2018-10-14T06:40:46Z</time>
      </trkpt>
      <trkpt lat="38.4054770" lon="-0.7060980">
        <ele>258.0</ele>
        <time>2018-10-14T06:40:47Z</time>
      </trkpt>
      <trkpt lat="38.4054870" lon="-0.7060430">
        <ele>258.0</ele>
        <time>2018-10-14T06:40:48Z</time>
      </trkpt>
      <trkpt lat="38.4054870" lon="-0.7060430">
        <ele>258.0</ele>
        <time>2018-10-14T06:40:49Z</time>
      </trkpt>
      <trkpt lat="38.4055100" lon="-0.7059320">
        <ele>258.0</ele>
        <time>2018-10-14T06:40:50Z</time>
      </trkpt>
      <trkpt lat="38.4055100" lon="-0.7059320">
        <ele>258.0</ele>
        <time>2018-10-14T06:40:51Z</time>
      </trkpt>
      <trkpt lat="38.4055350" lon="-0.7058230">
        <ele>258.0</ele>
        <time>2018-10-14T06:40:52Z</time>
      </trkpt>
      <trkpt lat="38.4055350" lon="-0.7058230">
        <ele>258.0</ele>
        <time>2018-10-14T06:40:53Z</time>
      </trkpt>
      <trkpt lat="38.4055580" lon="-0.7057150">
        <ele>258.0</ele>
        <time>2018-10-14T06:40:54Z</time>
      </trkpt>
      <trkpt lat="38.4055580" lon="-0.7057150">
        <ele>258.0</ele>
        <time>2018-10-14T06:40:55Z</time>
      </trkpt>
      <trkpt lat="38.4055800" lon="-0.7056080">
        <ele>258.0</ele>
        <time>2018-10-14T06:40:56Z</time>
      </trkpt>
      <trkpt lat="38.4055800" lon="-0.7056080">
        <ele>258.0</ele>
        <time>2018-10-14T06:40:57Z</time>
      </trkpt>
      <trkpt lat="38.4055980" lon="-0.7055020">
        <ele>258.0</ele>
        <time>2018-10-14T06:40:58Z</time>
      </trkpt>
      <trkpt lat="38.4056100" lon="-0.7054500">
        <ele>258.0</ele>
        <time>2018-10-14T06:40:59Z</time>
      </trkpt>
      <trkpt lat="38.4056270" lon="-0.7054000">
        <ele>258.0</ele>
        <time>2018-10-14T06:41:00Z</time>
      </trkpt>
      <trkpt lat="38.4056270" lon="-0.7054000">
        <ele>258.0</ele>
        <time>2018-10-14T06:41:01Z</time>
      </trkpt>
      <trkpt lat="38.4056750" lon="-0.7053050">
        <ele>258.0</ele>
        <time>2018-10-14T06:41:02Z</time>
      </trkpt>
      <trkpt lat="38.4056750" lon="-0.7053050">
        <ele>258.0</ele>
        <time>2018-10-14T06:41:03Z</time>
      </trkpt>
      <trkpt lat="38.4057250" lon="-0.7052170">
        <ele>258.0</ele>
        <time>2018-10-14T06:41:04Z</time>
      </trkpt>
      <trkpt lat="38.4057250" lon="-0.7052170">
        <ele>258.0</ele>
        <time>2018-10-14T06:41:05Z</time>
      </trkpt>
      <trkpt lat="38.4057620" lon="-0.7051180">
        <ele>258.0</ele>
        <time>2018-10-14T06:41:06Z</time>
      </trkpt>
      <trkpt lat="38.4057620" lon="-0.7051180">
        <ele>258.0</ele>
        <time>2018-10-14T06:41:07Z</time>
      </trkpt>
      <trkpt lat="38.4057830" lon="-0.7050120">
        <ele>258.0</ele>
        <time>2018-10-14T06:41:08Z</time>
      </trkpt>
      <trkpt lat="38.4057830" lon="-0.7050120">
        <ele>258.0</ele>
        <time>2018-10-14T06:41:09Z</time>
      </trkpt>
      <trkpt lat="38.4057930" lon="-0.7049080">
        <ele>258.0</ele>
        <time>2018-10-14T06:41:10Z</time>
      </trkpt>
      <trkpt lat="38.4057980" lon="-0.7048530">
        <ele>258.0</ele>
        <time>2018-10-14T06:41:11Z</time>
      </trkpt>
      <trkpt lat="38.4057980" lon="-0.7048530">
        <ele>258.0</ele>
        <time>2018-10-14T06:41:12Z</time>
      </trkpt>
      <trkpt lat="38.4058150" lon="-0.7047400">
        <ele>258.0</ele>
        <time>2018-10-14T06:41:13Z</time>
      </trkpt>
      <trkpt lat="38.4058270" lon="-0.7046830">
        <ele>258.0</ele>
        <time>2018-10-14T06:41:14Z</time>
      </trkpt>
      <trkpt lat="38.4058270" lon="-0.7046830">
        <ele>258.0</ele>
        <time>2018-10-14T06:41:15Z</time>
      </trkpt>
      <trkpt lat="38.4058480" lon="-0.7045730">
        <ele>258.0</ele>
        <time>2018-10-14T06:41:16Z</time>
      </trkpt>
      <trkpt lat="38.4058580" lon="-0.7045200">
        <ele>258.0</ele>
        <time>2018-10-14T06:41:17Z</time>
      </trkpt>
      <trkpt lat="38.4058580" lon="-0.7045200">
        <ele>258.0</ele>
        <time>2018-10-14T06:41:18Z</time>
      </trkpt>
      <trkpt lat="38.4058700" lon="-0.7044150">
        <ele>258.0</ele>
        <time>2018-10-14T06:41:19Z</time>
      </trkpt>
      <trkpt lat="38.4058670" lon="-0.7043620">
        <ele>258.0</ele>
        <time>2018-10-14T06:41:20Z</time>
      </trkpt>
      <trkpt lat="38.4058670" lon="-0.7043620">
        <ele>258.0</ele>
        <time>2018-10-14T06:41:21Z</time>
      </trkpt>
      <trkpt lat="38.4058480" lon="-0.7042570">
        <ele>258.0</ele>
        <time>2018-10-14T06:41:22Z</time>
      </trkpt>
      <trkpt lat="38.4058480" lon="-0.7042570">
        <ele>258.0</ele>
        <time>2018-10-14T06:41:23Z</time>
      </trkpt>
      <trkpt lat="38.4058330" lon="-0.7041450">
        <ele>258.0</ele>
        <time>2018-10-14T06:41:24Z</time>
      </trkpt>
      <trkpt lat="38.4058330" lon="-0.7041450">
        <ele>258.0</ele>
        <time>2018-10-14T06:41:25Z</time>
      </trkpt>
      <trkpt lat="38.4058280" lon="-0.7040280">
        <ele>258.0</ele>
        <time>2018-10-14T06:41:26Z</time>
      </trkpt>
      <trkpt lat="38.4058280" lon="-0.7039720">
        <ele>258.0</ele>
        <time>2018-10-14T06:41:27Z</time>
      </trkpt>
      <trkpt lat="38.4058320" lon="-0.7039150">
        <ele>258.0</ele>
        <time>2018-10-14T06:41:28Z</time>
      </trkpt>
      <trkpt lat="38.4058320" lon="-0.7039150">
        <ele>258.0</ele>
        <time>2018-10-14T06:41:29Z</time>
      </trkpt>
      <trkpt lat="38.4058380" lon="-0.7037970">
        <ele>258.0</ele>
        <time>2018-10-14T06:41:30Z</time>
      </trkpt>
      <trkpt lat="38.4058380" lon="-0.7037970">
        <ele>258.0</ele>
        <time>2018-10-14T06:41:31Z</time>
      </trkpt>
      <trkpt lat="38.4058530" lon="-0.7036750">
        <ele>259.0</ele>
        <time>2018-10-14T06:41:32Z</time>
      </trkpt>
      <trkpt lat="38.4058530" lon="-0.7036750">
        <ele>259.0</ele>
        <time>2018-10-14T06:41:33Z</time>
      </trkpt>
      <trkpt lat="38.4058750" lon="-0.7035550">
        <ele>259.0</ele>
        <time>2018-10-14T06:41:34Z</time>
      </trkpt>
      <trkpt lat="38.4058750" lon="-0.7035550">
        <ele>259.0</ele>
        <time>2018-10-14T06:41:35Z</time>
      </trkpt>
      <trkpt lat="38.4058930" lon="-0.7034350">
        <ele>259.0</ele>
        <time>2018-10-14T06:41:36Z</time>
      </trkpt>
      <trkpt lat="38.4058930" lon="-0.7034350">
        <ele>259.0</ele>
        <time>2018-10-14T06:41:37Z</time>
      </trkpt>
      <trkpt lat="38.4059130" lon="-0.7033150">
        <ele>259.0</ele>
        <time>2018-10-14T06:41:38Z</time>
      </trkpt>
      <trkpt lat="38.4059130" lon="-0.7033150">
        <ele>259.0</ele>
        <time>2018-10-14T06:41:39Z</time>
      </trkpt>
      <trkpt lat="38.4059320" lon="-0.7031970">
        <ele>259.0</ele>
        <time>2018-10-14T06:41:40Z</time>
      </trkpt>
      <trkpt lat="38.4059320" lon="-0.7031970">
        <ele>259.0</ele>
        <time>2018-10-14T06:41:41Z</time>
      </trkpt>
      <trkpt lat="38.4059500" lon="-0.7030770">
        <ele>259.0</ele>
        <time>2018-10-14T06:41:42Z</time>
      </trkpt>
      <trkpt lat="38.4059580" lon="-0.7030170">
        <ele>259.0</ele>
        <time>2018-10-14T06:41:43Z</time>
      </trkpt>
      <trkpt lat="38.4059580" lon="-0.7030170">
        <ele>259.0</ele>
        <time>2018-10-14T06:41:44Z</time>
      </trkpt>
      <trkpt lat="38.4059750" lon="-0.7029000">
        <ele>259.0</ele>
        <time>2018-10-14T06:41:45Z</time>
      </trkpt>
      <trkpt lat="38.4059750" lon="-0.7029000">
        <ele>259.0</ele>
        <time>2018-10-14T06:41:46Z</time>
      </trkpt>
      <trkpt lat="38.4059950" lon="-0.7027830">
        <ele>259.0</ele>
        <time>2018-10-14T06:41:47Z</time>
      </trkpt>
      <trkpt lat="38.4060050" lon="-0.7027250">
        <ele>259.0</ele>
        <time>2018-10-14T06:41:48Z</time>
      </trkpt>
      <trkpt lat="38.4060050" lon="-0.7027250">
        <ele>259.0</ele>
        <time>2018-10-14T06:41:49Z</time>
      </trkpt>
      <trkpt lat="38.4060250" lon="-0.7026070">
        <ele>259.0</ele>
        <time>2018-10-14T06:41:50Z</time>
      </trkpt>
      <trkpt lat="38.4060250" lon="-0.7026070">
        <ele>259.0</ele>
        <time>2018-10-14T06:41:51Z</time>
      </trkpt>
      <trkpt lat="38.4060430" lon="-0.7024900">
        <ele>259.0</ele>
        <time>2018-10-14T06:41:52Z</time>
      </trkpt>
      <trkpt lat="38.4060430" lon="-0.7024900">
        <ele>259.0</ele>
        <time>2018-10-14T06:41:53Z</time>
      </trkpt>
      <trkpt lat="38.4060620" lon="-0.7023730">
        <ele>259.0</ele>
        <time>2018-10-14T06:41:54Z</time>
      </trkpt>
      <trkpt lat="38.4060620" lon="-0.7023730">
        <ele>259.0</ele>
        <time>2018-10-14T06:41:55Z</time>
      </trkpt>
      <trkpt lat="38.4060780" lon="-0.7022580">
        <ele>259.0</ele>
        <time>2018-10-14T06:41:56Z</time>
      </trkpt>
      <trkpt lat="38.4060870" lon="-0.7022000">
        <ele>259.0</ele>
        <time>2018-10-14T06:41:57Z</time>
      </trkpt>
      <trkpt lat="38.4060870" lon="-0.7022000">
        <ele>259.0</ele>
        <time>2018-10-14T06:41:58Z</time>
      </trkpt>
      <trkpt lat="38.4061030" lon="-0.7020820">
        <ele>259.0</ele>
        <time>2018-10-14T06:41:59Z</time>
      </trkpt>
      <trkpt lat="38.4061120" lon="-0.7020230">
        <ele>259.0</ele>
        <time>2018-10-14T06:42:00Z</time>
      </trkpt>
      <trkpt lat="38.4061200" lon="-0.7019630">
        <ele>259.0</ele>
        <time>2018-10-14T06:42:01Z</time>
      </trkpt>
      <trkpt lat="38.4061200" lon="-0.7019630">
        <ele>259.0</ele>
        <time>2018-10-14T06:42:02Z</time>
      </trkpt>
      <trkpt lat="38.4061350" lon="-0.7018420">
        <ele>259.0</ele>
        <time>2018-10-14T06:42:03Z</time>
      </trkpt>
      <trkpt lat="38.4061350" lon="-0.7018420">
        <ele>259.0</ele>
        <time>2018-10-14T06:42:04Z</time>
      </trkpt>
      <trkpt lat="38.4061480" lon="-0.7017180">
        <ele>259.0</ele>
        <time>2018-10-14T06:42:05Z</time>
      </trkpt>
      <trkpt lat="38.4061550" lon="-0.7016570">
        <ele>259.0</ele>
        <time>2018-10-14T06:42:06Z</time>
      </trkpt>
      <trkpt lat="38.4061550" lon="-0.7016570">
        <ele>259.0</ele>
        <time>2018-10-14T06:42:07Z</time>
      </trkpt>
      <trkpt lat="38.4061670" lon="-0.7015370">
        <ele>259.0</ele>
        <time>2018-10-14T06:42:08Z</time>
      </trkpt>
      <trkpt lat="38.4061670" lon="-0.7015370">
        <ele>259.0</ele>
        <time>2018-10-14T06:42:09Z</time>
      </trkpt>
      <trkpt lat="38.4061850" lon="-0.7014200">
        <ele>259.0</ele>
        <time>2018-10-14T06:42:10Z</time>
      </trkpt>
      <trkpt lat="38.4061950" lon="-0.7013580">
        <ele>259.0</ele>
        <time>2018-10-14T06:42:11Z</time>
      </trkpt>
      <trkpt lat="38.4061950" lon="-0.7013580">
        <ele>259.0</ele>
        <time>2018-10-14T06:42:12Z</time>
      </trkpt>
      <trkpt lat="38.4062150" lon="-0.7012330">
        <ele>259.0</ele>
        <time>2018-10-14T06:42:13Z</time>
      </trkpt>
      <trkpt lat="38.4062250" lon="-0.7011700">
        <ele>259.0</ele>
        <time>2018-10-14T06:42:14Z</time>
      </trkpt>
      <trkpt lat="38.4062250" lon="-0.7011700">
        <ele>259.0</ele>
        <time>2018-10-14T06:42:15Z</time>
      </trkpt>
      <trkpt lat="38.4062420" lon="-0.7010430">
        <ele>259.0</ele>
        <time>2018-10-14T06:42:16Z</time>
      </trkpt>
      <trkpt lat="38.4062420" lon="-0.7010430">
        <ele>259.0</ele>
        <time>2018-10-14T06:42:17Z</time>
      </trkpt>
      <trkpt lat="38.4062600" lon="-0.7009270">
        <ele>259.0</ele>
        <time>2018-10-14T06:42:18Z</time>
      </trkpt>
      <trkpt lat="38.4062600" lon="-0.7009270">
        <ele>259.0</ele>
        <time>2018-10-14T06:42:19Z</time>
      </trkpt>
      <trkpt lat="38.4062800" lon="-0.7008170">
        <ele>259.0</ele>
        <time>2018-10-14T06:42:20Z</time>
      </trkpt>
      <trkpt lat="38.4062800" lon="-0.7008170">
        <ele>259.0</ele>
        <time>2018-10-14T06:42:21Z</time>
      </trkpt>
      <trkpt lat="38.4062970" lon="-0.7006980">
        <ele>259.0</ele>
        <time>2018-10-14T06:42:22Z</time>
      </trkpt>
      <trkpt lat="38.4062970" lon="-0.7006980">
        <ele>259.0</ele>
        <time>2018-10-14T06:42:23Z</time>
      </trkpt>
      <trkpt lat="38.4063150" lon="-0.7005780">
        <ele>259.0</ele>
        <time>2018-10-14T06:42:24Z</time>
      </trkpt>
      <trkpt lat="38.4063150" lon="-0.7005780">
        <ele>259.0</ele>
        <time>2018-10-14T06:42:25Z</time>
      </trkpt>
      <trkpt lat="38.4063350" lon="-0.7004580">
        <ele>259.0</ele>
        <time>2018-10-14T06:42:26Z</time>
      </trkpt>
      <trkpt lat="38.4063350" lon="-0.7004580">
        <ele>259.0</ele>
        <time>2018-10-14T06:42:27Z</time>
      </trkpt>
      <trkpt lat="38.4063530" lon="-0.7003400">
        <ele>259.0</ele>
        <time>2018-10-14T06:42:28Z</time>
      </trkpt>
      <trkpt lat="38.4063530" lon="-0.7003400">
        <ele>259.0</ele>
        <time>2018-10-14T06:42:29Z</time>
      </trkpt>
      <trkpt lat="38.4063700" lon="-0.7002170">
        <ele>259.0</ele>
        <time>2018-10-14T06:42:30Z</time>
      </trkpt>
      <trkpt lat="38.4063700" lon="-0.7002170">
        <ele>259.0</ele>
        <time>2018-10-14T06:42:31Z</time>
      </trkpt>
      <trkpt lat="38.4063880" lon="-0.7000950">
        <ele>259.0</ele>
        <time>2018-10-14T06:42:32Z</time>
      </trkpt>
      <trkpt lat="38.4063880" lon="-0.7000950">
        <ele>259.0</ele>
        <time>2018-10-14T06:42:33Z</time>
      </trkpt>
      <trkpt lat="38.4064080" lon="-0.6999730">
        <ele>259.0</ele>
        <time>2018-10-14T06:42:34Z</time>
      </trkpt>
      <trkpt lat="38.4064080" lon="-0.6999730">
        <ele>259.0</ele>
        <time>2018-10-14T06:42:35Z</time>
      </trkpt>
      <trkpt lat="38.4064270" lon="-0.6998530">
        <ele>259.0</ele>
        <time>2018-10-14T06:42:36Z</time>
      </trkpt>
      <trkpt lat="38.4064350" lon="-0.6997930">
        <ele>259.0</ele>
        <time>2018-10-14T06:42:37Z</time>
      </trkpt>
      <trkpt lat="38.4064430" lon="-0.6997350">
        <ele>259.0</ele>
        <time>2018-10-14T06:42:38Z</time>
      </trkpt>
      <trkpt lat="38.4064430" lon="-0.6997350">
        <ele>259.0</ele>
        <time>2018-10-14T06:42:39Z</time>
      </trkpt>
      <trkpt lat="38.4064580" lon="-0.6996220">
        <ele>259.0</ele>
        <time>2018-10-14T06:42:40Z</time>
      </trkpt>
      <trkpt lat="38.4064670" lon="-0.6995670">
        <ele>259.0</ele>
        <time>2018-10-14T06:42:41Z</time>
      </trkpt>
      <trkpt lat="38.4064670" lon="-0.6995670">
        <ele>259.0</ele>
        <time>2018-10-14T06:42:42Z</time>
      </trkpt>
      <trkpt lat="38.4064850" lon="-0.6994550">
        <ele>259.0</ele>
        <time>2018-10-14T06:42:43Z</time>
      </trkpt>
      <trkpt lat="38.4064950" lon="-0.6994000">
        <ele>260.0</ele>
        <time>2018-10-14T06:42:44Z</time>
      </trkpt>
      <trkpt lat="38.4064950" lon="-0.6994000">
        <ele>260.0</ele>
        <time>2018-10-14T06:42:45Z</time>
      </trkpt>
      <trkpt lat="38.4065130" lon="-0.6992850">
        <ele>260.0</ele>
        <time>2018-10-14T06:42:46Z</time>
      </trkpt>
      <trkpt lat="38.4065130" lon="-0.6992850">
        <ele>260.0</ele>
        <time>2018-10-14T06:42:47Z</time>
      </trkpt>
      <trkpt lat="38.4065300" lon="-0.6991720">
        <ele>260.0</ele>
        <time>2018-10-14T06:42:48Z</time>
      </trkpt>
      <trkpt lat="38.4065300" lon="-0.6991720">
        <ele>260.0</ele>
        <time>2018-10-14T06:42:49Z</time>
      </trkpt>
      <trkpt lat="38.4065450" lon="-0.6990630">
        <ele>261.0</ele>
        <time>2018-10-14T06:42:50Z</time>
      </trkpt>
      <trkpt lat="38.4065450" lon="-0.6990630">
        <ele>261.0</ele>
        <time>2018-10-14T06:42:51Z</time>
      </trkpt>
      <trkpt lat="38.4065620" lon="-0.6989520">
        <ele>261.0</ele>
        <time>2018-10-14T06:42:52Z</time>
      </trkpt>
      <trkpt lat="38.4065620" lon="-0.6989520">
        <ele>261.0</ele>
        <time>2018-10-14T06:42:53Z</time>
      </trkpt>
      <trkpt lat="38.4065770" lon="-0.6988380">
        <ele>261.0</ele>
        <time>2018-10-14T06:42:54Z</time>
      </trkpt>
      <trkpt lat="38.4065850" lon="-0.6987820">
        <ele>261.0</ele>
        <time>2018-10-14T06:42:55Z</time>
      </trkpt>
      <trkpt lat="38.4065850" lon="-0.6987820">
        <ele>261.0</ele>
        <time>2018-10-14T06:42:56Z</time>
      </trkpt>
      <trkpt lat="38.4066020" lon="-0.6986620">
        <ele>261.0</ele>
        <time>2018-10-14T06:42:57Z</time>
      </trkpt>
      <trkpt lat="38.4066100" lon="-0.6986030">
        <ele>261.0</ele>
        <time>2018-10-14T06:42:58Z</time>
      </trkpt>
      <trkpt lat="38.4066100" lon="-0.6986030">
        <ele>261.0</ele>
        <time>2018-10-14T06:42:59Z</time>
      </trkpt>
      <trkpt lat="38.4066280" lon="-0.6984870">
        <ele>261.0</ele>
        <time>2018-10-14T06:43:00Z</time>
      </trkpt>
      <trkpt lat="38.4066370" lon="-0.6984280">
        <ele>261.0</ele>
        <time>2018-10-14T06:43:01Z</time>
      </trkpt>
      <trkpt lat="38.4066450" lon="-0.6983670">
        <ele>261.0</ele>
        <time>2018-10-14T06:43:02Z</time>
      </trkpt>
      <trkpt lat="38.4066450" lon="-0.6983670">
        <ele>261.0</ele>
        <time>2018-10-14T06:43:03Z</time>
      </trkpt>
      <trkpt lat="38.4066600" lon="-0.6982450">
        <ele>261.0</ele>
        <time>2018-10-14T06:43:04Z</time>
      </trkpt>
      <trkpt lat="38.4066600" lon="-0.6982450">
        <ele>261.0</ele>
        <time>2018-10-14T06:43:05Z</time>
      </trkpt>
      <trkpt lat="38.4066720" lon="-0.6981230">
        <ele>261.0</ele>
        <time>2018-10-14T06:43:06Z</time>
      </trkpt>
      <trkpt lat="38.4066770" lon="-0.6980650">
        <ele>261.0</ele>
        <time>2018-10-14T06:43:07Z</time>
      </trkpt>
      <trkpt lat="38.4066770" lon="-0.6980650">
        <ele>261.0</ele>
        <time>2018-10-14T06:43:08Z</time>
      </trkpt>
      <trkpt lat="38.4066930" lon="-0.6979630">
        <ele>261.0</ele>
        <time>2018-10-14T06:43:09Z</time>
      </trkpt>
      <trkpt lat="38.4066930" lon="-0.6979630">
        <ele>262.0</ele>
        <time>2018-10-14T06:43:10Z</time>
      </trkpt>
      <trkpt lat="38.4067270" lon="-0.6978800">
        <ele>262.0</ele>
        <time>2018-10-14T06:43:11Z</time>
      </trkpt>
      <trkpt lat="38.4067270" lon="-0.6978800">
        <ele>262.0</ele>
        <time>2018-10-14T06:43:12Z</time>
      </trkpt>
      <trkpt lat="38.4067880" lon="-0.6978330">
        <ele>262.0</ele>
        <time>2018-10-14T06:43:13Z</time>
      </trkpt>
      <trkpt lat="38.4067880" lon="-0.6978330">
        <ele>263.0</ele>
        <time>2018-10-14T06:43:14Z</time>
      </trkpt>
      <trkpt lat="38.4068670" lon="-0.6978150">
        <ele>263.0</ele>
        <time>2018-10-14T06:43:15Z</time>
      </trkpt>
      <trkpt lat="38.4068670" lon="-0.6978150">
        <ele>263.0</ele>
        <time>2018-10-14T06:43:16Z</time>
      </trkpt>
      <trkpt lat="38.4069500" lon="-0.6978020">
        <ele>263.0</ele>
        <time>2018-10-14T06:43:17Z</time>
      </trkpt>
      <trkpt lat="38.4069900" lon="-0.6977970">
        <ele>263.0</ele>
        <time>2018-10-14T06:43:18Z</time>
      </trkpt>
      <trkpt lat="38.4069900" lon="-0.6977970">
        <ele>263.0</ele>
        <time>2018-10-14T06:43:19Z</time>
      </trkpt>
      <trkpt lat="38.4070670" lon="-0.6977780">
        <ele>263.0</ele>
        <time>2018-10-14T06:43:20Z</time>
      </trkpt>
      <trkpt lat="38.4070670" lon="-0.6977780">
        <ele>263.0</ele>
        <time>2018-10-14T06:43:21Z</time>
      </trkpt>
      <trkpt lat="38.4071480" lon="-0.6977680">
        <ele>263.0</ele>
        <time>2018-10-14T06:43:22Z</time>
      </trkpt>
      <trkpt lat="38.4071880" lon="-0.6977670">
        <ele>263.0</ele>
        <time>2018-10-14T06:43:23Z</time>
      </trkpt>
      <trkpt lat="38.4071880" lon="-0.6977670">
        <ele>263.0</ele>
        <time>2018-10-14T06:43:24Z</time>
      </trkpt>
      <trkpt lat="38.4072720" lon="-0.6977630">
        <ele>263.0</ele>
        <time>2018-10-14T06:43:25Z</time>
      </trkpt>
      <trkpt lat="38.4072720" lon="-0.6977630">
        <ele>263.0</ele>
        <time>2018-10-14T06:43:26Z</time>
      </trkpt>
      <trkpt lat="38.4073530" lon="-0.6977620">
        <ele>263.0</ele>
        <time>2018-10-14T06:43:27Z</time>
      </trkpt>
      <trkpt lat="38.4073530" lon="-0.6977620">
        <ele>263.0</ele>
        <time>2018-10-14T06:43:28Z</time>
      </trkpt>
      <trkpt lat="38.4074300" lon="-0.6977570">
        <ele>263.0</ele>
        <time>2018-10-14T06:43:29Z</time>
      </trkpt>
      <trkpt lat="38.4074300" lon="-0.6977570">
        <ele>264.0</ele>
        <time>2018-10-14T06:43:30Z</time>
      </trkpt>
      <trkpt lat="38.4075100" lon="-0.6977480">
        <ele>264.0</ele>
        <time>2018-10-14T06:43:31Z</time>
      </trkpt>
      <trkpt lat="38.4075500" lon="-0.6977450">
        <ele>264.0</ele>
        <time>2018-10-14T06:43:32Z</time>
      </trkpt>
      <trkpt lat="38.4075500" lon="-0.6977450">
        <ele>264.0</ele>
        <time>2018-10-14T06:43:33Z</time>
      </trkpt>
      <trkpt lat="38.4076330" lon="-0.6977420">
        <ele>264.0</ele>
        <time>2018-10-14T06:43:34Z</time>
      </trkpt>
      <trkpt lat="38.4076730" lon="-0.6977380">
        <ele>264.0</ele>
        <time>2018-10-14T06:43:35Z</time>
      </trkpt>
      <trkpt lat="38.4077130" lon="-0.6977350">
        <ele>264.0</ele>
        <time>2018-10-14T06:43:36Z</time>
      </trkpt>
      <trkpt lat="38.4077130" lon="-0.6977350">
        <ele>264.0</ele>
        <time>2018-10-14T06:43:37Z</time>
      </trkpt>
      <trkpt lat="38.4077950" lon="-0.6977270">
        <ele>264.0</ele>
        <time>2018-10-14T06:43:38Z</time>
      </trkpt>
      <trkpt lat="38.4077950" lon="-0.6977270">
        <ele>265.0</ele>
        <time>2018-10-14T06:43:39Z</time>
      </trkpt>
      <trkpt lat="38.4078770" lon="-0.6977180">
        <ele>265.0</ele>
        <time>2018-10-14T06:43:40Z</time>
      </trkpt>
      <trkpt lat="38.4078770" lon="-0.6977180">
        <ele>265.0</ele>
        <time>2018-10-14T06:43:41Z</time>
      </trkpt>
      <trkpt lat="38.4079570" lon="-0.6977120">
        <ele>265.0</ele>
        <time>2018-10-14T06:43:42Z</time>
      </trkpt>
      <trkpt lat="38.4079970" lon="-0.6977100">
        <ele>265.0</ele>
        <time>2018-10-14T06:43:43Z</time>
      </trkpt>
      <trkpt lat="38.4079970" lon="-0.6977100">
        <ele>265.0</ele>
        <time>2018-10-14T06:43:44Z</time>
      </trkpt>
      <trkpt lat="38.4080720" lon="-0.6977050">
        <ele>265.0</ele>
        <time>2018-10-14T06:43:45Z</time>
      </trkpt>
      <trkpt lat="38.4080720" lon="-0.6977050">
        <ele>265.0</ele>
        <time>2018-10-14T06:43:46Z</time>
      </trkpt>
      <trkpt lat="38.4081470" lon="-0.6976980">
        <ele>266.0</ele>
        <time>2018-10-14T06:43:47Z</time>
      </trkpt>
      <trkpt lat="38.4081470" lon="-0.6976980">
        <ele>266.0</ele>
        <time>2018-10-14T06:43:48Z</time>
      </trkpt>
      <trkpt lat="38.4082220" lon="-0.6976880">
        <ele>266.0</ele>
        <time>2018-10-14T06:43:49Z</time>
      </trkpt>
      <trkpt lat="38.4082220" lon="-0.6976880">
        <ele>266.0</ele>
        <time>2018-10-14T06:43:50Z</time>
      </trkpt>
      <trkpt lat="38.4082970" lon="-0.6976780">
        <ele>266.0</ele>
        <time>2018-10-14T06:43:51Z</time>
      </trkpt>
      <trkpt lat="38.4083330" lon="-0.6976750">
        <ele>266.0</ele>
        <time>2018-10-14T06:43:52Z</time>
      </trkpt>
      <trkpt lat="38.4083330" lon="-0.6976750">
        <ele>267.0</ele>
        <time>2018-10-14T06:43:53Z</time>
      </trkpt>
      <trkpt lat="38.4084080" lon="-0.6976670">
        <ele>267.0</ele>
        <time>2018-10-14T06:43:54Z</time>
      </trkpt>
      <trkpt lat="38.4084480" lon="-0.6976620">
        <ele>267.0</ele>
        <time>2018-10-14T06:43:55Z</time>
      </trkpt>
      <trkpt lat="38.4084480" lon="-0.6976620">
        <ele>267.0</ele>
        <time>2018-10-14T06:43:56Z</time>
      </trkpt>
      <trkpt lat="38.4085280" lon="-0.6976650">
        <ele>267.0</ele>
        <time>2018-10-14T06:43:57Z</time>
      </trkpt>
      <trkpt lat="38.4085700" lon="-0.6976670">
        <ele>267.0</ele>
        <time>2018-10-14T06:43:58Z</time>
      </trkpt>
      <trkpt lat="38.4085700" lon="-0.6976670">
        <ele>267.0</ele>
        <time>2018-10-14T06:43:59Z</time>
      </trkpt>
      <trkpt lat="38.4086550" lon="-0.6976650">
        <ele>267.0</ele>
        <time>2018-10-14T06:44:00Z</time>
      </trkpt>
      <trkpt lat="38.4086970" lon="-0.6976580">
        <ele>267.0</ele>
        <time>2018-10-14T06:44:01Z</time>
      </trkpt>
      <trkpt lat="38.4086970" lon="-0.6976580">
        <ele>267.0</ele>
        <time>2018-10-14T06:44:02Z</time>
      </trkpt>
      <trkpt lat="38.4087770" lon="-0.6976500">
        <ele>268.0</ele>
        <time>2018-10-14T06:44:03Z</time>
      </trkpt>
      <trkpt lat="38.4088150" lon="-0.6976470">
        <ele>268.0</ele>
        <time>2018-10-14T06:44:04Z</time>
      </trkpt>
      <trkpt lat="38.4088150" lon="-0.6976470">
        <ele>268.0</ele>
        <time>2018-10-14T06:44:05Z</time>
      </trkpt>
      <trkpt lat="38.4088930" lon="-0.6976450">
        <ele>268.0</ele>
        <time>2018-10-14T06:44:06Z</time>
      </trkpt>
      <trkpt lat="38.4089350" lon="-0.6976430">
        <ele>268.0</ele>
        <time>2018-10-14T06:44:07Z</time>
      </trkpt>
      <trkpt lat="38.4089350" lon="-0.6976430">
        <ele>268.0</ele>
        <time>2018-10-14T06:44:08Z</time>
      </trkpt>
      <trkpt lat="38.4090200" lon="-0.6976330">
        <ele>269.0</ele>
        <time>2018-10-14T06:44:09Z</time>
      </trkpt>
      <trkpt lat="38.4090200" lon="-0.6976330">
        <ele>269.0</ele>
        <time>2018-10-14T06:44:10Z</time>
      </trkpt>
      <trkpt lat="38.4091050" lon="-0.6976250">
        <ele>269.0</ele>
        <time>2018-10-14T06:44:11Z</time>
      </trkpt>
      <trkpt lat="38.4091450" lon="-0.6976220">
        <ele>269.0</ele>
        <time>2018-10-14T06:44:12Z</time>
      </trkpt>
      <trkpt lat="38.4091870" lon="-0.6976200">
        <ele>269.0</ele>
        <time>2018-10-14T06:44:13Z</time>
      </trkpt>
      <trkpt lat="38.4091870" lon="-0.6976200">
        <ele>269.0</ele>
        <time>2018-10-14T06:44:14Z</time>
      </trkpt>
      <trkpt lat="38.4092670" lon="-0.6976130">
        <ele>269.0</ele>
        <time>2018-10-14T06:44:15Z</time>
      </trkpt>
      <trkpt lat="38.4092670" lon="-0.6976130">
        <ele>269.0</ele>
        <time>2018-10-14T06:44:16Z</time>
      </trkpt>
      <trkpt lat="38.4093420" lon="-0.6976050">
        <ele>269.0</ele>
        <time>2018-10-14T06:44:17Z</time>
      </trkpt>
      <trkpt lat="38.4093420" lon="-0.6976050">
        <ele>269.0</ele>
        <time>2018-10-14T06:44:18Z</time>
      </trkpt>
      <trkpt lat="38.4094150" lon="-0.6976000">
        <ele>269.0</ele>
        <time>2018-10-14T06:44:19Z</time>
      </trkpt>
      <trkpt lat="38.4094520" lon="-0.6975970">
        <ele>269.0</ele>
        <time>2018-10-14T06:44:20Z</time>
      </trkpt>
      <trkpt lat="38.4094520" lon="-0.6975970">
        <ele>269.0</ele>
        <time>2018-10-14T06:44:21Z</time>
      </trkpt>
      <trkpt lat="38.4095270" lon="-0.6975900">
        <ele>269.0</ele>
        <time>2018-10-14T06:44:22Z</time>
      </trkpt>
      <trkpt lat="38.4095270" lon="-0.6975900">
        <ele>269.0</ele>
        <time>2018-10-14T06:44:23Z</time>
      </trkpt>
      <trkpt lat="38.4095980" lon="-0.6975820">
        <ele>269.0</ele>
        <time>2018-10-14T06:44:24Z</time>
      </trkpt>
      <trkpt lat="38.4095980" lon="-0.6975820">
        <ele>270.0</ele>
        <time>2018-10-14T06:44:25Z</time>
      </trkpt>
      <trkpt lat="38.4096750" lon="-0.6975730">
        <ele>270.0</ele>
        <time>2018-10-14T06:44:26Z</time>
      </trkpt>
      <trkpt lat="38.4096750" lon="-0.6975730">
        <ele>270.0</ele>
        <time>2018-10-14T06:44:27Z</time>
      </trkpt>
      <trkpt lat="38.4097470" lon="-0.6975650">
        <ele>270.0</ele>
        <time>2018-10-14T06:44:28Z</time>
      </trkpt>
      <trkpt lat="38.4097470" lon="-0.6975650">
        <ele>270.0</ele>
        <time>2018-10-14T06:44:29Z</time>
      </trkpt>
      <trkpt lat="38.4098050" lon="-0.6975580">
        <ele>270.0</ele>
        <time>2018-10-14T06:44:30Z</time>
      </trkpt>
      <trkpt lat="38.4098050" lon="-0.6975580">
        <ele>270.0</ele>
        <time>2018-10-14T06:44:31Z</time>
      </trkpt>
      <trkpt lat="38.4098470" lon="-0.6975500">
        <ele>271.0</ele>
        <time>2018-10-14T06:44:32Z</time>
      </trkpt>
      <trkpt lat="38.4098470" lon="-0.6975500">
        <ele>271.0</ele>
        <time>2018-10-14T06:44:33Z</time>
      </trkpt>
      <trkpt lat="38.4098800" lon="-0.6975330">
        <ele>271.0</ele>
        <time>2018-10-14T06:44:34Z</time>
      </trkpt>
      <trkpt lat="38.4098930" lon="-0.6975250">
        <ele>271.0</ele>
        <time>2018-10-14T06:44:35Z</time>
      </trkpt>
      <trkpt lat="38.4098930" lon="-0.6975250">
        <ele>271.0</ele>
        <time>2018-10-14T06:44:36Z</time>
      </trkpt>
      <trkpt lat="38.4099170" lon="-0.6975050">
        <ele>271.0</ele>
        <time>2018-10-14T06:44:37Z</time>
      </trkpt>
      <trkpt lat="38.4099230" lon="-0.6974920">
        <ele>271.0</ele>
        <time>2018-10-14T06:44:38Z</time>
      </trkpt>
      <trkpt lat="38.4099230" lon="-0.6974920">
        <ele>271.0</ele>
        <time>2018-10-14T06:44:39Z</time>
      </trkpt>
      <trkpt lat="38.4099320" lon="-0.6974550">
        <ele>271.0</ele>
        <time>2018-10-14T06:44:40Z</time>
      </trkpt>
      <trkpt lat="38.4099320" lon="-0.6974550">
        <ele>271.0</ele>
        <time>2018-10-14T06:44:41Z</time>
      </trkpt>
      <trkpt lat="38.4099300" lon="-0.6974150">
        <ele>271.0</ele>
        <time>2018-10-14T06:44:42Z</time>
      </trkpt>
      <trkpt lat="38.4099300" lon="-0.6974150">
        <ele>271.0</ele>
        <time>2018-10-14T06:44:43Z</time>
      </trkpt>
      <trkpt lat="38.4099250" lon="-0.6973700">
        <ele>271.0</ele>
        <time>2018-10-14T06:44:44Z</time>
      </trkpt>
      <trkpt lat="38.4099250" lon="-0.6973700">
        <ele>271.0</ele>
        <time>2018-10-14T06:44:45Z</time>
      </trkpt>
      <trkpt lat="38.4099000" lon="-0.6972920">
        <ele>271.0</ele>
        <time>2018-10-14T06:44:46Z</time>
      </trkpt>
      <trkpt lat="38.4099000" lon="-0.6972920">
        <ele>271.0</ele>
        <time>2018-10-14T06:44:47Z</time>
      </trkpt>
      <trkpt lat="38.4098600" lon="-0.6971930">
        <ele>271.0</ele>
        <time>2018-10-14T06:44:48Z</time>
      </trkpt>
      <trkpt lat="38.4098600" lon="-0.6971930">
        <ele>271.0</ele>
        <time>2018-10-14T06:44:49Z</time>
      </trkpt>
      <trkpt lat="38.4097830" lon="-0.6971400">
        <ele>271.0</ele>
        <time>2018-10-14T06:44:50Z</time>
      </trkpt>
      <trkpt lat="38.4097830" lon="-0.6971400">
        <ele>271.0</ele>
        <time>2018-10-14T06:44:51Z</time>
      </trkpt>
      <trkpt lat="38.4096830" lon="-0.6971300">
        <ele>271.0</ele>
        <time>2018-10-14T06:44:52Z</time>
      </trkpt>
      <trkpt lat="38.4096830" lon="-0.6971300">
        <ele>271.0</ele>
        <time>2018-10-14T06:44:53Z</time>
      </trkpt>
      <trkpt lat="38.4095800" lon="-0.6971350">
        <ele>271.0</ele>
        <time>2018-10-14T06:44:54Z</time>
      </trkpt>
      <trkpt lat="38.4095800" lon="-0.6971350">
        <ele>271.0</ele>
        <time>2018-10-14T06:44:55Z</time>
      </trkpt>
      <trkpt lat="38.4094830" lon="-0.6971400">
        <ele>271.0</ele>
        <time>2018-10-14T06:44:56Z</time>
      </trkpt>
      <trkpt lat="38.4094830" lon="-0.6971400">
        <ele>271.0</ele>
        <time>2018-10-14T06:44:57Z</time>
      </trkpt>
      <trkpt lat="38.4094000" lon="-0.6971420">
        <ele>271.0</ele>
        <time>2018-10-14T06:44:58Z</time>
      </trkpt>
      <trkpt lat="38.4094000" lon="-0.6971420">
        <ele>271.0</ele>
        <time>2018-10-14T06:44:59Z</time>
      </trkpt>
      <trkpt lat="38.4093150" lon="-0.6971430">
        <ele>271.0</ele>
        <time>2018-10-14T06:45:00Z</time>
      </trkpt>
      <trkpt lat="38.4092650" lon="-0.6971450">
        <ele>271.0</ele>
        <time>2018-10-14T06:45:01Z</time>
      </trkpt>
      <trkpt lat="38.4092650" lon="-0.6971450">
        <ele>270.0</ele>
        <time>2018-10-14T06:45:02Z</time>
      </trkpt>
      <trkpt lat="38.4091620" lon="-0.6971400">
        <ele>270.0</ele>
        <time>2018-10-14T06:45:03Z</time>
      </trkpt>
      <trkpt lat="38.4091620" lon="-0.6971400">
        <ele>270.0</ele>
        <time>2018-10-14T06:45:04Z</time>
      </trkpt>
      <trkpt lat="38.4090530" lon="-0.6971280">
        <ele>270.0</ele>
        <time>2018-10-14T06:45:05Z</time>
      </trkpt>
      <trkpt lat="38.4090530" lon="-0.6971280">
        <ele>270.0</ele>
        <time>2018-10-14T06:45:06Z</time>
      </trkpt>
      <trkpt lat="38.4089420" lon="-0.6971180">
        <ele>270.0</ele>
        <time>2018-10-14T06:45:07Z</time>
      </trkpt>
      <trkpt lat="38.4088830" lon="-0.6971150">
        <ele>270.0</ele>
        <time>2018-10-14T06:45:08Z</time>
      </trkpt>
      <trkpt lat="38.4088830" lon="-0.6971150">
        <ele>270.0</ele>
        <time>2018-10-14T06:45:09Z</time>
      </trkpt>
      <trkpt lat="38.4087670" lon="-0.6971130">
        <ele>269.0</ele>
        <time>2018-10-14T06:45:10Z</time>
      </trkpt>
      <trkpt lat="38.4087670" lon="-0.6971130">
        <ele>269.0</ele>
        <time>2018-10-14T06:45:11Z</time>
      </trkpt>
      <trkpt lat="38.4086500" lon="-0.6971130">
        <ele>269.0</ele>
        <time>2018-10-14T06:45:12Z</time>
      </trkpt>
      <trkpt lat="38.4085980" lon="-0.6971120">
        <ele>269.0</ele>
        <time>2018-10-14T06:45:13Z</time>
      </trkpt>
      <trkpt lat="38.4085480" lon="-0.6971100">
        <ele>269.0</ele>
        <time>2018-10-14T06:45:14Z</time>
      </trkpt>
      <trkpt lat="38.4085480" lon="-0.6971100">
        <ele>269.0</ele>
        <time>2018-10-14T06:45:15Z</time>
      </trkpt>
      <trkpt lat="38.4084480" lon="-0.6971150">
        <ele>269.0</ele>
        <time>2018-10-14T06:45:16Z</time>
      </trkpt>
      <trkpt lat="38.4084480" lon="-0.6971150">
        <ele>268.0</ele>
        <time>2018-10-14T06:45:17Z</time>
      </trkpt>
      <trkpt lat="38.4083470" lon="-0.6971250">
        <ele>268.0</ele>
        <time>2018-10-14T06:45:18Z</time>
      </trkpt>
      <trkpt lat="38.4083470" lon="-0.6971250">
        <ele>268.0</ele>
        <time>2018-10-14T06:45:19Z</time>
      </trkpt>
      <trkpt lat="38.4082380" lon="-0.6971330">
        <ele>268.0</ele>
        <time>2018-10-14T06:45:20Z</time>
      </trkpt>
      <trkpt lat="38.4082380" lon="-0.6971330">
        <ele>268.0</ele>
        <time>2018-10-14T06:45:21Z</time>
      </trkpt>
      <trkpt lat="38.4081230" lon="-0.6971350">
        <ele>268.0</ele>
        <time>2018-10-14T06:45:22Z</time>
      </trkpt>
      <trkpt lat="38.4081230" lon="-0.6971350">
        <ele>268.0</ele>
        <time>2018-10-14T06:45:23Z</time>
      </trkpt>
      <trkpt lat="38.4080030" lon="-0.6971320">
        <ele>268.0</ele>
        <time>2018-10-14T06:45:24Z</time>
      </trkpt>
      <trkpt lat="38.4080030" lon="-0.6971320">
        <ele>268.0</ele>
        <time>2018-10-14T06:45:25Z</time>
      </trkpt>
      <trkpt lat="38.4078770" lon="-0.6971280">
        <ele>268.0</ele>
        <time>2018-10-14T06:45:26Z</time>
      </trkpt>
      <trkpt lat="38.4078770" lon="-0.6971280">
        <ele>268.0</ele>
        <time>2018-10-14T06:45:27Z</time>
      </trkpt>
      <trkpt lat="38.4077500" lon="-0.6971320">
        <ele>268.0</ele>
        <time>2018-10-14T06:45:28Z</time>
      </trkpt>
      <trkpt lat="38.4076880" lon="-0.6971320">
        <ele>267.0</ele>
        <time>2018-10-14T06:45:29Z</time>
      </trkpt>
      <trkpt lat="38.4076270" lon="-0.6971300">
        <ele>267.0</ele>
        <time>2018-10-14T06:45:30Z</time>
      </trkpt>
      <trkpt lat="38.4076270" lon="-0.6971300">
        <ele>267.0</ele>
        <time>2018-10-14T06:45:31Z</time>
      </trkpt>
      <trkpt lat="38.4075050" lon="-0.6971320">
        <ele>267.0</ele>
        <time>2018-10-14T06:45:32Z</time>
      </trkpt>
      <trkpt lat="38.4075050" lon="-0.6971320">
        <ele>267.0</ele>
        <time>2018-10-14T06:45:33Z</time>
      </trkpt>
      <trkpt lat="38.4073820" lon="-0.6971350">
        <ele>266.0</ele>
        <time>2018-10-14T06:45:34Z</time>
      </trkpt>
      <trkpt lat="38.4073820" lon="-0.6971350">
        <ele>266.0</ele>
        <time>2018-10-14T06:45:35Z</time>
      </trkpt>
      <trkpt lat="38.4072650" lon="-0.6971400">
        <ele>266.0</ele>
        <time>2018-10-14T06:45:36Z</time>
      </trkpt>
      <trkpt lat="38.4072650" lon="-0.6971400">
        <ele>266.0</ele>
        <time>2018-10-14T06:45:37Z</time>
      </trkpt>
      <trkpt lat="38.4071500" lon="-0.6971430">
        <ele>266.0</ele>
        <time>2018-10-14T06:45:38Z</time>
      </trkpt>
      <trkpt lat="38.4071500" lon="-0.6971430">
        <ele>266.0</ele>
        <time>2018-10-14T06:45:39Z</time>
      </trkpt>
      <trkpt lat="38.4070370" lon="-0.6971420">
        <ele>266.0</ele>
        <time>2018-10-14T06:45:40Z</time>
      </trkpt>
      <trkpt lat="38.4070370" lon="-0.6971420">
        <ele>266.0</ele>
        <time>2018-10-14T06:45:41Z</time>
      </trkpt>
      <trkpt lat="38.4069450" lon="-0.6970800">
        <ele>265.0</ele>
        <time>2018-10-14T06:45:42Z</time>
      </trkpt>
      <trkpt lat="38.4069450" lon="-0.6970800">
        <ele>265.0</ele>
        <time>2018-10-14T06:45:43Z</time>
      </trkpt>
      <trkpt lat="38.4069180" lon="-0.6969480">
        <ele>265.0</ele>
        <time>2018-10-14T06:45:44Z</time>
      </trkpt>
      <trkpt lat="38.4069180" lon="-0.6969480">
        <ele>265.0</ele>
        <time>2018-10-14T06:45:45Z</time>
      </trkpt>
      <trkpt lat="38.4069370" lon="-0.6967970">
        <ele>265.0</ele>
        <time>2018-10-14T06:45:46Z</time>
      </trkpt>
      <trkpt lat="38.4069370" lon="-0.6967970">
        <ele>265.0</ele>
        <time>2018-10-14T06:45:47Z</time>
      </trkpt>
      <trkpt lat="38.4069570" lon="-0.6966500">
        <ele>265.0</ele>
        <time>2018-10-14T06:45:48Z</time>
      </trkpt>
      <trkpt lat="38.4069570" lon="-0.6966500">
        <ele>265.0</ele>
        <time>2018-10-14T06:45:49Z</time>
      </trkpt>
      <trkpt lat="38.4069780" lon="-0.6965020">
        <ele>265.0</ele>
        <time>2018-10-14T06:45:50Z</time>
      </trkpt>
      <trkpt lat="38.4069780" lon="-0.6965020">
        <ele>265.0</ele>
        <time>2018-10-14T06:45:51Z</time>
      </trkpt>
      <trkpt lat="38.4069980" lon="-0.6963570">
        <ele>265.0</ele>
        <time>2018-10-14T06:45:52Z</time>
      </trkpt>
      <trkpt lat="38.4069980" lon="-0.6963570">
        <ele>265.0</ele>
        <time>2018-10-14T06:45:53Z</time>
      </trkpt>
      <trkpt lat="38.4070170" lon="-0.6962180">
        <ele>265.0</ele>
        <time>2018-10-14T06:45:54Z</time>
      </trkpt>
      <trkpt lat="38.4070170" lon="-0.6962180">
        <ele>265.0</ele>
        <time>2018-10-14T06:45:55Z</time>
      </trkpt>
      <trkpt lat="38.4070370" lon="-0.6960850">
        <ele>265.0</ele>
        <time>2018-10-14T06:45:56Z</time>
      </trkpt>
      <trkpt lat="38.4070370" lon="-0.6960850">
        <ele>265.0</ele>
        <time>2018-10-14T06:45:57Z</time>
      </trkpt>
      <trkpt lat="38.4070530" lon="-0.6959550">
        <ele>265.0</ele>
        <time>2018-10-14T06:45:58Z</time>
      </trkpt>
      <trkpt lat="38.4070530" lon="-0.6959550">
        <ele>265.0</ele>
        <time>2018-10-14T06:45:59Z</time>
      </trkpt>
      <trkpt lat="38.4070680" lon="-0.6958250">
        <ele>265.0</ele>
        <time>2018-10-14T06:46:00Z</time>
      </trkpt>
      <trkpt lat="38.4070780" lon="-0.6957570">
        <ele>265.0</ele>
        <time>2018-10-14T06:46:01Z</time>
      </trkpt>
      <trkpt lat="38.4070900" lon="-0.6956900">
        <ele>265.0</ele>
        <time>2018-10-14T06:46:02Z</time>
      </trkpt>
      <trkpt lat="38.4070900" lon="-0.6956900">
        <ele>265.0</ele>
        <time>2018-10-14T06:46:03Z</time>
      </trkpt>
      <trkpt lat="38.4071100" lon="-0.6955600">
        <ele>265.0</ele>
        <time>2018-10-14T06:46:04Z</time>
      </trkpt>
      <trkpt lat="38.4071180" lon="-0.6954950">
        <ele>265.0</ele>
        <time>2018-10-14T06:46:05Z</time>
      </trkpt>
      <trkpt lat="38.4071270" lon="-0.6954280">
        <ele>265.0</ele>
        <time>2018-10-14T06:46:06Z</time>
      </trkpt>
      <trkpt lat="38.4071270" lon="-0.6954280">
        <ele>265.0</ele>
        <time>2018-10-14T06:46:07Z</time>
      </trkpt>
      <trkpt lat="38.4071400" lon="-0.6952970">
        <ele>265.0</ele>
        <time>2018-10-14T06:46:08Z</time>
      </trkpt>
      <trkpt lat="38.4071470" lon="-0.6952300">
        <ele>265.0</ele>
        <time>2018-10-14T06:46:09Z</time>
      </trkpt>
      <trkpt lat="38.4071470" lon="-0.6952300">
        <ele>265.0</ele>
        <time>2018-10-14T06:46:10Z</time>
      </trkpt>
      <trkpt lat="38.4071630" lon="-0.6951020">
        <ele>265.0</ele>
        <time>2018-10-14T06:46:11Z</time>
      </trkpt>
      <trkpt lat="38.4071720" lon="-0.6950380">
        <ele>265.0</ele>
        <time>2018-10-14T06:46:12Z</time>
      </trkpt>
      <trkpt lat="38.4071720" lon="-0.6950380">
        <ele>265.0</ele>
        <time>2018-10-14T06:46:13Z</time>
      </trkpt>
      <trkpt lat="38.4071900" lon="-0.6949100">
        <ele>265.0</ele>
        <time>2018-10-14T06:46:14Z</time>
      </trkpt>
      <trkpt lat="38.4071900" lon="-0.6949100">
        <ele>265.0</ele>
        <time>2018-10-14T06:46:15Z</time>
      </trkpt>
      <trkpt lat="38.4072070" lon="-0.6947800">
        <ele>265.0</ele>
        <time>2018-10-14T06:46:16Z</time>
      </trkpt>
      <trkpt lat="38.4072150" lon="-0.6947170">
        <ele>265.0</ele>
        <time>2018-10-14T06:46:17Z</time>
      </trkpt>
      <trkpt lat="38.4072150" lon="-0.6947170">
        <ele>264.0</ele>
        <time>2018-10-14T06:46:18Z</time>
      </trkpt>
      <trkpt lat="38.4072320" lon="-0.6945900">
        <ele>264.0</ele>
        <time>2018-10-14T06:46:19Z</time>
      </trkpt>
      <trkpt lat="38.4072400" lon="-0.6945270">
        <ele>264.0</ele>
        <time>2018-10-14T06:46:20Z</time>
      </trkpt>
      <trkpt lat="38.4072400" lon="-0.6945270">
        <ele>264.0</ele>
        <time>2018-10-14T06:46:21Z</time>
      </trkpt>
      <trkpt lat="38.4072580" lon="-0.6944020">
        <ele>264.0</ele>
        <time>2018-10-14T06:46:22Z</time>
      </trkpt>
      <trkpt lat="38.4072580" lon="-0.6944020">
        <ele>264.0</ele>
        <time>2018-10-14T06:46:23Z</time>
      </trkpt>
      <trkpt lat="38.4072750" lon="-0.6942800">
        <ele>264.0</ele>
        <time>2018-10-14T06:46:24Z</time>
      </trkpt>
      <trkpt lat="38.4072750" lon="-0.6942800">
        <ele>264.0</ele>
        <time>2018-10-14T06:46:25Z</time>
      </trkpt>
      <trkpt lat="38.4072970" lon="-0.6941600">
        <ele>264.0</ele>
        <time>2018-10-14T06:46:26Z</time>
      </trkpt>
      <trkpt lat="38.4072970" lon="-0.6941600">
        <ele>264.0</ele>
        <time>2018-10-14T06:46:27Z</time>
      </trkpt>
      <trkpt lat="38.4073200" lon="-0.6940350">
        <ele>264.0</ele>
        <time>2018-10-14T06:46:28Z</time>
      </trkpt>
      <trkpt lat="38.4073200" lon="-0.6940350">
        <ele>264.0</ele>
        <time>2018-10-14T06:46:29Z</time>
      </trkpt>
      <trkpt lat="38.4073350" lon="-0.6939080">
        <ele>264.0</ele>
        <time>2018-10-14T06:46:30Z</time>
      </trkpt>
      <trkpt lat="38.4073420" lon="-0.6938450">
        <ele>264.0</ele>
        <time>2018-10-14T06:46:31Z</time>
      </trkpt>
      <trkpt lat="38.4073500" lon="-0.6937800">
        <ele>264.0</ele>
        <time>2018-10-14T06:46:32Z</time>
      </trkpt>
      <trkpt lat="38.4073500" lon="-0.6937800">
        <ele>264.0</ele>
        <time>2018-10-14T06:46:33Z</time>
      </trkpt>
      <trkpt lat="38.4073680" lon="-0.6936520">
        <ele>264.0</ele>
        <time>2018-10-14T06:46:34Z</time>
      </trkpt>
      <trkpt lat="38.4073680" lon="-0.6936520">
        <ele>264.0</ele>
        <time>2018-10-14T06:46:35Z</time>
      </trkpt>
      <trkpt lat="38.4073870" lon="-0.6935200">
        <ele>264.0</ele>
        <time>2018-10-14T06:46:36Z</time>
      </trkpt>
      <trkpt lat="38.4073870" lon="-0.6935200">
        <ele>264.0</ele>
        <time>2018-10-14T06:46:37Z</time>
      </trkpt>
      <trkpt lat="38.4074080" lon="-0.6933880">
        <ele>264.0</ele>
        <time>2018-10-14T06:46:38Z</time>
      </trkpt>
      <trkpt lat="38.4074170" lon="-0.6933230">
        <ele>264.0</ele>
        <time>2018-10-14T06:46:39Z</time>
      </trkpt>
      <trkpt lat="38.4074250" lon="-0.6932580">
        <ele>264.0</ele>
        <time>2018-10-14T06:46:40Z</time>
      </trkpt>
      <trkpt lat="38.4074250" lon="-0.6932580">
        <ele>264.0</ele>
        <time>2018-10-14T06:46:41Z</time>
      </trkpt>
      <trkpt lat="38.4074400" lon="-0.6931250">
        <ele>264.0</ele>
        <time>2018-10-14T06:46:42Z</time>
      </trkpt>
      <trkpt lat="38.4074480" lon="-0.6930580">
        <ele>264.0</ele>
        <time>2018-10-14T06:46:43Z</time>
      </trkpt>
      <trkpt lat="38.4074570" lon="-0.6929920">
        <ele>264.0</ele>
        <time>2018-10-14T06:46:44Z</time>
      </trkpt>
      <trkpt lat="38.4074570" lon="-0.6929920">
        <ele>263.0</ele>
        <time>2018-10-14T06:46:45Z</time>
      </trkpt>
      <trkpt lat="38.4074770" lon="-0.6928620">
        <ele>263.0</ele>
        <time>2018-10-14T06:46:46Z</time>
      </trkpt>
      <trkpt lat="38.4074770" lon="-0.6928620">
        <ele>263.0</ele>
        <time>2018-10-14T06:46:47Z</time>
      </trkpt>
      <trkpt lat="38.4074950" lon="-0.6927330">
        <ele>263.0</ele>
        <time>2018-10-14T06:46:48Z</time>
      </trkpt>
      <trkpt lat="38.4075020" lon="-0.6926680">
        <ele>263.0</ele>
        <time>2018-10-14T06:46:49Z</time>
      </trkpt>
      <trkpt lat="38.4075020" lon="-0.6926680">
        <ele>263.0</ele>
        <time>2018-10-14T06:46:50Z</time>
      </trkpt>
      <trkpt lat="38.4075150" lon="-0.6925380">
        <ele>263.0</ele>
        <time>2018-10-14T06:46:51Z</time>
      </trkpt>
      <trkpt lat="38.4075230" lon="-0.6924730">
        <ele>263.0</ele>
        <time>2018-10-14T06:46:52Z</time>
      </trkpt>
      <trkpt lat="38.4075230" lon="-0.6924730">
        <ele>263.0</ele>
        <time>2018-10-14T06:46:53Z</time>
      </trkpt>
      <trkpt lat="38.4075450" lon="-0.6923430">
        <ele>263.0</ele>
        <time>2018-10-14T06:46:54Z</time>
      </trkpt>
      <trkpt lat="38.4075530" lon="-0.6922780">
        <ele>263.0</ele>
        <time>2018-10-14T06:46:55Z</time>
      </trkpt>
      <trkpt lat="38.4075620" lon="-0.6922130">
        <ele>263.0</ele>
        <time>2018-10-14T06:46:56Z</time>
      </trkpt>
      <trkpt lat="38.4075620" lon="-0.6922130">
        <ele>263.0</ele>
        <time>2018-10-14T06:46:57Z</time>
      </trkpt>
      <trkpt lat="38.4075780" lon="-0.6920820">
        <ele>263.0</ele>
        <time>2018-10-14T06:46:58Z</time>
      </trkpt>
      <trkpt lat="38.4075780" lon="-0.6920820">
        <ele>263.0</ele>
        <time>2018-10-14T06:46:59Z</time>
      </trkpt>
      <trkpt lat="38.4075980" lon="-0.6919450">
        <ele>263.0</ele>
        <time>2018-10-14T06:47:00Z</time>
      </trkpt>
      <trkpt lat="38.4076050" lon="-0.6918770">
        <ele>263.0</ele>
        <time>2018-10-14T06:47:01Z</time>
      </trkpt>
      <trkpt lat="38.4076050" lon="-0.6918770">
        <ele>263.0</ele>
        <time>2018-10-14T06:47:02Z</time>
      </trkpt>
      <trkpt lat="38.4076200" lon="-0.6917380">
        <ele>263.0</ele>
        <time>2018-10-14T06:47:03Z</time>
      </trkpt>
      <trkpt lat="38.4076200" lon="-0.6917380">
        <ele>263.0</ele>
        <time>2018-10-14T06:47:04Z</time>
      </trkpt>
      <trkpt lat="38.4076370" lon="-0.6915930">
        <ele>263.0</ele>
        <time>2018-10-14T06:47:05Z</time>
      </trkpt>
      <trkpt lat="38.4076470" lon="-0.6915200">
        <ele>263.0</ele>
        <time>2018-10-14T06:47:06Z</time>
      </trkpt>
      <trkpt lat="38.4076470" lon="-0.6915200">
        <ele>263.0</ele>
        <time>2018-10-14T06:47:07Z</time>
      </trkpt>
      <trkpt lat="38.4076580" lon="-0.6913700">
        <ele>263.0</ele>
        <time>2018-10-14T06:47:08Z</time>
      </trkpt>
      <trkpt lat="38.4076580" lon="-0.6913700">
        <ele>263.0</ele>
        <time>2018-10-14T06:47:09Z</time>
      </trkpt>
      <trkpt lat="38.4076700" lon="-0.6912250">
        <ele>262.0</ele>
        <time>2018-10-14T06:47:10Z</time>
      </trkpt>
      <trkpt lat="38.4076700" lon="-0.6912250">
        <ele>262.0</ele>
        <time>2018-10-14T06:47:11Z</time>
      </trkpt>
      <trkpt lat="38.4076920" lon="-0.6910830">
        <ele>262.0</ele>
        <time>2018-10-14T06:47:12Z</time>
      </trkpt>
      <trkpt lat="38.4076920" lon="-0.6910830">
        <ele>262.0</ele>
        <time>2018-10-14T06:47:13Z</time>
      </trkpt>
      <trkpt lat="38.4077180" lon="-0.6909470">
        <ele>262.0</ele>
        <time>2018-10-14T06:47:14Z</time>
      </trkpt>
      <trkpt lat="38.4077180" lon="-0.6909470">
        <ele>262.0</ele>
        <time>2018-10-14T06:47:15Z</time>
      </trkpt>
      <trkpt lat="38.4077470" lon="-0.6908030">
        <ele>262.0</ele>
        <time>2018-10-14T06:47:16Z</time>
      </trkpt>
      <trkpt lat="38.4077630" lon="-0.6907280">
        <ele>262.0</ele>
        <time>2018-10-14T06:47:17Z</time>
      </trkpt>
      <trkpt lat="38.4077630" lon="-0.6907280">
        <ele>262.0</ele>
        <time>2018-10-14T06:47:18Z</time>
      </trkpt>
      <trkpt lat="38.4077970" lon="-0.6905700">
        <ele>262.0</ele>
        <time>2018-10-14T06:47:19Z</time>
      </trkpt>
      <trkpt lat="38.4078120" lon="-0.6904870">
        <ele>262.0</ele>
        <time>2018-10-14T06:47:20Z</time>
      </trkpt>
      <trkpt lat="38.4078120" lon="-0.6904870">
        <ele>262.0</ele>
        <time>2018-10-14T06:47:21Z</time>
      </trkpt>
      <trkpt lat="38.4078430" lon="-0.6903220">
        <ele>262.0</ele>
        <time>2018-10-14T06:47:22Z</time>
      </trkpt>
      <trkpt lat="38.4078430" lon="-0.6903220">
        <ele>262.0</ele>
        <time>2018-10-14T06:47:23Z</time>
      </trkpt>
      <trkpt lat="38.4078750" lon="-0.6901570">
        <ele>261.0</ele>
        <time>2018-10-14T06:47:24Z</time>
      </trkpt>
      <trkpt lat="38.4078750" lon="-0.6901570">
        <ele>261.0</ele>
        <time>2018-10-14T06:47:25Z</time>
      </trkpt>
      <trkpt lat="38.4078970" lon="-0.6899970">
        <ele>261.0</ele>
        <time>2018-10-14T06:47:26Z</time>
      </trkpt>
      <trkpt lat="38.4078970" lon="-0.6899970">
        <ele>261.0</ele>
        <time>2018-10-14T06:47:27Z</time>
      </trkpt>
      <trkpt lat="38.4079170" lon="-0.6898450">
        <ele>261.0</ele>
        <time>2018-10-14T06:47:28Z</time>
      </trkpt>
      <trkpt lat="38.4079300" lon="-0.6897680">
        <ele>261.0</ele>
        <time>2018-10-14T06:47:29Z</time>
      </trkpt>
      <trkpt lat="38.4079300" lon="-0.6897680">
        <ele>261.0</ele>
        <time>2018-10-14T06:47:30Z</time>
      </trkpt>
      <trkpt lat="38.4079550" lon="-0.6896130">
        <ele>261.0</ele>
        <time>2018-10-14T06:47:31Z</time>
      </trkpt>
      <trkpt lat="38.4079680" lon="-0.6895330">
        <ele>261.0</ele>
        <time>2018-10-14T06:47:32Z</time>
      </trkpt>
      <trkpt lat="38.4079680" lon="-0.6895330">
        <ele>261.0</ele>
        <time>2018-10-14T06:47:33Z</time>
      </trkpt>
      <trkpt lat="38.4079950" lon="-0.6893750">
        <ele>260.0</ele>
        <time>2018-10-14T06:47:34Z</time>
      </trkpt>
      <trkpt lat="38.4079950" lon="-0.6893750">
        <ele>260.0</ele>
        <time>2018-10-14T06:47:35Z</time>
      </trkpt>
      <trkpt lat="38.4080220" lon="-0.6892150">
        <ele>260.0</ele>
        <time>2018-10-14T06:47:36Z</time>
      </trkpt>
      <trkpt lat="38.4080350" lon="-0.6891300">
        <ele>260.0</ele>
        <time>2018-10-14T06:47:37Z</time>
      </trkpt>
      <trkpt lat="38.4080520" lon="-0.6890380">
        <ele>260.0</ele>
        <time>2018-10-14T06:47:38Z</time>
      </trkpt>
      <trkpt lat="38.4080520" lon="-0.6890380">
        <ele>260.0</ele>
        <time>2018-10-14T06:47:39Z</time>
      </trkpt>
      <trkpt lat="38.4080900" lon="-0.6888580">
        <ele>259.0</ele>
        <time>2018-10-14T06:47:40Z</time>
      </trkpt>
      <trkpt lat="38.4080900" lon="-0.6888580">
        <ele>259.0</ele>
        <time>2018-10-14T06:47:41Z</time>
      </trkpt>
      <trkpt lat="38.4081180" lon="-0.6887030">
        <ele>259.0</ele>
        <time>2018-10-14T06:47:42Z</time>
      </trkpt>
      <trkpt lat="38.4081180" lon="-0.6887030">
        <ele>259.0</ele>
        <time>2018-10-14T06:47:43Z</time>
      </trkpt>
      <trkpt lat="38.4081380" lon="-0.6885600">
        <ele>259.0</ele>
        <time>2018-10-14T06:47:44Z</time>
      </trkpt>
      <trkpt lat="38.4081380" lon="-0.6885600">
        <ele>259.0</ele>
        <time>2018-10-14T06:47:45Z</time>
      </trkpt>
      <trkpt lat="38.4081600" lon="-0.6884220">
        <ele>259.0</ele>
        <time>2018-10-14T06:47:46Z</time>
      </trkpt>
      <trkpt lat="38.4081600" lon="-0.6884220">
        <ele>260.0</ele>
        <time>2018-10-14T06:47:47Z</time>
      </trkpt>
      <trkpt lat="38.4081780" lon="-0.6882780">
        <ele>260.0</ele>
        <time>2018-10-14T06:47:48Z</time>
      </trkpt>
      <trkpt lat="38.4081780" lon="-0.6882780">
        <ele>260.0</ele>
        <time>2018-10-14T06:47:49Z</time>
      </trkpt>
      <trkpt lat="38.4082020" lon="-0.6881270">
        <ele>260.0</ele>
        <time>2018-10-14T06:47:50Z</time>
      </trkpt>
      <trkpt lat="38.4082020" lon="-0.6881270">
        <ele>262.0</ele>
        <time>2018-10-14T06:47:51Z</time>
      </trkpt>
      <trkpt lat="38.4082220" lon="-0.6879550">
        <ele>262.0</ele>
        <time>2018-10-14T06:47:52Z</time>
      </trkpt>
      <trkpt lat="38.4082220" lon="-0.6879550">
        <ele>262.0</ele>
        <time>2018-10-14T06:47:53Z</time>
      </trkpt>
      <trkpt lat="38.4082420" lon="-0.6877930">
        <ele>262.0</ele>
        <time>2018-10-14T06:47:54Z</time>
      </trkpt>
      <trkpt lat="38.4082420" lon="-0.6877930">
        <ele>262.0</ele>
        <time>2018-10-14T06:47:55Z</time>
      </trkpt>
      <trkpt lat="38.4082600" lon="-0.6876380">
        <ele>262.0</ele>
        <time>2018-10-14T06:47:56Z</time>
      </trkpt>
      <trkpt lat="38.4082600" lon="-0.6876380">
        <ele>262.0</ele>
        <time>2018-10-14T06:47:57Z</time>
      </trkpt>
      <trkpt lat="38.4082820" lon="-0.6874930">
        <ele>262.0</ele>
        <time>2018-10-14T06:47:58Z</time>
      </trkpt>
      <trkpt lat="38.4082820" lon="-0.6874930">
        <ele>262.0</ele>
        <time>2018-10-14T06:47:59Z</time>
      </trkpt>
      <trkpt lat="38.4083020" lon="-0.6873500">
        <ele>262.0</ele>
        <time>2018-10-14T06:48:00Z</time>
      </trkpt>
      <trkpt lat="38.4083020" lon="-0.6873500">
        <ele>262.0</ele>
        <time>2018-10-14T06:48:01Z</time>
      </trkpt>
      <trkpt lat="38.4083200" lon="-0.6872120">
        <ele>262.0</ele>
        <time>2018-10-14T06:48:02Z</time>
      </trkpt>
      <trkpt lat="38.4083200" lon="-0.6872120">
        <ele>262.0</ele>
        <time>2018-10-14T06:48:03Z</time>
      </trkpt>
      <trkpt lat="38.4083400" lon="-0.6870730">
        <ele>262.0</ele>
        <time>2018-10-14T06:48:04Z</time>
      </trkpt>
      <trkpt lat="38.4083400" lon="-0.6870730">
        <ele>262.0</ele>
        <time>2018-10-14T06:48:05Z</time>
      </trkpt>
      <trkpt lat="38.4083600" lon="-0.6869330">
        <ele>262.0</ele>
        <time>2018-10-14T06:48:06Z</time>
      </trkpt>
      <trkpt lat="38.4083600" lon="-0.6869330">
        <ele>262.0</ele>
        <time>2018-10-14T06:48:07Z</time>
      </trkpt>
      <trkpt lat="38.4083770" lon="-0.6867900">
        <ele>262.0</ele>
        <time>2018-10-14T06:48:08Z</time>
      </trkpt>
      <trkpt lat="38.4083770" lon="-0.6867900">
        <ele>263.0</ele>
        <time>2018-10-14T06:48:09Z</time>
      </trkpt>
      <trkpt lat="38.4083880" lon="-0.6866480">
        <ele>263.0</ele>
        <time>2018-10-14T06:48:10Z</time>
      </trkpt>
      <trkpt lat="38.4083880" lon="-0.6866480">
        <ele>263.0</ele>
        <time>2018-10-14T06:48:11Z</time>
      </trkpt>
      <trkpt lat="38.4084020" lon="-0.6865080">
        <ele>263.0</ele>
        <time>2018-10-14T06:48:12Z</time>
      </trkpt>
      <trkpt lat="38.4084020" lon="-0.6865080">
        <ele>263.0</ele>
        <time>2018-10-14T06:48:13Z</time>
      </trkpt>
      <trkpt lat="38.4084180" lon="-0.6863720">
        <ele>263.0</ele>
        <time>2018-10-14T06:48:14Z</time>
      </trkpt>
      <trkpt lat="38.4084180" lon="-0.6863720">
        <ele>263.0</ele>
        <time>2018-10-14T06:48:15Z</time>
      </trkpt>
      <trkpt lat="38.4084330" lon="-0.6862370">
        <ele>263.0</ele>
        <time>2018-10-14T06:48:16Z</time>
      </trkpt>
      <trkpt lat="38.4084420" lon="-0.6861700">
        <ele>263.0</ele>
        <time>2018-10-14T06:48:17Z</time>
      </trkpt>
      <trkpt lat="38.4084420" lon="-0.6861700">
        <ele>263.0</ele>
        <time>2018-10-14T06:48:18Z</time>
      </trkpt>
      <trkpt lat="38.4084570" lon="-0.6860350">
        <ele>264.0</ele>
        <time>2018-10-14T06:48:19Z</time>
      </trkpt>
      <trkpt lat="38.4084630" lon="-0.6859670">
        <ele>264.0</ele>
        <time>2018-10-14T06:48:20Z</time>
      </trkpt>
      <trkpt lat="38.4084630" lon="-0.6859670">
        <ele>264.0</ele>
        <time>2018-10-14T06:48:21Z</time>
      </trkpt>
      <trkpt lat="38.4084780" lon="-0.6858280">
        <ele>264.0</ele>
        <time>2018-10-14T06:48:22Z</time>
      </trkpt>
      <trkpt lat="38.4084780" lon="-0.6858280">
        <ele>264.0</ele>
        <time>2018-10-14T06:48:23Z</time>
      </trkpt>
      <trkpt lat="38.4084930" lon="-0.6856920">
        <ele>264.0</ele>
        <time>2018-10-14T06:48:24Z</time>
      </trkpt>
      <trkpt lat="38.4084930" lon="-0.6856920">
        <ele>265.0</ele>
        <time>2018-10-14T06:48:25Z</time>
      </trkpt>
      <trkpt lat="38.4085100" lon="-0.6855580">
        <ele>265.0</ele>
        <time>2018-10-14T06:48:26Z</time>
      </trkpt>
      <trkpt lat="38.4085100" lon="-0.6855580">
        <ele>265.0</ele>
        <time>2018-10-14T06:48:27Z</time>
      </trkpt>
      <trkpt lat="38.4085300" lon="-0.6854320">
        <ele>265.0</ele>
        <time>2018-10-14T06:48:28Z</time>
      </trkpt>
      <trkpt lat="38.4085300" lon="-0.6854320">
        <ele>265.0</ele>
        <time>2018-10-14T06:48:29Z</time>
      </trkpt>
      <trkpt lat="38.4085520" lon="-0.6853100">
        <ele>265.0</ele>
        <time>2018-10-14T06:48:30Z</time>
      </trkpt>
      <trkpt lat="38.4085520" lon="-0.6853100">
        <ele>265.0</ele>
        <time>2018-10-14T06:48:31Z</time>
      </trkpt>
      <trkpt lat="38.4085680" lon="-0.6851930">
        <ele>265.0</ele>
        <time>2018-10-14T06:48:32Z</time>
      </trkpt>
      <trkpt lat="38.4085680" lon="-0.6851930">
        <ele>266.0</ele>
        <time>2018-10-14T06:48:33Z</time>
      </trkpt>
      <trkpt lat="38.4085880" lon="-0.6850820">
        <ele>266.0</ele>
        <time>2018-10-14T06:48:34Z</time>
      </trkpt>
      <trkpt lat="38.4085970" lon="-0.6850270">
        <ele>266.0</ele>
        <time>2018-10-14T06:48:35Z</time>
      </trkpt>
      <trkpt lat="38.4085970" lon="-0.6850270">
        <ele>266.0</ele>
        <time>2018-10-14T06:48:36Z</time>
      </trkpt>
      <trkpt lat="38.4086070" lon="-0.6849100">
        <ele>266.0</ele>
        <time>2018-10-14T06:48:37Z</time>
      </trkpt>
      <trkpt lat="38.4086070" lon="-0.6849100">
        <ele>266.0</ele>
        <time>2018-10-14T06:48:38Z</time>
      </trkpt>
      <trkpt lat="38.4086200" lon="-0.6847900">
        <ele>266.0</ele>
        <time>2018-10-14T06:48:39Z</time>
      </trkpt>
      <trkpt lat="38.4086200" lon="-0.6847900">
        <ele>266.0</ele>
        <time>2018-10-14T06:48:40Z</time>
      </trkpt>
      <trkpt lat="38.4086330" lon="-0.6846650">
        <ele>266.0</ele>
        <time>2018-10-14T06:48:41Z</time>
      </trkpt>
      <trkpt lat="38.4086330" lon="-0.6846650">
        <ele>266.0</ele>
        <time>2018-10-14T06:48:42Z</time>
      </trkpt>
      <trkpt lat="38.4086480" lon="-0.6845430">
        <ele>266.0</ele>
        <time>2018-10-14T06:48:43Z</time>
      </trkpt>
      <trkpt lat="38.4086550" lon="-0.6844850">
        <ele>266.0</ele>
        <time>2018-10-14T06:48:44Z</time>
      </trkpt>
      <trkpt lat="38.4086550" lon="-0.6844850">
        <ele>266.0</ele>
        <time>2018-10-14T06:48:45Z</time>
      </trkpt>
      <trkpt lat="38.4086670" lon="-0.6843700">
        <ele>266.0</ele>
        <time>2018-10-14T06:48:46Z</time>
      </trkpt>
      <trkpt lat="38.4086670" lon="-0.6843700">
        <ele>266.0</ele>
        <time>2018-10-14T06:48:47Z</time>
      </trkpt>
      <trkpt lat="38.4086770" lon="-0.6842530">
        <ele>266.0</ele>
        <time>2018-10-14T06:48:48Z</time>
      </trkpt>
      <trkpt lat="38.4086770" lon="-0.6842530">
        <ele>266.0</ele>
        <time>2018-10-14T06:48:49Z</time>
      </trkpt>
      <trkpt lat="38.4086900" lon="-0.6841350">
        <ele>266.0</ele>
        <time>2018-10-14T06:48:50Z</time>
      </trkpt>
      <trkpt lat="38.4086900" lon="-0.6841350">
        <ele>266.0</ele>
        <time>2018-10-14T06:48:51Z</time>
      </trkpt>
      <trkpt lat="38.4087000" lon="-0.6840200">
        <ele>266.0</ele>
        <time>2018-10-14T06:48:52Z</time>
      </trkpt>
      <trkpt lat="38.4087000" lon="-0.6840200">
        <ele>266.0</ele>
        <time>2018-10-14T06:48:53Z</time>
      </trkpt>
      <trkpt lat="38.4087130" lon="-0.6839070">
        <ele>267.0</ele>
        <time>2018-10-14T06:48:54Z</time>
      </trkpt>
      <trkpt lat="38.4087130" lon="-0.6839070">
        <ele>267.0</ele>
        <time>2018-10-14T06:48:55Z</time>
      </trkpt>
      <trkpt lat="38.4087270" lon="-0.6837950">
        <ele>267.0</ele>
        <time>2018-10-14T06:48:56Z</time>
      </trkpt>
      <trkpt lat="38.4087270" lon="-0.6837950">
        <ele>267.0</ele>
        <time>2018-10-14T06:48:57Z</time>
      </trkpt>
      <trkpt lat="38.4087370" lon="-0.6836830">
        <ele>267.0</ele>
        <time>2018-10-14T06:48:58Z</time>
      </trkpt>
      <trkpt lat="38.4087370" lon="-0.6836830">
        <ele>267.0</ele>
        <time>2018-10-14T06:48:59Z</time>
      </trkpt>
      <trkpt lat="38.4087450" lon="-0.6835720">
        <ele>267.0</ele>
        <time>2018-10-14T06:49:00Z</time>
      </trkpt>
      <trkpt lat="38.4087450" lon="-0.6835720">
        <ele>267.0</ele>
        <time>2018-10-14T06:49:01Z</time>
      </trkpt>
      <trkpt lat="38.4087550" lon="-0.6834620">
        <ele>267.0</ele>
        <time>2018-10-14T06:49:02Z</time>
      </trkpt>
      <trkpt lat="38.4087550" lon="-0.6834620">
        <ele>267.0</ele>
        <time>2018-10-14T06:49:03Z</time>
      </trkpt>
      <trkpt lat="38.4087650" lon="-0.6833500">
        <ele>268.0</ele>
        <time>2018-10-14T06:49:04Z</time>
      </trkpt>
      <trkpt lat="38.4087650" lon="-0.6833500">
        <ele>268.0</ele>
        <time>2018-10-14T06:49:05Z</time>
      </trkpt>
      <trkpt lat="38.4087780" lon="-0.6832350">
        <ele>268.0</ele>
        <time>2018-10-14T06:49:06Z</time>
      </trkpt>
      <trkpt lat="38.4087830" lon="-0.6831780">
        <ele>268.0</ele>
        <time>2018-10-14T06:49:07Z</time>
      </trkpt>
      <trkpt lat="38.4087880" lon="-0.6831180">
        <ele>268.0</ele>
        <time>2018-10-14T06:49:08Z</time>
      </trkpt>
      <trkpt lat="38.4087880" lon="-0.6831180">
        <ele>268.0</ele>
        <time>2018-10-14T06:49:09Z</time>
      </trkpt>
      <trkpt lat="38.4087970" lon="-0.6829970">
        <ele>268.0</ele>
        <time>2018-10-14T06:49:10Z</time>
      </trkpt>
      <trkpt lat="38.4088020" lon="-0.6829370">
        <ele>268.0</ele>
        <time>2018-10-14T06:49:11Z</time>
      </trkpt>
      <trkpt lat="38.4088020" lon="-0.6829370">
        <ele>268.0</ele>
        <time>2018-10-14T06:49:12Z</time>
      </trkpt>
      <trkpt lat="38.4088080" lon="-0.6828130">
        <ele>268.0</ele>
        <time>2018-10-14T06:49:13Z</time>
      </trkpt>
      <trkpt lat="38.4088120" lon="-0.6827520">
        <ele>268.0</ele>
        <time>2018-10-14T06:49:14Z</time>
      </trkpt>
      <trkpt lat="38.4088120" lon="-0.6827520">
        <ele>268.0</ele>
        <time>2018-10-14T06:49:15Z</time>
      </trkpt>
      <trkpt lat="38.4088200" lon="-0.6826250">
        <ele>269.0</ele>
        <time>2018-10-14T06:49:16Z</time>
      </trkpt>
      <trkpt lat="38.4088200" lon="-0.6826250">
        <ele>269.0</ele>
        <time>2018-10-14T06:49:17Z</time>
      </trkpt>
      <trkpt lat="38.4088280" lon="-0.6824980">
        <ele>269.0</ele>
        <time>2018-10-14T06:49:18Z</time>
      </trkpt>
      <trkpt lat="38.4088280" lon="-0.6824980">
        <ele>269.0</ele>
        <time>2018-10-14T06:49:19Z</time>
      </trkpt>
      <trkpt lat="38.4088400" lon="-0.6823730">
        <ele>269.0</ele>
        <time>2018-10-14T06:49:20Z</time>
      </trkpt>
      <trkpt lat="38.4088400" lon="-0.6823730">
        <ele>269.0</ele>
        <time>2018-10-14T06:49:21Z</time>
      </trkpt>
      <trkpt lat="38.4088470" lon="-0.6822500">
        <ele>269.0</ele>
        <time>2018-10-14T06:49:22Z</time>
      </trkpt>
      <trkpt lat="38.4088470" lon="-0.6822500">
        <ele>269.0</ele>
        <time>2018-10-14T06:49:23Z</time>
      </trkpt>
      <trkpt lat="38.4088570" lon="-0.6821250">
        <ele>269.0</ele>
        <time>2018-10-14T06:49:24Z</time>
      </trkpt>
      <trkpt lat="38.4088570" lon="-0.6821250">
        <ele>269.0</ele>
        <time>2018-10-14T06:49:25Z</time>
      </trkpt>
      <trkpt lat="38.4088650" lon="-0.6819970">
        <ele>269.0</ele>
        <time>2018-10-14T06:49:26Z</time>
      </trkpt>
      <trkpt lat="38.4088650" lon="-0.6819970">
        <ele>269.0</ele>
        <time>2018-10-14T06:49:27Z</time>
      </trkpt>
      <trkpt lat="38.4088750" lon="-0.6818680">
        <ele>269.0</ele>
        <time>2018-10-14T06:49:28Z</time>
      </trkpt>
      <trkpt lat="38.4088750" lon="-0.6818680">
        <ele>269.0</ele>
        <time>2018-10-14T06:49:29Z</time>
      </trkpt>
      <trkpt lat="38.4088830" lon="-0.6817400">
        <ele>269.0</ele>
        <time>2018-10-14T06:49:30Z</time>
      </trkpt>
      <trkpt lat="38.4088830" lon="-0.6817400">
        <ele>269.0</ele>
        <time>2018-10-14T06:49:31Z</time>
      </trkpt>
      <trkpt lat="38.4088930" lon="-0.6816120">
        <ele>269.0</ele>
        <time>2018-10-14T06:49:32Z</time>
      </trkpt>
      <trkpt lat="38.4088930" lon="-0.6816120">
        <ele>269.0</ele>
        <time>2018-10-14T06:49:33Z</time>
      </trkpt>
      <trkpt lat="38.4089050" lon="-0.6814880">
        <ele>270.0</ele>
        <time>2018-10-14T06:49:34Z</time>
      </trkpt>
      <trkpt lat="38.4089050" lon="-0.6814880">
        <ele>270.0</ele>
        <time>2018-10-14T06:49:35Z</time>
      </trkpt>
      <trkpt lat="38.4089100" lon="-0.6813630">
        <ele>270.0</ele>
        <time>2018-10-14T06:49:36Z</time>
      </trkpt>
      <trkpt lat="38.4089100" lon="-0.6813630">
        <ele>270.0</ele>
        <time>2018-10-14T06:49:37Z</time>
      </trkpt>
      <trkpt lat="38.4089130" lon="-0.6812370">
        <ele>270.0</ele>
        <time>2018-10-14T06:49:38Z</time>
      </trkpt>
      <trkpt lat="38.4089130" lon="-0.6812370">
        <ele>270.0</ele>
        <time>2018-10-14T06:49:39Z</time>
      </trkpt>
      <trkpt lat="38.4089200" lon="-0.6811120">
        <ele>270.0</ele>
        <time>2018-10-14T06:49:40Z</time>
      </trkpt>
      <trkpt lat="38.4089200" lon="-0.6811120">
        <ele>270.0</ele>
        <time>2018-10-14T06:49:41Z</time>
      </trkpt>
      <trkpt lat="38.4089250" lon="-0.6809850">
        <ele>270.0</ele>
        <time>2018-10-14T06:49:42Z</time>
      </trkpt>
      <trkpt lat="38.4089250" lon="-0.6809850">
        <ele>270.0</ele>
        <time>2018-10-14T06:49:43Z</time>
      </trkpt>
      <trkpt lat="38.4089320" lon="-0.6808600">
        <ele>270.0</ele>
        <time>2018-10-14T06:49:44Z</time>
      </trkpt>
      <trkpt lat="38.4089320" lon="-0.6808600">
        <ele>270.0</ele>
        <time>2018-10-14T06:49:45Z</time>
      </trkpt>
      <trkpt lat="38.4089350" lon="-0.6807320">
        <ele>270.0</ele>
        <time>2018-10-14T06:49:46Z</time>
      </trkpt>
      <trkpt lat="38.4089350" lon="-0.6807320">
        <ele>270.0</ele>
        <time>2018-10-14T06:49:47Z</time>
      </trkpt>
      <trkpt lat="38.4089450" lon="-0.6806050">
        <ele>270.0</ele>
        <time>2018-10-14T06:49:48Z</time>
      </trkpt>
      <trkpt lat="38.4089450" lon="-0.6806050">
        <ele>270.0</ele>
        <time>2018-10-14T06:49:49Z</time>
      </trkpt>
      <trkpt lat="38.4089550" lon="-0.6804800">
        <ele>270.0</ele>
        <time>2018-10-14T06:49:50Z</time>
      </trkpt>
      <trkpt lat="38.4089550" lon="-0.6804800">
        <ele>269.0</ele>
        <time>2018-10-14T06:49:51Z</time>
      </trkpt>
      <trkpt lat="38.4089650" lon="-0.6803520">
        <ele>269.0</ele>
        <time>2018-10-14T06:49:52Z</time>
      </trkpt>
      <trkpt lat="38.4089650" lon="-0.6803520">
        <ele>269.0</ele>
        <time>2018-10-14T06:49:53Z</time>
      </trkpt>
      <trkpt lat="38.4089770" lon="-0.6802250">
        <ele>269.0</ele>
        <time>2018-10-14T06:49:54Z</time>
      </trkpt>
      <trkpt lat="38.4089770" lon="-0.6802250">
        <ele>269.0</ele>
        <time>2018-10-14T06:49:55Z</time>
      </trkpt>
      <trkpt lat="38.4089920" lon="-0.6801000">
        <ele>270.0</ele>
        <time>2018-10-14T06:49:56Z</time>
      </trkpt>
      <trkpt lat="38.4089970" lon="-0.6800380">
        <ele>270.0</ele>
        <time>2018-10-14T06:49:57Z</time>
      </trkpt>
      <trkpt lat="38.4089970" lon="-0.6800380">
        <ele>265.0</ele>
        <time>2018-10-14T06:49:58Z</time>
      </trkpt>
      <trkpt lat="38.4090020" lon="-0.6799150">
        <ele>265.0</ele>
        <time>2018-10-14T06:49:59Z</time>
      </trkpt>
      <trkpt lat="38.4090050" lon="-0.6798500">
        <ele>267.0</ele>
        <time>2018-10-14T06:50:00Z</time>
      </trkpt>
      <trkpt lat="38.4090050" lon="-0.6798500">
        <ele>267.0</ele>
        <time>2018-10-14T06:50:01Z</time>
      </trkpt>
      <trkpt lat="38.4090150" lon="-0.6797270">
        <ele>268.0</ele>
        <time>2018-10-14T06:50:02Z</time>
      </trkpt>
      <trkpt lat="38.4090150" lon="-0.6797270">
        <ele>268.0</ele>
        <time>2018-10-14T06:50:03Z</time>
      </trkpt>
      <trkpt lat="38.4090230" lon="-0.6796070">
        <ele>268.0</ele>
        <time>2018-10-14T06:50:04Z</time>
      </trkpt>
      <trkpt lat="38.4090230" lon="-0.6796070">
        <ele>268.0</ele>
        <time>2018-10-14T06:50:05Z</time>
      </trkpt>
      <trkpt lat="38.4090320" lon="-0.6794830">
        <ele>269.0</ele>
        <time>2018-10-14T06:50:06Z</time>
      </trkpt>
      <trkpt lat="38.4090320" lon="-0.6794830">
        <ele>269.0</ele>
        <time>2018-10-14T06:50:07Z</time>
      </trkpt>
      <trkpt lat="38.4090450" lon="-0.6793700">
        <ele>269.0</ele>
        <time>2018-10-14T06:50:08Z</time>
      </trkpt>
      <trkpt lat="38.4090450" lon="-0.6793700">
        <ele>269.0</ele>
        <time>2018-10-14T06:50:09Z</time>
      </trkpt>
      <trkpt lat="38.4090550" lon="-0.6792620">
        <ele>269.0</ele>
        <time>2018-10-14T06:50:10Z</time>
      </trkpt>
      <trkpt lat="38.4090600" lon="-0.6792080">
        <ele>269.0</ele>
        <time>2018-10-14T06:50:11Z</time>
      </trkpt>
      <trkpt lat="38.4090650" lon="-0.6791550">
        <ele>269.0</ele>
        <time>2018-10-14T06:50:12Z</time>
      </trkpt>
      <trkpt lat="38.4090650" lon="-0.6791550">
        <ele>269.0</ele>
        <time>2018-10-14T06:50:13Z</time>
      </trkpt>
      <trkpt lat="38.4090750" lon="-0.6790450">
        <ele>269.0</ele>
        <time>2018-10-14T06:50:14Z</time>
      </trkpt>
      <trkpt lat="38.4090750" lon="-0.6790450">
        <ele>269.0</ele>
        <time>2018-10-14T06:50:15Z</time>
      </trkpt>
      <trkpt lat="38.4090900" lon="-0.6789380">
        <ele>269.0</ele>
        <time>2018-10-14T06:50:16Z</time>
      </trkpt>
      <trkpt lat="38.4090900" lon="-0.6789380">
        <ele>269.0</ele>
        <time>2018-10-14T06:50:17Z</time>
      </trkpt>
      <trkpt lat="38.4091100" lon="-0.6788420">
        <ele>269.0</ele>
        <time>2018-10-14T06:50:18Z</time>
      </trkpt>
      <trkpt lat="38.4091100" lon="-0.6788420">
        <ele>269.0</ele>
        <time>2018-10-14T06:50:19Z</time>
      </trkpt>
      <trkpt lat="38.4091370" lon="-0.6787600">
        <ele>269.0</ele>
        <time>2018-10-14T06:50:20Z</time>
      </trkpt>
      <trkpt lat="38.4091630" lon="-0.6787320">
        <ele>269.0</ele>
        <time>2018-10-14T06:50:21Z</time>
      </trkpt>
      <trkpt lat="38.4091630" lon="-0.6787320">
        <ele>269.0</ele>
        <time>2018-10-14T06:50:22Z</time>
      </trkpt>
      <trkpt lat="38.4092300" lon="-0.6787220">
        <ele>269.0</ele>
        <time>2018-10-14T06:50:23Z</time>
      </trkpt>
      <trkpt lat="38.4092650" lon="-0.6787300">
        <ele>269.0</ele>
        <time>2018-10-14T06:50:24Z</time>
      </trkpt>
      <trkpt lat="38.4092650" lon="-0.6787300">
        <ele>269.0</ele>
        <time>2018-10-14T06:50:25Z</time>
      </trkpt>
      <trkpt lat="38.4093250" lon="-0.6787470">
        <ele>269.0</ele>
        <time>2018-10-14T06:50:26Z</time>
      </trkpt>
      <trkpt lat="38.4093250" lon="-0.6787470">
        <ele>269.0</ele>
        <time>2018-10-14T06:50:27Z</time>
      </trkpt>
      <trkpt lat="38.4093780" lon="-0.6787280">
        <ele>269.0</ele>
        <time>2018-10-14T06:50:28Z</time>
      </trkpt>
      <trkpt lat="38.4093780" lon="-0.6787280">
        <ele>269.0</ele>
        <time>2018-10-14T06:50:29Z</time>
      </trkpt>
      <trkpt lat="38.4094250" lon="-0.6786670">
        <ele>269.0</ele>
        <time>2018-10-14T06:50:30Z</time>
      </trkpt>
      <trkpt lat="38.4094470" lon="-0.6786300">
        <ele>269.0</ele>
        <time>2018-10-14T06:50:31Z</time>
      </trkpt>
      <trkpt lat="38.4094700" lon="-0.6785920">
        <ele>269.0</ele>
        <time>2018-10-14T06:50:32Z</time>
      </trkpt>
      <trkpt lat="38.4094700" lon="-0.6785920">
        <ele>269.0</ele>
        <time>2018-10-14T06:50:33Z</time>
      </trkpt>
      <trkpt lat="38.4095200" lon="-0.6785080">
        <ele>270.0</ele>
        <time>2018-10-14T06:50:34Z</time>
      </trkpt>
      <trkpt lat="38.4095200" lon="-0.6785080">
        <ele>270.0</ele>
        <time>2018-10-14T06:50:35Z</time>
      </trkpt>
      <trkpt lat="38.4095750" lon="-0.6784280">
        <ele>270.0</ele>
        <time>2018-10-14T06:50:36Z</time>
      </trkpt>
      <trkpt lat="38.4095750" lon="-0.6784280">
        <ele>270.0</ele>
        <time>2018-10-14T06:50:37Z</time>
      </trkpt>
      <trkpt lat="38.4096400" lon="-0.6783630">
        <ele>270.0</ele>
        <time>2018-10-14T06:50:38Z</time>
      </trkpt>
      <trkpt lat="38.4096400" lon="-0.6783630">
        <ele>270.0</ele>
        <time>2018-10-14T06:50:39Z</time>
      </trkpt>
      <trkpt lat="38.4097020" lon="-0.6783200">
        <ele>270.0</ele>
        <time>2018-10-14T06:50:40Z</time>
      </trkpt>
      <trkpt lat="38.4097020" lon="-0.6783200">
        <ele>270.0</ele>
        <time>2018-10-14T06:50:41Z</time>
      </trkpt>
      <trkpt lat="38.4097500" lon="-0.6782680">
        <ele>271.0</ele>
        <time>2018-10-14T06:50:42Z</time>
      </trkpt>
      <trkpt lat="38.4097500" lon="-0.6782680">
        <ele>271.0</ele>
        <time>2018-10-14T06:50:43Z</time>
      </trkpt>
      <trkpt lat="38.4098050" lon="-0.6782230">
        <ele>271.0</ele>
        <time>2018-10-14T06:50:44Z</time>
      </trkpt>
      <trkpt lat="38.4098050" lon="-0.6782230">
        <ele>271.0</ele>
        <time>2018-10-14T06:50:45Z</time>
      </trkpt>
      <trkpt lat="38.4098650" lon="-0.6782370">
        <ele>271.0</ele>
        <time>2018-10-14T06:50:46Z</time>
      </trkpt>
      <trkpt lat="38.4098950" lon="-0.6782500">
        <ele>271.0</ele>
        <time>2018-10-14T06:50:47Z</time>
      </trkpt>
      <trkpt lat="38.4099270" lon="-0.6782620">
        <ele>271.0</ele>
        <time>2018-10-14T06:50:48Z</time>
      </trkpt>
      <trkpt lat="38.4099270" lon="-0.6782620">
        <ele>271.0</ele>
        <time>2018-10-14T06:50:49Z</time>
      </trkpt>
      <trkpt lat="38.4099930" lon="-0.6782570">
        <ele>271.0</ele>
        <time>2018-10-14T06:50:50Z</time>
      </trkpt>
      <trkpt lat="38.4099930" lon="-0.6782570">
        <ele>271.0</ele>
        <time>2018-10-14T06:50:51Z</time>
      </trkpt>
      <trkpt lat="38.4100580" lon="-0.6782220">
        <ele>271.0</ele>
        <time>2018-10-14T06:50:52Z</time>
      </trkpt>
      <trkpt lat="38.4100580" lon="-0.6782220">
        <ele>271.0</ele>
        <time>2018-10-14T06:50:53Z</time>
      </trkpt>
      <trkpt lat="38.4101320" lon="-0.6781870">
        <ele>271.0</ele>
        <time>2018-10-14T06:50:54Z</time>
      </trkpt>
      <trkpt lat="38.4101320" lon="-0.6781870">
        <ele>271.0</ele>
        <time>2018-10-14T06:50:55Z</time>
      </trkpt>
      <trkpt lat="38.4102100" lon="-0.6781430">
        <ele>271.0</ele>
        <time>2018-10-14T06:50:56Z</time>
      </trkpt>
      <trkpt lat="38.4102100" lon="-0.6781430">
        <ele>272.0</ele>
        <time>2018-10-14T06:50:57Z</time>
      </trkpt>
      <trkpt lat="38.4102880" lon="-0.6781000">
        <ele>272.0</ele>
        <time>2018-10-14T06:50:58Z</time>
      </trkpt>
      <trkpt lat="38.4102880" lon="-0.6781000">
        <ele>272.0</ele>
        <time>2018-10-14T06:50:59Z</time>
      </trkpt>
      <trkpt lat="38.4103680" lon="-0.6780650">
        <ele>272.0</ele>
        <time>2018-10-14T06:51:00Z</time>
      </trkpt>
      <trkpt lat="38.4103680" lon="-0.6780650">
        <ele>272.0</ele>
        <time>2018-10-14T06:51:01Z</time>
      </trkpt>
      <trkpt lat="38.4104470" lon="-0.6780320">
        <ele>272.0</ele>
        <time>2018-10-14T06:51:02Z</time>
      </trkpt>
      <trkpt lat="38.4104470" lon="-0.6780320">
        <ele>272.0</ele>
        <time>2018-10-14T06:51:03Z</time>
      </trkpt>
      <trkpt lat="38.4105270" lon="-0.6779970">
        <ele>272.0</ele>
        <time>2018-10-14T06:51:04Z</time>
      </trkpt>
      <trkpt lat="38.4105270" lon="-0.6779970">
        <ele>273.0</ele>
        <time>2018-10-14T06:51:05Z</time>
      </trkpt>
      <trkpt lat="38.4106050" lon="-0.6779570">
        <ele>273.0</ele>
        <time>2018-10-14T06:51:06Z</time>
      </trkpt>
      <trkpt lat="38.4106050" lon="-0.6779570">
        <ele>273.0</ele>
        <time>2018-10-14T06:51:07Z</time>
      </trkpt>
      <trkpt lat="38.4106820" lon="-0.6779150">
        <ele>273.0</ele>
        <time>2018-10-14T06:51:08Z</time>
      </trkpt>
      <trkpt lat="38.4106820" lon="-0.6779150">
        <ele>273.0</ele>
        <time>2018-10-14T06:51:09Z</time>
      </trkpt>
      <trkpt lat="38.4107600" lon="-0.6778750">
        <ele>273.0</ele>
        <time>2018-10-14T06:51:10Z</time>
      </trkpt>
      <trkpt lat="38.4107600" lon="-0.6778750">
        <ele>274.0</ele>
        <time>2018-10-14T06:51:11Z</time>
      </trkpt>
      <trkpt lat="38.4108400" lon="-0.6778380">
        <ele>274.0</ele>
        <time>2018-10-14T06:51:12Z</time>
      </trkpt>
      <trkpt lat="38.4108400" lon="-0.6778380">
        <ele>274.0</ele>
        <time>2018-10-14T06:51:13Z</time>
      </trkpt>
      <trkpt lat="38.4109170" lon="-0.6778020">
        <ele>274.0</ele>
        <time>2018-10-14T06:51:14Z</time>
      </trkpt>
      <trkpt lat="38.4109170" lon="-0.6778020">
        <ele>275.0</ele>
        <time>2018-10-14T06:51:15Z</time>
      </trkpt>
      <trkpt lat="38.4109850" lon="-0.6777630">
        <ele>275.0</ele>
        <time>2018-10-14T06:51:16Z</time>
      </trkpt>
      <trkpt lat="38.4109850" lon="-0.6777630">
        <ele>275.0</ele>
        <time>2018-10-14T06:51:17Z</time>
      </trkpt>
      <trkpt lat="38.4110500" lon="-0.6777320">
        <ele>275.0</ele>
        <time>2018-10-14T06:51:18Z</time>
      </trkpt>
      <trkpt lat="38.4110500" lon="-0.6777320">
        <ele>276.0</ele>
        <time>2018-10-14T06:51:19Z</time>
      </trkpt>
      <trkpt lat="38.4111170" lon="-0.6777100">
        <ele>276.0</ele>
        <time>2018-10-14T06:51:20Z</time>
      </trkpt>
      <trkpt lat="38.4111170" lon="-0.6777100">
        <ele>276.0</ele>
        <time>2018-10-14T06:51:21Z</time>
      </trkpt>
      <trkpt lat="38.4111800" lon="-0.6777000">
        <ele>276.0</ele>
        <time>2018-10-14T06:51:22Z</time>
      </trkpt>
      <trkpt lat="38.4111800" lon="-0.6777000">
        <ele>276.0</ele>
        <time>2018-10-14T06:51:23Z</time>
      </trkpt>
      <trkpt lat="38.4112400" lon="-0.6776780">
        <ele>276.0</ele>
        <time>2018-10-14T06:51:24Z</time>
      </trkpt>
      <trkpt lat="38.4112400" lon="-0.6776780">
        <ele>276.0</ele>
        <time>2018-10-14T06:51:25Z</time>
      </trkpt>
      <trkpt lat="38.4112970" lon="-0.6776580">
        <ele>276.0</ele>
        <time>2018-10-14T06:51:26Z</time>
      </trkpt>
      <trkpt lat="38.4112970" lon="-0.6776580">
        <ele>276.0</ele>
        <time>2018-10-14T06:51:27Z</time>
      </trkpt>
      <trkpt lat="38.4113530" lon="-0.6776450">
        <ele>276.0</ele>
        <time>2018-10-14T06:51:28Z</time>
      </trkpt>
      <trkpt lat="38.4113820" lon="-0.6776420">
        <ele>276.0</ele>
        <time>2018-10-14T06:51:29Z</time>
      </trkpt>
      <trkpt lat="38.4114080" lon="-0.6776370">
        <ele>276.0</ele>
        <time>2018-10-14T06:51:30Z</time>
      </trkpt>
      <trkpt lat="38.4114080" lon="-0.6776370">
        <ele>277.0</ele>
        <time>2018-10-14T06:51:31Z</time>
      </trkpt>
      <trkpt lat="38.4114580" lon="-0.6776230">
        <ele>277.0</ele>
        <time>2018-10-14T06:51:32Z</time>
      </trkpt>
      <trkpt lat="38.4114580" lon="-0.6776230">
        <ele>277.0</ele>
        <time>2018-10-14T06:51:33Z</time>
      </trkpt>
      <trkpt lat="38.4115050" lon="-0.6776000">
        <ele>277.0</ele>
        <time>2018-10-14T06:51:34Z</time>
      </trkpt>
      <trkpt lat="38.4115050" lon="-0.6776000">
        <ele>277.0</ele>
        <time>2018-10-14T06:51:35Z</time>
      </trkpt>
      <trkpt lat="38.4115430" lon="-0.6775620">
        <ele>277.0</ele>
        <time>2018-10-14T06:51:36Z</time>
      </trkpt>
      <trkpt lat="38.4115430" lon="-0.6775620">
        <ele>277.0</ele>
        <time>2018-10-14T06:51:37Z</time>
      </trkpt>
      <trkpt lat="38.4115680" lon="-0.6775020">
        <ele>277.0</ele>
        <time>2018-10-14T06:51:38Z</time>
      </trkpt>
      <trkpt lat="38.4115680" lon="-0.6775020">
        <ele>277.0</ele>
        <time>2018-10-14T06:51:39Z</time>
      </trkpt>
      <trkpt lat="38.4115830" lon="-0.6774330">
        <ele>277.0</ele>
        <time>2018-10-14T06:51:40Z</time>
      </trkpt>
      <trkpt lat="38.4115830" lon="-0.6774330">
        <ele>277.0</ele>
        <time>2018-10-14T06:51:41Z</time>
      </trkpt>
      <trkpt lat="38.4115980" lon="-0.6773580">
        <ele>277.0</ele>
        <time>2018-10-14T06:51:42Z</time>
      </trkpt>
      <trkpt lat="38.4115980" lon="-0.6773580">
        <ele>278.0</ele>
        <time>2018-10-14T06:51:43Z</time>
      </trkpt>
      <trkpt lat="38.4116170" lon="-0.6772900">
        <ele>278.0</ele>
        <time>2018-10-14T06:51:44Z</time>
      </trkpt>
      <trkpt lat="38.4116170" lon="-0.6772900">
        <ele>278.0</ele>
        <time>2018-10-14T06:51:45Z</time>
      </trkpt>
      <trkpt lat="38.4116300" lon="-0.6772320">
        <ele>278.0</ele>
        <time>2018-10-14T06:51:46Z</time>
      </trkpt>
      <trkpt lat="38.4116300" lon="-0.6772320">
        <ele>278.0</ele>
        <time>2018-10-14T06:51:47Z</time>
      </trkpt>
      <trkpt lat="38.4116450" lon="-0.6771770">
        <ele>278.0</ele>
        <time>2018-10-14T06:51:48Z</time>
      </trkpt>
      <trkpt lat="38.4116450" lon="-0.6771770">
        <ele>278.0</ele>
        <time>2018-10-14T06:51:49Z</time>
      </trkpt>
      <trkpt lat="38.4116620" lon="-0.6771220">
        <ele>278.0</ele>
        <time>2018-10-14T06:51:50Z</time>
      </trkpt>
      <trkpt lat="38.4116620" lon="-0.6771220">
        <ele>278.0</ele>
        <time>2018-10-14T06:51:51Z</time>
      </trkpt>
      <trkpt lat="38.4116800" lon="-0.6770570">
        <ele>278.0</ele>
        <time>2018-10-14T06:51:52Z</time>
      </trkpt>
      <trkpt lat="38.4116880" lon="-0.6770200">
        <ele>278.0</ele>
        <time>2018-10-14T06:51:53Z</time>
      </trkpt>
      <trkpt lat="38.4116970" lon="-0.6769830">
        <ele>278.0</ele>
        <time>2018-10-14T06:51:54Z</time>
      </trkpt>
      <trkpt lat="38.4116970" lon="-0.6769830">
        <ele>278.0</ele>
        <time>2018-10-14T06:51:55Z</time>
      </trkpt>
      <trkpt lat="38.4117180" lon="-0.6769020">
        <ele>278.0</ele>
        <time>2018-10-14T06:51:56Z</time>
      </trkpt>
      <trkpt lat="38.4117180" lon="-0.6769020">
        <ele>278.0</ele>
        <time>2018-10-14T06:51:57Z</time>
      </trkpt>
      <trkpt lat="38.4117430" lon="-0.6768150">
        <ele>278.0</ele>
        <time>2018-10-14T06:51:58Z</time>
      </trkpt>
      <trkpt lat="38.4117430" lon="-0.6768150">
        <ele>278.0</ele>
        <time>2018-10-14T06:51:59Z</time>
      </trkpt>
      <trkpt lat="38.4117650" lon="-0.6767220">
        <ele>277.0</ele>
        <time>2018-10-14T06:52:00Z</time>
      </trkpt>
      <trkpt lat="38.4117650" lon="-0.6767220">
        <ele>277.0</ele>
        <time>2018-10-14T06:52:01Z</time>
      </trkpt>
      <trkpt lat="38.4117880" lon="-0.6766230">
        <ele>277.0</ele>
        <time>2018-10-14T06:52:02Z</time>
      </trkpt>
      <trkpt lat="38.4117880" lon="-0.6766230">
        <ele>277.0</ele>
        <time>2018-10-14T06:52:03Z</time>
      </trkpt>
      <trkpt lat="38.4118180" lon="-0.6765330">
        <ele>277.0</ele>
        <time>2018-10-14T06:52:04Z</time>
      </trkpt>
      <trkpt lat="38.4118180" lon="-0.6765330">
        <ele>277.0</ele>
        <time>2018-10-14T06:52:05Z</time>
      </trkpt>
      <trkpt lat="38.4118480" lon="-0.6764420">
        <ele>277.0</ele>
        <time>2018-10-14T06:52:06Z</time>
      </trkpt>
      <trkpt lat="38.4118480" lon="-0.6764420">
        <ele>277.0</ele>
        <time>2018-10-14T06:52:07Z</time>
      </trkpt>
      <trkpt lat="38.4118800" lon="-0.6763450">
        <ele>277.0</ele>
        <time>2018-10-14T06:52:08Z</time>
      </trkpt>
      <trkpt lat="38.4118800" lon="-0.6763450">
        <ele>277.0</ele>
        <time>2018-10-14T06:52:09Z</time>
      </trkpt>
      <trkpt lat="38.4119070" lon="-0.6762480">
        <ele>277.0</ele>
        <time>2018-10-14T06:52:10Z</time>
      </trkpt>
      <trkpt lat="38.4119070" lon="-0.6762480">
        <ele>277.0</ele>
        <time>2018-10-14T06:52:11Z</time>
      </trkpt>
      <trkpt lat="38.4119270" lon="-0.6761530">
        <ele>277.0</ele>
        <time>2018-10-14T06:52:12Z</time>
      </trkpt>
      <trkpt lat="38.4119270" lon="-0.6761530">
        <ele>277.0</ele>
        <time>2018-10-14T06:52:13Z</time>
      </trkpt>
      <trkpt lat="38.4119470" lon="-0.6760570">
        <ele>277.0</ele>
        <time>2018-10-14T06:52:14Z</time>
      </trkpt>
      <trkpt lat="38.4119470" lon="-0.6760570">
        <ele>277.0</ele>
        <time>2018-10-14T06:52:15Z</time>
      </trkpt>
      <trkpt lat="38.4119730" lon="-0.6759580">
        <ele>277.0</ele>
        <time>2018-10-14T06:52:16Z</time>
      </trkpt>
      <trkpt lat="38.4119730" lon="-0.6759580">
        <ele>277.0</ele>
        <time>2018-10-14T06:52:17Z</time>
      </trkpt>
      <trkpt lat="38.4120100" lon="-0.6758600">
        <ele>277.0</ele>
        <time>2018-10-14T06:52:18Z</time>
      </trkpt>
      <trkpt lat="38.4120100" lon="-0.6758600">
        <ele>277.0</ele>
        <time>2018-10-14T06:52:19Z</time>
      </trkpt>
      <trkpt lat="38.4120620" lon="-0.6757780">
        <ele>277.0</ele>
        <time>2018-10-14T06:52:20Z</time>
      </trkpt>
      <trkpt lat="38.4120620" lon="-0.6757780">
        <ele>277.0</ele>
        <time>2018-10-14T06:52:21Z</time>
      </trkpt>
      <trkpt lat="38.4121130" lon="-0.6757100">
        <ele>277.0</ele>
        <time>2018-10-14T06:52:22Z</time>
      </trkpt>
      <trkpt lat="38.4121130" lon="-0.6757100">
        <ele>277.0</ele>
        <time>2018-10-14T06:52:23Z</time>
      </trkpt>
      <trkpt lat="38.4121630" lon="-0.6756500">
        <ele>277.0</ele>
        <time>2018-10-14T06:52:24Z</time>
      </trkpt>
      <trkpt lat="38.4121630" lon="-0.6756500">
        <ele>277.0</ele>
        <time>2018-10-14T06:52:25Z</time>
      </trkpt>
      <trkpt lat="38.4122130" lon="-0.6755920">
        <ele>277.0</ele>
        <time>2018-10-14T06:52:26Z</time>
      </trkpt>
      <trkpt lat="38.4122380" lon="-0.6755650">
        <ele>276.0</ele>
        <time>2018-10-14T06:52:27Z</time>
      </trkpt>
      <trkpt lat="38.4122380" lon="-0.6755650">
        <ele>276.0</ele>
        <time>2018-10-14T06:52:28Z</time>
      </trkpt>
      <trkpt lat="38.4122900" lon="-0.6755170">
        <ele>276.0</ele>
        <time>2018-10-14T06:52:29Z</time>
      </trkpt>
      <trkpt lat="38.4123150" lon="-0.6754930">
        <ele>276.0</ele>
        <time>2018-10-14T06:52:30Z</time>
      </trkpt>
      <trkpt lat="38.4123150" lon="-0.6754930">
        <ele>276.0</ele>
        <time>2018-10-14T06:52:31Z</time>
      </trkpt>
      <trkpt lat="38.4123650" lon="-0.6754420">
        <ele>276.0</ele>
        <time>2018-10-14T06:52:32Z</time>
      </trkpt>
      <trkpt lat="38.4123650" lon="-0.6754420">
        <ele>276.0</ele>
        <time>2018-10-14T06:52:33Z</time>
      </trkpt>
      <trkpt lat="38.4124150" lon="-0.6753850">
        <ele>276.0</ele>
        <time>2018-10-14T06:52:34Z</time>
      </trkpt>
      <trkpt lat="38.4124150" lon="-0.6753850">
        <ele>276.0</ele>
        <time>2018-10-14T06:52:35Z</time>
      </trkpt>
      <trkpt lat="38.4124670" lon="-0.6753280">
        <ele>276.0</ele>
        <time>2018-10-14T06:52:36Z</time>
      </trkpt>
      <trkpt lat="38.4124670" lon="-0.6753280">
        <ele>276.0</ele>
        <time>2018-10-14T06:52:37Z</time>
      </trkpt>
      <trkpt lat="38.4125220" lon="-0.6752720">
        <ele>276.0</ele>
        <time>2018-10-14T06:52:38Z</time>
      </trkpt>
      <trkpt lat="38.4125220" lon="-0.6752720">
        <ele>276.0</ele>
        <time>2018-10-14T06:52:39Z</time>
      </trkpt>
      <trkpt lat="38.4125700" lon="-0.6752100">
        <ele>276.0</ele>
        <time>2018-10-14T06:52:40Z</time>
      </trkpt>
      <trkpt lat="38.4125700" lon="-0.6752100">
        <ele>276.0</ele>
        <time>2018-10-14T06:52:41Z</time>
      </trkpt>
      <trkpt lat="38.4126170" lon="-0.6751470">
        <ele>276.0</ele>
        <time>2018-10-14T06:52:42Z</time>
      </trkpt>
      <trkpt lat="38.4126170" lon="-0.6751470">
        <ele>276.0</ele>
        <time>2018-10-14T06:52:43Z</time>
      </trkpt>
      <trkpt lat="38.4126630" lon="-0.6750800">
        <ele>276.0</ele>
        <time>2018-10-14T06:52:44Z</time>
      </trkpt>
      <trkpt lat="38.4126630" lon="-0.6750800">
        <ele>276.0</ele>
        <time>2018-10-14T06:52:45Z</time>
      </trkpt>
      <trkpt lat="38.4127170" lon="-0.6750220">
        <ele>276.0</ele>
        <time>2018-10-14T06:52:46Z</time>
      </trkpt>
      <trkpt lat="38.4127170" lon="-0.6750220">
        <ele>276.0</ele>
        <time>2018-10-14T06:52:47Z</time>
      </trkpt>
      <trkpt lat="38.4127730" lon="-0.6749720">
        <ele>277.0</ele>
        <time>2018-10-14T06:52:48Z</time>
      </trkpt>
      <trkpt lat="38.4127730" lon="-0.6749720">
        <ele>277.0</ele>
        <time>2018-10-14T06:52:49Z</time>
      </trkpt>
      <trkpt lat="38.4128350" lon="-0.6749280">
        <ele>277.0</ele>
        <time>2018-10-14T06:52:50Z</time>
      </trkpt>
      <trkpt lat="38.4128350" lon="-0.6749280">
        <ele>277.0</ele>
        <time>2018-10-14T06:52:51Z</time>
      </trkpt>
      <trkpt lat="38.4129030" lon="-0.6748820">
        <ele>276.0</ele>
        <time>2018-10-14T06:52:52Z</time>
      </trkpt>
      <trkpt lat="38.4129030" lon="-0.6748820">
        <ele>276.0</ele>
        <time>2018-10-14T06:52:53Z</time>
      </trkpt>
      <trkpt lat="38.4129800" lon="-0.6748130">
        <ele>276.0</ele>
        <time>2018-10-14T06:52:54Z</time>
      </trkpt>
      <trkpt lat="38.4129800" lon="-0.6748130">
        <ele>276.0</ele>
        <time>2018-10-14T06:52:55Z</time>
      </trkpt>
      <trkpt lat="38.4130600" lon="-0.6747220">
        <ele>276.0</ele>
        <time>2018-10-14T06:52:56Z</time>
      </trkpt>
      <trkpt lat="38.4130600" lon="-0.6747220">
        <ele>276.0</ele>
        <time>2018-10-14T06:52:57Z</time>
      </trkpt>
      <trkpt lat="38.4131380" lon="-0.6746400">
        <ele>275.0</ele>
        <time>2018-10-14T06:52:58Z</time>
      </trkpt>
      <trkpt lat="38.4131380" lon="-0.6746400">
        <ele>275.0</ele>
        <time>2018-10-14T06:52:59Z</time>
      </trkpt>
      <trkpt lat="38.4132130" lon="-0.6745670">
        <ele>275.0</ele>
        <time>2018-10-14T06:53:00Z</time>
      </trkpt>
      <trkpt lat="38.4132130" lon="-0.6745670">
        <ele>275.0</ele>
        <time>2018-10-14T06:53:01Z</time>
      </trkpt>
      <trkpt lat="38.4132830" lon="-0.6744920">
        <ele>275.0</ele>
        <time>2018-10-14T06:53:02Z</time>
      </trkpt>
      <trkpt lat="38.4132830" lon="-0.6744920">
        <ele>275.0</ele>
        <time>2018-10-14T06:53:03Z</time>
      </trkpt>
      <trkpt lat="38.4133500" lon="-0.6744130">
        <ele>274.0</ele>
        <time>2018-10-14T06:53:04Z</time>
      </trkpt>
      <trkpt lat="38.4133500" lon="-0.6744130">
        <ele>274.0</ele>
        <time>2018-10-14T06:53:05Z</time>
      </trkpt>
      <trkpt lat="38.4134180" lon="-0.6743330">
        <ele>274.0</ele>
        <time>2018-10-14T06:53:06Z</time>
      </trkpt>
      <trkpt lat="38.4134180" lon="-0.6743330">
        <ele>274.0</ele>
        <time>2018-10-14T06:53:07Z</time>
      </trkpt>
      <trkpt lat="38.4134850" lon="-0.6742520">
        <ele>274.0</ele>
        <time>2018-10-14T06:53:08Z</time>
      </trkpt>
      <trkpt lat="38.4134850" lon="-0.6742520">
        <ele>274.0</ele>
        <time>2018-10-14T06:53:09Z</time>
      </trkpt>
      <trkpt lat="38.4135470" lon="-0.6741730">
        <ele>274.0</ele>
        <time>2018-10-14T06:53:10Z</time>
      </trkpt>
      <trkpt lat="38.4135470" lon="-0.6741730">
        <ele>274.0</ele>
        <time>2018-10-14T06:53:11Z</time>
      </trkpt>
      <trkpt lat="38.4136100" lon="-0.6741000">
        <ele>274.0</ele>
        <time>2018-10-14T06:53:12Z</time>
      </trkpt>
      <trkpt lat="38.4136100" lon="-0.6741000">
        <ele>274.0</ele>
        <time>2018-10-14T06:53:13Z</time>
      </trkpt>
      <trkpt lat="38.4136600" lon="-0.6740330">
        <ele>274.0</ele>
        <time>2018-10-14T06:53:14Z</time>
      </trkpt>
      <trkpt lat="38.4136600" lon="-0.6740330">
        <ele>274.0</ele>
        <time>2018-10-14T06:53:15Z</time>
      </trkpt>
      <trkpt lat="38.4136980" lon="-0.6739770">
        <ele>274.0</ele>
        <time>2018-10-14T06:53:16Z</time>
      </trkpt>
      <trkpt lat="38.4136980" lon="-0.6739770">
        <ele>274.0</ele>
        <time>2018-10-14T06:53:17Z</time>
      </trkpt>
      <trkpt lat="38.4137330" lon="-0.6739220">
        <ele>274.0</ele>
        <time>2018-10-14T06:53:18Z</time>
      </trkpt>
      <trkpt lat="38.4137330" lon="-0.6739220">
        <ele>274.0</ele>
        <time>2018-10-14T06:53:19Z</time>
      </trkpt>
      <trkpt lat="38.4137730" lon="-0.6738580">
        <ele>274.0</ele>
        <time>2018-10-14T06:53:20Z</time>
      </trkpt>
      <trkpt lat="38.4137730" lon="-0.6738580">
        <ele>274.0</ele>
        <time>2018-10-14T06:53:21Z</time>
      </trkpt>
      <trkpt lat="38.4138150" lon="-0.6737930">
        <ele>274.0</ele>
        <time>2018-10-14T06:53:22Z</time>
      </trkpt>
      <trkpt lat="38.4138150" lon="-0.6737930">
        <ele>275.0</ele>
        <time>2018-10-14T06:53:23Z</time>
      </trkpt>
      <trkpt lat="38.4138600" lon="-0.6737220">
        <ele>275.0</ele>
        <time>2018-10-14T06:53:24Z</time>
      </trkpt>
      <trkpt lat="38.4138600" lon="-0.6737220">
        <ele>275.0</ele>
        <time>2018-10-14T06:53:25Z</time>
      </trkpt>
      <trkpt lat="38.4139150" lon="-0.6736470">
        <ele>275.0</ele>
        <time>2018-10-14T06:53:26Z</time>
      </trkpt>
      <trkpt lat="38.4139150" lon="-0.6736470">
        <ele>275.0</ele>
        <time>2018-10-14T06:53:27Z</time>
      </trkpt>
      <trkpt lat="38.4139780" lon="-0.6735750">
        <ele>275.0</ele>
        <time>2018-10-14T06:53:28Z</time>
      </trkpt>
      <trkpt lat="38.4140070" lon="-0.6735400">
        <ele>275.0</ele>
        <time>2018-10-14T06:53:29Z</time>
      </trkpt>
      <trkpt lat="38.4140070" lon="-0.6735400">
        <ele>275.0</ele>
        <time>2018-10-14T06:53:30Z</time>
      </trkpt>
      <trkpt lat="38.4140570" lon="-0.6734670">
        <ele>275.0</ele>
        <time>2018-10-14T06:53:31Z</time>
      </trkpt>
      <trkpt lat="38.4140780" lon="-0.6734280">
        <ele>275.0</ele>
        <time>2018-10-14T06:53:32Z</time>
      </trkpt>
      <trkpt lat="38.4140780" lon="-0.6734280">
        <ele>275.0</ele>
        <time>2018-10-14T06:53:33Z</time>
      </trkpt>
      <trkpt lat="38.4141180" lon="-0.6733520">
        <ele>275.0</ele>
        <time>2018-10-14T06:53:34Z</time>
      </trkpt>
      <trkpt lat="38.4141180" lon="-0.6733520">
        <ele>275.0</ele>
        <time>2018-10-14T06:53:35Z</time>
      </trkpt>
      <trkpt lat="38.4141620" lon="-0.6732750">
        <ele>275.0</ele>
        <time>2018-10-14T06:53:36Z</time>
      </trkpt>
      <trkpt lat="38.4141620" lon="-0.6732750">
        <ele>275.0</ele>
        <time>2018-10-14T06:53:37Z</time>
      </trkpt>
      <trkpt lat="38.4142050" lon="-0.6731920">
        <ele>275.0</ele>
        <time>2018-10-14T06:53:38Z</time>
      </trkpt>
      <trkpt lat="38.4142270" lon="-0.6731530">
        <ele>275.0</ele>
        <time>2018-10-14T06:53:39Z</time>
      </trkpt>
      <trkpt lat="38.4142270" lon="-0.6731530">
        <ele>275.0</ele>
        <time>2018-10-14T06:53:40Z</time>
      </trkpt>
      <trkpt lat="38.4142780" lon="-0.6730780">
        <ele>275.0</ele>
        <time>2018-10-14T06:53:41Z</time>
      </trkpt>
      <trkpt lat="38.4143030" lon="-0.6730420">
        <ele>275.0</ele>
        <time>2018-10-14T06:53:42Z</time>
      </trkpt>
      <trkpt lat="38.4143030" lon="-0.6730420">
        <ele>275.0</ele>
        <time>2018-10-14T06:53:43Z</time>
      </trkpt>
      <trkpt lat="38.4143600" lon="-0.6729650">
        <ele>275.0</ele>
        <time>2018-10-14T06:53:44Z</time>
      </trkpt>
      <trkpt lat="38.4143600" lon="-0.6729650">
        <ele>275.0</ele>
        <time>2018-10-14T06:53:45Z</time>
      </trkpt>
      <trkpt lat="38.4144080" lon="-0.6728920">
        <ele>275.0</ele>
        <time>2018-10-14T06:53:46Z</time>
      </trkpt>
      <trkpt lat="38.4144080" lon="-0.6728920">
        <ele>275.0</ele>
        <time>2018-10-14T06:53:47Z</time>
      </trkpt>
      <trkpt lat="38.4144520" lon="-0.6728500">
        <ele>275.0</ele>
        <time>2018-10-14T06:53:48Z</time>
      </trkpt>
      <trkpt lat="38.4144520" lon="-0.6728500">
        <ele>275.0</ele>
        <time>2018-10-14T06:53:49Z</time>
      </trkpt>
      <trkpt lat="38.4145030" lon="-0.6728320">
        <ele>275.0</ele>
        <time>2018-10-14T06:53:50Z</time>
      </trkpt>
      <trkpt lat="38.4145030" lon="-0.6728320">
        <ele>275.0</ele>
        <time>2018-10-14T06:53:51Z</time>
      </trkpt>
      <trkpt lat="38.4145580" lon="-0.6728430">
        <ele>275.0</ele>
        <time>2018-10-14T06:53:52Z</time>
      </trkpt>
      <trkpt lat="38.4145850" lon="-0.6728670">
        <ele>275.0</ele>
        <time>2018-10-14T06:53:53Z</time>
      </trkpt>
      <trkpt lat="38.4146080" lon="-0.6728920">
        <ele>275.0</ele>
        <time>2018-10-14T06:53:54Z</time>
      </trkpt>
      <trkpt lat="38.4146080" lon="-0.6728920">
        <ele>275.0</ele>
        <time>2018-10-14T06:53:55Z</time>
      </trkpt>
      <trkpt lat="38.4146470" lon="-0.6729620">
        <ele>275.0</ele>
        <time>2018-10-14T06:53:56Z</time>
      </trkpt>
      <trkpt lat="38.4146470" lon="-0.6729620">
        <ele>275.0</ele>
        <time>2018-10-14T06:53:57Z</time>
      </trkpt>
      <trkpt lat="38.4146750" lon="-0.6730400">
        <ele>275.0</ele>
        <time>2018-10-14T06:53:58Z</time>
      </trkpt>
      <trkpt lat="38.4146750" lon="-0.6730400">
        <ele>275.0</ele>
        <time>2018-10-14T06:53:59Z</time>
      </trkpt>
      <trkpt lat="38.4147050" lon="-0.6731230">
        <ele>275.0</ele>
        <time>2018-10-14T06:54:00Z</time>
      </trkpt>
      <trkpt lat="38.4147050" lon="-0.6731230">
        <ele>275.0</ele>
        <time>2018-10-14T06:54:01Z</time>
      </trkpt>
      <trkpt lat="38.4147380" lon="-0.6732000">
        <ele>275.0</ele>
        <time>2018-10-14T06:54:02Z</time>
      </trkpt>
      <trkpt lat="38.4147550" lon="-0.6732370">
        <ele>276.0</ele>
        <time>2018-10-14T06:54:03Z</time>
      </trkpt>
      <trkpt lat="38.4147550" lon="-0.6732370">
        <ele>276.0</ele>
        <time>2018-10-14T06:54:04Z</time>
      </trkpt>
      <trkpt lat="38.4147920" lon="-0.6733070">
        <ele>276.0</ele>
        <time>2018-10-14T06:54:05Z</time>
      </trkpt>
      <trkpt lat="38.4148130" lon="-0.6733350">
        <ele>276.0</ele>
        <time>2018-10-14T06:54:06Z</time>
      </trkpt>
      <trkpt lat="38.4148130" lon="-0.6733350">
        <ele>277.0</ele>
        <time>2018-10-14T06:54:07Z</time>
      </trkpt>
      <trkpt lat="38.4148580" lon="-0.6733930">
        <ele>277.0</ele>
        <time>2018-10-14T06:54:08Z</time>
      </trkpt>
      <trkpt lat="38.4148580" lon="-0.6733930">
        <ele>277.0</ele>
        <time>2018-10-14T06:54:09Z</time>
      </trkpt>
      <trkpt lat="38.4149020" lon="-0.6734520">
        <ele>277.0</ele>
        <time>2018-10-14T06:54:10Z</time>
      </trkpt>
      <trkpt lat="38.4149020" lon="-0.6734520">
        <ele>277.0</ele>
        <time>2018-10-14T06:54:11Z</time>
      </trkpt>
      <trkpt lat="38.4149470" lon="-0.6735100">
        <ele>277.0</ele>
        <time>2018-10-14T06:54:12Z</time>
      </trkpt>
      <trkpt lat="38.4149720" lon="-0.6735400">
        <ele>277.0</ele>
        <time>2018-10-14T06:54:13Z</time>
      </trkpt>
      <trkpt lat="38.4149970" lon="-0.6735680">
        <ele>277.0</ele>
        <time>2018-10-14T06:54:14Z</time>
      </trkpt>
      <trkpt lat="38.4149970" lon="-0.6735680">
        <ele>277.0</ele>
        <time>2018-10-14T06:54:15Z</time>
      </trkpt>
      <trkpt lat="38.4150430" lon="-0.6736430">
        <ele>278.0</ele>
        <time>2018-10-14T06:54:16Z</time>
      </trkpt>
      <trkpt lat="38.4150650" lon="-0.6736820">
        <ele>278.0</ele>
        <time>2018-10-14T06:54:17Z</time>
      </trkpt>
      <trkpt lat="38.4150870" lon="-0.6737200">
        <ele>278.0</ele>
        <time>2018-10-14T06:54:18Z</time>
      </trkpt>
      <trkpt lat="38.4150870" lon="-0.6737200">
        <ele>278.0</ele>
        <time>2018-10-14T06:54:19Z</time>
      </trkpt>
      <trkpt lat="38.4151300" lon="-0.6737900">
        <ele>278.0</ele>
        <time>2018-10-14T06:54:20Z</time>
      </trkpt>
      <trkpt lat="38.4151300" lon="-0.6737900">
        <ele>278.0</ele>
        <time>2018-10-14T06:54:21Z</time>
      </trkpt>
      <trkpt lat="38.4151670" lon="-0.6738600">
        <ele>278.0</ele>
        <time>2018-10-14T06:54:22Z</time>
      </trkpt>
      <trkpt lat="38.4151670" lon="-0.6738600">
        <ele>278.0</ele>
        <time>2018-10-14T06:54:23Z</time>
      </trkpt>
      <trkpt lat="38.4152000" lon="-0.6739280">
        <ele>278.0</ele>
        <time>2018-10-14T06:54:24Z</time>
      </trkpt>
      <trkpt lat="38.4152000" lon="-0.6739280">
        <ele>278.0</ele>
        <time>2018-10-14T06:54:25Z</time>
      </trkpt>
      <trkpt lat="38.4152370" lon="-0.6740050">
        <ele>278.0</ele>
        <time>2018-10-14T06:54:26Z</time>
      </trkpt>
      <trkpt lat="38.4152370" lon="-0.6740050">
        <ele>278.0</ele>
        <time>2018-10-14T06:54:27Z</time>
      </trkpt>
      <trkpt lat="38.4152730" lon="-0.6740720">
        <ele>278.0</ele>
        <time>2018-10-14T06:54:28Z</time>
      </trkpt>
      <trkpt lat="38.4152730" lon="-0.6740720">
        <ele>279.0</ele>
        <time>2018-10-14T06:54:29Z</time>
      </trkpt>
      <trkpt lat="38.4153150" lon="-0.6741250">
        <ele>279.0</ele>
        <time>2018-10-14T06:54:30Z</time>
      </trkpt>
      <trkpt lat="38.4153150" lon="-0.6741250">
        <ele>279.0</ele>
        <time>2018-10-14T06:54:31Z</time>
      </trkpt>
      <trkpt lat="38.4153680" lon="-0.6741720">
        <ele>279.0</ele>
        <time>2018-10-14T06:54:32Z</time>
      </trkpt>
      <trkpt lat="38.4153680" lon="-0.6741720">
        <ele>279.0</ele>
        <time>2018-10-14T06:54:33Z</time>
      </trkpt>
      <trkpt lat="38.4154150" lon="-0.6742320">
        <ele>279.0</ele>
        <time>2018-10-14T06:54:34Z</time>
      </trkpt>
      <trkpt lat="38.4154150" lon="-0.6742320">
        <ele>279.0</ele>
        <time>2018-10-14T06:54:35Z</time>
      </trkpt>
      <trkpt lat="38.4154580" lon="-0.6743050">
        <ele>279.0</ele>
        <time>2018-10-14T06:54:36Z</time>
      </trkpt>
      <trkpt lat="38.4154580" lon="-0.6743050">
        <ele>280.0</ele>
        <time>2018-10-14T06:54:37Z</time>
      </trkpt>
      <trkpt lat="38.4155030" lon="-0.6743750">
        <ele>280.0</ele>
        <time>2018-10-14T06:54:38Z</time>
      </trkpt>
      <trkpt lat="38.4155030" lon="-0.6743750">
        <ele>280.0</ele>
        <time>2018-10-14T06:54:39Z</time>
      </trkpt>
      <trkpt lat="38.4155530" lon="-0.6744450">
        <ele>280.0</ele>
        <time>2018-10-14T06:54:40Z</time>
      </trkpt>
      <trkpt lat="38.4155530" lon="-0.6744450">
        <ele>280.0</ele>
        <time>2018-10-14T06:54:41Z</time>
      </trkpt>
      <trkpt lat="38.4156120" lon="-0.6745030">
        <ele>280.0</ele>
        <time>2018-10-14T06:54:42Z</time>
      </trkpt>
      <trkpt lat="38.4156120" lon="-0.6745030">
        <ele>280.0</ele>
        <time>2018-10-14T06:54:43Z</time>
      </trkpt>
      <trkpt lat="38.4156700" lon="-0.6745600">
        <ele>280.0</ele>
        <time>2018-10-14T06:54:44Z</time>
      </trkpt>
      <trkpt lat="38.4156700" lon="-0.6745600">
        <ele>280.0</ele>
        <time>2018-10-14T06:54:45Z</time>
      </trkpt>
      <trkpt lat="38.4157230" lon="-0.6746170">
        <ele>280.0</ele>
        <time>2018-10-14T06:54:46Z</time>
      </trkpt>
      <trkpt lat="38.4157230" lon="-0.6746170">
        <ele>280.0</ele>
        <time>2018-10-14T06:54:47Z</time>
      </trkpt>
      <trkpt lat="38.4157700" lon="-0.6746820">
        <ele>280.0</ele>
        <time>2018-10-14T06:54:48Z</time>
      </trkpt>
      <trkpt lat="38.4157700" lon="-0.6746820">
        <ele>280.0</ele>
        <time>2018-10-14T06:54:49Z</time>
      </trkpt>
      <trkpt lat="38.4158050" lon="-0.6747550">
        <ele>280.0</ele>
        <time>2018-10-14T06:54:50Z</time>
      </trkpt>
      <trkpt lat="38.4158050" lon="-0.6747550">
        <ele>280.0</ele>
        <time>2018-10-14T06:54:51Z</time>
      </trkpt>
      <trkpt lat="38.4158500" lon="-0.6748330">
        <ele>280.0</ele>
        <time>2018-10-14T06:54:52Z</time>
      </trkpt>
      <trkpt lat="38.4158500" lon="-0.6748330">
        <ele>280.0</ele>
        <time>2018-10-14T06:54:53Z</time>
      </trkpt>
      <trkpt lat="38.4159180" lon="-0.6748950">
        <ele>280.0</ele>
        <time>2018-10-14T06:54:54Z</time>
      </trkpt>
      <trkpt lat="38.4159180" lon="-0.6748950">
        <ele>280.0</ele>
        <time>2018-10-14T06:54:55Z</time>
      </trkpt>
      <trkpt lat="38.4159900" lon="-0.6749280">
        <ele>280.0</ele>
        <time>2018-10-14T06:54:56Z</time>
      </trkpt>
      <trkpt lat="38.4159900" lon="-0.6749280">
        <ele>280.0</ele>
        <time>2018-10-14T06:54:57Z</time>
      </trkpt>
      <trkpt lat="38.4160680" lon="-0.6749500">
        <ele>280.0</ele>
        <time>2018-10-14T06:54:58Z</time>
      </trkpt>
      <trkpt lat="38.4161050" lon="-0.6749620">
        <ele>280.0</ele>
        <time>2018-10-14T06:54:59Z</time>
      </trkpt>
      <trkpt lat="38.4161050" lon="-0.6749620">
        <ele>280.0</ele>
        <time>2018-10-14T06:55:00Z</time>
      </trkpt>
      <trkpt lat="38.4161720" lon="-0.6749820">
        <ele>280.0</ele>
        <time>2018-10-14T06:55:01Z</time>
      </trkpt>
      <trkpt lat="38.4162020" lon="-0.6749900">
        <ele>280.0</ele>
        <time>2018-10-14T06:55:02Z</time>
      </trkpt>
      <trkpt lat="38.4162020" lon="-0.6749900">
        <ele>280.0</ele>
        <time>2018-10-14T06:55:03Z</time>
      </trkpt>
      <trkpt lat="38.4162670" lon="-0.6750170">
        <ele>280.0</ele>
        <time>2018-10-14T06:55:04Z</time>
      </trkpt>
      <trkpt lat="38.4162670" lon="-0.6750170">
        <ele>281.0</ele>
        <time>2018-10-14T06:55:05Z</time>
      </trkpt>
      <trkpt lat="38.4163420" lon="-0.6750520">
        <ele>281.0</ele>
        <time>2018-10-14T06:55:06Z</time>
      </trkpt>
      <trkpt lat="38.4163420" lon="-0.6750520">
        <ele>281.0</ele>
        <time>2018-10-14T06:55:07Z</time>
      </trkpt>
      <trkpt lat="38.4164080" lon="-0.6750980">
        <ele>281.0</ele>
        <time>2018-10-14T06:55:08Z</time>
      </trkpt>
      <trkpt lat="38.4164080" lon="-0.6750980">
        <ele>281.0</ele>
        <time>2018-10-14T06:55:09Z</time>
      </trkpt>
      <trkpt lat="38.4164750" lon="-0.6751420">
        <ele>281.0</ele>
        <time>2018-10-14T06:55:10Z</time>
      </trkpt>
      <trkpt lat="38.4164750" lon="-0.6751420">
        <ele>281.0</ele>
        <time>2018-10-14T06:55:11Z</time>
      </trkpt>
      <trkpt lat="38.4165470" lon="-0.6751900">
        <ele>281.0</ele>
        <time>2018-10-14T06:55:12Z</time>
      </trkpt>
      <trkpt lat="38.4165470" lon="-0.6751900">
        <ele>281.0</ele>
        <time>2018-10-14T06:55:13Z</time>
      </trkpt>
      <trkpt lat="38.4166180" lon="-0.6752380">
        <ele>281.0</ele>
        <time>2018-10-14T06:55:14Z</time>
      </trkpt>
      <trkpt lat="38.4166180" lon="-0.6752380">
        <ele>281.0</ele>
        <time>2018-10-14T06:55:15Z</time>
      </trkpt>
      <trkpt lat="38.4166880" lon="-0.6752820">
        <ele>281.0</ele>
        <time>2018-10-14T06:55:16Z</time>
      </trkpt>
      <trkpt lat="38.4166880" lon="-0.6752820">
        <ele>281.0</ele>
        <time>2018-10-14T06:55:17Z</time>
      </trkpt>
      <trkpt lat="38.4167550" lon="-0.6753250">
        <ele>281.0</ele>
        <time>2018-10-14T06:55:18Z</time>
      </trkpt>
      <trkpt lat="38.4167550" lon="-0.6753250">
        <ele>281.0</ele>
        <time>2018-10-14T06:55:19Z</time>
      </trkpt>
      <trkpt lat="38.4168180" lon="-0.6753730">
        <ele>281.0</ele>
        <time>2018-10-14T06:55:20Z</time>
      </trkpt>
      <trkpt lat="38.4168180" lon="-0.6753730">
        <ele>281.0</ele>
        <time>2018-10-14T06:55:21Z</time>
      </trkpt>
      <trkpt lat="38.4168780" lon="-0.6754270">
        <ele>281.0</ele>
        <time>2018-10-14T06:55:22Z</time>
      </trkpt>
      <trkpt lat="38.4169080" lon="-0.6754550">
        <ele>281.0</ele>
        <time>2018-10-14T06:55:23Z</time>
      </trkpt>
      <trkpt lat="38.4169080" lon="-0.6754550">
        <ele>281.0</ele>
        <time>2018-10-14T06:55:24Z</time>
      </trkpt>
      <trkpt lat="38.4169680" lon="-0.6755170">
        <ele>281.0</ele>
        <time>2018-10-14T06:55:25Z</time>
      </trkpt>
      <trkpt lat="38.4169980" lon="-0.6755450">
        <ele>281.0</ele>
        <time>2018-10-14T06:55:26Z</time>
      </trkpt>
      <trkpt lat="38.4169980" lon="-0.6755450">
        <ele>281.0</ele>
        <time>2018-10-14T06:55:27Z</time>
      </trkpt>
      <trkpt lat="38.4170580" lon="-0.6756050">
        <ele>281.0</ele>
        <time>2018-10-14T06:55:28Z</time>
      </trkpt>
      <trkpt lat="38.4170880" lon="-0.6756300">
        <ele>281.0</ele>
        <time>2018-10-14T06:55:29Z</time>
      </trkpt>
      <trkpt lat="38.4171170" lon="-0.6756520">
        <ele>281.0</ele>
        <time>2018-10-14T06:55:30Z</time>
      </trkpt>
      <trkpt lat="38.4171170" lon="-0.6756520">
        <ele>281.0</ele>
        <time>2018-10-14T06:55:31Z</time>
      </trkpt>
      <trkpt lat="38.4171670" lon="-0.6757150">
        <ele>282.0</ele>
        <time>2018-10-14T06:55:32Z</time>
      </trkpt>
      <trkpt lat="38.4171670" lon="-0.6757150">
        <ele>282.0</ele>
        <time>2018-10-14T06:55:33Z</time>
      </trkpt>
      <trkpt lat="38.4172130" lon="-0.6757970">
        <ele>282.0</ele>
        <time>2018-10-14T06:55:34Z</time>
      </trkpt>
      <trkpt lat="38.4172130" lon="-0.6757970">
        <ele>282.0</ele>
        <time>2018-10-14T06:55:35Z</time>
      </trkpt>
      <trkpt lat="38.4172650" lon="-0.6758830">
        <ele>282.0</ele>
        <time>2018-10-14T06:55:36Z</time>
      </trkpt>
      <trkpt lat="38.4172650" lon="-0.6758830">
        <ele>282.0</ele>
        <time>2018-10-14T06:55:37Z</time>
      </trkpt>
      <trkpt lat="38.4173250" lon="-0.6759570">
        <ele>282.0</ele>
        <time>2018-10-14T06:55:38Z</time>
      </trkpt>
      <trkpt lat="38.4173250" lon="-0.6759570">
        <ele>282.0</ele>
        <time>2018-10-14T06:55:39Z</time>
      </trkpt>
      <trkpt lat="38.4173900" lon="-0.6760220">
        <ele>282.0</ele>
        <time>2018-10-14T06:55:40Z</time>
      </trkpt>
      <trkpt lat="38.4173900" lon="-0.6760220">
        <ele>282.0</ele>
        <time>2018-10-14T06:55:41Z</time>
      </trkpt>
      <trkpt lat="38.4174530" lon="-0.6760870">
        <ele>282.0</ele>
        <time>2018-10-14T06:55:42Z</time>
      </trkpt>
      <trkpt lat="38.4174530" lon="-0.6760870">
        <ele>282.0</ele>
        <time>2018-10-14T06:55:43Z</time>
      </trkpt>
      <trkpt lat="38.4175220" lon="-0.6761480">
        <ele>282.0</ele>
        <time>2018-10-14T06:55:44Z</time>
      </trkpt>
      <trkpt lat="38.4175220" lon="-0.6761480">
        <ele>282.0</ele>
        <time>2018-10-14T06:55:45Z</time>
      </trkpt>
      <trkpt lat="38.4175920" lon="-0.6762080">
        <ele>282.0</ele>
        <time>2018-10-14T06:55:46Z</time>
      </trkpt>
      <trkpt lat="38.4176280" lon="-0.6762350">
        <ele>282.0</ele>
        <time>2018-10-14T06:55:47Z</time>
      </trkpt>
      <trkpt lat="38.4176630" lon="-0.6762600">
        <ele>282.0</ele>
        <time>2018-10-14T06:55:48Z</time>
      </trkpt>
      <trkpt lat="38.4176630" lon="-0.6762600">
        <ele>282.0</ele>
        <time>2018-10-14T06:55:49Z</time>
      </trkpt>
      <trkpt lat="38.4177370" lon="-0.6763050">
        <ele>282.0</ele>
        <time>2018-10-14T06:55:50Z</time>
      </trkpt>
      <trkpt lat="38.4177370" lon="-0.6763050">
        <ele>282.0</ele>
        <time>2018-10-14T06:55:51Z</time>
      </trkpt>
      <trkpt lat="38.4178130" lon="-0.6763430">
        <ele>282.0</ele>
        <time>2018-10-14T06:55:52Z</time>
      </trkpt>
      <trkpt lat="38.4178130" lon="-0.6763430">
        <ele>281.0</ele>
        <time>2018-10-14T06:55:53Z</time>
      </trkpt>
      <trkpt lat="38.4178900" lon="-0.6763820">
        <ele>281.0</ele>
        <time>2018-10-14T06:55:54Z</time>
      </trkpt>
      <trkpt lat="38.4178900" lon="-0.6763820">
        <ele>281.0</ele>
        <time>2018-10-14T06:55:55Z</time>
      </trkpt>
      <trkpt lat="38.4179700" lon="-0.6764030">
        <ele>281.0</ele>
        <time>2018-10-14T06:55:56Z</time>
      </trkpt>
      <trkpt lat="38.4179700" lon="-0.6764030">
        <ele>281.0</ele>
        <time>2018-10-14T06:55:57Z</time>
      </trkpt>
      <trkpt lat="38.4180570" lon="-0.6764120">
        <ele>281.0</ele>
        <time>2018-10-14T06:55:58Z</time>
      </trkpt>
      <trkpt lat="38.4180570" lon="-0.6764120">
        <ele>281.0</ele>
        <time>2018-10-14T06:55:59Z</time>
      </trkpt>
      <trkpt lat="38.4181480" lon="-0.6764020">
        <ele>281.0</ele>
        <time>2018-10-14T06:56:00Z</time>
      </trkpt>
      <trkpt lat="38.4181480" lon="-0.6764020">
        <ele>281.0</ele>
        <time>2018-10-14T06:56:01Z</time>
      </trkpt>
      <trkpt lat="38.4182450" lon="-0.6763880">
        <ele>281.0</ele>
        <time>2018-10-14T06:56:02Z</time>
      </trkpt>
      <trkpt lat="38.4182450" lon="-0.6763880">
        <ele>281.0</ele>
        <time>2018-10-14T06:56:03Z</time>
      </trkpt>
      <trkpt lat="38.4183350" lon="-0.6763450">
        <ele>281.0</ele>
        <time>2018-10-14T06:56:04Z</time>
      </trkpt>
      <trkpt lat="38.4183350" lon="-0.6763450">
        <ele>281.0</ele>
        <time>2018-10-14T06:56:05Z</time>
      </trkpt>
      <trkpt lat="38.4184180" lon="-0.6762880">
        <ele>281.0</ele>
        <time>2018-10-14T06:56:06Z</time>
      </trkpt>
      <trkpt lat="38.4184180" lon="-0.6762880">
        <ele>281.0</ele>
        <time>2018-10-14T06:56:07Z</time>
      </trkpt>
      <trkpt lat="38.4185000" lon="-0.6762250">
        <ele>281.0</ele>
        <time>2018-10-14T06:56:08Z</time>
      </trkpt>
      <trkpt lat="38.4185000" lon="-0.6762250">
        <ele>281.0</ele>
        <time>2018-10-14T06:56:09Z</time>
      </trkpt>
      <trkpt lat="38.4185750" lon="-0.6761620">
        <ele>281.0</ele>
        <time>2018-10-14T06:56:10Z</time>
      </trkpt>
      <trkpt lat="38.4185750" lon="-0.6761620">
        <ele>281.0</ele>
        <time>2018-10-14T06:56:11Z</time>
      </trkpt>
      <trkpt lat="38.4186500" lon="-0.6761030">
        <ele>281.0</ele>
        <time>2018-10-14T06:56:12Z</time>
      </trkpt>
      <trkpt lat="38.4186500" lon="-0.6761030">
        <ele>281.0</ele>
        <time>2018-10-14T06:56:13Z</time>
      </trkpt>
      <trkpt lat="38.4187300" lon="-0.6760550">
        <ele>281.0</ele>
        <time>2018-10-14T06:56:14Z</time>
      </trkpt>
      <trkpt lat="38.4187300" lon="-0.6760550">
        <ele>281.0</ele>
        <time>2018-10-14T06:56:15Z</time>
      </trkpt>
      <trkpt lat="38.4188130" lon="-0.6760350">
        <ele>281.0</ele>
        <time>2018-10-14T06:56:16Z</time>
      </trkpt>
      <trkpt lat="38.4188550" lon="-0.6760320">
        <ele>281.0</ele>
        <time>2018-10-14T06:56:17Z</time>
      </trkpt>
      <trkpt lat="38.4188970" lon="-0.6760320">
        <ele>281.0</ele>
        <time>2018-10-14T06:56:18Z</time>
      </trkpt>
      <trkpt lat="38.4188970" lon="-0.6760320">
        <ele>281.0</ele>
        <time>2018-10-14T06:56:19Z</time>
      </trkpt>
      <trkpt lat="38.4189830" lon="-0.6760480">
        <ele>281.0</ele>
        <time>2018-10-14T06:56:20Z</time>
      </trkpt>
      <trkpt lat="38.4189830" lon="-0.6760480">
        <ele>281.0</ele>
        <time>2018-10-14T06:56:21Z</time>
      </trkpt>
      <trkpt lat="38.4190700" lon="-0.6760570">
        <ele>281.0</ele>
        <time>2018-10-14T06:56:22Z</time>
      </trkpt>
      <trkpt lat="38.4190700" lon="-0.6760570">
        <ele>281.0</ele>
        <time>2018-10-14T06:56:23Z</time>
      </trkpt>
      <trkpt lat="38.4191500" lon="-0.6760520">
        <ele>281.0</ele>
        <time>2018-10-14T06:56:24Z</time>
      </trkpt>
      <trkpt lat="38.4191880" lon="-0.6760450">
        <ele>281.0</ele>
        <time>2018-10-14T06:56:25Z</time>
      </trkpt>
      <trkpt lat="38.4191880" lon="-0.6760450">
        <ele>282.0</ele>
        <time>2018-10-14T06:56:26Z</time>
      </trkpt>
      <trkpt lat="38.4192600" lon="-0.6760270">
        <ele>282.0</ele>
        <time>2018-10-14T06:56:27Z</time>
      </trkpt>
      <trkpt lat="38.4192600" lon="-0.6760270">
        <ele>282.0</ele>
        <time>2018-10-14T06:56:28Z</time>
      </trkpt>
      <trkpt lat="38.4193300" lon="-0.6760020">
        <ele>282.0</ele>
        <time>2018-10-14T06:56:29Z</time>
      </trkpt>
      <trkpt lat="38.4193650" lon="-0.6759850">
        <ele>282.0</ele>
        <time>2018-10-14T06:56:30Z</time>
      </trkpt>
      <trkpt lat="38.4193650" lon="-0.6759850">
        <ele>282.0</ele>
        <time>2018-10-14T06:56:31Z</time>
      </trkpt>
      <trkpt lat="38.4194280" lon="-0.6759550">
        <ele>282.0</ele>
        <time>2018-10-14T06:56:32Z</time>
      </trkpt>
      <trkpt lat="38.4194280" lon="-0.6759550">
        <ele>282.0</ele>
        <time>2018-10-14T06:56:33Z</time>
      </trkpt>
      <trkpt lat="38.4194930" lon="-0.6759220">
        <ele>283.0</ele>
        <time>2018-10-14T06:56:34Z</time>
      </trkpt>
      <trkpt lat="38.4194930" lon="-0.6759220">
        <ele>283.0</ele>
        <time>2018-10-14T06:56:35Z</time>
      </trkpt>
      <trkpt lat="38.4195530" lon="-0.6758880">
        <ele>283.0</ele>
        <time>2018-10-14T06:56:36Z</time>
      </trkpt>
      <trkpt lat="38.4195530" lon="-0.6758880">
        <ele>283.0</ele>
        <time>2018-10-14T06:56:37Z</time>
      </trkpt>
      <trkpt lat="38.4196130" lon="-0.6758530">
        <ele>283.0</ele>
        <time>2018-10-14T06:56:38Z</time>
      </trkpt>
      <trkpt lat="38.4196130" lon="-0.6758530">
        <ele>283.0</ele>
        <time>2018-10-14T06:56:39Z</time>
      </trkpt>
      <trkpt lat="38.4196730" lon="-0.6758150">
        <ele>283.0</ele>
        <time>2018-10-14T06:56:40Z</time>
      </trkpt>
      <trkpt lat="38.4196730" lon="-0.6758150">
        <ele>283.0</ele>
        <time>2018-10-14T06:56:41Z</time>
      </trkpt>
      <trkpt lat="38.4197330" lon="-0.6757720">
        <ele>283.0</ele>
        <time>2018-10-14T06:56:42Z</time>
      </trkpt>
      <trkpt lat="38.4197330" lon="-0.6757720">
        <ele>283.0</ele>
        <time>2018-10-14T06:56:43Z</time>
      </trkpt>
      <trkpt lat="38.4197980" lon="-0.6757320">
        <ele>284.0</ele>
        <time>2018-10-14T06:56:44Z</time>
      </trkpt>
      <trkpt lat="38.4197980" lon="-0.6757320">
        <ele>284.0</ele>
        <time>2018-10-14T06:56:45Z</time>
      </trkpt>
      <trkpt lat="38.4198680" lon="-0.6756980">
        <ele>284.0</ele>
        <time>2018-10-14T06:56:46Z</time>
      </trkpt>
      <trkpt lat="38.4198680" lon="-0.6756980">
        <ele>284.0</ele>
        <time>2018-10-14T06:56:47Z</time>
      </trkpt>
      <trkpt lat="38.4199400" lon="-0.6756850">
        <ele>284.0</ele>
        <time>2018-10-14T06:56:48Z</time>
      </trkpt>
      <trkpt lat="38.4199400" lon="-0.6756850">
        <ele>284.0</ele>
        <time>2018-10-14T06:56:49Z</time>
      </trkpt>
      <trkpt lat="38.4200050" lon="-0.6757080">
        <ele>284.0</ele>
        <time>2018-10-14T06:56:50Z</time>
      </trkpt>
      <trkpt lat="38.4200050" lon="-0.6757080">
        <ele>284.0</ele>
        <time>2018-10-14T06:56:51Z</time>
      </trkpt>
      <trkpt lat="38.4200600" lon="-0.6757570">
        <ele>285.0</ele>
        <time>2018-10-14T06:56:52Z</time>
      </trkpt>
      <trkpt lat="38.4200600" lon="-0.6757570">
        <ele>285.0</ele>
        <time>2018-10-14T06:56:53Z</time>
      </trkpt>
      <trkpt lat="38.4201120" lon="-0.6758370">
        <ele>285.0</ele>
        <time>2018-10-14T06:56:54Z</time>
      </trkpt>
      <trkpt lat="38.4201120" lon="-0.6758370">
        <ele>285.0</ele>
        <time>2018-10-14T06:56:55Z</time>
      </trkpt>
      <trkpt lat="38.4201580" lon="-0.6759320">
        <ele>285.0</ele>
        <time>2018-10-14T06:56:56Z</time>
      </trkpt>
      <trkpt lat="38.4201580" lon="-0.6759320">
        <ele>285.0</ele>
        <time>2018-10-14T06:56:57Z</time>
      </trkpt>
      <trkpt lat="38.4202050" lon="-0.6760270">
        <ele>285.0</ele>
        <time>2018-10-14T06:56:58Z</time>
      </trkpt>
      <trkpt lat="38.4202050" lon="-0.6760270">
        <ele>285.0</ele>
        <time>2018-10-14T06:56:59Z</time>
      </trkpt>
      <trkpt lat="38.4202520" lon="-0.6761120">
        <ele>285.0</ele>
        <time>2018-10-14T06:57:00Z</time>
      </trkpt>
      <trkpt lat="38.4202520" lon="-0.6761120">
        <ele>285.0</ele>
        <time>2018-10-14T06:57:01Z</time>
      </trkpt>
      <trkpt lat="38.4202900" lon="-0.6761900">
        <ele>285.0</ele>
        <time>2018-10-14T06:57:02Z</time>
      </trkpt>
      <trkpt lat="38.4202900" lon="-0.6761900">
        <ele>285.0</ele>
        <time>2018-10-14T06:57:03Z</time>
      </trkpt>
      <trkpt lat="38.4203230" lon="-0.6762630">
        <ele>285.0</ele>
        <time>2018-10-14T06:57:04Z</time>
      </trkpt>
      <trkpt lat="38.4203230" lon="-0.6762630">
        <ele>285.0</ele>
        <time>2018-10-14T06:57:05Z</time>
      </trkpt>
      <trkpt lat="38.4203570" lon="-0.6763320">
        <ele>285.0</ele>
        <time>2018-10-14T06:57:06Z</time>
      </trkpt>
      <trkpt lat="38.4203570" lon="-0.6763320">
        <ele>285.0</ele>
        <time>2018-10-14T06:57:07Z</time>
      </trkpt>
      <trkpt lat="38.4203920" lon="-0.6764020">
        <ele>285.0</ele>
        <time>2018-10-14T06:57:08Z</time>
      </trkpt>
      <trkpt lat="38.4203920" lon="-0.6764020">
        <ele>285.0</ele>
        <time>2018-10-14T06:57:09Z</time>
      </trkpt>
      <trkpt lat="38.4204220" lon="-0.6764750">
        <ele>285.0</ele>
        <time>2018-10-14T06:57:10Z</time>
      </trkpt>
      <trkpt lat="38.4204220" lon="-0.6764750">
        <ele>285.0</ele>
        <time>2018-10-14T06:57:11Z</time>
      </trkpt>
      <trkpt lat="38.4204500" lon="-0.6765450">
        <ele>286.0</ele>
        <time>2018-10-14T06:57:12Z</time>
      </trkpt>
      <trkpt lat="38.4204500" lon="-0.6765450">
        <ele>286.0</ele>
        <time>2018-10-14T06:57:13Z</time>
      </trkpt>
      <trkpt lat="38.4204820" lon="-0.6766050">
        <ele>286.0</ele>
        <time>2018-10-14T06:57:14Z</time>
      </trkpt>
      <trkpt lat="38.4204820" lon="-0.6766050">
        <ele>286.0</ele>
        <time>2018-10-14T06:57:15Z</time>
      </trkpt>
      <trkpt lat="38.4205220" lon="-0.6766620">
        <ele>286.0</ele>
        <time>2018-10-14T06:57:16Z</time>
      </trkpt>
      <trkpt lat="38.4205220" lon="-0.6766620">
        <ele>286.0</ele>
        <time>2018-10-14T06:57:17Z</time>
      </trkpt>
      <trkpt lat="38.4205680" lon="-0.6767170">
        <ele>287.0</ele>
        <time>2018-10-14T06:57:18Z</time>
      </trkpt>
      <trkpt lat="38.4205680" lon="-0.6767170">
        <ele>287.0</ele>
        <time>2018-10-14T06:57:19Z</time>
      </trkpt>
      <trkpt lat="38.4206220" lon="-0.6767620">
        <ele>287.0</ele>
        <time>2018-10-14T06:57:20Z</time>
      </trkpt>
      <trkpt lat="38.4206220" lon="-0.6767620">
        <ele>287.0</ele>
        <time>2018-10-14T06:57:21Z</time>
      </trkpt>
      <trkpt lat="38.4206800" lon="-0.6767970">
        <ele>287.0</ele>
        <time>2018-10-14T06:57:22Z</time>
      </trkpt>
      <trkpt lat="38.4206800" lon="-0.6767970">
        <ele>287.0</ele>
        <time>2018-10-14T06:57:23Z</time>
      </trkpt>
      <trkpt lat="38.4207450" lon="-0.6768170">
        <ele>287.0</ele>
        <time>2018-10-14T06:57:24Z</time>
      </trkpt>
      <trkpt lat="38.4207780" lon="-0.6768220">
        <ele>287.0</ele>
        <time>2018-10-14T06:57:25Z</time>
      </trkpt>
      <trkpt lat="38.4208130" lon="-0.6768280">
        <ele>288.0</ele>
        <time>2018-10-14T06:57:26Z</time>
      </trkpt>
      <trkpt lat="38.4208470" lon="-0.6768370">
        <ele>288.0</ele>
        <time>2018-10-14T06:57:27Z</time>
      </trkpt>
      <trkpt lat="38.4208470" lon="-0.6768370">
        <ele>288.0</ele>
        <time>2018-10-14T06:57:28Z</time>
      </trkpt>
      <trkpt lat="38.4209180" lon="-0.6768530">
        <ele>288.0</ele>
        <time>2018-10-14T06:57:29Z</time>
      </trkpt>
      <trkpt lat="38.4209530" lon="-0.6768650">
        <ele>288.0</ele>
        <time>2018-10-14T06:57:30Z</time>
      </trkpt>
      <trkpt lat="38.4209530" lon="-0.6768650">
        <ele>288.0</ele>
        <time>2018-10-14T06:57:31Z</time>
      </trkpt>
      <trkpt lat="38.4210250" lon="-0.6768950">
        <ele>288.0</ele>
        <time>2018-10-14T06:57:32Z</time>
      </trkpt>
      <trkpt lat="38.4210250" lon="-0.6768950">
        <ele>288.0</ele>
        <time>2018-10-14T06:57:33Z</time>
      </trkpt>
      <trkpt lat="38.4211000" lon="-0.6769280">
        <ele>289.0</ele>
        <time>2018-10-14T06:57:34Z</time>
      </trkpt>
      <trkpt lat="38.4211380" lon="-0.6769400">
        <ele>289.0</ele>
        <time>2018-10-14T06:57:35Z</time>
      </trkpt>
      <trkpt lat="38.4211770" lon="-0.6769530">
        <ele>289.0</ele>
        <time>2018-10-14T06:57:36Z</time>
      </trkpt>
      <trkpt lat="38.4211770" lon="-0.6769530">
        <ele>289.0</ele>
        <time>2018-10-14T06:57:37Z</time>
      </trkpt>
      <trkpt lat="38.4212530" lon="-0.6769750">
        <ele>289.0</ele>
        <time>2018-10-14T06:57:38Z</time>
      </trkpt>
      <trkpt lat="38.4212530" lon="-0.6769750">
        <ele>289.0</ele>
        <time>2018-10-14T06:57:39Z</time>
      </trkpt>
      <trkpt lat="38.4213300" lon="-0.6769980">
        <ele>289.0</ele>
        <time>2018-10-14T06:57:40Z</time>
      </trkpt>
      <trkpt lat="38.4213300" lon="-0.6769980">
        <ele>289.0</ele>
        <time>2018-10-14T06:57:41Z</time>
      </trkpt>
      <trkpt lat="38.4214080" lon="-0.6770250">
        <ele>289.0</ele>
        <time>2018-10-14T06:57:42Z</time>
      </trkpt>
      <trkpt lat="38.4214080" lon="-0.6770250">
        <ele>289.0</ele>
        <time>2018-10-14T06:57:43Z</time>
      </trkpt>
      <trkpt lat="38.4214830" lon="-0.6770530">
        <ele>289.0</ele>
        <time>2018-10-14T06:57:44Z</time>
      </trkpt>
      <trkpt lat="38.4215200" lon="-0.6770680">
        <ele>289.0</ele>
        <time>2018-10-14T06:57:45Z</time>
      </trkpt>
      <trkpt lat="38.4215200" lon="-0.6770680">
        <ele>289.0</ele>
        <time>2018-10-14T06:57:46Z</time>
      </trkpt>
      <trkpt lat="38.4215880" lon="-0.6770950">
        <ele>289.0</ele>
        <time>2018-10-14T06:57:47Z</time>
      </trkpt>
      <trkpt lat="38.4216200" lon="-0.6771080">
        <ele>290.0</ele>
        <time>2018-10-14T06:57:48Z</time>
      </trkpt>
      <trkpt lat="38.4216200" lon="-0.6771080">
        <ele>290.0</ele>
        <time>2018-10-14T06:57:49Z</time>
      </trkpt>
      <trkpt lat="38.4216850" lon="-0.6771250">
        <ele>290.0</ele>
        <time>2018-10-14T06:57:50Z</time>
      </trkpt>
      <trkpt lat="38.4216850" lon="-0.6771250">
        <ele>290.0</ele>
        <time>2018-10-14T06:57:51Z</time>
      </trkpt>
      <trkpt lat="38.4217500" lon="-0.6771220">
        <ele>290.0</ele>
        <time>2018-10-14T06:57:52Z</time>
      </trkpt>
      <trkpt lat="38.4217500" lon="-0.6771220">
        <ele>290.0</ele>
        <time>2018-10-14T06:57:53Z</time>
      </trkpt>
      <trkpt lat="38.4218130" lon="-0.6771000">
        <ele>290.0</ele>
        <time>2018-10-14T06:57:54Z</time>
      </trkpt>
      <trkpt lat="38.4218450" lon="-0.6770850">
        <ele>290.0</ele>
        <time>2018-10-14T06:57:55Z</time>
      </trkpt>
      <trkpt lat="38.4218750" lon="-0.6770730">
        <ele>291.0</ele>
        <time>2018-10-14T06:57:56Z</time>
      </trkpt>
      <trkpt lat="38.4218750" lon="-0.6770730">
        <ele>291.0</ele>
        <time>2018-10-14T06:57:57Z</time>
      </trkpt>
      <trkpt lat="38.4219400" lon="-0.6770550">
        <ele>291.0</ele>
        <time>2018-10-14T06:57:58Z</time>
      </trkpt>
      <trkpt lat="38.4219400" lon="-0.6770550">
        <ele>291.0</ele>
        <time>2018-10-14T06:57:59Z</time>
      </trkpt>
      <trkpt lat="38.4220070" lon="-0.6770420">
        <ele>292.0</ele>
        <time>2018-10-14T06:58:00Z</time>
      </trkpt>
      <trkpt lat="38.4220070" lon="-0.6770420">
        <ele>292.0</ele>
        <time>2018-10-14T06:58:01Z</time>
      </trkpt>
      <trkpt lat="38.4220770" lon="-0.6770330">
        <ele>292.0</ele>
        <time>2018-10-14T06:58:02Z</time>
      </trkpt>
      <trkpt lat="38.4220770" lon="-0.6770330">
        <ele>292.0</ele>
        <time>2018-10-14T06:58:03Z</time>
      </trkpt>
      <trkpt lat="38.4221480" lon="-0.6770320">
        <ele>292.0</ele>
        <time>2018-10-14T06:58:04Z</time>
      </trkpt>
      <trkpt lat="38.4221480" lon="-0.6770320">
        <ele>292.0</ele>
        <time>2018-10-14T06:58:05Z</time>
      </trkpt>
      <trkpt lat="38.4222220" lon="-0.6770400">
        <ele>292.0</ele>
        <time>2018-10-14T06:58:06Z</time>
      </trkpt>
      <trkpt lat="38.4222220" lon="-0.6770400">
        <ele>292.0</ele>
        <time>2018-10-14T06:58:07Z</time>
      </trkpt>
      <trkpt lat="38.4223070" lon="-0.6770480">
        <ele>292.0</ele>
        <time>2018-10-14T06:58:08Z</time>
      </trkpt>
      <trkpt lat="38.4223070" lon="-0.6770480">
        <ele>292.0</ele>
        <time>2018-10-14T06:58:09Z</time>
      </trkpt>
      <trkpt lat="38.4223880" lon="-0.6770630">
        <ele>292.0</ele>
        <time>2018-10-14T06:58:10Z</time>
      </trkpt>
      <trkpt lat="38.4223880" lon="-0.6770630">
        <ele>292.0</ele>
        <time>2018-10-14T06:58:11Z</time>
      </trkpt>
      <trkpt lat="38.4224570" lon="-0.6770820">
        <ele>293.0</ele>
        <time>2018-10-14T06:58:12Z</time>
      </trkpt>
      <trkpt lat="38.4224570" lon="-0.6770820">
        <ele>293.0</ele>
        <time>2018-10-14T06:58:13Z</time>
      </trkpt>
      <trkpt lat="38.4225150" lon="-0.6771070">
        <ele>293.0</ele>
        <time>2018-10-14T06:58:14Z</time>
      </trkpt>
      <trkpt lat="38.4225150" lon="-0.6771070">
        <ele>293.0</ele>
        <time>2018-10-14T06:58:15Z</time>
      </trkpt>
      <trkpt lat="38.4225720" lon="-0.6771280">
        <ele>293.0</ele>
        <time>2018-10-14T06:58:16Z</time>
      </trkpt>
      <trkpt lat="38.4226000" lon="-0.6771380">
        <ele>293.0</ele>
        <time>2018-10-14T06:58:17Z</time>
      </trkpt>
      <trkpt lat="38.4226300" lon="-0.6771480">
        <ele>293.0</ele>
        <time>2018-10-14T06:58:18Z</time>
      </trkpt>
      <trkpt lat="38.4226300" lon="-0.6771480">
        <ele>293.0</ele>
        <time>2018-10-14T06:58:19Z</time>
      </trkpt>
      <trkpt lat="38.4226950" lon="-0.6771820">
        <ele>294.0</ele>
        <time>2018-10-14T06:58:20Z</time>
      </trkpt>
      <trkpt lat="38.4226950" lon="-0.6771820">
        <ele>294.0</ele>
        <time>2018-10-14T06:58:21Z</time>
      </trkpt>
      <trkpt lat="38.4227630" lon="-0.6772280">
        <ele>294.0</ele>
        <time>2018-10-14T06:58:22Z</time>
      </trkpt>
      <trkpt lat="38.4227630" lon="-0.6772280">
        <ele>294.0</ele>
        <time>2018-10-14T06:58:23Z</time>
      </trkpt>
      <trkpt lat="38.4228320" lon="-0.6772720">
        <ele>295.0</ele>
        <time>2018-10-14T06:58:24Z</time>
      </trkpt>
      <trkpt lat="38.4228320" lon="-0.6772720">
        <ele>295.0</ele>
        <time>2018-10-14T06:58:25Z</time>
      </trkpt>
      <trkpt lat="38.4229000" lon="-0.6773000">
        <ele>295.0</ele>
        <time>2018-10-14T06:58:26Z</time>
      </trkpt>
      <trkpt lat="38.4229000" lon="-0.6773000">
        <ele>295.0</ele>
        <time>2018-10-14T06:58:27Z</time>
      </trkpt>
      <trkpt lat="38.4229650" lon="-0.6773300">
        <ele>295.0</ele>
        <time>2018-10-14T06:58:28Z</time>
      </trkpt>
      <trkpt lat="38.4229650" lon="-0.6773300">
        <ele>296.0</ele>
        <time>2018-10-14T06:58:29Z</time>
      </trkpt>
      <trkpt lat="38.4230320" lon="-0.6773530">
        <ele>296.0</ele>
        <time>2018-10-14T06:58:30Z</time>
      </trkpt>
      <trkpt lat="38.4230320" lon="-0.6773530">
        <ele>296.0</ele>
        <time>2018-10-14T06:58:31Z</time>
      </trkpt>
      <trkpt lat="38.4231030" lon="-0.6773630">
        <ele>296.0</ele>
        <time>2018-10-14T06:58:32Z</time>
      </trkpt>
      <trkpt lat="38.4231030" lon="-0.6773630">
        <ele>297.0</ele>
        <time>2018-10-14T06:58:33Z</time>
      </trkpt>
      <trkpt lat="38.4231770" lon="-0.6773730">
        <ele>297.0</ele>
        <time>2018-10-14T06:58:34Z</time>
      </trkpt>
      <trkpt lat="38.4231770" lon="-0.6773730">
        <ele>297.0</ele>
        <time>2018-10-14T06:58:35Z</time>
      </trkpt>
      <trkpt lat="38.4232450" lon="-0.6773870">
        <ele>297.0</ele>
        <time>2018-10-14T06:58:36Z</time>
      </trkpt>
      <trkpt lat="38.4232450" lon="-0.6773870">
        <ele>298.0</ele>
        <time>2018-10-14T06:58:37Z</time>
      </trkpt>
      <trkpt lat="38.4233100" lon="-0.6773970">
        <ele>298.0</ele>
        <time>2018-10-14T06:58:38Z</time>
      </trkpt>
      <trkpt lat="38.4233100" lon="-0.6773970">
        <ele>298.0</ele>
        <time>2018-10-14T06:58:39Z</time>
      </trkpt>
      <trkpt lat="38.4233680" lon="-0.6774100">
        <ele>298.0</ele>
        <time>2018-10-14T06:58:40Z</time>
      </trkpt>
      <trkpt lat="38.4233680" lon="-0.6774100">
        <ele>298.0</ele>
        <time>2018-10-14T06:58:41Z</time>
      </trkpt>
      <trkpt lat="38.4234180" lon="-0.6774220">
        <ele>298.0</ele>
        <time>2018-10-14T06:58:42Z</time>
      </trkpt>
      <trkpt lat="38.4234180" lon="-0.6774220">
        <ele>298.0</ele>
        <time>2018-10-14T06:58:43Z</time>
      </trkpt>
      <trkpt lat="38.4234670" lon="-0.6774350">
        <ele>298.0</ele>
        <time>2018-10-14T06:58:44Z</time>
      </trkpt>
      <trkpt lat="38.4234670" lon="-0.6774350">
        <ele>299.0</ele>
        <time>2018-10-14T06:58:45Z</time>
      </trkpt>
      <trkpt lat="38.4235180" lon="-0.6774400">
        <ele>299.0</ele>
        <time>2018-10-14T06:58:46Z</time>
      </trkpt>
      <trkpt lat="38.4235430" lon="-0.6774450">
        <ele>299.0</ele>
        <time>2018-10-14T06:58:47Z</time>
      </trkpt>
      <trkpt lat="38.4235650" lon="-0.6774500">
        <ele>299.0</ele>
        <time>2018-10-14T06:58:48Z</time>
      </trkpt>
      <trkpt lat="38.4235650" lon="-0.6774500">
        <ele>299.0</ele>
        <time>2018-10-14T06:58:49Z</time>
      </trkpt>
      <trkpt lat="38.4236070" lon="-0.6774570">
        <ele>299.0</ele>
        <time>2018-10-14T06:58:50Z</time>
      </trkpt>
      <trkpt lat="38.4236070" lon="-0.6774570">
        <ele>299.0</ele>
        <time>2018-10-14T06:58:51Z</time>
      </trkpt>
      <trkpt lat="38.4236380" lon="-0.6774620">
        <ele>299.0</ele>
        <time>2018-10-14T06:58:52Z</time>
      </trkpt>
      <trkpt lat="38.4236470" lon="-0.6774620">
        <ele>299.0</ele>
        <time>2018-10-14T06:58:53Z</time>
      </trkpt>
      <trkpt lat="38.4236530" lon="-0.6774620">
        <ele>299.0</ele>
        <time>2018-10-14T06:58:54Z</time>
      </trkpt>
      <trkpt lat="38.4236530" lon="-0.6774620">
        <ele>299.0</ele>
        <time>2018-10-14T06:58:55Z</time>
      </trkpt>
      <trkpt lat="38.4236530" lon="-0.6774620">
        <ele>299.0</ele>
        <time>2018-10-14T06:59:21Z</time>
      </trkpt>
      <trkpt lat="38.4237430" lon="-0.6774600">
        <ele>299.0</ele>
        <time>2018-10-14T06:59:22Z</time>
      </trkpt>
      <trkpt lat="38.4237430" lon="-0.6774600">
        <ele>299.0</ele>
        <time>2018-10-14T06:59:23Z</time>
      </trkpt>
      <trkpt lat="38.4237980" lon="-0.6774500">
        <ele>299.0</ele>
        <time>2018-10-14T06:59:24Z</time>
      </trkpt>
      <trkpt lat="38.4238250" lon="-0.6774370">
        <ele>299.0</ele>
        <time>2018-10-14T06:59:25Z</time>
      </trkpt>
      <trkpt lat="38.4238250" lon="-0.6774370">
        <ele>299.0</ele>
        <time>2018-10-14T06:59:26Z</time>
      </trkpt>
      <trkpt lat="38.4238730" lon="-0.6773980">
        <ele>299.0</ele>
        <time>2018-10-14T06:59:27Z</time>
      </trkpt>
      <trkpt lat="38.4238980" lon="-0.6773730">
        <ele>299.0</ele>
        <time>2018-10-14T06:59:28Z</time>
      </trkpt>
      <trkpt lat="38.4238980" lon="-0.6773730">
        <ele>299.0</ele>
        <time>2018-10-14T06:59:29Z</time>
      </trkpt>
      <trkpt lat="38.4239500" lon="-0.6773250">
        <ele>299.0</ele>
        <time>2018-10-14T06:59:30Z</time>
      </trkpt>
      <trkpt lat="38.4239500" lon="-0.6773250">
        <ele>299.0</ele>
        <time>2018-10-14T06:59:31Z</time>
      </trkpt>
      <trkpt lat="38.4240020" lon="-0.6772770">
        <ele>299.0</ele>
        <time>2018-10-14T06:59:32Z</time>
      </trkpt>
      <trkpt lat="38.4240020" lon="-0.6772770">
        <ele>299.0</ele>
        <time>2018-10-14T06:59:33Z</time>
      </trkpt>
      <trkpt lat="38.4240470" lon="-0.6772320">
        <ele>299.0</ele>
        <time>2018-10-14T06:59:34Z</time>
      </trkpt>
      <trkpt lat="38.4240470" lon="-0.6772320">
        <ele>299.0</ele>
        <time>2018-10-14T06:59:35Z</time>
      </trkpt>
      <trkpt lat="38.4240770" lon="-0.6772000">
        <ele>299.0</ele>
        <time>2018-10-14T06:59:36Z</time>
      </trkpt>
      <trkpt lat="38.4240770" lon="-0.6772000">
        <ele>299.0</ele>
        <time>2018-10-14T06:59:37Z</time>
      </trkpt>
      <trkpt lat="38.4240950" lon="-0.6771800">
        <ele>299.0</ele>
        <time>2018-10-14T06:59:38Z</time>
      </trkpt>
      <trkpt lat="38.4240950" lon="-0.6771800">
        <ele>299.0</ele>
        <time>2018-10-14T06:59:39Z</time>
      </trkpt>
      <trkpt lat="38.4241030" lon="-0.6771730">
        <ele>299.0</ele>
        <time>2018-10-14T06:59:40Z</time>
      </trkpt>
      <trkpt lat="38.4241030" lon="-0.6771730">
        <ele>299.0</ele>
        <time>2018-10-14T06:59:41Z</time>
      </trkpt>
      <trkpt lat="38.4241030" lon="-0.6771730">
        <ele>299.0</ele>
        <time>2018-10-14T07:02:23Z</time>
      </trkpt>
      <trkpt lat="38.4241370" lon="-0.6771130">
        <ele>299.0</ele>
        <time>2018-10-14T07:02:24Z</time>
      </trkpt>
      <trkpt lat="38.4241370" lon="-0.6771130">
        <ele>299.0</ele>
        <time>2018-10-14T07:02:25Z</time>
      </trkpt>
      <trkpt lat="38.4241670" lon="-0.6770700">
        <ele>299.0</ele>
        <time>2018-10-14T07:02:26Z</time>
      </trkpt>
      <trkpt lat="38.4241670" lon="-0.6770700">
        <ele>299.0</ele>
        <time>2018-10-14T07:02:27Z</time>
      </trkpt>
      <trkpt lat="38.4242000" lon="-0.6770130">
        <ele>299.0</ele>
        <time>2018-10-14T07:02:28Z</time>
      </trkpt>
      <trkpt lat="38.4242000" lon="-0.6770130">
        <ele>299.0</ele>
        <time>2018-10-14T07:02:29Z</time>
      </trkpt>
      <trkpt lat="38.4242320" lon="-0.6769530">
        <ele>299.0</ele>
        <time>2018-10-14T07:02:30Z</time>
      </trkpt>
      <trkpt lat="38.4242320" lon="-0.6769530">
        <ele>299.0</ele>
        <time>2018-10-14T07:02:31Z</time>
      </trkpt>
      <trkpt lat="38.4242620" lon="-0.6768920">
        <ele>299.0</ele>
        <time>2018-10-14T07:02:32Z</time>
      </trkpt>
      <trkpt lat="38.4242620" lon="-0.6768920">
        <ele>299.0</ele>
        <time>2018-10-14T07:02:33Z</time>
      </trkpt>
      <trkpt lat="38.4242900" lon="-0.6768300">
        <ele>299.0</ele>
        <time>2018-10-14T07:02:34Z</time>
      </trkpt>
      <trkpt lat="38.4242900" lon="-0.6768300">
        <ele>299.0</ele>
        <time>2018-10-14T07:02:35Z</time>
      </trkpt>
      <trkpt lat="38.4243180" lon="-0.6767800">
        <ele>299.0</ele>
        <time>2018-10-14T07:02:36Z</time>
      </trkpt>
      <trkpt lat="38.4243180" lon="-0.6767800">
        <ele>299.0</ele>
        <time>2018-10-14T07:02:37Z</time>
      </trkpt>
      <trkpt lat="38.4243450" lon="-0.6767370">
        <ele>299.0</ele>
        <time>2018-10-14T07:02:38Z</time>
      </trkpt>
      <trkpt lat="38.4243450" lon="-0.6767370">
        <ele>299.0</ele>
        <time>2018-10-14T07:02:39Z</time>
      </trkpt>
      <trkpt lat="38.4243750" lon="-0.6766900">
        <ele>299.0</ele>
        <time>2018-10-14T07:02:40Z</time>
      </trkpt>
      <trkpt lat="38.4243750" lon="-0.6766900">
        <ele>299.0</ele>
        <time>2018-10-14T07:02:41Z</time>
      </trkpt>
      <trkpt lat="38.4244070" lon="-0.6766370">
        <ele>299.0</ele>
        <time>2018-10-14T07:02:42Z</time>
      </trkpt>
      <trkpt lat="38.4244250" lon="-0.6766120">
        <ele>299.0</ele>
        <time>2018-10-14T07:02:43Z</time>
      </trkpt>
      <trkpt lat="38.4244420" lon="-0.6765830">
        <ele>299.0</ele>
        <time>2018-10-14T07:02:44Z</time>
      </trkpt>
      <trkpt lat="38.4244420" lon="-0.6765830">
        <ele>299.0</ele>
        <time>2018-10-14T07:02:45Z</time>
      </trkpt>
      <trkpt lat="38.4244780" lon="-0.6765230">
        <ele>299.0</ele>
        <time>2018-10-14T07:02:46Z</time>
      </trkpt>
      <trkpt lat="38.4244780" lon="-0.6765230">
        <ele>299.0</ele>
        <time>2018-10-14T07:02:47Z</time>
      </trkpt>
      <trkpt lat="38.4245170" lon="-0.6764620">
        <ele>299.0</ele>
        <time>2018-10-14T07:02:48Z</time>
      </trkpt>
      <trkpt lat="38.4245170" lon="-0.6764620">
        <ele>299.0</ele>
        <time>2018-10-14T07:02:49Z</time>
      </trkpt>
      <trkpt lat="38.4245550" lon="-0.6764000">
        <ele>299.0</ele>
        <time>2018-10-14T07:02:50Z</time>
      </trkpt>
      <trkpt lat="38.4245550" lon="-0.6764000">
        <ele>299.0</ele>
        <time>2018-10-14T07:02:51Z</time>
      </trkpt>
      <trkpt lat="38.4245920" lon="-0.6763430">
        <ele>299.0</ele>
        <time>2018-10-14T07:02:52Z</time>
      </trkpt>
      <trkpt lat="38.4246070" lon="-0.6763170">
        <ele>299.0</ele>
        <time>2018-10-14T07:02:53Z</time>
      </trkpt>
      <trkpt lat="38.4246070" lon="-0.6763170">
        <ele>299.0</ele>
        <time>2018-10-14T07:02:54Z</time>
      </trkpt>
      <trkpt lat="38.4246420" lon="-0.6762670">
        <ele>299.0</ele>
        <time>2018-10-14T07:02:55Z</time>
      </trkpt>
      <trkpt lat="38.4246600" lon="-0.6762400">
        <ele>299.0</ele>
        <time>2018-10-14T07:02:56Z</time>
      </trkpt>
      <trkpt lat="38.4246600" lon="-0.6762400">
        <ele>299.0</ele>
        <time>2018-10-14T07:02:57Z</time>
      </trkpt>
      <trkpt lat="38.4246900" lon="-0.6761830">
        <ele>299.0</ele>
        <time>2018-10-14T07:02:58Z</time>
      </trkpt>
      <trkpt lat="38.4246900" lon="-0.6761830">
        <ele>299.0</ele>
        <time>2018-10-14T07:02:59Z</time>
      </trkpt>
      <trkpt lat="38.4247230" lon="-0.6761250">
        <ele>300.0</ele>
        <time>2018-10-14T07:03:00Z</time>
      </trkpt>
      <trkpt lat="38.4247400" lon="-0.6760920">
        <ele>300.0</ele>
        <time>2018-10-14T07:03:01Z</time>
      </trkpt>
      <trkpt lat="38.4247400" lon="-0.6760920">
        <ele>300.0</ele>
        <time>2018-10-14T07:03:02Z</time>
      </trkpt>
      <trkpt lat="38.4247820" lon="-0.6760280">
        <ele>300.0</ele>
        <time>2018-10-14T07:03:03Z</time>
      </trkpt>
      <trkpt lat="38.4247820" lon="-0.6760280">
        <ele>300.0</ele>
        <time>2018-10-14T07:03:04Z</time>
      </trkpt>
      <trkpt lat="38.4248150" lon="-0.6759600">
        <ele>300.0</ele>
        <time>2018-10-14T07:03:05Z</time>
      </trkpt>
      <trkpt lat="38.4248150" lon="-0.6759600">
        <ele>300.0</ele>
        <time>2018-10-14T07:03:06Z</time>
      </trkpt>
      <trkpt lat="38.4248520" lon="-0.6758800">
        <ele>300.0</ele>
        <time>2018-10-14T07:03:07Z</time>
      </trkpt>
      <trkpt lat="38.4248670" lon="-0.6758300">
        <ele>300.0</ele>
        <time>2018-10-14T07:03:08Z</time>
      </trkpt>
      <trkpt lat="38.4248670" lon="-0.6758300">
        <ele>300.0</ele>
        <time>2018-10-14T07:03:09Z</time>
      </trkpt>
      <trkpt lat="38.4248900" lon="-0.6757230">
        <ele>300.0</ele>
        <time>2018-10-14T07:03:10Z</time>
      </trkpt>
      <trkpt lat="38.4248900" lon="-0.6757230">
        <ele>300.0</ele>
        <time>2018-10-14T07:03:11Z</time>
      </trkpt>
      <trkpt lat="38.4249030" lon="-0.6756170">
        <ele>300.0</ele>
        <time>2018-10-14T07:03:12Z</time>
      </trkpt>
      <trkpt lat="38.4249030" lon="-0.6756170">
        <ele>300.0</ele>
        <time>2018-10-14T07:03:13Z</time>
      </trkpt>
      <trkpt lat="38.4249050" lon="-0.6755130">
        <ele>300.0</ele>
        <time>2018-10-14T07:03:14Z</time>
      </trkpt>
      <trkpt lat="38.4249050" lon="-0.6755130">
        <ele>300.0</ele>
        <time>2018-10-14T07:03:15Z</time>
      </trkpt>
      <trkpt lat="38.4249100" lon="-0.6754180">
        <ele>300.0</ele>
        <time>2018-10-14T07:03:16Z</time>
      </trkpt>
      <trkpt lat="38.4249100" lon="-0.6754180">
        <ele>300.0</ele>
        <time>2018-10-14T07:03:17Z</time>
      </trkpt>
      <trkpt lat="38.4249120" lon="-0.6753330">
        <ele>300.0</ele>
        <time>2018-10-14T07:03:18Z</time>
      </trkpt>
      <trkpt lat="38.4249130" lon="-0.6752900">
        <ele>300.0</ele>
        <time>2018-10-14T07:03:19Z</time>
      </trkpt>
      <trkpt lat="38.4249130" lon="-0.6752900">
        <ele>300.0</ele>
        <time>2018-10-14T07:03:20Z</time>
      </trkpt>
      <trkpt lat="38.4249200" lon="-0.6752130">
        <ele>300.0</ele>
        <time>2018-10-14T07:03:21Z</time>
      </trkpt>
      <trkpt lat="38.4249200" lon="-0.6752130">
        <ele>300.0</ele>
        <time>2018-10-14T07:03:22Z</time>
      </trkpt>
      <trkpt lat="38.4249330" lon="-0.6751500">
        <ele>300.0</ele>
        <time>2018-10-14T07:03:23Z</time>
      </trkpt>
      <trkpt lat="38.4249520" lon="-0.6751250">
        <ele>300.0</ele>
        <time>2018-10-14T07:03:24Z</time>
      </trkpt>
      <trkpt lat="38.4249520" lon="-0.6751250">
        <ele>300.0</ele>
        <time>2018-10-14T07:03:25Z</time>
      </trkpt>
      <trkpt lat="38.4250080" lon="-0.6751020">
        <ele>300.0</ele>
        <time>2018-10-14T07:03:26Z</time>
      </trkpt>
      <trkpt lat="38.4250080" lon="-0.6751020">
        <ele>300.0</ele>
        <time>2018-10-14T07:03:27Z</time>
      </trkpt>
      <trkpt lat="38.4250720" lon="-0.6750820">
        <ele>301.0</ele>
        <time>2018-10-14T07:03:28Z</time>
      </trkpt>
      <trkpt lat="38.4250720" lon="-0.6750820">
        <ele>301.0</ele>
        <time>2018-10-14T07:03:29Z</time>
      </trkpt>
      <trkpt lat="38.4251330" lon="-0.6750650">
        <ele>301.0</ele>
        <time>2018-10-14T07:03:30Z</time>
      </trkpt>
      <trkpt lat="38.4251330" lon="-0.6750650">
        <ele>301.0</ele>
        <time>2018-10-14T07:03:31Z</time>
      </trkpt>
      <trkpt lat="38.4251970" lon="-0.6750530">
        <ele>301.0</ele>
        <time>2018-10-14T07:03:32Z</time>
      </trkpt>
      <trkpt lat="38.4251970" lon="-0.6750530">
        <ele>301.0</ele>
        <time>2018-10-14T07:03:33Z</time>
      </trkpt>
      <trkpt lat="38.4252600" lon="-0.6750380">
        <ele>301.0</ele>
        <time>2018-10-14T07:03:34Z</time>
      </trkpt>
      <trkpt lat="38.4252600" lon="-0.6750380">
        <ele>301.0</ele>
        <time>2018-10-14T07:03:35Z</time>
      </trkpt>
      <trkpt lat="38.4253200" lon="-0.6750250">
        <ele>302.0</ele>
        <time>2018-10-14T07:03:36Z</time>
      </trkpt>
      <trkpt lat="38.4253480" lon="-0.6750200">
        <ele>302.0</ele>
        <time>2018-10-14T07:03:37Z</time>
      </trkpt>
      <trkpt lat="38.4253770" lon="-0.6750130">
        <ele>302.0</ele>
        <time>2018-10-14T07:03:38Z</time>
      </trkpt>
      <trkpt lat="38.4253770" lon="-0.6750130">
        <ele>302.0</ele>
        <time>2018-10-14T07:03:39Z</time>
      </trkpt>
      <trkpt lat="38.4254380" lon="-0.6750030">
        <ele>302.0</ele>
        <time>2018-10-14T07:03:40Z</time>
      </trkpt>
      <trkpt lat="38.4254380" lon="-0.6750030">
        <ele>302.0</ele>
        <time>2018-10-14T07:03:41Z</time>
      </trkpt>
      <trkpt lat="38.4254950" lon="-0.6749950">
        <ele>302.0</ele>
        <time>2018-10-14T07:03:42Z</time>
      </trkpt>
      <trkpt lat="38.4255230" lon="-0.6749900">
        <ele>302.0</ele>
        <time>2018-10-14T07:03:43Z</time>
      </trkpt>
      <trkpt lat="38.4255230" lon="-0.6749900">
        <ele>303.0</ele>
        <time>2018-10-14T07:03:44Z</time>
      </trkpt>
      <trkpt lat="38.4255820" lon="-0.6749880">
        <ele>303.0</ele>
        <time>2018-10-14T07:03:45Z</time>
      </trkpt>
      <trkpt lat="38.4256100" lon="-0.6749880">
        <ele>303.0</ele>
        <time>2018-10-14T07:03:46Z</time>
      </trkpt>
      <trkpt lat="38.4256100" lon="-0.6749880">
        <ele>303.0</ele>
        <time>2018-10-14T07:03:47Z</time>
      </trkpt>
      <trkpt lat="38.4256680" lon="-0.6749800">
        <ele>303.0</ele>
        <time>2018-10-14T07:03:48Z</time>
      </trkpt>
      <trkpt lat="38.4256680" lon="-0.6749800">
        <ele>303.0</ele>
        <time>2018-10-14T07:03:49Z</time>
      </trkpt>
      <trkpt lat="38.4257250" lon="-0.6749720">
        <ele>303.0</ele>
        <time>2018-10-14T07:03:50Z</time>
      </trkpt>
      <trkpt lat="38.4257250" lon="-0.6749720">
        <ele>303.0</ele>
        <time>2018-10-14T07:03:51Z</time>
      </trkpt>
      <trkpt lat="38.4257850" lon="-0.6749670">
        <ele>303.0</ele>
        <time>2018-10-14T07:03:52Z</time>
      </trkpt>
      <trkpt lat="38.4257850" lon="-0.6749670">
        <ele>303.0</ele>
        <time>2018-10-14T07:03:53Z</time>
      </trkpt>
      <trkpt lat="38.4258420" lon="-0.6749630">
        <ele>303.0</ele>
        <time>2018-10-14T07:03:54Z</time>
      </trkpt>
      <trkpt lat="38.4258420" lon="-0.6749630">
        <ele>303.0</ele>
        <time>2018-10-14T07:03:55Z</time>
      </trkpt>
      <trkpt lat="38.4259000" lon="-0.6749600">
        <ele>303.0</ele>
        <time>2018-10-14T07:03:56Z</time>
      </trkpt>
      <trkpt lat="38.4259000" lon="-0.6749600">
        <ele>303.0</ele>
        <time>2018-10-14T07:03:57Z</time>
      </trkpt>
      <trkpt lat="38.4259600" lon="-0.6749520">
        <ele>303.0</ele>
        <time>2018-10-14T07:03:58Z</time>
      </trkpt>
      <trkpt lat="38.4259900" lon="-0.6749480">
        <ele>303.0</ele>
        <time>2018-10-14T07:03:59Z</time>
      </trkpt>
      <trkpt lat="38.4259900" lon="-0.6749480">
        <ele>303.0</ele>
        <time>2018-10-14T07:04:00Z</time>
      </trkpt>
      <trkpt lat="38.4260500" lon="-0.6749370">
        <ele>303.0</ele>
        <time>2018-10-14T07:04:01Z</time>
      </trkpt>
      <trkpt lat="38.4260800" lon="-0.6749350">
        <ele>303.0</ele>
        <time>2018-10-14T07:04:02Z</time>
      </trkpt>
      <trkpt lat="38.4260800" lon="-0.6749350">
        <ele>303.0</ele>
        <time>2018-10-14T07:04:03Z</time>
      </trkpt>
      <trkpt lat="38.4261400" lon="-0.6749300">
        <ele>303.0</ele>
        <time>2018-10-14T07:04:04Z</time>
      </trkpt>
      <trkpt lat="38.4261700" lon="-0.6749270">
        <ele>303.0</ele>
        <time>2018-10-14T07:04:05Z</time>
      </trkpt>
      <trkpt lat="38.4261700" lon="-0.6749270">
        <ele>304.0</ele>
        <time>2018-10-14T07:04:06Z</time>
      </trkpt>
      <trkpt lat="38.4262300" lon="-0.6749220">
        <ele>304.0</ele>
        <time>2018-10-14T07:04:07Z</time>
      </trkpt>
      <trkpt lat="38.4262580" lon="-0.6749220">
        <ele>304.0</ele>
        <time>2018-10-14T07:04:08Z</time>
      </trkpt>
      <trkpt lat="38.4262580" lon="-0.6749220">
        <ele>304.0</ele>
        <time>2018-10-14T07:04:09Z</time>
      </trkpt>
      <trkpt lat="38.4263150" lon="-0.6749220">
        <ele>304.0</ele>
        <time>2018-10-14T07:04:10Z</time>
      </trkpt>
      <trkpt lat="38.4263450" lon="-0.6749200">
        <ele>304.0</ele>
        <time>2018-10-14T07:04:11Z</time>
      </trkpt>
      <trkpt lat="38.4263750" lon="-0.6749180">
        <ele>305.0</ele>
        <time>2018-10-14T07:04:12Z</time>
      </trkpt>
      <trkpt lat="38.4263750" lon="-0.6749180">
        <ele>305.0</ele>
        <time>2018-10-14T07:04:13Z</time>
      </trkpt>
      <trkpt lat="38.4264370" lon="-0.6749150">
        <ele>305.0</ele>
        <time>2018-10-14T07:04:14Z</time>
      </trkpt>
      <trkpt lat="38.4264370" lon="-0.6749150">
        <ele>305.0</ele>
        <time>2018-10-14T07:04:15Z</time>
      </trkpt>
      <trkpt lat="38.4264970" lon="-0.6749170">
        <ele>305.0</ele>
        <time>2018-10-14T07:04:16Z</time>
      </trkpt>
      <trkpt lat="38.4264970" lon="-0.6749170">
        <ele>305.0</ele>
        <time>2018-10-14T07:04:17Z</time>
      </trkpt>
      <trkpt lat="38.4265570" lon="-0.6749180">
        <ele>305.0</ele>
        <time>2018-10-14T07:04:18Z</time>
      </trkpt>
      <trkpt lat="38.4265570" lon="-0.6749180">
        <ele>305.0</ele>
        <time>2018-10-14T07:04:19Z</time>
      </trkpt>
      <trkpt lat="38.4266150" lon="-0.6749250">
        <ele>305.0</ele>
        <time>2018-10-14T07:04:20Z</time>
      </trkpt>
      <trkpt lat="38.4266150" lon="-0.6749250">
        <ele>305.0</ele>
        <time>2018-10-14T07:04:21Z</time>
      </trkpt>
      <trkpt lat="38.4266750" lon="-0.6749320">
        <ele>306.0</ele>
        <time>2018-10-14T07:04:22Z</time>
      </trkpt>
      <trkpt lat="38.4266750" lon="-0.6749320">
        <ele>306.0</ele>
        <time>2018-10-14T07:04:23Z</time>
      </trkpt>
      <trkpt lat="38.4267320" lon="-0.6749480">
        <ele>306.0</ele>
        <time>2018-10-14T07:04:24Z</time>
      </trkpt>
      <trkpt lat="38.4267320" lon="-0.6749480">
        <ele>306.0</ele>
        <time>2018-10-14T07:04:25Z</time>
      </trkpt>
      <trkpt lat="38.4267880" lon="-0.6749630">
        <ele>306.0</ele>
        <time>2018-10-14T07:04:26Z</time>
      </trkpt>
      <trkpt lat="38.4268170" lon="-0.6749780">
        <ele>306.0</ele>
        <time>2018-10-14T07:04:27Z</time>
      </trkpt>
      <trkpt lat="38.4268170" lon="-0.6749780">
        <ele>306.0</ele>
        <time>2018-10-14T07:04:28Z</time>
      </trkpt>
      <trkpt lat="38.4268720" lon="-0.6750120">
        <ele>306.0</ele>
        <time>2018-10-14T07:04:29Z</time>
      </trkpt>
      <trkpt lat="38.4268980" lon="-0.6750300">
        <ele>307.0</ele>
        <time>2018-10-14T07:04:30Z</time>
      </trkpt>
      <trkpt lat="38.4269230" lon="-0.6750520">
        <ele>307.0</ele>
        <time>2018-10-14T07:04:31Z</time>
      </trkpt>
      <trkpt lat="38.4269230" lon="-0.6750520">
        <ele>307.0</ele>
        <time>2018-10-14T07:04:32Z</time>
      </trkpt>
      <trkpt lat="38.4269780" lon="-0.6750800">
        <ele>307.0</ele>
        <time>2018-10-14T07:04:33Z</time>
      </trkpt>
      <trkpt lat="38.4269780" lon="-0.6750800">
        <ele>307.0</ele>
        <time>2018-10-14T07:04:34Z</time>
      </trkpt>
      <trkpt lat="38.4270370" lon="-0.6751220">
        <ele>307.0</ele>
        <time>2018-10-14T07:04:35Z</time>
      </trkpt>
      <trkpt lat="38.4270670" lon="-0.6751420">
        <ele>307.0</ele>
        <time>2018-10-14T07:04:36Z</time>
      </trkpt>
      <trkpt lat="38.4270670" lon="-0.6751420">
        <ele>307.0</ele>
        <time>2018-10-14T07:04:37Z</time>
      </trkpt>
      <trkpt lat="38.4271280" lon="-0.6751770">
        <ele>307.0</ele>
        <time>2018-10-14T07:04:38Z</time>
      </trkpt>
      <trkpt lat="38.4271280" lon="-0.6751770">
        <ele>308.0</ele>
        <time>2018-10-14T07:04:39Z</time>
      </trkpt>
      <trkpt lat="38.4271930" lon="-0.6752030">
        <ele>308.0</ele>
        <time>2018-10-14T07:04:40Z</time>
      </trkpt>
      <trkpt lat="38.4271930" lon="-0.6752030">
        <ele>308.0</ele>
        <time>2018-10-14T07:04:41Z</time>
      </trkpt>
      <trkpt lat="38.4272550" lon="-0.6752220">
        <ele>308.0</ele>
        <time>2018-10-14T07:04:42Z</time>
      </trkpt>
      <trkpt lat="38.4272550" lon="-0.6752220">
        <ele>308.0</ele>
        <time>2018-10-14T07:04:43Z</time>
      </trkpt>
      <trkpt lat="38.4273200" lon="-0.6752280">
        <ele>308.0</ele>
        <time>2018-10-14T07:04:44Z</time>
      </trkpt>
      <trkpt lat="38.4273200" lon="-0.6752280">
        <ele>308.0</ele>
        <time>2018-10-14T07:04:45Z</time>
      </trkpt>
      <trkpt lat="38.4273850" lon="-0.6752350">
        <ele>308.0</ele>
        <time>2018-10-14T07:04:46Z</time>
      </trkpt>
      <trkpt lat="38.4273850" lon="-0.6752350">
        <ele>308.0</ele>
        <time>2018-10-14T07:04:47Z</time>
      </trkpt>
      <trkpt lat="38.4274520" lon="-0.6752320">
        <ele>308.0</ele>
        <time>2018-10-14T07:04:48Z</time>
      </trkpt>
      <trkpt lat="38.4274520" lon="-0.6752320">
        <ele>308.0</ele>
        <time>2018-10-14T07:04:49Z</time>
      </trkpt>
      <trkpt lat="38.4275170" lon="-0.6752330">
        <ele>308.0</ele>
        <time>2018-10-14T07:04:50Z</time>
      </trkpt>
      <trkpt lat="38.4275170" lon="-0.6752330">
        <ele>308.0</ele>
        <time>2018-10-14T07:04:51Z</time>
      </trkpt>
      <trkpt lat="38.4275800" lon="-0.6752400">
        <ele>308.0</ele>
        <time>2018-10-14T07:04:52Z</time>
      </trkpt>
      <trkpt lat="38.4276130" lon="-0.6752450">
        <ele>308.0</ele>
        <time>2018-10-14T07:04:53Z</time>
      </trkpt>
      <trkpt lat="38.4276450" lon="-0.6752520">
        <ele>308.0</ele>
        <time>2018-10-14T07:04:54Z</time>
      </trkpt>
      <trkpt lat="38.4276450" lon="-0.6752520">
        <ele>308.0</ele>
        <time>2018-10-14T07:04:55Z</time>
      </trkpt>
      <trkpt lat="38.4277080" lon="-0.6752750">
        <ele>308.0</ele>
        <time>2018-10-14T07:04:56Z</time>
      </trkpt>
      <trkpt lat="38.4277400" lon="-0.6752900">
        <ele>308.0</ele>
        <time>2018-10-14T07:04:57Z</time>
      </trkpt>
      <trkpt lat="38.4277700" lon="-0.6753080">
        <ele>308.0</ele>
        <time>2018-10-14T07:04:58Z</time>
      </trkpt>
      <trkpt lat="38.4277700" lon="-0.6753080">
        <ele>308.0</ele>
        <time>2018-10-14T07:04:59Z</time>
      </trkpt>
      <trkpt lat="38.4278280" lon="-0.6753450">
        <ele>308.0</ele>
        <time>2018-10-14T07:05:00Z</time>
      </trkpt>
      <trkpt lat="38.4278280" lon="-0.6753450">
        <ele>308.0</ele>
        <time>2018-10-14T07:05:01Z</time>
      </trkpt>
      <trkpt lat="38.4278780" lon="-0.6753870">
        <ele>308.0</ele>
        <time>2018-10-14T07:05:02Z</time>
      </trkpt>
      <trkpt lat="38.4278780" lon="-0.6753870">
        <ele>309.0</ele>
        <time>2018-10-14T07:05:03Z</time>
      </trkpt>
      <trkpt lat="38.4279320" lon="-0.6754250">
        <ele>309.0</ele>
        <time>2018-10-14T07:05:04Z</time>
      </trkpt>
      <trkpt lat="38.4279580" lon="-0.6754380">
        <ele>309.0</ele>
        <time>2018-10-14T07:05:05Z</time>
      </trkpt>
      <trkpt lat="38.4279850" lon="-0.6754570">
        <ele>309.0</ele>
        <time>2018-10-14T07:05:06Z</time>
      </trkpt>
      <trkpt lat="38.4279850" lon="-0.6754570">
        <ele>309.0</ele>
        <time>2018-10-14T07:05:07Z</time>
      </trkpt>
      <trkpt lat="38.4280350" lon="-0.6755100">
        <ele>309.0</ele>
        <time>2018-10-14T07:05:08Z</time>
      </trkpt>
      <trkpt lat="38.4280600" lon="-0.6755350">
        <ele>309.0</ele>
        <time>2018-10-14T07:05:09Z</time>
      </trkpt>
      <trkpt lat="38.4280600" lon="-0.6755350">
        <ele>309.0</ele>
        <time>2018-10-14T07:05:10Z</time>
      </trkpt>
      <trkpt lat="38.4281080" lon="-0.6755880">
        <ele>309.0</ele>
        <time>2018-10-14T07:05:11Z</time>
      </trkpt>
      <trkpt lat="38.4281300" lon="-0.6756180">
        <ele>309.0</ele>
        <time>2018-10-14T07:05:12Z</time>
      </trkpt>
      <trkpt lat="38.4281300" lon="-0.6756180">
        <ele>310.0</ele>
        <time>2018-10-14T07:05:13Z</time>
      </trkpt>
      <trkpt lat="38.4281770" lon="-0.6756780">
        <ele>310.0</ele>
        <time>2018-10-14T07:05:14Z</time>
      </trkpt>
      <trkpt lat="38.4281770" lon="-0.6756780">
        <ele>310.0</ele>
        <time>2018-10-14T07:05:15Z</time>
      </trkpt>
      <trkpt lat="38.4282220" lon="-0.6757370">
        <ele>310.0</ele>
        <time>2018-10-14T07:05:16Z</time>
      </trkpt>
      <trkpt lat="38.4282220" lon="-0.6757370">
        <ele>310.0</ele>
        <time>2018-10-14T07:05:17Z</time>
      </trkpt>
      <trkpt lat="38.4282670" lon="-0.6757850">
        <ele>310.0</ele>
        <time>2018-10-14T07:05:18Z</time>
      </trkpt>
      <trkpt lat="38.4282880" lon="-0.6758100">
        <ele>310.0</ele>
        <time>2018-10-14T07:05:19Z</time>
      </trkpt>
      <trkpt lat="38.4282880" lon="-0.6758100">
        <ele>310.0</ele>
        <time>2018-10-14T07:05:20Z</time>
      </trkpt>
      <trkpt lat="38.4283320" lon="-0.6758600">
        <ele>310.0</ele>
        <time>2018-10-14T07:05:21Z</time>
      </trkpt>
      <trkpt lat="38.4283550" lon="-0.6758830">
        <ele>310.0</ele>
        <time>2018-10-14T07:05:22Z</time>
      </trkpt>
      <trkpt lat="38.4283550" lon="-0.6758830">
        <ele>310.0</ele>
        <time>2018-10-14T07:05:23Z</time>
      </trkpt>
      <trkpt lat="38.4284070" lon="-0.6759220">
        <ele>310.0</ele>
        <time>2018-10-14T07:05:24Z</time>
      </trkpt>
      <trkpt lat="38.4284070" lon="-0.6759220">
        <ele>310.0</ele>
        <time>2018-10-14T07:05:25Z</time>
      </trkpt>
      <trkpt lat="38.4284680" lon="-0.6759530">
        <ele>311.0</ele>
        <time>2018-10-14T07:05:26Z</time>
      </trkpt>
      <trkpt lat="38.4284680" lon="-0.6759530">
        <ele>311.0</ele>
        <time>2018-10-14T07:05:27Z</time>
      </trkpt>
      <trkpt lat="38.4285350" lon="-0.6759630">
        <ele>311.0</ele>
        <time>2018-10-14T07:05:28Z</time>
      </trkpt>
      <trkpt lat="38.4285350" lon="-0.6759630">
        <ele>311.0</ele>
        <time>2018-10-14T07:05:29Z</time>
      </trkpt>
      <trkpt lat="38.4286000" lon="-0.6759630">
        <ele>311.0</ele>
        <time>2018-10-14T07:05:30Z</time>
      </trkpt>
      <trkpt lat="38.4286000" lon="-0.6759630">
        <ele>311.0</ele>
        <time>2018-10-14T07:05:31Z</time>
      </trkpt>
      <trkpt lat="38.4286650" lon="-0.6759480">
        <ele>311.0</ele>
        <time>2018-10-14T07:05:32Z</time>
      </trkpt>
      <trkpt lat="38.4286650" lon="-0.6759480">
        <ele>311.0</ele>
        <time>2018-10-14T07:05:33Z</time>
      </trkpt>
      <trkpt lat="38.4287300" lon="-0.6759330">
        <ele>312.0</ele>
        <time>2018-10-14T07:05:34Z</time>
      </trkpt>
      <trkpt lat="38.4287300" lon="-0.6759330">
        <ele>312.0</ele>
        <time>2018-10-14T07:05:35Z</time>
      </trkpt>
      <trkpt lat="38.4287970" lon="-0.6759120">
        <ele>312.0</ele>
        <time>2018-10-14T07:05:36Z</time>
      </trkpt>
      <trkpt lat="38.4287970" lon="-0.6759120">
        <ele>312.0</ele>
        <time>2018-10-14T07:05:37Z</time>
      </trkpt>
      <trkpt lat="38.4288620" lon="-0.6759020">
        <ele>312.0</ele>
        <time>2018-10-14T07:05:38Z</time>
      </trkpt>
      <trkpt lat="38.4288620" lon="-0.6759020">
        <ele>312.0</ele>
        <time>2018-10-14T07:05:39Z</time>
      </trkpt>
      <trkpt lat="38.4289250" lon="-0.6759000">
        <ele>312.0</ele>
        <time>2018-10-14T07:05:40Z</time>
      </trkpt>
      <trkpt lat="38.4289250" lon="-0.6759000">
        <ele>312.0</ele>
        <time>2018-10-14T07:05:41Z</time>
      </trkpt>
      <trkpt lat="38.4289920" lon="-0.6759070">
        <ele>312.0</ele>
        <time>2018-10-14T07:05:42Z</time>
      </trkpt>
      <trkpt lat="38.4289920" lon="-0.6759070">
        <ele>312.0</ele>
        <time>2018-10-14T07:05:43Z</time>
      </trkpt>
      <trkpt lat="38.4290570" lon="-0.6759180">
        <ele>312.0</ele>
        <time>2018-10-14T07:05:44Z</time>
      </trkpt>
      <trkpt lat="38.4290570" lon="-0.6759180">
        <ele>312.0</ele>
        <time>2018-10-14T07:05:45Z</time>
      </trkpt>
      <trkpt lat="38.4291200" lon="-0.6759420">
        <ele>312.0</ele>
        <time>2018-10-14T07:05:46Z</time>
      </trkpt>
      <trkpt lat="38.4291200" lon="-0.6759420">
        <ele>312.0</ele>
        <time>2018-10-14T07:05:47Z</time>
      </trkpt>
      <trkpt lat="38.4291780" lon="-0.6759780">
        <ele>312.0</ele>
        <time>2018-10-14T07:05:48Z</time>
      </trkpt>
      <trkpt lat="38.4291780" lon="-0.6759780">
        <ele>312.0</ele>
        <time>2018-10-14T07:05:49Z</time>
      </trkpt>
      <trkpt lat="38.4292370" lon="-0.6760180">
        <ele>312.0</ele>
        <time>2018-10-14T07:05:50Z</time>
      </trkpt>
      <trkpt lat="38.4292370" lon="-0.6760180">
        <ele>312.0</ele>
        <time>2018-10-14T07:05:51Z</time>
      </trkpt>
      <trkpt lat="38.4292950" lon="-0.6760500">
        <ele>314.0</ele>
        <time>2018-10-14T07:05:52Z</time>
      </trkpt>
      <trkpt lat="38.4292950" lon="-0.6760500">
        <ele>314.0</ele>
        <time>2018-10-14T07:05:53Z</time>
      </trkpt>
      <trkpt lat="38.4293530" lon="-0.6760820">
        <ele>314.0</ele>
        <time>2018-10-14T07:05:54Z</time>
      </trkpt>
      <trkpt lat="38.4293530" lon="-0.6760820">
        <ele>314.0</ele>
        <time>2018-10-14T07:05:55Z</time>
      </trkpt>
      <trkpt lat="38.4294100" lon="-0.6761130">
        <ele>314.0</ele>
        <time>2018-10-14T07:05:56Z</time>
      </trkpt>
      <trkpt lat="38.4294100" lon="-0.6761130">
        <ele>314.0</ele>
        <time>2018-10-14T07:05:57Z</time>
      </trkpt>
      <trkpt lat="38.4294650" lon="-0.6761400">
        <ele>314.0</ele>
        <time>2018-10-14T07:05:58Z</time>
      </trkpt>
      <trkpt lat="38.4294650" lon="-0.6761400">
        <ele>314.0</ele>
        <time>2018-10-14T07:05:59Z</time>
      </trkpt>
      <trkpt lat="38.4295230" lon="-0.6761650">
        <ele>314.0</ele>
        <time>2018-10-14T07:06:00Z</time>
      </trkpt>
      <trkpt lat="38.4295230" lon="-0.6761650">
        <ele>314.0</ele>
        <time>2018-10-14T07:06:01Z</time>
      </trkpt>
      <trkpt lat="38.4295800" lon="-0.6761920">
        <ele>314.0</ele>
        <time>2018-10-14T07:06:02Z</time>
      </trkpt>
      <trkpt lat="38.4295800" lon="-0.6761920">
        <ele>314.0</ele>
        <time>2018-10-14T07:06:03Z</time>
      </trkpt>
      <trkpt lat="38.4296380" lon="-0.6762180">
        <ele>314.0</ele>
        <time>2018-10-14T07:06:04Z</time>
      </trkpt>
      <trkpt lat="38.4296380" lon="-0.6762180">
        <ele>314.0</ele>
        <time>2018-10-14T07:06:05Z</time>
      </trkpt>
      <trkpt lat="38.4296970" lon="-0.6762330">
        <ele>314.0</ele>
        <time>2018-10-14T07:06:06Z</time>
      </trkpt>
      <trkpt lat="38.4296970" lon="-0.6762330">
        <ele>314.0</ele>
        <time>2018-10-14T07:06:07Z</time>
      </trkpt>
      <trkpt lat="38.4297570" lon="-0.6762430">
        <ele>314.0</ele>
        <time>2018-10-14T07:06:08Z</time>
      </trkpt>
      <trkpt lat="38.4297570" lon="-0.6762430">
        <ele>315.0</ele>
        <time>2018-10-14T07:06:09Z</time>
      </trkpt>
      <trkpt lat="38.4298180" lon="-0.6762430">
        <ele>315.0</ele>
        <time>2018-10-14T07:06:10Z</time>
      </trkpt>
      <trkpt lat="38.4298180" lon="-0.6762430">
        <ele>315.0</ele>
        <time>2018-10-14T07:06:11Z</time>
      </trkpt>
      <trkpt lat="38.4298820" lon="-0.6762230">
        <ele>315.0</ele>
        <time>2018-10-14T07:06:12Z</time>
      </trkpt>
      <trkpt lat="38.4298820" lon="-0.6762230">
        <ele>315.0</ele>
        <time>2018-10-14T07:06:13Z</time>
      </trkpt>
      <trkpt lat="38.4299480" lon="-0.6761980">
        <ele>315.0</ele>
        <time>2018-10-14T07:06:14Z</time>
      </trkpt>
      <trkpt lat="38.4299480" lon="-0.6761980">
        <ele>315.0</ele>
        <time>2018-10-14T07:06:15Z</time>
      </trkpt>
      <trkpt lat="38.4300120" lon="-0.6761800">
        <ele>315.0</ele>
        <time>2018-10-14T07:06:16Z</time>
      </trkpt>
      <trkpt lat="38.4300120" lon="-0.6761800">
        <ele>315.0</ele>
        <time>2018-10-14T07:06:17Z</time>
      </trkpt>
      <trkpt lat="38.4300700" lon="-0.6761580">
        <ele>315.0</ele>
        <time>2018-10-14T07:06:18Z</time>
      </trkpt>
      <trkpt lat="38.4300700" lon="-0.6761580">
        <ele>316.0</ele>
        <time>2018-10-14T07:06:19Z</time>
      </trkpt>
      <trkpt lat="38.4301300" lon="-0.6761380">
        <ele>316.0</ele>
        <time>2018-10-14T07:06:20Z</time>
      </trkpt>
      <trkpt lat="38.4301300" lon="-0.6761380">
        <ele>316.0</ele>
        <time>2018-10-14T07:06:21Z</time>
      </trkpt>
      <trkpt lat="38.4301920" lon="-0.6761150">
        <ele>316.0</ele>
        <time>2018-10-14T07:06:22Z</time>
      </trkpt>
      <trkpt lat="38.4301920" lon="-0.6761150">
        <ele>316.0</ele>
        <time>2018-10-14T07:06:23Z</time>
      </trkpt>
      <trkpt lat="38.4302520" lon="-0.6760950">
        <ele>316.0</ele>
        <time>2018-10-14T07:06:24Z</time>
      </trkpt>
      <trkpt lat="38.4302520" lon="-0.6760950">
        <ele>316.0</ele>
        <time>2018-10-14T07:06:25Z</time>
      </trkpt>
      <trkpt lat="38.4303120" lon="-0.6760780">
        <ele>316.0</ele>
        <time>2018-10-14T07:06:26Z</time>
      </trkpt>
      <trkpt lat="38.4303120" lon="-0.6760780">
        <ele>317.0</ele>
        <time>2018-10-14T07:06:27Z</time>
      </trkpt>
      <trkpt lat="38.4303730" lon="-0.6760620">
        <ele>317.0</ele>
        <time>2018-10-14T07:06:28Z</time>
      </trkpt>
      <trkpt lat="38.4304030" lon="-0.6760570">
        <ele>317.0</ele>
        <time>2018-10-14T07:06:29Z</time>
      </trkpt>
      <trkpt lat="38.4304030" lon="-0.6760570">
        <ele>317.0</ele>
        <time>2018-10-14T07:06:30Z</time>
      </trkpt>
      <trkpt lat="38.4304650" lon="-0.6760520">
        <ele>317.0</ele>
        <time>2018-10-14T07:06:31Z</time>
      </trkpt>
      <trkpt lat="38.4304970" lon="-0.6760480">
        <ele>317.0</ele>
        <time>2018-10-14T07:06:32Z</time>
      </trkpt>
      <trkpt lat="38.4304970" lon="-0.6760480">
        <ele>317.0</ele>
        <time>2018-10-14T07:06:33Z</time>
      </trkpt>
      <trkpt lat="38.4305570" lon="-0.6760530">
        <ele>317.0</ele>
        <time>2018-10-14T07:06:34Z</time>
      </trkpt>
      <trkpt lat="38.4305870" lon="-0.6760600">
        <ele>317.0</ele>
        <time>2018-10-14T07:06:35Z</time>
      </trkpt>
      <trkpt lat="38.4305870" lon="-0.6760600">
        <ele>317.0</ele>
        <time>2018-10-14T07:06:36Z</time>
      </trkpt>
      <trkpt lat="38.4306420" lon="-0.6760780">
        <ele>317.0</ele>
        <time>2018-10-14T07:06:37Z</time>
      </trkpt>
      <trkpt lat="38.4306700" lon="-0.6760900">
        <ele>317.0</ele>
        <time>2018-10-14T07:06:38Z</time>
      </trkpt>
      <trkpt lat="38.4306700" lon="-0.6760900">
        <ele>317.0</ele>
        <time>2018-10-14T07:06:39Z</time>
      </trkpt>
      <trkpt lat="38.4307270" lon="-0.6761130">
        <ele>317.0</ele>
        <time>2018-10-14T07:06:40Z</time>
      </trkpt>
      <trkpt lat="38.4307530" lon="-0.6761330">
        <ele>317.0</ele>
        <time>2018-10-14T07:06:41Z</time>
      </trkpt>
      <trkpt lat="38.4307780" lon="-0.6761530">
        <ele>317.0</ele>
        <time>2018-10-14T07:06:42Z</time>
      </trkpt>
      <trkpt lat="38.4307780" lon="-0.6761530">
        <ele>317.0</ele>
        <time>2018-10-14T07:06:43Z</time>
      </trkpt>
      <trkpt lat="38.4308320" lon="-0.6761780">
        <ele>317.0</ele>
        <time>2018-10-14T07:06:44Z</time>
      </trkpt>
      <trkpt lat="38.4308320" lon="-0.6761780">
        <ele>317.0</ele>
        <time>2018-10-14T07:06:45Z</time>
      </trkpt>
      <trkpt lat="38.4308880" lon="-0.6762020">
        <ele>317.0</ele>
        <time>2018-10-14T07:06:46Z</time>
      </trkpt>
      <trkpt lat="38.4308880" lon="-0.6762020">
        <ele>317.0</ele>
        <time>2018-10-14T07:06:47Z</time>
      </trkpt>
      <trkpt lat="38.4309450" lon="-0.6762270">
        <ele>317.0</ele>
        <time>2018-10-14T07:06:48Z</time>
      </trkpt>
      <trkpt lat="38.4309450" lon="-0.6762270">
        <ele>318.0</ele>
        <time>2018-10-14T07:06:49Z</time>
      </trkpt>
      <trkpt lat="38.4310000" lon="-0.6762570">
        <ele>318.0</ele>
        <time>2018-10-14T07:06:50Z</time>
      </trkpt>
      <trkpt lat="38.4310000" lon="-0.6762570">
        <ele>318.0</ele>
        <time>2018-10-14T07:06:51Z</time>
      </trkpt>
      <trkpt lat="38.4310520" lon="-0.6762880">
        <ele>318.0</ele>
        <time>2018-10-14T07:06:52Z</time>
      </trkpt>
      <trkpt lat="38.4310780" lon="-0.6763020">
        <ele>318.0</ele>
        <time>2018-10-14T07:06:53Z</time>
      </trkpt>
      <trkpt lat="38.4311070" lon="-0.6763130">
        <ele>318.0</ele>
        <time>2018-10-14T07:06:54Z</time>
      </trkpt>
      <trkpt lat="38.4311070" lon="-0.6763130">
        <ele>318.0</ele>
        <time>2018-10-14T07:06:55Z</time>
      </trkpt>
      <trkpt lat="38.4311600" lon="-0.6763350">
        <ele>318.0</ele>
        <time>2018-10-14T07:06:56Z</time>
      </trkpt>
      <trkpt lat="38.4311600" lon="-0.6763350">
        <ele>319.0</ele>
        <time>2018-10-14T07:06:57Z</time>
      </trkpt>
      <trkpt lat="38.4312130" lon="-0.6763620">
        <ele>319.0</ele>
        <time>2018-10-14T07:06:58Z</time>
      </trkpt>
      <trkpt lat="38.4312130" lon="-0.6763620">
        <ele>319.0</ele>
        <time>2018-10-14T07:06:59Z</time>
      </trkpt>
      <trkpt lat="38.4312630" lon="-0.6764030">
        <ele>319.0</ele>
        <time>2018-10-14T07:07:00Z</time>
      </trkpt>
      <trkpt lat="38.4312630" lon="-0.6764030">
        <ele>319.0</ele>
        <time>2018-10-14T07:07:01Z</time>
      </trkpt>
      <trkpt lat="38.4313180" lon="-0.6764380">
        <ele>319.0</ele>
        <time>2018-10-14T07:07:02Z</time>
      </trkpt>
      <trkpt lat="38.4313180" lon="-0.6764380">
        <ele>319.0</ele>
        <time>2018-10-14T07:07:03Z</time>
      </trkpt>
      <trkpt lat="38.4313720" lon="-0.6764770">
        <ele>320.0</ele>
        <time>2018-10-14T07:07:04Z</time>
      </trkpt>
      <trkpt lat="38.4313720" lon="-0.6764770">
        <ele>320.0</ele>
        <time>2018-10-14T07:07:05Z</time>
      </trkpt>
      <trkpt lat="38.4314220" lon="-0.6765180">
        <ele>320.0</ele>
        <time>2018-10-14T07:07:06Z</time>
      </trkpt>
      <trkpt lat="38.4314220" lon="-0.6765180">
        <ele>320.0</ele>
        <time>2018-10-14T07:07:07Z</time>
      </trkpt>
      <trkpt lat="38.4314720" lon="-0.6765670">
        <ele>320.0</ele>
        <time>2018-10-14T07:07:08Z</time>
      </trkpt>
      <trkpt lat="38.4314720" lon="-0.6765670">
        <ele>320.0</ele>
        <time>2018-10-14T07:07:09Z</time>
      </trkpt>
      <trkpt lat="38.4315230" lon="-0.6766100">
        <ele>320.0</ele>
        <time>2018-10-14T07:07:10Z</time>
      </trkpt>
      <trkpt lat="38.4315480" lon="-0.6766320">
        <ele>320.0</ele>
        <time>2018-10-14T07:07:11Z</time>
      </trkpt>
      <trkpt lat="38.4315730" lon="-0.6766520">
        <ele>321.0</ele>
        <time>2018-10-14T07:07:12Z</time>
      </trkpt>
      <trkpt lat="38.4315730" lon="-0.6766520">
        <ele>321.0</ele>
        <time>2018-10-14T07:07:13Z</time>
      </trkpt>
      <trkpt lat="38.4316250" lon="-0.6766930">
        <ele>321.0</ele>
        <time>2018-10-14T07:07:14Z</time>
      </trkpt>
      <trkpt lat="38.4316250" lon="-0.6766930">
        <ele>321.0</ele>
        <time>2018-10-14T07:07:15Z</time>
      </trkpt>
      <trkpt lat="38.4316780" lon="-0.6767300">
        <ele>321.0</ele>
        <time>2018-10-14T07:07:16Z</time>
      </trkpt>
      <trkpt lat="38.4317030" lon="-0.6767470">
        <ele>321.0</ele>
        <time>2018-10-14T07:07:17Z</time>
      </trkpt>
      <trkpt lat="38.4317300" lon="-0.6767620">
        <ele>321.0</ele>
        <time>2018-10-14T07:07:18Z</time>
      </trkpt>
      <trkpt lat="38.4317300" lon="-0.6767620">
        <ele>321.0</ele>
        <time>2018-10-14T07:07:19Z</time>
      </trkpt>
      <trkpt lat="38.4317830" lon="-0.6767830">
        <ele>322.0</ele>
        <time>2018-10-14T07:07:20Z</time>
      </trkpt>
      <trkpt lat="38.4317830" lon="-0.6767830">
        <ele>322.0</ele>
        <time>2018-10-14T07:07:21Z</time>
      </trkpt>
      <trkpt lat="38.4318400" lon="-0.6768020">
        <ele>322.0</ele>
        <time>2018-10-14T07:07:22Z</time>
      </trkpt>
      <trkpt lat="38.4318400" lon="-0.6768020">
        <ele>322.0</ele>
        <time>2018-10-14T07:07:23Z</time>
      </trkpt>
      <trkpt lat="38.4318980" lon="-0.6768130">
        <ele>322.0</ele>
        <time>2018-10-14T07:07:24Z</time>
      </trkpt>
      <trkpt lat="38.4318980" lon="-0.6768130">
        <ele>322.0</ele>
        <time>2018-10-14T07:07:25Z</time>
      </trkpt>
      <trkpt lat="38.4319570" lon="-0.6768280">
        <ele>322.0</ele>
        <time>2018-10-14T07:07:26Z</time>
      </trkpt>
      <trkpt lat="38.4319570" lon="-0.6768280">
        <ele>323.0</ele>
        <time>2018-10-14T07:07:27Z</time>
      </trkpt>
      <trkpt lat="38.4320170" lon="-0.6768430">
        <ele>323.0</ele>
        <time>2018-10-14T07:07:28Z</time>
      </trkpt>
      <trkpt lat="38.4320170" lon="-0.6768430">
        <ele>323.0</ele>
        <time>2018-10-14T07:07:29Z</time>
      </trkpt>
      <trkpt lat="38.4320780" lon="-0.6768570">
        <ele>323.0</ele>
        <time>2018-10-14T07:07:30Z</time>
      </trkpt>
      <trkpt lat="38.4320780" lon="-0.6768570">
        <ele>323.0</ele>
        <time>2018-10-14T07:07:31Z</time>
      </trkpt>
      <trkpt lat="38.4321350" lon="-0.6768730">
        <ele>323.0</ele>
        <time>2018-10-14T07:07:32Z</time>
      </trkpt>
      <trkpt lat="38.4321350" lon="-0.6768730">
        <ele>323.0</ele>
        <time>2018-10-14T07:07:33Z</time>
      </trkpt>
      <trkpt lat="38.4321920" lon="-0.6768900">
        <ele>323.0</ele>
        <time>2018-10-14T07:07:34Z</time>
      </trkpt>
      <trkpt lat="38.4321920" lon="-0.6768900">
        <ele>323.0</ele>
        <time>2018-10-14T07:07:35Z</time>
      </trkpt>
      <trkpt lat="38.4322500" lon="-0.6769070">
        <ele>323.0</ele>
        <time>2018-10-14T07:07:36Z</time>
      </trkpt>
      <trkpt lat="38.4322500" lon="-0.6769070">
        <ele>323.0</ele>
        <time>2018-10-14T07:07:37Z</time>
      </trkpt>
      <trkpt lat="38.4323070" lon="-0.6769270">
        <ele>323.0</ele>
        <time>2018-10-14T07:07:38Z</time>
      </trkpt>
      <trkpt lat="38.4323070" lon="-0.6769270">
        <ele>323.0</ele>
        <time>2018-10-14T07:07:39Z</time>
      </trkpt>
      <trkpt lat="38.4323650" lon="-0.6769520">
        <ele>324.0</ele>
        <time>2018-10-14T07:07:40Z</time>
      </trkpt>
      <trkpt lat="38.4323650" lon="-0.6769520">
        <ele>324.0</ele>
        <time>2018-10-14T07:07:41Z</time>
      </trkpt>
      <trkpt lat="38.4324230" lon="-0.6769770">
        <ele>324.0</ele>
        <time>2018-10-14T07:07:42Z</time>
      </trkpt>
      <trkpt lat="38.4324230" lon="-0.6769770">
        <ele>324.0</ele>
        <time>2018-10-14T07:07:43Z</time>
      </trkpt>
      <trkpt lat="38.4324800" lon="-0.6770050">
        <ele>325.0</ele>
        <time>2018-10-14T07:07:44Z</time>
      </trkpt>
      <trkpt lat="38.4324800" lon="-0.6770050">
        <ele>325.0</ele>
        <time>2018-10-14T07:07:45Z</time>
      </trkpt>
      <trkpt lat="38.4325380" lon="-0.6770350">
        <ele>325.0</ele>
        <time>2018-10-14T07:07:46Z</time>
      </trkpt>
      <trkpt lat="38.4325670" lon="-0.6770480">
        <ele>325.0</ele>
        <time>2018-10-14T07:07:47Z</time>
      </trkpt>
      <trkpt lat="38.4325950" lon="-0.6770630">
        <ele>325.0</ele>
        <time>2018-10-14T07:07:48Z</time>
      </trkpt>
      <trkpt lat="38.4326250" lon="-0.6770720">
        <ele>325.0</ele>
        <time>2018-10-14T07:07:49Z</time>
      </trkpt>
      <trkpt lat="38.4326550" lon="-0.6770820">
        <ele>326.0</ele>
        <time>2018-10-14T07:07:50Z</time>
      </trkpt>
      <trkpt lat="38.4326550" lon="-0.6770820">
        <ele>326.0</ele>
        <time>2018-10-14T07:07:51Z</time>
      </trkpt>
      <trkpt lat="38.4327170" lon="-0.6770950">
        <ele>326.0</ele>
        <time>2018-10-14T07:07:52Z</time>
      </trkpt>
      <trkpt lat="38.4327470" lon="-0.6771020">
        <ele>326.0</ele>
        <time>2018-10-14T07:07:53Z</time>
      </trkpt>
      <trkpt lat="38.4327750" lon="-0.6771070">
        <ele>326.0</ele>
        <time>2018-10-14T07:07:54Z</time>
      </trkpt>
      <trkpt lat="38.4327750" lon="-0.6771070">
        <ele>326.0</ele>
        <time>2018-10-14T07:07:55Z</time>
      </trkpt>
      <trkpt lat="38.4328350" lon="-0.6771170">
        <ele>327.0</ele>
        <time>2018-10-14T07:07:56Z</time>
      </trkpt>
      <trkpt lat="38.4328350" lon="-0.6771170">
        <ele>327.0</ele>
        <time>2018-10-14T07:07:57Z</time>
      </trkpt>
      <trkpt lat="38.4328970" lon="-0.6771250">
        <ele>327.0</ele>
        <time>2018-10-14T07:07:58Z</time>
      </trkpt>
      <trkpt lat="38.4328970" lon="-0.6771250">
        <ele>327.0</ele>
        <time>2018-10-14T07:07:59Z</time>
      </trkpt>
      <trkpt lat="38.4329580" lon="-0.6771330">
        <ele>327.0</ele>
        <time>2018-10-14T07:08:00Z</time>
      </trkpt>
      <trkpt lat="38.4329880" lon="-0.6771370">
        <ele>327.0</ele>
        <time>2018-10-14T07:08:01Z</time>
      </trkpt>
      <trkpt lat="38.4330180" lon="-0.6771420">
        <ele>327.0</ele>
        <time>2018-10-14T07:08:02Z</time>
      </trkpt>
      <trkpt lat="38.4330180" lon="-0.6771420">
        <ele>328.0</ele>
        <time>2018-10-14T07:08:03Z</time>
      </trkpt>
      <trkpt lat="38.4330780" lon="-0.6771450">
        <ele>328.0</ele>
        <time>2018-10-14T07:08:04Z</time>
      </trkpt>
      <trkpt lat="38.4330780" lon="-0.6771450">
        <ele>328.0</ele>
        <time>2018-10-14T07:08:05Z</time>
      </trkpt>
      <trkpt lat="38.4331400" lon="-0.6771500">
        <ele>328.0</ele>
        <time>2018-10-14T07:08:06Z</time>
      </trkpt>
      <trkpt lat="38.4331400" lon="-0.6771500">
        <ele>329.0</ele>
        <time>2018-10-14T07:08:07Z</time>
      </trkpt>
      <trkpt lat="38.4331980" lon="-0.6771480">
        <ele>329.0</ele>
        <time>2018-10-14T07:08:08Z</time>
      </trkpt>
      <trkpt lat="38.4331980" lon="-0.6771480">
        <ele>329.0</ele>
        <time>2018-10-14T07:08:09Z</time>
      </trkpt>
      <trkpt lat="38.4332630" lon="-0.6771450">
        <ele>329.0</ele>
        <time>2018-10-14T07:08:10Z</time>
      </trkpt>
      <trkpt lat="38.4332630" lon="-0.6771450">
        <ele>329.0</ele>
        <time>2018-10-14T07:08:11Z</time>
      </trkpt>
      <trkpt lat="38.4333230" lon="-0.6771530">
        <ele>329.0</ele>
        <time>2018-10-14T07:08:12Z</time>
      </trkpt>
      <trkpt lat="38.4333230" lon="-0.6771530">
        <ele>330.0</ele>
        <time>2018-10-14T07:08:13Z</time>
      </trkpt>
      <trkpt lat="38.4333870" lon="-0.6771600">
        <ele>330.0</ele>
        <time>2018-10-14T07:08:14Z</time>
      </trkpt>
      <trkpt lat="38.4333870" lon="-0.6771600">
        <ele>330.0</ele>
        <time>2018-10-14T07:08:15Z</time>
      </trkpt>
      <trkpt lat="38.4334480" lon="-0.6771700">
        <ele>330.0</ele>
        <time>2018-10-14T07:08:16Z</time>
      </trkpt>
      <trkpt lat="38.4334480" lon="-0.6771700">
        <ele>330.0</ele>
        <time>2018-10-14T07:08:17Z</time>
      </trkpt>
      <trkpt lat="38.4335120" lon="-0.6771780">
        <ele>330.0</ele>
        <time>2018-10-14T07:08:18Z</time>
      </trkpt>
      <trkpt lat="38.4335120" lon="-0.6771780">
        <ele>330.0</ele>
        <time>2018-10-14T07:08:19Z</time>
      </trkpt>
      <trkpt lat="38.4335720" lon="-0.6771830">
        <ele>330.0</ele>
        <time>2018-10-14T07:08:20Z</time>
      </trkpt>
      <trkpt lat="38.4335720" lon="-0.6771830">
        <ele>331.0</ele>
        <time>2018-10-14T07:08:21Z</time>
      </trkpt>
      <trkpt lat="38.4336330" lon="-0.6771880">
        <ele>331.0</ele>
        <time>2018-10-14T07:08:22Z</time>
      </trkpt>
      <trkpt lat="38.4336330" lon="-0.6771880">
        <ele>331.0</ele>
        <time>2018-10-14T07:08:23Z</time>
      </trkpt>
      <trkpt lat="38.4336950" lon="-0.6771970">
        <ele>331.0</ele>
        <time>2018-10-14T07:08:24Z</time>
      </trkpt>
      <trkpt lat="38.4336950" lon="-0.6771970">
        <ele>331.0</ele>
        <time>2018-10-14T07:08:25Z</time>
      </trkpt>
      <trkpt lat="38.4337550" lon="-0.6772050">
        <ele>331.0</ele>
        <time>2018-10-14T07:08:26Z</time>
      </trkpt>
      <trkpt lat="38.4337550" lon="-0.6772050">
        <ele>331.0</ele>
        <time>2018-10-14T07:08:27Z</time>
      </trkpt>
      <trkpt lat="38.4338150" lon="-0.6772150">
        <ele>331.0</ele>
        <time>2018-10-14T07:08:28Z</time>
      </trkpt>
      <trkpt lat="38.4338150" lon="-0.6772150">
        <ele>332.0</ele>
        <time>2018-10-14T07:08:29Z</time>
      </trkpt>
      <trkpt lat="38.4338770" lon="-0.6772250">
        <ele>332.0</ele>
        <time>2018-10-14T07:08:30Z</time>
      </trkpt>
      <trkpt lat="38.4338770" lon="-0.6772250">
        <ele>332.0</ele>
        <time>2018-10-14T07:08:31Z</time>
      </trkpt>
      <trkpt lat="38.4339420" lon="-0.6772430">
        <ele>332.0</ele>
        <time>2018-10-14T07:08:32Z</time>
      </trkpt>
      <trkpt lat="38.4339420" lon="-0.6772430">
        <ele>332.0</ele>
        <time>2018-10-14T07:08:33Z</time>
      </trkpt>
      <trkpt lat="38.4340030" lon="-0.6772670">
        <ele>332.0</ele>
        <time>2018-10-14T07:08:34Z</time>
      </trkpt>
      <trkpt lat="38.4340030" lon="-0.6772670">
        <ele>332.0</ele>
        <time>2018-10-14T07:08:35Z</time>
      </trkpt>
      <trkpt lat="38.4340630" lon="-0.6772980">
        <ele>332.0</ele>
        <time>2018-10-14T07:08:36Z</time>
      </trkpt>
      <trkpt lat="38.4340630" lon="-0.6772980">
        <ele>332.0</ele>
        <time>2018-10-14T07:08:37Z</time>
      </trkpt>
      <trkpt lat="38.4341180" lon="-0.6773330">
        <ele>332.0</ele>
        <time>2018-10-14T07:08:38Z</time>
      </trkpt>
      <trkpt lat="38.4341180" lon="-0.6773330">
        <ele>332.0</ele>
        <time>2018-10-14T07:08:39Z</time>
      </trkpt>
      <trkpt lat="38.4341750" lon="-0.6773650">
        <ele>332.0</ele>
        <time>2018-10-14T07:08:40Z</time>
      </trkpt>
      <trkpt lat="38.4341750" lon="-0.6773650">
        <ele>333.0</ele>
        <time>2018-10-14T07:08:41Z</time>
      </trkpt>
      <trkpt lat="38.4342280" lon="-0.6774000">
        <ele>333.0</ele>
        <time>2018-10-14T07:08:42Z</time>
      </trkpt>
      <trkpt lat="38.4342280" lon="-0.6774000">
        <ele>333.0</ele>
        <time>2018-10-14T07:08:43Z</time>
      </trkpt>
      <trkpt lat="38.4342830" lon="-0.6774330">
        <ele>334.0</ele>
        <time>2018-10-14T07:08:44Z</time>
      </trkpt>
      <trkpt lat="38.4343120" lon="-0.6774520">
        <ele>334.0</ele>
        <time>2018-10-14T07:08:45Z</time>
      </trkpt>
      <trkpt lat="38.4343120" lon="-0.6774520">
        <ele>334.0</ele>
        <time>2018-10-14T07:08:46Z</time>
      </trkpt>
      <trkpt lat="38.4343650" lon="-0.6774850">
        <ele>334.0</ele>
        <time>2018-10-14T07:08:47Z</time>
      </trkpt>
      <trkpt lat="38.4343900" lon="-0.6775030">
        <ele>335.0</ele>
        <time>2018-10-14T07:08:48Z</time>
      </trkpt>
      <trkpt lat="38.4343900" lon="-0.6775030">
        <ele>335.0</ele>
        <time>2018-10-14T07:08:49Z</time>
      </trkpt>
      <trkpt lat="38.4344450" lon="-0.6775420">
        <ele>335.0</ele>
        <time>2018-10-14T07:08:50Z</time>
      </trkpt>
      <trkpt lat="38.4344730" lon="-0.6775580">
        <ele>335.0</ele>
        <time>2018-10-14T07:08:51Z</time>
      </trkpt>
      <trkpt lat="38.4345020" lon="-0.6775770">
        <ele>335.0</ele>
        <time>2018-10-14T07:08:52Z</time>
      </trkpt>
      <trkpt lat="38.4345020" lon="-0.6775770">
        <ele>335.0</ele>
        <time>2018-10-14T07:08:53Z</time>
      </trkpt>
      <trkpt lat="38.4345570" lon="-0.6776170">
        <ele>336.0</ele>
        <time>2018-10-14T07:08:54Z</time>
      </trkpt>
      <trkpt lat="38.4345570" lon="-0.6776170">
        <ele>336.0</ele>
        <time>2018-10-14T07:08:55Z</time>
      </trkpt>
      <trkpt lat="38.4346100" lon="-0.6776530">
        <ele>336.0</ele>
        <time>2018-10-14T07:08:56Z</time>
      </trkpt>
      <trkpt lat="38.4346100" lon="-0.6776530">
        <ele>336.0</ele>
        <time>2018-10-14T07:08:57Z</time>
      </trkpt>
      <trkpt lat="38.4346670" lon="-0.6776870">
        <ele>336.0</ele>
        <time>2018-10-14T07:08:58Z</time>
      </trkpt>
      <trkpt lat="38.4346670" lon="-0.6776870">
        <ele>336.0</ele>
        <time>2018-10-14T07:08:59Z</time>
      </trkpt>
      <trkpt lat="38.4347200" lon="-0.6777200">
        <ele>337.0</ele>
        <time>2018-10-14T07:09:00Z</time>
      </trkpt>
      <trkpt lat="38.4347470" lon="-0.6777380">
        <ele>337.0</ele>
        <time>2018-10-14T07:09:01Z</time>
      </trkpt>
      <trkpt lat="38.4347730" lon="-0.6777580">
        <ele>337.0</ele>
        <time>2018-10-14T07:09:02Z</time>
      </trkpt>
      <trkpt lat="38.4347730" lon="-0.6777580">
        <ele>337.0</ele>
        <time>2018-10-14T07:09:03Z</time>
      </trkpt>
      <trkpt lat="38.4348270" lon="-0.6777980">
        <ele>337.0</ele>
        <time>2018-10-14T07:09:04Z</time>
      </trkpt>
      <trkpt lat="38.4348270" lon="-0.6777980">
        <ele>337.0</ele>
        <time>2018-10-14T07:09:05Z</time>
      </trkpt>
      <trkpt lat="38.4348820" lon="-0.6778330">
        <ele>337.0</ele>
        <time>2018-10-14T07:09:06Z</time>
      </trkpt>
      <trkpt lat="38.4348820" lon="-0.6778330">
        <ele>337.0</ele>
        <time>2018-10-14T07:09:07Z</time>
      </trkpt>
      <trkpt lat="38.4349380" lon="-0.6778650">
        <ele>337.0</ele>
        <time>2018-10-14T07:09:08Z</time>
      </trkpt>
      <trkpt lat="38.4349380" lon="-0.6778650">
        <ele>337.0</ele>
        <time>2018-10-14T07:09:09Z</time>
      </trkpt>
      <trkpt lat="38.4349950" lon="-0.6778930">
        <ele>337.0</ele>
        <time>2018-10-14T07:09:10Z</time>
      </trkpt>
      <trkpt lat="38.4350230" lon="-0.6779150">
        <ele>337.0</ele>
        <time>2018-10-14T07:09:11Z</time>
      </trkpt>
      <trkpt lat="38.4350520" lon="-0.6779350">
        <ele>337.0</ele>
        <time>2018-10-14T07:09:12Z</time>
      </trkpt>
      <trkpt lat="38.4350520" lon="-0.6779350">
        <ele>337.0</ele>
        <time>2018-10-14T07:09:13Z</time>
      </trkpt>
      <trkpt lat="38.4351080" lon="-0.6779730">
        <ele>337.0</ele>
        <time>2018-10-14T07:09:14Z</time>
      </trkpt>
      <trkpt lat="38.4351080" lon="-0.6779730">
        <ele>337.0</ele>
        <time>2018-10-14T07:09:15Z</time>
      </trkpt>
      <trkpt lat="38.4351630" lon="-0.6780130">
        <ele>338.0</ele>
        <time>2018-10-14T07:09:16Z</time>
      </trkpt>
      <trkpt lat="38.4351900" lon="-0.6780320">
        <ele>338.0</ele>
        <time>2018-10-14T07:09:17Z</time>
      </trkpt>
      <trkpt lat="38.4352170" lon="-0.6780520">
        <ele>338.0</ele>
        <time>2018-10-14T07:09:18Z</time>
      </trkpt>
      <trkpt lat="38.4352170" lon="-0.6780520">
        <ele>338.0</ele>
        <time>2018-10-14T07:09:19Z</time>
      </trkpt>
      <trkpt lat="38.4352700" lon="-0.6780880">
        <ele>338.0</ele>
        <time>2018-10-14T07:09:20Z</time>
      </trkpt>
      <trkpt lat="38.4352700" lon="-0.6780880">
        <ele>338.0</ele>
        <time>2018-10-14T07:09:21Z</time>
      </trkpt>
      <trkpt lat="38.4353280" lon="-0.6781270">
        <ele>338.0</ele>
        <time>2018-10-14T07:09:22Z</time>
      </trkpt>
      <trkpt lat="38.4353280" lon="-0.6781270">
        <ele>338.0</ele>
        <time>2018-10-14T07:09:23Z</time>
      </trkpt>
      <trkpt lat="38.4353850" lon="-0.6781650">
        <ele>339.0</ele>
        <time>2018-10-14T07:09:24Z</time>
      </trkpt>
      <trkpt lat="38.4353850" lon="-0.6781650">
        <ele>339.0</ele>
        <time>2018-10-14T07:09:25Z</time>
      </trkpt>
      <trkpt lat="38.4354420" lon="-0.6782000">
        <ele>339.0</ele>
        <time>2018-10-14T07:09:26Z</time>
      </trkpt>
      <trkpt lat="38.4354420" lon="-0.6782000">
        <ele>339.0</ele>
        <time>2018-10-14T07:09:27Z</time>
      </trkpt>
      <trkpt lat="38.4354970" lon="-0.6782450">
        <ele>340.0</ele>
        <time>2018-10-14T07:09:28Z</time>
      </trkpt>
      <trkpt lat="38.4354970" lon="-0.6782450">
        <ele>340.0</ele>
        <time>2018-10-14T07:09:29Z</time>
      </trkpt>
      <trkpt lat="38.4355530" lon="-0.6782850">
        <ele>340.0</ele>
        <time>2018-10-14T07:09:30Z</time>
      </trkpt>
      <trkpt lat="38.4355530" lon="-0.6782850">
        <ele>340.0</ele>
        <time>2018-10-14T07:09:31Z</time>
      </trkpt>
      <trkpt lat="38.4356030" lon="-0.6783300">
        <ele>340.0</ele>
        <time>2018-10-14T07:09:32Z</time>
      </trkpt>
      <trkpt lat="38.4356030" lon="-0.6783300">
        <ele>340.0</ele>
        <time>2018-10-14T07:09:33Z</time>
      </trkpt>
      <trkpt lat="38.4356570" lon="-0.6783700">
        <ele>340.0</ele>
        <time>2018-10-14T07:09:34Z</time>
      </trkpt>
      <trkpt lat="38.4356830" lon="-0.6783900">
        <ele>341.0</ele>
        <time>2018-10-14T07:09:35Z</time>
      </trkpt>
      <trkpt lat="38.4357120" lon="-0.6784100">
        <ele>341.0</ele>
        <time>2018-10-14T07:09:36Z</time>
      </trkpt>
      <trkpt lat="38.4357120" lon="-0.6784100">
        <ele>341.0</ele>
        <time>2018-10-14T07:09:37Z</time>
      </trkpt>
      <trkpt lat="38.4357670" lon="-0.6784470">
        <ele>341.0</ele>
        <time>2018-10-14T07:09:38Z</time>
      </trkpt>
      <trkpt lat="38.4357670" lon="-0.6784470">
        <ele>341.0</ele>
        <time>2018-10-14T07:09:39Z</time>
      </trkpt>
      <trkpt lat="38.4358270" lon="-0.6784770">
        <ele>341.0</ele>
        <time>2018-10-14T07:09:40Z</time>
      </trkpt>
      <trkpt lat="38.4358600" lon="-0.6784920">
        <ele>342.0</ele>
        <time>2018-10-14T07:09:41Z</time>
      </trkpt>
      <trkpt lat="38.4358600" lon="-0.6784920">
        <ele>342.0</ele>
        <time>2018-10-14T07:09:42Z</time>
      </trkpt>
      <trkpt lat="38.4359200" lon="-0.6785350">
        <ele>342.0</ele>
        <time>2018-10-14T07:09:43Z</time>
      </trkpt>
      <trkpt lat="38.4359480" lon="-0.6785600">
        <ele>342.0</ele>
        <time>2018-10-14T07:09:44Z</time>
      </trkpt>
      <trkpt lat="38.4359480" lon="-0.6785600">
        <ele>342.0</ele>
        <time>2018-10-14T07:09:45Z</time>
      </trkpt>
      <trkpt lat="38.4360020" lon="-0.6786070">
        <ele>342.0</ele>
        <time>2018-10-14T07:09:46Z</time>
      </trkpt>
      <trkpt lat="38.4360020" lon="-0.6786070">
        <ele>342.0</ele>
        <time>2018-10-14T07:09:47Z</time>
      </trkpt>
      <trkpt lat="38.4360550" lon="-0.6786570">
        <ele>343.0</ele>
        <time>2018-10-14T07:09:48Z</time>
      </trkpt>
      <trkpt lat="38.4360550" lon="-0.6786570">
        <ele>343.0</ele>
        <time>2018-10-14T07:09:49Z</time>
      </trkpt>
      <trkpt lat="38.4360980" lon="-0.6786970">
        <ele>343.0</ele>
        <time>2018-10-14T07:09:50Z</time>
      </trkpt>
      <trkpt lat="38.4360980" lon="-0.6786970">
        <ele>343.0</ele>
        <time>2018-10-14T07:09:51Z</time>
      </trkpt>
      <trkpt lat="38.4361280" lon="-0.6787270">
        <ele>343.0</ele>
        <time>2018-10-14T07:09:52Z</time>
      </trkpt>
      <trkpt lat="38.4361280" lon="-0.6787270">
        <ele>343.0</ele>
        <time>2018-10-14T07:09:53Z</time>
      </trkpt>
      <trkpt lat="38.4361670" lon="-0.6787320">
        <ele>344.0</ele>
        <time>2018-10-14T07:09:54Z</time>
      </trkpt>
      <trkpt lat="38.4361670" lon="-0.6787320">
        <ele>344.0</ele>
        <time>2018-10-14T07:09:55Z</time>
      </trkpt>
      <trkpt lat="38.4361980" lon="-0.6787100">
        <ele>344.0</ele>
        <time>2018-10-14T07:09:56Z</time>
      </trkpt>
      <trkpt lat="38.4361980" lon="-0.6787100">
        <ele>344.0</ele>
        <time>2018-10-14T07:09:57Z</time>
      </trkpt>
      <trkpt lat="38.4362320" lon="-0.6786650">
        <ele>344.0</ele>
        <time>2018-10-14T07:09:58Z</time>
      </trkpt>
      <trkpt lat="38.4362450" lon="-0.6786380">
        <ele>344.0</ele>
        <time>2018-10-14T07:09:59Z</time>
      </trkpt>
      <trkpt lat="38.4362450" lon="-0.6786380">
        <ele>344.0</ele>
        <time>2018-10-14T07:10:00Z</time>
      </trkpt>
      <trkpt lat="38.4362670" lon="-0.6785880">
        <ele>344.0</ele>
        <time>2018-10-14T07:10:01Z</time>
      </trkpt>
      <trkpt lat="38.4362830" lon="-0.6785650">
        <ele>344.0</ele>
        <time>2018-10-14T07:10:02Z</time>
      </trkpt>
      <trkpt lat="38.4362830" lon="-0.6785650">
        <ele>344.0</ele>
        <time>2018-10-14T07:10:03Z</time>
      </trkpt>
      <trkpt lat="38.4363320" lon="-0.6785070">
        <ele>343.0</ele>
        <time>2018-10-14T07:10:04Z</time>
      </trkpt>
      <trkpt lat="38.4363620" lon="-0.6784700">
        <ele>343.0</ele>
        <time>2018-10-14T07:10:05Z</time>
      </trkpt>
      <trkpt lat="38.4363620" lon="-0.6784700">
        <ele>343.0</ele>
        <time>2018-10-14T07:10:06Z</time>
      </trkpt>
      <trkpt lat="38.4364250" lon="-0.6783850">
        <ele>343.0</ele>
        <time>2018-10-14T07:10:07Z</time>
      </trkpt>
      <trkpt lat="38.4364580" lon="-0.6783380">
        <ele>343.0</ele>
        <time>2018-10-14T07:10:08Z</time>
      </trkpt>
      <trkpt lat="38.4364580" lon="-0.6783380">
        <ele>343.0</ele>
        <time>2018-10-14T07:10:09Z</time>
      </trkpt>
      <trkpt lat="38.4365230" lon="-0.6782420">
        <ele>342.0</ele>
        <time>2018-10-14T07:10:10Z</time>
      </trkpt>
      <trkpt lat="38.4365230" lon="-0.6782420">
        <ele>342.0</ele>
        <time>2018-10-14T07:10:11Z</time>
      </trkpt>
      <trkpt lat="38.4365850" lon="-0.6781450">
        <ele>342.0</ele>
        <time>2018-10-14T07:10:12Z</time>
      </trkpt>
      <trkpt lat="38.4365850" lon="-0.6781450">
        <ele>342.0</ele>
        <time>2018-10-14T07:10:13Z</time>
      </trkpt>
      <trkpt lat="38.4366430" lon="-0.6780500">
        <ele>342.0</ele>
        <time>2018-10-14T07:10:14Z</time>
      </trkpt>
      <trkpt lat="38.4366430" lon="-0.6780500">
        <ele>342.0</ele>
        <time>2018-10-14T07:10:15Z</time>
      </trkpt>
      <trkpt lat="38.4366880" lon="-0.6779620">
        <ele>342.0</ele>
        <time>2018-10-14T07:10:16Z</time>
      </trkpt>
      <trkpt lat="38.4366880" lon="-0.6779620">
        <ele>342.0</ele>
        <time>2018-10-14T07:10:17Z</time>
      </trkpt>
      <trkpt lat="38.4367300" lon="-0.6778830">
        <ele>342.0</ele>
        <time>2018-10-14T07:10:18Z</time>
      </trkpt>
      <trkpt lat="38.4367300" lon="-0.6778830">
        <ele>342.0</ele>
        <time>2018-10-14T07:10:19Z</time>
      </trkpt>
      <trkpt lat="38.4367730" lon="-0.6778030">
        <ele>342.0</ele>
        <time>2018-10-14T07:10:20Z</time>
      </trkpt>
      <trkpt lat="38.4367730" lon="-0.6778030">
        <ele>342.0</ele>
        <time>2018-10-14T07:10:21Z</time>
      </trkpt>
      <trkpt lat="38.4368170" lon="-0.6777220">
        <ele>342.0</ele>
        <time>2018-10-14T07:10:22Z</time>
      </trkpt>
      <trkpt lat="38.4368400" lon="-0.6776830">
        <ele>342.0</ele>
        <time>2018-10-14T07:10:23Z</time>
      </trkpt>
      <trkpt lat="38.4368400" lon="-0.6776830">
        <ele>342.0</ele>
        <time>2018-10-14T07:10:24Z</time>
      </trkpt>
      <trkpt lat="38.4368830" lon="-0.6776100">
        <ele>342.0</ele>
        <time>2018-10-14T07:10:25Z</time>
      </trkpt>
      <trkpt lat="38.4369030" lon="-0.6775730">
        <ele>342.0</ele>
        <time>2018-10-14T07:10:26Z</time>
      </trkpt>
      <trkpt lat="38.4369030" lon="-0.6775730">
        <ele>342.0</ele>
        <time>2018-10-14T07:10:27Z</time>
      </trkpt>
      <trkpt lat="38.4369430" lon="-0.6775120">
        <ele>343.0</ele>
        <time>2018-10-14T07:10:28Z</time>
      </trkpt>
      <trkpt lat="38.4369650" lon="-0.6774800">
        <ele>343.0</ele>
        <time>2018-10-14T07:10:29Z</time>
      </trkpt>
      <trkpt lat="38.4369650" lon="-0.6774800">
        <ele>344.0</ele>
        <time>2018-10-14T07:10:30Z</time>
      </trkpt>
      <trkpt lat="38.4370130" lon="-0.6774170">
        <ele>344.0</ele>
        <time>2018-10-14T07:10:31Z</time>
      </trkpt>
      <trkpt lat="38.4370370" lon="-0.6773830">
        <ele>344.0</ele>
        <time>2018-10-14T07:10:32Z</time>
      </trkpt>
      <trkpt lat="38.4370370" lon="-0.6773830">
        <ele>344.0</ele>
        <time>2018-10-14T07:10:33Z</time>
      </trkpt>
      <trkpt lat="38.4370830" lon="-0.6773130">
        <ele>344.0</ele>
        <time>2018-10-14T07:10:34Z</time>
      </trkpt>
      <trkpt lat="38.4371050" lon="-0.6772780">
        <ele>344.0</ele>
        <time>2018-10-14T07:10:35Z</time>
      </trkpt>
      <trkpt lat="38.4371050" lon="-0.6772780">
        <ele>344.0</ele>
        <time>2018-10-14T07:10:36Z</time>
      </trkpt>
      <trkpt lat="38.4371480" lon="-0.6772120">
        <ele>345.0</ele>
        <time>2018-10-14T07:10:37Z</time>
      </trkpt>
      <trkpt lat="38.4371700" lon="-0.6771800">
        <ele>345.0</ele>
        <time>2018-10-14T07:10:38Z</time>
      </trkpt>
      <trkpt lat="38.4371700" lon="-0.6771800">
        <ele>346.0</ele>
        <time>2018-10-14T07:10:39Z</time>
      </trkpt>
      <trkpt lat="38.4372130" lon="-0.6771170">
        <ele>346.0</ele>
        <time>2018-10-14T07:10:40Z</time>
      </trkpt>
      <trkpt lat="38.4372430" lon="-0.6771000">
        <ele>347.0</ele>
        <time>2018-10-14T07:10:41Z</time>
      </trkpt>
      <trkpt lat="38.4372430" lon="-0.6771000">
        <ele>347.0</ele>
        <time>2018-10-14T07:10:42Z</time>
      </trkpt>
      <trkpt lat="38.4373050" lon="-0.6771230">
        <ele>347.0</ele>
        <time>2018-10-14T07:10:43Z</time>
      </trkpt>
      <trkpt lat="38.4373050" lon="-0.6771230">
        <ele>347.0</ele>
        <time>2018-10-14T07:10:44Z</time>
      </trkpt>
      <trkpt lat="38.4373470" lon="-0.6771920">
        <ele>348.0</ele>
        <time>2018-10-14T07:10:45Z</time>
      </trkpt>
      <trkpt lat="38.4373470" lon="-0.6771920">
        <ele>348.0</ele>
        <time>2018-10-14T07:10:46Z</time>
      </trkpt>
      <trkpt lat="38.4373830" lon="-0.6772720">
        <ele>348.0</ele>
        <time>2018-10-14T07:10:47Z</time>
      </trkpt>
      <trkpt lat="38.4374000" lon="-0.6773130">
        <ele>348.0</ele>
        <time>2018-10-14T07:10:48Z</time>
      </trkpt>
      <trkpt lat="38.4374000" lon="-0.6773130">
        <ele>348.0</ele>
        <time>2018-10-14T07:10:49Z</time>
      </trkpt>
      <trkpt lat="38.4374350" lon="-0.6773920">
        <ele>349.0</ele>
        <time>2018-10-14T07:10:50Z</time>
      </trkpt>
      <trkpt lat="38.4374350" lon="-0.6773920">
        <ele>349.0</ele>
        <time>2018-10-14T07:10:51Z</time>
      </trkpt>
      <trkpt lat="38.4374680" lon="-0.6774670">
        <ele>349.0</ele>
        <time>2018-10-14T07:10:52Z</time>
      </trkpt>
      <trkpt lat="38.4374850" lon="-0.6775030">
        <ele>349.0</ele>
        <time>2018-10-14T07:10:53Z</time>
      </trkpt>
      <trkpt lat="38.4374850" lon="-0.6775030">
        <ele>349.0</ele>
        <time>2018-10-14T07:10:54Z</time>
      </trkpt>
      <trkpt lat="38.4375150" lon="-0.6775720">
        <ele>349.0</ele>
        <time>2018-10-14T07:10:55Z</time>
      </trkpt>
      <trkpt lat="38.4375270" lon="-0.6776080">
        <ele>349.0</ele>
        <time>2018-10-14T07:10:56Z</time>
      </trkpt>
      <trkpt lat="38.4375270" lon="-0.6776080">
        <ele>349.0</ele>
        <time>2018-10-14T07:10:57Z</time>
      </trkpt>
      <trkpt lat="38.4375550" lon="-0.6776820">
        <ele>349.0</ele>
        <time>2018-10-14T07:10:58Z</time>
      </trkpt>
      <trkpt lat="38.4375550" lon="-0.6776820">
        <ele>349.0</ele>
        <time>2018-10-14T07:10:59Z</time>
      </trkpt>
      <trkpt lat="38.4375930" lon="-0.6777550">
        <ele>349.0</ele>
        <time>2018-10-14T07:11:00Z</time>
      </trkpt>
      <trkpt lat="38.4375930" lon="-0.6777550">
        <ele>349.0</ele>
        <time>2018-10-14T07:11:01Z</time>
      </trkpt>
      <trkpt lat="38.4376350" lon="-0.6778270">
        <ele>349.0</ele>
        <time>2018-10-14T07:11:02Z</time>
      </trkpt>
      <trkpt lat="38.4376350" lon="-0.6778270">
        <ele>349.0</ele>
        <time>2018-10-14T07:11:03Z</time>
      </trkpt>
      <trkpt lat="38.4376720" lon="-0.6779020">
        <ele>349.0</ele>
        <time>2018-10-14T07:11:04Z</time>
      </trkpt>
      <trkpt lat="38.4376720" lon="-0.6779020">
        <ele>349.0</ele>
        <time>2018-10-14T07:11:05Z</time>
      </trkpt>
      <trkpt lat="38.4377100" lon="-0.6779750">
        <ele>349.0</ele>
        <time>2018-10-14T07:11:06Z</time>
      </trkpt>
      <trkpt lat="38.4377100" lon="-0.6779750">
        <ele>350.0</ele>
        <time>2018-10-14T07:11:07Z</time>
      </trkpt>
      <trkpt lat="38.4377500" lon="-0.6780480">
        <ele>350.0</ele>
        <time>2018-10-14T07:11:08Z</time>
      </trkpt>
      <trkpt lat="38.4377500" lon="-0.6780480">
        <ele>350.0</ele>
        <time>2018-10-14T07:11:09Z</time>
      </trkpt>
      <trkpt lat="38.4377930" lon="-0.6781250">
        <ele>350.0</ele>
        <time>2018-10-14T07:11:10Z</time>
      </trkpt>
      <trkpt lat="38.4378170" lon="-0.6781620">
        <ele>350.0</ele>
        <time>2018-10-14T07:11:11Z</time>
      </trkpt>
      <trkpt lat="38.4378380" lon="-0.6782000">
        <ele>350.0</ele>
        <time>2018-10-14T07:11:12Z</time>
      </trkpt>
      <trkpt lat="38.4378380" lon="-0.6782000">
        <ele>350.0</ele>
        <time>2018-10-14T07:11:13Z</time>
      </trkpt>
      <trkpt lat="38.4378850" lon="-0.6782720">
        <ele>350.0</ele>
        <time>2018-10-14T07:11:14Z</time>
      </trkpt>
      <trkpt lat="38.4378850" lon="-0.6782720">
        <ele>350.0</ele>
        <time>2018-10-14T07:11:15Z</time>
      </trkpt>
      <trkpt lat="38.4379330" lon="-0.6783420">
        <ele>350.0</ele>
        <time>2018-10-14T07:11:16Z</time>
      </trkpt>
      <trkpt lat="38.4379330" lon="-0.6783420">
        <ele>350.0</ele>
        <time>2018-10-14T07:11:17Z</time>
      </trkpt>
      <trkpt lat="38.4379830" lon="-0.6784100">
        <ele>350.0</ele>
        <time>2018-10-14T07:11:18Z</time>
      </trkpt>
      <trkpt lat="38.4379830" lon="-0.6784100">
        <ele>350.0</ele>
        <time>2018-10-14T07:11:19Z</time>
      </trkpt>
      <trkpt lat="38.4380330" lon="-0.6784770">
        <ele>350.0</ele>
        <time>2018-10-14T07:11:20Z</time>
      </trkpt>
      <trkpt lat="38.4380330" lon="-0.6784770">
        <ele>350.0</ele>
        <time>2018-10-14T07:11:21Z</time>
      </trkpt>
      <trkpt lat="38.4380850" lon="-0.6785420">
        <ele>350.0</ele>
        <time>2018-10-14T07:11:22Z</time>
      </trkpt>
      <trkpt lat="38.4380850" lon="-0.6785420">
        <ele>350.0</ele>
        <time>2018-10-14T07:11:23Z</time>
      </trkpt>
      <trkpt lat="38.4381370" lon="-0.6786070">
        <ele>350.0</ele>
        <time>2018-10-14T07:11:24Z</time>
      </trkpt>
      <trkpt lat="38.4381370" lon="-0.6786070">
        <ele>351.0</ele>
        <time>2018-10-14T07:11:25Z</time>
      </trkpt>
      <trkpt lat="38.4381900" lon="-0.6786770">
        <ele>351.0</ele>
        <time>2018-10-14T07:11:26Z</time>
      </trkpt>
      <trkpt lat="38.4382150" lon="-0.6787120">
        <ele>351.0</ele>
        <time>2018-10-14T07:11:27Z</time>
      </trkpt>
      <trkpt lat="38.4382150" lon="-0.6787120">
        <ele>351.0</ele>
        <time>2018-10-14T07:11:28Z</time>
      </trkpt>
      <trkpt lat="38.4382680" lon="-0.6787770">
        <ele>351.0</ele>
        <time>2018-10-14T07:11:29Z</time>
      </trkpt>
      <trkpt lat="38.4382920" lon="-0.6788080">
        <ele>351.0</ele>
        <time>2018-10-14T07:11:30Z</time>
      </trkpt>
      <trkpt lat="38.4382920" lon="-0.6788080">
        <ele>351.0</ele>
        <time>2018-10-14T07:11:31Z</time>
      </trkpt>
      <trkpt lat="38.4383430" lon="-0.6788720">
        <ele>351.0</ele>
        <time>2018-10-14T07:11:32Z</time>
      </trkpt>
      <trkpt lat="38.4383430" lon="-0.6788720">
        <ele>351.0</ele>
        <time>2018-10-14T07:11:33Z</time>
      </trkpt>
      <trkpt lat="38.4383970" lon="-0.6789320">
        <ele>351.0</ele>
        <time>2018-10-14T07:11:34Z</time>
      </trkpt>
      <trkpt lat="38.4383970" lon="-0.6789320">
        <ele>351.0</ele>
        <time>2018-10-14T07:11:35Z</time>
      </trkpt>
      <trkpt lat="38.4384500" lon="-0.6789920">
        <ele>351.0</ele>
        <time>2018-10-14T07:11:36Z</time>
      </trkpt>
      <trkpt lat="38.4384500" lon="-0.6789920">
        <ele>351.0</ele>
        <time>2018-10-14T07:11:37Z</time>
      </trkpt>
      <trkpt lat="38.4385000" lon="-0.6790470">
        <ele>351.0</ele>
        <time>2018-10-14T07:11:38Z</time>
      </trkpt>
      <trkpt lat="38.4385200" lon="-0.6790750">
        <ele>351.0</ele>
        <time>2018-10-14T07:11:39Z</time>
      </trkpt>
      <trkpt lat="38.4385200" lon="-0.6790750">
        <ele>351.0</ele>
        <time>2018-10-14T07:11:40Z</time>
      </trkpt>
      <trkpt lat="38.4385430" lon="-0.6791370">
        <ele>351.0</ele>
        <time>2018-10-14T07:11:41Z</time>
      </trkpt>
      <trkpt lat="38.4385530" lon="-0.6791700">
        <ele>351.0</ele>
        <time>2018-10-14T07:11:42Z</time>
      </trkpt>
      <trkpt lat="38.4385530" lon="-0.6791700">
        <ele>351.0</ele>
        <time>2018-10-14T07:11:43Z</time>
      </trkpt>
      <trkpt lat="38.4385750" lon="-0.6792370">
        <ele>352.0</ele>
        <time>2018-10-14T07:11:44Z</time>
      </trkpt>
      <trkpt lat="38.4385750" lon="-0.6792370">
        <ele>352.0</ele>
        <time>2018-10-14T07:11:45Z</time>
      </trkpt>
      <trkpt lat="38.4385870" lon="-0.6793080">
        <ele>352.0</ele>
        <time>2018-10-14T07:11:46Z</time>
      </trkpt>
      <trkpt lat="38.4385870" lon="-0.6793470">
        <ele>352.0</ele>
        <time>2018-10-14T07:11:47Z</time>
      </trkpt>
      <trkpt lat="38.4385870" lon="-0.6793850">
        <ele>352.0</ele>
        <time>2018-10-14T07:11:48Z</time>
      </trkpt>
      <trkpt lat="38.4385870" lon="-0.6793850">
        <ele>352.0</ele>
        <time>2018-10-14T07:11:49Z</time>
      </trkpt>
      <trkpt lat="38.4385800" lon="-0.6794630">
        <ele>352.0</ele>
        <time>2018-10-14T07:11:50Z</time>
      </trkpt>
      <trkpt lat="38.4385800" lon="-0.6794630">
        <ele>352.0</ele>
        <time>2018-10-14T07:11:51Z</time>
      </trkpt>
      <trkpt lat="38.4385750" lon="-0.6795450">
        <ele>352.0</ele>
        <time>2018-10-14T07:11:52Z</time>
      </trkpt>
      <trkpt lat="38.4385750" lon="-0.6795450">
        <ele>352.0</ele>
        <time>2018-10-14T07:11:53Z</time>
      </trkpt>
      <trkpt lat="38.4385720" lon="-0.6796300">
        <ele>352.0</ele>
        <time>2018-10-14T07:11:54Z</time>
      </trkpt>
      <trkpt lat="38.4385720" lon="-0.6796300">
        <ele>352.0</ele>
        <time>2018-10-14T07:11:55Z</time>
      </trkpt>
      <trkpt lat="38.4385780" lon="-0.6797270">
        <ele>352.0</ele>
        <time>2018-10-14T07:11:56Z</time>
      </trkpt>
      <trkpt lat="38.4385780" lon="-0.6797270">
        <ele>352.0</ele>
        <time>2018-10-14T07:11:57Z</time>
      </trkpt>
      <trkpt lat="38.4385730" lon="-0.6798200">
        <ele>352.0</ele>
        <time>2018-10-14T07:11:58Z</time>
      </trkpt>
      <trkpt lat="38.4385700" lon="-0.6798680">
        <ele>352.0</ele>
        <time>2018-10-14T07:11:59Z</time>
      </trkpt>
      <trkpt lat="38.4385700" lon="-0.6798680">
        <ele>352.0</ele>
        <time>2018-10-14T07:12:00Z</time>
      </trkpt>
      <trkpt lat="38.4385650" lon="-0.6799600">
        <ele>352.0</ele>
        <time>2018-10-14T07:12:01Z</time>
      </trkpt>
      <trkpt lat="38.4385680" lon="-0.6800050">
        <ele>352.0</ele>
        <time>2018-10-14T07:12:02Z</time>
      </trkpt>
      <trkpt lat="38.4385680" lon="-0.6800050">
        <ele>353.0</ele>
        <time>2018-10-14T07:12:03Z</time>
      </trkpt>
      <trkpt lat="38.4385800" lon="-0.6800880">
        <ele>353.0</ele>
        <time>2018-10-14T07:12:04Z</time>
      </trkpt>
      <trkpt lat="38.4385800" lon="-0.6800880">
        <ele>353.0</ele>
        <time>2018-10-14T07:12:05Z</time>
      </trkpt>
      <trkpt lat="38.4385720" lon="-0.6801680">
        <ele>353.0</ele>
        <time>2018-10-14T07:12:06Z</time>
      </trkpt>
      <trkpt lat="38.4385720" lon="-0.6801680">
        <ele>353.0</ele>
        <time>2018-10-14T07:12:07Z</time>
      </trkpt>
      <trkpt lat="38.4385600" lon="-0.6802430">
        <ele>353.0</ele>
        <time>2018-10-14T07:12:08Z</time>
      </trkpt>
      <trkpt lat="38.4385530" lon="-0.6802780">
        <ele>353.0</ele>
        <time>2018-10-14T07:12:09Z</time>
      </trkpt>
      <trkpt lat="38.4385530" lon="-0.6802780">
        <ele>353.0</ele>
        <time>2018-10-14T07:12:10Z</time>
      </trkpt>
      <trkpt lat="38.4385500" lon="-0.6803430">
        <ele>353.0</ele>
        <time>2018-10-14T07:12:11Z</time>
      </trkpt>
      <trkpt lat="38.4385580" lon="-0.6803720">
        <ele>353.0</ele>
        <time>2018-10-14T07:12:12Z</time>
      </trkpt>
      <trkpt lat="38.4385580" lon="-0.6803720">
        <ele>355.0</ele>
        <time>2018-10-14T07:12:13Z</time>
      </trkpt>
      <trkpt lat="38.4385780" lon="-0.6804300">
        <ele>355.0</ele>
        <time>2018-10-14T07:12:14Z</time>
      </trkpt>
      <trkpt lat="38.4385780" lon="-0.6804300">
        <ele>355.0</ele>
        <time>2018-10-14T07:12:15Z</time>
      </trkpt>
      <trkpt lat="38.4386100" lon="-0.6804800">
        <ele>355.0</ele>
        <time>2018-10-14T07:12:16Z</time>
      </trkpt>
      <trkpt lat="38.4386100" lon="-0.6804800">
        <ele>355.0</ele>
        <time>2018-10-14T07:12:17Z</time>
      </trkpt>
      <trkpt lat="38.4386520" lon="-0.6805120">
        <ele>355.0</ele>
        <time>2018-10-14T07:12:18Z</time>
      </trkpt>
      <trkpt lat="38.4386520" lon="-0.6805120">
        <ele>356.0</ele>
        <time>2018-10-14T07:12:19Z</time>
      </trkpt>
      <trkpt lat="38.4386970" lon="-0.6805380">
        <ele>356.0</ele>
        <time>2018-10-14T07:12:20Z</time>
      </trkpt>
      <trkpt lat="38.4386970" lon="-0.6805380">
        <ele>356.0</ele>
        <time>2018-10-14T07:12:21Z</time>
      </trkpt>
      <trkpt lat="38.4387380" lon="-0.6805530">
        <ele>356.0</ele>
        <time>2018-10-14T07:12:22Z</time>
      </trkpt>
      <trkpt lat="38.4387580" lon="-0.6805530">
        <ele>356.0</ele>
        <time>2018-10-14T07:12:23Z</time>
      </trkpt>
      <trkpt lat="38.4387750" lon="-0.6805520">
        <ele>356.0</ele>
        <time>2018-10-14T07:12:24Z</time>
      </trkpt>
      <trkpt lat="38.4387750" lon="-0.6805520">
        <ele>357.0</ele>
        <time>2018-10-14T07:12:25Z</time>
      </trkpt>
      <trkpt lat="38.4388130" lon="-0.6805500">
        <ele>357.0</ele>
        <time>2018-10-14T07:12:26Z</time>
      </trkpt>
      <trkpt lat="38.4388130" lon="-0.6805500">
        <ele>357.0</ele>
        <time>2018-10-14T07:12:27Z</time>
      </trkpt>
      <trkpt lat="38.4388520" lon="-0.6805530">
        <ele>357.0</ele>
        <time>2018-10-14T07:12:28Z</time>
      </trkpt>
      <trkpt lat="38.4388520" lon="-0.6805530">
        <ele>358.0</ele>
        <time>2018-10-14T07:12:29Z</time>
      </trkpt>
      <trkpt lat="38.4388920" lon="-0.6805950">
        <ele>358.0</ele>
        <time>2018-10-14T07:12:30Z</time>
      </trkpt>
      <trkpt lat="38.4388920" lon="-0.6805950">
        <ele>358.0</ele>
        <time>2018-10-14T07:12:31Z</time>
      </trkpt>
      <trkpt lat="38.4389270" lon="-0.6806430">
        <ele>358.0</ele>
        <time>2018-10-14T07:12:32Z</time>
      </trkpt>
      <trkpt lat="38.4389270" lon="-0.6806430">
        <ele>358.0</ele>
        <time>2018-10-14T07:12:33Z</time>
      </trkpt>
      <trkpt lat="38.4389570" lon="-0.6806780">
        <ele>358.0</ele>
        <time>2018-10-14T07:12:34Z</time>
      </trkpt>
      <trkpt lat="38.4389570" lon="-0.6806780">
        <ele>358.0</ele>
        <time>2018-10-14T07:12:35Z</time>
      </trkpt>
      <trkpt lat="38.4389920" lon="-0.6807030">
        <ele>358.0</ele>
        <time>2018-10-14T07:12:36Z</time>
      </trkpt>
      <trkpt lat="38.4389920" lon="-0.6807030">
        <ele>359.0</ele>
        <time>2018-10-14T07:12:37Z</time>
      </trkpt>
      <trkpt lat="38.4390280" lon="-0.6807230">
        <ele>359.0</ele>
        <time>2018-10-14T07:12:38Z</time>
      </trkpt>
      <trkpt lat="38.4390280" lon="-0.6807230">
        <ele>359.0</ele>
        <time>2018-10-14T07:12:39Z</time>
      </trkpt>
      <trkpt lat="38.4390620" lon="-0.6807470">
        <ele>359.0</ele>
        <time>2018-10-14T07:12:40Z</time>
      </trkpt>
      <trkpt lat="38.4390620" lon="-0.6807470">
        <ele>359.0</ele>
        <time>2018-10-14T07:12:41Z</time>
      </trkpt>
      <trkpt lat="38.4391000" lon="-0.6807630">
        <ele>359.0</ele>
        <time>2018-10-14T07:12:42Z</time>
      </trkpt>
      <trkpt lat="38.4391180" lon="-0.6807770">
        <ele>361.0</ele>
        <time>2018-10-14T07:12:43Z</time>
      </trkpt>
      <trkpt lat="38.4391180" lon="-0.6807770">
        <ele>361.0</ele>
        <time>2018-10-14T07:12:44Z</time>
      </trkpt>
      <trkpt lat="38.4391550" lon="-0.6808080">
        <ele>361.0</ele>
        <time>2018-10-14T07:12:45Z</time>
      </trkpt>
      <trkpt lat="38.4391550" lon="-0.6808080">
        <ele>361.0</ele>
        <time>2018-10-14T07:12:46Z</time>
      </trkpt>
      <trkpt lat="38.4391930" lon="-0.6808430">
        <ele>361.0</ele>
        <time>2018-10-14T07:12:47Z</time>
      </trkpt>
      <trkpt lat="38.4392150" lon="-0.6808570">
        <ele>361.0</ele>
        <time>2018-10-14T07:12:48Z</time>
      </trkpt>
      <trkpt lat="38.4392150" lon="-0.6808570">
        <ele>361.0</ele>
        <time>2018-10-14T07:12:49Z</time>
      </trkpt>
      <trkpt lat="38.4392570" lon="-0.6808830">
        <ele>361.0</ele>
        <time>2018-10-14T07:12:50Z</time>
      </trkpt>
      <trkpt lat="38.4392570" lon="-0.6808830">
        <ele>361.0</ele>
        <time>2018-10-14T07:12:51Z</time>
      </trkpt>
      <trkpt lat="38.4393000" lon="-0.6809070">
        <ele>361.0</ele>
        <time>2018-10-14T07:12:52Z</time>
      </trkpt>
      <trkpt lat="38.4393220" lon="-0.6809170">
        <ele>361.0</ele>
        <time>2018-10-14T07:12:53Z</time>
      </trkpt>
      <trkpt lat="38.4393450" lon="-0.6809300">
        <ele>362.0</ele>
        <time>2018-10-14T07:12:54Z</time>
      </trkpt>
      <trkpt lat="38.4393450" lon="-0.6809300">
        <ele>362.0</ele>
        <time>2018-10-14T07:12:55Z</time>
      </trkpt>
      <trkpt lat="38.4393900" lon="-0.6809600">
        <ele>362.0</ele>
        <time>2018-10-14T07:12:56Z</time>
      </trkpt>
      <trkpt lat="38.4393900" lon="-0.6809600">
        <ele>362.0</ele>
        <time>2018-10-14T07:12:57Z</time>
      </trkpt>
      <trkpt lat="38.4394350" lon="-0.6809870">
        <ele>364.0</ele>
        <time>2018-10-14T07:12:58Z</time>
      </trkpt>
      <trkpt lat="38.4394350" lon="-0.6809870">
        <ele>364.0</ele>
        <time>2018-10-14T07:12:59Z</time>
      </trkpt>
      <trkpt lat="38.4394750" lon="-0.6810170">
        <ele>364.0</ele>
        <time>2018-10-14T07:13:00Z</time>
      </trkpt>
      <trkpt lat="38.4394750" lon="-0.6810170">
        <ele>364.0</ele>
        <time>2018-10-14T07:13:01Z</time>
      </trkpt>
      <trkpt lat="38.4395150" lon="-0.6810350">
        <ele>364.0</ele>
        <time>2018-10-14T07:13:02Z</time>
      </trkpt>
      <trkpt lat="38.4395150" lon="-0.6810350">
        <ele>364.0</ele>
        <time>2018-10-14T07:13:03Z</time>
      </trkpt>
      <trkpt lat="38.4395530" lon="-0.6810600">
        <ele>364.0</ele>
        <time>2018-10-14T07:13:04Z</time>
      </trkpt>
      <trkpt lat="38.4395530" lon="-0.6810600">
        <ele>364.0</ele>
        <time>2018-10-14T07:13:05Z</time>
      </trkpt>
      <trkpt lat="38.4395900" lon="-0.6810850">
        <ele>364.0</ele>
        <time>2018-10-14T07:13:06Z</time>
      </trkpt>
      <trkpt lat="38.4396100" lon="-0.6810950">
        <ele>365.0</ele>
        <time>2018-10-14T07:13:07Z</time>
      </trkpt>
      <trkpt lat="38.4396300" lon="-0.6811070">
        <ele>365.0</ele>
        <time>2018-10-14T07:13:08Z</time>
      </trkpt>
      <trkpt lat="38.4396300" lon="-0.6811070">
        <ele>365.0</ele>
        <time>2018-10-14T07:13:09Z</time>
      </trkpt>
      <trkpt lat="38.4396650" lon="-0.6811330">
        <ele>365.0</ele>
        <time>2018-10-14T07:13:10Z</time>
      </trkpt>
      <trkpt lat="38.4396650" lon="-0.6811330">
        <ele>365.0</ele>
        <time>2018-10-14T07:13:11Z</time>
      </trkpt>
      <trkpt lat="38.4396970" lon="-0.6811630">
        <ele>365.0</ele>
        <time>2018-10-14T07:13:12Z</time>
      </trkpt>
      <trkpt lat="38.4396970" lon="-0.6811630">
        <ele>366.0</ele>
        <time>2018-10-14T07:13:13Z</time>
      </trkpt>
      <trkpt lat="38.4397280" lon="-0.6812000">
        <ele>366.0</ele>
        <time>2018-10-14T07:13:14Z</time>
      </trkpt>
      <trkpt lat="38.4397280" lon="-0.6812000">
        <ele>366.0</ele>
        <time>2018-10-14T07:13:15Z</time>
      </trkpt>
      <trkpt lat="38.4397650" lon="-0.6812320">
        <ele>366.0</ele>
        <time>2018-10-14T07:13:16Z</time>
      </trkpt>
      <trkpt lat="38.4397820" lon="-0.6812480">
        <ele>366.0</ele>
        <time>2018-10-14T07:13:17Z</time>
      </trkpt>
      <trkpt lat="38.4397820" lon="-0.6812480">
        <ele>366.0</ele>
        <time>2018-10-14T07:13:18Z</time>
      </trkpt>
      <trkpt lat="38.4398130" lon="-0.6812820">
        <ele>366.0</ele>
        <time>2018-10-14T07:13:19Z</time>
      </trkpt>
      <trkpt lat="38.4398280" lon="-0.6813000">
        <ele>366.0</ele>
        <time>2018-10-14T07:13:20Z</time>
      </trkpt>
      <trkpt lat="38.4398280" lon="-0.6813000">
        <ele>367.0</ele>
        <time>2018-10-14T07:13:21Z</time>
      </trkpt>
      <trkpt lat="38.4398570" lon="-0.6813420">
        <ele>367.0</ele>
        <time>2018-10-14T07:13:22Z</time>
      </trkpt>
      <trkpt lat="38.4398570" lon="-0.6813420">
        <ele>367.0</ele>
        <time>2018-10-14T07:13:23Z</time>
      </trkpt>
      <trkpt lat="38.4398850" lon="-0.6813820">
        <ele>367.0</ele>
        <time>2018-10-14T07:13:24Z</time>
      </trkpt>
      <trkpt lat="38.4398850" lon="-0.6813820">
        <ele>367.0</ele>
        <time>2018-10-14T07:13:25Z</time>
      </trkpt>
      <trkpt lat="38.4399130" lon="-0.6814200">
        <ele>367.0</ele>
        <time>2018-10-14T07:13:26Z</time>
      </trkpt>
      <trkpt lat="38.4399130" lon="-0.6814200">
        <ele>367.0</ele>
        <time>2018-10-14T07:13:27Z</time>
      </trkpt>
      <trkpt lat="38.4399420" lon="-0.6814570">
        <ele>367.0</ele>
        <time>2018-10-14T07:13:28Z</time>
      </trkpt>
      <trkpt lat="38.4399550" lon="-0.6814730">
        <ele>368.0</ele>
        <time>2018-10-14T07:13:29Z</time>
      </trkpt>
      <trkpt lat="38.4399550" lon="-0.6814730">
        <ele>368.0</ele>
        <time>2018-10-14T07:13:30Z</time>
      </trkpt>
      <trkpt lat="38.4399830" lon="-0.6815080">
        <ele>368.0</ele>
        <time>2018-10-14T07:13:31Z</time>
      </trkpt>
      <trkpt lat="38.4399970" lon="-0.6815280">
        <ele>368.0</ele>
        <time>2018-10-14T07:13:32Z</time>
      </trkpt>
      <trkpt lat="38.4399970" lon="-0.6815280">
        <ele>369.0</ele>
        <time>2018-10-14T07:13:33Z</time>
      </trkpt>
      <trkpt lat="38.4400230" lon="-0.6815620">
        <ele>369.0</ele>
        <time>2018-10-14T07:13:34Z</time>
      </trkpt>
      <trkpt lat="38.4400370" lon="-0.6815770">
        <ele>369.0</ele>
        <time>2018-10-14T07:13:35Z</time>
      </trkpt>
      <trkpt lat="38.4400370" lon="-0.6815770">
        <ele>369.0</ele>
        <time>2018-10-14T07:13:36Z</time>
      </trkpt>
      <trkpt lat="38.4400650" lon="-0.6816120">
        <ele>370.0</ele>
        <time>2018-10-14T07:13:37Z</time>
      </trkpt>
      <trkpt lat="38.4400780" lon="-0.6816320">
        <ele>370.0</ele>
        <time>2018-10-14T07:13:38Z</time>
      </trkpt>
      <trkpt lat="38.4400920" lon="-0.6816500">
        <ele>370.0</ele>
        <time>2018-10-14T07:13:39Z</time>
      </trkpt>
      <trkpt lat="38.4400920" lon="-0.6816500">
        <ele>370.0</ele>
        <time>2018-10-14T07:13:40Z</time>
      </trkpt>
      <trkpt lat="38.4401200" lon="-0.6816830">
        <ele>370.0</ele>
        <time>2018-10-14T07:13:41Z</time>
      </trkpt>
      <trkpt lat="38.4401200" lon="-0.6816830">
        <ele>370.0</ele>
        <time>2018-10-14T07:13:42Z</time>
      </trkpt>
      <trkpt lat="38.4401480" lon="-0.6817150">
        <ele>371.0</ele>
        <time>2018-10-14T07:13:43Z</time>
      </trkpt>
      <trkpt lat="38.4401480" lon="-0.6817150">
        <ele>371.0</ele>
        <time>2018-10-14T07:13:44Z</time>
      </trkpt>
      <trkpt lat="38.4401780" lon="-0.6817470">
        <ele>371.0</ele>
        <time>2018-10-14T07:13:45Z</time>
      </trkpt>
      <trkpt lat="38.4401780" lon="-0.6817470">
        <ele>371.0</ele>
        <time>2018-10-14T07:13:46Z</time>
      </trkpt>
      <trkpt lat="38.4402080" lon="-0.6817800">
        <ele>371.0</ele>
        <time>2018-10-14T07:13:47Z</time>
      </trkpt>
      <trkpt lat="38.4402230" lon="-0.6817970">
        <ele>371.0</ele>
        <time>2018-10-14T07:13:48Z</time>
      </trkpt>
      <trkpt lat="38.4402230" lon="-0.6817970">
        <ele>371.0</ele>
        <time>2018-10-14T07:13:49Z</time>
      </trkpt>
      <trkpt lat="38.4402530" lon="-0.6818280">
        <ele>371.0</ele>
        <time>2018-10-14T07:13:50Z</time>
      </trkpt>
      <trkpt lat="38.4402530" lon="-0.6818280">
        <ele>372.0</ele>
        <time>2018-10-14T07:13:51Z</time>
      </trkpt>
      <trkpt lat="38.4402850" lon="-0.6818580">
        <ele>372.0</ele>
        <time>2018-10-14T07:13:52Z</time>
      </trkpt>
      <trkpt lat="38.4403020" lon="-0.6818720">
        <ele>372.0</ele>
        <time>2018-10-14T07:13:53Z</time>
      </trkpt>
      <trkpt lat="38.4403170" lon="-0.6818870">
        <ele>372.0</ele>
        <time>2018-10-14T07:13:54Z</time>
      </trkpt>
      <trkpt lat="38.4403170" lon="-0.6818870">
        <ele>372.0</ele>
        <time>2018-10-14T07:13:55Z</time>
      </trkpt>
      <trkpt lat="38.4403480" lon="-0.6819170">
        <ele>372.0</ele>
        <time>2018-10-14T07:13:56Z</time>
      </trkpt>
      <trkpt lat="38.4403480" lon="-0.6819170">
        <ele>372.0</ele>
        <time>2018-10-14T07:13:57Z</time>
      </trkpt>
      <trkpt lat="38.4403820" lon="-0.6819470">
        <ele>372.0</ele>
        <time>2018-10-14T07:13:58Z</time>
      </trkpt>
      <trkpt lat="38.4403820" lon="-0.6819470">
        <ele>372.0</ele>
        <time>2018-10-14T07:13:59Z</time>
      </trkpt>
      <trkpt lat="38.4404130" lon="-0.6819730">
        <ele>372.0</ele>
        <time>2018-10-14T07:14:00Z</time>
      </trkpt>
      <trkpt lat="38.4404130" lon="-0.6819730">
        <ele>372.0</ele>
        <time>2018-10-14T07:14:01Z</time>
      </trkpt>
      <trkpt lat="38.4404470" lon="-0.6819920">
        <ele>372.0</ele>
        <time>2018-10-14T07:14:02Z</time>
      </trkpt>
      <trkpt lat="38.4404470" lon="-0.6819920">
        <ele>372.0</ele>
        <time>2018-10-14T07:14:03Z</time>
      </trkpt>
      <trkpt lat="38.4404780" lon="-0.6820170">
        <ele>373.0</ele>
        <time>2018-10-14T07:14:04Z</time>
      </trkpt>
      <trkpt lat="38.4404780" lon="-0.6820170">
        <ele>373.0</ele>
        <time>2018-10-14T07:14:05Z</time>
      </trkpt>
      <trkpt lat="38.4405150" lon="-0.6820270">
        <ele>373.0</ele>
        <time>2018-10-14T07:14:06Z</time>
      </trkpt>
      <trkpt lat="38.4405150" lon="-0.6820270">
        <ele>373.0</ele>
        <time>2018-10-14T07:14:07Z</time>
      </trkpt>
      <trkpt lat="38.4405550" lon="-0.6820320">
        <ele>373.0</ele>
        <time>2018-10-14T07:14:08Z</time>
      </trkpt>
      <trkpt lat="38.4405550" lon="-0.6820320">
        <ele>373.0</ele>
        <time>2018-10-14T07:14:09Z</time>
      </trkpt>
      <trkpt lat="38.4406020" lon="-0.6820320">
        <ele>373.0</ele>
        <time>2018-10-14T07:14:10Z</time>
      </trkpt>
      <trkpt lat="38.4406020" lon="-0.6820320">
        <ele>373.0</ele>
        <time>2018-10-14T07:14:11Z</time>
      </trkpt>
      <trkpt lat="38.4406650" lon="-0.6820100">
        <ele>373.0</ele>
        <time>2018-10-14T07:14:12Z</time>
      </trkpt>
      <trkpt lat="38.4406650" lon="-0.6820100">
        <ele>373.0</ele>
        <time>2018-10-14T07:14:13Z</time>
      </trkpt>
      <trkpt lat="38.4407450" lon="-0.6819880">
        <ele>373.0</ele>
        <time>2018-10-14T07:14:14Z</time>
      </trkpt>
      <trkpt lat="38.4407450" lon="-0.6819880">
        <ele>373.0</ele>
        <time>2018-10-14T07:14:15Z</time>
      </trkpt>
      <trkpt lat="38.4408370" lon="-0.6819730">
        <ele>373.0</ele>
        <time>2018-10-14T07:14:16Z</time>
      </trkpt>
      <trkpt lat="38.4408370" lon="-0.6819730">
        <ele>373.0</ele>
        <time>2018-10-14T07:14:17Z</time>
      </trkpt>
      <trkpt lat="38.4409330" lon="-0.6819580">
        <ele>372.0</ele>
        <time>2018-10-14T07:14:18Z</time>
      </trkpt>
      <trkpt lat="38.4409330" lon="-0.6819580">
        <ele>372.0</ele>
        <time>2018-10-14T07:14:19Z</time>
      </trkpt>
      <trkpt lat="38.4410250" lon="-0.6819470">
        <ele>372.0</ele>
        <time>2018-10-14T07:14:20Z</time>
      </trkpt>
      <trkpt lat="38.4410250" lon="-0.6819470">
        <ele>372.0</ele>
        <time>2018-10-14T07:14:21Z</time>
      </trkpt>
      <trkpt lat="38.4411120" lon="-0.6819380">
        <ele>372.0</ele>
        <time>2018-10-14T07:14:22Z</time>
      </trkpt>
      <trkpt lat="38.4411120" lon="-0.6819380">
        <ele>372.0</ele>
        <time>2018-10-14T07:14:23Z</time>
      </trkpt>
      <trkpt lat="38.4411920" lon="-0.6819400">
        <ele>372.0</ele>
        <time>2018-10-14T07:14:24Z</time>
      </trkpt>
      <trkpt lat="38.4411920" lon="-0.6819400">
        <ele>372.0</ele>
        <time>2018-10-14T07:14:25Z</time>
      </trkpt>
      <trkpt lat="38.4412680" lon="-0.6819450">
        <ele>372.0</ele>
        <time>2018-10-14T07:14:26Z</time>
      </trkpt>
      <trkpt lat="38.4412680" lon="-0.6819450">
        <ele>372.0</ele>
        <time>2018-10-14T07:14:27Z</time>
      </trkpt>
      <trkpt lat="38.4413350" lon="-0.6819600">
        <ele>371.0</ele>
        <time>2018-10-14T07:14:28Z</time>
      </trkpt>
      <trkpt lat="38.4413350" lon="-0.6819600">
        <ele>371.0</ele>
        <time>2018-10-14T07:14:29Z</time>
      </trkpt>
      <trkpt lat="38.4413930" lon="-0.6819830">
        <ele>371.0</ele>
        <time>2018-10-14T07:14:30Z</time>
      </trkpt>
      <trkpt lat="38.4413930" lon="-0.6819830">
        <ele>371.0</ele>
        <time>2018-10-14T07:14:31Z</time>
      </trkpt>
      <trkpt lat="38.4414480" lon="-0.6820080">
        <ele>371.0</ele>
        <time>2018-10-14T07:14:32Z</time>
      </trkpt>
      <trkpt lat="38.4414480" lon="-0.6820080">
        <ele>371.0</ele>
        <time>2018-10-14T07:14:33Z</time>
      </trkpt>
      <trkpt lat="38.4414970" lon="-0.6820370">
        <ele>371.0</ele>
        <time>2018-10-14T07:14:34Z</time>
      </trkpt>
      <trkpt lat="38.4414970" lon="-0.6820370">
        <ele>371.0</ele>
        <time>2018-10-14T07:14:35Z</time>
      </trkpt>
      <trkpt lat="38.4415450" lon="-0.6820750">
        <ele>371.0</ele>
        <time>2018-10-14T07:14:36Z</time>
      </trkpt>
      <trkpt lat="38.4415450" lon="-0.6820750">
        <ele>371.0</ele>
        <time>2018-10-14T07:14:37Z</time>
      </trkpt>
      <trkpt lat="38.4415980" lon="-0.6821070">
        <ele>371.0</ele>
        <time>2018-10-14T07:14:38Z</time>
      </trkpt>
      <trkpt lat="38.4415980" lon="-0.6821070">
        <ele>371.0</ele>
        <time>2018-10-14T07:14:39Z</time>
      </trkpt>
      <trkpt lat="38.4416530" lon="-0.6821330">
        <ele>371.0</ele>
        <time>2018-10-14T07:14:40Z</time>
      </trkpt>
      <trkpt lat="38.4416530" lon="-0.6821330">
        <ele>371.0</ele>
        <time>2018-10-14T07:14:41Z</time>
      </trkpt>
      <trkpt lat="38.4417150" lon="-0.6821570">
        <ele>371.0</ele>
        <time>2018-10-14T07:14:42Z</time>
      </trkpt>
      <trkpt lat="38.4417150" lon="-0.6821570">
        <ele>371.0</ele>
        <time>2018-10-14T07:14:43Z</time>
      </trkpt>
      <trkpt lat="38.4417770" lon="-0.6821780">
        <ele>371.0</ele>
        <time>2018-10-14T07:14:44Z</time>
      </trkpt>
      <trkpt lat="38.4418050" lon="-0.6821900">
        <ele>371.0</ele>
        <time>2018-10-14T07:14:45Z</time>
      </trkpt>
      <trkpt lat="38.4418050" lon="-0.6821900">
        <ele>371.0</ele>
        <time>2018-10-14T07:14:46Z</time>
      </trkpt>
      <trkpt lat="38.4418580" lon="-0.6822180">
        <ele>371.0</ele>
        <time>2018-10-14T07:14:47Z</time>
      </trkpt>
      <trkpt lat="38.4418850" lon="-0.6822280">
        <ele>371.0</ele>
        <time>2018-10-14T07:14:48Z</time>
      </trkpt>
      <trkpt lat="38.4418850" lon="-0.6822280">
        <ele>371.0</ele>
        <time>2018-10-14T07:14:49Z</time>
      </trkpt>
      <trkpt lat="38.4419370" lon="-0.6822520">
        <ele>371.0</ele>
        <time>2018-10-14T07:14:50Z</time>
      </trkpt>
      <trkpt lat="38.4419370" lon="-0.6822520">
        <ele>371.0</ele>
        <time>2018-10-14T07:14:51Z</time>
      </trkpt>
      <trkpt lat="38.4419870" lon="-0.6822780">
        <ele>372.0</ele>
        <time>2018-10-14T07:14:52Z</time>
      </trkpt>
      <trkpt lat="38.4419870" lon="-0.6822780">
        <ele>372.0</ele>
        <time>2018-10-14T07:14:53Z</time>
      </trkpt>
      <trkpt lat="38.4420370" lon="-0.6823020">
        <ele>372.0</ele>
        <time>2018-10-14T07:14:54Z</time>
      </trkpt>
      <trkpt lat="38.4420370" lon="-0.6823020">
        <ele>372.0</ele>
        <time>2018-10-14T07:14:55Z</time>
      </trkpt>
      <trkpt lat="38.4420820" lon="-0.6823270">
        <ele>372.0</ele>
        <time>2018-10-14T07:14:56Z</time>
      </trkpt>
      <trkpt lat="38.4420820" lon="-0.6823270">
        <ele>372.0</ele>
        <time>2018-10-14T07:14:57Z</time>
      </trkpt>
      <trkpt lat="38.4421280" lon="-0.6823500">
        <ele>373.0</ele>
        <time>2018-10-14T07:14:58Z</time>
      </trkpt>
      <trkpt lat="38.4421280" lon="-0.6823500">
        <ele>373.0</ele>
        <time>2018-10-14T07:14:59Z</time>
      </trkpt>
      <trkpt lat="38.4421750" lon="-0.6823700">
        <ele>373.0</ele>
        <time>2018-10-14T07:15:00Z</time>
      </trkpt>
      <trkpt lat="38.4421750" lon="-0.6823700">
        <ele>373.0</ele>
        <time>2018-10-14T07:15:01Z</time>
      </trkpt>
      <trkpt lat="38.4422180" lon="-0.6823930">
        <ele>373.0</ele>
        <time>2018-10-14T07:15:02Z</time>
      </trkpt>
      <trkpt lat="38.4422180" lon="-0.6823930">
        <ele>373.0</ele>
        <time>2018-10-14T07:15:03Z</time>
      </trkpt>
      <trkpt lat="38.4422620" lon="-0.6824200">
        <ele>373.0</ele>
        <time>2018-10-14T07:15:04Z</time>
      </trkpt>
      <trkpt lat="38.4422620" lon="-0.6824200">
        <ele>373.0</ele>
        <time>2018-10-14T07:15:05Z</time>
      </trkpt>
      <trkpt lat="38.4423050" lon="-0.6824470">
        <ele>374.0</ele>
        <time>2018-10-14T07:15:06Z</time>
      </trkpt>
      <trkpt lat="38.4423050" lon="-0.6824470">
        <ele>374.0</ele>
        <time>2018-10-14T07:15:07Z</time>
      </trkpt>
      <trkpt lat="38.4423450" lon="-0.6824720">
        <ele>374.0</ele>
        <time>2018-10-14T07:15:08Z</time>
      </trkpt>
      <trkpt lat="38.4423450" lon="-0.6824720">
        <ele>374.0</ele>
        <time>2018-10-14T07:15:09Z</time>
      </trkpt>
      <trkpt lat="38.4423850" lon="-0.6824980">
        <ele>374.0</ele>
        <time>2018-10-14T07:15:10Z</time>
      </trkpt>
      <trkpt lat="38.4423850" lon="-0.6824980">
        <ele>374.0</ele>
        <time>2018-10-14T07:15:11Z</time>
      </trkpt>
      <trkpt lat="38.4424270" lon="-0.6825230">
        <ele>374.0</ele>
        <time>2018-10-14T07:15:12Z</time>
      </trkpt>
      <trkpt lat="38.4424270" lon="-0.6825230">
        <ele>374.0</ele>
        <time>2018-10-14T07:15:13Z</time>
      </trkpt>
      <trkpt lat="38.4424680" lon="-0.6825520">
        <ele>374.0</ele>
        <time>2018-10-14T07:15:14Z</time>
      </trkpt>
      <trkpt lat="38.4424680" lon="-0.6825520">
        <ele>374.0</ele>
        <time>2018-10-14T07:15:15Z</time>
      </trkpt>
      <trkpt lat="38.4425130" lon="-0.6825800">
        <ele>374.0</ele>
        <time>2018-10-14T07:15:16Z</time>
      </trkpt>
      <trkpt lat="38.4425370" lon="-0.6825930">
        <ele>374.0</ele>
        <time>2018-10-14T07:15:17Z</time>
      </trkpt>
      <trkpt lat="38.4425580" lon="-0.6826080">
        <ele>375.0</ele>
        <time>2018-10-14T07:15:18Z</time>
      </trkpt>
      <trkpt lat="38.4425580" lon="-0.6826080">
        <ele>375.0</ele>
        <time>2018-10-14T07:15:19Z</time>
      </trkpt>
      <trkpt lat="38.4426070" lon="-0.6826350">
        <ele>375.0</ele>
        <time>2018-10-14T07:15:20Z</time>
      </trkpt>
      <trkpt lat="38.4426070" lon="-0.6826350">
        <ele>375.0</ele>
        <time>2018-10-14T07:15:21Z</time>
      </trkpt>
      <trkpt lat="38.4426520" lon="-0.6826600">
        <ele>375.0</ele>
        <time>2018-10-14T07:15:22Z</time>
      </trkpt>
      <trkpt lat="38.4426730" lon="-0.6826730">
        <ele>375.0</ele>
        <time>2018-10-14T07:15:23Z</time>
      </trkpt>
      <trkpt lat="38.4426950" lon="-0.6826880">
        <ele>375.0</ele>
        <time>2018-10-14T07:15:24Z</time>
      </trkpt>
      <trkpt lat="38.4426950" lon="-0.6826880">
        <ele>375.0</ele>
        <time>2018-10-14T07:15:25Z</time>
      </trkpt>
      <trkpt lat="38.4427350" lon="-0.6827200">
        <ele>376.0</ele>
        <time>2018-10-14T07:15:26Z</time>
      </trkpt>
      <trkpt lat="38.4427350" lon="-0.6827200">
        <ele>376.0</ele>
        <time>2018-10-14T07:15:27Z</time>
      </trkpt>
      <trkpt lat="38.4427820" lon="-0.6827480">
        <ele>376.0</ele>
        <time>2018-10-14T07:15:28Z</time>
      </trkpt>
      <trkpt lat="38.4427820" lon="-0.6827480">
        <ele>376.0</ele>
        <time>2018-10-14T07:15:29Z</time>
      </trkpt>
      <trkpt lat="38.4428270" lon="-0.6827770">
        <ele>376.0</ele>
        <time>2018-10-14T07:15:30Z</time>
      </trkpt>
      <trkpt lat="38.4428270" lon="-0.6827770">
        <ele>376.0</ele>
        <time>2018-10-14T07:15:31Z</time>
      </trkpt>
      <trkpt lat="38.4428680" lon="-0.6828050">
        <ele>377.0</ele>
        <time>2018-10-14T07:15:32Z</time>
      </trkpt>
      <trkpt lat="38.4428680" lon="-0.6828050">
        <ele>377.0</ele>
        <time>2018-10-14T07:15:33Z</time>
      </trkpt>
      <trkpt lat="38.4429080" lon="-0.6828300">
        <ele>377.0</ele>
        <time>2018-10-14T07:15:34Z</time>
      </trkpt>
      <trkpt lat="38.4429080" lon="-0.6828300">
        <ele>377.0</ele>
        <time>2018-10-14T07:15:35Z</time>
      </trkpt>
      <trkpt lat="38.4429400" lon="-0.6828400">
        <ele>378.0</ele>
        <time>2018-10-14T07:15:36Z</time>
      </trkpt>
      <trkpt lat="38.4429400" lon="-0.6828400">
        <ele>378.0</ele>
        <time>2018-10-14T07:15:37Z</time>
      </trkpt>
      <trkpt lat="38.4429730" lon="-0.6828580">
        <ele>378.0</ele>
        <time>2018-10-14T07:15:38Z</time>
      </trkpt>
      <trkpt lat="38.4429730" lon="-0.6828580">
        <ele>378.0</ele>
        <time>2018-10-14T07:15:39Z</time>
      </trkpt>
      <trkpt lat="38.4429950" lon="-0.6828720">
        <ele>378.0</ele>
        <time>2018-10-14T07:15:40Z</time>
      </trkpt>
      <trkpt lat="38.4429950" lon="-0.6828720">
        <ele>378.0</ele>
        <time>2018-10-14T07:15:41Z</time>
      </trkpt>
      <trkpt lat="38.4430150" lon="-0.6828850">
        <ele>378.0</ele>
        <time>2018-10-14T07:15:42Z</time>
      </trkpt>
      <trkpt lat="38.4430150" lon="-0.6828850">
        <ele>378.0</ele>
        <time>2018-10-14T07:15:43Z</time>
      </trkpt>
      <trkpt lat="38.4430320" lon="-0.6828950">
        <ele>378.0</ele>
        <time>2018-10-14T07:15:44Z</time>
      </trkpt>
      <trkpt lat="38.4430320" lon="-0.6828950">
        <ele>378.0</ele>
        <time>2018-10-14T07:15:45Z</time>
      </trkpt>
      <trkpt lat="38.4430380" lon="-0.6828930">
        <ele>378.0</ele>
        <time>2018-10-14T07:15:46Z</time>
      </trkpt>
      <trkpt lat="38.4430380" lon="-0.6828930">
        <ele>378.0</ele>
        <time>2018-10-14T07:16:18Z</time>
      </trkpt>
      <trkpt lat="38.4430380" lon="-0.6828930">
        <ele>378.0</ele>
        <time>2018-10-14T07:16:19Z</time>
      </trkpt>
      <trkpt lat="38.4430650" lon="-0.6829080">
        <ele>378.0</ele>
        <time>2018-10-14T07:16:20Z</time>
      </trkpt>
      <trkpt lat="38.4431080" lon="-0.6829220">
        <ele>379.0</ele>
        <time>2018-10-14T07:16:32Z</time>
      </trkpt>
      <trkpt lat="38.4431080" lon="-0.6829220">
        <ele>379.0</ele>
        <time>2018-10-14T07:16:33Z</time>
      </trkpt>
      <trkpt lat="38.4431400" lon="-0.6829370">
        <ele>379.0</ele>
        <time>2018-10-14T07:16:34Z</time>
      </trkpt>
      <trkpt lat="38.4431570" lon="-0.6829470">
        <ele>379.0</ele>
        <time>2018-10-14T07:16:35Z</time>
      </trkpt>
      <trkpt lat="38.4431570" lon="-0.6829470">
        <ele>379.0</ele>
        <time>2018-10-14T07:16:36Z</time>
      </trkpt>
      <trkpt lat="38.4431930" lon="-0.6829650">
        <ele>379.0</ele>
        <time>2018-10-14T07:16:37Z</time>
      </trkpt>
      <trkpt lat="38.4432120" lon="-0.6829770">
        <ele>379.0</ele>
        <time>2018-10-14T07:16:38Z</time>
      </trkpt>
      <trkpt lat="38.4432120" lon="-0.6829770">
        <ele>379.0</ele>
        <time>2018-10-14T07:16:39Z</time>
      </trkpt>
      <trkpt lat="38.4432450" lon="-0.6830000">
        <ele>379.0</ele>
        <time>2018-10-14T07:16:40Z</time>
      </trkpt>
      <trkpt lat="38.4432620" lon="-0.6830100">
        <ele>379.0</ele>
        <time>2018-10-14T07:16:41Z</time>
      </trkpt>
      <trkpt lat="38.4432620" lon="-0.6830100">
        <ele>379.0</ele>
        <time>2018-10-14T07:16:42Z</time>
      </trkpt>
      <trkpt lat="38.4432980" lon="-0.6830300">
        <ele>379.0</ele>
        <time>2018-10-14T07:16:43Z</time>
      </trkpt>
      <trkpt lat="38.4433200" lon="-0.6830400">
        <ele>379.0</ele>
        <time>2018-10-14T07:16:44Z</time>
      </trkpt>
      <trkpt lat="38.4433200" lon="-0.6830400">
        <ele>379.0</ele>
        <time>2018-10-14T07:16:45Z</time>
      </trkpt>
      <trkpt lat="38.4433680" lon="-0.6830620">
        <ele>380.0</ele>
        <time>2018-10-14T07:16:46Z</time>
      </trkpt>
      <trkpt lat="38.4433680" lon="-0.6830620">
        <ele>380.0</ele>
        <time>2018-10-14T07:16:47Z</time>
      </trkpt>
      <trkpt lat="38.4434150" lon="-0.6830850">
        <ele>380.0</ele>
        <time>2018-10-14T07:16:48Z</time>
      </trkpt>
      <trkpt lat="38.4434150" lon="-0.6830850">
        <ele>380.0</ele>
        <time>2018-10-14T07:16:49Z</time>
      </trkpt>
      <trkpt lat="38.4434670" lon="-0.6831120">
        <ele>380.0</ele>
        <time>2018-10-14T07:16:50Z</time>
      </trkpt>
      <trkpt lat="38.4434670" lon="-0.6831120">
        <ele>380.0</ele>
        <time>2018-10-14T07:16:51Z</time>
      </trkpt>
      <trkpt lat="38.4435170" lon="-0.6831430">
        <ele>380.0</ele>
        <time>2018-10-14T07:16:52Z</time>
      </trkpt>
      <trkpt lat="38.4435430" lon="-0.6831600">
        <ele>380.0</ele>
        <time>2018-10-14T07:16:53Z</time>
      </trkpt>
      <trkpt lat="38.4435680" lon="-0.6831730">
        <ele>380.0</ele>
        <time>2018-10-14T07:16:54Z</time>
      </trkpt>
      <trkpt lat="38.4435680" lon="-0.6831730">
        <ele>380.0</ele>
        <time>2018-10-14T07:16:55Z</time>
      </trkpt>
      <trkpt lat="38.4436200" lon="-0.6831920">
        <ele>380.0</ele>
        <time>2018-10-14T07:16:56Z</time>
      </trkpt>
      <trkpt lat="38.4436200" lon="-0.6831920">
        <ele>380.0</ele>
        <time>2018-10-14T07:16:57Z</time>
      </trkpt>
      <trkpt lat="38.4436650" lon="-0.6832230">
        <ele>380.0</ele>
        <time>2018-10-14T07:16:58Z</time>
      </trkpt>
      <trkpt lat="38.4436650" lon="-0.6832230">
        <ele>380.0</ele>
        <time>2018-10-14T07:16:59Z</time>
      </trkpt>
      <trkpt lat="38.4437130" lon="-0.6832550">
        <ele>380.0</ele>
        <time>2018-10-14T07:17:00Z</time>
      </trkpt>
      <trkpt lat="38.4437130" lon="-0.6832550">
        <ele>380.0</ele>
        <time>2018-10-14T07:17:01Z</time>
      </trkpt>
      <trkpt lat="38.4437650" lon="-0.6832920">
        <ele>380.0</ele>
        <time>2018-10-14T07:17:02Z</time>
      </trkpt>
      <trkpt lat="38.4437650" lon="-0.6832920">
        <ele>380.0</ele>
        <time>2018-10-14T07:17:03Z</time>
      </trkpt>
      <trkpt lat="38.4438180" lon="-0.6833250">
        <ele>380.0</ele>
        <time>2018-10-14T07:17:04Z</time>
      </trkpt>
      <trkpt lat="38.4438470" lon="-0.6833420">
        <ele>380.0</ele>
        <time>2018-10-14T07:17:05Z</time>
      </trkpt>
      <trkpt lat="38.4438770" lon="-0.6833550">
        <ele>380.0</ele>
        <time>2018-10-14T07:17:06Z</time>
      </trkpt>
      <trkpt lat="38.4438770" lon="-0.6833550">
        <ele>380.0</ele>
        <time>2018-10-14T07:17:07Z</time>
      </trkpt>
      <trkpt lat="38.4439300" lon="-0.6833920">
        <ele>380.0</ele>
        <time>2018-10-14T07:17:08Z</time>
      </trkpt>
      <trkpt lat="38.4439300" lon="-0.6833920">
        <ele>381.0</ele>
        <time>2018-10-14T07:17:09Z</time>
      </trkpt>
      <trkpt lat="38.4439850" lon="-0.6834350">
        <ele>381.0</ele>
        <time>2018-10-14T07:17:10Z</time>
      </trkpt>
      <trkpt lat="38.4439850" lon="-0.6834350">
        <ele>381.0</ele>
        <time>2018-10-14T07:17:11Z</time>
      </trkpt>
      <trkpt lat="38.4440420" lon="-0.6834700">
        <ele>381.0</ele>
        <time>2018-10-14T07:17:12Z</time>
      </trkpt>
      <trkpt lat="38.4440420" lon="-0.6834700">
        <ele>381.0</ele>
        <time>2018-10-14T07:17:13Z</time>
      </trkpt>
      <trkpt lat="38.4441050" lon="-0.6834930">
        <ele>381.0</ele>
        <time>2018-10-14T07:17:14Z</time>
      </trkpt>
      <trkpt lat="38.4441050" lon="-0.6834930">
        <ele>381.0</ele>
        <time>2018-10-14T07:17:15Z</time>
      </trkpt>
      <trkpt lat="38.4441650" lon="-0.6835170">
        <ele>381.0</ele>
        <time>2018-10-14T07:17:16Z</time>
      </trkpt>
      <trkpt lat="38.4441650" lon="-0.6835170">
        <ele>381.0</ele>
        <time>2018-10-14T07:17:17Z</time>
      </trkpt>
      <trkpt lat="38.4442200" lon="-0.6835550">
        <ele>381.0</ele>
        <time>2018-10-14T07:17:18Z</time>
      </trkpt>
      <trkpt lat="38.4442200" lon="-0.6835550">
        <ele>381.0</ele>
        <time>2018-10-14T07:17:19Z</time>
      </trkpt>
      <trkpt lat="38.4442650" lon="-0.6836050">
        <ele>381.0</ele>
        <time>2018-10-14T07:17:20Z</time>
      </trkpt>
      <trkpt lat="38.4442800" lon="-0.6836370">
        <ele>381.0</ele>
        <time>2018-10-14T07:17:21Z</time>
      </trkpt>
      <trkpt lat="38.4442800" lon="-0.6836370">
        <ele>381.0</ele>
        <time>2018-10-14T07:17:22Z</time>
      </trkpt>
      <trkpt lat="38.4443000" lon="-0.6837080">
        <ele>381.0</ele>
        <time>2018-10-14T07:17:23Z</time>
      </trkpt>
      <trkpt lat="38.4443050" lon="-0.6837450">
        <ele>381.0</ele>
        <time>2018-10-14T07:17:24Z</time>
      </trkpt>
      <trkpt lat="38.4443050" lon="-0.6837820">
        <ele>381.0</ele>
        <time>2018-10-14T07:17:25Z</time>
      </trkpt>
      <trkpt lat="38.4443050" lon="-0.6837820">
        <ele>381.0</ele>
        <time>2018-10-14T07:17:26Z</time>
      </trkpt>
      <trkpt lat="38.4443130" lon="-0.6838520">
        <ele>381.0</ele>
        <time>2018-10-14T07:17:27Z</time>
      </trkpt>
      <trkpt lat="38.4443130" lon="-0.6838520">
        <ele>382.0</ele>
        <time>2018-10-14T07:17:28Z</time>
      </trkpt>
      <trkpt lat="38.4443300" lon="-0.6839180">
        <ele>382.0</ele>
        <time>2018-10-14T07:17:29Z</time>
      </trkpt>
      <trkpt lat="38.4443420" lon="-0.6839520">
        <ele>382.0</ele>
        <time>2018-10-14T07:17:30Z</time>
      </trkpt>
      <trkpt lat="38.4443420" lon="-0.6839520">
        <ele>382.0</ele>
        <time>2018-10-14T07:17:31Z</time>
      </trkpt>
      <trkpt lat="38.4443630" lon="-0.6840130">
        <ele>382.0</ele>
        <time>2018-10-14T07:17:32Z</time>
      </trkpt>
      <trkpt lat="38.4443630" lon="-0.6840130">
        <ele>382.0</ele>
        <time>2018-10-14T07:17:33Z</time>
      </trkpt>
      <trkpt lat="38.4443830" lon="-0.6840780">
        <ele>383.0</ele>
        <time>2018-10-14T07:17:34Z</time>
      </trkpt>
      <trkpt lat="38.4443830" lon="-0.6840780">
        <ele>383.0</ele>
        <time>2018-10-14T07:17:35Z</time>
      </trkpt>
      <trkpt lat="38.4444030" lon="-0.6841420">
        <ele>383.0</ele>
        <time>2018-10-14T07:17:36Z</time>
      </trkpt>
      <trkpt lat="38.4444030" lon="-0.6841420">
        <ele>383.0</ele>
        <time>2018-10-14T07:17:37Z</time>
      </trkpt>
      <trkpt lat="38.4444200" lon="-0.6842030">
        <ele>383.0</ele>
        <time>2018-10-14T07:17:38Z</time>
      </trkpt>
      <trkpt lat="38.4444300" lon="-0.6842350">
        <ele>383.0</ele>
        <time>2018-10-14T07:17:39Z</time>
      </trkpt>
      <trkpt lat="38.4444300" lon="-0.6842350">
        <ele>384.0</ele>
        <time>2018-10-14T07:17:40Z</time>
      </trkpt>
      <trkpt lat="38.4444470" lon="-0.6842950">
        <ele>384.0</ele>
        <time>2018-10-14T07:17:41Z</time>
      </trkpt>
      <trkpt lat="38.4444580" lon="-0.6843270">
        <ele>385.0</ele>
        <time>2018-10-14T07:17:42Z</time>
      </trkpt>
      <trkpt lat="38.4444700" lon="-0.6843580">
        <ele>385.0</ele>
        <time>2018-10-14T07:17:43Z</time>
      </trkpt>
      <trkpt lat="38.4444700" lon="-0.6843580">
        <ele>385.0</ele>
        <time>2018-10-14T07:17:44Z</time>
      </trkpt>
      <trkpt lat="38.4444900" lon="-0.6844300">
        <ele>385.0</ele>
        <time>2018-10-14T07:17:45Z</time>
      </trkpt>
      <trkpt lat="38.4444900" lon="-0.6844300">
        <ele>385.0</ele>
        <time>2018-10-14T07:17:46Z</time>
      </trkpt>
      <trkpt lat="38.4445100" lon="-0.6845020">
        <ele>385.0</ele>
        <time>2018-10-14T07:17:47Z</time>
      </trkpt>
      <trkpt lat="38.4445100" lon="-0.6845020">
        <ele>385.0</ele>
        <time>2018-10-14T07:17:48Z</time>
      </trkpt>
      <trkpt lat="38.4445320" lon="-0.6845700">
        <ele>385.0</ele>
        <time>2018-10-14T07:17:49Z</time>
      </trkpt>
      <trkpt lat="38.4445420" lon="-0.6846030">
        <ele>385.0</ele>
        <time>2018-10-14T07:17:50Z</time>
      </trkpt>
      <trkpt lat="38.4445530" lon="-0.6846370">
        <ele>386.0</ele>
        <time>2018-10-14T07:17:51Z</time>
      </trkpt>
      <trkpt lat="38.4445530" lon="-0.6846370">
        <ele>386.0</ele>
        <time>2018-10-14T07:17:52Z</time>
      </trkpt>
      <trkpt lat="38.4445780" lon="-0.6847020">
        <ele>386.0</ele>
        <time>2018-10-14T07:17:53Z</time>
      </trkpt>
      <trkpt lat="38.4445930" lon="-0.6847350">
        <ele>386.0</ele>
        <time>2018-10-14T07:17:54Z</time>
      </trkpt>
      <trkpt lat="38.4445930" lon="-0.6847350">
        <ele>386.0</ele>
        <time>2018-10-14T07:17:55Z</time>
      </trkpt>
      <trkpt lat="38.4446250" lon="-0.6848070">
        <ele>386.0</ele>
        <time>2018-10-14T07:17:56Z</time>
      </trkpt>
      <trkpt lat="38.4446250" lon="-0.6848070">
        <ele>386.0</ele>
        <time>2018-10-14T07:17:57Z</time>
      </trkpt>
      <trkpt lat="38.4446520" lon="-0.6848850">
        <ele>386.0</ele>
        <time>2018-10-14T07:17:58Z</time>
      </trkpt>
      <trkpt lat="38.4446650" lon="-0.6849230">
        <ele>386.0</ele>
        <time>2018-10-14T07:17:59Z</time>
      </trkpt>
      <trkpt lat="38.4446650" lon="-0.6849230">
        <ele>386.0</ele>
        <time>2018-10-14T07:18:00Z</time>
      </trkpt>
      <trkpt lat="38.4446950" lon="-0.6850000">
        <ele>386.0</ele>
        <time>2018-10-14T07:18:01Z</time>
      </trkpt>
      <trkpt lat="38.4447130" lon="-0.6850370">
        <ele>386.0</ele>
        <time>2018-10-14T07:18:02Z</time>
      </trkpt>
      <trkpt lat="38.4447130" lon="-0.6850370">
        <ele>386.0</ele>
        <time>2018-10-14T07:18:03Z</time>
      </trkpt>
      <trkpt lat="38.4447470" lon="-0.6851120">
        <ele>386.0</ele>
        <time>2018-10-14T07:18:04Z</time>
      </trkpt>
      <trkpt lat="38.4447470" lon="-0.6851120">
        <ele>386.0</ele>
        <time>2018-10-14T07:18:05Z</time>
      </trkpt>
      <trkpt lat="38.4447820" lon="-0.6851850">
        <ele>387.0</ele>
        <time>2018-10-14T07:18:06Z</time>
      </trkpt>
      <trkpt lat="38.4447820" lon="-0.6851850">
        <ele>387.0</ele>
        <time>2018-10-14T07:18:07Z</time>
      </trkpt>
      <trkpt lat="38.4448120" lon="-0.6852630">
        <ele>387.0</ele>
        <time>2018-10-14T07:18:08Z</time>
      </trkpt>
      <trkpt lat="38.4448120" lon="-0.6852630">
        <ele>387.0</ele>
        <time>2018-10-14T07:18:09Z</time>
      </trkpt>
      <trkpt lat="38.4448480" lon="-0.6853250">
        <ele>387.0</ele>
        <time>2018-10-14T07:18:10Z</time>
      </trkpt>
      <trkpt lat="38.4448480" lon="-0.6853250">
        <ele>387.0</ele>
        <time>2018-10-14T07:18:11Z</time>
      </trkpt>
      <trkpt lat="38.4448920" lon="-0.6853780">
        <ele>387.0</ele>
        <time>2018-10-14T07:18:12Z</time>
      </trkpt>
      <trkpt lat="38.4448920" lon="-0.6853780">
        <ele>387.0</ele>
        <time>2018-10-14T07:18:13Z</time>
      </trkpt>
      <trkpt lat="38.4449370" lon="-0.6854180">
        <ele>387.0</ele>
        <time>2018-10-14T07:18:14Z</time>
      </trkpt>
      <trkpt lat="38.4449370" lon="-0.6854180">
        <ele>387.0</ele>
        <time>2018-10-14T07:18:15Z</time>
      </trkpt>
      <trkpt lat="38.4449830" lon="-0.6854620">
        <ele>387.0</ele>
        <time>2018-10-14T07:18:16Z</time>
      </trkpt>
      <trkpt lat="38.4449830" lon="-0.6854620">
        <ele>387.0</ele>
        <time>2018-10-14T07:18:17Z</time>
      </trkpt>
      <trkpt lat="38.4450280" lon="-0.6855220">
        <ele>387.0</ele>
        <time>2018-10-14T07:18:18Z</time>
      </trkpt>
      <trkpt lat="38.4450480" lon="-0.6855520">
        <ele>388.0</ele>
        <time>2018-10-14T07:18:19Z</time>
      </trkpt>
      <trkpt lat="38.4450480" lon="-0.6855520">
        <ele>388.0</ele>
        <time>2018-10-14T07:18:20Z</time>
      </trkpt>
      <trkpt lat="38.4450900" lon="-0.6856100">
        <ele>388.0</ele>
        <time>2018-10-14T07:18:21Z</time>
      </trkpt>
      <trkpt lat="38.4451120" lon="-0.6856370">
        <ele>388.0</ele>
        <time>2018-10-14T07:18:22Z</time>
      </trkpt>
      <trkpt lat="38.4451120" lon="-0.6856370">
        <ele>388.0</ele>
        <time>2018-10-14T07:18:23Z</time>
      </trkpt>
      <trkpt lat="38.4451550" lon="-0.6856950">
        <ele>388.0</ele>
        <time>2018-10-14T07:18:24Z</time>
      </trkpt>
      <trkpt lat="38.4451550" lon="-0.6856950">
        <ele>388.0</ele>
        <time>2018-10-14T07:18:25Z</time>
      </trkpt>
      <trkpt lat="38.4451970" lon="-0.6857520">
        <ele>388.0</ele>
        <time>2018-10-14T07:18:26Z</time>
      </trkpt>
      <trkpt lat="38.4452220" lon="-0.6857750">
        <ele>388.0</ele>
        <time>2018-10-14T07:18:27Z</time>
      </trkpt>
      <trkpt lat="38.4452420" lon="-0.6858070">
        <ele>388.0</ele>
        <time>2018-10-14T07:18:28Z</time>
      </trkpt>
      <trkpt lat="38.4452420" lon="-0.6858070">
        <ele>388.0</ele>
        <time>2018-10-14T07:18:29Z</time>
      </trkpt>
      <trkpt lat="38.4452830" lon="-0.6858630">
        <ele>388.0</ele>
        <time>2018-10-14T07:18:30Z</time>
      </trkpt>
      <trkpt lat="38.4453050" lon="-0.6858880">
        <ele>388.0</ele>
        <time>2018-10-14T07:18:31Z</time>
      </trkpt>
      <trkpt lat="38.4453050" lon="-0.6858880">
        <ele>388.0</ele>
        <time>2018-10-14T07:18:32Z</time>
      </trkpt>
      <trkpt lat="38.4453500" lon="-0.6859400">
        <ele>389.0</ele>
        <time>2018-10-14T07:18:33Z</time>
      </trkpt>
      <trkpt lat="38.4453500" lon="-0.6859400">
        <ele>389.0</ele>
        <time>2018-10-14T07:18:34Z</time>
      </trkpt>
      <trkpt lat="38.4453980" lon="-0.6859850">
        <ele>389.0</ele>
        <time>2018-10-14T07:18:35Z</time>
      </trkpt>
      <trkpt lat="38.4453980" lon="-0.6859850">
        <ele>389.0</ele>
        <time>2018-10-14T07:18:36Z</time>
      </trkpt>
      <trkpt lat="38.4454500" lon="-0.6860220">
        <ele>389.0</ele>
        <time>2018-10-14T07:18:37Z</time>
      </trkpt>
      <trkpt lat="38.4454770" lon="-0.6860420">
        <ele>389.0</ele>
        <time>2018-10-14T07:18:38Z</time>
      </trkpt>
      <trkpt lat="38.4454770" lon="-0.6860420">
        <ele>389.0</ele>
        <time>2018-10-14T07:18:39Z</time>
      </trkpt>
      <trkpt lat="38.4455300" lon="-0.6860830">
        <ele>389.0</ele>
        <time>2018-10-14T07:18:40Z</time>
      </trkpt>
      <trkpt lat="38.4455300" lon="-0.6860830">
        <ele>389.0</ele>
        <time>2018-10-14T07:18:41Z</time>
      </trkpt>
      <trkpt lat="38.4455730" lon="-0.6861300">
        <ele>389.0</ele>
        <time>2018-10-14T07:18:42Z</time>
      </trkpt>
      <trkpt lat="38.4455730" lon="-0.6861300">
        <ele>390.0</ele>
        <time>2018-10-14T07:18:43Z</time>
      </trkpt>
      <trkpt lat="38.4456180" lon="-0.6861870">
        <ele>390.0</ele>
        <time>2018-10-14T07:18:44Z</time>
      </trkpt>
      <trkpt lat="38.4456180" lon="-0.6861870">
        <ele>390.0</ele>
        <time>2018-10-14T07:18:45Z</time>
      </trkpt>
      <trkpt lat="38.4456730" lon="-0.6862450">
        <ele>390.0</ele>
        <time>2018-10-14T07:18:46Z</time>
      </trkpt>
      <trkpt lat="38.4456730" lon="-0.6862450">
        <ele>390.0</ele>
        <time>2018-10-14T07:18:47Z</time>
      </trkpt>
      <trkpt lat="38.4457370" lon="-0.6862900">
        <ele>390.0</ele>
        <time>2018-10-14T07:18:48Z</time>
      </trkpt>
      <trkpt lat="38.4457370" lon="-0.6862900">
        <ele>390.0</ele>
        <time>2018-10-14T07:18:49Z</time>
      </trkpt>
      <trkpt lat="38.4458000" lon="-0.6863320">
        <ele>390.0</ele>
        <time>2018-10-14T07:18:50Z</time>
      </trkpt>
      <trkpt lat="38.4458000" lon="-0.6863320">
        <ele>391.0</ele>
        <time>2018-10-14T07:18:51Z</time>
      </trkpt>
      <trkpt lat="38.4458670" lon="-0.6863800">
        <ele>391.0</ele>
        <time>2018-10-14T07:18:52Z</time>
      </trkpt>
      <trkpt lat="38.4458980" lon="-0.6864030">
        <ele>391.0</ele>
        <time>2018-10-14T07:18:53Z</time>
      </trkpt>
      <trkpt lat="38.4458980" lon="-0.6864030">
        <ele>391.0</ele>
        <time>2018-10-14T07:18:54Z</time>
      </trkpt>
      <trkpt lat="38.4459630" lon="-0.6864450">
        <ele>391.0</ele>
        <time>2018-10-14T07:18:55Z</time>
      </trkpt>
      <trkpt lat="38.4459630" lon="-0.6864450">
        <ele>392.0</ele>
        <time>2018-10-14T07:18:56Z</time>
      </trkpt>
      <trkpt lat="38.4460280" lon="-0.6864820">
        <ele>392.0</ele>
        <time>2018-10-14T07:18:57Z</time>
      </trkpt>
      <trkpt lat="38.4460280" lon="-0.6864820">
        <ele>392.0</ele>
        <time>2018-10-14T07:18:58Z</time>
      </trkpt>
      <trkpt lat="38.4460920" lon="-0.6865250">
        <ele>392.0</ele>
        <time>2018-10-14T07:18:59Z</time>
      </trkpt>
      <trkpt lat="38.4460920" lon="-0.6865250">
        <ele>392.0</ele>
        <time>2018-10-14T07:19:00Z</time>
      </trkpt>
      <trkpt lat="38.4461570" lon="-0.6865670">
        <ele>392.0</ele>
        <time>2018-10-14T07:19:01Z</time>
      </trkpt>
      <trkpt lat="38.4461570" lon="-0.6865670">
        <ele>393.0</ele>
        <time>2018-10-14T07:19:02Z</time>
      </trkpt>
      <trkpt lat="38.4462100" lon="-0.6866370">
        <ele>393.0</ele>
        <time>2018-10-14T07:19:03Z</time>
      </trkpt>
      <trkpt lat="38.4462100" lon="-0.6866370">
        <ele>394.0</ele>
        <time>2018-10-14T07:19:04Z</time>
      </trkpt>
      <trkpt lat="38.4462370" lon="-0.6867220">
        <ele>394.0</ele>
        <time>2018-10-14T07:19:05Z</time>
      </trkpt>
      <trkpt lat="38.4462470" lon="-0.6867620">
        <ele>394.0</ele>
        <time>2018-10-14T07:19:06Z</time>
      </trkpt>
      <trkpt lat="38.4462470" lon="-0.6867620">
        <ele>394.0</ele>
        <time>2018-10-14T07:19:07Z</time>
      </trkpt>
      <trkpt lat="38.4462470" lon="-0.6868370">
        <ele>394.0</ele>
        <time>2018-10-14T07:19:08Z</time>
      </trkpt>
      <trkpt lat="38.4462470" lon="-0.6868370">
        <ele>394.0</ele>
        <time>2018-10-14T07:19:09Z</time>
      </trkpt>
      <trkpt lat="38.4462300" lon="-0.6869080">
        <ele>395.0</ele>
        <time>2018-10-14T07:19:10Z</time>
      </trkpt>
      <trkpt lat="38.4462300" lon="-0.6869080">
        <ele>395.0</ele>
        <time>2018-10-14T07:19:11Z</time>
      </trkpt>
      <trkpt lat="38.4462020" lon="-0.6869750">
        <ele>395.0</ele>
        <time>2018-10-14T07:19:12Z</time>
      </trkpt>
      <trkpt lat="38.4461820" lon="-0.6870070">
        <ele>395.0</ele>
        <time>2018-10-14T07:19:13Z</time>
      </trkpt>
      <trkpt lat="38.4461620" lon="-0.6870370">
        <ele>395.0</ele>
        <time>2018-10-14T07:19:14Z</time>
      </trkpt>
      <trkpt lat="38.4461620" lon="-0.6870370">
        <ele>395.0</ele>
        <time>2018-10-14T07:19:15Z</time>
      </trkpt>
      <trkpt lat="38.4461220" lon="-0.6871000">
        <ele>395.0</ele>
        <time>2018-10-14T07:19:16Z</time>
      </trkpt>
      <trkpt lat="38.4461000" lon="-0.6871320">
        <ele>395.0</ele>
        <time>2018-10-14T07:19:17Z</time>
      </trkpt>
      <trkpt lat="38.4461000" lon="-0.6871320">
        <ele>395.0</ele>
        <time>2018-10-14T07:19:18Z</time>
      </trkpt>
      <trkpt lat="38.4460800" lon="-0.6872100">
        <ele>395.0</ele>
        <time>2018-10-14T07:19:19Z</time>
      </trkpt>
      <trkpt lat="38.4460920" lon="-0.6872400">
        <ele>395.0</ele>
        <time>2018-10-14T07:19:20Z</time>
      </trkpt>
      <trkpt lat="38.4460920" lon="-0.6872400">
        <ele>395.0</ele>
        <time>2018-10-14T07:19:21Z</time>
      </trkpt>
      <trkpt lat="38.4461450" lon="-0.6872450">
        <ele>396.0</ele>
        <time>2018-10-14T07:19:22Z</time>
      </trkpt>
      <trkpt lat="38.4461450" lon="-0.6872450">
        <ele>396.0</ele>
        <time>2018-10-14T07:19:23Z</time>
      </trkpt>
      <trkpt lat="38.4462050" lon="-0.6872180">
        <ele>396.0</ele>
        <time>2018-10-14T07:19:24Z</time>
      </trkpt>
      <trkpt lat="38.4462050" lon="-0.6872180">
        <ele>396.0</ele>
        <time>2018-10-14T07:19:25Z</time>
      </trkpt>
      <trkpt lat="38.4462670" lon="-0.6871950">
        <ele>396.0</ele>
        <time>2018-10-14T07:19:26Z</time>
      </trkpt>
      <trkpt lat="38.4462670" lon="-0.6871950">
        <ele>396.0</ele>
        <time>2018-10-14T07:19:27Z</time>
      </trkpt>
      <trkpt lat="38.4463220" lon="-0.6871730">
        <ele>396.0</ele>
        <time>2018-10-14T07:19:28Z</time>
      </trkpt>
      <trkpt lat="38.4463500" lon="-0.6871620">
        <ele>396.0</ele>
        <time>2018-10-14T07:19:29Z</time>
      </trkpt>
      <trkpt lat="38.4463500" lon="-0.6871620">
        <ele>397.0</ele>
        <time>2018-10-14T07:19:30Z</time>
      </trkpt>
      <trkpt lat="38.4464120" lon="-0.6871400">
        <ele>397.0</ele>
        <time>2018-10-14T07:19:31Z</time>
      </trkpt>
      <trkpt lat="38.4464400" lon="-0.6871350">
        <ele>397.0</ele>
        <time>2018-10-14T07:19:32Z</time>
      </trkpt>
      <trkpt lat="38.4464400" lon="-0.6871350">
        <ele>397.0</ele>
        <time>2018-10-14T07:19:33Z</time>
      </trkpt>
      <trkpt lat="38.4464950" lon="-0.6871380">
        <ele>397.0</ele>
        <time>2018-10-14T07:19:34Z</time>
      </trkpt>
      <trkpt lat="38.4464950" lon="-0.6871380">
        <ele>397.0</ele>
        <time>2018-10-14T07:19:35Z</time>
      </trkpt>
      <trkpt lat="38.4465500" lon="-0.6871370">
        <ele>398.0</ele>
        <time>2018-10-14T07:19:36Z</time>
      </trkpt>
      <trkpt lat="38.4465770" lon="-0.6871250">
        <ele>398.0</ele>
        <time>2018-10-14T07:19:37Z</time>
      </trkpt>
      <trkpt lat="38.4466020" lon="-0.6871070">
        <ele>398.0</ele>
        <time>2018-10-14T07:19:38Z</time>
      </trkpt>
      <trkpt lat="38.4466020" lon="-0.6871070">
        <ele>398.0</ele>
        <time>2018-10-14T07:19:39Z</time>
      </trkpt>
      <trkpt lat="38.4466470" lon="-0.6870550">
        <ele>398.0</ele>
        <time>2018-10-14T07:19:40Z</time>
      </trkpt>
      <trkpt lat="38.4466720" lon="-0.6870250">
        <ele>398.0</ele>
        <time>2018-10-14T07:19:41Z</time>
      </trkpt>
      <trkpt lat="38.4466720" lon="-0.6870250">
        <ele>398.0</ele>
        <time>2018-10-14T07:19:42Z</time>
      </trkpt>
      <trkpt lat="38.4467220" lon="-0.6869670">
        <ele>398.0</ele>
        <time>2018-10-14T07:19:43Z</time>
      </trkpt>
      <trkpt lat="38.4467450" lon="-0.6869350">
        <ele>398.0</ele>
        <time>2018-10-14T07:19:44Z</time>
      </trkpt>
      <trkpt lat="38.4467450" lon="-0.6869350">
        <ele>398.0</ele>
        <time>2018-10-14T07:19:45Z</time>
      </trkpt>
      <trkpt lat="38.4467930" lon="-0.6868730">
        <ele>398.0</ele>
        <time>2018-10-14T07:19:46Z</time>
      </trkpt>
      <trkpt lat="38.4468170" lon="-0.6868430">
        <ele>398.0</ele>
        <time>2018-10-14T07:19:47Z</time>
      </trkpt>
      <trkpt lat="38.4468400" lon="-0.6868130">
        <ele>398.0</ele>
        <time>2018-10-14T07:19:48Z</time>
      </trkpt>
      <trkpt lat="38.4468400" lon="-0.6868130">
        <ele>398.0</ele>
        <time>2018-10-14T07:19:49Z</time>
      </trkpt>
      <trkpt lat="38.4468830" lon="-0.6867580">
        <ele>398.0</ele>
        <time>2018-10-14T07:19:50Z</time>
      </trkpt>
      <trkpt lat="38.4468830" lon="-0.6867580">
        <ele>398.0</ele>
        <time>2018-10-14T07:19:51Z</time>
      </trkpt>
      <trkpt lat="38.4469200" lon="-0.6867100">
        <ele>398.0</ele>
        <time>2018-10-14T07:19:52Z</time>
      </trkpt>
      <trkpt lat="38.4469370" lon="-0.6866870">
        <ele>398.0</ele>
        <time>2018-10-14T07:19:53Z</time>
      </trkpt>
      <trkpt lat="38.4469370" lon="-0.6866870">
        <ele>398.0</ele>
        <time>2018-10-14T07:19:54Z</time>
      </trkpt>
      <trkpt lat="38.4469730" lon="-0.6866570">
        <ele>398.0</ele>
        <time>2018-10-14T07:19:55Z</time>
      </trkpt>
      <trkpt lat="38.4469730" lon="-0.6866570">
        <ele>398.0</ele>
        <time>2018-10-14T07:19:56Z</time>
      </trkpt>
      <trkpt lat="38.4470070" lon="-0.6866500">
        <ele>398.0</ele>
        <time>2018-10-14T07:19:57Z</time>
      </trkpt>
      <trkpt lat="38.4470070" lon="-0.6866500">
        <ele>398.0</ele>
        <time>2018-10-14T07:19:58Z</time>
      </trkpt>
      <trkpt lat="38.4470370" lon="-0.6866570">
        <ele>398.0</ele>
        <time>2018-10-14T07:19:59Z</time>
      </trkpt>
      <trkpt lat="38.4470370" lon="-0.6866570">
        <ele>398.0</ele>
        <time>2018-10-14T07:20:00Z</time>
      </trkpt>
      <trkpt lat="38.4470750" lon="-0.6866630">
        <ele>399.0</ele>
        <time>2018-10-14T07:20:01Z</time>
      </trkpt>
      <trkpt lat="38.4470970" lon="-0.6866670">
        <ele>399.0</ele>
        <time>2018-10-14T07:20:02Z</time>
      </trkpt>
      <trkpt lat="38.4470970" lon="-0.6866670">
        <ele>399.0</ele>
        <time>2018-10-14T07:20:03Z</time>
      </trkpt>
      <trkpt lat="38.4471350" lon="-0.6866770">
        <ele>399.0</ele>
        <time>2018-10-14T07:20:04Z</time>
      </trkpt>
      <trkpt lat="38.4471350" lon="-0.6866770">
        <ele>399.0</ele>
        <time>2018-10-14T07:20:05Z</time>
      </trkpt>
      <trkpt lat="38.4471730" lon="-0.6866880">
        <ele>399.0</ele>
        <time>2018-10-14T07:20:06Z</time>
      </trkpt>
      <trkpt lat="38.4471730" lon="-0.6866880">
        <ele>399.0</ele>
        <time>2018-10-14T07:20:07Z</time>
      </trkpt>
      <trkpt lat="38.4472050" lon="-0.6867050">
        <ele>399.0</ele>
        <time>2018-10-14T07:20:08Z</time>
      </trkpt>
      <trkpt lat="38.4472050" lon="-0.6867050">
        <ele>399.0</ele>
        <time>2018-10-14T07:20:09Z</time>
      </trkpt>
      <trkpt lat="38.4472420" lon="-0.6867170">
        <ele>399.0</ele>
        <time>2018-10-14T07:20:10Z</time>
      </trkpt>
      <trkpt lat="38.4472420" lon="-0.6867170">
        <ele>399.0</ele>
        <time>2018-10-14T07:20:11Z</time>
      </trkpt>
      <trkpt lat="38.4472770" lon="-0.6867280">
        <ele>399.0</ele>
        <time>2018-10-14T07:20:12Z</time>
      </trkpt>
      <trkpt lat="38.4472770" lon="-0.6867280">
        <ele>399.0</ele>
        <time>2018-10-14T07:20:13Z</time>
      </trkpt>
      <trkpt lat="38.4473130" lon="-0.6867420">
        <ele>399.0</ele>
        <time>2018-10-14T07:20:14Z</time>
      </trkpt>
      <trkpt lat="38.4473130" lon="-0.6867420">
        <ele>399.0</ele>
        <time>2018-10-14T07:20:15Z</time>
      </trkpt>
      <trkpt lat="38.4473500" lon="-0.6867480">
        <ele>399.0</ele>
        <time>2018-10-14T07:20:16Z</time>
      </trkpt>
      <trkpt lat="38.4473500" lon="-0.6867480">
        <ele>399.0</ele>
        <time>2018-10-14T07:20:17Z</time>
      </trkpt>
      <trkpt lat="38.4473870" lon="-0.6867580">
        <ele>399.0</ele>
        <time>2018-10-14T07:20:18Z</time>
      </trkpt>
      <trkpt lat="38.4474030" lon="-0.6867650">
        <ele>399.0</ele>
        <time>2018-10-14T07:20:19Z</time>
      </trkpt>
      <trkpt lat="38.4474030" lon="-0.6867650">
        <ele>399.0</ele>
        <time>2018-10-14T07:20:20Z</time>
      </trkpt>
      <trkpt lat="38.4474420" lon="-0.6867770">
        <ele>399.0</ele>
        <time>2018-10-14T07:20:21Z</time>
      </trkpt>
      <trkpt lat="38.4474420" lon="-0.6867770">
        <ele>399.0</ele>
        <time>2018-10-14T07:20:22Z</time>
      </trkpt>
      <trkpt lat="38.4474770" lon="-0.6867900">
        <ele>399.0</ele>
        <time>2018-10-14T07:20:23Z</time>
      </trkpt>
      <trkpt lat="38.4474950" lon="-0.6867970">
        <ele>399.0</ele>
        <time>2018-10-14T07:20:24Z</time>
      </trkpt>
      <trkpt lat="38.4474950" lon="-0.6867970">
        <ele>399.0</ele>
        <time>2018-10-14T07:20:25Z</time>
      </trkpt>
      <trkpt lat="38.4475320" lon="-0.6868030">
        <ele>399.0</ele>
        <time>2018-10-14T07:20:26Z</time>
      </trkpt>
      <trkpt lat="38.4475520" lon="-0.6868100">
        <ele>399.0</ele>
        <time>2018-10-14T07:20:27Z</time>
      </trkpt>
      <trkpt lat="38.4475520" lon="-0.6868100">
        <ele>399.0</ele>
        <time>2018-10-14T07:20:28Z</time>
      </trkpt>
      <trkpt lat="38.4475880" lon="-0.6868200">
        <ele>399.0</ele>
        <time>2018-10-14T07:20:29Z</time>
      </trkpt>
      <trkpt lat="38.4476070" lon="-0.6868270">
        <ele>399.0</ele>
        <time>2018-10-14T07:20:30Z</time>
      </trkpt>
      <trkpt lat="38.4476070" lon="-0.6868270">
        <ele>399.0</ele>
        <time>2018-10-14T07:20:31Z</time>
      </trkpt>
      <trkpt lat="38.4476450" lon="-0.6868370">
        <ele>399.0</ele>
        <time>2018-10-14T07:20:32Z</time>
      </trkpt>
      <trkpt lat="38.4476450" lon="-0.6868370">
        <ele>399.0</ele>
        <time>2018-10-14T07:20:33Z</time>
      </trkpt>
      <trkpt lat="38.4476820" lon="-0.6868470">
        <ele>399.0</ele>
        <time>2018-10-14T07:20:34Z</time>
      </trkpt>
      <trkpt lat="38.4476820" lon="-0.6868470">
        <ele>399.0</ele>
        <time>2018-10-14T07:20:35Z</time>
      </trkpt>
      <trkpt lat="38.4477100" lon="-0.6868470">
        <ele>399.0</ele>
        <time>2018-10-14T07:20:36Z</time>
      </trkpt>
      <trkpt lat="38.4477100" lon="-0.6868470">
        <ele>400.0</ele>
        <time>2018-10-14T07:20:37Z</time>
      </trkpt>
      <trkpt lat="38.4477380" lon="-0.6868500">
        <ele>400.0</ele>
        <time>2018-10-14T07:20:38Z</time>
      </trkpt>
      <trkpt lat="38.4477380" lon="-0.6868500">
        <ele>400.0</ele>
        <time>2018-10-14T07:20:39Z</time>
      </trkpt>
      <trkpt lat="38.4477730" lon="-0.6868500">
        <ele>400.0</ele>
        <time>2018-10-14T07:20:40Z</time>
      </trkpt>
      <trkpt lat="38.4477730" lon="-0.6868500">
        <ele>400.0</ele>
        <time>2018-10-14T07:20:41Z</time>
      </trkpt>
      <trkpt lat="38.4478050" lon="-0.6868530">
        <ele>400.0</ele>
        <time>2018-10-14T07:20:42Z</time>
      </trkpt>
      <trkpt lat="38.4478050" lon="-0.6868530">
        <ele>400.0</ele>
        <time>2018-10-14T07:20:43Z</time>
      </trkpt>
      <trkpt lat="38.4478380" lon="-0.6868600">
        <ele>400.0</ele>
        <time>2018-10-14T07:20:44Z</time>
      </trkpt>
      <trkpt lat="38.4478380" lon="-0.6868600">
        <ele>400.0</ele>
        <time>2018-10-14T07:20:45Z</time>
      </trkpt>
      <trkpt lat="38.4478770" lon="-0.6868700">
        <ele>400.0</ele>
        <time>2018-10-14T07:20:46Z</time>
      </trkpt>
      <trkpt lat="38.4478950" lon="-0.6868730">
        <ele>400.0</ele>
        <time>2018-10-14T07:20:47Z</time>
      </trkpt>
      <trkpt lat="38.4478950" lon="-0.6868730">
        <ele>400.0</ele>
        <time>2018-10-14T07:20:48Z</time>
      </trkpt>
      <trkpt lat="38.4479370" lon="-0.6868750">
        <ele>400.0</ele>
        <time>2018-10-14T07:20:49Z</time>
      </trkpt>
      <trkpt lat="38.4479580" lon="-0.6868770">
        <ele>400.0</ele>
        <time>2018-10-14T07:20:50Z</time>
      </trkpt>
      <trkpt lat="38.4479580" lon="-0.6868770">
        <ele>400.0</ele>
        <time>2018-10-14T07:20:51Z</time>
      </trkpt>
      <trkpt lat="38.4480030" lon="-0.6868800">
        <ele>400.0</ele>
        <time>2018-10-14T07:20:52Z</time>
      </trkpt>
      <trkpt lat="38.4480030" lon="-0.6868800">
        <ele>400.0</ele>
        <time>2018-10-14T07:20:53Z</time>
      </trkpt>
      <trkpt lat="38.4480450" lon="-0.6868870">
        <ele>400.0</ele>
        <time>2018-10-14T07:20:54Z</time>
      </trkpt>
      <trkpt lat="38.4480450" lon="-0.6868870">
        <ele>400.0</ele>
        <time>2018-10-14T07:20:55Z</time>
      </trkpt>
      <trkpt lat="38.4480870" lon="-0.6868970">
        <ele>400.0</ele>
        <time>2018-10-14T07:20:56Z</time>
      </trkpt>
      <trkpt lat="38.4480870" lon="-0.6868970">
        <ele>401.0</ele>
        <time>2018-10-14T07:20:57Z</time>
      </trkpt>
      <trkpt lat="38.4481270" lon="-0.6868980">
        <ele>401.0</ele>
        <time>2018-10-14T07:20:58Z</time>
      </trkpt>
      <trkpt lat="38.4481270" lon="-0.6868980">
        <ele>401.0</ele>
        <time>2018-10-14T07:20:59Z</time>
      </trkpt>
      <trkpt lat="38.4481680" lon="-0.6868970">
        <ele>401.0</ele>
        <time>2018-10-14T07:21:00Z</time>
      </trkpt>
      <trkpt lat="38.4481880" lon="-0.6868970">
        <ele>401.0</ele>
        <time>2018-10-14T07:21:01Z</time>
      </trkpt>
      <trkpt lat="38.4482120" lon="-0.6868970">
        <ele>401.0</ele>
        <time>2018-10-14T07:21:02Z</time>
      </trkpt>
      <trkpt lat="38.4482120" lon="-0.6868970">
        <ele>401.0</ele>
        <time>2018-10-14T07:21:03Z</time>
      </trkpt>
      <trkpt lat="38.4482550" lon="-0.6869000">
        <ele>401.0</ele>
        <time>2018-10-14T07:21:04Z</time>
      </trkpt>
      <trkpt lat="38.4482550" lon="-0.6869000">
        <ele>401.0</ele>
        <time>2018-10-14T07:21:05Z</time>
      </trkpt>
      <trkpt lat="38.4482980" lon="-0.6869020">
        <ele>401.0</ele>
        <time>2018-10-14T07:21:06Z</time>
      </trkpt>
      <trkpt lat="38.4482980" lon="-0.6869020">
        <ele>401.0</ele>
        <time>2018-10-14T07:21:07Z</time>
      </trkpt>
      <trkpt lat="38.4483400" lon="-0.6868950">
        <ele>401.0</ele>
        <time>2018-10-14T07:21:08Z</time>
      </trkpt>
      <trkpt lat="38.4483400" lon="-0.6868950">
        <ele>401.0</ele>
        <time>2018-10-14T07:21:09Z</time>
      </trkpt>
      <trkpt lat="38.4483820" lon="-0.6868880">
        <ele>401.0</ele>
        <time>2018-10-14T07:21:10Z</time>
      </trkpt>
      <trkpt lat="38.4484030" lon="-0.6868830">
        <ele>401.0</ele>
        <time>2018-10-14T07:21:11Z</time>
      </trkpt>
      <trkpt lat="38.4484030" lon="-0.6868830">
        <ele>402.0</ele>
        <time>2018-10-14T07:21:12Z</time>
      </trkpt>
      <trkpt lat="38.4484470" lon="-0.6868770">
        <ele>402.0</ele>
        <time>2018-10-14T07:21:13Z</time>
      </trkpt>
      <trkpt lat="38.4484700" lon="-0.6868780">
        <ele>402.0</ele>
        <time>2018-10-14T07:21:14Z</time>
      </trkpt>
      <trkpt lat="38.4484700" lon="-0.6868780">
        <ele>402.0</ele>
        <time>2018-10-14T07:21:15Z</time>
      </trkpt>
      <trkpt lat="38.4485100" lon="-0.6868700">
        <ele>402.0</ele>
        <time>2018-10-14T07:21:16Z</time>
      </trkpt>
      <trkpt lat="38.4485100" lon="-0.6868700">
        <ele>402.0</ele>
        <time>2018-10-14T07:21:17Z</time>
      </trkpt>
      <trkpt lat="38.4485520" lon="-0.6868670">
        <ele>402.0</ele>
        <time>2018-10-14T07:21:18Z</time>
      </trkpt>
      <trkpt lat="38.4485520" lon="-0.6868670">
        <ele>402.0</ele>
        <time>2018-10-14T07:21:19Z</time>
      </trkpt>
      <trkpt lat="38.4485880" lon="-0.6868530">
        <ele>402.0</ele>
        <time>2018-10-14T07:21:20Z</time>
      </trkpt>
      <trkpt lat="38.4485880" lon="-0.6868530">
        <ele>402.0</ele>
        <time>2018-10-14T07:21:21Z</time>
      </trkpt>
      <trkpt lat="38.4486280" lon="-0.6868470">
        <ele>402.0</ele>
        <time>2018-10-14T07:21:22Z</time>
      </trkpt>
      <trkpt lat="38.4486280" lon="-0.6868470">
        <ele>402.0</ele>
        <time>2018-10-14T07:21:23Z</time>
      </trkpt>
      <trkpt lat="38.4486720" lon="-0.6868350">
        <ele>402.0</ele>
        <time>2018-10-14T07:21:24Z</time>
      </trkpt>
      <trkpt lat="38.4486720" lon="-0.6868350">
        <ele>402.0</ele>
        <time>2018-10-14T07:21:25Z</time>
      </trkpt>
      <trkpt lat="38.4487100" lon="-0.6868220">
        <ele>402.0</ele>
        <time>2018-10-14T07:21:26Z</time>
      </trkpt>
      <trkpt lat="38.4487100" lon="-0.6868220">
        <ele>402.0</ele>
        <time>2018-10-14T07:21:27Z</time>
      </trkpt>
      <trkpt lat="38.4487500" lon="-0.6868050">
        <ele>402.0</ele>
        <time>2018-10-14T07:21:28Z</time>
      </trkpt>
      <trkpt lat="38.4487720" lon="-0.6867970">
        <ele>402.0</ele>
        <time>2018-10-14T07:21:29Z</time>
      </trkpt>
      <trkpt lat="38.4487930" lon="-0.6867870">
        <ele>402.0</ele>
        <time>2018-10-14T07:21:30Z</time>
      </trkpt>
      <trkpt lat="38.4487930" lon="-0.6867870">
        <ele>402.0</ele>
        <time>2018-10-14T07:21:31Z</time>
      </trkpt>
      <trkpt lat="38.4488380" lon="-0.6867670">
        <ele>402.0</ele>
        <time>2018-10-14T07:21:32Z</time>
      </trkpt>
      <trkpt lat="38.4488380" lon="-0.6867670">
        <ele>402.0</ele>
        <time>2018-10-14T07:21:33Z</time>
      </trkpt>
      <trkpt lat="38.4488850" lon="-0.6867520">
        <ele>402.0</ele>
        <time>2018-10-14T07:21:34Z</time>
      </trkpt>
      <trkpt lat="38.4488850" lon="-0.6867520">
        <ele>402.0</ele>
        <time>2018-10-14T07:21:35Z</time>
      </trkpt>
      <trkpt lat="38.4489280" lon="-0.6867350">
        <ele>403.0</ele>
        <time>2018-10-14T07:21:36Z</time>
      </trkpt>
      <trkpt lat="38.4489280" lon="-0.6867350">
        <ele>403.0</ele>
        <time>2018-10-14T07:21:37Z</time>
      </trkpt>
      <trkpt lat="38.4489700" lon="-0.6867080">
        <ele>403.0</ele>
        <time>2018-10-14T07:21:38Z</time>
      </trkpt>
      <trkpt lat="38.4489700" lon="-0.6867080">
        <ele>403.0</ele>
        <time>2018-10-14T07:21:39Z</time>
      </trkpt>
      <trkpt lat="38.4490150" lon="-0.6866870">
        <ele>403.0</ele>
        <time>2018-10-14T07:21:40Z</time>
      </trkpt>
      <trkpt lat="38.4490380" lon="-0.6866770">
        <ele>403.0</ele>
        <time>2018-10-14T07:21:41Z</time>
      </trkpt>
      <trkpt lat="38.4490380" lon="-0.6866770">
        <ele>403.0</ele>
        <time>2018-10-14T07:21:42Z</time>
      </trkpt>
      <trkpt lat="38.4490820" lon="-0.6866600">
        <ele>403.0</ele>
        <time>2018-10-14T07:21:43Z</time>
      </trkpt>
      <trkpt lat="38.4491050" lon="-0.6866480">
        <ele>404.0</ele>
        <time>2018-10-14T07:21:44Z</time>
      </trkpt>
      <trkpt lat="38.4491050" lon="-0.6866480">
        <ele>404.0</ele>
        <time>2018-10-14T07:21:45Z</time>
      </trkpt>
      <trkpt lat="38.4491500" lon="-0.6866280">
        <ele>404.0</ele>
        <time>2018-10-14T07:21:46Z</time>
      </trkpt>
      <trkpt lat="38.4491500" lon="-0.6866280">
        <ele>404.0</ele>
        <time>2018-10-14T07:21:47Z</time>
      </trkpt>
      <trkpt lat="38.4491950" lon="-0.6866100">
        <ele>404.0</ele>
        <time>2018-10-14T07:21:48Z</time>
      </trkpt>
      <trkpt lat="38.4491950" lon="-0.6866100">
        <ele>404.0</ele>
        <time>2018-10-14T07:21:49Z</time>
      </trkpt>
      <trkpt lat="38.4492370" lon="-0.6865850">
        <ele>404.0</ele>
        <time>2018-10-14T07:21:50Z</time>
      </trkpt>
      <trkpt lat="38.4492370" lon="-0.6865850">
        <ele>404.0</ele>
        <time>2018-10-14T07:21:51Z</time>
      </trkpt>
      <trkpt lat="38.4492750" lon="-0.6865550">
        <ele>405.0</ele>
        <time>2018-10-14T07:21:52Z</time>
      </trkpt>
      <trkpt lat="38.4492750" lon="-0.6865550">
        <ele>405.0</ele>
        <time>2018-10-14T07:21:53Z</time>
      </trkpt>
      <trkpt lat="38.4493150" lon="-0.6865280">
        <ele>405.0</ele>
        <time>2018-10-14T07:21:54Z</time>
      </trkpt>
      <trkpt lat="38.4493150" lon="-0.6865280">
        <ele>405.0</ele>
        <time>2018-10-14T07:21:55Z</time>
      </trkpt>
      <trkpt lat="38.4493550" lon="-0.6865020">
        <ele>405.0</ele>
        <time>2018-10-14T07:21:56Z</time>
      </trkpt>
      <trkpt lat="38.4493550" lon="-0.6865020">
        <ele>405.0</ele>
        <time>2018-10-14T07:21:57Z</time>
      </trkpt>
      <trkpt lat="38.4493930" lon="-0.6864680">
        <ele>405.0</ele>
        <time>2018-10-14T07:21:58Z</time>
      </trkpt>
      <trkpt lat="38.4493930" lon="-0.6864680">
        <ele>405.0</ele>
        <time>2018-10-14T07:21:59Z</time>
      </trkpt>
      <trkpt lat="38.4494270" lon="-0.6864370">
        <ele>405.0</ele>
        <time>2018-10-14T07:22:00Z</time>
      </trkpt>
      <trkpt lat="38.4494430" lon="-0.6864250">
        <ele>406.0</ele>
        <time>2018-10-14T07:22:01Z</time>
      </trkpt>
      <trkpt lat="38.4494620" lon="-0.6864120">
        <ele>406.0</ele>
        <time>2018-10-14T07:22:02Z</time>
      </trkpt>
      <trkpt lat="38.4494620" lon="-0.6864120">
        <ele>406.0</ele>
        <time>2018-10-14T07:22:03Z</time>
      </trkpt>
      <trkpt lat="38.4495000" lon="-0.6863800">
        <ele>406.0</ele>
        <time>2018-10-14T07:22:04Z</time>
      </trkpt>
      <trkpt lat="38.4495000" lon="-0.6863800">
        <ele>406.0</ele>
        <time>2018-10-14T07:22:05Z</time>
      </trkpt>
      <trkpt lat="38.4495370" lon="-0.6863400">
        <ele>406.0</ele>
        <time>2018-10-14T07:22:06Z</time>
      </trkpt>
      <trkpt lat="38.4495580" lon="-0.6863200">
        <ele>406.0</ele>
        <time>2018-10-14T07:22:07Z</time>
      </trkpt>
      <trkpt lat="38.4495820" lon="-0.6863000">
        <ele>406.0</ele>
        <time>2018-10-14T07:22:08Z</time>
      </trkpt>
      <trkpt lat="38.4495820" lon="-0.6863000">
        <ele>406.0</ele>
        <time>2018-10-14T07:22:09Z</time>
      </trkpt>
      <trkpt lat="38.4496280" lon="-0.6862580">
        <ele>406.0</ele>
        <time>2018-10-14T07:22:10Z</time>
      </trkpt>
      <trkpt lat="38.4496280" lon="-0.6862580">
        <ele>406.0</ele>
        <time>2018-10-14T07:22:11Z</time>
      </trkpt>
      <trkpt lat="38.4496770" lon="-0.6862150">
        <ele>406.0</ele>
        <time>2018-10-14T07:22:12Z</time>
      </trkpt>
      <trkpt lat="38.4496770" lon="-0.6862150">
        <ele>406.0</ele>
        <time>2018-10-14T07:22:13Z</time>
      </trkpt>
      <trkpt lat="38.4497230" lon="-0.6861770">
        <ele>406.0</ele>
        <time>2018-10-14T07:22:14Z</time>
      </trkpt>
      <trkpt lat="38.4497470" lon="-0.6861550">
        <ele>406.0</ele>
        <time>2018-10-14T07:22:15Z</time>
      </trkpt>
      <trkpt lat="38.4497470" lon="-0.6861550">
        <ele>406.0</ele>
        <time>2018-10-14T07:22:16Z</time>
      </trkpt>
      <trkpt lat="38.4497900" lon="-0.6861120">
        <ele>406.0</ele>
        <time>2018-10-14T07:22:17Z</time>
      </trkpt>
      <trkpt lat="38.4497900" lon="-0.6861120">
        <ele>406.0</ele>
        <time>2018-10-14T07:22:18Z</time>
      </trkpt>
      <trkpt lat="38.4498320" lon="-0.6860630">
        <ele>406.0</ele>
        <time>2018-10-14T07:22:19Z</time>
      </trkpt>
      <trkpt lat="38.4498550" lon="-0.6860400">
        <ele>406.0</ele>
        <time>2018-10-14T07:22:20Z</time>
      </trkpt>
      <trkpt lat="38.4498550" lon="-0.6860400">
        <ele>406.0</ele>
        <time>2018-10-14T07:22:21Z</time>
      </trkpt>
      <trkpt lat="38.4499030" lon="-0.6859930">
        <ele>406.0</ele>
        <time>2018-10-14T07:22:22Z</time>
      </trkpt>
      <trkpt lat="38.4499030" lon="-0.6859930">
        <ele>406.0</ele>
        <time>2018-10-14T07:22:23Z</time>
      </trkpt>
      <trkpt lat="38.4499480" lon="-0.6859450">
        <ele>406.0</ele>
        <time>2018-10-14T07:22:24Z</time>
      </trkpt>
      <trkpt lat="38.4499480" lon="-0.6859450">
        <ele>406.0</ele>
        <time>2018-10-14T07:22:25Z</time>
      </trkpt>
      <trkpt lat="38.4499930" lon="-0.6858950">
        <ele>406.0</ele>
        <time>2018-10-14T07:22:26Z</time>
      </trkpt>
      <trkpt lat="38.4499930" lon="-0.6858950">
        <ele>406.0</ele>
        <time>2018-10-14T07:22:27Z</time>
      </trkpt>
      <trkpt lat="38.4500350" lon="-0.6858430">
        <ele>406.0</ele>
        <time>2018-10-14T07:22:28Z</time>
      </trkpt>
      <trkpt lat="38.4500580" lon="-0.6858180">
        <ele>406.0</ele>
        <time>2018-10-14T07:22:29Z</time>
      </trkpt>
      <trkpt lat="38.4500580" lon="-0.6858180">
        <ele>406.0</ele>
        <time>2018-10-14T07:22:30Z</time>
      </trkpt>
      <trkpt lat="38.4501030" lon="-0.6857700">
        <ele>406.0</ele>
        <time>2018-10-14T07:22:31Z</time>
      </trkpt>
      <trkpt lat="38.4501030" lon="-0.6857700">
        <ele>406.0</ele>
        <time>2018-10-14T07:22:32Z</time>
      </trkpt>
      <trkpt lat="38.4501420" lon="-0.6857170">
        <ele>406.0</ele>
        <time>2018-10-14T07:22:33Z</time>
      </trkpt>
      <trkpt lat="38.4501420" lon="-0.6857170">
        <ele>406.0</ele>
        <time>2018-10-14T07:22:34Z</time>
      </trkpt>
      <trkpt lat="38.4501800" lon="-0.6856680">
        <ele>406.0</ele>
        <time>2018-10-14T07:22:35Z</time>
      </trkpt>
      <trkpt lat="38.4501800" lon="-0.6856680">
        <ele>406.0</ele>
        <time>2018-10-14T07:22:36Z</time>
      </trkpt>
      <trkpt lat="38.4502120" lon="-0.6856180">
        <ele>406.0</ele>
        <time>2018-10-14T07:22:37Z</time>
      </trkpt>
      <trkpt lat="38.4502300" lon="-0.6855920">
        <ele>406.0</ele>
        <time>2018-10-14T07:22:38Z</time>
      </trkpt>
      <trkpt lat="38.4502300" lon="-0.6855920">
        <ele>406.0</ele>
        <time>2018-10-14T07:22:39Z</time>
      </trkpt>
      <trkpt lat="38.4502650" lon="-0.6855370">
        <ele>406.0</ele>
        <time>2018-10-14T07:22:40Z</time>
      </trkpt>
      <trkpt lat="38.4502650" lon="-0.6855370">
        <ele>406.0</ele>
        <time>2018-10-14T07:22:41Z</time>
      </trkpt>
      <trkpt lat="38.4503030" lon="-0.6854870">
        <ele>406.0</ele>
        <time>2018-10-14T07:22:42Z</time>
      </trkpt>
      <trkpt lat="38.4503030" lon="-0.6854870">
        <ele>406.0</ele>
        <time>2018-10-14T07:22:43Z</time>
      </trkpt>
      <trkpt lat="38.4503330" lon="-0.6854370">
        <ele>406.0</ele>
        <time>2018-10-14T07:22:44Z</time>
      </trkpt>
      <trkpt lat="38.4503330" lon="-0.6854370">
        <ele>406.0</ele>
        <time>2018-10-14T07:22:45Z</time>
      </trkpt>
      <trkpt lat="38.4503600" lon="-0.6853900">
        <ele>406.0</ele>
        <time>2018-10-14T07:22:46Z</time>
      </trkpt>
      <trkpt lat="38.4503600" lon="-0.6853900">
        <ele>406.0</ele>
        <time>2018-10-14T07:22:47Z</time>
      </trkpt>
      <trkpt lat="38.4503900" lon="-0.6853470">
        <ele>406.0</ele>
        <time>2018-10-14T07:22:48Z</time>
      </trkpt>
      <trkpt lat="38.4503900" lon="-0.6853470">
        <ele>407.0</ele>
        <time>2018-10-14T07:22:49Z</time>
      </trkpt>
      <trkpt lat="38.4504130" lon="-0.6853070">
        <ele>407.0</ele>
        <time>2018-10-14T07:22:50Z</time>
      </trkpt>
      <trkpt lat="38.4504250" lon="-0.6852830">
        <ele>407.0</ele>
        <time>2018-10-14T07:22:51Z</time>
      </trkpt>
      <trkpt lat="38.4504250" lon="-0.6852830">
        <ele>407.0</ele>
        <time>2018-10-14T07:22:52Z</time>
      </trkpt>
      <trkpt lat="38.4504470" lon="-0.6852380">
        <ele>407.0</ele>
        <time>2018-10-14T07:22:53Z</time>
      </trkpt>
      <trkpt lat="38.4504470" lon="-0.6852380">
        <ele>407.0</ele>
        <time>2018-10-14T07:22:54Z</time>
      </trkpt>
      <trkpt lat="38.4504630" lon="-0.6851970">
        <ele>407.0</ele>
        <time>2018-10-14T07:22:55Z</time>
      </trkpt>
      <trkpt lat="38.4504700" lon="-0.6851780">
        <ele>407.0</ele>
        <time>2018-10-14T07:22:56Z</time>
      </trkpt>
      <trkpt lat="38.4504700" lon="-0.6851780">
        <ele>407.0</ele>
        <time>2018-10-14T07:22:57Z</time>
      </trkpt>
      <trkpt lat="38.4504800" lon="-0.6851400">
        <ele>407.0</ele>
        <time>2018-10-14T07:22:58Z</time>
      </trkpt>
      <trkpt lat="38.4504800" lon="-0.6851400">
        <ele>407.0</ele>
        <time>2018-10-14T07:22:59Z</time>
      </trkpt>
      <trkpt lat="38.4504970" lon="-0.6850920">
        <ele>407.0</ele>
        <time>2018-10-14T07:23:00Z</time>
      </trkpt>
      <trkpt lat="38.4504970" lon="-0.6850920">
        <ele>407.0</ele>
        <time>2018-10-14T07:23:01Z</time>
      </trkpt>
      <trkpt lat="38.4505170" lon="-0.6850330">
        <ele>408.0</ele>
        <time>2018-10-14T07:23:02Z</time>
      </trkpt>
      <trkpt lat="38.4505170" lon="-0.6850330">
        <ele>408.0</ele>
        <time>2018-10-14T07:23:03Z</time>
      </trkpt>
      <trkpt lat="38.4505420" lon="-0.6849730">
        <ele>408.0</ele>
        <time>2018-10-14T07:23:04Z</time>
      </trkpt>
      <trkpt lat="38.4505420" lon="-0.6849730">
        <ele>408.0</ele>
        <time>2018-10-14T07:23:05Z</time>
      </trkpt>
      <trkpt lat="38.4505630" lon="-0.6849080">
        <ele>408.0</ele>
        <time>2018-10-14T07:23:06Z</time>
      </trkpt>
      <trkpt lat="38.4505630" lon="-0.6849080">
        <ele>408.0</ele>
        <time>2018-10-14T07:23:07Z</time>
      </trkpt>
      <trkpt lat="38.4505820" lon="-0.6848480">
        <ele>408.0</ele>
        <time>2018-10-14T07:23:08Z</time>
      </trkpt>
      <trkpt lat="38.4505820" lon="-0.6848480">
        <ele>408.0</ele>
        <time>2018-10-14T07:23:09Z</time>
      </trkpt>
      <trkpt lat="38.4506020" lon="-0.6847880">
        <ele>408.0</ele>
        <time>2018-10-14T07:23:10Z</time>
      </trkpt>
      <trkpt lat="38.4506020" lon="-0.6847880">
        <ele>408.0</ele>
        <time>2018-10-14T07:23:11Z</time>
      </trkpt>
      <trkpt lat="38.4506170" lon="-0.6847270">
        <ele>408.0</ele>
        <time>2018-10-14T07:23:12Z</time>
      </trkpt>
      <trkpt lat="38.4506170" lon="-0.6847270">
        <ele>408.0</ele>
        <time>2018-10-14T07:23:13Z</time>
      </trkpt>
      <trkpt lat="38.4506320" lon="-0.6846680">
        <ele>408.0</ele>
        <time>2018-10-14T07:23:14Z</time>
      </trkpt>
      <trkpt lat="38.4506320" lon="-0.6846680">
        <ele>408.0</ele>
        <time>2018-10-14T07:23:15Z</time>
      </trkpt>
      <trkpt lat="38.4506450" lon="-0.6846080">
        <ele>408.0</ele>
        <time>2018-10-14T07:23:16Z</time>
      </trkpt>
      <trkpt lat="38.4506450" lon="-0.6846080">
        <ele>408.0</ele>
        <time>2018-10-14T07:23:17Z</time>
      </trkpt>
      <trkpt lat="38.4506580" lon="-0.6845480">
        <ele>409.0</ele>
        <time>2018-10-14T07:23:18Z</time>
      </trkpt>
      <trkpt lat="38.4506580" lon="-0.6845480">
        <ele>409.0</ele>
        <time>2018-10-14T07:23:19Z</time>
      </trkpt>
      <trkpt lat="38.4506730" lon="-0.6844880">
        <ele>409.0</ele>
        <time>2018-10-14T07:23:20Z</time>
      </trkpt>
      <trkpt lat="38.4506730" lon="-0.6844880">
        <ele>409.0</ele>
        <time>2018-10-14T07:23:21Z</time>
      </trkpt>
      <trkpt lat="38.4506880" lon="-0.6844300">
        <ele>410.0</ele>
        <time>2018-10-14T07:23:22Z</time>
      </trkpt>
      <trkpt lat="38.4506880" lon="-0.6844300">
        <ele>410.0</ele>
        <time>2018-10-14T07:23:23Z</time>
      </trkpt>
      <trkpt lat="38.4507030" lon="-0.6843670">
        <ele>410.0</ele>
        <time>2018-10-14T07:23:24Z</time>
      </trkpt>
      <trkpt lat="38.4507030" lon="-0.6843670">
        <ele>410.0</ele>
        <time>2018-10-14T07:23:25Z</time>
      </trkpt>
      <trkpt lat="38.4507220" lon="-0.6843020">
        <ele>410.0</ele>
        <time>2018-10-14T07:23:26Z</time>
      </trkpt>
      <trkpt lat="38.4507220" lon="-0.6843020">
        <ele>410.0</ele>
        <time>2018-10-14T07:23:27Z</time>
      </trkpt>
      <trkpt lat="38.4507370" lon="-0.6842350">
        <ele>410.0</ele>
        <time>2018-10-14T07:23:28Z</time>
      </trkpt>
      <trkpt lat="38.4507430" lon="-0.6842020">
        <ele>410.0</ele>
        <time>2018-10-14T07:23:29Z</time>
      </trkpt>
      <trkpt lat="38.4507500" lon="-0.6841680">
        <ele>410.0</ele>
        <time>2018-10-14T07:23:30Z</time>
      </trkpt>
      <trkpt lat="38.4507500" lon="-0.6841680">
        <ele>410.0</ele>
        <time>2018-10-14T07:23:31Z</time>
      </trkpt>
      <trkpt lat="38.4507620" lon="-0.6841000">
        <ele>411.0</ele>
        <time>2018-10-14T07:23:32Z</time>
      </trkpt>
      <trkpt lat="38.4507620" lon="-0.6841000">
        <ele>411.0</ele>
        <time>2018-10-14T07:23:33Z</time>
      </trkpt>
      <trkpt lat="38.4507720" lon="-0.6840350">
        <ele>411.0</ele>
        <time>2018-10-14T07:23:34Z</time>
      </trkpt>
      <trkpt lat="38.4507720" lon="-0.6840350">
        <ele>411.0</ele>
        <time>2018-10-14T07:23:35Z</time>
      </trkpt>
      <trkpt lat="38.4507850" lon="-0.6839720">
        <ele>411.0</ele>
        <time>2018-10-14T07:23:36Z</time>
      </trkpt>
      <trkpt lat="38.4507850" lon="-0.6839720">
        <ele>411.0</ele>
        <time>2018-10-14T07:23:37Z</time>
      </trkpt>
      <trkpt lat="38.4507970" lon="-0.6839070">
        <ele>411.0</ele>
        <time>2018-10-14T07:23:38Z</time>
      </trkpt>
      <trkpt lat="38.4508050" lon="-0.6838730">
        <ele>411.0</ele>
        <time>2018-10-14T07:23:39Z</time>
      </trkpt>
      <trkpt lat="38.4508120" lon="-0.6838380">
        <ele>412.0</ele>
        <time>2018-10-14T07:23:40Z</time>
      </trkpt>
      <trkpt lat="38.4508120" lon="-0.6838380">
        <ele>412.0</ele>
        <time>2018-10-14T07:23:41Z</time>
      </trkpt>
      <trkpt lat="38.4508270" lon="-0.6837750">
        <ele>412.0</ele>
        <time>2018-10-14T07:23:42Z</time>
      </trkpt>
      <trkpt lat="38.4508270" lon="-0.6837750">
        <ele>412.0</ele>
        <time>2018-10-14T07:23:43Z</time>
      </trkpt>
      <trkpt lat="38.4508420" lon="-0.6837080">
        <ele>412.0</ele>
        <time>2018-10-14T07:23:44Z</time>
      </trkpt>
      <trkpt lat="38.4508420" lon="-0.6837080">
        <ele>412.0</ele>
        <time>2018-10-14T07:23:45Z</time>
      </trkpt>
      <trkpt lat="38.4508550" lon="-0.6836420">
        <ele>412.0</ele>
        <time>2018-10-14T07:23:46Z</time>
      </trkpt>
      <trkpt lat="38.4508650" lon="-0.6836080">
        <ele>412.0</ele>
        <time>2018-10-14T07:23:47Z</time>
      </trkpt>
      <trkpt lat="38.4508650" lon="-0.6836080">
        <ele>412.0</ele>
        <time>2018-10-14T07:23:48Z</time>
      </trkpt>
      <trkpt lat="38.4508800" lon="-0.6835430">
        <ele>412.0</ele>
        <time>2018-10-14T07:23:49Z</time>
      </trkpt>
      <trkpt lat="38.4508800" lon="-0.6835430">
        <ele>412.0</ele>
        <time>2018-10-14T07:23:50Z</time>
      </trkpt>
      <trkpt lat="38.4508930" lon="-0.6834800">
        <ele>412.0</ele>
        <time>2018-10-14T07:23:51Z</time>
      </trkpt>
      <trkpt lat="38.4508930" lon="-0.6834800">
        <ele>412.0</ele>
        <time>2018-10-14T07:23:52Z</time>
      </trkpt>
      <trkpt lat="38.4509100" lon="-0.6834120">
        <ele>412.0</ele>
        <time>2018-10-14T07:23:53Z</time>
      </trkpt>
      <trkpt lat="38.4509170" lon="-0.6833770">
        <ele>412.0</ele>
        <time>2018-10-14T07:23:54Z</time>
      </trkpt>
      <trkpt lat="38.4509170" lon="-0.6833770">
        <ele>412.0</ele>
        <time>2018-10-14T07:23:55Z</time>
      </trkpt>
      <trkpt lat="38.4509350" lon="-0.6833070">
        <ele>412.0</ele>
        <time>2018-10-14T07:23:56Z</time>
      </trkpt>
      <trkpt lat="38.4509350" lon="-0.6833070">
        <ele>412.0</ele>
        <time>2018-10-14T07:23:57Z</time>
      </trkpt>
      <trkpt lat="38.4509520" lon="-0.6832370">
        <ele>412.0</ele>
        <time>2018-10-14T07:23:58Z</time>
      </trkpt>
      <trkpt lat="38.4509520" lon="-0.6832370">
        <ele>412.0</ele>
        <time>2018-10-14T07:23:59Z</time>
      </trkpt>
      <trkpt lat="38.4509700" lon="-0.6831630">
        <ele>412.0</ele>
        <time>2018-10-14T07:24:00Z</time>
      </trkpt>
      <trkpt lat="38.4509780" lon="-0.6831270">
        <ele>412.0</ele>
        <time>2018-10-14T07:24:01Z</time>
      </trkpt>
      <trkpt lat="38.4509880" lon="-0.6830920">
        <ele>412.0</ele>
        <time>2018-10-14T07:24:02Z</time>
      </trkpt>
      <trkpt lat="38.4509880" lon="-0.6830920">
        <ele>412.0</ele>
        <time>2018-10-14T07:24:03Z</time>
      </trkpt>
      <trkpt lat="38.4510050" lon="-0.6830180">
        <ele>412.0</ele>
        <time>2018-10-14T07:24:04Z</time>
      </trkpt>
      <trkpt lat="38.4510050" lon="-0.6830180">
        <ele>412.0</ele>
        <time>2018-10-14T07:24:05Z</time>
      </trkpt>
      <trkpt lat="38.4510200" lon="-0.6829450">
        <ele>412.0</ele>
        <time>2018-10-14T07:24:06Z</time>
      </trkpt>
      <trkpt lat="38.4510200" lon="-0.6829450">
        <ele>412.0</ele>
        <time>2018-10-14T07:24:07Z</time>
      </trkpt>
      <trkpt lat="38.4510350" lon="-0.6828770">
        <ele>412.0</ele>
        <time>2018-10-14T07:24:08Z</time>
      </trkpt>
      <trkpt lat="38.4510350" lon="-0.6828770">
        <ele>412.0</ele>
        <time>2018-10-14T07:24:09Z</time>
      </trkpt>
      <trkpt lat="38.4510530" lon="-0.6828070">
        <ele>412.0</ele>
        <time>2018-10-14T07:24:10Z</time>
      </trkpt>
      <trkpt lat="38.4510530" lon="-0.6828070">
        <ele>412.0</ele>
        <time>2018-10-14T07:24:11Z</time>
      </trkpt>
      <trkpt lat="38.4510700" lon="-0.6827370">
        <ele>412.0</ele>
        <time>2018-10-14T07:24:12Z</time>
      </trkpt>
      <trkpt lat="38.4510780" lon="-0.6827020">
        <ele>412.0</ele>
        <time>2018-10-14T07:24:13Z</time>
      </trkpt>
      <trkpt lat="38.4510780" lon="-0.6827020">
        <ele>413.0</ele>
        <time>2018-10-14T07:24:14Z</time>
      </trkpt>
      <trkpt lat="38.4510920" lon="-0.6826330">
        <ele>413.0</ele>
        <time>2018-10-14T07:24:15Z</time>
      </trkpt>
      <trkpt lat="38.4510920" lon="-0.6826330">
        <ele>413.0</ele>
        <time>2018-10-14T07:24:16Z</time>
      </trkpt>
      <trkpt lat="38.4511050" lon="-0.6825650">
        <ele>413.0</ele>
        <time>2018-10-14T07:24:17Z</time>
      </trkpt>
      <trkpt lat="38.4511050" lon="-0.6825650">
        <ele>413.0</ele>
        <time>2018-10-14T07:24:18Z</time>
      </trkpt>
      <trkpt lat="38.4511220" lon="-0.6824950">
        <ele>413.0</ele>
        <time>2018-10-14T07:24:19Z</time>
      </trkpt>
      <trkpt lat="38.4511300" lon="-0.6824620">
        <ele>413.0</ele>
        <time>2018-10-14T07:24:20Z</time>
      </trkpt>
      <trkpt lat="38.4511300" lon="-0.6824620">
        <ele>413.0</ele>
        <time>2018-10-14T07:24:21Z</time>
      </trkpt>
      <trkpt lat="38.4511470" lon="-0.6823930">
        <ele>413.0</ele>
        <time>2018-10-14T07:24:22Z</time>
      </trkpt>
      <trkpt lat="38.4511470" lon="-0.6823930">
        <ele>413.0</ele>
        <time>2018-10-14T07:24:23Z</time>
      </trkpt>
      <trkpt lat="38.4511630" lon="-0.6823300">
        <ele>414.0</ele>
        <time>2018-10-14T07:24:24Z</time>
      </trkpt>
      <trkpt lat="38.4511630" lon="-0.6823300">
        <ele>414.0</ele>
        <time>2018-10-14T07:24:25Z</time>
      </trkpt>
      <trkpt lat="38.4511820" lon="-0.6822730">
        <ele>414.0</ele>
        <time>2018-10-14T07:24:26Z</time>
      </trkpt>
      <trkpt lat="38.4511930" lon="-0.6822430">
        <ele>414.0</ele>
        <time>2018-10-14T07:24:27Z</time>
      </trkpt>
      <trkpt lat="38.4511930" lon="-0.6822430">
        <ele>414.0</ele>
        <time>2018-10-14T07:24:28Z</time>
      </trkpt>
      <trkpt lat="38.4512180" lon="-0.6821720">
        <ele>414.0</ele>
        <time>2018-10-14T07:24:29Z</time>
      </trkpt>
      <trkpt lat="38.4512330" lon="-0.6821350">
        <ele>414.0</ele>
        <time>2018-10-14T07:24:30Z</time>
      </trkpt>
      <trkpt lat="38.4512330" lon="-0.6821350">
        <ele>414.0</ele>
        <time>2018-10-14T07:24:31Z</time>
      </trkpt>
      <trkpt lat="38.4512570" lon="-0.6820620">
        <ele>414.0</ele>
        <time>2018-10-14T07:24:32Z</time>
      </trkpt>
      <trkpt lat="38.4512570" lon="-0.6820620">
        <ele>414.0</ele>
        <time>2018-10-14T07:24:33Z</time>
      </trkpt>
      <trkpt lat="38.4512850" lon="-0.6819920">
        <ele>414.0</ele>
        <time>2018-10-14T07:24:34Z</time>
      </trkpt>
      <trkpt lat="38.4512850" lon="-0.6819920">
        <ele>414.0</ele>
        <time>2018-10-14T07:24:35Z</time>
      </trkpt>
      <trkpt lat="38.4513120" lon="-0.6819280">
        <ele>414.0</ele>
        <time>2018-10-14T07:24:36Z</time>
      </trkpt>
      <trkpt lat="38.4513120" lon="-0.6819280">
        <ele>414.0</ele>
        <time>2018-10-14T07:24:37Z</time>
      </trkpt>
      <trkpt lat="38.4513380" lon="-0.6818680">
        <ele>414.0</ele>
        <time>2018-10-14T07:24:38Z</time>
      </trkpt>
      <trkpt lat="38.4513380" lon="-0.6818680">
        <ele>414.0</ele>
        <time>2018-10-14T07:24:39Z</time>
      </trkpt>
      <trkpt lat="38.4513720" lon="-0.6818050">
        <ele>415.0</ele>
        <time>2018-10-14T07:24:40Z</time>
      </trkpt>
      <trkpt lat="38.4513720" lon="-0.6818050">
        <ele>415.0</ele>
        <time>2018-10-14T07:24:41Z</time>
      </trkpt>
      <trkpt lat="38.4514120" lon="-0.6817330">
        <ele>415.0</ele>
        <time>2018-10-14T07:24:42Z</time>
      </trkpt>
      <trkpt lat="38.4514120" lon="-0.6817330">
        <ele>415.0</ele>
        <time>2018-10-14T07:24:43Z</time>
      </trkpt>
      <trkpt lat="38.4514530" lon="-0.6816630">
        <ele>415.0</ele>
        <time>2018-10-14T07:24:44Z</time>
      </trkpt>
      <trkpt lat="38.4514530" lon="-0.6816630">
        <ele>415.0</ele>
        <time>2018-10-14T07:24:45Z</time>
      </trkpt>
      <trkpt lat="38.4514980" lon="-0.6815930">
        <ele>415.0</ele>
        <time>2018-10-14T07:24:46Z</time>
      </trkpt>
      <trkpt lat="38.4514980" lon="-0.6815930">
        <ele>415.0</ele>
        <time>2018-10-14T07:24:47Z</time>
      </trkpt>
      <trkpt lat="38.4515430" lon="-0.6815250">
        <ele>416.0</ele>
        <time>2018-10-14T07:24:48Z</time>
      </trkpt>
      <trkpt lat="38.4515430" lon="-0.6815250">
        <ele>416.0</ele>
        <time>2018-10-14T07:24:49Z</time>
      </trkpt>
      <trkpt lat="38.4515920" lon="-0.6814480">
        <ele>416.0</ele>
        <time>2018-10-14T07:24:50Z</time>
      </trkpt>
      <trkpt lat="38.4515920" lon="-0.6814480">
        <ele>416.0</ele>
        <time>2018-10-14T07:24:51Z</time>
      </trkpt>
      <trkpt lat="38.4516430" lon="-0.6813700">
        <ele>416.0</ele>
        <time>2018-10-14T07:24:52Z</time>
      </trkpt>
      <trkpt lat="38.4516720" lon="-0.6813300">
        <ele>416.0</ele>
        <time>2018-10-14T07:24:53Z</time>
      </trkpt>
      <trkpt lat="38.4517000" lon="-0.6812920">
        <ele>416.0</ele>
        <time>2018-10-14T07:24:54Z</time>
      </trkpt>
      <trkpt lat="38.4517000" lon="-0.6812920">
        <ele>416.0</ele>
        <time>2018-10-14T07:24:55Z</time>
      </trkpt>
      <trkpt lat="38.4517570" lon="-0.6812130">
        <ele>416.0</ele>
        <time>2018-10-14T07:24:56Z</time>
      </trkpt>
      <trkpt lat="38.4517570" lon="-0.6812130">
        <ele>416.0</ele>
        <time>2018-10-14T07:24:57Z</time>
      </trkpt>
      <trkpt lat="38.4518180" lon="-0.6811400">
        <ele>417.0</ele>
        <time>2018-10-14T07:24:58Z</time>
      </trkpt>
      <trkpt lat="38.4518180" lon="-0.6811400">
        <ele>417.0</ele>
        <time>2018-10-14T07:24:59Z</time>
      </trkpt>
      <trkpt lat="38.4518770" lon="-0.6810700">
        <ele>417.0</ele>
        <time>2018-10-14T07:25:00Z</time>
      </trkpt>
      <trkpt lat="38.4518770" lon="-0.6810700">
        <ele>417.0</ele>
        <time>2018-10-14T07:25:01Z</time>
      </trkpt>
      <trkpt lat="38.4519320" lon="-0.6810030">
        <ele>417.0</ele>
        <time>2018-10-14T07:25:02Z</time>
      </trkpt>
      <trkpt lat="38.4519580" lon="-0.6809680">
        <ele>417.0</ele>
        <time>2018-10-14T07:25:03Z</time>
      </trkpt>
      <trkpt lat="38.4519580" lon="-0.6809680">
        <ele>417.0</ele>
        <time>2018-10-14T07:25:04Z</time>
      </trkpt>
      <trkpt lat="38.4520150" lon="-0.6809020">
        <ele>417.0</ele>
        <time>2018-10-14T07:25:05Z</time>
      </trkpt>
      <trkpt lat="38.4520150" lon="-0.6809020">
        <ele>417.0</ele>
        <time>2018-10-14T07:25:06Z</time>
      </trkpt>
      <trkpt lat="38.4520680" lon="-0.6808370">
        <ele>417.0</ele>
        <time>2018-10-14T07:25:07Z</time>
      </trkpt>
      <trkpt lat="38.4520980" lon="-0.6808050">
        <ele>417.0</ele>
        <time>2018-10-14T07:25:08Z</time>
      </trkpt>
      <trkpt lat="38.4520980" lon="-0.6808050">
        <ele>418.0</ele>
        <time>2018-10-14T07:25:09Z</time>
      </trkpt>
      <trkpt lat="38.4521570" lon="-0.6807420">
        <ele>418.0</ele>
        <time>2018-10-14T07:25:10Z</time>
      </trkpt>
      <trkpt lat="38.4521570" lon="-0.6807420">
        <ele>418.0</ele>
        <time>2018-10-14T07:25:11Z</time>
      </trkpt>
      <trkpt lat="38.4522220" lon="-0.6806820">
        <ele>418.0</ele>
        <time>2018-10-14T07:25:12Z</time>
      </trkpt>
      <trkpt lat="38.4522220" lon="-0.6806820">
        <ele>418.0</ele>
        <time>2018-10-14T07:25:13Z</time>
      </trkpt>
      <trkpt lat="38.4522880" lon="-0.6806220">
        <ele>418.0</ele>
        <time>2018-10-14T07:25:14Z</time>
      </trkpt>
      <trkpt lat="38.4522880" lon="-0.6806220">
        <ele>418.0</ele>
        <time>2018-10-14T07:25:15Z</time>
      </trkpt>
      <trkpt lat="38.4523580" lon="-0.6805670">
        <ele>418.0</ele>
        <time>2018-10-14T07:25:16Z</time>
      </trkpt>
      <trkpt lat="38.4523580" lon="-0.6805670">
        <ele>418.0</ele>
        <time>2018-10-14T07:25:17Z</time>
      </trkpt>
      <trkpt lat="38.4524280" lon="-0.6805150">
        <ele>418.0</ele>
        <time>2018-10-14T07:25:18Z</time>
      </trkpt>
      <trkpt lat="38.4524280" lon="-0.6805150">
        <ele>418.0</ele>
        <time>2018-10-14T07:25:19Z</time>
      </trkpt>
      <trkpt lat="38.4525000" lon="-0.6804650">
        <ele>418.0</ele>
        <time>2018-10-14T07:25:20Z</time>
      </trkpt>
      <trkpt lat="38.4525000" lon="-0.6804650">
        <ele>419.0</ele>
        <time>2018-10-14T07:25:21Z</time>
      </trkpt>
      <trkpt lat="38.4525730" lon="-0.6804180">
        <ele>419.0</ele>
        <time>2018-10-14T07:25:22Z</time>
      </trkpt>
      <trkpt lat="38.4525730" lon="-0.6804180">
        <ele>419.0</ele>
        <time>2018-10-14T07:25:23Z</time>
      </trkpt>
      <trkpt lat="38.4526480" lon="-0.6803700">
        <ele>419.0</ele>
        <time>2018-10-14T07:25:24Z</time>
      </trkpt>
      <trkpt lat="38.4526480" lon="-0.6803700">
        <ele>419.0</ele>
        <time>2018-10-14T07:25:25Z</time>
      </trkpt>
      <trkpt lat="38.4527280" lon="-0.6803280">
        <ele>419.0</ele>
        <time>2018-10-14T07:25:26Z</time>
      </trkpt>
      <trkpt lat="38.4527280" lon="-0.6803280">
        <ele>419.0</ele>
        <time>2018-10-14T07:25:27Z</time>
      </trkpt>
      <trkpt lat="38.4528050" lon="-0.6802920">
        <ele>419.0</ele>
        <time>2018-10-14T07:25:28Z</time>
      </trkpt>
      <trkpt lat="38.4528050" lon="-0.6802920">
        <ele>419.0</ele>
        <time>2018-10-14T07:25:29Z</time>
      </trkpt>
      <trkpt lat="38.4528800" lon="-0.6802550">
        <ele>419.0</ele>
        <time>2018-10-14T07:25:30Z</time>
      </trkpt>
      <trkpt lat="38.4528800" lon="-0.6802550">
        <ele>419.0</ele>
        <time>2018-10-14T07:25:31Z</time>
      </trkpt>
      <trkpt lat="38.4529570" lon="-0.6802250">
        <ele>419.0</ele>
        <time>2018-10-14T07:25:32Z</time>
      </trkpt>
      <trkpt lat="38.4529570" lon="-0.6802250">
        <ele>419.0</ele>
        <time>2018-10-14T07:25:33Z</time>
      </trkpt>
      <trkpt lat="38.4530320" lon="-0.6801930">
        <ele>419.0</ele>
        <time>2018-10-14T07:25:34Z</time>
      </trkpt>
      <trkpt lat="38.4530320" lon="-0.6801930">
        <ele>419.0</ele>
        <time>2018-10-14T07:25:35Z</time>
      </trkpt>
      <trkpt lat="38.4531100" lon="-0.6801630">
        <ele>419.0</ele>
        <time>2018-10-14T07:25:36Z</time>
      </trkpt>
      <trkpt lat="38.4531100" lon="-0.6801630">
        <ele>420.0</ele>
        <time>2018-10-14T07:25:37Z</time>
      </trkpt>
      <trkpt lat="38.4531870" lon="-0.6801330">
        <ele>420.0</ele>
        <time>2018-10-14T07:25:38Z</time>
      </trkpt>
      <trkpt lat="38.4531870" lon="-0.6801330">
        <ele>420.0</ele>
        <time>2018-10-14T07:25:39Z</time>
      </trkpt>
      <trkpt lat="38.4532630" lon="-0.6801030">
        <ele>420.0</ele>
        <time>2018-10-14T07:25:40Z</time>
      </trkpt>
      <trkpt lat="38.4532630" lon="-0.6801030">
        <ele>420.0</ele>
        <time>2018-10-14T07:25:41Z</time>
      </trkpt>
      <trkpt lat="38.4533370" lon="-0.6800770">
        <ele>420.0</ele>
        <time>2018-10-14T07:25:42Z</time>
      </trkpt>
      <trkpt lat="38.4533770" lon="-0.6800630">
        <ele>420.0</ele>
        <time>2018-10-14T07:25:43Z</time>
      </trkpt>
      <trkpt lat="38.4533770" lon="-0.6800630">
        <ele>420.0</ele>
        <time>2018-10-14T07:25:44Z</time>
      </trkpt>
      <trkpt lat="38.4534530" lon="-0.6800350">
        <ele>420.0</ele>
        <time>2018-10-14T07:25:45Z</time>
      </trkpt>
      <trkpt lat="38.4534530" lon="-0.6800350">
        <ele>420.0</ele>
        <time>2018-10-14T07:25:46Z</time>
      </trkpt>
      <trkpt lat="38.4535320" lon="-0.6800070">
        <ele>420.0</ele>
        <time>2018-10-14T07:25:47Z</time>
      </trkpt>
      <trkpt lat="38.4535700" lon="-0.6799900">
        <ele>421.0</ele>
        <time>2018-10-14T07:25:48Z</time>
      </trkpt>
      <trkpt lat="38.4535700" lon="-0.6799900">
        <ele>421.0</ele>
        <time>2018-10-14T07:25:49Z</time>
      </trkpt>
      <trkpt lat="38.4536470" lon="-0.6799600">
        <ele>421.0</ele>
        <time>2018-10-14T07:25:50Z</time>
      </trkpt>
      <trkpt lat="38.4536470" lon="-0.6799600">
        <ele>421.0</ele>
        <time>2018-10-14T07:25:51Z</time>
      </trkpt>
      <trkpt lat="38.4537250" lon="-0.6799320">
        <ele>421.0</ele>
        <time>2018-10-14T07:25:52Z</time>
      </trkpt>
      <trkpt lat="38.4537250" lon="-0.6799320">
        <ele>421.0</ele>
        <time>2018-10-14T07:25:53Z</time>
      </trkpt>
      <trkpt lat="38.4538020" lon="-0.6799030">
        <ele>422.0</ele>
        <time>2018-10-14T07:25:54Z</time>
      </trkpt>
      <trkpt lat="38.4538020" lon="-0.6799030">
        <ele>422.0</ele>
        <time>2018-10-14T07:25:55Z</time>
      </trkpt>
      <trkpt lat="38.4538830" lon="-0.6798730">
        <ele>422.0</ele>
        <time>2018-10-14T07:25:56Z</time>
      </trkpt>
      <trkpt lat="38.4538830" lon="-0.6798730">
        <ele>422.0</ele>
        <time>2018-10-14T07:25:57Z</time>
      </trkpt>
      <trkpt lat="38.4539670" lon="-0.6798430">
        <ele>422.0</ele>
        <time>2018-10-14T07:25:58Z</time>
      </trkpt>
      <trkpt lat="38.4539670" lon="-0.6798430">
        <ele>422.0</ele>
        <time>2018-10-14T07:25:59Z</time>
      </trkpt>
      <trkpt lat="38.4540500" lon="-0.6798130">
        <ele>422.0</ele>
        <time>2018-10-14T07:26:00Z</time>
      </trkpt>
      <trkpt lat="38.4540500" lon="-0.6798130">
        <ele>422.0</ele>
        <time>2018-10-14T07:26:01Z</time>
      </trkpt>
      <trkpt lat="38.4541330" lon="-0.6797830">
        <ele>422.0</ele>
        <time>2018-10-14T07:26:02Z</time>
      </trkpt>
      <trkpt lat="38.4541330" lon="-0.6797830">
        <ele>422.0</ele>
        <time>2018-10-14T07:26:03Z</time>
      </trkpt>
      <trkpt lat="38.4542150" lon="-0.6797530">
        <ele>422.0</ele>
        <time>2018-10-14T07:26:04Z</time>
      </trkpt>
      <trkpt lat="38.4542550" lon="-0.6797380">
        <ele>422.0</ele>
        <time>2018-10-14T07:26:05Z</time>
      </trkpt>
      <trkpt lat="38.4542950" lon="-0.6797220">
        <ele>422.0</ele>
        <time>2018-10-14T07:26:06Z</time>
      </trkpt>
      <trkpt lat="38.4542950" lon="-0.6797220">
        <ele>423.0</ele>
        <time>2018-10-14T07:26:07Z</time>
      </trkpt>
      <trkpt lat="38.4543720" lon="-0.6796950">
        <ele>423.0</ele>
        <time>2018-10-14T07:26:08Z</time>
      </trkpt>
      <trkpt lat="38.4543720" lon="-0.6796950">
        <ele>423.0</ele>
        <time>2018-10-14T07:26:09Z</time>
      </trkpt>
      <trkpt lat="38.4544550" lon="-0.6796650">
        <ele>423.0</ele>
        <time>2018-10-14T07:26:10Z</time>
      </trkpt>
      <trkpt lat="38.4544950" lon="-0.6796500">
        <ele>423.0</ele>
        <time>2018-10-14T07:26:11Z</time>
      </trkpt>
      <trkpt lat="38.4544950" lon="-0.6796500">
        <ele>423.0</ele>
        <time>2018-10-14T07:26:12Z</time>
      </trkpt>
      <trkpt lat="38.4545750" lon="-0.6796180">
        <ele>423.0</ele>
        <time>2018-10-14T07:26:13Z</time>
      </trkpt>
      <trkpt lat="38.4546130" lon="-0.6796020">
        <ele>423.0</ele>
        <time>2018-10-14T07:26:14Z</time>
      </trkpt>
      <trkpt lat="38.4546130" lon="-0.6796020">
        <ele>423.0</ele>
        <time>2018-10-14T07:26:15Z</time>
      </trkpt>
      <trkpt lat="38.4546880" lon="-0.6795730">
        <ele>423.0</ele>
        <time>2018-10-14T07:26:16Z</time>
      </trkpt>
      <trkpt lat="38.4546880" lon="-0.6795730">
        <ele>424.0</ele>
        <time>2018-10-14T07:26:17Z</time>
      </trkpt>
      <trkpt lat="38.4547600" lon="-0.6795420">
        <ele>424.0</ele>
        <time>2018-10-14T07:26:18Z</time>
      </trkpt>
      <trkpt lat="38.4547600" lon="-0.6795420">
        <ele>424.0</ele>
        <time>2018-10-14T07:26:19Z</time>
      </trkpt>
      <trkpt lat="38.4548300" lon="-0.6795050">
        <ele>424.0</ele>
        <time>2018-10-14T07:26:20Z</time>
      </trkpt>
      <trkpt lat="38.4548300" lon="-0.6795050">
        <ele>424.0</ele>
        <time>2018-10-14T07:26:21Z</time>
      </trkpt>
      <trkpt lat="38.4548850" lon="-0.6794620">
        <ele>424.0</ele>
        <time>2018-10-14T07:26:22Z</time>
      </trkpt>
      <trkpt lat="38.4548850" lon="-0.6794620">
        <ele>424.0</ele>
        <time>2018-10-14T07:26:23Z</time>
      </trkpt>
      <trkpt lat="38.4549380" lon="-0.6794200">
        <ele>426.0</ele>
        <time>2018-10-14T07:26:24Z</time>
      </trkpt>
      <trkpt lat="38.4549380" lon="-0.6794200">
        <ele>426.0</ele>
        <time>2018-10-14T07:26:25Z</time>
      </trkpt>
      <trkpt lat="38.4549970" lon="-0.6793800">
        <ele>426.0</ele>
        <time>2018-10-14T07:26:26Z</time>
      </trkpt>
      <trkpt lat="38.4550270" lon="-0.6793630">
        <ele>426.0</ele>
        <time>2018-10-14T07:26:27Z</time>
      </trkpt>
      <trkpt lat="38.4550270" lon="-0.6793630">
        <ele>426.0</ele>
        <time>2018-10-14T07:26:28Z</time>
      </trkpt>
      <trkpt lat="38.4550950" lon="-0.6793400">
        <ele>426.0</ele>
        <time>2018-10-14T07:26:29Z</time>
      </trkpt>
      <trkpt lat="38.4551330" lon="-0.6793320">
        <ele>426.0</ele>
        <time>2018-10-14T07:26:30Z</time>
      </trkpt>
      <trkpt lat="38.4551330" lon="-0.6793320">
        <ele>426.0</ele>
        <time>2018-10-14T07:26:31Z</time>
      </trkpt>
      <trkpt lat="38.4552120" lon="-0.6793180">
        <ele>426.0</ele>
        <time>2018-10-14T07:26:32Z</time>
      </trkpt>
      <trkpt lat="38.4552120" lon="-0.6793180">
        <ele>426.0</ele>
        <time>2018-10-14T07:26:33Z</time>
      </trkpt>
      <trkpt lat="38.4552950" lon="-0.6793000">
        <ele>426.0</ele>
        <time>2018-10-14T07:26:34Z</time>
      </trkpt>
      <trkpt lat="38.4553370" lon="-0.6792920">
        <ele>426.0</ele>
        <time>2018-10-14T07:26:35Z</time>
      </trkpt>
      <trkpt lat="38.4553750" lon="-0.6792820">
        <ele>426.0</ele>
        <time>2018-10-14T07:26:36Z</time>
      </trkpt>
      <trkpt lat="38.4553750" lon="-0.6792820">
        <ele>426.0</ele>
        <time>2018-10-14T07:26:37Z</time>
      </trkpt>
      <trkpt lat="38.4554570" lon="-0.6792720">
        <ele>426.0</ele>
        <time>2018-10-14T07:26:38Z</time>
      </trkpt>
      <trkpt lat="38.4554570" lon="-0.6792720">
        <ele>426.0</ele>
        <time>2018-10-14T07:26:39Z</time>
      </trkpt>
      <trkpt lat="38.4555380" lon="-0.6792650">
        <ele>426.0</ele>
        <time>2018-10-14T07:26:40Z</time>
      </trkpt>
      <trkpt lat="38.4555780" lon="-0.6792650">
        <ele>426.0</ele>
        <time>2018-10-14T07:26:41Z</time>
      </trkpt>
      <trkpt lat="38.4555780" lon="-0.6792650">
        <ele>427.0</ele>
        <time>2018-10-14T07:26:42Z</time>
      </trkpt>
      <trkpt lat="38.4556550" lon="-0.6792630">
        <ele>427.0</ele>
        <time>2018-10-14T07:26:43Z</time>
      </trkpt>
      <trkpt lat="38.4556970" lon="-0.6792620">
        <ele>427.0</ele>
        <time>2018-10-14T07:26:44Z</time>
      </trkpt>
      <trkpt lat="38.4556970" lon="-0.6792620">
        <ele>427.0</ele>
        <time>2018-10-14T07:26:45Z</time>
      </trkpt>
      <trkpt lat="38.4557780" lon="-0.6792530">
        <ele>427.0</ele>
        <time>2018-10-14T07:26:46Z</time>
      </trkpt>
      <trkpt lat="38.4557780" lon="-0.6792530">
        <ele>427.0</ele>
        <time>2018-10-14T07:26:47Z</time>
      </trkpt>
      <trkpt lat="38.4558580" lon="-0.6792430">
        <ele>427.0</ele>
        <time>2018-10-14T07:26:48Z</time>
      </trkpt>
      <trkpt lat="38.4558580" lon="-0.6792430">
        <ele>427.0</ele>
        <time>2018-10-14T07:26:49Z</time>
      </trkpt>
      <trkpt lat="38.4559380" lon="-0.6792370">
        <ele>427.0</ele>
        <time>2018-10-14T07:26:50Z</time>
      </trkpt>
      <trkpt lat="38.4559380" lon="-0.6792370">
        <ele>427.0</ele>
        <time>2018-10-14T07:26:51Z</time>
      </trkpt>
      <trkpt lat="38.4560200" lon="-0.6792370">
        <ele>427.0</ele>
        <time>2018-10-14T07:26:52Z</time>
      </trkpt>
      <trkpt lat="38.4560200" lon="-0.6792370">
        <ele>427.0</ele>
        <time>2018-10-14T07:26:53Z</time>
      </trkpt>
      <trkpt lat="38.4561020" lon="-0.6792420">
        <ele>427.0</ele>
        <time>2018-10-14T07:26:54Z</time>
      </trkpt>
      <trkpt lat="38.4561020" lon="-0.6792420">
        <ele>427.0</ele>
        <time>2018-10-14T07:26:55Z</time>
      </trkpt>
      <trkpt lat="38.4561820" lon="-0.6792500">
        <ele>428.0</ele>
        <time>2018-10-14T07:26:56Z</time>
      </trkpt>
      <trkpt lat="38.4562220" lon="-0.6792570">
        <ele>428.0</ele>
        <time>2018-10-14T07:26:57Z</time>
      </trkpt>
      <trkpt lat="38.4562220" lon="-0.6792570">
        <ele>428.0</ele>
        <time>2018-10-14T07:26:58Z</time>
      </trkpt>
      <trkpt lat="38.4563000" lon="-0.6792720">
        <ele>428.0</ele>
        <time>2018-10-14T07:26:59Z</time>
      </trkpt>
      <trkpt lat="38.4563420" lon="-0.6792820">
        <ele>428.0</ele>
        <time>2018-10-14T07:27:00Z</time>
      </trkpt>
      <trkpt lat="38.4563420" lon="-0.6792820">
        <ele>428.0</ele>
        <time>2018-10-14T07:27:01Z</time>
      </trkpt>
      <trkpt lat="38.4564200" lon="-0.6793030">
        <ele>428.0</ele>
        <time>2018-10-14T07:27:02Z</time>
      </trkpt>
      <trkpt lat="38.4564200" lon="-0.6793030">
        <ele>428.0</ele>
        <time>2018-10-14T07:27:03Z</time>
      </trkpt>
      <trkpt lat="38.4564980" lon="-0.6793250">
        <ele>428.0</ele>
        <time>2018-10-14T07:27:04Z</time>
      </trkpt>
      <trkpt lat="38.4565380" lon="-0.6793370">
        <ele>428.0</ele>
        <time>2018-10-14T07:27:05Z</time>
      </trkpt>
      <trkpt lat="38.4565380" lon="-0.6793370">
        <ele>429.0</ele>
        <time>2018-10-14T07:27:06Z</time>
      </trkpt>
      <trkpt lat="38.4566180" lon="-0.6793600">
        <ele>429.0</ele>
        <time>2018-10-14T07:27:07Z</time>
      </trkpt>
      <trkpt lat="38.4566600" lon="-0.6793720">
        <ele>429.0</ele>
        <time>2018-10-14T07:27:08Z</time>
      </trkpt>
      <trkpt lat="38.4566600" lon="-0.6793720">
        <ele>429.0</ele>
        <time>2018-10-14T07:27:09Z</time>
      </trkpt>
      <trkpt lat="38.4567420" lon="-0.6793980">
        <ele>429.0</ele>
        <time>2018-10-14T07:27:10Z</time>
      </trkpt>
      <trkpt lat="38.4567420" lon="-0.6793980">
        <ele>429.0</ele>
        <time>2018-10-14T07:27:11Z</time>
      </trkpt>
      <trkpt lat="38.4568170" lon="-0.6794220">
        <ele>429.0</ele>
        <time>2018-10-14T07:27:12Z</time>
      </trkpt>
      <trkpt lat="38.4568170" lon="-0.6794220">
        <ele>429.0</ele>
        <time>2018-10-14T07:27:13Z</time>
      </trkpt>
      <trkpt lat="38.4568980" lon="-0.6794400">
        <ele>429.0</ele>
        <time>2018-10-14T07:27:14Z</time>
      </trkpt>
      <trkpt lat="38.4568980" lon="-0.6794400">
        <ele>429.0</ele>
        <time>2018-10-14T07:27:15Z</time>
      </trkpt>
      <trkpt lat="38.4569830" lon="-0.6794620">
        <ele>429.0</ele>
        <time>2018-10-14T07:27:16Z</time>
      </trkpt>
      <trkpt lat="38.4569830" lon="-0.6794620">
        <ele>429.0</ele>
        <time>2018-10-14T07:27:17Z</time>
      </trkpt>
      <trkpt lat="38.4570780" lon="-0.6794930">
        <ele>429.0</ele>
        <time>2018-10-14T07:27:18Z</time>
      </trkpt>
      <trkpt lat="38.4570780" lon="-0.6794930">
        <ele>429.0</ele>
        <time>2018-10-14T07:27:19Z</time>
      </trkpt>
      <trkpt lat="38.4571770" lon="-0.6795280">
        <ele>429.0</ele>
        <time>2018-10-14T07:27:20Z</time>
      </trkpt>
      <trkpt lat="38.4571770" lon="-0.6795280">
        <ele>429.0</ele>
        <time>2018-10-14T07:27:21Z</time>
      </trkpt>
      <trkpt lat="38.4572700" lon="-0.6795680">
        <ele>429.0</ele>
        <time>2018-10-14T07:27:22Z</time>
      </trkpt>
      <trkpt lat="38.4572700" lon="-0.6795680">
        <ele>429.0</ele>
        <time>2018-10-14T07:27:23Z</time>
      </trkpt>
      <trkpt lat="38.4573600" lon="-0.6796170">
        <ele>429.0</ele>
        <time>2018-10-14T07:27:24Z</time>
      </trkpt>
      <trkpt lat="38.4573600" lon="-0.6796170">
        <ele>429.0</ele>
        <time>2018-10-14T07:27:25Z</time>
      </trkpt>
      <trkpt lat="38.4574520" lon="-0.6796700">
        <ele>429.0</ele>
        <time>2018-10-14T07:27:26Z</time>
      </trkpt>
      <trkpt lat="38.4574970" lon="-0.6796950">
        <ele>429.0</ele>
        <time>2018-10-14T07:27:27Z</time>
      </trkpt>
      <trkpt lat="38.4574970" lon="-0.6796950">
        <ele>429.0</ele>
        <time>2018-10-14T07:27:28Z</time>
      </trkpt>
      <trkpt lat="38.4575880" lon="-0.6797380">
        <ele>429.0</ele>
        <time>2018-10-14T07:27:29Z</time>
      </trkpt>
      <trkpt lat="38.4575880" lon="-0.6797380">
        <ele>429.0</ele>
        <time>2018-10-14T07:27:30Z</time>
      </trkpt>
      <trkpt lat="38.4576830" lon="-0.6797750">
        <ele>429.0</ele>
        <time>2018-10-14T07:27:31Z</time>
      </trkpt>
      <trkpt lat="38.4577320" lon="-0.6797900">
        <ele>429.0</ele>
        <time>2018-10-14T07:27:32Z</time>
      </trkpt>
      <trkpt lat="38.4577320" lon="-0.6797900">
        <ele>429.0</ele>
        <time>2018-10-14T07:27:33Z</time>
      </trkpt>
      <trkpt lat="38.4578230" lon="-0.6798270">
        <ele>429.0</ele>
        <time>2018-10-14T07:27:34Z</time>
      </trkpt>
      <trkpt lat="38.4578230" lon="-0.6798270">
        <ele>429.0</ele>
        <time>2018-10-14T07:27:35Z</time>
      </trkpt>
      <trkpt lat="38.4579130" lon="-0.6798630">
        <ele>429.0</ele>
        <time>2018-10-14T07:27:36Z</time>
      </trkpt>
      <trkpt lat="38.4579130" lon="-0.6798630">
        <ele>429.0</ele>
        <time>2018-10-14T07:27:37Z</time>
      </trkpt>
      <trkpt lat="38.4579930" lon="-0.6799030">
        <ele>429.0</ele>
        <time>2018-10-14T07:27:38Z</time>
      </trkpt>
      <trkpt lat="38.4579930" lon="-0.6799030">
        <ele>429.0</ele>
        <time>2018-10-14T07:27:39Z</time>
      </trkpt>
      <trkpt lat="38.4580670" lon="-0.6799430">
        <ele>429.0</ele>
        <time>2018-10-14T07:27:40Z</time>
      </trkpt>
      <trkpt lat="38.4581020" lon="-0.6799620">
        <ele>430.0</ele>
        <time>2018-10-14T07:27:41Z</time>
      </trkpt>
      <trkpt lat="38.4581370" lon="-0.6799820">
        <ele>430.0</ele>
        <time>2018-10-14T07:27:42Z</time>
      </trkpt>
      <trkpt lat="38.4581370" lon="-0.6799820">
        <ele>431.0</ele>
        <time>2018-10-14T07:27:43Z</time>
      </trkpt>
      <trkpt lat="38.4582020" lon="-0.6800150">
        <ele>431.0</ele>
        <time>2018-10-14T07:27:44Z</time>
      </trkpt>
      <trkpt lat="38.4582020" lon="-0.6800150">
        <ele>431.0</ele>
        <time>2018-10-14T07:27:45Z</time>
      </trkpt>
      <trkpt lat="38.4582630" lon="-0.6800500">
        <ele>431.0</ele>
        <time>2018-10-14T07:27:46Z</time>
      </trkpt>
      <trkpt lat="38.4582630" lon="-0.6800500">
        <ele>431.0</ele>
        <time>2018-10-14T07:27:47Z</time>
      </trkpt>
      <trkpt lat="38.4583270" lon="-0.6800850">
        <ele>431.0</ele>
        <time>2018-10-14T07:27:48Z</time>
      </trkpt>
      <trkpt lat="38.4583270" lon="-0.6800850">
        <ele>431.0</ele>
        <time>2018-10-14T07:27:49Z</time>
      </trkpt>
      <trkpt lat="38.4583950" lon="-0.6801220">
        <ele>431.0</ele>
        <time>2018-10-14T07:27:50Z</time>
      </trkpt>
      <trkpt lat="38.4583950" lon="-0.6801220">
        <ele>431.0</ele>
        <time>2018-10-14T07:27:51Z</time>
      </trkpt>
      <trkpt lat="38.4584620" lon="-0.6801600">
        <ele>431.0</ele>
        <time>2018-10-14T07:27:52Z</time>
      </trkpt>
      <trkpt lat="38.4584620" lon="-0.6801600">
        <ele>433.0</ele>
        <time>2018-10-14T07:27:53Z</time>
      </trkpt>
      <trkpt lat="38.4585300" lon="-0.6801950">
        <ele>433.0</ele>
        <time>2018-10-14T07:27:54Z</time>
      </trkpt>
      <trkpt lat="38.4585300" lon="-0.6801950">
        <ele>433.0</ele>
        <time>2018-10-14T07:27:55Z</time>
      </trkpt>
      <trkpt lat="38.4585930" lon="-0.6802300">
        <ele>433.0</ele>
        <time>2018-10-14T07:27:56Z</time>
      </trkpt>
      <trkpt lat="38.4586270" lon="-0.6802500">
        <ele>433.0</ele>
        <time>2018-10-14T07:27:57Z</time>
      </trkpt>
      <trkpt lat="38.4586270" lon="-0.6802500">
        <ele>433.0</ele>
        <time>2018-10-14T07:27:58Z</time>
      </trkpt>
      <trkpt lat="38.4586950" lon="-0.6802870">
        <ele>433.0</ele>
        <time>2018-10-14T07:27:59Z</time>
      </trkpt>
      <trkpt lat="38.4586950" lon="-0.6802870">
        <ele>433.0</ele>
        <time>2018-10-14T07:28:00Z</time>
      </trkpt>
      <trkpt lat="38.4587650" lon="-0.6803220">
        <ele>433.0</ele>
        <time>2018-10-14T07:28:01Z</time>
      </trkpt>
      <trkpt lat="38.4587980" lon="-0.6803350">
        <ele>433.0</ele>
        <time>2018-10-14T07:28:02Z</time>
      </trkpt>
      <trkpt lat="38.4587980" lon="-0.6803350">
        <ele>433.0</ele>
        <time>2018-10-14T07:28:03Z</time>
      </trkpt>
      <trkpt lat="38.4588600" lon="-0.6803750">
        <ele>433.0</ele>
        <time>2018-10-14T07:28:04Z</time>
      </trkpt>
      <trkpt lat="38.4588600" lon="-0.6803750">
        <ele>433.0</ele>
        <time>2018-10-14T07:28:05Z</time>
      </trkpt>
      <trkpt lat="38.4589280" lon="-0.6804070">
        <ele>433.0</ele>
        <time>2018-10-14T07:28:06Z</time>
      </trkpt>
      <trkpt lat="38.4589280" lon="-0.6804070">
        <ele>433.0</ele>
        <time>2018-10-14T07:28:07Z</time>
      </trkpt>
      <trkpt lat="38.4590000" lon="-0.6804350">
        <ele>434.0</ele>
        <time>2018-10-14T07:28:08Z</time>
      </trkpt>
      <trkpt lat="38.4590000" lon="-0.6804350">
        <ele>434.0</ele>
        <time>2018-10-14T07:28:09Z</time>
      </trkpt>
      <trkpt lat="38.4590720" lon="-0.6804650">
        <ele>434.0</ele>
        <time>2018-10-14T07:28:10Z</time>
      </trkpt>
      <trkpt lat="38.4590720" lon="-0.6804650">
        <ele>434.0</ele>
        <time>2018-10-14T07:28:11Z</time>
      </trkpt>
      <trkpt lat="38.4591430" lon="-0.6804950">
        <ele>434.0</ele>
        <time>2018-10-14T07:28:12Z</time>
      </trkpt>
      <trkpt lat="38.4591430" lon="-0.6804950">
        <ele>434.0</ele>
        <time>2018-10-14T07:28:13Z</time>
      </trkpt>
      <trkpt lat="38.4592130" lon="-0.6805250">
        <ele>435.0</ele>
        <time>2018-10-14T07:28:14Z</time>
      </trkpt>
      <trkpt lat="38.4592130" lon="-0.6805250">
        <ele>435.0</ele>
        <time>2018-10-14T07:28:15Z</time>
      </trkpt>
      <trkpt lat="38.4592850" lon="-0.6805520">
        <ele>435.0</ele>
        <time>2018-10-14T07:28:16Z</time>
      </trkpt>
      <trkpt lat="38.4593220" lon="-0.6805650">
        <ele>435.0</ele>
        <time>2018-10-14T07:28:17Z</time>
      </trkpt>
      <trkpt lat="38.4593530" lon="-0.6805780">
        <ele>435.0</ele>
        <time>2018-10-14T07:28:18Z</time>
      </trkpt>
      <trkpt lat="38.4593530" lon="-0.6805780">
        <ele>435.0</ele>
        <time>2018-10-14T07:28:19Z</time>
      </trkpt>
      <trkpt lat="38.4594200" lon="-0.6806020">
        <ele>435.0</ele>
        <time>2018-10-14T07:28:20Z</time>
      </trkpt>
      <trkpt lat="38.4594200" lon="-0.6806020">
        <ele>435.0</ele>
        <time>2018-10-14T07:28:21Z</time>
      </trkpt>
      <trkpt lat="38.4594820" lon="-0.6806200">
        <ele>435.0</ele>
        <time>2018-10-14T07:28:22Z</time>
      </trkpt>
      <trkpt lat="38.4594820" lon="-0.6806200">
        <ele>435.0</ele>
        <time>2018-10-14T07:28:23Z</time>
      </trkpt>
      <trkpt lat="38.4595470" lon="-0.6806400">
        <ele>435.0</ele>
        <time>2018-10-14T07:28:24Z</time>
      </trkpt>
      <trkpt lat="38.4595780" lon="-0.6806480">
        <ele>436.0</ele>
        <time>2018-10-14T07:28:25Z</time>
      </trkpt>
      <trkpt lat="38.4595780" lon="-0.6806480">
        <ele>436.0</ele>
        <time>2018-10-14T07:28:26Z</time>
      </trkpt>
      <trkpt lat="38.4596400" lon="-0.6806700">
        <ele>436.0</ele>
        <time>2018-10-14T07:28:27Z</time>
      </trkpt>
      <trkpt lat="38.4596400" lon="-0.6806700">
        <ele>436.0</ele>
        <time>2018-10-14T07:28:28Z</time>
      </trkpt>
      <trkpt lat="38.4597030" lon="-0.6806900">
        <ele>436.0</ele>
        <time>2018-10-14T07:28:29Z</time>
      </trkpt>
      <trkpt lat="38.4597030" lon="-0.6806900">
        <ele>436.0</ele>
        <time>2018-10-14T07:28:30Z</time>
      </trkpt>
      <trkpt lat="38.4597770" lon="-0.6806980">
        <ele>436.0</ele>
        <time>2018-10-14T07:28:31Z</time>
      </trkpt>
      <trkpt lat="38.4598180" lon="-0.6807020">
        <ele>436.0</ele>
        <time>2018-10-14T07:28:32Z</time>
      </trkpt>
      <trkpt lat="38.4598180" lon="-0.6807020">
        <ele>436.0</ele>
        <time>2018-10-14T07:28:33Z</time>
      </trkpt>
      <trkpt lat="38.4598870" lon="-0.6807070">
        <ele>436.0</ele>
        <time>2018-10-14T07:28:34Z</time>
      </trkpt>
      <trkpt lat="38.4598870" lon="-0.6807070">
        <ele>436.0</ele>
        <time>2018-10-14T07:28:35Z</time>
      </trkpt>
      <trkpt lat="38.4599520" lon="-0.6807150">
        <ele>436.0</ele>
        <time>2018-10-14T07:28:36Z</time>
      </trkpt>
      <trkpt lat="38.4599520" lon="-0.6807150">
        <ele>437.0</ele>
        <time>2018-10-14T07:28:37Z</time>
      </trkpt>
      <trkpt lat="38.4600180" lon="-0.6807200">
        <ele>437.0</ele>
        <time>2018-10-14T07:28:38Z</time>
      </trkpt>
      <trkpt lat="38.4600180" lon="-0.6807200">
        <ele>437.0</ele>
        <time>2018-10-14T07:28:39Z</time>
      </trkpt>
      <trkpt lat="38.4600880" lon="-0.6807230">
        <ele>437.0</ele>
        <time>2018-10-14T07:28:40Z</time>
      </trkpt>
      <trkpt lat="38.4600880" lon="-0.6807230">
        <ele>437.0</ele>
        <time>2018-10-14T07:28:41Z</time>
      </trkpt>
      <trkpt lat="38.4601580" lon="-0.6807180">
        <ele>437.0</ele>
        <time>2018-10-14T07:28:42Z</time>
      </trkpt>
      <trkpt lat="38.4601580" lon="-0.6807180">
        <ele>437.0</ele>
        <time>2018-10-14T07:28:43Z</time>
      </trkpt>
      <trkpt lat="38.4602280" lon="-0.6807130">
        <ele>437.0</ele>
        <time>2018-10-14T07:28:44Z</time>
      </trkpt>
      <trkpt lat="38.4602280" lon="-0.6807130">
        <ele>437.0</ele>
        <time>2018-10-14T07:28:45Z</time>
      </trkpt>
      <trkpt lat="38.4602950" lon="-0.6807100">
        <ele>437.0</ele>
        <time>2018-10-14T07:28:46Z</time>
      </trkpt>
      <trkpt lat="38.4603280" lon="-0.6807070">
        <ele>437.0</ele>
        <time>2018-10-14T07:28:47Z</time>
      </trkpt>
      <trkpt lat="38.4603280" lon="-0.6807070">
        <ele>437.0</ele>
        <time>2018-10-14T07:28:48Z</time>
      </trkpt>
      <trkpt lat="38.4603920" lon="-0.6807000">
        <ele>437.0</ele>
        <time>2018-10-14T07:28:49Z</time>
      </trkpt>
      <trkpt lat="38.4604270" lon="-0.6806950">
        <ele>437.0</ele>
        <time>2018-10-14T07:28:50Z</time>
      </trkpt>
      <trkpt lat="38.4604270" lon="-0.6806950">
        <ele>438.0</ele>
        <time>2018-10-14T07:28:51Z</time>
      </trkpt>
      <trkpt lat="38.4604950" lon="-0.6806870">
        <ele>438.0</ele>
        <time>2018-10-14T07:28:52Z</time>
      </trkpt>
      <trkpt lat="38.4604950" lon="-0.6806870">
        <ele>438.0</ele>
        <time>2018-10-14T07:28:53Z</time>
      </trkpt>
      <trkpt lat="38.4605630" lon="-0.6806700">
        <ele>438.0</ele>
        <time>2018-10-14T07:28:54Z</time>
      </trkpt>
      <trkpt lat="38.4605630" lon="-0.6806700">
        <ele>438.0</ele>
        <time>2018-10-14T07:28:55Z</time>
      </trkpt>
      <trkpt lat="38.4606320" lon="-0.6806500">
        <ele>438.0</ele>
        <time>2018-10-14T07:28:56Z</time>
      </trkpt>
      <trkpt lat="38.4606320" lon="-0.6806500">
        <ele>438.0</ele>
        <time>2018-10-14T07:28:57Z</time>
      </trkpt>
      <trkpt lat="38.4607020" lon="-0.6806280">
        <ele>438.0</ele>
        <time>2018-10-14T07:28:58Z</time>
      </trkpt>
      <trkpt lat="38.4607020" lon="-0.6806280">
        <ele>438.0</ele>
        <time>2018-10-14T07:28:59Z</time>
      </trkpt>
      <trkpt lat="38.4607700" lon="-0.6806050">
        <ele>438.0</ele>
        <time>2018-10-14T07:29:00Z</time>
      </trkpt>
      <trkpt lat="38.4607700" lon="-0.6806050">
        <ele>438.0</ele>
        <time>2018-10-14T07:29:01Z</time>
      </trkpt>
      <trkpt lat="38.4608370" lon="-0.6805800">
        <ele>438.0</ele>
        <time>2018-10-14T07:29:02Z</time>
      </trkpt>
      <trkpt lat="38.4608370" lon="-0.6805800">
        <ele>438.0</ele>
        <time>2018-10-14T07:29:03Z</time>
      </trkpt>
      <trkpt lat="38.4609000" lon="-0.6805570">
        <ele>438.0</ele>
        <time>2018-10-14T07:29:04Z</time>
      </trkpt>
      <trkpt lat="38.4609320" lon="-0.6805450">
        <ele>438.0</ele>
        <time>2018-10-14T07:29:05Z</time>
      </trkpt>
      <trkpt lat="38.4609320" lon="-0.6805450">
        <ele>438.0</ele>
        <time>2018-10-14T07:29:06Z</time>
      </trkpt>
      <trkpt lat="38.4609900" lon="-0.6805150">
        <ele>438.0</ele>
        <time>2018-10-14T07:29:07Z</time>
      </trkpt>
      <trkpt lat="38.4610200" lon="-0.6805030">
        <ele>438.0</ele>
        <time>2018-10-14T07:29:08Z</time>
      </trkpt>
      <trkpt lat="38.4610200" lon="-0.6805030">
        <ele>438.0</ele>
        <time>2018-10-14T07:29:09Z</time>
      </trkpt>
      <trkpt lat="38.4610820" lon="-0.6804780">
        <ele>439.0</ele>
        <time>2018-10-14T07:29:10Z</time>
      </trkpt>
      <trkpt lat="38.4610820" lon="-0.6804780">
        <ele>439.0</ele>
        <time>2018-10-14T07:29:11Z</time>
      </trkpt>
      <trkpt lat="38.4611420" lon="-0.6804520">
        <ele>439.0</ele>
        <time>2018-10-14T07:29:12Z</time>
      </trkpt>
      <trkpt lat="38.4611420" lon="-0.6804520">
        <ele>439.0</ele>
        <time>2018-10-14T07:29:13Z</time>
      </trkpt>
      <trkpt lat="38.4611920" lon="-0.6804220">
        <ele>439.0</ele>
        <time>2018-10-14T07:29:14Z</time>
      </trkpt>
      <trkpt lat="38.4611920" lon="-0.6804220">
        <ele>439.0</ele>
        <time>2018-10-14T07:29:15Z</time>
      </trkpt>
      <trkpt lat="38.4612320" lon="-0.6803970">
        <ele>439.0</ele>
        <time>2018-10-14T07:29:16Z</time>
      </trkpt>
      <trkpt lat="38.4612320" lon="-0.6803970">
        <ele>439.0</ele>
        <time>2018-10-14T07:29:17Z</time>
      </trkpt>
      <trkpt lat="38.4612770" lon="-0.6803750">
        <ele>439.0</ele>
        <time>2018-10-14T07:29:18Z</time>
      </trkpt>
      <trkpt lat="38.4612770" lon="-0.6803750">
        <ele>439.0</ele>
        <time>2018-10-14T07:29:19Z</time>
      </trkpt>
      <trkpt lat="38.4613420" lon="-0.6803480">
        <ele>439.0</ele>
        <time>2018-10-14T07:29:20Z</time>
      </trkpt>
      <trkpt lat="38.4613420" lon="-0.6803480">
        <ele>439.0</ele>
        <time>2018-10-14T07:29:21Z</time>
      </trkpt>
      <trkpt lat="38.4614100" lon="-0.6803220">
        <ele>440.0</ele>
        <time>2018-10-14T07:29:22Z</time>
      </trkpt>
      <trkpt lat="38.4614100" lon="-0.6803220">
        <ele>440.0</ele>
        <time>2018-10-14T07:29:23Z</time>
      </trkpt>
      <trkpt lat="38.4614820" lon="-0.6802880">
        <ele>440.0</ele>
        <time>2018-10-14T07:29:24Z</time>
      </trkpt>
      <trkpt lat="38.4614820" lon="-0.6802880">
        <ele>440.0</ele>
        <time>2018-10-14T07:29:25Z</time>
      </trkpt>
      <trkpt lat="38.4615530" lon="-0.6802620">
        <ele>440.0</ele>
        <time>2018-10-14T07:29:26Z</time>
      </trkpt>
      <trkpt lat="38.4615530" lon="-0.6802620">
        <ele>440.0</ele>
        <time>2018-10-14T07:29:27Z</time>
      </trkpt>
      <trkpt lat="38.4616230" lon="-0.6802370">
        <ele>440.0</ele>
        <time>2018-10-14T07:29:28Z</time>
      </trkpt>
      <trkpt lat="38.4616600" lon="-0.6802230">
        <ele>440.0</ele>
        <time>2018-10-14T07:29:29Z</time>
      </trkpt>
      <trkpt lat="38.4617000" lon="-0.6802050">
        <ele>441.0</ele>
        <time>2018-10-14T07:29:30Z</time>
      </trkpt>
      <trkpt lat="38.4617000" lon="-0.6802050">
        <ele>441.0</ele>
        <time>2018-10-14T07:29:31Z</time>
      </trkpt>
      <trkpt lat="38.4617830" lon="-0.6801770">
        <ele>441.0</ele>
        <time>2018-10-14T07:29:32Z</time>
      </trkpt>
      <trkpt lat="38.4617830" lon="-0.6801770">
        <ele>441.0</ele>
        <time>2018-10-14T07:29:33Z</time>
      </trkpt>
      <trkpt lat="38.4618700" lon="-0.6801470">
        <ele>441.0</ele>
        <time>2018-10-14T07:29:34Z</time>
      </trkpt>
      <trkpt lat="38.4618700" lon="-0.6801470">
        <ele>441.0</ele>
        <time>2018-10-14T07:29:35Z</time>
      </trkpt>
      <trkpt lat="38.4619530" lon="-0.6801120">
        <ele>441.0</ele>
        <time>2018-10-14T07:29:36Z</time>
      </trkpt>
      <trkpt lat="38.4619930" lon="-0.6800950">
        <ele>441.0</ele>
        <time>2018-10-14T07:29:37Z</time>
      </trkpt>
      <trkpt lat="38.4620320" lon="-0.6800780">
        <ele>441.0</ele>
        <time>2018-10-14T07:29:38Z</time>
      </trkpt>
      <trkpt lat="38.4620320" lon="-0.6800780">
        <ele>441.0</ele>
        <time>2018-10-14T07:29:39Z</time>
      </trkpt>
      <trkpt lat="38.4621120" lon="-0.6800520">
        <ele>441.0</ele>
        <time>2018-10-14T07:29:40Z</time>
      </trkpt>
      <trkpt lat="38.4621120" lon="-0.6800520">
        <ele>441.0</ele>
        <time>2018-10-14T07:29:41Z</time>
      </trkpt>
      <trkpt lat="38.4621830" lon="-0.6800180">
        <ele>441.0</ele>
        <time>2018-10-14T07:29:42Z</time>
      </trkpt>
      <trkpt lat="38.4621830" lon="-0.6800180">
        <ele>441.0</ele>
        <time>2018-10-14T07:29:43Z</time>
      </trkpt>
      <trkpt lat="38.4622500" lon="-0.6800020">
        <ele>441.0</ele>
        <time>2018-10-14T07:29:44Z</time>
      </trkpt>
      <trkpt lat="38.4622500" lon="-0.6800020">
        <ele>441.0</ele>
        <time>2018-10-14T07:29:45Z</time>
      </trkpt>
      <trkpt lat="38.4623030" lon="-0.6799850">
        <ele>442.0</ele>
        <time>2018-10-14T07:29:46Z</time>
      </trkpt>
      <trkpt lat="38.4623030" lon="-0.6799850">
        <ele>442.0</ele>
        <time>2018-10-14T07:29:47Z</time>
      </trkpt>
      <trkpt lat="38.4623570" lon="-0.6799580">
        <ele>442.0</ele>
        <time>2018-10-14T07:29:48Z</time>
      </trkpt>
      <trkpt lat="38.4623780" lon="-0.6799500">
        <ele>442.0</ele>
        <time>2018-10-14T07:29:49Z</time>
      </trkpt>
      <trkpt lat="38.4623780" lon="-0.6799500">
        <ele>442.0</ele>
        <time>2018-10-14T07:29:50Z</time>
      </trkpt>
      <trkpt lat="38.4624350" lon="-0.6799200">
        <ele>442.0</ele>
        <time>2018-10-14T07:29:51Z</time>
      </trkpt>
      <trkpt lat="38.4624350" lon="-0.6799200">
        <ele>442.0</ele>
        <time>2018-10-14T07:29:52Z</time>
      </trkpt>
      <trkpt lat="38.4625150" lon="-0.6799050">
        <ele>442.0</ele>
        <time>2018-10-14T07:29:53Z</time>
      </trkpt>
      <trkpt lat="38.4625570" lon="-0.6799000">
        <ele>443.0</ele>
        <time>2018-10-14T07:29:54Z</time>
      </trkpt>
      <trkpt lat="38.4625570" lon="-0.6799000">
        <ele>443.0</ele>
        <time>2018-10-14T07:29:55Z</time>
      </trkpt>
      <trkpt lat="38.4626280" lon="-0.6798930">
        <ele>443.0</ele>
        <time>2018-10-14T07:29:56Z</time>
      </trkpt>
      <trkpt lat="38.4626280" lon="-0.6798930">
        <ele>443.0</ele>
        <time>2018-10-14T07:29:57Z</time>
      </trkpt>
      <trkpt lat="38.4626930" lon="-0.6798950">
        <ele>443.0</ele>
        <time>2018-10-14T07:29:58Z</time>
      </trkpt>
      <trkpt lat="38.4626930" lon="-0.6798950">
        <ele>443.0</ele>
        <time>2018-10-14T07:29:59Z</time>
      </trkpt>
      <trkpt lat="38.4627580" lon="-0.6799050">
        <ele>443.0</ele>
        <time>2018-10-14T07:30:00Z</time>
      </trkpt>
      <trkpt lat="38.4627920" lon="-0.6799120">
        <ele>443.0</ele>
        <time>2018-10-14T07:30:01Z</time>
      </trkpt>
      <trkpt lat="38.4628230" lon="-0.6799200">
        <ele>443.0</ele>
        <time>2018-10-14T07:30:02Z</time>
      </trkpt>
      <trkpt lat="38.4628230" lon="-0.6799200">
        <ele>443.0</ele>
        <time>2018-10-14T07:30:03Z</time>
      </trkpt>
      <trkpt lat="38.4628230" lon="-0.6799200">
        <ele>444.0</ele>
        <time>2018-10-14T07:30:04Z</time>
      </trkpt>
      <trkpt lat="38.4628230" lon="-0.6799200">
        <ele>444.0</ele>
        <time>2018-10-14T07:30:05Z</time>
      </trkpt>
      <trkpt lat="38.4628230" lon="-0.6799200">
        <ele>444.0</ele>
        <time>2018-10-14T07:30:06Z</time>
      </trkpt>
      <trkpt lat="38.4628230" lon="-0.6799200">
        <ele>444.0</ele>
        <time>2018-10-14T07:30:07Z</time>
      </trkpt>
      <trkpt lat="38.4628230" lon="-0.6799200">
        <ele>444.0</ele>
        <time>2018-10-14T07:30:08Z</time>
      </trkpt>
      <trkpt lat="38.4628230" lon="-0.6799200">
        <ele>444.0</ele>
        <time>2018-10-14T07:30:09Z</time>
      </trkpt>
      <trkpt lat="38.4628230" lon="-0.6799200">
        <ele>444.0</ele>
        <time>2018-10-14T07:30:10Z</time>
      </trkpt>
      <trkpt lat="38.4628230" lon="-0.6799200">
        <ele>444.0</ele>
        <time>2018-10-14T07:30:11Z</time>
      </trkpt>
      <trkpt lat="38.4628230" lon="-0.6799200">
        <ele>444.0</ele>
        <time>2018-10-14T07:30:12Z</time>
      </trkpt>
      <trkpt lat="38.4628230" lon="-0.6799200">
        <ele>445.0</ele>
        <time>2018-10-14T07:30:13Z</time>
      </trkpt>
      <trkpt lat="38.4628230" lon="-0.6799200">
        <ele>445.0</ele>
        <time>2018-10-14T07:30:14Z</time>
      </trkpt>
      <trkpt lat="38.4628230" lon="-0.6799200">
        <ele>445.0</ele>
        <time>2018-10-14T07:30:15Z</time>
      </trkpt>
      <trkpt lat="38.4628230" lon="-0.6799200">
        <ele>445.0</ele>
        <time>2018-10-14T07:30:16Z</time>
      </trkpt>
      <trkpt lat="38.4628230" lon="-0.6799200">
        <ele>445.0</ele>
        <time>2018-10-14T07:30:17Z</time>
      </trkpt>
      <trkpt lat="38.4628230" lon="-0.6799200">
        <ele>445.0</ele>
        <time>2018-10-14T07:30:18Z</time>
      </trkpt>
      <trkpt lat="38.4628230" lon="-0.6799200">
        <ele>445.0</ele>
        <time>2018-10-14T07:30:19Z</time>
      </trkpt>
      <trkpt lat="38.4628230" lon="-0.6799200">
        <ele>445.0</ele>
        <time>2018-10-14T07:30:20Z</time>
      </trkpt>
      <trkpt lat="38.4628230" lon="-0.6799200">
        <ele>445.0</ele>
        <time>2018-10-14T07:30:21Z</time>
      </trkpt>
      <trkpt lat="38.4628230" lon="-0.6799200">
        <ele>445.0</ele>
        <time>2018-10-14T07:30:22Z</time>
      </trkpt>
      <trkpt lat="38.4635200" lon="-0.6794380">
        <ele>445.0</ele>
        <time>2018-10-14T07:30:23Z</time>
      </trkpt>
      <trkpt lat="38.4635770" lon="-0.6794300">
        <ele>445.0</ele>
        <time>2018-10-14T07:30:24Z</time>
      </trkpt>
      <trkpt lat="38.4635770" lon="-0.6794300">
        <ele>445.0</ele>
        <time>2018-10-14T07:30:25Z</time>
      </trkpt>
      <trkpt lat="38.4636420" lon="-0.6794170">
        <ele>446.0</ele>
        <time>2018-10-14T07:30:26Z</time>
      </trkpt>
      <trkpt lat="38.4636800" lon="-0.6794050">
        <ele>446.0</ele>
        <time>2018-10-14T07:30:27Z</time>
      </trkpt>
      <trkpt lat="38.4637120" lon="-0.6793900">
        <ele>446.0</ele>
        <time>2018-10-14T07:30:28Z</time>
      </trkpt>
      <trkpt lat="38.4637120" lon="-0.6793900">
        <ele>446.0</ele>
        <time>2018-10-14T07:30:29Z</time>
      </trkpt>
      <trkpt lat="38.4637850" lon="-0.6793580">
        <ele>446.0</ele>
        <time>2018-10-14T07:30:30Z</time>
      </trkpt>
      <trkpt lat="38.4637850" lon="-0.6793580">
        <ele>446.0</ele>
        <time>2018-10-14T07:30:31Z</time>
      </trkpt>
      <trkpt lat="38.4638600" lon="-0.6793250">
        <ele>446.0</ele>
        <time>2018-10-14T07:30:32Z</time>
      </trkpt>
      <trkpt lat="38.4638600" lon="-0.6793250">
        <ele>446.0</ele>
        <time>2018-10-14T07:30:33Z</time>
      </trkpt>
      <trkpt lat="38.4639320" lon="-0.6792970">
        <ele>446.0</ele>
        <time>2018-10-14T07:30:34Z</time>
      </trkpt>
      <trkpt lat="38.4639630" lon="-0.6792840">
        <ele>446.0</ele>
        <time>2018-10-14T07:30:35Z</time>
      </trkpt>
      <trkpt lat="38.4639940" lon="-0.6792720">
        <ele>446.0</ele>
        <time>2018-10-14T07:30:36Z</time>
      </trkpt>
      <trkpt lat="38.4640240" lon="-0.6792590">
        <ele>446.0</ele>
        <time>2018-10-14T07:30:37Z</time>
      </trkpt>
      <trkpt lat="38.4640550" lon="-0.6792470">
        <ele>446.0</ele>
        <time>2018-10-14T07:30:38Z</time>
      </trkpt>
      <trkpt lat="38.4640860" lon="-0.6792340">
        <ele>446.0</ele>
        <time>2018-10-14T07:30:39Z</time>
      </trkpt>
      <trkpt lat="38.4641170" lon="-0.6792220">
        <ele>446.0</ele>
        <time>2018-10-14T07:30:40Z</time>
      </trkpt>
      <trkpt lat="38.4641470" lon="-0.6792090">
        <ele>446.0</ele>
        <time>2018-10-14T07:30:41Z</time>
      </trkpt>
      <trkpt lat="38.4641780" lon="-0.6791960">
        <ele>447.0</ele>
        <time>2018-10-14T07:30:42Z</time>
      </trkpt>
      <trkpt lat="38.4642090" lon="-0.6791840">
        <ele>447.0</ele>
        <time>2018-10-14T07:30:43Z</time>
      </trkpt>
      <trkpt lat="38.4642400" lon="-0.6791710">
        <ele>447.0</ele>
        <time>2018-10-14T07:30:44Z</time>
      </trkpt>
      <trkpt lat="38.4642700" lon="-0.6791590">
        <ele>447.0</ele>
        <time>2018-10-14T07:30:45Z</time>
      </trkpt>
      <trkpt lat="38.4643010" lon="-0.6791460">
        <ele>447.0</ele>
        <time>2018-10-14T07:30:46Z</time>
      </trkpt>
      <trkpt lat="38.4643370" lon="-0.6791320">
        <ele>447.0</ele>
        <time>2018-10-14T07:30:47Z</time>
      </trkpt>
      <trkpt lat="38.4644050" lon="-0.6791020">
        <ele>447.0</ele>
        <time>2018-10-14T07:30:48Z</time>
      </trkpt>
      <trkpt lat="38.4644050" lon="-0.6791020">
        <ele>447.0</ele>
        <time>2018-10-14T07:30:49Z</time>
      </trkpt>
      <trkpt lat="38.4644720" lon="-0.6790730">
        <ele>447.0</ele>
        <time>2018-10-14T07:30:50Z</time>
      </trkpt>
      <trkpt lat="38.4644720" lon="-0.6790730">
        <ele>447.0</ele>
        <time>2018-10-14T07:30:51Z</time>
      </trkpt>
      <trkpt lat="38.4645420" lon="-0.6790430">
        <ele>447.0</ele>
        <time>2018-10-14T07:30:52Z</time>
      </trkpt>
      <trkpt lat="38.4645750" lon="-0.6790280">
        <ele>447.0</ele>
        <time>2018-10-14T07:30:53Z</time>
      </trkpt>
      <trkpt lat="38.4646080" lon="-0.6790130">
        <ele>447.0</ele>
        <time>2018-10-14T07:30:54Z</time>
      </trkpt>
      <trkpt lat="38.4646080" lon="-0.6790130">
        <ele>447.0</ele>
        <time>2018-10-14T07:30:55Z</time>
      </trkpt>
      <trkpt lat="38.4646770" lon="-0.6789820">
        <ele>448.0</ele>
        <time>2018-10-14T07:30:56Z</time>
      </trkpt>
      <trkpt lat="38.4646770" lon="-0.6789820">
        <ele>448.0</ele>
        <time>2018-10-14T07:30:57Z</time>
      </trkpt>
      <trkpt lat="38.4647470" lon="-0.6789530">
        <ele>448.0</ele>
        <time>2018-10-14T07:30:58Z</time>
      </trkpt>
      <trkpt lat="38.4647800" lon="-0.6789420">
        <ele>448.0</ele>
        <time>2018-10-14T07:30:59Z</time>
      </trkpt>
      <trkpt lat="38.4647800" lon="-0.6789420">
        <ele>448.0</ele>
        <time>2018-10-14T07:31:00Z</time>
      </trkpt>
      <trkpt lat="38.4648470" lon="-0.6789150">
        <ele>448.0</ele>
        <time>2018-10-14T07:31:01Z</time>
      </trkpt>
      <trkpt lat="38.4648470" lon="-0.6789150">
        <ele>448.0</ele>
        <time>2018-10-14T07:31:02Z</time>
      </trkpt>
      <trkpt lat="38.4649100" lon="-0.6788830">
        <ele>448.0</ele>
        <time>2018-10-14T07:31:03Z</time>
      </trkpt>
      <trkpt lat="38.4649100" lon="-0.6788830">
        <ele>448.0</ele>
        <time>2018-10-14T07:31:04Z</time>
      </trkpt>
      <trkpt lat="38.4649750" lon="-0.6788570">
        <ele>448.0</ele>
        <time>2018-10-14T07:31:05Z</time>
      </trkpt>
      <trkpt lat="38.4649750" lon="-0.6788570">
        <ele>449.0</ele>
        <time>2018-10-14T07:31:06Z</time>
      </trkpt>
      <trkpt lat="38.4650370" lon="-0.6788280">
        <ele>449.0</ele>
        <time>2018-10-14T07:31:07Z</time>
      </trkpt>
      <trkpt lat="38.4650670" lon="-0.6788150">
        <ele>449.0</ele>
        <time>2018-10-14T07:31:08Z</time>
      </trkpt>
      <trkpt lat="38.4650670" lon="-0.6788150">
        <ele>449.0</ele>
        <time>2018-10-14T07:31:09Z</time>
      </trkpt>
      <trkpt lat="38.4651280" lon="-0.6787880">
        <ele>449.0</ele>
        <time>2018-10-14T07:31:10Z</time>
      </trkpt>
      <trkpt lat="38.4651280" lon="-0.6787880">
        <ele>449.0</ele>
        <time>2018-10-14T07:31:11Z</time>
      </trkpt>
      <trkpt lat="38.4651850" lon="-0.6787580">
        <ele>449.0</ele>
        <time>2018-10-14T07:31:12Z</time>
      </trkpt>
      <trkpt lat="38.4652080" lon="-0.6787400">
        <ele>449.0</ele>
        <time>2018-10-14T07:31:13Z</time>
      </trkpt>
      <trkpt lat="38.4652270" lon="-0.6787180">
        <ele>449.0</ele>
        <time>2018-10-14T07:31:14Z</time>
      </trkpt>
      <trkpt lat="38.4652270" lon="-0.6787180">
        <ele>449.0</ele>
        <time>2018-10-14T07:31:15Z</time>
      </trkpt>
      <trkpt lat="38.4652400" lon="-0.6786630">
        <ele>449.0</ele>
        <time>2018-10-14T07:31:16Z</time>
      </trkpt>
      <trkpt lat="38.4652400" lon="-0.6786630">
        <ele>449.0</ele>
        <time>2018-10-14T07:31:17Z</time>
      </trkpt>
      <trkpt lat="38.4652320" lon="-0.6786020">
        <ele>449.0</ele>
        <time>2018-10-14T07:31:18Z</time>
      </trkpt>
      <trkpt lat="38.4652320" lon="-0.6786020">
        <ele>449.0</ele>
        <time>2018-10-14T07:31:19Z</time>
      </trkpt>
      <trkpt lat="38.4652170" lon="-0.6785420">
        <ele>449.0</ele>
        <time>2018-10-14T07:31:20Z</time>
      </trkpt>
      <trkpt lat="38.4652170" lon="-0.6785420">
        <ele>451.0</ele>
        <time>2018-10-14T07:31:21Z</time>
      </trkpt>
      <trkpt lat="38.4652050" lon="-0.6784900">
        <ele>451.0</ele>
        <time>2018-10-14T07:31:22Z</time>
      </trkpt>
      <trkpt lat="38.4651970" lon="-0.6784670">
        <ele>451.0</ele>
        <time>2018-10-14T07:31:23Z</time>
      </trkpt>
      <trkpt lat="38.4651970" lon="-0.6784670">
        <ele>451.0</ele>
        <time>2018-10-14T07:31:24Z</time>
      </trkpt>
      <trkpt lat="38.4651780" lon="-0.6784230">
        <ele>451.0</ele>
        <time>2018-10-14T07:31:25Z</time>
      </trkpt>
      <trkpt lat="38.4651700" lon="-0.6784030">
        <ele>451.0</ele>
        <time>2018-10-14T07:31:26Z</time>
      </trkpt>
      <trkpt lat="38.4651700" lon="-0.6784030">
        <ele>451.0</ele>
        <time>2018-10-14T07:31:27Z</time>
      </trkpt>
      <trkpt lat="38.4651630" lon="-0.6783680">
        <ele>451.0</ele>
        <time>2018-10-14T07:31:28Z</time>
      </trkpt>
      <trkpt lat="38.4651630" lon="-0.6783680">
        <ele>451.0</ele>
        <time>2018-10-14T07:31:29Z</time>
      </trkpt>
      <trkpt lat="38.4651670" lon="-0.6783530">
        <ele>451.0</ele>
        <time>2018-10-14T07:31:30Z</time>
      </trkpt>
      <trkpt lat="38.4651670" lon="-0.6783530">
        <ele>451.0</ele>
        <time>2018-10-14T07:31:31Z</time>
      </trkpt>
      <trkpt lat="38.4651670" lon="-0.6783550">
        <ele>451.0</ele>
        <time>2018-10-14T07:31:45Z</time>
      </trkpt>
      <trkpt lat="38.4651670" lon="-0.6783550">
        <ele>451.0</ele>
        <time>2018-10-14T07:31:46Z</time>
      </trkpt>
      <trkpt lat="38.4651670" lon="-0.6783820">
        <ele>451.0</ele>
        <time>2018-10-14T07:31:47Z</time>
      </trkpt>
      <trkpt lat="38.4651680" lon="-0.6783870">
        <ele>451.0</ele>
        <time>2018-10-14T07:31:48Z</time>
      </trkpt>
      <trkpt lat="38.4651680" lon="-0.6783870">
        <ele>451.0</ele>
        <time>2018-10-14T07:31:49Z</time>
      </trkpt>
      <trkpt lat="38.4651730" lon="-0.6784000">
        <ele>451.0</ele>
        <time>2018-10-14T07:31:50Z</time>
      </trkpt>
      <trkpt lat="38.4651730" lon="-0.6784000">
        <ele>451.0</ele>
        <time>2018-10-14T07:31:51Z</time>
      </trkpt>
      <trkpt lat="38.4651800" lon="-0.6784100">
        <ele>451.0</ele>
        <time>2018-10-14T07:31:52Z</time>
      </trkpt>
      <trkpt lat="38.4651800" lon="-0.6784100">
        <ele>451.0</ele>
        <time>2018-10-14T07:31:53Z</time>
      </trkpt>
      <trkpt lat="38.4651900" lon="-0.6784150">
        <ele>451.0</ele>
        <time>2018-10-14T07:31:54Z</time>
      </trkpt>
      <trkpt lat="38.4651950" lon="-0.6784180">
        <ele>451.0</ele>
        <time>2018-10-14T07:31:55Z</time>
      </trkpt>
      <trkpt lat="38.4651950" lon="-0.6784180">
        <ele>451.0</ele>
        <time>2018-10-14T07:36:50Z</time>
      </trkpt>
      <trkpt lat="38.4651950" lon="-0.6784180">
        <ele>451.0</ele>
        <time>2018-10-14T07:36:51Z</time>
      </trkpt>
      <trkpt lat="38.4651620" lon="-0.6783900">
        <ele>451.0</ele>
        <time>2018-10-14T07:36:52Z</time>
      </trkpt>
      <trkpt lat="38.4651620" lon="-0.6783900">
        <ele>452.0</ele>
        <time>2018-10-14T07:36:53Z</time>
      </trkpt>
      <trkpt lat="38.4651380" lon="-0.6783420">
        <ele>452.0</ele>
        <time>2018-10-14T07:36:54Z</time>
      </trkpt>
      <trkpt lat="38.4651380" lon="-0.6783420">
        <ele>452.0</ele>
        <time>2018-10-14T07:36:55Z</time>
      </trkpt>
      <trkpt lat="38.4651170" lon="-0.6782800">
        <ele>452.0</ele>
        <time>2018-10-14T07:36:56Z</time>
      </trkpt>
      <trkpt lat="38.4651170" lon="-0.6782800">
        <ele>453.0</ele>
        <time>2018-10-14T07:36:57Z</time>
      </trkpt>
      <trkpt lat="38.4651020" lon="-0.6782180">
        <ele>453.0</ele>
        <time>2018-10-14T07:36:58Z</time>
      </trkpt>
      <trkpt lat="38.4651020" lon="-0.6782180">
        <ele>453.0</ele>
        <time>2018-10-14T07:36:59Z</time>
      </trkpt>
      <trkpt lat="38.4651050" lon="-0.6781500">
        <ele>453.0</ele>
        <time>2018-10-14T07:37:00Z</time>
      </trkpt>
      <trkpt lat="38.4651050" lon="-0.6781500">
        <ele>453.0</ele>
        <time>2018-10-14T07:37:01Z</time>
      </trkpt>
      <trkpt lat="38.4651300" lon="-0.6780570">
        <ele>453.0</ele>
        <time>2018-10-14T07:37:02Z</time>
      </trkpt>
      <trkpt lat="38.4651300" lon="-0.6780570">
        <ele>453.0</ele>
        <time>2018-10-14T07:37:03Z</time>
      </trkpt>
      <trkpt lat="38.4651780" lon="-0.6779400">
        <ele>453.0</ele>
        <time>2018-10-14T07:37:04Z</time>
      </trkpt>
      <trkpt lat="38.4652130" lon="-0.6778770">
        <ele>453.0</ele>
        <time>2018-10-14T07:37:05Z</time>
      </trkpt>
      <trkpt lat="38.4652130" lon="-0.6778770">
        <ele>452.0</ele>
        <time>2018-10-14T07:37:06Z</time>
      </trkpt>
      <trkpt lat="38.4652880" lon="-0.6777450">
        <ele>452.0</ele>
        <time>2018-10-14T07:37:07Z</time>
      </trkpt>
      <trkpt lat="38.4653200" lon="-0.6776750">
        <ele>452.0</ele>
        <time>2018-10-14T07:37:08Z</time>
      </trkpt>
      <trkpt lat="38.4653200" lon="-0.6776750">
        <ele>452.0</ele>
        <time>2018-10-14T07:37:09Z</time>
      </trkpt>
      <trkpt lat="38.4653800" lon="-0.6775430">
        <ele>451.0</ele>
        <time>2018-10-14T07:37:10Z</time>
      </trkpt>
      <trkpt lat="38.4653800" lon="-0.6775430">
        <ele>451.0</ele>
        <time>2018-10-14T07:37:11Z</time>
      </trkpt>
      <trkpt lat="38.4654270" lon="-0.6774200">
        <ele>451.0</ele>
        <time>2018-10-14T07:37:12Z</time>
      </trkpt>
      <trkpt lat="38.4654270" lon="-0.6774200">
        <ele>451.0</ele>
        <time>2018-10-14T07:37:13Z</time>
      </trkpt>
      <trkpt lat="38.4654700" lon="-0.6772980">
        <ele>451.0</ele>
        <time>2018-10-14T07:37:14Z</time>
      </trkpt>
      <trkpt lat="38.4654700" lon="-0.6772980">
        <ele>451.0</ele>
        <time>2018-10-14T07:37:15Z</time>
      </trkpt>
      <trkpt lat="38.4655250" lon="-0.6771870">
        <ele>451.0</ele>
        <time>2018-10-14T07:37:16Z</time>
      </trkpt>
      <trkpt lat="38.4655250" lon="-0.6771870">
        <ele>451.0</ele>
        <time>2018-10-14T07:37:17Z</time>
      </trkpt>
      <trkpt lat="38.4656080" lon="-0.6770950">
        <ele>450.0</ele>
        <time>2018-10-14T07:37:18Z</time>
      </trkpt>
      <trkpt lat="38.4656080" lon="-0.6770950">
        <ele>450.0</ele>
        <time>2018-10-14T07:37:19Z</time>
      </trkpt>
      <trkpt lat="38.4657020" lon="-0.6770270">
        <ele>450.0</ele>
        <time>2018-10-14T07:37:20Z</time>
      </trkpt>
      <trkpt lat="38.4657020" lon="-0.6770270">
        <ele>450.0</ele>
        <time>2018-10-14T07:37:21Z</time>
      </trkpt>
      <trkpt lat="38.4657950" lon="-0.6769670">
        <ele>449.0</ele>
        <time>2018-10-14T07:37:22Z</time>
      </trkpt>
      <trkpt lat="38.4657950" lon="-0.6769670">
        <ele>449.0</ele>
        <time>2018-10-14T07:37:23Z</time>
      </trkpt>
      <trkpt lat="38.4658870" lon="-0.6769170">
        <ele>449.0</ele>
        <time>2018-10-14T07:37:24Z</time>
      </trkpt>
      <trkpt lat="38.4658870" lon="-0.6769170">
        <ele>449.0</ele>
        <time>2018-10-14T07:37:25Z</time>
      </trkpt>
      <trkpt lat="38.4659820" lon="-0.6768530">
        <ele>449.0</ele>
        <time>2018-10-14T07:37:26Z</time>
      </trkpt>
      <trkpt lat="38.4660250" lon="-0.6768130">
        <ele>449.0</ele>
        <time>2018-10-14T07:37:27Z</time>
      </trkpt>
      <trkpt lat="38.4660670" lon="-0.6767750">
        <ele>449.0</ele>
        <time>2018-10-14T07:37:28Z</time>
      </trkpt>
      <trkpt lat="38.4660670" lon="-0.6767750">
        <ele>449.0</ele>
        <time>2018-10-14T07:37:29Z</time>
      </trkpt>
      <trkpt lat="38.4661470" lon="-0.6766930">
        <ele>448.0</ele>
        <time>2018-10-14T07:37:30Z</time>
      </trkpt>
      <trkpt lat="38.4661470" lon="-0.6766930">
        <ele>448.0</ele>
        <time>2018-10-14T07:37:31Z</time>
      </trkpt>
      <trkpt lat="38.4662100" lon="-0.6766280">
        <ele>448.0</ele>
        <time>2018-10-14T07:37:32Z</time>
      </trkpt>
      <trkpt lat="38.4662100" lon="-0.6766280">
        <ele>448.0</ele>
        <time>2018-10-14T07:37:33Z</time>
      </trkpt>
      <trkpt lat="38.4662620" lon="-0.6765780">
        <ele>448.0</ele>
        <time>2018-10-14T07:37:34Z</time>
      </trkpt>
      <trkpt lat="38.4662830" lon="-0.6765600">
        <ele>448.0</ele>
        <time>2018-10-14T07:37:35Z</time>
      </trkpt>
      <trkpt lat="38.4662830" lon="-0.6765600">
        <ele>448.0</ele>
        <time>2018-10-14T07:37:36Z</time>
      </trkpt>
      <trkpt lat="38.4663350" lon="-0.6765280">
        <ele>448.0</ele>
        <time>2018-10-14T07:37:37Z</time>
      </trkpt>
      <trkpt lat="38.4663350" lon="-0.6765280">
        <ele>449.0</ele>
        <time>2018-10-14T07:37:38Z</time>
      </trkpt>
      <trkpt lat="38.4663900" lon="-0.6765070">
        <ele>449.0</ele>
        <time>2018-10-14T07:37:39Z</time>
      </trkpt>
      <trkpt lat="38.4663900" lon="-0.6765070">
        <ele>449.0</ele>
        <time>2018-10-14T07:37:40Z</time>
      </trkpt>
      <trkpt lat="38.4664470" lon="-0.6764900">
        <ele>449.0</ele>
        <time>2018-10-14T07:37:41Z</time>
      </trkpt>
      <trkpt lat="38.4664770" lon="-0.6764820">
        <ele>450.0</ele>
        <time>2018-10-14T07:37:42Z</time>
      </trkpt>
      <trkpt lat="38.4664770" lon="-0.6764820">
        <ele>450.0</ele>
        <time>2018-10-14T07:37:43Z</time>
      </trkpt>
      <trkpt lat="38.4665320" lon="-0.6764680">
        <ele>451.0</ele>
        <time>2018-10-14T07:37:44Z</time>
      </trkpt>
      <trkpt lat="38.4665320" lon="-0.6764680">
        <ele>451.0</ele>
        <time>2018-10-14T07:37:45Z</time>
      </trkpt>
      <trkpt lat="38.4665920" lon="-0.6764580">
        <ele>451.0</ele>
        <time>2018-10-14T07:37:46Z</time>
      </trkpt>
      <trkpt lat="38.4665920" lon="-0.6764580">
        <ele>451.0</ele>
        <time>2018-10-14T07:37:47Z</time>
      </trkpt>
      <trkpt lat="38.4666480" lon="-0.6764550">
        <ele>451.0</ele>
        <time>2018-10-14T07:37:48Z</time>
      </trkpt>
      <trkpt lat="38.4666480" lon="-0.6764550">
        <ele>451.0</ele>
        <time>2018-10-14T07:37:49Z</time>
      </trkpt>
      <trkpt lat="38.4667030" lon="-0.6764480">
        <ele>451.0</ele>
        <time>2018-10-14T07:37:50Z</time>
      </trkpt>
      <trkpt lat="38.4667030" lon="-0.6764480">
        <ele>451.0</ele>
        <time>2018-10-14T07:37:51Z</time>
      </trkpt>
      <trkpt lat="38.4667630" lon="-0.6764320">
        <ele>452.0</ele>
        <time>2018-10-14T07:37:52Z</time>
      </trkpt>
      <trkpt lat="38.4667630" lon="-0.6764320">
        <ele>453.0</ele>
        <time>2018-10-14T07:37:53Z</time>
      </trkpt>
      <trkpt lat="38.4668200" lon="-0.6764200">
        <ele>453.0</ele>
        <time>2018-10-14T07:37:54Z</time>
      </trkpt>
      <trkpt lat="38.4668200" lon="-0.6764200">
        <ele>453.0</ele>
        <time>2018-10-14T07:37:55Z</time>
      </trkpt>
      <trkpt lat="38.4668730" lon="-0.6764150">
        <ele>454.0</ele>
        <time>2018-10-14T07:37:56Z</time>
      </trkpt>
      <trkpt lat="38.4668730" lon="-0.6764150">
        <ele>454.0</ele>
        <time>2018-10-14T07:37:57Z</time>
      </trkpt>
      <trkpt lat="38.4669220" lon="-0.6764050">
        <ele>454.0</ele>
        <time>2018-10-14T07:37:58Z</time>
      </trkpt>
      <trkpt lat="38.4669450" lon="-0.6764020">
        <ele>454.0</ele>
        <time>2018-10-14T07:37:59Z</time>
      </trkpt>
      <trkpt lat="38.4669450" lon="-0.6764020">
        <ele>454.0</ele>
        <time>2018-10-14T07:38:00Z</time>
      </trkpt>
      <trkpt lat="38.4669920" lon="-0.6763930">
        <ele>454.0</ele>
        <time>2018-10-14T07:38:01Z</time>
      </trkpt>
      <trkpt lat="38.4669920" lon="-0.6763930">
        <ele>454.0</ele>
        <time>2018-10-14T07:38:02Z</time>
      </trkpt>
      <trkpt lat="38.4670370" lon="-0.6763950">
        <ele>454.0</ele>
        <time>2018-10-14T07:38:03Z</time>
      </trkpt>
      <trkpt lat="38.4670370" lon="-0.6763950">
        <ele>454.0</ele>
        <time>2018-10-14T07:38:04Z</time>
      </trkpt>
      <trkpt lat="38.4670820" lon="-0.6763870">
        <ele>455.0</ele>
        <time>2018-10-14T07:38:05Z</time>
      </trkpt>
      <trkpt lat="38.4671030" lon="-0.6763780">
        <ele>455.0</ele>
        <time>2018-10-14T07:38:06Z</time>
      </trkpt>
      <trkpt lat="38.4671030" lon="-0.6763780">
        <ele>455.0</ele>
        <time>2018-10-14T07:38:07Z</time>
      </trkpt>
      <trkpt lat="38.4671420" lon="-0.6763600">
        <ele>455.0</ele>
        <time>2018-10-14T07:38:08Z</time>
      </trkpt>
      <trkpt lat="38.4671570" lon="-0.6763500">
        <ele>456.0</ele>
        <time>2018-10-14T07:38:09Z</time>
      </trkpt>
      <trkpt lat="38.4671720" lon="-0.6763370">
        <ele>456.0</ele>
        <time>2018-10-14T07:38:10Z</time>
      </trkpt>
      <trkpt lat="38.4671720" lon="-0.6763370">
        <ele>456.0</ele>
        <time>2018-10-14T07:38:11Z</time>
      </trkpt>
      <trkpt lat="38.4671950" lon="-0.6762980">
        <ele>456.0</ele>
        <time>2018-10-14T07:38:12Z</time>
      </trkpt>
      <trkpt lat="38.4671950" lon="-0.6762980">
        <ele>456.0</ele>
        <time>2018-10-14T07:38:13Z</time>
      </trkpt>
      <trkpt lat="38.4672170" lon="-0.6762520">
        <ele>456.0</ele>
        <time>2018-10-14T07:38:14Z</time>
      </trkpt>
      <trkpt lat="38.4672270" lon="-0.6762270">
        <ele>456.0</ele>
        <time>2018-10-14T07:38:15Z</time>
      </trkpt>
      <trkpt lat="38.4672380" lon="-0.6762020">
        <ele>456.0</ele>
        <time>2018-10-14T07:38:16Z</time>
      </trkpt>
      <trkpt lat="38.4672380" lon="-0.6762020">
        <ele>456.0</ele>
        <time>2018-10-14T07:38:17Z</time>
      </trkpt>
      <trkpt lat="38.4672600" lon="-0.6761520">
        <ele>457.0</ele>
        <time>2018-10-14T07:38:18Z</time>
      </trkpt>
      <trkpt lat="38.4672600" lon="-0.6761520">
        <ele>457.0</ele>
        <time>2018-10-14T07:38:19Z</time>
      </trkpt>
      <trkpt lat="38.4672780" lon="-0.6761020">
        <ele>457.0</ele>
        <time>2018-10-14T07:38:20Z</time>
      </trkpt>
      <trkpt lat="38.4672780" lon="-0.6761020">
        <ele>457.0</ele>
        <time>2018-10-14T07:38:21Z</time>
      </trkpt>
      <trkpt lat="38.4673000" lon="-0.6760480">
        <ele>457.0</ele>
        <time>2018-10-14T07:38:22Z</time>
      </trkpt>
      <trkpt lat="38.4673000" lon="-0.6760480">
        <ele>457.0</ele>
        <time>2018-10-14T07:38:23Z</time>
      </trkpt>
      <trkpt lat="38.4673200" lon="-0.6759980">
        <ele>457.0</ele>
        <time>2018-10-14T07:38:24Z</time>
      </trkpt>
      <trkpt lat="38.4673200" lon="-0.6759980">
        <ele>457.0</ele>
        <time>2018-10-14T07:38:25Z</time>
      </trkpt>
      <trkpt lat="38.4673380" lon="-0.6759550">
        <ele>457.0</ele>
        <time>2018-10-14T07:38:26Z</time>
      </trkpt>
      <trkpt lat="38.4673380" lon="-0.6759550">
        <ele>457.0</ele>
        <time>2018-10-14T07:38:27Z</time>
      </trkpt>
      <trkpt lat="38.4673550" lon="-0.6759180">
        <ele>457.0</ele>
        <time>2018-10-14T07:38:28Z</time>
      </trkpt>
      <trkpt lat="38.4673550" lon="-0.6759180">
        <ele>457.0</ele>
        <time>2018-10-14T07:38:29Z</time>
      </trkpt>
      <trkpt lat="38.4673780" lon="-0.6758680">
        <ele>457.0</ele>
        <time>2018-10-14T07:38:30Z</time>
      </trkpt>
      <trkpt lat="38.4673780" lon="-0.6758680">
        <ele>457.0</ele>
        <time>2018-10-14T07:38:31Z</time>
      </trkpt>
      <trkpt lat="38.4674030" lon="-0.6758150">
        <ele>457.0</ele>
        <time>2018-10-14T07:38:32Z</time>
      </trkpt>
      <trkpt lat="38.4674030" lon="-0.6758150">
        <ele>457.0</ele>
        <time>2018-10-14T07:38:33Z</time>
      </trkpt>
      <trkpt lat="38.4674320" lon="-0.6757580">
        <ele>457.0</ele>
        <time>2018-10-14T07:38:34Z</time>
      </trkpt>
      <trkpt lat="38.4674320" lon="-0.6757580">
        <ele>457.0</ele>
        <time>2018-10-14T07:38:35Z</time>
      </trkpt>
      <trkpt lat="38.4674600" lon="-0.6757030">
        <ele>457.0</ele>
        <time>2018-10-14T07:38:36Z</time>
      </trkpt>
      <trkpt lat="38.4674600" lon="-0.6757030">
        <ele>457.0</ele>
        <time>2018-10-14T07:38:37Z</time>
      </trkpt>
      <trkpt lat="38.4674900" lon="-0.6756500">
        <ele>457.0</ele>
        <time>2018-10-14T07:38:38Z</time>
      </trkpt>
      <trkpt lat="38.4674900" lon="-0.6756500">
        <ele>458.0</ele>
        <time>2018-10-14T07:38:39Z</time>
      </trkpt>
      <trkpt lat="38.4675220" lon="-0.6755970">
        <ele>458.0</ele>
        <time>2018-10-14T07:38:40Z</time>
      </trkpt>
      <trkpt lat="38.4675220" lon="-0.6755970">
        <ele>458.0</ele>
        <time>2018-10-14T07:38:41Z</time>
      </trkpt>
      <trkpt lat="38.4675530" lon="-0.6755430">
        <ele>458.0</ele>
        <time>2018-10-14T07:38:42Z</time>
      </trkpt>
      <trkpt lat="38.4675530" lon="-0.6755430">
        <ele>458.0</ele>
        <time>2018-10-14T07:38:43Z</time>
      </trkpt>
      <trkpt lat="38.4675870" lon="-0.6754920">
        <ele>458.0</ele>
        <time>2018-10-14T07:38:44Z</time>
      </trkpt>
      <trkpt lat="38.4675870" lon="-0.6754920">
        <ele>458.0</ele>
        <time>2018-10-14T07:38:45Z</time>
      </trkpt>
      <trkpt lat="38.4676180" lon="-0.6754450">
        <ele>458.0</ele>
        <time>2018-10-14T07:38:46Z</time>
      </trkpt>
      <trkpt lat="38.4676180" lon="-0.6754450">
        <ele>458.0</ele>
        <time>2018-10-14T07:38:47Z</time>
      </trkpt>
      <trkpt lat="38.4676480" lon="-0.6753980">
        <ele>458.0</ele>
        <time>2018-10-14T07:38:48Z</time>
      </trkpt>
      <trkpt lat="38.4676480" lon="-0.6753980">
        <ele>458.0</ele>
        <time>2018-10-14T07:38:49Z</time>
      </trkpt>
      <trkpt lat="38.4676800" lon="-0.6753530">
        <ele>458.0</ele>
        <time>2018-10-14T07:38:50Z</time>
      </trkpt>
      <trkpt lat="38.4676950" lon="-0.6753300">
        <ele>458.0</ele>
        <time>2018-10-14T07:38:51Z</time>
      </trkpt>
      <trkpt lat="38.4676950" lon="-0.6753300">
        <ele>458.0</ele>
        <time>2018-10-14T07:38:52Z</time>
      </trkpt>
      <trkpt lat="38.4677230" lon="-0.6752820">
        <ele>458.0</ele>
        <time>2018-10-14T07:38:53Z</time>
      </trkpt>
      <trkpt lat="38.4677370" lon="-0.6752550">
        <ele>458.0</ele>
        <time>2018-10-14T07:38:54Z</time>
      </trkpt>
      <trkpt lat="38.4677370" lon="-0.6752550">
        <ele>459.0</ele>
        <time>2018-10-14T07:38:55Z</time>
      </trkpt>
      <trkpt lat="38.4677650" lon="-0.6752070">
        <ele>459.0</ele>
        <time>2018-10-14T07:38:56Z</time>
      </trkpt>
      <trkpt lat="38.4677820" lon="-0.6751830">
        <ele>459.0</ele>
        <time>2018-10-14T07:38:57Z</time>
      </trkpt>
      <trkpt lat="38.4678020" lon="-0.6751620">
        <ele>459.0</ele>
        <time>2018-10-14T07:38:58Z</time>
      </trkpt>
      <trkpt lat="38.4678020" lon="-0.6751620">
        <ele>459.0</ele>
        <time>2018-10-14T07:38:59Z</time>
      </trkpt>
      <trkpt lat="38.4678380" lon="-0.6751220">
        <ele>459.0</ele>
        <time>2018-10-14T07:39:00Z</time>
      </trkpt>
      <trkpt lat="38.4678570" lon="-0.6751030">
        <ele>459.0</ele>
        <time>2018-10-14T07:39:01Z</time>
      </trkpt>
      <trkpt lat="38.4678730" lon="-0.6750870">
        <ele>459.0</ele>
        <time>2018-10-14T07:39:02Z</time>
      </trkpt>
      <trkpt lat="38.4678730" lon="-0.6750870">
        <ele>459.0</ele>
        <time>2018-10-14T07:39:03Z</time>
      </trkpt>
      <trkpt lat="38.4679080" lon="-0.6750580">
        <ele>459.0</ele>
        <time>2018-10-14T07:39:04Z</time>
      </trkpt>
      <trkpt lat="38.4679080" lon="-0.6750580">
        <ele>459.0</ele>
        <time>2018-10-14T07:39:05Z</time>
      </trkpt>
      <trkpt lat="38.4679450" lon="-0.6750330">
        <ele>459.0</ele>
        <time>2018-10-14T07:39:06Z</time>
      </trkpt>
      <trkpt lat="38.4679630" lon="-0.6750220">
        <ele>459.0</ele>
        <time>2018-10-14T07:39:07Z</time>
      </trkpt>
      <trkpt lat="38.4679630" lon="-0.6750220">
        <ele>460.0</ele>
        <time>2018-10-14T07:39:08Z</time>
      </trkpt>
      <trkpt lat="38.4680020" lon="-0.6749920">
        <ele>460.0</ele>
        <time>2018-10-14T07:39:09Z</time>
      </trkpt>
      <trkpt lat="38.4680020" lon="-0.6749920">
        <ele>460.0</ele>
        <time>2018-10-14T07:39:10Z</time>
      </trkpt>
      <trkpt lat="38.4680400" lon="-0.6749580">
        <ele>460.0</ele>
        <time>2018-10-14T07:39:11Z</time>
      </trkpt>
      <trkpt lat="38.4680600" lon="-0.6749420">
        <ele>460.0</ele>
        <time>2018-10-14T07:39:12Z</time>
      </trkpt>
      <trkpt lat="38.4680600" lon="-0.6749420">
        <ele>460.0</ele>
        <time>2018-10-14T07:39:13Z</time>
      </trkpt>
      <trkpt lat="38.4681020" lon="-0.6749070">
        <ele>460.0</ele>
        <time>2018-10-14T07:39:14Z</time>
      </trkpt>
      <trkpt lat="38.4681220" lon="-0.6748880">
        <ele>460.0</ele>
        <time>2018-10-14T07:39:15Z</time>
      </trkpt>
      <trkpt lat="38.4681220" lon="-0.6748880">
        <ele>460.0</ele>
        <time>2018-10-14T07:39:16Z</time>
      </trkpt>
      <trkpt lat="38.4681630" lon="-0.6748530">
        <ele>460.0</ele>
        <time>2018-10-14T07:39:17Z</time>
      </trkpt>
      <trkpt lat="38.4681830" lon="-0.6748350">
        <ele>460.0</ele>
        <time>2018-10-14T07:39:18Z</time>
      </trkpt>
      <trkpt lat="38.4681830" lon="-0.6748350">
        <ele>460.0</ele>
        <time>2018-10-14T07:39:19Z</time>
      </trkpt>
      <trkpt lat="38.4682280" lon="-0.6747980">
        <ele>460.0</ele>
        <time>2018-10-14T07:39:20Z</time>
      </trkpt>
      <trkpt lat="38.4682280" lon="-0.6747980">
        <ele>460.0</ele>
        <time>2018-10-14T07:39:21Z</time>
      </trkpt>
      <trkpt lat="38.4682770" lon="-0.6747650">
        <ele>460.0</ele>
        <time>2018-10-14T07:39:22Z</time>
      </trkpt>
      <trkpt lat="38.4682770" lon="-0.6747650">
        <ele>460.0</ele>
        <time>2018-10-14T07:39:23Z</time>
      </trkpt>
      <trkpt lat="38.4683250" lon="-0.6747300">
        <ele>460.0</ele>
        <time>2018-10-14T07:39:24Z</time>
      </trkpt>
      <trkpt lat="38.4683250" lon="-0.6747300">
        <ele>460.0</ele>
        <time>2018-10-14T07:39:25Z</time>
      </trkpt>
      <trkpt lat="38.4683720" lon="-0.6746970">
        <ele>460.0</ele>
        <time>2018-10-14T07:39:26Z</time>
      </trkpt>
      <trkpt lat="38.4683950" lon="-0.6746780">
        <ele>460.0</ele>
        <time>2018-10-14T07:39:27Z</time>
      </trkpt>
      <trkpt lat="38.4684170" lon="-0.6746600">
        <ele>460.0</ele>
        <time>2018-10-14T07:39:28Z</time>
      </trkpt>
      <trkpt lat="38.4684170" lon="-0.6746600">
        <ele>460.0</ele>
        <time>2018-10-14T07:39:29Z</time>
      </trkpt>
      <trkpt lat="38.4684630" lon="-0.6746270">
        <ele>460.0</ele>
        <time>2018-10-14T07:39:30Z</time>
      </trkpt>
      <trkpt lat="38.4684630" lon="-0.6746270">
        <ele>460.0</ele>
        <time>2018-10-14T07:39:31Z</time>
      </trkpt>
      <trkpt lat="38.4685120" lon="-0.6745920">
        <ele>460.0</ele>
        <time>2018-10-14T07:39:32Z</time>
      </trkpt>
      <trkpt lat="38.4685370" lon="-0.6745750">
        <ele>460.0</ele>
        <time>2018-10-14T07:39:33Z</time>
      </trkpt>
      <trkpt lat="38.4685370" lon="-0.6745750">
        <ele>460.0</ele>
        <time>2018-10-14T07:39:34Z</time>
      </trkpt>
      <trkpt lat="38.4685850" lon="-0.6745400">
        <ele>460.0</ele>
        <time>2018-10-14T07:39:35Z</time>
      </trkpt>
      <trkpt lat="38.4686080" lon="-0.6745220">
        <ele>460.0</ele>
        <time>2018-10-14T07:39:36Z</time>
      </trkpt>
      <trkpt lat="38.4686080" lon="-0.6745220">
        <ele>460.0</ele>
        <time>2018-10-14T07:39:37Z</time>
      </trkpt>
      <trkpt lat="38.4686570" lon="-0.6744900">
        <ele>460.0</ele>
        <time>2018-10-14T07:39:38Z</time>
      </trkpt>
      <trkpt lat="38.4686800" lon="-0.6744730">
        <ele>460.0</ele>
        <time>2018-10-14T07:39:39Z</time>
      </trkpt>
      <trkpt lat="38.4686800" lon="-0.6744730">
        <ele>461.0</ele>
        <time>2018-10-14T07:39:40Z</time>
      </trkpt>
      <trkpt lat="38.4687280" lon="-0.6744350">
        <ele>461.0</ele>
        <time>2018-10-14T07:39:41Z</time>
      </trkpt>
      <trkpt lat="38.4687520" lon="-0.6744170">
        <ele>461.0</ele>
        <time>2018-10-14T07:39:42Z</time>
      </trkpt>
      <trkpt lat="38.4687520" lon="-0.6744170">
        <ele>461.0</ele>
        <time>2018-10-14T07:39:43Z</time>
      </trkpt>
      <trkpt lat="38.4688020" lon="-0.6743870">
        <ele>461.0</ele>
        <time>2018-10-14T07:39:44Z</time>
      </trkpt>
      <trkpt lat="38.4688020" lon="-0.6743870">
        <ele>461.0</ele>
        <time>2018-10-14T07:39:45Z</time>
      </trkpt>
      <trkpt lat="38.4688480" lon="-0.6743570">
        <ele>461.0</ele>
        <time>2018-10-14T07:39:46Z</time>
      </trkpt>
      <trkpt lat="38.4688480" lon="-0.6743570">
        <ele>461.0</ele>
        <time>2018-10-14T07:39:47Z</time>
      </trkpt>
      <trkpt lat="38.4688930" lon="-0.6743270">
        <ele>461.0</ele>
        <time>2018-10-14T07:39:48Z</time>
      </trkpt>
      <trkpt lat="38.4688930" lon="-0.6743270">
        <ele>461.0</ele>
        <time>2018-10-14T07:39:49Z</time>
      </trkpt>
      <trkpt lat="38.4689400" lon="-0.6742950">
        <ele>461.0</ele>
        <time>2018-10-14T07:39:50Z</time>
      </trkpt>
      <trkpt lat="38.4689400" lon="-0.6742950">
        <ele>461.0</ele>
        <time>2018-10-14T07:39:51Z</time>
      </trkpt>
      <trkpt lat="38.4689900" lon="-0.6742630">
        <ele>461.0</ele>
        <time>2018-10-14T07:39:52Z</time>
      </trkpt>
      <trkpt lat="38.4689900" lon="-0.6742630">
        <ele>462.0</ele>
        <time>2018-10-14T07:39:53Z</time>
      </trkpt>
      <trkpt lat="38.4690420" lon="-0.6742320">
        <ele>462.0</ele>
        <time>2018-10-14T07:39:54Z</time>
      </trkpt>
      <trkpt lat="38.4690420" lon="-0.6742320">
        <ele>462.0</ele>
        <time>2018-10-14T07:39:55Z</time>
      </trkpt>
      <trkpt lat="38.4690920" lon="-0.6741970">
        <ele>462.0</ele>
        <time>2018-10-14T07:39:56Z</time>
      </trkpt>
      <trkpt lat="38.4690920" lon="-0.6741970">
        <ele>462.0</ele>
        <time>2018-10-14T07:39:57Z</time>
      </trkpt>
      <trkpt lat="38.4691480" lon="-0.6741570">
        <ele>462.0</ele>
        <time>2018-10-14T07:39:58Z</time>
      </trkpt>
      <trkpt lat="38.4691800" lon="-0.6741370">
        <ele>462.0</ele>
        <time>2018-10-14T07:39:59Z</time>
      </trkpt>
      <trkpt lat="38.4692150" lon="-0.6741150">
        <ele>462.0</ele>
        <time>2018-10-14T07:40:00Z</time>
      </trkpt>
      <trkpt lat="38.4692150" lon="-0.6741150">
        <ele>462.0</ele>
        <time>2018-10-14T07:40:01Z</time>
      </trkpt>
      <trkpt lat="38.4692830" lon="-0.6740720">
        <ele>462.0</ele>
        <time>2018-10-14T07:40:02Z</time>
      </trkpt>
      <trkpt lat="38.4692830" lon="-0.6740720">
        <ele>462.0</ele>
        <time>2018-10-14T07:40:03Z</time>
      </trkpt>
      <trkpt lat="38.4693520" lon="-0.6740280">
        <ele>462.0</ele>
        <time>2018-10-14T07:40:04Z</time>
      </trkpt>
      <trkpt lat="38.4693520" lon="-0.6740280">
        <ele>462.0</ele>
        <time>2018-10-14T07:40:05Z</time>
      </trkpt>
      <trkpt lat="38.4694170" lon="-0.6739850">
        <ele>462.0</ele>
        <time>2018-10-14T07:40:06Z</time>
      </trkpt>
      <trkpt lat="38.4694170" lon="-0.6739850">
        <ele>462.0</ele>
        <time>2018-10-14T07:40:07Z</time>
      </trkpt>
      <trkpt lat="38.4694750" lon="-0.6739400">
        <ele>462.0</ele>
        <time>2018-10-14T07:40:08Z</time>
      </trkpt>
      <trkpt lat="38.4694750" lon="-0.6739400">
        <ele>462.0</ele>
        <time>2018-10-14T07:40:09Z</time>
      </trkpt>
      <trkpt lat="38.4695350" lon="-0.6739000">
        <ele>462.0</ele>
        <time>2018-10-14T07:40:10Z</time>
      </trkpt>
      <trkpt lat="38.4695350" lon="-0.6739000">
        <ele>462.0</ele>
        <time>2018-10-14T07:40:11Z</time>
      </trkpt>
      <trkpt lat="38.4695920" lon="-0.6738570">
        <ele>462.0</ele>
        <time>2018-10-14T07:40:12Z</time>
      </trkpt>
      <trkpt lat="38.4696200" lon="-0.6738370">
        <ele>462.0</ele>
        <time>2018-10-14T07:40:13Z</time>
      </trkpt>
      <trkpt lat="38.4696200" lon="-0.6738370">
        <ele>462.0</ele>
        <time>2018-10-14T07:40:14Z</time>
      </trkpt>
      <trkpt lat="38.4696730" lon="-0.6737980">
        <ele>462.0</ele>
        <time>2018-10-14T07:40:15Z</time>
      </trkpt>
      <trkpt lat="38.4696730" lon="-0.6737980">
        <ele>462.0</ele>
        <time>2018-10-14T07:40:16Z</time>
      </trkpt>
      <trkpt lat="38.4697280" lon="-0.6737530">
        <ele>462.0</ele>
        <time>2018-10-14T07:40:17Z</time>
      </trkpt>
      <trkpt lat="38.4697550" lon="-0.6737330">
        <ele>462.0</ele>
        <time>2018-10-14T07:40:18Z</time>
      </trkpt>
      <trkpt lat="38.4697550" lon="-0.6737330">
        <ele>462.0</ele>
        <time>2018-10-14T07:40:19Z</time>
      </trkpt>
      <trkpt lat="38.4698120" lon="-0.6736900">
        <ele>462.0</ele>
        <time>2018-10-14T07:40:20Z</time>
      </trkpt>
      <trkpt lat="38.4698120" lon="-0.6736900">
        <ele>462.0</ele>
        <time>2018-10-14T07:40:21Z</time>
      </trkpt>
      <trkpt lat="38.4698650" lon="-0.6736450">
        <ele>462.0</ele>
        <time>2018-10-14T07:40:22Z</time>
      </trkpt>
      <trkpt lat="38.4698650" lon="-0.6736450">
        <ele>463.0</ele>
        <time>2018-10-14T07:40:23Z</time>
      </trkpt>
      <trkpt lat="38.4699170" lon="-0.6736020">
        <ele>463.0</ele>
        <time>2018-10-14T07:40:24Z</time>
      </trkpt>
      <trkpt lat="38.4699170" lon="-0.6736020">
        <ele>463.0</ele>
        <time>2018-10-14T07:40:25Z</time>
      </trkpt>
      <trkpt lat="38.4699650" lon="-0.6735580">
        <ele>463.0</ele>
        <time>2018-10-14T07:40:26Z</time>
      </trkpt>
      <trkpt lat="38.4699900" lon="-0.6735370">
        <ele>463.0</ele>
        <time>2018-10-14T07:40:27Z</time>
      </trkpt>
      <trkpt lat="38.4699900" lon="-0.6735370">
        <ele>463.0</ele>
        <time>2018-10-14T07:40:28Z</time>
      </trkpt>
      <trkpt lat="38.4700430" lon="-0.6734880">
        <ele>463.0</ele>
        <time>2018-10-14T07:40:29Z</time>
      </trkpt>
      <trkpt lat="38.4700700" lon="-0.6734630">
        <ele>463.0</ele>
        <time>2018-10-14T07:40:30Z</time>
      </trkpt>
      <trkpt lat="38.4700700" lon="-0.6734630">
        <ele>463.0</ele>
        <time>2018-10-14T07:40:31Z</time>
      </trkpt>
      <trkpt lat="38.4701220" lon="-0.6734100">
        <ele>463.0</ele>
        <time>2018-10-14T07:40:32Z</time>
      </trkpt>
      <trkpt lat="38.4701220" lon="-0.6734100">
        <ele>463.0</ele>
        <time>2018-10-14T07:40:33Z</time>
      </trkpt>
      <trkpt lat="38.4701730" lon="-0.6733550">
        <ele>463.0</ele>
        <time>2018-10-14T07:40:34Z</time>
      </trkpt>
      <trkpt lat="38.4701730" lon="-0.6733550">
        <ele>463.0</ele>
        <time>2018-10-14T07:40:35Z</time>
      </trkpt>
      <trkpt lat="38.4702220" lon="-0.6732980">
        <ele>464.0</ele>
        <time>2018-10-14T07:40:36Z</time>
      </trkpt>
      <trkpt lat="38.4702220" lon="-0.6732980">
        <ele>464.0</ele>
        <time>2018-10-14T07:40:37Z</time>
      </trkpt>
      <trkpt lat="38.4702700" lon="-0.6732430">
        <ele>464.0</ele>
        <time>2018-10-14T07:40:38Z</time>
      </trkpt>
      <trkpt lat="38.4702700" lon="-0.6732430">
        <ele>464.0</ele>
        <time>2018-10-14T07:40:39Z</time>
      </trkpt>
      <trkpt lat="38.4703180" lon="-0.6731850">
        <ele>465.0</ele>
        <time>2018-10-14T07:40:40Z</time>
      </trkpt>
      <trkpt lat="38.4703400" lon="-0.6731570">
        <ele>465.0</ele>
        <time>2018-10-14T07:40:41Z</time>
      </trkpt>
      <trkpt lat="38.4703400" lon="-0.6731570">
        <ele>465.0</ele>
        <time>2018-10-14T07:40:42Z</time>
      </trkpt>
      <trkpt lat="38.4703830" lon="-0.6730970">
        <ele>465.0</ele>
        <time>2018-10-14T07:40:43Z</time>
      </trkpt>
      <trkpt lat="38.4703830" lon="-0.6730970">
        <ele>465.0</ele>
        <time>2018-10-14T07:40:44Z</time>
      </trkpt>
      <trkpt lat="38.4704230" lon="-0.6730320">
        <ele>465.0</ele>
        <time>2018-10-14T07:40:45Z</time>
      </trkpt>
      <trkpt lat="38.4704230" lon="-0.6730320">
        <ele>466.0</ele>
        <time>2018-10-14T07:40:46Z</time>
      </trkpt>
      <trkpt lat="38.4704670" lon="-0.6729650">
        <ele>466.0</ele>
        <time>2018-10-14T07:40:47Z</time>
      </trkpt>
      <trkpt lat="38.4704880" lon="-0.6729320">
        <ele>466.0</ele>
        <time>2018-10-14T07:40:48Z</time>
      </trkpt>
      <trkpt lat="38.4704880" lon="-0.6729320">
        <ele>466.0</ele>
        <time>2018-10-14T07:40:49Z</time>
      </trkpt>
      <trkpt lat="38.4705280" lon="-0.6728650">
        <ele>466.0</ele>
        <time>2018-10-14T07:40:50Z</time>
      </trkpt>
      <trkpt lat="38.4705280" lon="-0.6728650">
        <ele>466.0</ele>
        <time>2018-10-14T07:40:51Z</time>
      </trkpt>
      <trkpt lat="38.4705670" lon="-0.6727980">
        <ele>466.0</ele>
        <time>2018-10-14T07:40:52Z</time>
      </trkpt>
      <trkpt lat="38.4705870" lon="-0.6727650">
        <ele>466.0</ele>
        <time>2018-10-14T07:40:53Z</time>
      </trkpt>
      <trkpt lat="38.4706030" lon="-0.6727300">
        <ele>467.0</ele>
        <time>2018-10-14T07:40:54Z</time>
      </trkpt>
      <trkpt lat="38.4706030" lon="-0.6727300">
        <ele>467.0</ele>
        <time>2018-10-14T07:40:55Z</time>
      </trkpt>
      <trkpt lat="38.4706380" lon="-0.6726580">
        <ele>467.0</ele>
        <time>2018-10-14T07:40:56Z</time>
      </trkpt>
      <trkpt lat="38.4706380" lon="-0.6726580">
        <ele>467.0</ele>
        <time>2018-10-14T07:40:57Z</time>
      </trkpt>
      <trkpt lat="38.4706730" lon="-0.6725850">
        <ele>467.0</ele>
        <time>2018-10-14T07:40:58Z</time>
      </trkpt>
      <trkpt lat="38.4706730" lon="-0.6725850">
        <ele>467.0</ele>
        <time>2018-10-14T07:40:59Z</time>
      </trkpt>
      <trkpt lat="38.4707050" lon="-0.6725100">
        <ele>467.0</ele>
        <time>2018-10-14T07:41:00Z</time>
      </trkpt>
      <trkpt lat="38.4707050" lon="-0.6725100">
        <ele>467.0</ele>
        <time>2018-10-14T07:41:01Z</time>
      </trkpt>
      <trkpt lat="38.4707320" lon="-0.6724280">
        <ele>467.0</ele>
        <time>2018-10-14T07:41:02Z</time>
      </trkpt>
      <trkpt lat="38.4707320" lon="-0.6724280">
        <ele>468.0</ele>
        <time>2018-10-14T07:41:03Z</time>
      </trkpt>
      <trkpt lat="38.4707530" lon="-0.6723430">
        <ele>468.0</ele>
        <time>2018-10-14T07:41:04Z</time>
      </trkpt>
      <trkpt lat="38.4707530" lon="-0.6723430">
        <ele>468.0</ele>
        <time>2018-10-14T07:41:05Z</time>
      </trkpt>
      <trkpt lat="38.4707770" lon="-0.6722580">
        <ele>468.0</ele>
        <time>2018-10-14T07:41:06Z</time>
      </trkpt>
      <trkpt lat="38.4707770" lon="-0.6722580">
        <ele>468.0</ele>
        <time>2018-10-14T07:41:07Z</time>
      </trkpt>
      <trkpt lat="38.4708030" lon="-0.6721730">
        <ele>468.0</ele>
        <time>2018-10-14T07:41:08Z</time>
      </trkpt>
      <trkpt lat="38.4708030" lon="-0.6721730">
        <ele>468.0</ele>
        <time>2018-10-14T07:41:09Z</time>
      </trkpt>
      <trkpt lat="38.4708320" lon="-0.6720900">
        <ele>468.0</ele>
        <time>2018-10-14T07:41:10Z</time>
      </trkpt>
      <trkpt lat="38.4708480" lon="-0.6720480">
        <ele>468.0</ele>
        <time>2018-10-14T07:41:11Z</time>
      </trkpt>
      <trkpt lat="38.4708630" lon="-0.6720080">
        <ele>468.0</ele>
        <time>2018-10-14T07:41:12Z</time>
      </trkpt>
      <trkpt lat="38.4708630" lon="-0.6720080">
        <ele>468.0</ele>
        <time>2018-10-14T07:41:13Z</time>
      </trkpt>
      <trkpt lat="38.4708900" lon="-0.6719270">
        <ele>468.0</ele>
        <time>2018-10-14T07:41:14Z</time>
      </trkpt>
      <trkpt lat="38.4708900" lon="-0.6719270">
        <ele>468.0</ele>
        <time>2018-10-14T07:41:15Z</time>
      </trkpt>
      <trkpt lat="38.4709120" lon="-0.6718400">
        <ele>468.0</ele>
        <time>2018-10-14T07:41:16Z</time>
      </trkpt>
      <trkpt lat="38.4709120" lon="-0.6718400">
        <ele>468.0</ele>
        <time>2018-10-14T07:41:17Z</time>
      </trkpt>
      <trkpt lat="38.4709350" lon="-0.6717480">
        <ele>468.0</ele>
        <time>2018-10-14T07:41:18Z</time>
      </trkpt>
      <trkpt lat="38.4709350" lon="-0.6717480">
        <ele>469.0</ele>
        <time>2018-10-14T07:41:19Z</time>
      </trkpt>
      <trkpt lat="38.4709550" lon="-0.6716600">
        <ele>469.0</ele>
        <time>2018-10-14T07:41:20Z</time>
      </trkpt>
      <trkpt lat="38.4709550" lon="-0.6716600">
        <ele>469.0</ele>
        <time>2018-10-14T07:41:21Z</time>
      </trkpt>
      <trkpt lat="38.4709730" lon="-0.6715670">
        <ele>469.0</ele>
        <time>2018-10-14T07:41:22Z</time>
      </trkpt>
      <trkpt lat="38.4709730" lon="-0.6715670">
        <ele>469.0</ele>
        <time>2018-10-14T07:41:23Z</time>
      </trkpt>
      <trkpt lat="38.4709870" lon="-0.6714680">
        <ele>469.0</ele>
        <time>2018-10-14T07:41:24Z</time>
      </trkpt>
      <trkpt lat="38.4709870" lon="-0.6714680">
        <ele>469.0</ele>
        <time>2018-10-14T07:41:25Z</time>
      </trkpt>
      <trkpt lat="38.4710030" lon="-0.6713670">
        <ele>469.0</ele>
        <time>2018-10-14T07:41:26Z</time>
      </trkpt>
      <trkpt lat="38.4710120" lon="-0.6713130">
        <ele>469.0</ele>
        <time>2018-10-14T07:41:27Z</time>
      </trkpt>
      <trkpt lat="38.4710220" lon="-0.6712600">
        <ele>469.0</ele>
        <time>2018-10-14T07:41:28Z</time>
      </trkpt>
      <trkpt lat="38.4710220" lon="-0.6712600">
        <ele>469.0</ele>
        <time>2018-10-14T07:41:29Z</time>
      </trkpt>
      <trkpt lat="38.4710380" lon="-0.6711530">
        <ele>469.0</ele>
        <time>2018-10-14T07:41:30Z</time>
      </trkpt>
      <trkpt lat="38.4710380" lon="-0.6711530">
        <ele>469.0</ele>
        <time>2018-10-14T07:41:31Z</time>
      </trkpt>
      <trkpt lat="38.4710520" lon="-0.6710500">
        <ele>469.0</ele>
        <time>2018-10-14T07:41:32Z</time>
      </trkpt>
      <trkpt lat="38.4710520" lon="-0.6710500">
        <ele>469.0</ele>
        <time>2018-10-14T07:41:33Z</time>
      </trkpt>
      <trkpt lat="38.4710650" lon="-0.6709470">
        <ele>469.0</ele>
        <time>2018-10-14T07:41:34Z</time>
      </trkpt>
      <trkpt lat="38.4710670" lon="-0.6708950">
        <ele>469.0</ele>
        <time>2018-10-14T07:41:35Z</time>
      </trkpt>
      <trkpt lat="38.4710680" lon="-0.6708400">
        <ele>469.0</ele>
        <time>2018-10-14T07:41:36Z</time>
      </trkpt>
      <trkpt lat="38.4710680" lon="-0.6708400">
        <ele>469.0</ele>
        <time>2018-10-14T07:41:37Z</time>
      </trkpt>
      <trkpt lat="38.4710730" lon="-0.6707330">
        <ele>469.0</ele>
        <time>2018-10-14T07:41:38Z</time>
      </trkpt>
      <trkpt lat="38.4710730" lon="-0.6707330">
        <ele>469.0</ele>
        <time>2018-10-14T07:41:39Z</time>
      </trkpt>
      <trkpt lat="38.4710780" lon="-0.6706250">
        <ele>469.0</ele>
        <time>2018-10-14T07:41:40Z</time>
      </trkpt>
      <trkpt lat="38.4710780" lon="-0.6706250">
        <ele>469.0</ele>
        <time>2018-10-14T07:41:41Z</time>
      </trkpt>
      <trkpt lat="38.4710820" lon="-0.6705180">
        <ele>469.0</ele>
        <time>2018-10-14T07:41:42Z</time>
      </trkpt>
      <trkpt lat="38.4710820" lon="-0.6705180">
        <ele>469.0</ele>
        <time>2018-10-14T07:41:43Z</time>
      </trkpt>
      <trkpt lat="38.4710900" lon="-0.6704080">
        <ele>469.0</ele>
        <time>2018-10-14T07:41:44Z</time>
      </trkpt>
      <trkpt lat="38.4710950" lon="-0.6703530">
        <ele>469.0</ele>
        <time>2018-10-14T07:41:45Z</time>
      </trkpt>
      <trkpt lat="38.4710950" lon="-0.6703530">
        <ele>469.0</ele>
        <time>2018-10-14T07:41:46Z</time>
      </trkpt>
      <trkpt lat="38.4711030" lon="-0.6702430">
        <ele>469.0</ele>
        <time>2018-10-14T07:41:47Z</time>
      </trkpt>
      <trkpt lat="38.4711050" lon="-0.6701880">
        <ele>469.0</ele>
        <time>2018-10-14T07:41:48Z</time>
      </trkpt>
      <trkpt lat="38.4711120" lon="-0.6701330">
        <ele>469.0</ele>
        <time>2018-10-14T07:41:49Z</time>
      </trkpt>
      <trkpt lat="38.4711120" lon="-0.6701330">
        <ele>469.0</ele>
        <time>2018-10-14T07:41:50Z</time>
      </trkpt>
      <trkpt lat="38.4711250" lon="-0.6700230">
        <ele>469.0</ele>
        <time>2018-10-14T07:41:51Z</time>
      </trkpt>
      <trkpt lat="38.4711250" lon="-0.6700230">
        <ele>469.0</ele>
        <time>2018-10-14T07:41:52Z</time>
      </trkpt>
      <trkpt lat="38.4711330" lon="-0.6699120">
        <ele>469.0</ele>
        <time>2018-10-14T07:41:53Z</time>
      </trkpt>
      <trkpt lat="38.4711380" lon="-0.6698570">
        <ele>469.0</ele>
        <time>2018-10-14T07:41:54Z</time>
      </trkpt>
      <trkpt lat="38.4711380" lon="-0.6698570">
        <ele>469.0</ele>
        <time>2018-10-14T07:41:55Z</time>
      </trkpt>
      <trkpt lat="38.4711520" lon="-0.6697500">
        <ele>469.0</ele>
        <time>2018-10-14T07:41:56Z</time>
      </trkpt>
      <trkpt lat="38.4711520" lon="-0.6697500">
        <ele>469.0</ele>
        <time>2018-10-14T07:41:57Z</time>
      </trkpt>
      <trkpt lat="38.4711700" lon="-0.6696450">
        <ele>469.0</ele>
        <time>2018-10-14T07:41:58Z</time>
      </trkpt>
      <trkpt lat="38.4711780" lon="-0.6695930">
        <ele>469.0</ele>
        <time>2018-10-14T07:41:59Z</time>
      </trkpt>
      <trkpt lat="38.4711780" lon="-0.6695930">
        <ele>469.0</ele>
        <time>2018-10-14T07:42:00Z</time>
      </trkpt>
      <trkpt lat="38.4711970" lon="-0.6694920">
        <ele>469.0</ele>
        <time>2018-10-14T07:42:01Z</time>
      </trkpt>
      <trkpt lat="38.4711970" lon="-0.6694920">
        <ele>469.0</ele>
        <time>2018-10-14T07:42:02Z</time>
      </trkpt>
      <trkpt lat="38.4712170" lon="-0.6693930">
        <ele>469.0</ele>
        <time>2018-10-14T07:42:03Z</time>
      </trkpt>
      <trkpt lat="38.4712170" lon="-0.6693930">
        <ele>469.0</ele>
        <time>2018-10-14T07:42:04Z</time>
      </trkpt>
      <trkpt lat="38.4712420" lon="-0.6692950">
        <ele>469.0</ele>
        <time>2018-10-14T07:42:05Z</time>
      </trkpt>
      <trkpt lat="38.4712530" lon="-0.6692470">
        <ele>469.0</ele>
        <time>2018-10-14T07:42:06Z</time>
      </trkpt>
      <trkpt lat="38.4712530" lon="-0.6692470">
        <ele>469.0</ele>
        <time>2018-10-14T07:42:07Z</time>
      </trkpt>
      <trkpt lat="38.4712780" lon="-0.6691500">
        <ele>469.0</ele>
        <time>2018-10-14T07:42:08Z</time>
      </trkpt>
      <trkpt lat="38.4712930" lon="-0.6691020">
        <ele>469.0</ele>
        <time>2018-10-14T07:42:09Z</time>
      </trkpt>
      <trkpt lat="38.4712930" lon="-0.6691020">
        <ele>470.0</ele>
        <time>2018-10-14T07:42:10Z</time>
      </trkpt>
      <trkpt lat="38.4713180" lon="-0.6690050">
        <ele>470.0</ele>
        <time>2018-10-14T07:42:11Z</time>
      </trkpt>
      <trkpt lat="38.4713330" lon="-0.6689580">
        <ele>470.0</ele>
        <time>2018-10-14T07:42:12Z</time>
      </trkpt>
      <trkpt lat="38.4713330" lon="-0.6689580">
        <ele>470.0</ele>
        <time>2018-10-14T07:42:13Z</time>
      </trkpt>
      <trkpt lat="38.4713630" lon="-0.6688630">
        <ele>470.0</ele>
        <time>2018-10-14T07:42:14Z</time>
      </trkpt>
      <trkpt lat="38.4713630" lon="-0.6688630">
        <ele>470.0</ele>
        <time>2018-10-14T07:42:15Z</time>
      </trkpt>
      <trkpt lat="38.4713900" lon="-0.6687680">
        <ele>471.0</ele>
        <time>2018-10-14T07:42:16Z</time>
      </trkpt>
      <trkpt lat="38.4714030" lon="-0.6687200">
        <ele>471.0</ele>
        <time>2018-10-14T07:42:17Z</time>
      </trkpt>
      <trkpt lat="38.4714030" lon="-0.6687200">
        <ele>471.0</ele>
        <time>2018-10-14T07:42:18Z</time>
      </trkpt>
      <trkpt lat="38.4714320" lon="-0.6686230">
        <ele>471.0</ele>
        <time>2018-10-14T07:42:19Z</time>
      </trkpt>
      <trkpt lat="38.4714320" lon="-0.6686230">
        <ele>471.0</ele>
        <time>2018-10-14T07:42:20Z</time>
      </trkpt>
      <trkpt lat="38.4714670" lon="-0.6685300">
        <ele>471.0</ele>
        <time>2018-10-14T07:42:21Z</time>
      </trkpt>
      <trkpt lat="38.4714670" lon="-0.6685300">
        <ele>471.0</ele>
        <time>2018-10-14T07:42:22Z</time>
      </trkpt>
      <trkpt lat="38.4715000" lon="-0.6684350">
        <ele>471.0</ele>
        <time>2018-10-14T07:42:23Z</time>
      </trkpt>
      <trkpt lat="38.4715180" lon="-0.6683880">
        <ele>471.0</ele>
        <time>2018-10-14T07:42:24Z</time>
      </trkpt>
      <trkpt lat="38.4715180" lon="-0.6683880">
        <ele>471.0</ele>
        <time>2018-10-14T07:42:25Z</time>
      </trkpt>
      <trkpt lat="38.4715530" lon="-0.6682930">
        <ele>472.0</ele>
        <time>2018-10-14T07:42:26Z</time>
      </trkpt>
      <trkpt lat="38.4715730" lon="-0.6682470">
        <ele>472.0</ele>
        <time>2018-10-14T07:42:27Z</time>
      </trkpt>
      <trkpt lat="38.4715730" lon="-0.6682470">
        <ele>472.0</ele>
        <time>2018-10-14T07:42:28Z</time>
      </trkpt>
      <trkpt lat="38.4716050" lon="-0.6681570">
        <ele>472.0</ele>
        <time>2018-10-14T07:42:29Z</time>
      </trkpt>
      <trkpt lat="38.4716200" lon="-0.6681150">
        <ele>472.0</ele>
        <time>2018-10-14T07:42:30Z</time>
      </trkpt>
      <trkpt lat="38.4716350" lon="-0.6680750">
        <ele>472.0</ele>
        <time>2018-10-14T07:42:31Z</time>
      </trkpt>
      <trkpt lat="38.4716350" lon="-0.6680750">
        <ele>472.0</ele>
        <time>2018-10-14T07:42:32Z</time>
      </trkpt>
      <trkpt lat="38.4716680" lon="-0.6679900">
        <ele>472.0</ele>
        <time>2018-10-14T07:42:33Z</time>
      </trkpt>
      <trkpt lat="38.4716680" lon="-0.6679900">
        <ele>472.0</ele>
        <time>2018-10-14T07:42:34Z</time>
      </trkpt>
      <trkpt lat="38.4716950" lon="-0.6679150">
        <ele>472.0</ele>
        <time>2018-10-14T07:42:35Z</time>
      </trkpt>
      <trkpt lat="38.4717050" lon="-0.6678870">
        <ele>472.0</ele>
        <time>2018-10-14T07:42:36Z</time>
      </trkpt>
      <trkpt lat="38.4717050" lon="-0.6678870">
        <ele>472.0</ele>
        <time>2018-10-14T07:42:37Z</time>
      </trkpt>
      <trkpt lat="38.4717250" lon="-0.6678320">
        <ele>472.0</ele>
        <time>2018-10-14T07:42:38Z</time>
      </trkpt>
      <trkpt lat="38.4717380" lon="-0.6677980">
        <ele>472.0</ele>
        <time>2018-10-14T07:42:39Z</time>
      </trkpt>
      <trkpt lat="38.4717380" lon="-0.6677980">
        <ele>472.0</ele>
        <time>2018-10-14T07:42:40Z</time>
      </trkpt>
      <trkpt lat="38.4717620" lon="-0.6677320">
        <ele>472.0</ele>
        <time>2018-10-14T07:42:41Z</time>
      </trkpt>
      <trkpt lat="38.4717750" lon="-0.6676970">
        <ele>472.0</ele>
        <time>2018-10-14T07:42:42Z</time>
      </trkpt>
      <trkpt lat="38.4717750" lon="-0.6676970">
        <ele>473.0</ele>
        <time>2018-10-14T07:42:43Z</time>
      </trkpt>
      <trkpt lat="38.4718050" lon="-0.6676250">
        <ele>473.0</ele>
        <time>2018-10-14T07:42:44Z</time>
      </trkpt>
      <trkpt lat="38.4718050" lon="-0.6676250">
        <ele>473.0</ele>
        <time>2018-10-14T07:42:45Z</time>
      </trkpt>
      <trkpt lat="38.4718380" lon="-0.6675400">
        <ele>473.0</ele>
        <time>2018-10-14T07:42:46Z</time>
      </trkpt>
      <trkpt lat="38.4718380" lon="-0.6675400">
        <ele>473.0</ele>
        <time>2018-10-14T07:42:47Z</time>
      </trkpt>
      <trkpt lat="38.4718730" lon="-0.6674570">
        <ele>473.0</ele>
        <time>2018-10-14T07:42:48Z</time>
      </trkpt>
      <trkpt lat="38.4718880" lon="-0.6674180">
        <ele>473.0</ele>
        <time>2018-10-14T07:42:49Z</time>
      </trkpt>
      <trkpt lat="38.4719050" lon="-0.6673800">
        <ele>473.0</ele>
        <time>2018-10-14T07:42:50Z</time>
      </trkpt>
      <trkpt lat="38.4719050" lon="-0.6673800">
        <ele>473.0</ele>
        <time>2018-10-14T07:42:51Z</time>
      </trkpt>
      <trkpt lat="38.4719370" lon="-0.6673030">
        <ele>473.0</ele>
        <time>2018-10-14T07:42:52Z</time>
      </trkpt>
      <trkpt lat="38.4719370" lon="-0.6673030">
        <ele>474.0</ele>
        <time>2018-10-14T07:42:53Z</time>
      </trkpt>
      <trkpt lat="38.4719630" lon="-0.6672300">
        <ele>474.0</ele>
        <time>2018-10-14T07:42:54Z</time>
      </trkpt>
      <trkpt lat="38.4719630" lon="-0.6672300">
        <ele>474.0</ele>
        <time>2018-10-14T07:42:55Z</time>
      </trkpt>
      <trkpt lat="38.4719870" lon="-0.6671670">
        <ele>474.0</ele>
        <time>2018-10-14T07:42:56Z</time>
      </trkpt>
      <trkpt lat="38.4720030" lon="-0.6671300">
        <ele>474.0</ele>
        <time>2018-10-14T07:42:57Z</time>
      </trkpt>
      <trkpt lat="38.4720030" lon="-0.6671300">
        <ele>474.0</ele>
        <time>2018-10-14T07:42:58Z</time>
      </trkpt>
      <trkpt lat="38.4720350" lon="-0.6670530">
        <ele>474.0</ele>
        <time>2018-10-14T07:42:59Z</time>
      </trkpt>
      <trkpt lat="38.4720480" lon="-0.6670130">
        <ele>474.0</ele>
        <time>2018-10-14T07:43:00Z</time>
      </trkpt>
      <trkpt lat="38.4720480" lon="-0.6670130">
        <ele>474.0</ele>
        <time>2018-10-14T07:43:01Z</time>
      </trkpt>
      <trkpt lat="38.4720770" lon="-0.6669400">
        <ele>474.0</ele>
        <time>2018-10-14T07:43:02Z</time>
      </trkpt>
      <trkpt lat="38.4720770" lon="-0.6669400">
        <ele>474.0</ele>
        <time>2018-10-14T07:43:03Z</time>
      </trkpt>
      <trkpt lat="38.4721080" lon="-0.6668600">
        <ele>474.0</ele>
        <time>2018-10-14T07:43:04Z</time>
      </trkpt>
      <trkpt lat="38.4721080" lon="-0.6668600">
        <ele>474.0</ele>
        <time>2018-10-14T07:43:05Z</time>
      </trkpt>
      <trkpt lat="38.4721500" lon="-0.6667720">
        <ele>474.0</ele>
        <time>2018-10-14T07:43:06Z</time>
      </trkpt>
      <trkpt lat="38.4721500" lon="-0.6667720">
        <ele>474.0</ele>
        <time>2018-10-14T07:43:07Z</time>
      </trkpt>
      <trkpt lat="38.4721870" lon="-0.6666750">
        <ele>474.0</ele>
        <time>2018-10-14T07:43:08Z</time>
      </trkpt>
      <trkpt lat="38.4721870" lon="-0.6666750">
        <ele>474.0</ele>
        <time>2018-10-14T07:43:09Z</time>
      </trkpt>
      <trkpt lat="38.4722170" lon="-0.6665830">
        <ele>474.0</ele>
        <time>2018-10-14T07:43:10Z</time>
      </trkpt>
      <trkpt lat="38.4722350" lon="-0.6665400">
        <ele>474.0</ele>
        <time>2018-10-14T07:43:11Z</time>
      </trkpt>
      <trkpt lat="38.4722350" lon="-0.6665400">
        <ele>474.0</ele>
        <time>2018-10-14T07:43:12Z</time>
      </trkpt>
      <trkpt lat="38.4722750" lon="-0.6664550">
        <ele>475.0</ele>
        <time>2018-10-14T07:43:13Z</time>
      </trkpt>
      <trkpt lat="38.4722750" lon="-0.6664550">
        <ele>475.0</ele>
        <time>2018-10-14T07:43:14Z</time>
      </trkpt>
      <trkpt lat="38.4723130" lon="-0.6663720">
        <ele>475.0</ele>
        <time>2018-10-14T07:43:15Z</time>
      </trkpt>
      <trkpt lat="38.4723130" lon="-0.6663720">
        <ele>475.0</ele>
        <time>2018-10-14T07:43:16Z</time>
      </trkpt>
      <trkpt lat="38.4723450" lon="-0.6662870">
        <ele>475.0</ele>
        <time>2018-10-14T07:43:17Z</time>
      </trkpt>
      <trkpt lat="38.4723600" lon="-0.6662450">
        <ele>475.0</ele>
        <time>2018-10-14T07:43:18Z</time>
      </trkpt>
      <trkpt lat="38.4723600" lon="-0.6662450">
        <ele>475.0</ele>
        <time>2018-10-14T07:43:19Z</time>
      </trkpt>
      <trkpt lat="38.4723920" lon="-0.6661700">
        <ele>475.0</ele>
        <time>2018-10-14T07:43:20Z</time>
      </trkpt>
      <trkpt lat="38.4723920" lon="-0.6661700">
        <ele>475.0</ele>
        <time>2018-10-14T07:43:21Z</time>
      </trkpt>
      <trkpt lat="38.4724200" lon="-0.6660970">
        <ele>475.0</ele>
        <time>2018-10-14T07:43:22Z</time>
      </trkpt>
      <trkpt lat="38.4724200" lon="-0.6660970">
        <ele>475.0</ele>
        <time>2018-10-14T07:43:23Z</time>
      </trkpt>
      <trkpt lat="38.4724500" lon="-0.6660230">
        <ele>475.0</ele>
        <time>2018-10-14T07:43:24Z</time>
      </trkpt>
      <trkpt lat="38.4724500" lon="-0.6660230">
        <ele>475.0</ele>
        <time>2018-10-14T07:43:25Z</time>
      </trkpt>
      <trkpt lat="38.4724820" lon="-0.6659430">
        <ele>475.0</ele>
        <time>2018-10-14T07:43:26Z</time>
      </trkpt>
      <trkpt lat="38.4724820" lon="-0.6659430">
        <ele>476.0</ele>
        <time>2018-10-14T07:43:27Z</time>
      </trkpt>
      <trkpt lat="38.4725130" lon="-0.6658670">
        <ele>476.0</ele>
        <time>2018-10-14T07:43:28Z</time>
      </trkpt>
      <trkpt lat="38.4725130" lon="-0.6658670">
        <ele>476.0</ele>
        <time>2018-10-14T07:43:29Z</time>
      </trkpt>
      <trkpt lat="38.4725470" lon="-0.6657870">
        <ele>476.0</ele>
        <time>2018-10-14T07:43:30Z</time>
      </trkpt>
      <trkpt lat="38.4725630" lon="-0.6657470">
        <ele>476.0</ele>
        <time>2018-10-14T07:43:31Z</time>
      </trkpt>
      <trkpt lat="38.4725630" lon="-0.6657470">
        <ele>476.0</ele>
        <time>2018-10-14T07:43:32Z</time>
      </trkpt>
      <trkpt lat="38.4725980" lon="-0.6656630">
        <ele>477.0</ele>
        <time>2018-10-14T07:43:33Z</time>
      </trkpt>
      <trkpt lat="38.4725980" lon="-0.6656630">
        <ele>477.0</ele>
        <time>2018-10-14T07:43:34Z</time>
      </trkpt>
      <trkpt lat="38.4726300" lon="-0.6655800">
        <ele>477.0</ele>
        <time>2018-10-14T07:43:35Z</time>
      </trkpt>
      <trkpt lat="38.4726420" lon="-0.6655430">
        <ele>477.0</ele>
        <time>2018-10-14T07:43:36Z</time>
      </trkpt>
      <trkpt lat="38.4726520" lon="-0.6655130">
        <ele>477.0</ele>
        <time>2018-10-14T07:43:37Z</time>
      </trkpt>
      <trkpt lat="38.4726520" lon="-0.6655130">
        <ele>477.0</ele>
        <time>2018-10-14T07:43:38Z</time>
      </trkpt>
      <trkpt lat="38.4726730" lon="-0.6654580">
        <ele>477.0</ele>
        <time>2018-10-14T07:43:39Z</time>
      </trkpt>
      <trkpt lat="38.4726730" lon="-0.6654580">
        <ele>477.0</ele>
        <time>2018-10-14T07:43:40Z</time>
      </trkpt>
      <trkpt lat="38.4726980" lon="-0.6653930">
        <ele>477.0</ele>
        <time>2018-10-14T07:43:41Z</time>
      </trkpt>
      <trkpt lat="38.4727120" lon="-0.6653550">
        <ele>477.0</ele>
        <time>2018-10-14T07:43:42Z</time>
      </trkpt>
      <trkpt lat="38.4727120" lon="-0.6653550">
        <ele>477.0</ele>
        <time>2018-10-14T07:43:43Z</time>
      </trkpt>
      <trkpt lat="38.4727450" lon="-0.6652700">
        <ele>477.0</ele>
        <time>2018-10-14T07:43:44Z</time>
      </trkpt>
      <trkpt lat="38.4727450" lon="-0.6652700">
        <ele>478.0</ele>
        <time>2018-10-14T07:43:45Z</time>
      </trkpt>
      <trkpt lat="38.4727800" lon="-0.6651820">
        <ele>478.0</ele>
        <time>2018-10-14T07:43:46Z</time>
      </trkpt>
      <trkpt lat="38.4727800" lon="-0.6651820">
        <ele>478.0</ele>
        <time>2018-10-14T07:43:47Z</time>
      </trkpt>
      <trkpt lat="38.4728130" lon="-0.6650950">
        <ele>478.0</ele>
        <time>2018-10-14T07:43:48Z</time>
      </trkpt>
      <trkpt lat="38.4728130" lon="-0.6650950">
        <ele>478.0</ele>
        <time>2018-10-14T07:43:49Z</time>
      </trkpt>
      <trkpt lat="38.4728500" lon="-0.6650100">
        <ele>478.0</ele>
        <time>2018-10-14T07:43:50Z</time>
      </trkpt>
      <trkpt lat="38.4728500" lon="-0.6650100">
        <ele>478.0</ele>
        <time>2018-10-14T07:43:51Z</time>
      </trkpt>
      <trkpt lat="38.4728830" lon="-0.6649200">
        <ele>478.0</ele>
        <time>2018-10-14T07:43:52Z</time>
      </trkpt>
      <trkpt lat="38.4728980" lon="-0.6648770">
        <ele>478.0</ele>
        <time>2018-10-14T07:43:53Z</time>
      </trkpt>
      <trkpt lat="38.4729150" lon="-0.6648330">
        <ele>478.0</ele>
        <time>2018-10-14T07:43:54Z</time>
      </trkpt>
      <trkpt lat="38.4729150" lon="-0.6648330">
        <ele>478.0</ele>
        <time>2018-10-14T07:43:55Z</time>
      </trkpt>
      <trkpt lat="38.4729530" lon="-0.6647470">
        <ele>478.0</ele>
        <time>2018-10-14T07:43:56Z</time>
      </trkpt>
      <trkpt lat="38.4729530" lon="-0.6647470">
        <ele>478.0</ele>
        <time>2018-10-14T07:43:57Z</time>
      </trkpt>
      <trkpt lat="38.4729920" lon="-0.6646550">
        <ele>478.0</ele>
        <time>2018-10-14T07:43:58Z</time>
      </trkpt>
      <trkpt lat="38.4729920" lon="-0.6646550">
        <ele>478.0</ele>
        <time>2018-10-14T07:43:59Z</time>
      </trkpt>
      <trkpt lat="38.4730270" lon="-0.6645630">
        <ele>478.0</ele>
        <time>2018-10-14T07:44:00Z</time>
      </trkpt>
      <trkpt lat="38.4730270" lon="-0.6645630">
        <ele>479.0</ele>
        <time>2018-10-14T07:44:01Z</time>
      </trkpt>
      <trkpt lat="38.4730620" lon="-0.6644720">
        <ele>479.0</ele>
        <time>2018-10-14T07:44:02Z</time>
      </trkpt>
      <trkpt lat="38.4730800" lon="-0.6644230">
        <ele>479.0</ele>
        <time>2018-10-14T07:44:03Z</time>
      </trkpt>
      <trkpt lat="38.4730800" lon="-0.6644230">
        <ele>479.0</ele>
        <time>2018-10-14T07:44:04Z</time>
      </trkpt>
      <trkpt lat="38.4731170" lon="-0.6643280">
        <ele>479.0</ele>
        <time>2018-10-14T07:44:05Z</time>
      </trkpt>
      <trkpt lat="38.4731350" lon="-0.6642800">
        <ele>479.0</ele>
        <time>2018-10-14T07:44:06Z</time>
      </trkpt>
      <trkpt lat="38.4731350" lon="-0.6642800">
        <ele>479.0</ele>
        <time>2018-10-14T07:44:07Z</time>
      </trkpt>
      <trkpt lat="38.4731700" lon="-0.6641850">
        <ele>479.0</ele>
        <time>2018-10-14T07:44:08Z</time>
      </trkpt>
      <trkpt lat="38.4731700" lon="-0.6641850">
        <ele>479.0</ele>
        <time>2018-10-14T07:44:09Z</time>
      </trkpt>
      <trkpt lat="38.4732070" lon="-0.6640920">
        <ele>479.0</ele>
        <time>2018-10-14T07:44:10Z</time>
      </trkpt>
      <trkpt lat="38.4732070" lon="-0.6640920">
        <ele>479.0</ele>
        <time>2018-10-14T07:44:11Z</time>
      </trkpt>
      <trkpt lat="38.4732430" lon="-0.6640000">
        <ele>480.0</ele>
        <time>2018-10-14T07:44:12Z</time>
      </trkpt>
      <trkpt lat="38.4732430" lon="-0.6640000">
        <ele>480.0</ele>
        <time>2018-10-14T07:44:13Z</time>
      </trkpt>
      <trkpt lat="38.4732800" lon="-0.6639080">
        <ele>480.0</ele>
        <time>2018-10-14T07:44:14Z</time>
      </trkpt>
      <trkpt lat="38.4732980" lon="-0.6638630">
        <ele>480.0</ele>
        <time>2018-10-14T07:44:15Z</time>
      </trkpt>
      <trkpt lat="38.4733170" lon="-0.6638180">
        <ele>480.0</ele>
        <time>2018-10-14T07:44:16Z</time>
      </trkpt>
      <trkpt lat="38.4733170" lon="-0.6638180">
        <ele>480.0</ele>
        <time>2018-10-14T07:44:17Z</time>
      </trkpt>
      <trkpt lat="38.4733550" lon="-0.6637270">
        <ele>480.0</ele>
        <time>2018-10-14T07:44:18Z</time>
      </trkpt>
      <trkpt lat="38.4733550" lon="-0.6637270">
        <ele>480.0</ele>
        <time>2018-10-14T07:44:19Z</time>
      </trkpt>
      <trkpt lat="38.4733920" lon="-0.6636300">
        <ele>481.0</ele>
        <time>2018-10-14T07:44:20Z</time>
      </trkpt>
      <trkpt lat="38.4733920" lon="-0.6636300">
        <ele>481.0</ele>
        <time>2018-10-14T07:44:21Z</time>
      </trkpt>
      <trkpt lat="38.4734250" lon="-0.6635330">
        <ele>481.0</ele>
        <time>2018-10-14T07:44:22Z</time>
      </trkpt>
      <trkpt lat="38.4734250" lon="-0.6635330">
        <ele>481.0</ele>
        <time>2018-10-14T07:44:23Z</time>
      </trkpt>
      <trkpt lat="38.4734620" lon="-0.6634420">
        <ele>481.0</ele>
        <time>2018-10-14T07:44:24Z</time>
      </trkpt>
      <trkpt lat="38.4734620" lon="-0.6634420">
        <ele>481.0</ele>
        <time>2018-10-14T07:44:25Z</time>
      </trkpt>
      <trkpt lat="38.4734930" lon="-0.6633520">
        <ele>481.0</ele>
        <time>2018-10-14T07:44:26Z</time>
      </trkpt>
      <trkpt lat="38.4734930" lon="-0.6633520">
        <ele>481.0</ele>
        <time>2018-10-14T07:44:27Z</time>
      </trkpt>
      <trkpt lat="38.4735250" lon="-0.6632620">
        <ele>481.0</ele>
        <time>2018-10-14T07:44:28Z</time>
      </trkpt>
      <trkpt lat="38.4735250" lon="-0.6632620">
        <ele>481.0</ele>
        <time>2018-10-14T07:44:29Z</time>
      </trkpt>
      <trkpt lat="38.4735530" lon="-0.6631700">
        <ele>482.0</ele>
        <time>2018-10-14T07:44:30Z</time>
      </trkpt>
      <trkpt lat="38.4735530" lon="-0.6631700">
        <ele>482.0</ele>
        <time>2018-10-14T07:44:31Z</time>
      </trkpt>
      <trkpt lat="38.4735850" lon="-0.6630780">
        <ele>482.0</ele>
        <time>2018-10-14T07:44:32Z</time>
      </trkpt>
      <trkpt lat="38.4735850" lon="-0.6630780">
        <ele>482.0</ele>
        <time>2018-10-14T07:44:33Z</time>
      </trkpt>
      <trkpt lat="38.4736150" lon="-0.6629920">
        <ele>482.0</ele>
        <time>2018-10-14T07:44:34Z</time>
      </trkpt>
      <trkpt lat="38.4736150" lon="-0.6629920">
        <ele>482.0</ele>
        <time>2018-10-14T07:44:35Z</time>
      </trkpt>
      <trkpt lat="38.4736430" lon="-0.6629050">
        <ele>482.0</ele>
        <time>2018-10-14T07:44:36Z</time>
      </trkpt>
      <trkpt lat="38.4736570" lon="-0.6628620">
        <ele>482.0</ele>
        <time>2018-10-14T07:44:37Z</time>
      </trkpt>
      <trkpt lat="38.4736700" lon="-0.6628170">
        <ele>483.0</ele>
        <time>2018-10-14T07:44:38Z</time>
      </trkpt>
      <trkpt lat="38.4736700" lon="-0.6628170">
        <ele>483.0</ele>
        <time>2018-10-14T07:44:39Z</time>
      </trkpt>
      <trkpt lat="38.4736970" lon="-0.6627320">
        <ele>483.0</ele>
        <time>2018-10-14T07:44:40Z</time>
      </trkpt>
      <trkpt lat="38.4737070" lon="-0.6626900">
        <ele>483.0</ele>
        <time>2018-10-14T07:44:41Z</time>
      </trkpt>
      <trkpt lat="38.4737170" lon="-0.6626500">
        <ele>483.0</ele>
        <time>2018-10-14T07:44:42Z</time>
      </trkpt>
      <trkpt lat="38.4737170" lon="-0.6626500">
        <ele>483.0</ele>
        <time>2018-10-14T07:44:43Z</time>
      </trkpt>
      <trkpt lat="38.4737380" lon="-0.6625620">
        <ele>483.0</ele>
        <time>2018-10-14T07:44:44Z</time>
      </trkpt>
      <trkpt lat="38.4737380" lon="-0.6625620">
        <ele>483.0</ele>
        <time>2018-10-14T07:44:45Z</time>
      </trkpt>
      <trkpt lat="38.4737620" lon="-0.6624720">
        <ele>483.0</ele>
        <time>2018-10-14T07:44:46Z</time>
      </trkpt>
      <trkpt lat="38.4737620" lon="-0.6624720">
        <ele>483.0</ele>
        <time>2018-10-14T07:44:47Z</time>
      </trkpt>
      <trkpt lat="38.4737780" lon="-0.6623830">
        <ele>483.0</ele>
        <time>2018-10-14T07:44:48Z</time>
      </trkpt>
      <trkpt lat="38.4737780" lon="-0.6623830">
        <ele>483.0</ele>
        <time>2018-10-14T07:44:49Z</time>
      </trkpt>
      <trkpt lat="38.4737930" lon="-0.6622900">
        <ele>483.0</ele>
        <time>2018-10-14T07:44:50Z</time>
      </trkpt>
      <trkpt lat="38.4738020" lon="-0.6622430">
        <ele>483.0</ele>
        <time>2018-10-14T07:44:51Z</time>
      </trkpt>
      <trkpt lat="38.4738080" lon="-0.6621970">
        <ele>484.0</ele>
        <time>2018-10-14T07:44:52Z</time>
      </trkpt>
      <trkpt lat="38.4738080" lon="-0.6621970">
        <ele>484.0</ele>
        <time>2018-10-14T07:44:53Z</time>
      </trkpt>
      <trkpt lat="38.4738220" lon="-0.6621050">
        <ele>484.0</ele>
        <time>2018-10-14T07:44:54Z</time>
      </trkpt>
      <trkpt lat="38.4738220" lon="-0.6621050">
        <ele>484.0</ele>
        <time>2018-10-14T07:44:55Z</time>
      </trkpt>
      <trkpt lat="38.4738330" lon="-0.6620120">
        <ele>484.0</ele>
        <time>2018-10-14T07:44:56Z</time>
      </trkpt>
      <trkpt lat="38.4738370" lon="-0.6619630">
        <ele>484.0</ele>
        <time>2018-10-14T07:44:57Z</time>
      </trkpt>
      <trkpt lat="38.4738370" lon="-0.6619630">
        <ele>484.0</ele>
        <time>2018-10-14T07:44:58Z</time>
      </trkpt>
      <trkpt lat="38.4738450" lon="-0.6618720">
        <ele>484.0</ele>
        <time>2018-10-14T07:44:59Z</time>
      </trkpt>
      <trkpt lat="38.4738450" lon="-0.6618720">
        <ele>484.0</ele>
        <time>2018-10-14T07:45:00Z</time>
      </trkpt>
      <trkpt lat="38.4738530" lon="-0.6617830">
        <ele>484.0</ele>
        <time>2018-10-14T07:45:01Z</time>
      </trkpt>
      <trkpt lat="38.4738550" lon="-0.6617380">
        <ele>484.0</ele>
        <time>2018-10-14T07:45:02Z</time>
      </trkpt>
      <trkpt lat="38.4738550" lon="-0.6617380">
        <ele>485.0</ele>
        <time>2018-10-14T07:45:03Z</time>
      </trkpt>
      <trkpt lat="38.4738580" lon="-0.6616480">
        <ele>485.0</ele>
        <time>2018-10-14T07:45:04Z</time>
      </trkpt>
      <trkpt lat="38.4738620" lon="-0.6616030">
        <ele>485.0</ele>
        <time>2018-10-14T07:45:05Z</time>
      </trkpt>
      <trkpt lat="38.4738650" lon="-0.6615580">
        <ele>485.0</ele>
        <time>2018-10-14T07:45:06Z</time>
      </trkpt>
      <trkpt lat="38.4738650" lon="-0.6615580">
        <ele>485.0</ele>
        <time>2018-10-14T07:45:07Z</time>
      </trkpt>
      <trkpt lat="38.4738700" lon="-0.6614720">
        <ele>485.0</ele>
        <time>2018-10-14T07:45:08Z</time>
      </trkpt>
      <trkpt lat="38.4738700" lon="-0.6614720">
        <ele>485.0</ele>
        <time>2018-10-14T07:45:09Z</time>
      </trkpt>
      <trkpt lat="38.4738700" lon="-0.6613850">
        <ele>485.0</ele>
        <time>2018-10-14T07:45:10Z</time>
      </trkpt>
      <trkpt lat="38.4738700" lon="-0.6613850">
        <ele>485.0</ele>
        <time>2018-10-14T07:45:11Z</time>
      </trkpt>
      <trkpt lat="38.4738780" lon="-0.6612980">
        <ele>485.0</ele>
        <time>2018-10-14T07:45:12Z</time>
      </trkpt>
      <trkpt lat="38.4738780" lon="-0.6612980">
        <ele>485.0</ele>
        <time>2018-10-14T07:45:13Z</time>
      </trkpt>
      <trkpt lat="38.4738800" lon="-0.6612050">
        <ele>485.0</ele>
        <time>2018-10-14T07:45:14Z</time>
      </trkpt>
      <trkpt lat="38.4738800" lon="-0.6612050">
        <ele>485.0</ele>
        <time>2018-10-14T07:45:15Z</time>
      </trkpt>
      <trkpt lat="38.4738770" lon="-0.6611120">
        <ele>485.0</ele>
        <time>2018-10-14T07:45:16Z</time>
      </trkpt>
      <trkpt lat="38.4738770" lon="-0.6611120">
        <ele>485.0</ele>
        <time>2018-10-14T07:45:17Z</time>
      </trkpt>
      <trkpt lat="38.4738750" lon="-0.6610200">
        <ele>485.0</ele>
        <time>2018-10-14T07:45:18Z</time>
      </trkpt>
      <trkpt lat="38.4738750" lon="-0.6610200">
        <ele>486.0</ele>
        <time>2018-10-14T07:45:19Z</time>
      </trkpt>
      <trkpt lat="38.4738700" lon="-0.6609300">
        <ele>486.0</ele>
        <time>2018-10-14T07:45:20Z</time>
      </trkpt>
      <trkpt lat="38.4738670" lon="-0.6608830">
        <ele>486.0</ele>
        <time>2018-10-14T07:45:21Z</time>
      </trkpt>
      <trkpt lat="38.4738670" lon="-0.6608830">
        <ele>486.0</ele>
        <time>2018-10-14T07:45:22Z</time>
      </trkpt>
      <trkpt lat="38.4738600" lon="-0.6607900">
        <ele>486.0</ele>
        <time>2018-10-14T07:45:23Z</time>
      </trkpt>
      <trkpt lat="38.4738580" lon="-0.6607420">
        <ele>486.0</ele>
        <time>2018-10-14T07:45:24Z</time>
      </trkpt>
      <trkpt lat="38.4738580" lon="-0.6607420">
        <ele>487.0</ele>
        <time>2018-10-14T07:45:25Z</time>
      </trkpt>
      <trkpt lat="38.4738550" lon="-0.6606420">
        <ele>487.0</ele>
        <time>2018-10-14T07:45:26Z</time>
      </trkpt>
      <trkpt lat="38.4738550" lon="-0.6606420">
        <ele>487.0</ele>
        <time>2018-10-14T07:45:27Z</time>
      </trkpt>
      <trkpt lat="38.4738500" lon="-0.6605430">
        <ele>487.0</ele>
        <time>2018-10-14T07:45:28Z</time>
      </trkpt>
      <trkpt lat="38.4738470" lon="-0.6604950">
        <ele>487.0</ele>
        <time>2018-10-14T07:45:29Z</time>
      </trkpt>
      <trkpt lat="38.4738430" lon="-0.6604470">
        <ele>487.0</ele>
        <time>2018-10-14T07:45:30Z</time>
      </trkpt>
      <trkpt lat="38.4738430" lon="-0.6604470">
        <ele>487.0</ele>
        <time>2018-10-14T07:45:31Z</time>
      </trkpt>
      <trkpt lat="38.4738370" lon="-0.6603550">
        <ele>487.0</ele>
        <time>2018-10-14T07:45:32Z</time>
      </trkpt>
      <trkpt lat="38.4738370" lon="-0.6603550">
        <ele>487.0</ele>
        <time>2018-10-14T07:45:33Z</time>
      </trkpt>
      <trkpt lat="38.4738350" lon="-0.6602650">
        <ele>487.0</ele>
        <time>2018-10-14T07:45:34Z</time>
      </trkpt>
      <trkpt lat="38.4738330" lon="-0.6602200">
        <ele>487.0</ele>
        <time>2018-10-14T07:45:35Z</time>
      </trkpt>
      <trkpt lat="38.4738320" lon="-0.6601750">
        <ele>487.0</ele>
        <time>2018-10-14T07:45:36Z</time>
      </trkpt>
      <trkpt lat="38.4738320" lon="-0.6601750">
        <ele>487.0</ele>
        <time>2018-10-14T07:45:37Z</time>
      </trkpt>
      <trkpt lat="38.4738220" lon="-0.6600930">
        <ele>487.0</ele>
        <time>2018-10-14T07:45:38Z</time>
      </trkpt>
      <trkpt lat="38.4738220" lon="-0.6600930">
        <ele>487.0</ele>
        <time>2018-10-14T07:45:39Z</time>
      </trkpt>
      <trkpt lat="38.4737970" lon="-0.6600250">
        <ele>488.0</ele>
        <time>2018-10-14T07:45:40Z</time>
      </trkpt>
      <trkpt lat="38.4737970" lon="-0.6600250">
        <ele>488.0</ele>
        <time>2018-10-14T07:45:41Z</time>
      </trkpt>
      <trkpt lat="38.4737700" lon="-0.6599720">
        <ele>488.0</ele>
        <time>2018-10-14T07:45:42Z</time>
      </trkpt>
      <trkpt lat="38.4737700" lon="-0.6599720">
        <ele>488.0</ele>
        <time>2018-10-14T07:45:43Z</time>
      </trkpt>
      <trkpt lat="38.4737330" lon="-0.6599220">
        <ele>488.0</ele>
        <time>2018-10-14T07:45:44Z</time>
      </trkpt>
      <trkpt lat="38.4737080" lon="-0.6599000">
        <ele>488.0</ele>
        <time>2018-10-14T07:45:45Z</time>
      </trkpt>
      <trkpt lat="38.4737080" lon="-0.6599000">
        <ele>488.0</ele>
        <time>2018-10-14T07:45:46Z</time>
      </trkpt>
      <trkpt lat="38.4736450" lon="-0.6598600">
        <ele>488.0</ele>
        <time>2018-10-14T07:45:47Z</time>
      </trkpt>
      <trkpt lat="38.4736080" lon="-0.6598420">
        <ele>488.0</ele>
        <time>2018-10-14T07:45:48Z</time>
      </trkpt>
      <trkpt lat="38.4736080" lon="-0.6598420">
        <ele>488.0</ele>
        <time>2018-10-14T07:45:49Z</time>
      </trkpt>
      <trkpt lat="38.4735320" lon="-0.6598100">
        <ele>488.0</ele>
        <time>2018-10-14T07:45:50Z</time>
      </trkpt>
      <trkpt lat="38.4735320" lon="-0.6598100">
        <ele>488.0</ele>
        <time>2018-10-14T07:45:51Z</time>
      </trkpt>
      <trkpt lat="38.4734520" lon="-0.6597880">
        <ele>488.0</ele>
        <time>2018-10-14T07:45:52Z</time>
      </trkpt>
      <trkpt lat="38.4734520" lon="-0.6597880">
        <ele>488.0</ele>
        <time>2018-10-14T07:45:53Z</time>
      </trkpt>
      <trkpt lat="38.4733680" lon="-0.6597750">
        <ele>488.0</ele>
        <time>2018-10-14T07:45:54Z</time>
      </trkpt>
      <trkpt lat="38.4733680" lon="-0.6597750">
        <ele>488.0</ele>
        <time>2018-10-14T07:45:55Z</time>
      </trkpt>
      <trkpt lat="38.4732850" lon="-0.6597630">
        <ele>488.0</ele>
        <time>2018-10-14T07:45:56Z</time>
      </trkpt>
      <trkpt lat="38.4732850" lon="-0.6597630">
        <ele>488.0</ele>
        <time>2018-10-14T07:45:57Z</time>
      </trkpt>
      <trkpt lat="38.4732020" lon="-0.6597630">
        <ele>488.0</ele>
        <time>2018-10-14T07:45:58Z</time>
      </trkpt>
      <trkpt lat="38.4732020" lon="-0.6597630">
        <ele>488.0</ele>
        <time>2018-10-14T07:45:59Z</time>
      </trkpt>
      <trkpt lat="38.4731150" lon="-0.6597680">
        <ele>488.0</ele>
        <time>2018-10-14T07:46:00Z</time>
      </trkpt>
      <trkpt lat="38.4731150" lon="-0.6597680">
        <ele>488.0</ele>
        <time>2018-10-14T07:46:01Z</time>
      </trkpt>
      <trkpt lat="38.4730230" lon="-0.6597750">
        <ele>488.0</ele>
        <time>2018-10-14T07:46:02Z</time>
      </trkpt>
      <trkpt lat="38.4730230" lon="-0.6597750">
        <ele>488.0</ele>
        <time>2018-10-14T07:46:03Z</time>
      </trkpt>
      <trkpt lat="38.4729230" lon="-0.6597770">
        <ele>488.0</ele>
        <time>2018-10-14T07:46:04Z</time>
      </trkpt>
      <trkpt lat="38.4729230" lon="-0.6597770">
        <ele>488.0</ele>
        <time>2018-10-14T07:46:05Z</time>
      </trkpt>
      <trkpt lat="38.4728150" lon="-0.6597730">
        <ele>488.0</ele>
        <time>2018-10-14T07:46:06Z</time>
      </trkpt>
      <trkpt lat="38.4728150" lon="-0.6597730">
        <ele>487.0</ele>
        <time>2018-10-14T07:46:07Z</time>
      </trkpt>
      <trkpt lat="38.4726950" lon="-0.6597530">
        <ele>487.0</ele>
        <time>2018-10-14T07:46:08Z</time>
      </trkpt>
      <trkpt lat="38.4726950" lon="-0.6597530">
        <ele>487.0</ele>
        <time>2018-10-14T07:46:09Z</time>
      </trkpt>
      <trkpt lat="38.4725630" lon="-0.6597230">
        <ele>485.0</ele>
        <time>2018-10-14T07:46:10Z</time>
      </trkpt>
      <trkpt lat="38.4724950" lon="-0.6597030">
        <ele>485.0</ele>
        <time>2018-10-14T07:46:11Z</time>
      </trkpt>
      <trkpt lat="38.4724200" lon="-0.6596800">
        <ele>484.0</ele>
        <time>2018-10-14T07:46:12Z</time>
      </trkpt>
      <trkpt lat="38.4724200" lon="-0.6596800">
        <ele>484.0</ele>
        <time>2018-10-14T07:46:13Z</time>
      </trkpt>
      <trkpt lat="38.4722530" lon="-0.6596280">
        <ele>483.0</ele>
        <time>2018-10-14T07:46:14Z</time>
      </trkpt>
      <trkpt lat="38.4722530" lon="-0.6596280">
        <ele>483.0</ele>
        <time>2018-10-14T07:46:15Z</time>
      </trkpt>
      <trkpt lat="38.4720650" lon="-0.6595670">
        <ele>481.0</ele>
        <time>2018-10-14T07:46:16Z</time>
      </trkpt>
      <trkpt lat="38.4719670" lon="-0.6595330">
        <ele>481.0</ele>
        <time>2018-10-14T07:46:17Z</time>
      </trkpt>
      <trkpt lat="38.4718650" lon="-0.6594980">
        <ele>479.0</ele>
        <time>2018-10-14T07:46:18Z</time>
      </trkpt>
      <trkpt lat="38.4718650" lon="-0.6594980">
        <ele>479.0</ele>
        <time>2018-10-14T07:46:19Z</time>
      </trkpt>
      <trkpt lat="38.4716580" lon="-0.6594250">
        <ele>478.0</ele>
        <time>2018-10-14T07:46:20Z</time>
      </trkpt>
      <trkpt lat="38.4716580" lon="-0.6594250">
        <ele>478.0</ele>
        <time>2018-10-14T07:46:21Z</time>
      </trkpt>
      <trkpt lat="38.4714480" lon="-0.6593550">
        <ele>476.0</ele>
        <time>2018-10-14T07:46:22Z</time>
      </trkpt>
      <trkpt lat="38.4714480" lon="-0.6593550">
        <ele>476.0</ele>
        <time>2018-10-14T07:46:23Z</time>
      </trkpt>
      <trkpt lat="38.4712350" lon="-0.6592830">
        <ele>475.0</ele>
        <time>2018-10-14T07:46:24Z</time>
      </trkpt>
      <trkpt lat="38.4712350" lon="-0.6592830">
        <ele>475.0</ele>
        <time>2018-10-14T07:46:25Z</time>
      </trkpt>
      <trkpt lat="38.4710180" lon="-0.6592150">
        <ele>474.0</ele>
        <time>2018-10-14T07:46:26Z</time>
      </trkpt>
      <trkpt lat="38.4710180" lon="-0.6592150">
        <ele>474.0</ele>
        <time>2018-10-14T07:46:27Z</time>
      </trkpt>
      <trkpt lat="38.4707970" lon="-0.6591470">
        <ele>473.0</ele>
        <time>2018-10-14T07:46:28Z</time>
      </trkpt>
      <trkpt lat="38.4707970" lon="-0.6591470">
        <ele>473.0</ele>
        <time>2018-10-14T07:46:29Z</time>
      </trkpt>
      <trkpt lat="38.4705670" lon="-0.6590800">
        <ele>471.0</ele>
        <time>2018-10-14T07:46:30Z</time>
      </trkpt>
      <trkpt lat="38.4704520" lon="-0.6590450">
        <ele>471.0</ele>
        <time>2018-10-14T07:46:31Z</time>
      </trkpt>
      <trkpt lat="38.4704520" lon="-0.6590450">
        <ele>469.0</ele>
        <time>2018-10-14T07:46:32Z</time>
      </trkpt>
      <trkpt lat="38.4702230" lon="-0.6589720">
        <ele>469.0</ele>
        <time>2018-10-14T07:46:33Z</time>
      </trkpt>
      <trkpt lat="38.4702230" lon="-0.6589720">
        <ele>468.0</ele>
        <time>2018-10-14T07:46:34Z</time>
      </trkpt>
      <trkpt lat="38.4699900" lon="-0.6589020">
        <ele>468.0</ele>
        <time>2018-10-14T07:46:35Z</time>
      </trkpt>
      <trkpt lat="38.4698750" lon="-0.6588700">
        <ele>466.0</ele>
        <time>2018-10-14T07:46:36Z</time>
      </trkpt>
      <trkpt lat="38.4698750" lon="-0.6588700">
        <ele>466.0</ele>
        <time>2018-10-14T07:46:37Z</time>
      </trkpt>
      <trkpt lat="38.4696380" lon="-0.6588200">
        <ele>465.0</ele>
        <time>2018-10-14T07:46:38Z</time>
      </trkpt>
      <trkpt lat="38.4696380" lon="-0.6588200">
        <ele>465.0</ele>
        <time>2018-10-14T07:46:39Z</time>
      </trkpt>
      <trkpt lat="38.4694030" lon="-0.6587820">
        <ele>463.0</ele>
        <time>2018-10-14T07:46:40Z</time>
      </trkpt>
      <trkpt lat="38.4692830" lon="-0.6587620">
        <ele>463.0</ele>
        <time>2018-10-14T07:46:41Z</time>
      </trkpt>
      <trkpt lat="38.4691650" lon="-0.6587400">
        <ele>462.0</ele>
        <time>2018-10-14T07:46:42Z</time>
      </trkpt>
      <trkpt lat="38.4691650" lon="-0.6587400">
        <ele>462.0</ele>
        <time>2018-10-14T07:46:43Z</time>
      </trkpt>
      <trkpt lat="38.4689270" lon="-0.6586880">
        <ele>460.0</ele>
        <time>2018-10-14T07:46:44Z</time>
      </trkpt>
      <trkpt lat="38.4688080" lon="-0.6586600">
        <ele>460.0</ele>
        <time>2018-10-14T07:46:45Z</time>
      </trkpt>
      <trkpt lat="38.4686900" lon="-0.6586300">
        <ele>459.0</ele>
        <time>2018-10-14T07:46:46Z</time>
      </trkpt>
      <trkpt lat="38.4686900" lon="-0.6586300">
        <ele>459.0</ele>
        <time>2018-10-14T07:46:47Z</time>
      </trkpt>
      <trkpt lat="38.4684530" lon="-0.6585750">
        <ele>458.0</ele>
        <time>2018-10-14T07:46:48Z</time>
      </trkpt>
      <trkpt lat="38.4684530" lon="-0.6585750">
        <ele>458.0</ele>
        <time>2018-10-14T07:46:49Z</time>
      </trkpt>
      <trkpt lat="38.4682170" lon="-0.6585130">
        <ele>456.0</ele>
        <time>2018-10-14T07:46:50Z</time>
      </trkpt>
      <trkpt lat="38.4680980" lon="-0.6584880">
        <ele>456.0</ele>
        <time>2018-10-14T07:46:51Z</time>
      </trkpt>
      <trkpt lat="38.4679800" lon="-0.6584680">
        <ele>455.0</ele>
        <time>2018-10-14T07:46:52Z</time>
      </trkpt>
      <trkpt lat="38.4679800" lon="-0.6584680">
        <ele>455.0</ele>
        <time>2018-10-14T07:46:53Z</time>
      </trkpt>
      <trkpt lat="38.4677400" lon="-0.6584520">
        <ele>454.0</ele>
        <time>2018-10-14T07:46:54Z</time>
      </trkpt>
      <trkpt lat="38.4677400" lon="-0.6584520">
        <ele>454.0</ele>
        <time>2018-10-14T07:46:55Z</time>
      </trkpt>
      <trkpt lat="38.4674970" lon="-0.6584500">
        <ele>452.0</ele>
        <time>2018-10-14T07:46:56Z</time>
      </trkpt>
      <trkpt lat="38.4674970" lon="-0.6584500">
        <ele>452.0</ele>
        <time>2018-10-14T07:46:57Z</time>
      </trkpt>
      <trkpt lat="38.4672580" lon="-0.6584050">
        <ele>451.0</ele>
        <time>2018-10-14T07:46:58Z</time>
      </trkpt>
      <trkpt lat="38.4672580" lon="-0.6584050">
        <ele>451.0</ele>
        <time>2018-10-14T07:46:59Z</time>
      </trkpt>
      <trkpt lat="38.4670270" lon="-0.6583130">
        <ele>449.0</ele>
        <time>2018-10-14T07:47:00Z</time>
      </trkpt>
      <trkpt lat="38.4670270" lon="-0.6583130">
        <ele>449.0</ele>
        <time>2018-10-14T07:47:01Z</time>
      </trkpt>
      <trkpt lat="38.4667880" lon="-0.6582220">
        <ele>448.0</ele>
        <time>2018-10-14T07:47:02Z</time>
      </trkpt>
      <trkpt lat="38.4667880" lon="-0.6582220">
        <ele>448.0</ele>
        <time>2018-10-14T07:47:03Z</time>
      </trkpt>
      <trkpt lat="38.4665420" lon="-0.6581650">
        <ele>447.0</ele>
        <time>2018-10-14T07:47:04Z</time>
      </trkpt>
      <trkpt lat="38.4664170" lon="-0.6581480">
        <ele>447.0</ele>
        <time>2018-10-14T07:47:05Z</time>
      </trkpt>
      <trkpt lat="38.4662900" lon="-0.6581330">
        <ele>445.0</ele>
        <time>2018-10-14T07:47:06Z</time>
      </trkpt>
      <trkpt lat="38.4662900" lon="-0.6581330">
        <ele>445.0</ele>
        <time>2018-10-14T07:47:07Z</time>
      </trkpt>
      <trkpt lat="38.4660380" lon="-0.6581130">
        <ele>444.0</ele>
        <time>2018-10-14T07:47:08Z</time>
      </trkpt>
      <trkpt lat="38.4660380" lon="-0.6581130">
        <ele>444.0</ele>
        <time>2018-10-14T07:47:09Z</time>
      </trkpt>
      <trkpt lat="38.4657870" lon="-0.6580800">
        <ele>443.0</ele>
        <time>2018-10-14T07:47:10Z</time>
      </trkpt>
      <trkpt lat="38.4657870" lon="-0.6580800">
        <ele>441.0</ele>
        <time>2018-10-14T07:47:11Z</time>
      </trkpt>
      <trkpt lat="38.4655380" lon="-0.6580070">
        <ele>441.0</ele>
        <time>2018-10-14T07:47:12Z</time>
      </trkpt>
      <trkpt lat="38.4654180" lon="-0.6579530">
        <ele>440.0</ele>
        <time>2018-10-14T07:47:13Z</time>
      </trkpt>
      <trkpt lat="38.4654180" lon="-0.6579530">
        <ele>440.0</ele>
        <time>2018-10-14T07:47:14Z</time>
      </trkpt>
      <trkpt lat="38.4651850" lon="-0.6578080">
        <ele>438.0</ele>
        <time>2018-10-14T07:47:15Z</time>
      </trkpt>
      <trkpt lat="38.4651850" lon="-0.6578080">
        <ele>438.0</ele>
        <time>2018-10-14T07:47:16Z</time>
      </trkpt>
      <trkpt lat="38.4649580" lon="-0.6576450">
        <ele>437.0</ele>
        <time>2018-10-14T07:47:17Z</time>
      </trkpt>
      <trkpt lat="38.4648470" lon="-0.6575580">
        <ele>437.0</ele>
        <time>2018-10-14T07:47:18Z</time>
      </trkpt>
      <trkpt lat="38.4648470" lon="-0.6575580">
        <ele>435.0</ele>
        <time>2018-10-14T07:47:19Z</time>
      </trkpt>
      <trkpt lat="38.4646120" lon="-0.6574130">
        <ele>435.0</ele>
        <time>2018-10-14T07:47:20Z</time>
      </trkpt>
      <trkpt lat="38.4646120" lon="-0.6574130">
        <ele>433.0</ele>
        <time>2018-10-14T07:47:21Z</time>
      </trkpt>
      <trkpt lat="38.4643600" lon="-0.6573200">
        <ele>433.0</ele>
        <time>2018-10-14T07:47:22Z</time>
      </trkpt>
      <trkpt lat="38.4643600" lon="-0.6573200">
        <ele>431.0</ele>
        <time>2018-10-14T07:47:23Z</time>
      </trkpt>
      <trkpt lat="38.4640970" lon="-0.6572470">
        <ele>431.0</ele>
        <time>2018-10-14T07:47:24Z</time>
      </trkpt>
      <trkpt lat="38.4639630" lon="-0.6572220">
        <ele>430.0</ele>
        <time>2018-10-14T07:47:25Z</time>
      </trkpt>
      <trkpt lat="38.4639630" lon="-0.6572220">
        <ele>430.0</ele>
        <time>2018-10-14T07:47:26Z</time>
      </trkpt>
      <trkpt lat="38.4636920" lon="-0.6571980">
        <ele>428.0</ele>
        <time>2018-10-14T07:47:27Z</time>
      </trkpt>
      <trkpt lat="38.4636920" lon="-0.6571980">
        <ele>428.0</ele>
        <time>2018-10-14T07:47:28Z</time>
      </trkpt>
      <trkpt lat="38.4634180" lon="-0.6571930">
        <ele>426.0</ele>
        <time>2018-10-14T07:47:29Z</time>
      </trkpt>
      <trkpt lat="38.4634180" lon="-0.6571930">
        <ele>426.0</ele>
        <time>2018-10-14T07:47:30Z</time>
      </trkpt>
      <trkpt lat="38.4631470" lon="-0.6571920">
        <ele>425.0</ele>
        <time>2018-10-14T07:47:31Z</time>
      </trkpt>
      <trkpt lat="38.4631470" lon="-0.6571920">
        <ele>425.0</ele>
        <time>2018-10-14T07:47:32Z</time>
      </trkpt>
      <trkpt lat="38.4628680" lon="-0.6571870">
        <ele>422.0</ele>
        <time>2018-10-14T07:47:33Z</time>
      </trkpt>
      <trkpt lat="38.4628680" lon="-0.6571870">
        <ele>422.0</ele>
        <time>2018-10-14T07:47:34Z</time>
      </trkpt>
      <trkpt lat="38.4625900" lon="-0.6571680">
        <ele>420.0</ele>
        <time>2018-10-14T07:47:35Z</time>
      </trkpt>
      <trkpt lat="38.4624500" lon="-0.6571530">
        <ele>420.0</ele>
        <time>2018-10-14T07:47:36Z</time>
      </trkpt>
      <trkpt lat="38.4624500" lon="-0.6571530">
        <ele>419.0</ele>
        <time>2018-10-14T07:47:37Z</time>
      </trkpt>
      <trkpt lat="38.4621680" lon="-0.6571030">
        <ele>419.0</ele>
        <time>2018-10-14T07:47:38Z</time>
      </trkpt>
      <trkpt lat="38.4620270" lon="-0.6570680">
        <ele>416.0</ele>
        <time>2018-10-14T07:47:39Z</time>
      </trkpt>
      <trkpt lat="38.4620270" lon="-0.6570680">
        <ele>416.0</ele>
        <time>2018-10-14T07:47:40Z</time>
      </trkpt>
      <trkpt lat="38.4617420" lon="-0.6569820">
        <ele>414.0</ele>
        <time>2018-10-14T07:47:41Z</time>
      </trkpt>
      <trkpt lat="38.4615970" lon="-0.6569350">
        <ele>414.0</ele>
        <time>2018-10-14T07:47:42Z</time>
      </trkpt>
      <trkpt lat="38.4615970" lon="-0.6569350">
        <ele>412.0</ele>
        <time>2018-10-14T07:47:43Z</time>
      </trkpt>
      <trkpt lat="38.4612980" lon="-0.6568600">
        <ele>412.0</ele>
        <time>2018-10-14T07:47:44Z</time>
      </trkpt>
      <trkpt lat="38.4611470" lon="-0.6568250">
        <ele>410.0</ele>
        <time>2018-10-14T07:47:45Z</time>
      </trkpt>
      <trkpt lat="38.4611470" lon="-0.6568250">
        <ele>410.0</ele>
        <time>2018-10-14T07:47:46Z</time>
      </trkpt>
      <trkpt lat="38.4608470" lon="-0.6567530">
        <ele>408.0</ele>
        <time>2018-10-14T07:47:47Z</time>
      </trkpt>
      <trkpt lat="38.4607000" lon="-0.6567120">
        <ele>408.0</ele>
        <time>2018-10-14T07:47:48Z</time>
      </trkpt>
      <trkpt lat="38.4607000" lon="-0.6567120">
        <ele>406.0</ele>
        <time>2018-10-14T07:47:49Z</time>
      </trkpt>
      <trkpt lat="38.4604170" lon="-0.6565870">
        <ele>406.0</ele>
        <time>2018-10-14T07:47:50Z</time>
      </trkpt>
      <trkpt lat="38.4604170" lon="-0.6565870">
        <ele>404.0</ele>
        <time>2018-10-14T07:47:51Z</time>
      </trkpt>
      <trkpt lat="38.4601420" lon="-0.6564380">
        <ele>404.0</ele>
        <time>2018-10-14T07:47:52Z</time>
      </trkpt>
      <trkpt lat="38.4601420" lon="-0.6564380">
        <ele>403.0</ele>
        <time>2018-10-14T07:47:53Z</time>
      </trkpt>
      <trkpt lat="38.4598570" lon="-0.6563320">
        <ele>403.0</ele>
        <time>2018-10-14T07:47:54Z</time>
      </trkpt>
      <trkpt lat="38.4598570" lon="-0.6563320">
        <ele>401.0</ele>
        <time>2018-10-14T07:47:55Z</time>
      </trkpt>
      <trkpt lat="38.4595630" lon="-0.6562850">
        <ele>401.0</ele>
        <time>2018-10-14T07:47:56Z</time>
      </trkpt>
      <trkpt lat="38.4595630" lon="-0.6562850">
        <ele>399.0</ele>
        <time>2018-10-14T07:47:57Z</time>
      </trkpt>
      <trkpt lat="38.4592730" lon="-0.6562530">
        <ele>399.0</ele>
        <time>2018-10-14T07:47:58Z</time>
      </trkpt>
      <trkpt lat="38.4592730" lon="-0.6562530">
        <ele>398.0</ele>
        <time>2018-10-14T07:47:59Z</time>
      </trkpt>
      <trkpt lat="38.4589880" lon="-0.6562270">
        <ele>398.0</ele>
        <time>2018-10-14T07:48:00Z</time>
      </trkpt>
      <trkpt lat="38.4589880" lon="-0.6562270">
        <ele>396.0</ele>
        <time>2018-10-14T07:48:01Z</time>
      </trkpt>
      <trkpt lat="38.4587070" lon="-0.6562170">
        <ele>396.0</ele>
        <time>2018-10-14T07:48:02Z</time>
      </trkpt>
      <trkpt lat="38.4587070" lon="-0.6562170">
        <ele>395.0</ele>
        <time>2018-10-14T07:48:03Z</time>
      </trkpt>
      <trkpt lat="38.4584300" lon="-0.6562430">
        <ele>395.0</ele>
        <time>2018-10-14T07:48:04Z</time>
      </trkpt>
      <trkpt lat="38.4582950" lon="-0.6562630">
        <ele>393.0</ele>
        <time>2018-10-14T07:48:05Z</time>
      </trkpt>
      <trkpt lat="38.4581580" lon="-0.6562850">
        <ele>393.0</ele>
        <time>2018-10-14T07:48:06Z</time>
      </trkpt>
      <trkpt lat="38.4581580" lon="-0.6562850">
        <ele>392.0</ele>
        <time>2018-10-14T07:48:07Z</time>
      </trkpt>
      <trkpt lat="38.4578870" lon="-0.6563230">
        <ele>392.0</ele>
        <time>2018-10-14T07:48:08Z</time>
      </trkpt>
      <trkpt lat="38.4578870" lon="-0.6563230">
        <ele>391.0</ele>
        <time>2018-10-14T07:48:09Z</time>
      </trkpt>
      <trkpt lat="38.4576130" lon="-0.6563430">
        <ele>391.0</ele>
        <time>2018-10-14T07:48:10Z</time>
      </trkpt>
      <trkpt lat="38.4576130" lon="-0.6563430">
        <ele>390.0</ele>
        <time>2018-10-14T07:48:11Z</time>
      </trkpt>
      <trkpt lat="38.4573370" lon="-0.6563430">
        <ele>388.0</ele>
        <time>2018-10-14T07:48:12Z</time>
      </trkpt>
      <trkpt lat="38.4573370" lon="-0.6563430">
        <ele>388.0</ele>
        <time>2018-10-14T07:48:13Z</time>
      </trkpt>
      <trkpt lat="38.4570600" lon="-0.6563450">
        <ele>387.0</ele>
        <time>2018-10-14T07:48:14Z</time>
      </trkpt>
      <trkpt lat="38.4570600" lon="-0.6563450">
        <ele>387.0</ele>
        <time>2018-10-14T07:48:15Z</time>
      </trkpt>
      <trkpt lat="38.4567870" lon="-0.6563370">
        <ele>385.0</ele>
        <time>2018-10-14T07:48:16Z</time>
      </trkpt>
      <trkpt lat="38.4567870" lon="-0.6563370">
        <ele>385.0</ele>
        <time>2018-10-14T07:48:17Z</time>
      </trkpt>
      <trkpt lat="38.4565120" lon="-0.6563300">
        <ele>384.0</ele>
        <time>2018-10-14T07:48:18Z</time>
      </trkpt>
      <trkpt lat="38.4565120" lon="-0.6563300">
        <ele>384.0</ele>
        <time>2018-10-14T07:48:19Z</time>
      </trkpt>
      <trkpt lat="38.4562420" lon="-0.6563220">
        <ele>383.0</ele>
        <time>2018-10-14T07:48:20Z</time>
      </trkpt>
      <trkpt lat="38.4562420" lon="-0.6563220">
        <ele>383.0</ele>
        <time>2018-10-14T07:48:21Z</time>
      </trkpt>
      <trkpt lat="38.4559750" lon="-0.6563150">
        <ele>382.0</ele>
        <time>2018-10-14T07:48:22Z</time>
      </trkpt>
      <trkpt lat="38.4559750" lon="-0.6563150">
        <ele>382.0</ele>
        <time>2018-10-14T07:48:23Z</time>
      </trkpt>
      <trkpt lat="38.4557130" lon="-0.6562870">
        <ele>380.0</ele>
        <time>2018-10-14T07:48:24Z</time>
      </trkpt>
      <trkpt lat="38.4557130" lon="-0.6562870">
        <ele>380.0</ele>
        <time>2018-10-14T07:48:25Z</time>
      </trkpt>
      <trkpt lat="38.4554770" lon="-0.6561550">
        <ele>378.0</ele>
        <time>2018-10-14T07:48:26Z</time>
      </trkpt>
      <trkpt lat="38.4554770" lon="-0.6561550">
        <ele>378.0</ele>
        <time>2018-10-14T07:48:27Z</time>
      </trkpt>
      <trkpt lat="38.4552870" lon="-0.6559370">
        <ele>377.0</ele>
        <time>2018-10-14T07:48:28Z</time>
      </trkpt>
      <trkpt lat="38.4552870" lon="-0.6559370">
        <ele>377.0</ele>
        <time>2018-10-14T07:48:29Z</time>
      </trkpt>
      <trkpt lat="38.4551170" lon="-0.6556970">
        <ele>376.0</ele>
        <time>2018-10-14T07:48:30Z</time>
      </trkpt>
      <trkpt lat="38.4551170" lon="-0.6556970">
        <ele>376.0</ele>
        <time>2018-10-14T07:48:31Z</time>
      </trkpt>
      <trkpt lat="38.4549450" lon="-0.6554570">
        <ele>374.0</ele>
        <time>2018-10-14T07:48:32Z</time>
      </trkpt>
      <trkpt lat="38.4549450" lon="-0.6554570">
        <ele>374.0</ele>
        <time>2018-10-14T07:48:33Z</time>
      </trkpt>
      <trkpt lat="38.4547680" lon="-0.6552230">
        <ele>374.0</ele>
        <time>2018-10-14T07:48:34Z</time>
      </trkpt>
      <trkpt lat="38.4546750" lon="-0.6551130">
        <ele>374.0</ele>
        <time>2018-10-14T07:48:35Z</time>
      </trkpt>
      <trkpt lat="38.4545800" lon="-0.6550080">
        <ele>372.0</ele>
        <time>2018-10-14T07:48:36Z</time>
      </trkpt>
      <trkpt lat="38.4545800" lon="-0.6550080">
        <ele>372.0</ele>
        <time>2018-10-14T07:48:37Z</time>
      </trkpt>
      <trkpt lat="38.4543820" lon="-0.6548100">
        <ele>371.0</ele>
        <time>2018-10-14T07:48:38Z</time>
      </trkpt>
      <trkpt lat="38.4543820" lon="-0.6548100">
        <ele>371.0</ele>
        <time>2018-10-14T07:48:39Z</time>
      </trkpt>
      <trkpt lat="38.4541850" lon="-0.6546130">
        <ele>370.0</ele>
        <time>2018-10-14T07:48:40Z</time>
      </trkpt>
      <trkpt lat="38.4541850" lon="-0.6546130">
        <ele>370.0</ele>
        <time>2018-10-14T07:48:41Z</time>
      </trkpt>
      <trkpt lat="38.4539830" lon="-0.6544200">
        <ele>369.0</ele>
        <time>2018-10-14T07:48:42Z</time>
      </trkpt>
      <trkpt lat="38.4539830" lon="-0.6544200">
        <ele>369.0</ele>
        <time>2018-10-14T07:48:43Z</time>
      </trkpt>
      <trkpt lat="38.4537950" lon="-0.6542230">
        <ele>367.0</ele>
        <time>2018-10-14T07:48:44Z</time>
      </trkpt>
      <trkpt lat="38.4537950" lon="-0.6542230">
        <ele>367.0</ele>
        <time>2018-10-14T07:48:45Z</time>
      </trkpt>
      <trkpt lat="38.4536150" lon="-0.6540320">
        <ele>367.0</ele>
        <time>2018-10-14T07:48:46Z</time>
      </trkpt>
      <trkpt lat="38.4535300" lon="-0.6539350">
        <ele>367.0</ele>
        <time>2018-10-14T07:48:47Z</time>
      </trkpt>
      <trkpt lat="38.4534430" lon="-0.6538400">
        <ele>367.0</ele>
        <time>2018-10-14T07:48:48Z</time>
      </trkpt>
      <trkpt lat="38.4534430" lon="-0.6538400">
        <ele>367.0</ele>
        <time>2018-10-14T07:48:49Z</time>
      </trkpt>
      <trkpt lat="38.4532680" lon="-0.6536530">
        <ele>365.0</ele>
        <time>2018-10-14T07:48:50Z</time>
      </trkpt>
      <trkpt lat="38.4532680" lon="-0.6536530">
        <ele>365.0</ele>
        <time>2018-10-14T07:48:51Z</time>
      </trkpt>
      <trkpt lat="38.4530920" lon="-0.6534700">
        <ele>365.0</ele>
        <time>2018-10-14T07:48:52Z</time>
      </trkpt>
      <trkpt lat="38.4530920" lon="-0.6534700">
        <ele>365.0</ele>
        <time>2018-10-14T07:48:53Z</time>
      </trkpt>
      <trkpt lat="38.4529030" lon="-0.6533000">
        <ele>364.0</ele>
        <time>2018-10-14T07:48:54Z</time>
      </trkpt>
      <trkpt lat="38.4529030" lon="-0.6533000">
        <ele>364.0</ele>
        <time>2018-10-14T07:48:55Z</time>
      </trkpt>
      <trkpt lat="38.4527050" lon="-0.6531380">
        <ele>362.0</ele>
        <time>2018-10-14T07:48:56Z</time>
      </trkpt>
      <trkpt lat="38.4526030" lon="-0.6530600">
        <ele>362.0</ele>
        <time>2018-10-14T07:48:57Z</time>
      </trkpt>
      <trkpt lat="38.4525000" lon="-0.6529780">
        <ele>361.0</ele>
        <time>2018-10-14T07:48:58Z</time>
      </trkpt>
      <trkpt lat="38.4525000" lon="-0.6529780">
        <ele>361.0</ele>
        <time>2018-10-14T07:48:59Z</time>
      </trkpt>
      <trkpt lat="38.4522970" lon="-0.6528180">
        <ele>360.0</ele>
        <time>2018-10-14T07:49:00Z</time>
      </trkpt>
      <trkpt lat="38.4522970" lon="-0.6528180">
        <ele>360.0</ele>
        <time>2018-10-14T07:49:01Z</time>
      </trkpt>
      <trkpt lat="38.4520900" lon="-0.6526570">
        <ele>358.0</ele>
        <time>2018-10-14T07:49:02Z</time>
      </trkpt>
      <trkpt lat="38.4520900" lon="-0.6526570">
        <ele>358.0</ele>
        <time>2018-10-14T07:49:03Z</time>
      </trkpt>
      <trkpt lat="38.4518830" lon="-0.6524970">
        <ele>357.0</ele>
        <time>2018-10-14T07:49:04Z</time>
      </trkpt>
      <trkpt lat="38.4517820" lon="-0.6524150">
        <ele>357.0</ele>
        <time>2018-10-14T07:49:05Z</time>
      </trkpt>
      <trkpt lat="38.4516820" lon="-0.6523330">
        <ele>356.0</ele>
        <time>2018-10-14T07:49:06Z</time>
      </trkpt>
      <trkpt lat="38.4516820" lon="-0.6523330">
        <ele>356.0</ele>
        <time>2018-10-14T07:49:07Z</time>
      </trkpt>
      <trkpt lat="38.4514850" lon="-0.6521600">
        <ele>355.0</ele>
        <time>2018-10-14T07:49:08Z</time>
      </trkpt>
      <trkpt lat="38.4513930" lon="-0.6520620">
        <ele>355.0</ele>
        <time>2018-10-14T07:49:09Z</time>
      </trkpt>
      <trkpt lat="38.4513930" lon="-0.6520620">
        <ele>354.0</ele>
        <time>2018-10-14T07:49:10Z</time>
      </trkpt>
      <trkpt lat="38.4512350" lon="-0.6518380">
        <ele>354.0</ele>
        <time>2018-10-14T07:49:11Z</time>
      </trkpt>
      <trkpt lat="38.4511650" lon="-0.6517180">
        <ele>353.0</ele>
        <time>2018-10-14T07:49:12Z</time>
      </trkpt>
      <trkpt lat="38.4511650" lon="-0.6517180">
        <ele>353.0</ele>
        <time>2018-10-14T07:49:13Z</time>
      </trkpt>
      <trkpt lat="38.4510330" lon="-0.6514720">
        <ele>353.0</ele>
        <time>2018-10-14T07:49:14Z</time>
      </trkpt>
      <trkpt lat="38.4510330" lon="-0.6514720">
        <ele>351.0</ele>
        <time>2018-10-14T07:49:15Z</time>
      </trkpt>
      <trkpt lat="38.4509000" lon="-0.6512350">
        <ele>351.0</ele>
        <time>2018-10-14T07:49:16Z</time>
      </trkpt>
      <trkpt lat="38.4509000" lon="-0.6512350">
        <ele>351.0</ele>
        <time>2018-10-14T07:49:17Z</time>
      </trkpt>
      <trkpt lat="38.4507480" lon="-0.6510280">
        <ele>351.0</ele>
        <time>2018-10-14T07:49:18Z</time>
      </trkpt>
      <trkpt lat="38.4507480" lon="-0.6510280">
        <ele>351.0</ele>
        <time>2018-10-14T07:49:19Z</time>
      </trkpt>
      <trkpt lat="38.4505550" lon="-0.6509050">
        <ele>351.0</ele>
        <time>2018-10-14T07:49:20Z</time>
      </trkpt>
      <trkpt lat="38.4505550" lon="-0.6509050">
        <ele>349.0</ele>
        <time>2018-10-14T07:49:21Z</time>
      </trkpt>
      <trkpt lat="38.4503400" lon="-0.6508420">
        <ele>349.0</ele>
        <time>2018-10-14T07:49:22Z</time>
      </trkpt>
      <trkpt lat="38.4503400" lon="-0.6508420">
        <ele>348.0</ele>
        <time>2018-10-14T07:49:23Z</time>
      </trkpt>
      <trkpt lat="38.4501200" lon="-0.6507970">
        <ele>348.0</ele>
        <time>2018-10-14T07:49:24Z</time>
      </trkpt>
      <trkpt lat="38.4501200" lon="-0.6507970">
        <ele>347.0</ele>
        <time>2018-10-14T07:49:25Z</time>
      </trkpt>
      <trkpt lat="38.4498920" lon="-0.6507600">
        <ele>347.0</ele>
        <time>2018-10-14T07:49:26Z</time>
      </trkpt>
      <trkpt lat="38.4498920" lon="-0.6507600">
        <ele>346.0</ele>
        <time>2018-10-14T07:49:27Z</time>
      </trkpt>
      <trkpt lat="38.4496580" lon="-0.6507320">
        <ele>346.0</ele>
        <time>2018-10-14T07:49:28Z</time>
      </trkpt>
      <trkpt lat="38.4496580" lon="-0.6507320">
        <ele>345.0</ele>
        <time>2018-10-14T07:49:29Z</time>
      </trkpt>
      <trkpt lat="38.4494220" lon="-0.6507130">
        <ele>345.0</ele>
        <time>2018-10-14T07:49:30Z</time>
      </trkpt>
      <trkpt lat="38.4494220" lon="-0.6507130">
        <ele>344.0</ele>
        <time>2018-10-14T07:49:31Z</time>
      </trkpt>
      <trkpt lat="38.4491830" lon="-0.6506750">
        <ele>344.0</ele>
        <time>2018-10-14T07:49:32Z</time>
      </trkpt>
      <trkpt lat="38.4491830" lon="-0.6506750">
        <ele>343.0</ele>
        <time>2018-10-14T07:49:33Z</time>
      </trkpt>
      <trkpt lat="38.4489480" lon="-0.6506020">
        <ele>343.0</ele>
        <time>2018-10-14T07:49:34Z</time>
      </trkpt>
      <trkpt lat="38.4488330" lon="-0.6505480">
        <ele>342.0</ele>
        <time>2018-10-14T07:49:35Z</time>
      </trkpt>
      <trkpt lat="38.4487200" lon="-0.6504980">
        <ele>342.0</ele>
        <time>2018-10-14T07:49:36Z</time>
      </trkpt>
      <trkpt lat="38.4486080" lon="-0.6504500">
        <ele>340.0</ele>
        <time>2018-10-14T07:49:37Z</time>
      </trkpt>
      <trkpt lat="38.4484970" lon="-0.6504000">
        <ele>340.0</ele>
        <time>2018-10-14T07:49:38Z</time>
      </trkpt>
      <trkpt lat="38.4484970" lon="-0.6504000">
        <ele>339.0</ele>
        <time>2018-10-14T07:49:39Z</time>
      </trkpt>
      <trkpt lat="38.4482770" lon="-0.6503020">
        <ele>339.0</ele>
        <time>2018-10-14T07:49:40Z</time>
      </trkpt>
      <trkpt lat="38.4482770" lon="-0.6503020">
        <ele>338.0</ele>
        <time>2018-10-14T07:49:41Z</time>
      </trkpt>
      <trkpt lat="38.4480570" lon="-0.6501950">
        <ele>338.0</ele>
        <time>2018-10-14T07:49:42Z</time>
      </trkpt>
      <trkpt lat="38.4480570" lon="-0.6501950">
        <ele>338.0</ele>
        <time>2018-10-14T07:49:43Z</time>
      </trkpt>
      <trkpt lat="38.4478550" lon="-0.6500880">
        <ele>338.0</ele>
        <time>2018-10-14T07:49:44Z</time>
      </trkpt>
      <trkpt lat="38.4478550" lon="-0.6500880">
        <ele>337.0</ele>
        <time>2018-10-14T07:49:45Z</time>
      </trkpt>
      <trkpt lat="38.4476750" lon="-0.6499870">
        <ele>337.0</ele>
        <time>2018-10-14T07:49:46Z</time>
      </trkpt>
      <trkpt lat="38.4476750" lon="-0.6499870">
        <ele>336.0</ele>
        <time>2018-10-14T07:49:47Z</time>
      </trkpt>
      <trkpt lat="38.4474980" lon="-0.6498930">
        <ele>336.0</ele>
        <time>2018-10-14T07:49:48Z</time>
      </trkpt>
      <trkpt lat="38.4474980" lon="-0.6498930">
        <ele>335.0</ele>
        <time>2018-10-14T07:49:49Z</time>
      </trkpt>
      <trkpt lat="38.4473170" lon="-0.6498000">
        <ele>335.0</ele>
        <time>2018-10-14T07:49:50Z</time>
      </trkpt>
      <trkpt lat="38.4472230" lon="-0.6497570">
        <ele>334.0</ele>
        <time>2018-10-14T07:49:51Z</time>
      </trkpt>
      <trkpt lat="38.4472230" lon="-0.6497570">
        <ele>334.0</ele>
        <time>2018-10-14T07:49:52Z</time>
      </trkpt>
      <trkpt lat="38.4470330" lon="-0.6496620">
        <ele>333.0</ele>
        <time>2018-10-14T07:49:53Z</time>
      </trkpt>
      <trkpt lat="38.4469400" lon="-0.6496100">
        <ele>333.0</ele>
        <time>2018-10-14T07:49:54Z</time>
      </trkpt>
      <trkpt lat="38.4469400" lon="-0.6496100">
        <ele>332.0</ele>
        <time>2018-10-14T07:49:55Z</time>
      </trkpt>
      <trkpt lat="38.4467520" lon="-0.6495020">
        <ele>332.0</ele>
        <time>2018-10-14T07:49:56Z</time>
      </trkpt>
      <trkpt lat="38.4466580" lon="-0.6494450">
        <ele>332.0</ele>
        <time>2018-10-14T07:49:57Z</time>
      </trkpt>
      <trkpt lat="38.4466580" lon="-0.6494450">
        <ele>332.0</ele>
        <time>2018-10-14T07:49:58Z</time>
      </trkpt>
      <trkpt lat="38.4464700" lon="-0.6493250">
        <ele>330.0</ele>
        <time>2018-10-14T07:49:59Z</time>
      </trkpt>
      <trkpt lat="38.4464700" lon="-0.6493250">
        <ele>330.0</ele>
        <time>2018-10-14T07:50:00Z</time>
      </trkpt>
      <trkpt lat="38.4462820" lon="-0.6491980">
        <ele>330.0</ele>
        <time>2018-10-14T07:50:01Z</time>
      </trkpt>
      <trkpt lat="38.4462820" lon="-0.6491980">
        <ele>330.0</ele>
        <time>2018-10-14T07:50:02Z</time>
      </trkpt>
      <trkpt lat="38.4461020" lon="-0.6490530">
        <ele>329.0</ele>
        <time>2018-10-14T07:50:03Z</time>
      </trkpt>
      <trkpt lat="38.4461020" lon="-0.6490530">
        <ele>329.0</ele>
        <time>2018-10-14T07:50:04Z</time>
      </trkpt>
      <trkpt lat="38.4459250" lon="-0.6489000">
        <ele>328.0</ele>
        <time>2018-10-14T07:50:05Z</time>
      </trkpt>
      <trkpt lat="38.4458370" lon="-0.6488220">
        <ele>328.0</ele>
        <time>2018-10-14T07:50:06Z</time>
      </trkpt>
      <trkpt lat="38.4458370" lon="-0.6488220">
        <ele>328.0</ele>
        <time>2018-10-14T07:50:07Z</time>
      </trkpt>
      <trkpt lat="38.4456530" lon="-0.6486680">
        <ele>326.0</ele>
        <time>2018-10-14T07:50:08Z</time>
      </trkpt>
      <trkpt lat="38.4456530" lon="-0.6486680">
        <ele>326.0</ele>
        <time>2018-10-14T07:50:09Z</time>
      </trkpt>
      <trkpt lat="38.4454720" lon="-0.6484980">
        <ele>326.0</ele>
        <time>2018-10-14T07:50:10Z</time>
      </trkpt>
      <trkpt lat="38.4454720" lon="-0.6484980">
        <ele>325.0</ele>
        <time>2018-10-14T07:50:11Z</time>
      </trkpt>
      <trkpt lat="38.4452920" lon="-0.6483120">
        <ele>323.0</ele>
        <time>2018-10-14T07:50:12Z</time>
      </trkpt>
      <trkpt lat="38.4452920" lon="-0.6483120">
        <ele>323.0</ele>
        <time>2018-10-14T07:50:13Z</time>
      </trkpt>
      <trkpt lat="38.4451230" lon="-0.6481000">
        <ele>323.0</ele>
        <time>2018-10-14T07:50:14Z</time>
      </trkpt>
      <trkpt lat="38.4451230" lon="-0.6481000">
        <ele>322.0</ele>
        <time>2018-10-14T07:50:15Z</time>
      </trkpt>
      <trkpt lat="38.4449780" lon="-0.6478580">
        <ele>322.0</ele>
        <time>2018-10-14T07:50:16Z</time>
      </trkpt>
      <trkpt lat="38.4449780" lon="-0.6478580">
        <ele>320.0</ele>
        <time>2018-10-14T07:50:17Z</time>
      </trkpt>
      <trkpt lat="38.4448670" lon="-0.6475830">
        <ele>320.0</ele>
        <time>2018-10-14T07:50:18Z</time>
      </trkpt>
      <trkpt lat="38.4448150" lon="-0.6474430">
        <ele>319.0</ele>
        <time>2018-10-14T07:50:19Z</time>
      </trkpt>
      <trkpt lat="38.4447620" lon="-0.6473070">
        <ele>319.0</ele>
        <time>2018-10-14T07:50:20Z</time>
      </trkpt>
      <trkpt lat="38.4447620" lon="-0.6473070">
        <ele>318.0</ele>
        <time>2018-10-14T07:50:21Z</time>
      </trkpt>
      <trkpt lat="38.4446520" lon="-0.6470450">
        <ele>318.0</ele>
        <time>2018-10-14T07:50:22Z</time>
      </trkpt>
      <trkpt lat="38.4445920" lon="-0.6469250">
        <ele>318.0</ele>
        <time>2018-10-14T07:50:23Z</time>
      </trkpt>
      <trkpt lat="38.4445920" lon="-0.6469250">
        <ele>318.0</ele>
        <time>2018-10-14T07:50:24Z</time>
      </trkpt>
      <trkpt lat="38.4444730" lon="-0.6466970">
        <ele>317.0</ele>
        <time>2018-10-14T07:50:25Z</time>
      </trkpt>
      <trkpt lat="38.4444230" lon="-0.6465800">
        <ele>317.0</ele>
        <time>2018-10-14T07:50:26Z</time>
      </trkpt>
      <trkpt lat="38.4444230" lon="-0.6465800">
        <ele>317.0</ele>
        <time>2018-10-14T07:50:27Z</time>
      </trkpt>
      <trkpt lat="38.4443450" lon="-0.6463450">
        <ele>317.0</ele>
        <time>2018-10-14T07:50:28Z</time>
      </trkpt>
      <trkpt lat="38.4443100" lon="-0.6462220">
        <ele>317.0</ele>
        <time>2018-10-14T07:50:29Z</time>
      </trkpt>
      <trkpt lat="38.4443100" lon="-0.6462220">
        <ele>317.0</ele>
        <time>2018-10-14T07:50:30Z</time>
      </trkpt>
      <trkpt lat="38.4442420" lon="-0.6459850">
        <ele>317.0</ele>
        <time>2018-10-14T07:50:31Z</time>
      </trkpt>
      <trkpt lat="38.4442420" lon="-0.6459850">
        <ele>317.0</ele>
        <time>2018-10-14T07:50:32Z</time>
      </trkpt>
      <trkpt lat="38.4441550" lon="-0.6457750">
        <ele>317.0</ele>
        <time>2018-10-14T07:50:33Z</time>
      </trkpt>
      <trkpt lat="38.4441550" lon="-0.6457750">
        <ele>317.0</ele>
        <time>2018-10-14T07:50:34Z</time>
      </trkpt>
      <trkpt lat="38.4440450" lon="-0.6455950">
        <ele>317.0</ele>
        <time>2018-10-14T07:50:35Z</time>
      </trkpt>
      <trkpt lat="38.4439870" lon="-0.6455130">
        <ele>317.0</ele>
        <time>2018-10-14T07:50:36Z</time>
      </trkpt>
      <trkpt lat="38.4439300" lon="-0.6454400">
        <ele>317.0</ele>
        <time>2018-10-14T07:50:37Z</time>
      </trkpt>
      <trkpt lat="38.4439300" lon="-0.6454400">
        <ele>317.0</ele>
        <time>2018-10-14T07:50:38Z</time>
      </trkpt>
      <trkpt lat="38.4438200" lon="-0.6452980">
        <ele>318.0</ele>
        <time>2018-10-14T07:50:39Z</time>
      </trkpt>
      <trkpt lat="38.4437670" lon="-0.6452270">
        <ele>318.0</ele>
        <time>2018-10-14T07:50:40Z</time>
      </trkpt>
      <trkpt lat="38.4437670" lon="-0.6452270">
        <ele>318.0</ele>
        <time>2018-10-14T07:50:41Z</time>
      </trkpt>
      <trkpt lat="38.4436750" lon="-0.6450770">
        <ele>318.0</ele>
        <time>2018-10-14T07:50:42Z</time>
      </trkpt>
      <trkpt lat="38.4436750" lon="-0.6450770">
        <ele>318.0</ele>
        <time>2018-10-14T07:50:43Z</time>
      </trkpt>
      <trkpt lat="38.4435930" lon="-0.6449250">
        <ele>318.0</ele>
        <time>2018-10-14T07:50:44Z</time>
      </trkpt>
      <trkpt lat="38.4435530" lon="-0.6448450">
        <ele>318.0</ele>
        <time>2018-10-14T07:50:45Z</time>
      </trkpt>
      <trkpt lat="38.4435530" lon="-0.6448450">
        <ele>319.0</ele>
        <time>2018-10-14T07:50:46Z</time>
      </trkpt>
      <trkpt lat="38.4434700" lon="-0.6446870">
        <ele>319.0</ele>
        <time>2018-10-14T07:50:47Z</time>
      </trkpt>
      <trkpt lat="38.4434200" lon="-0.6446130">
        <ele>319.0</ele>
        <time>2018-10-14T07:50:48Z</time>
      </trkpt>
      <trkpt lat="38.4434200" lon="-0.6446130">
        <ele>319.0</ele>
        <time>2018-10-14T07:50:49Z</time>
      </trkpt>
      <trkpt lat="38.4433120" lon="-0.6444750">
        <ele>319.0</ele>
        <time>2018-10-14T07:50:50Z</time>
      </trkpt>
      <trkpt lat="38.4433120" lon="-0.6444750">
        <ele>319.0</ele>
        <time>2018-10-14T07:50:51Z</time>
      </trkpt>
      <trkpt lat="38.4431970" lon="-0.6443430">
        <ele>319.0</ele>
        <time>2018-10-14T07:50:52Z</time>
      </trkpt>
      <trkpt lat="38.4431970" lon="-0.6443430">
        <ele>319.0</ele>
        <time>2018-10-14T07:50:53Z</time>
      </trkpt>
      <trkpt lat="38.4430820" lon="-0.6442300">
        <ele>320.0</ele>
        <time>2018-10-14T07:50:54Z</time>
      </trkpt>
      <trkpt lat="38.4430820" lon="-0.6442300">
        <ele>320.0</ele>
        <time>2018-10-14T07:50:55Z</time>
      </trkpt>
      <trkpt lat="38.4429820" lon="-0.6441230">
        <ele>320.0</ele>
        <time>2018-10-14T07:50:56Z</time>
      </trkpt>
      <trkpt lat="38.4429330" lon="-0.6440750">
        <ele>320.0</ele>
        <time>2018-10-14T07:50:57Z</time>
      </trkpt>
      <trkpt lat="38.4429330" lon="-0.6440750">
        <ele>321.0</ele>
        <time>2018-10-14T07:50:58Z</time>
      </trkpt>
      <trkpt lat="38.4428370" lon="-0.6439930">
        <ele>321.0</ele>
        <time>2018-10-14T07:50:59Z</time>
      </trkpt>
      <trkpt lat="38.4428370" lon="-0.6439930">
        <ele>321.0</ele>
        <time>2018-10-14T07:51:00Z</time>
      </trkpt>
      <trkpt lat="38.4427550" lon="-0.6439100">
        <ele>321.0</ele>
        <time>2018-10-14T07:51:01Z</time>
      </trkpt>
      <trkpt lat="38.4427180" lon="-0.6438620">
        <ele>322.0</ele>
        <time>2018-10-14T07:51:02Z</time>
      </trkpt>
      <trkpt lat="38.4427180" lon="-0.6438620">
        <ele>322.0</ele>
        <time>2018-10-14T07:51:03Z</time>
      </trkpt>
      <trkpt lat="38.4426450" lon="-0.6437630">
        <ele>322.0</ele>
        <time>2018-10-14T07:51:04Z</time>
      </trkpt>
      <trkpt lat="38.4426100" lon="-0.6437100">
        <ele>322.0</ele>
        <time>2018-10-14T07:51:05Z</time>
      </trkpt>
      <trkpt lat="38.4426100" lon="-0.6437100">
        <ele>322.0</ele>
        <time>2018-10-14T07:51:06Z</time>
      </trkpt>
      <trkpt lat="38.4425400" lon="-0.6436050">
        <ele>322.0</ele>
        <time>2018-10-14T07:51:07Z</time>
      </trkpt>
      <trkpt lat="38.4425050" lon="-0.6435530">
        <ele>323.0</ele>
        <time>2018-10-14T07:51:08Z</time>
      </trkpt>
      <trkpt lat="38.4425050" lon="-0.6435530">
        <ele>323.0</ele>
        <time>2018-10-14T07:51:09Z</time>
      </trkpt>
      <trkpt lat="38.4424380" lon="-0.6434500">
        <ele>323.0</ele>
        <time>2018-10-14T07:51:10Z</time>
      </trkpt>
      <trkpt lat="38.4424380" lon="-0.6434500">
        <ele>323.0</ele>
        <time>2018-10-14T07:51:11Z</time>
      </trkpt>
      <trkpt lat="38.4423750" lon="-0.6433550">
        <ele>323.0</ele>
        <time>2018-10-14T07:51:12Z</time>
      </trkpt>
      <trkpt lat="38.4423750" lon="-0.6433550">
        <ele>323.0</ele>
        <time>2018-10-14T07:51:13Z</time>
      </trkpt>
      <trkpt lat="38.4423230" lon="-0.6432850">
        <ele>323.0</ele>
        <time>2018-10-14T07:51:14Z</time>
      </trkpt>
      <trkpt lat="38.4423230" lon="-0.6432850">
        <ele>323.0</ele>
        <time>2018-10-14T07:51:15Z</time>
      </trkpt>
      <trkpt lat="38.4422880" lon="-0.6432480">
        <ele>323.0</ele>
        <time>2018-10-14T07:51:16Z</time>
      </trkpt>
      <trkpt lat="38.4422880" lon="-0.6432480">
        <ele>323.0</ele>
        <time>2018-10-14T07:51:17Z</time>
      </trkpt>
      <trkpt lat="38.4422830" lon="-0.6432380">
        <ele>323.0</ele>
        <time>2018-10-14T07:51:18Z</time>
      </trkpt>
      <trkpt lat="38.4422830" lon="-0.6432380">
        <ele>323.0</ele>
        <time>2018-10-14T07:51:19Z</time>
      </trkpt>
      <trkpt lat="38.4422820" lon="-0.6432400">
        <ele>323.0</ele>
        <time>2018-10-14T07:51:26Z</time>
      </trkpt>
      <trkpt lat="38.4422820" lon="-0.6432400">
        <ele>323.0</ele>
        <time>2018-10-14T07:51:27Z</time>
      </trkpt>
      <trkpt lat="38.4422820" lon="-0.6432400">
        <ele>323.0</ele>
        <time>2018-10-14T07:51:28Z</time>
      </trkpt>
      <trkpt lat="38.4422820" lon="-0.6432400">
        <ele>321.0</ele>
        <time>2018-10-14T07:51:29Z</time>
      </trkpt>
      <trkpt lat="38.4422820" lon="-0.6432400">
        <ele>321.0</ele>
        <time>2018-10-14T07:51:30Z</time>
      </trkpt>
      <trkpt lat="38.4422820" lon="-0.6432400">
        <ele>321.0</ele>
        <time>2018-10-14T07:51:31Z</time>
      </trkpt>
      <trkpt lat="38.4422820" lon="-0.6432400">
        <ele>321.0</ele>
        <time>2018-10-14T07:51:32Z</time>
      </trkpt>
      <trkpt lat="38.4422820" lon="-0.6432400">
        <ele>322.0</ele>
        <time>2018-10-14T07:51:33Z</time>
      </trkpt>
      <trkpt lat="38.4422820" lon="-0.6432400">
        <ele>322.0</ele>
        <time>2018-10-14T07:51:34Z</time>
      </trkpt>
      <trkpt lat="38.4422820" lon="-0.6432400">
        <ele>322.0</ele>
        <time>2018-10-14T07:51:35Z</time>
      </trkpt>
      <trkpt lat="38.4422820" lon="-0.6432400">
        <ele>322.0</ele>
        <time>2018-10-14T07:51:36Z</time>
      </trkpt>
      <trkpt lat="38.4422820" lon="-0.6432400">
        <ele>322.0</ele>
        <time>2018-10-14T07:51:37Z</time>
      </trkpt>
      <trkpt lat="38.4422820" lon="-0.6432400">
        <ele>322.0</ele>
        <time>2018-10-14T07:51:38Z</time>
      </trkpt>
      <trkpt lat="38.4422820" lon="-0.6432400">
        <ele>322.0</ele>
        <time>2018-10-14T07:51:39Z</time>
      </trkpt>
      <trkpt lat="38.4422820" lon="-0.6432400">
        <ele>322.0</ele>
        <time>2018-10-14T07:51:40Z</time>
      </trkpt>
      <trkpt lat="38.4422820" lon="-0.6432400">
        <ele>322.0</ele>
        <time>2018-10-14T07:51:41Z</time>
      </trkpt>
      <trkpt lat="38.4422820" lon="-0.6432400">
        <ele>322.0</ele>
        <time>2018-10-14T07:51:42Z</time>
      </trkpt>
      <trkpt lat="38.4422820" lon="-0.6432400">
        <ele>322.0</ele>
        <time>2018-10-14T07:51:43Z</time>
      </trkpt>
      <trkpt lat="38.4422820" lon="-0.6432400">
        <ele>322.0</ele>
        <time>2018-10-14T07:51:44Z</time>
      </trkpt>
      <trkpt lat="38.4422820" lon="-0.6432400">
        <ele>322.0</ele>
        <time>2018-10-14T07:51:45Z</time>
      </trkpt>
      <trkpt lat="38.4422820" lon="-0.6432400">
        <ele>322.0</ele>
        <time>2018-10-14T07:51:46Z</time>
      </trkpt>
      <trkpt lat="38.4422820" lon="-0.6432400">
        <ele>322.0</ele>
        <time>2018-10-14T07:51:47Z</time>
      </trkpt>
      <trkpt lat="38.4422820" lon="-0.6432400">
        <ele>322.0</ele>
        <time>2018-10-14T07:51:48Z</time>
      </trkpt>
      <trkpt lat="38.4422820" lon="-0.6432400">
        <ele>322.0</ele>
        <time>2018-10-14T07:51:49Z</time>
      </trkpt>
      <trkpt lat="38.4422820" lon="-0.6432400">
        <ele>322.0</ele>
        <time>2018-10-14T07:51:50Z</time>
      </trkpt>
      <trkpt lat="38.4422820" lon="-0.6432400">
        <ele>322.0</ele>
        <time>2018-10-14T07:51:51Z</time>
      </trkpt>
      <trkpt lat="38.4422820" lon="-0.6432400">
        <ele>322.0</ele>
        <time>2018-10-14T07:51:52Z</time>
      </trkpt>
      <trkpt lat="38.4422820" lon="-0.6432400">
        <ele>322.0</ele>
        <time>2018-10-14T07:51:53Z</time>
      </trkpt>
      <trkpt lat="38.4422820" lon="-0.6432400">
        <ele>322.0</ele>
        <time>2018-10-14T07:51:54Z</time>
      </trkpt>
      <trkpt lat="38.4422820" lon="-0.6432400">
        <ele>322.0</ele>
        <time>2018-10-14T07:51:55Z</time>
      </trkpt>
      <trkpt lat="38.4422820" lon="-0.6432400">
        <ele>322.0</ele>
        <time>2018-10-14T07:51:56Z</time>
      </trkpt>
      <trkpt lat="38.4422820" lon="-0.6432400">
        <ele>322.0</ele>
        <time>2018-10-14T07:51:57Z</time>
      </trkpt>
      <trkpt lat="38.4422820" lon="-0.6432400">
        <ele>322.0</ele>
        <time>2018-10-14T07:51:58Z</time>
      </trkpt>
      <trkpt lat="38.4422820" lon="-0.6432400">
        <ele>322.0</ele>
        <time>2018-10-14T07:51:59Z</time>
      </trkpt>
      <trkpt lat="38.4422820" lon="-0.6432400">
        <ele>322.0</ele>
        <time>2018-10-14T07:52:00Z</time>
      </trkpt>
      <trkpt lat="38.4422980" lon="-0.6432300">
        <ele>322.0</ele>
        <time>2018-10-14T07:52:01Z</time>
      </trkpt>
      <trkpt lat="38.4422980" lon="-0.6432300">
        <ele>322.0</ele>
        <time>2018-10-14T07:52:02Z</time>
      </trkpt>
      <trkpt lat="38.4423170" lon="-0.6431800">
        <ele>322.0</ele>
        <time>2018-10-14T07:52:03Z</time>
      </trkpt>
      <trkpt lat="38.4423380" lon="-0.6431570">
        <ele>322.0</ele>
        <time>2018-10-14T07:52:04Z</time>
      </trkpt>
      <trkpt lat="38.4423380" lon="-0.6431570">
        <ele>322.0</ele>
        <time>2018-10-14T07:52:05Z</time>
      </trkpt>
      <trkpt lat="38.4423820" lon="-0.6431220">
        <ele>322.0</ele>
        <time>2018-10-14T07:52:06Z</time>
      </trkpt>
      <trkpt lat="38.4423820" lon="-0.6431220">
        <ele>322.0</ele>
        <time>2018-10-14T07:52:07Z</time>
      </trkpt>
      <trkpt lat="38.4424250" lon="-0.6430820">
        <ele>322.0</ele>
        <time>2018-10-14T07:52:08Z</time>
      </trkpt>
      <trkpt lat="38.4424250" lon="-0.6430820">
        <ele>322.0</ele>
        <time>2018-10-14T07:52:09Z</time>
      </trkpt>
      <trkpt lat="38.4424650" lon="-0.6430320">
        <ele>322.0</ele>
        <time>2018-10-14T07:52:10Z</time>
      </trkpt>
      <trkpt lat="38.4424650" lon="-0.6430320">
        <ele>323.0</ele>
        <time>2018-10-14T07:52:11Z</time>
      </trkpt>
      <trkpt lat="38.4425020" lon="-0.6429750">
        <ele>323.0</ele>
        <time>2018-10-14T07:52:12Z</time>
      </trkpt>
      <trkpt lat="38.4425020" lon="-0.6429750">
        <ele>323.0</ele>
        <time>2018-10-14T07:52:13Z</time>
      </trkpt>
      <trkpt lat="38.4425330" lon="-0.6429150">
        <ele>323.0</ele>
        <time>2018-10-14T07:52:14Z</time>
      </trkpt>
      <trkpt lat="38.4425470" lon="-0.6428820">
        <ele>323.0</ele>
        <time>2018-10-14T07:52:15Z</time>
      </trkpt>
      <trkpt lat="38.4425470" lon="-0.6428820">
        <ele>323.0</ele>
        <time>2018-10-14T07:52:16Z</time>
      </trkpt>
      <trkpt lat="38.4425700" lon="-0.6428070">
        <ele>323.0</ele>
        <time>2018-10-14T07:52:17Z</time>
      </trkpt>
      <trkpt lat="38.4425700" lon="-0.6428070">
        <ele>323.0</ele>
        <time>2018-10-14T07:52:18Z</time>
      </trkpt>
      <trkpt lat="38.4425930" lon="-0.6427180">
        <ele>323.0</ele>
        <time>2018-10-14T07:52:19Z</time>
      </trkpt>
      <trkpt lat="38.4426030" lon="-0.6426730">
        <ele>323.0</ele>
        <time>2018-10-14T07:52:20Z</time>
      </trkpt>
      <trkpt lat="38.4426130" lon="-0.6426270">
        <ele>323.0</ele>
        <time>2018-10-14T07:52:21Z</time>
      </trkpt>
      <trkpt lat="38.4426130" lon="-0.6426270">
        <ele>323.0</ele>
        <time>2018-10-14T07:52:22Z</time>
      </trkpt>
      <trkpt lat="38.4426320" lon="-0.6425330">
        <ele>323.0</ele>
        <time>2018-10-14T07:52:23Z</time>
      </trkpt>
      <trkpt lat="38.4426420" lon="-0.6424830">
        <ele>324.0</ele>
        <time>2018-10-14T07:52:24Z</time>
      </trkpt>
      <trkpt lat="38.4426500" lon="-0.6424320">
        <ele>324.0</ele>
        <time>2018-10-14T07:52:25Z</time>
      </trkpt>
      <trkpt lat="38.4426500" lon="-0.6424320">
        <ele>324.0</ele>
        <time>2018-10-14T07:52:26Z</time>
      </trkpt>
      <trkpt lat="38.4426630" lon="-0.6423330">
        <ele>324.0</ele>
        <time>2018-10-14T07:52:27Z</time>
      </trkpt>
      <trkpt lat="38.4426630" lon="-0.6423330">
        <ele>324.0</ele>
        <time>2018-10-14T07:52:28Z</time>
      </trkpt>
      <trkpt lat="38.4426750" lon="-0.6422350">
        <ele>324.0</ele>
        <time>2018-10-14T07:52:29Z</time>
      </trkpt>
      <trkpt lat="38.4426750" lon="-0.6422350">
        <ele>324.0</ele>
        <time>2018-10-14T07:52:30Z</time>
      </trkpt>
      <trkpt lat="38.4426880" lon="-0.6421350">
        <ele>324.0</ele>
        <time>2018-10-14T07:52:31Z</time>
      </trkpt>
      <trkpt lat="38.4426930" lon="-0.6420850">
        <ele>325.0</ele>
        <time>2018-10-14T07:52:32Z</time>
      </trkpt>
      <trkpt lat="38.4426930" lon="-0.6420850">
        <ele>325.0</ele>
        <time>2018-10-14T07:52:33Z</time>
      </trkpt>
      <trkpt lat="38.4427030" lon="-0.6419930">
        <ele>325.0</ele>
        <time>2018-10-14T07:52:34Z</time>
      </trkpt>
      <trkpt lat="38.4427030" lon="-0.6419930">
        <ele>325.0</ele>
        <time>2018-10-14T07:52:35Z</time>
      </trkpt>
      <trkpt lat="38.4427200" lon="-0.6419120">
        <ele>326.0</ele>
        <time>2018-10-14T07:52:36Z</time>
      </trkpt>
      <trkpt lat="38.4427280" lon="-0.6418730">
        <ele>326.0</ele>
        <time>2018-10-14T07:52:37Z</time>
      </trkpt>
      <trkpt lat="38.4427350" lon="-0.6418330">
        <ele>326.0</ele>
        <time>2018-10-14T07:52:38Z</time>
      </trkpt>
      <trkpt lat="38.4427350" lon="-0.6418330">
        <ele>326.0</ele>
        <time>2018-10-14T07:52:39Z</time>
      </trkpt>
      <trkpt lat="38.4427520" lon="-0.6417480">
        <ele>326.0</ele>
        <time>2018-10-14T07:52:40Z</time>
      </trkpt>
      <trkpt lat="38.4427520" lon="-0.6417480">
        <ele>327.0</ele>
        <time>2018-10-14T07:52:41Z</time>
      </trkpt>
      <trkpt lat="38.4427670" lon="-0.6416600">
        <ele>327.0</ele>
        <time>2018-10-14T07:52:42Z</time>
      </trkpt>
      <trkpt lat="38.4427730" lon="-0.6416150">
        <ele>327.0</ele>
        <time>2018-10-14T07:52:43Z</time>
      </trkpt>
      <trkpt lat="38.4427780" lon="-0.6415720">
        <ele>327.0</ele>
        <time>2018-10-14T07:52:44Z</time>
      </trkpt>
      <trkpt lat="38.4427780" lon="-0.6415720">
        <ele>328.0</ele>
        <time>2018-10-14T07:52:45Z</time>
      </trkpt>
      <trkpt lat="38.4427870" lon="-0.6414830">
        <ele>328.0</ele>
        <time>2018-10-14T07:52:46Z</time>
      </trkpt>
      <trkpt lat="38.4427900" lon="-0.6414420">
        <ele>329.0</ele>
        <time>2018-10-14T07:52:47Z</time>
      </trkpt>
      <trkpt lat="38.4427900" lon="-0.6414420">
        <ele>329.0</ele>
        <time>2018-10-14T07:52:48Z</time>
      </trkpt>
      <trkpt lat="38.4427970" lon="-0.6413650">
        <ele>330.0</ele>
        <time>2018-10-14T07:52:49Z</time>
      </trkpt>
      <trkpt lat="38.4428030" lon="-0.6413280">
        <ele>330.0</ele>
        <time>2018-10-14T07:52:50Z</time>
      </trkpt>
      <trkpt lat="38.4428030" lon="-0.6413280">
        <ele>330.0</ele>
        <time>2018-10-14T07:52:51Z</time>
      </trkpt>
      <trkpt lat="38.4428170" lon="-0.6412450">
        <ele>330.0</ele>
        <time>2018-10-14T07:52:52Z</time>
      </trkpt>
      <trkpt lat="38.4428170" lon="-0.6412450">
        <ele>331.0</ele>
        <time>2018-10-14T07:52:53Z</time>
      </trkpt>
      <trkpt lat="38.4428270" lon="-0.6411780">
        <ele>331.0</ele>
        <time>2018-10-14T07:52:54Z</time>
      </trkpt>
      <trkpt lat="38.4428270" lon="-0.6411780">
        <ele>332.0</ele>
        <time>2018-10-14T07:52:55Z</time>
      </trkpt>
      <trkpt lat="38.4428400" lon="-0.6411180">
        <ele>332.0</ele>
        <time>2018-10-14T07:52:56Z</time>
      </trkpt>
      <trkpt lat="38.4428400" lon="-0.6411180">
        <ele>332.0</ele>
        <time>2018-10-14T07:52:57Z</time>
      </trkpt>
      <trkpt lat="38.4428530" lon="-0.6410480">
        <ele>332.0</ele>
        <time>2018-10-14T07:52:58Z</time>
      </trkpt>
      <trkpt lat="38.4428530" lon="-0.6410480">
        <ele>334.0</ele>
        <time>2018-10-14T07:52:59Z</time>
      </trkpt>
      <trkpt lat="38.4428750" lon="-0.6409780">
        <ele>334.0</ele>
        <time>2018-10-14T07:53:00Z</time>
      </trkpt>
      <trkpt lat="38.4428870" lon="-0.6409450">
        <ele>334.0</ele>
        <time>2018-10-14T07:53:01Z</time>
      </trkpt>
      <trkpt lat="38.4428950" lon="-0.6409080">
        <ele>334.0</ele>
        <time>2018-10-14T07:53:02Z</time>
      </trkpt>
      <trkpt lat="38.4428950" lon="-0.6409080">
        <ele>334.0</ele>
        <time>2018-10-14T07:53:03Z</time>
      </trkpt>
      <trkpt lat="38.4429070" lon="-0.6408320">
        <ele>334.0</ele>
        <time>2018-10-14T07:53:04Z</time>
      </trkpt>
      <trkpt lat="38.4429070" lon="-0.6408320">
        <ele>335.0</ele>
        <time>2018-10-14T07:53:05Z</time>
      </trkpt>
      <trkpt lat="38.4429250" lon="-0.6407530">
        <ele>335.0</ele>
        <time>2018-10-14T07:53:06Z</time>
      </trkpt>
      <trkpt lat="38.4429320" lon="-0.6407170">
        <ele>336.0</ele>
        <time>2018-10-14T07:53:07Z</time>
      </trkpt>
      <trkpt lat="38.4429350" lon="-0.6406820">
        <ele>336.0</ele>
        <time>2018-10-14T07:53:08Z</time>
      </trkpt>
      <trkpt lat="38.4429350" lon="-0.6406820">
        <ele>336.0</ele>
        <time>2018-10-14T07:53:09Z</time>
      </trkpt>
      <trkpt lat="38.4429430" lon="-0.6406120">
        <ele>336.0</ele>
        <time>2018-10-14T07:53:10Z</time>
      </trkpt>
      <trkpt lat="38.4429470" lon="-0.6405800">
        <ele>338.0</ele>
        <time>2018-10-14T07:53:11Z</time>
      </trkpt>
      <trkpt lat="38.4429500" lon="-0.6405470">
        <ele>338.0</ele>
        <time>2018-10-14T07:53:12Z</time>
      </trkpt>
      <trkpt lat="38.4429500" lon="-0.6405470">
        <ele>338.0</ele>
        <time>2018-10-14T07:53:13Z</time>
      </trkpt>
      <trkpt lat="38.4429620" lon="-0.6404770">
        <ele>338.0</ele>
        <time>2018-10-14T07:53:14Z</time>
      </trkpt>
      <trkpt lat="38.4429620" lon="-0.6404770">
        <ele>339.0</ele>
        <time>2018-10-14T07:53:15Z</time>
      </trkpt>
      <trkpt lat="38.4429700" lon="-0.6404130">
        <ele>339.0</ele>
        <time>2018-10-14T07:53:16Z</time>
      </trkpt>
      <trkpt lat="38.4429700" lon="-0.6404130">
        <ele>339.0</ele>
        <time>2018-10-14T07:53:17Z</time>
      </trkpt>
      <trkpt lat="38.4429750" lon="-0.6403480">
        <ele>339.0</ele>
        <time>2018-10-14T07:53:18Z</time>
      </trkpt>
      <trkpt lat="38.4429750" lon="-0.6403480">
        <ele>340.0</ele>
        <time>2018-10-14T07:53:19Z</time>
      </trkpt>
      <trkpt lat="38.4429820" lon="-0.6402870">
        <ele>340.0</ele>
        <time>2018-10-14T07:53:20Z</time>
      </trkpt>
      <trkpt lat="38.4429820" lon="-0.6402870">
        <ele>340.0</ele>
        <time>2018-10-14T07:53:21Z</time>
      </trkpt>
      <trkpt lat="38.4429930" lon="-0.6402280">
        <ele>340.0</ele>
        <time>2018-10-14T07:53:22Z</time>
      </trkpt>
      <trkpt lat="38.4430020" lon="-0.6401980">
        <ele>341.0</ele>
        <time>2018-10-14T07:53:23Z</time>
      </trkpt>
      <trkpt lat="38.4430070" lon="-0.6401670">
        <ele>341.0</ele>
        <time>2018-10-14T07:53:24Z</time>
      </trkpt>
      <trkpt lat="38.4430070" lon="-0.6401670">
        <ele>342.0</ele>
        <time>2018-10-14T07:53:25Z</time>
      </trkpt>
      <trkpt lat="38.4430130" lon="-0.6400970">
        <ele>342.0</ele>
        <time>2018-10-14T07:53:26Z</time>
      </trkpt>
      <trkpt lat="38.4430130" lon="-0.6400970">
        <ele>342.0</ele>
        <time>2018-10-14T07:53:27Z</time>
      </trkpt>
      <trkpt lat="38.4430250" lon="-0.6400220">
        <ele>342.0</ele>
        <time>2018-10-14T07:53:28Z</time>
      </trkpt>
      <trkpt lat="38.4430320" lon="-0.6399830">
        <ele>342.0</ele>
        <time>2018-10-14T07:53:29Z</time>
      </trkpt>
      <trkpt lat="38.4430380" lon="-0.6399450">
        <ele>342.0</ele>
        <time>2018-10-14T07:53:30Z</time>
      </trkpt>
      <trkpt lat="38.4430380" lon="-0.6399450">
        <ele>342.0</ele>
        <time>2018-10-14T07:53:31Z</time>
      </trkpt>
      <trkpt lat="38.4430550" lon="-0.6398600">
        <ele>342.0</ele>
        <time>2018-10-14T07:53:32Z</time>
      </trkpt>
      <trkpt lat="38.4430550" lon="-0.6398600">
        <ele>342.0</ele>
        <time>2018-10-14T07:53:33Z</time>
      </trkpt>
      <trkpt lat="38.4430720" lon="-0.6397620">
        <ele>342.0</ele>
        <time>2018-10-14T07:53:34Z</time>
      </trkpt>
      <trkpt lat="38.4430720" lon="-0.6397620">
        <ele>341.0</ele>
        <time>2018-10-14T07:53:35Z</time>
      </trkpt>
      <trkpt lat="38.4430870" lon="-0.6396530">
        <ele>341.0</ele>
        <time>2018-10-14T07:53:36Z</time>
      </trkpt>
      <trkpt lat="38.4430870" lon="-0.6396530">
        <ele>341.0</ele>
        <time>2018-10-14T07:53:37Z</time>
      </trkpt>
      <trkpt lat="38.4431080" lon="-0.6395400">
        <ele>340.0</ele>
        <time>2018-10-14T07:53:38Z</time>
      </trkpt>
      <trkpt lat="38.4431080" lon="-0.6395400">
        <ele>340.0</ele>
        <time>2018-10-14T07:53:39Z</time>
      </trkpt>
      <trkpt lat="38.4431250" lon="-0.6394230">
        <ele>340.0</ele>
        <time>2018-10-14T07:53:40Z</time>
      </trkpt>
      <trkpt lat="38.4431370" lon="-0.6393630">
        <ele>340.0</ele>
        <time>2018-10-14T07:53:41Z</time>
      </trkpt>
      <trkpt lat="38.4431480" lon="-0.6393000">
        <ele>339.0</ele>
        <time>2018-10-14T07:53:42Z</time>
      </trkpt>
      <trkpt lat="38.4431480" lon="-0.6393000">
        <ele>339.0</ele>
        <time>2018-10-14T07:53:43Z</time>
      </trkpt>
      <trkpt lat="38.4431750" lon="-0.6391580">
        <ele>339.0</ele>
        <time>2018-10-14T07:53:44Z</time>
      </trkpt>
      <trkpt lat="38.4431750" lon="-0.6391580">
        <ele>339.0</ele>
        <time>2018-10-14T07:53:45Z</time>
      </trkpt>
      <trkpt lat="38.4432070" lon="-0.6389930">
        <ele>339.0</ele>
        <time>2018-10-14T07:53:46Z</time>
      </trkpt>
      <trkpt lat="38.4432070" lon="-0.6389930">
        <ele>337.0</ele>
        <time>2018-10-14T07:53:47Z</time>
      </trkpt>
      <trkpt lat="38.4432380" lon="-0.6388100">
        <ele>337.0</ele>
        <time>2018-10-14T07:53:48Z</time>
      </trkpt>
      <trkpt lat="38.4432380" lon="-0.6388100">
        <ele>336.0</ele>
        <time>2018-10-14T07:53:49Z</time>
      </trkpt>
      <trkpt lat="38.4432700" lon="-0.6386200">
        <ele>336.0</ele>
        <time>2018-10-14T07:53:50Z</time>
      </trkpt>
      <trkpt lat="38.4432700" lon="-0.6386200">
        <ele>334.0</ele>
        <time>2018-10-14T07:53:51Z</time>
      </trkpt>
      <trkpt lat="38.4432980" lon="-0.6384520">
        <ele>334.0</ele>
        <time>2018-10-14T07:53:52Z</time>
      </trkpt>
      <trkpt lat="38.4433080" lon="-0.6383880">
        <ele>332.0</ele>
        <time>2018-10-14T07:53:53Z</time>
      </trkpt>
      <trkpt lat="38.4433120" lon="-0.6383400">
        <ele>332.0</ele>
        <time>2018-10-14T07:53:54Z</time>
      </trkpt>
      <trkpt lat="38.4433120" lon="-0.6383400">
        <ele>331.0</ele>
        <time>2018-10-14T07:53:55Z</time>
      </trkpt>
      <trkpt lat="38.4433120" lon="-0.6382650">
        <ele>331.0</ele>
        <time>2018-10-14T07:53:56Z</time>
      </trkpt>
      <trkpt lat="38.4433120" lon="-0.6382650">
        <ele>330.0</ele>
        <time>2018-10-14T07:53:57Z</time>
      </trkpt>
      <trkpt lat="38.4432980" lon="-0.6382120">
        <ele>330.0</ele>
        <time>2018-10-14T07:53:58Z</time>
      </trkpt>
      <trkpt lat="38.4432980" lon="-0.6382120">
        <ele>329.0</ele>
        <time>2018-10-14T07:53:59Z</time>
      </trkpt>
      <trkpt lat="38.4432820" lon="-0.6381830">
        <ele>329.0</ele>
        <time>2018-10-14T07:54:00Z</time>
      </trkpt>
      <trkpt lat="38.4432750" lon="-0.6381700">
        <ele>329.0</ele>
        <time>2018-10-14T07:54:01Z</time>
      </trkpt>
      <trkpt lat="38.4432670" lon="-0.6381520">
        <ele>329.0</ele>
        <time>2018-10-14T07:54:02Z</time>
      </trkpt>
      <trkpt lat="38.4432670" lon="-0.6381520">
        <ele>328.0</ele>
        <time>2018-10-14T07:54:03Z</time>
      </trkpt>
      <trkpt lat="38.4432500" lon="-0.6380930">
        <ele>328.0</ele>
        <time>2018-10-14T07:54:04Z</time>
      </trkpt>
      <trkpt lat="38.4432420" lon="-0.6380550">
        <ele>328.0</ele>
        <time>2018-10-14T07:54:05Z</time>
      </trkpt>
      <trkpt lat="38.4432330" lon="-0.6380120">
        <ele>328.0</ele>
        <time>2018-10-14T07:54:06Z</time>
      </trkpt>
      <trkpt lat="38.4432330" lon="-0.6380120">
        <ele>328.0</ele>
        <time>2018-10-14T07:54:07Z</time>
      </trkpt>
      <trkpt lat="38.4432170" lon="-0.6379180">
        <ele>328.0</ele>
        <time>2018-10-14T07:54:08Z</time>
      </trkpt>
      <trkpt lat="38.4432170" lon="-0.6379180">
        <ele>328.0</ele>
        <time>2018-10-14T07:54:09Z</time>
      </trkpt>
      <trkpt lat="38.4431880" lon="-0.6378200">
        <ele>328.0</ele>
        <time>2018-10-14T07:54:10Z</time>
      </trkpt>
      <trkpt lat="38.4431880" lon="-0.6378200">
        <ele>328.0</ele>
        <time>2018-10-14T07:54:11Z</time>
      </trkpt>
      <trkpt lat="38.4431450" lon="-0.6377330">
        <ele>328.0</ele>
        <time>2018-10-14T07:54:12Z</time>
      </trkpt>
      <trkpt lat="38.4431450" lon="-0.6377330">
        <ele>328.0</ele>
        <time>2018-10-14T07:54:13Z</time>
      </trkpt>
      <trkpt lat="38.4430980" lon="-0.6376600">
        <ele>328.0</ele>
        <time>2018-10-14T07:54:14Z</time>
      </trkpt>
      <trkpt lat="38.4430720" lon="-0.6376300">
        <ele>328.0</ele>
        <time>2018-10-14T07:54:15Z</time>
      </trkpt>
      <trkpt lat="38.4430720" lon="-0.6376300">
        <ele>328.0</ele>
        <time>2018-10-14T07:54:16Z</time>
      </trkpt>
      <trkpt lat="38.4430100" lon="-0.6375720">
        <ele>328.0</ele>
        <time>2018-10-14T07:54:17Z</time>
      </trkpt>
      <trkpt lat="38.4429770" lon="-0.6375380">
        <ele>327.0</ele>
        <time>2018-10-14T07:54:18Z</time>
      </trkpt>
      <trkpt lat="38.4429770" lon="-0.6375380">
        <ele>327.0</ele>
        <time>2018-10-14T07:54:19Z</time>
      </trkpt>
      <trkpt lat="38.4429050" lon="-0.6374570">
        <ele>327.0</ele>
        <time>2018-10-14T07:54:20Z</time>
      </trkpt>
      <trkpt lat="38.4429050" lon="-0.6374570">
        <ele>327.0</ele>
        <time>2018-10-14T07:54:21Z</time>
      </trkpt>
      <trkpt lat="38.4428230" lon="-0.6373650">
        <ele>327.0</ele>
        <time>2018-10-14T07:54:22Z</time>
      </trkpt>
      <trkpt lat="38.4428230" lon="-0.6373650">
        <ele>327.0</ele>
        <time>2018-10-14T07:54:23Z</time>
      </trkpt>
      <trkpt lat="38.4427450" lon="-0.6372630">
        <ele>327.0</ele>
        <time>2018-10-14T07:54:24Z</time>
      </trkpt>
      <trkpt lat="38.4427450" lon="-0.6372630">
        <ele>327.0</ele>
        <time>2018-10-14T07:54:25Z</time>
      </trkpt>
      <trkpt lat="38.4426730" lon="-0.6371670">
        <ele>326.0</ele>
        <time>2018-10-14T07:54:26Z</time>
      </trkpt>
      <trkpt lat="38.4426730" lon="-0.6371670">
        <ele>326.0</ele>
        <time>2018-10-14T07:54:27Z</time>
      </trkpt>
      <trkpt lat="38.4426030" lon="-0.6370930">
        <ele>325.0</ele>
        <time>2018-10-14T07:54:28Z</time>
      </trkpt>
      <trkpt lat="38.4426030" lon="-0.6370930">
        <ele>325.0</ele>
        <time>2018-10-14T07:54:29Z</time>
      </trkpt>
      <trkpt lat="38.4425370" lon="-0.6370250">
        <ele>325.0</ele>
        <time>2018-10-14T07:54:30Z</time>
      </trkpt>
      <trkpt lat="38.4425370" lon="-0.6370250">
        <ele>325.0</ele>
        <time>2018-10-14T07:54:31Z</time>
      </trkpt>
      <trkpt lat="38.4424750" lon="-0.6369570">
        <ele>324.0</ele>
        <time>2018-10-14T07:54:32Z</time>
      </trkpt>
      <trkpt lat="38.4424750" lon="-0.6369570">
        <ele>324.0</ele>
        <time>2018-10-14T07:54:33Z</time>
      </trkpt>
      <trkpt lat="38.4424080" lon="-0.6368900">
        <ele>324.0</ele>
        <time>2018-10-14T07:54:34Z</time>
      </trkpt>
      <trkpt lat="38.4423770" lon="-0.6368630">
        <ele>324.0</ele>
        <time>2018-10-14T07:54:35Z</time>
      </trkpt>
      <trkpt lat="38.4423770" lon="-0.6368630">
        <ele>323.0</ele>
        <time>2018-10-14T07:54:36Z</time>
      </trkpt>
      <trkpt lat="38.4423030" lon="-0.6368030">
        <ele>323.0</ele>
        <time>2018-10-14T07:54:37Z</time>
      </trkpt>
      <trkpt lat="38.4422600" lon="-0.6367680">
        <ele>323.0</ele>
        <time>2018-10-14T07:54:38Z</time>
      </trkpt>
      <trkpt lat="38.4422600" lon="-0.6367680">
        <ele>322.0</ele>
        <time>2018-10-14T07:54:39Z</time>
      </trkpt>
      <trkpt lat="38.4421480" lon="-0.6367100">
        <ele>322.0</ele>
        <time>2018-10-14T07:54:40Z</time>
      </trkpt>
      <trkpt lat="38.4421480" lon="-0.6367100">
        <ele>322.0</ele>
        <time>2018-10-14T07:54:41Z</time>
      </trkpt>
      <trkpt lat="38.4420000" lon="-0.6366920">
        <ele>321.0</ele>
        <time>2018-10-14T07:54:42Z</time>
      </trkpt>
      <trkpt lat="38.4420000" lon="-0.6366920">
        <ele>321.0</ele>
        <time>2018-10-14T07:54:43Z</time>
      </trkpt>
      <trkpt lat="38.4418300" lon="-0.6367120">
        <ele>319.0</ele>
        <time>2018-10-14T07:54:44Z</time>
      </trkpt>
      <trkpt lat="38.4418300" lon="-0.6367120">
        <ele>319.0</ele>
        <time>2018-10-14T07:54:45Z</time>
      </trkpt>
      <trkpt lat="38.4416430" lon="-0.6367570">
        <ele>318.0</ele>
        <time>2018-10-14T07:54:46Z</time>
      </trkpt>
      <trkpt lat="38.4415470" lon="-0.6367800">
        <ele>318.0</ele>
        <time>2018-10-14T07:54:47Z</time>
      </trkpt>
      <trkpt lat="38.4415470" lon="-0.6367800">
        <ele>317.0</ele>
        <time>2018-10-14T07:54:48Z</time>
      </trkpt>
      <trkpt lat="38.4413500" lon="-0.6368200">
        <ele>317.0</ele>
        <time>2018-10-14T07:54:49Z</time>
      </trkpt>
      <trkpt lat="38.4412530" lon="-0.6368370">
        <ele>316.0</ele>
        <time>2018-10-14T07:54:50Z</time>
      </trkpt>
      <trkpt lat="38.4412530" lon="-0.6368370">
        <ele>316.0</ele>
        <time>2018-10-14T07:54:51Z</time>
      </trkpt>
      <trkpt lat="38.4410700" lon="-0.6368530">
        <ele>315.0</ele>
        <time>2018-10-14T07:54:52Z</time>
      </trkpt>
      <trkpt lat="38.4409780" lon="-0.6368550">
        <ele>315.0</ele>
        <time>2018-10-14T07:54:53Z</time>
      </trkpt>
      <trkpt lat="38.4409780" lon="-0.6368550">
        <ele>314.0</ele>
        <time>2018-10-14T07:54:54Z</time>
      </trkpt>
      <trkpt lat="38.4407980" lon="-0.6368530">
        <ele>314.0</ele>
        <time>2018-10-14T07:54:55Z</time>
      </trkpt>
      <trkpt lat="38.4407150" lon="-0.6368470">
        <ele>314.0</ele>
        <time>2018-10-14T07:54:56Z</time>
      </trkpt>
      <trkpt lat="38.4407150" lon="-0.6368470">
        <ele>314.0</ele>
        <time>2018-10-14T07:54:57Z</time>
      </trkpt>
      <trkpt lat="38.4405550" lon="-0.6368220">
        <ele>313.0</ele>
        <time>2018-10-14T07:54:58Z</time>
      </trkpt>
      <trkpt lat="38.4404780" lon="-0.6368100">
        <ele>313.0</ele>
        <time>2018-10-14T07:54:59Z</time>
      </trkpt>
      <trkpt lat="38.4404780" lon="-0.6368100">
        <ele>313.0</ele>
        <time>2018-10-14T07:55:00Z</time>
      </trkpt>
      <trkpt lat="38.4403280" lon="-0.6367880">
        <ele>313.0</ele>
        <time>2018-10-14T07:55:01Z</time>
      </trkpt>
      <trkpt lat="38.4402580" lon="-0.6367780">
        <ele>313.0</ele>
        <time>2018-10-14T07:55:02Z</time>
      </trkpt>
      <trkpt lat="38.4402580" lon="-0.6367780">
        <ele>313.0</ele>
        <time>2018-10-14T07:55:03Z</time>
      </trkpt>
      <trkpt lat="38.4401300" lon="-0.6367480">
        <ele>313.0</ele>
        <time>2018-10-14T07:55:04Z</time>
      </trkpt>
      <trkpt lat="38.4400720" lon="-0.6367320">
        <ele>313.0</ele>
        <time>2018-10-14T07:55:05Z</time>
      </trkpt>
      <trkpt lat="38.4400170" lon="-0.6367150">
        <ele>313.0</ele>
        <time>2018-10-14T07:55:06Z</time>
      </trkpt>
      <trkpt lat="38.4400170" lon="-0.6367150">
        <ele>313.0</ele>
        <time>2018-10-14T07:55:07Z</time>
      </trkpt>
      <trkpt lat="38.4399100" lon="-0.6366920">
        <ele>313.0</ele>
        <time>2018-10-14T07:55:08Z</time>
      </trkpt>
      <trkpt lat="38.4399100" lon="-0.6366920">
        <ele>313.0</ele>
        <time>2018-10-14T07:55:09Z</time>
      </trkpt>
      <trkpt lat="38.4398080" lon="-0.6366700">
        <ele>313.0</ele>
        <time>2018-10-14T07:55:10Z</time>
      </trkpt>
      <trkpt lat="38.4398080" lon="-0.6366700">
        <ele>313.0</ele>
        <time>2018-10-14T07:55:11Z</time>
      </trkpt>
      <trkpt lat="38.4397100" lon="-0.6366480">
        <ele>313.0</ele>
        <time>2018-10-14T07:55:12Z</time>
      </trkpt>
      <trkpt lat="38.4397100" lon="-0.6366480">
        <ele>313.0</ele>
        <time>2018-10-14T07:55:13Z</time>
      </trkpt>
      <trkpt lat="38.4396230" lon="-0.6366300">
        <ele>313.0</ele>
        <time>2018-10-14T07:55:14Z</time>
      </trkpt>
      <trkpt lat="38.4396230" lon="-0.6366300">
        <ele>313.0</ele>
        <time>2018-10-14T07:55:15Z</time>
      </trkpt>
      <trkpt lat="38.4395580" lon="-0.6366170">
        <ele>313.0</ele>
        <time>2018-10-14T07:55:16Z</time>
      </trkpt>
      <trkpt lat="38.4395580" lon="-0.6366170">
        <ele>313.0</ele>
        <time>2018-10-14T07:55:17Z</time>
      </trkpt>
      <trkpt lat="38.4395070" lon="-0.6366020">
        <ele>313.0</ele>
        <time>2018-10-14T07:55:18Z</time>
      </trkpt>
      <trkpt lat="38.4395070" lon="-0.6366020">
        <ele>313.0</ele>
        <time>2018-10-14T07:55:19Z</time>
      </trkpt>
      <trkpt lat="38.4394720" lon="-0.6365970">
        <ele>313.0</ele>
        <time>2018-10-14T07:55:20Z</time>
      </trkpt>
      <trkpt lat="38.4394720" lon="-0.6365970">
        <ele>313.0</ele>
        <time>2018-10-14T07:55:21Z</time>
      </trkpt>
      <trkpt lat="38.4394230" lon="-0.6366630">
        <ele>299.0</ele>
        <time>2018-10-14T09:12:36Z</time>
      </trkpt>
      <trkpt lat="38.4394200" lon="-0.6366600">
        <ele>299.0</ele>
        <time>2018-10-14T09:12:37Z</time>
      </trkpt>
      <trkpt lat="38.4394200" lon="-0.6366600">
        <ele>299.0</ele>
        <time>2018-10-14T09:12:38Z</time>
      </trkpt>
      <trkpt lat="38.4394220" lon="-0.6366470">
        <ele>299.0</ele>
        <time>2018-10-14T09:12:39Z</time>
      </trkpt>
      <trkpt lat="38.4394220" lon="-0.6366470">
        <ele>299.0</ele>
        <time>2018-10-14T09:12:40Z</time>
      </trkpt>
      <trkpt lat="38.4394220" lon="-0.6366470">
        <ele>299.0</ele>
        <time>2018-10-14T09:12:41Z</time>
      </trkpt>
      <trkpt lat="38.4394220" lon="-0.6366470">
        <ele>299.0</ele>
        <time>2018-10-14T09:12:42Z</time>
      </trkpt>
      <trkpt lat="38.4394220" lon="-0.6366470">
        <ele>299.0</ele>
        <time>2018-10-14T09:12:43Z</time>
      </trkpt>
      <trkpt lat="38.4394220" lon="-0.6366470">
        <ele>299.0</ele>
        <time>2018-10-14T09:12:44Z</time>
      </trkpt>
      <trkpt lat="38.4394220" lon="-0.6366470">
        <ele>299.0</ele>
        <time>2018-10-14T09:12:45Z</time>
      </trkpt>
      <trkpt lat="38.4394220" lon="-0.6366470">
        <ele>299.0</ele>
        <time>2018-10-14T09:12:46Z</time>
      </trkpt>
      <trkpt lat="38.4394220" lon="-0.6366470">
        <ele>299.0</ele>
        <time>2018-10-14T09:12:47Z</time>
      </trkpt>
      <trkpt lat="38.4394220" lon="-0.6366470">
        <ele>299.0</ele>
        <time>2018-10-14T09:12:48Z</time>
      </trkpt>
      <trkpt lat="38.4394220" lon="-0.6366470">
        <ele>299.0</ele>
        <time>2018-10-14T09:12:49Z</time>
      </trkpt>
      <trkpt lat="38.4394220" lon="-0.6366470">
        <ele>299.0</ele>
        <time>2018-10-14T09:12:50Z</time>
      </trkpt>
      <trkpt lat="38.4394220" lon="-0.6366470">
        <ele>299.0</ele>
        <time>2018-10-14T09:12:51Z</time>
      </trkpt>
      <trkpt lat="38.4394220" lon="-0.6366470">
        <ele>299.0</ele>
        <time>2018-10-14T09:12:52Z</time>
      </trkpt>
      <trkpt lat="38.4394220" lon="-0.6366470">
        <ele>299.0</ele>
        <time>2018-10-14T09:12:53Z</time>
      </trkpt>
      <trkpt lat="38.4394220" lon="-0.6366470">
        <ele>299.0</ele>
        <time>2018-10-14T09:12:54Z</time>
      </trkpt>
      <trkpt lat="38.4394220" lon="-0.6366470">
        <ele>299.0</ele>
        <time>2018-10-14T09:12:55Z</time>
      </trkpt>
      <trkpt lat="38.4394550" lon="-0.6366770">
        <ele>299.0</ele>
        <time>2018-10-14T09:12:56Z</time>
      </trkpt>
      <trkpt lat="38.4394550" lon="-0.6366770">
        <ele>299.0</ele>
        <time>2018-10-14T09:12:57Z</time>
      </trkpt>
      <trkpt lat="38.4394670" lon="-0.6366780">
        <ele>299.0</ele>
        <time>2018-10-14T09:12:58Z</time>
      </trkpt>
      <trkpt lat="38.4394670" lon="-0.6366780">
        <ele>299.0</ele>
        <time>2018-10-14T09:12:59Z</time>
      </trkpt>
      <trkpt lat="38.4394680" lon="-0.6366730">
        <ele>299.0</ele>
        <time>2018-10-14T09:13:00Z</time>
      </trkpt>
      <trkpt lat="38.4394680" lon="-0.6366730">
        <ele>299.0</ele>
        <time>2018-10-14T09:13:01Z</time>
      </trkpt>
      <trkpt lat="38.4394680" lon="-0.6366730">
        <ele>299.0</ele>
        <time>2018-10-14T09:13:02Z</time>
      </trkpt>
      <trkpt lat="38.4394680" lon="-0.6366730">
        <ele>299.0</ele>
        <time>2018-10-14T09:13:03Z</time>
      </trkpt>
      <trkpt lat="38.4394680" lon="-0.6366730">
        <ele>299.0</ele>
        <time>2018-10-14T09:13:04Z</time>
      </trkpt>
      <trkpt lat="38.4394680" lon="-0.6366730">
        <ele>299.0</ele>
        <time>2018-10-14T09:13:05Z</time>
      </trkpt>
      <trkpt lat="38.4394820" lon="-0.6366650">
        <ele>299.0</ele>
        <time>2018-10-14T09:13:06Z</time>
      </trkpt>
      <trkpt lat="38.4394850" lon="-0.6366620">
        <ele>299.0</ele>
        <time>2018-10-14T09:13:07Z</time>
      </trkpt>
      <trkpt lat="38.4394870" lon="-0.6366570">
        <ele>299.0</ele>
        <time>2018-10-14T09:13:08Z</time>
      </trkpt>
      <trkpt lat="38.4394870" lon="-0.6366570">
        <ele>299.0</ele>
        <time>2018-10-14T09:13:09Z</time>
      </trkpt>
      <trkpt lat="38.4394850" lon="-0.6366500">
        <ele>299.0</ele>
        <time>2018-10-14T09:13:10Z</time>
      </trkpt>
      <trkpt lat="38.4394850" lon="-0.6366500">
        <ele>299.0</ele>
        <time>2018-10-14T09:13:11Z</time>
      </trkpt>
      <trkpt lat="38.4394850" lon="-0.6366500">
        <ele>299.0</ele>
        <time>2018-10-14T09:13:12Z</time>
      </trkpt>
      <trkpt lat="38.4394850" lon="-0.6366500">
        <ele>299.0</ele>
        <time>2018-10-14T09:13:13Z</time>
      </trkpt>
      <trkpt lat="38.4394850" lon="-0.6366500">
        <ele>299.0</ele>
        <time>2018-10-14T09:13:14Z</time>
      </trkpt>
      <trkpt lat="38.4394850" lon="-0.6366500">
        <ele>299.0</ele>
        <time>2018-10-14T09:13:15Z</time>
      </trkpt>
      <trkpt lat="38.4394850" lon="-0.6366500">
        <ele>299.0</ele>
        <time>2018-10-14T09:13:16Z</time>
      </trkpt>
      <trkpt lat="38.4394850" lon="-0.6366500">
        <ele>299.0</ele>
        <time>2018-10-14T09:13:17Z</time>
      </trkpt>
      <trkpt lat="38.4394850" lon="-0.6366500">
        <ele>299.0</ele>
        <time>2018-10-14T09:13:18Z</time>
      </trkpt>
      <trkpt lat="38.4394850" lon="-0.6366500">
        <ele>299.0</ele>
        <time>2018-10-14T09:13:19Z</time>
      </trkpt>
      <trkpt lat="38.4394850" lon="-0.6366500">
        <ele>299.0</ele>
        <time>2018-10-14T09:13:20Z</time>
      </trkpt>
      <trkpt lat="38.4394850" lon="-0.6366500">
        <ele>299.0</ele>
        <time>2018-10-14T09:13:21Z</time>
      </trkpt>
      <trkpt lat="38.4394850" lon="-0.6366500">
        <ele>299.0</ele>
        <time>2018-10-14T09:13:22Z</time>
      </trkpt>
      <trkpt lat="38.4394850" lon="-0.6366500">
        <ele>299.0</ele>
        <time>2018-10-14T09:13:23Z</time>
      </trkpt>
      <trkpt lat="38.4394850" lon="-0.6366500">
        <ele>299.0</ele>
        <time>2018-10-14T09:13:24Z</time>
      </trkpt>
      <trkpt lat="38.4394850" lon="-0.6366500">
        <ele>299.0</ele>
        <time>2018-10-14T09:13:25Z</time>
      </trkpt>
      <trkpt lat="38.4394850" lon="-0.6366500">
        <ele>299.0</ele>
        <time>2018-10-14T09:13:26Z</time>
      </trkpt>
      <trkpt lat="38.4394850" lon="-0.6366500">
        <ele>299.0</ele>
        <time>2018-10-14T09:13:27Z</time>
      </trkpt>
      <trkpt lat="38.4394850" lon="-0.6366500">
        <ele>299.0</ele>
        <time>2018-10-14T09:13:28Z</time>
      </trkpt>
      <trkpt lat="38.4394850" lon="-0.6366500">
        <ele>299.0</ele>
        <time>2018-10-14T09:13:29Z</time>
      </trkpt>
      <trkpt lat="38.4394850" lon="-0.6366500">
        <ele>299.0</ele>
        <time>2018-10-14T09:13:30Z</time>
      </trkpt>
      <trkpt lat="38.4394850" lon="-0.6366500">
        <ele>299.0</ele>
        <time>2018-10-14T09:13:31Z</time>
      </trkpt>
      <trkpt lat="38.4394850" lon="-0.6366500">
        <ele>299.0</ele>
        <time>2018-10-14T09:13:32Z</time>
      </trkpt>
      <trkpt lat="38.4394850" lon="-0.6366500">
        <ele>299.0</ele>
        <time>2018-10-14T09:13:33Z</time>
      </trkpt>
      <trkpt lat="38.4394850" lon="-0.6366500">
        <ele>299.0</ele>
        <time>2018-10-14T09:13:34Z</time>
      </trkpt>
      <trkpt lat="38.4394850" lon="-0.6366500">
        <ele>299.0</ele>
        <time>2018-10-14T09:13:35Z</time>
      </trkpt>
      <trkpt lat="38.4394850" lon="-0.6366500">
        <ele>299.0</ele>
        <time>2018-10-14T09:13:36Z</time>
      </trkpt>
      <trkpt lat="38.4394850" lon="-0.6366500">
        <ele>299.0</ele>
        <time>2018-10-14T09:13:37Z</time>
      </trkpt>
      <trkpt lat="38.4394850" lon="-0.6366500">
        <ele>299.0</ele>
        <time>2018-10-14T09:13:38Z</time>
      </trkpt>
      <trkpt lat="38.4394850" lon="-0.6366500">
        <ele>299.0</ele>
        <time>2018-10-14T09:13:39Z</time>
      </trkpt>
      <trkpt lat="38.4394850" lon="-0.6366500">
        <ele>299.0</ele>
        <time>2018-10-14T09:13:40Z</time>
      </trkpt>
      <trkpt lat="38.4394850" lon="-0.6366500">
        <ele>299.0</ele>
        <time>2018-10-14T09:13:41Z</time>
      </trkpt>
      <trkpt lat="38.4394850" lon="-0.6366500">
        <ele>299.0</ele>
        <time>2018-10-14T09:13:42Z</time>
      </trkpt>
      <trkpt lat="38.4394850" lon="-0.6366500">
        <ele>299.0</ele>
        <time>2018-10-14T09:13:43Z</time>
      </trkpt>
      <trkpt lat="38.4394850" lon="-0.6366500">
        <ele>299.0</ele>
        <time>2018-10-14T09:13:44Z</time>
      </trkpt>
      <trkpt lat="38.4394850" lon="-0.6366500">
        <ele>299.0</ele>
        <time>2018-10-14T09:13:45Z</time>
      </trkpt>
      <trkpt lat="38.4394850" lon="-0.6366500">
        <ele>299.0</ele>
        <time>2018-10-14T09:13:46Z</time>
      </trkpt>
      <trkpt lat="38.4394850" lon="-0.6366500">
        <ele>299.0</ele>
        <time>2018-10-14T09:13:47Z</time>
      </trkpt>
      <trkpt lat="38.4394850" lon="-0.6366500">
        <ele>299.0</ele>
        <time>2018-10-14T09:13:48Z</time>
      </trkpt>
      <trkpt lat="38.4394850" lon="-0.6366500">
        <ele>299.0</ele>
        <time>2018-10-14T09:13:49Z</time>
      </trkpt>
      <trkpt lat="38.4394850" lon="-0.6366500">
        <ele>299.0</ele>
        <time>2018-10-14T09:13:50Z</time>
      </trkpt>
      <trkpt lat="38.4394850" lon="-0.6366500">
        <ele>299.0</ele>
        <time>2018-10-14T09:13:51Z</time>
      </trkpt>
      <trkpt lat="38.4394850" lon="-0.6366500">
        <ele>299.0</ele>
        <time>2018-10-14T09:13:52Z</time>
      </trkpt>
      <trkpt lat="38.4394850" lon="-0.6366500">
        <ele>299.0</ele>
        <time>2018-10-14T09:13:53Z</time>
      </trkpt>
      <trkpt lat="38.4394850" lon="-0.6366500">
        <ele>299.0</ele>
        <time>2018-10-14T09:13:54Z</time>
      </trkpt>
      <trkpt lat="38.4394850" lon="-0.6366500">
        <ele>299.0</ele>
        <time>2018-10-14T09:13:55Z</time>
      </trkpt>
      <trkpt lat="38.4394850" lon="-0.6366500">
        <ele>299.0</ele>
        <time>2018-10-14T09:13:56Z</time>
      </trkpt>
      <trkpt lat="38.4394850" lon="-0.6366500">
        <ele>299.0</ele>
        <time>2018-10-14T09:13:57Z</time>
      </trkpt>
      <trkpt lat="38.4394850" lon="-0.6366500">
        <ele>299.0</ele>
        <time>2018-10-14T09:13:58Z</time>
      </trkpt>
      <trkpt lat="38.4394850" lon="-0.6366500">
        <ele>299.0</ele>
        <time>2018-10-14T09:13:59Z</time>
      </trkpt>
      <trkpt lat="38.4394850" lon="-0.6366500">
        <ele>299.0</ele>
        <time>2018-10-14T09:14:00Z</time>
      </trkpt>
      <trkpt lat="38.4394850" lon="-0.6366500">
        <ele>299.0</ele>
        <time>2018-10-14T09:14:01Z</time>
      </trkpt>
      <trkpt lat="38.4394850" lon="-0.6366500">
        <ele>299.0</ele>
        <time>2018-10-14T09:14:02Z</time>
      </trkpt>
      <trkpt lat="38.4394850" lon="-0.6366500">
        <ele>299.0</ele>
        <time>2018-10-14T09:14:03Z</time>
      </trkpt>
      <trkpt lat="38.4394850" lon="-0.6366500">
        <ele>299.0</ele>
        <time>2018-10-14T09:14:04Z</time>
      </trkpt>
      <trkpt lat="38.4394850" lon="-0.6366500">
        <ele>299.0</ele>
        <time>2018-10-14T09:14:05Z</time>
      </trkpt>
      <trkpt lat="38.4394850" lon="-0.6366500">
        <ele>299.0</ele>
        <time>2018-10-14T09:14:06Z</time>
      </trkpt>
      <trkpt lat="38.4394900" lon="-0.6366400">
        <ele>299.0</ele>
        <time>2018-10-14T09:14:07Z</time>
      </trkpt>
      <trkpt lat="38.4394870" lon="-0.6366320">
        <ele>299.0</ele>
        <time>2018-10-14T09:14:08Z</time>
      </trkpt>
      <trkpt lat="38.4394870" lon="-0.6366320">
        <ele>299.0</ele>
        <time>2018-10-14T09:14:09Z</time>
      </trkpt>
      <trkpt lat="38.4394770" lon="-0.6366200">
        <ele>299.0</ele>
        <time>2018-10-14T09:14:10Z</time>
      </trkpt>
      <trkpt lat="38.4394770" lon="-0.6366200">
        <ele>299.0</ele>
        <time>2018-10-14T09:14:11Z</time>
      </trkpt>
      <trkpt lat="38.4394550" lon="-0.6365980">
        <ele>299.0</ele>
        <time>2018-10-14T09:14:12Z</time>
      </trkpt>
      <trkpt lat="38.4394550" lon="-0.6365980">
        <ele>299.0</ele>
        <time>2018-10-14T09:14:13Z</time>
      </trkpt>
      <trkpt lat="38.4394230" lon="-0.6365820">
        <ele>299.0</ele>
        <time>2018-10-14T09:14:14Z</time>
      </trkpt>
      <trkpt lat="38.4394050" lon="-0.6365730">
        <ele>299.0</ele>
        <time>2018-10-14T09:14:15Z</time>
      </trkpt>
      <trkpt lat="38.4394050" lon="-0.6365730">
        <ele>299.0</ele>
        <time>2018-10-14T09:14:16Z</time>
      </trkpt>
      <trkpt lat="38.4393620" lon="-0.6365500">
        <ele>299.0</ele>
        <time>2018-10-14T09:14:17Z</time>
      </trkpt>
      <trkpt lat="38.4393620" lon="-0.6365500">
        <ele>299.0</ele>
        <time>2018-10-14T09:14:18Z</time>
      </trkpt>
      <trkpt lat="38.4393280" lon="-0.6365300">
        <ele>299.0</ele>
        <time>2018-10-14T09:14:19Z</time>
      </trkpt>
      <trkpt lat="38.4393280" lon="-0.6365300">
        <ele>299.0</ele>
        <time>2018-10-14T09:14:20Z</time>
      </trkpt>
      <trkpt lat="38.4393000" lon="-0.6365180">
        <ele>299.0</ele>
        <time>2018-10-14T09:14:21Z</time>
      </trkpt>
      <trkpt lat="38.4393000" lon="-0.6365180">
        <ele>299.0</ele>
        <time>2018-10-14T09:14:22Z</time>
      </trkpt>
      <trkpt lat="38.4392730" lon="-0.6365100">
        <ele>299.0</ele>
        <time>2018-10-14T09:14:23Z</time>
      </trkpt>
      <trkpt lat="38.4392730" lon="-0.6365100">
        <ele>299.0</ele>
        <time>2018-10-14T09:14:24Z</time>
      </trkpt>
      <trkpt lat="38.4392380" lon="-0.6364980">
        <ele>299.0</ele>
        <time>2018-10-14T09:14:25Z</time>
      </trkpt>
      <trkpt lat="38.4392380" lon="-0.6364980">
        <ele>299.0</ele>
        <time>2018-10-14T09:14:26Z</time>
      </trkpt>
      <trkpt lat="38.4391970" lon="-0.6364850">
        <ele>299.0</ele>
        <time>2018-10-14T09:14:27Z</time>
      </trkpt>
      <trkpt lat="38.4391780" lon="-0.6364780">
        <ele>299.0</ele>
        <time>2018-10-14T09:14:28Z</time>
      </trkpt>
      <trkpt lat="38.4391780" lon="-0.6364780">
        <ele>299.0</ele>
        <time>2018-10-14T09:14:29Z</time>
      </trkpt>
      <trkpt lat="38.4391370" lon="-0.6364680">
        <ele>299.0</ele>
        <time>2018-10-14T09:14:30Z</time>
      </trkpt>
      <trkpt lat="38.4391220" lon="-0.6364550">
        <ele>299.0</ele>
        <time>2018-10-14T09:14:31Z</time>
      </trkpt>
      <trkpt lat="38.4391220" lon="-0.6364550">
        <ele>299.0</ele>
        <time>2018-10-14T09:14:32Z</time>
      </trkpt>
      <trkpt lat="38.4390750" lon="-0.6364420">
        <ele>299.0</ele>
        <time>2018-10-14T09:14:33Z</time>
      </trkpt>
      <trkpt lat="38.4390750" lon="-0.6364420">
        <ele>299.0</ele>
        <time>2018-10-14T09:14:34Z</time>
      </trkpt>
      <trkpt lat="38.4389970" lon="-0.6364280">
        <ele>299.0</ele>
        <time>2018-10-14T09:14:35Z</time>
      </trkpt>
      <trkpt lat="38.4389970" lon="-0.6364280">
        <ele>299.0</ele>
        <time>2018-10-14T09:14:36Z</time>
      </trkpt>
      <trkpt lat="38.4389080" lon="-0.6363970">
        <ele>299.0</ele>
        <time>2018-10-14T09:14:37Z</time>
      </trkpt>
      <trkpt lat="38.4388580" lon="-0.6363680">
        <ele>299.0</ele>
        <time>2018-10-14T09:14:38Z</time>
      </trkpt>
      <trkpt lat="38.4388580" lon="-0.6363680">
        <ele>297.0</ele>
        <time>2018-10-14T09:14:39Z</time>
      </trkpt>
      <trkpt lat="38.4387530" lon="-0.6363080">
        <ele>297.0</ele>
        <time>2018-10-14T09:14:40Z</time>
      </trkpt>
      <trkpt lat="38.4387530" lon="-0.6363080">
        <ele>297.0</ele>
        <time>2018-10-14T09:14:41Z</time>
      </trkpt>
      <trkpt lat="38.4386220" lon="-0.6362450">
        <ele>297.0</ele>
        <time>2018-10-14T09:14:42Z</time>
      </trkpt>
      <trkpt lat="38.4385500" lon="-0.6362120">
        <ele>296.0</ele>
        <time>2018-10-14T09:14:43Z</time>
      </trkpt>
      <trkpt lat="38.4385500" lon="-0.6362120">
        <ele>296.0</ele>
        <time>2018-10-14T09:14:44Z</time>
      </trkpt>
      <trkpt lat="38.4384000" lon="-0.6361280">
        <ele>295.0</ele>
        <time>2018-10-14T09:14:45Z</time>
      </trkpt>
      <trkpt lat="38.4384000" lon="-0.6361280">
        <ele>295.0</ele>
        <time>2018-10-14T09:14:46Z</time>
      </trkpt>
      <trkpt lat="38.4382580" lon="-0.6360280">
        <ele>294.0</ele>
        <time>2018-10-14T09:14:47Z</time>
      </trkpt>
      <trkpt lat="38.4382580" lon="-0.6360280">
        <ele>294.0</ele>
        <time>2018-10-14T09:14:48Z</time>
      </trkpt>
      <trkpt lat="38.4381150" lon="-0.6359430">
        <ele>294.0</ele>
        <time>2018-10-14T09:14:49Z</time>
      </trkpt>
      <trkpt lat="38.4381150" lon="-0.6359430">
        <ele>294.0</ele>
        <time>2018-10-14T09:14:50Z</time>
      </trkpt>
      <trkpt lat="38.4379680" lon="-0.6358670">
        <ele>293.0</ele>
        <time>2018-10-14T09:14:51Z</time>
      </trkpt>
      <trkpt lat="38.4379680" lon="-0.6358670">
        <ele>293.0</ele>
        <time>2018-10-14T09:14:52Z</time>
      </trkpt>
      <trkpt lat="38.4378230" lon="-0.6357970">
        <ele>293.0</ele>
        <time>2018-10-14T09:14:53Z</time>
      </trkpt>
      <trkpt lat="38.4378230" lon="-0.6357970">
        <ele>293.0</ele>
        <time>2018-10-14T09:14:54Z</time>
      </trkpt>
      <trkpt lat="38.4376880" lon="-0.6357270">
        <ele>293.0</ele>
        <time>2018-10-14T09:14:55Z</time>
      </trkpt>
      <trkpt lat="38.4376880" lon="-0.6357270">
        <ele>293.0</ele>
        <time>2018-10-14T09:14:56Z</time>
      </trkpt>
      <trkpt lat="38.4375530" lon="-0.6356520">
        <ele>292.0</ele>
        <time>2018-10-14T09:14:57Z</time>
      </trkpt>
      <trkpt lat="38.4375530" lon="-0.6356520">
        <ele>292.0</ele>
        <time>2018-10-14T09:14:58Z</time>
      </trkpt>
      <trkpt lat="38.4374220" lon="-0.6355820">
        <ele>292.0</ele>
        <time>2018-10-14T09:14:59Z</time>
      </trkpt>
      <trkpt lat="38.4374220" lon="-0.6355820">
        <ele>292.0</ele>
        <time>2018-10-14T09:15:00Z</time>
      </trkpt>
      <trkpt lat="38.4372950" lon="-0.6355030">
        <ele>291.0</ele>
        <time>2018-10-14T09:15:01Z</time>
      </trkpt>
      <trkpt lat="38.4372950" lon="-0.6355030">
        <ele>291.0</ele>
        <time>2018-10-14T09:15:02Z</time>
      </trkpt>
      <trkpt lat="38.4371700" lon="-0.6354230">
        <ele>291.0</ele>
        <time>2018-10-14T09:15:03Z</time>
      </trkpt>
      <trkpt lat="38.4371700" lon="-0.6354230">
        <ele>291.0</ele>
        <time>2018-10-14T09:15:04Z</time>
      </trkpt>
      <trkpt lat="38.4370350" lon="-0.6353620">
        <ele>290.0</ele>
        <time>2018-10-14T09:15:05Z</time>
      </trkpt>
      <trkpt lat="38.4369700" lon="-0.6353320">
        <ele>290.0</ele>
        <time>2018-10-14T09:15:06Z</time>
      </trkpt>
      <trkpt lat="38.4369700" lon="-0.6353320">
        <ele>289.0</ele>
        <time>2018-10-14T09:15:07Z</time>
      </trkpt>
      <trkpt lat="38.4368350" lon="-0.6352800">
        <ele>289.0</ele>
        <time>2018-10-14T09:15:08Z</time>
      </trkpt>
      <trkpt lat="38.4368350" lon="-0.6352800">
        <ele>288.0</ele>
        <time>2018-10-14T09:15:09Z</time>
      </trkpt>
      <trkpt lat="38.4367100" lon="-0.6352170">
        <ele>288.0</ele>
        <time>2018-10-14T09:15:10Z</time>
      </trkpt>
      <trkpt lat="38.4367100" lon="-0.6352170">
        <ele>288.0</ele>
        <time>2018-10-14T09:15:11Z</time>
      </trkpt>
      <trkpt lat="38.4365770" lon="-0.6351600">
        <ele>288.0</ele>
        <time>2018-10-14T09:15:12Z</time>
      </trkpt>
      <trkpt lat="38.4365080" lon="-0.6351430">
        <ele>288.0</ele>
        <time>2018-10-14T09:15:13Z</time>
      </trkpt>
      <trkpt lat="38.4365080" lon="-0.6351430">
        <ele>288.0</ele>
        <time>2018-10-14T09:15:14Z</time>
      </trkpt>
      <trkpt lat="38.4363800" lon="-0.6351220">
        <ele>288.0</ele>
        <time>2018-10-14T09:15:15Z</time>
      </trkpt>
      <trkpt lat="38.4363800" lon="-0.6351220">
        <ele>288.0</ele>
        <time>2018-10-14T09:15:16Z</time>
      </trkpt>
      <trkpt lat="38.4362530" lon="-0.6351000">
        <ele>288.0</ele>
        <time>2018-10-14T09:15:17Z</time>
      </trkpt>
      <trkpt lat="38.4361920" lon="-0.6350900">
        <ele>288.0</ele>
        <time>2018-10-14T09:15:18Z</time>
      </trkpt>
      <trkpt lat="38.4361270" lon="-0.6350830">
        <ele>288.0</ele>
        <time>2018-10-14T09:15:19Z</time>
      </trkpt>
      <trkpt lat="38.4361270" lon="-0.6350830">
        <ele>288.0</ele>
        <time>2018-10-14T09:15:20Z</time>
      </trkpt>
      <trkpt lat="38.4360050" lon="-0.6350680">
        <ele>288.0</ele>
        <time>2018-10-14T09:15:21Z</time>
      </trkpt>
      <trkpt lat="38.4360050" lon="-0.6350680">
        <ele>288.0</ele>
        <time>2018-10-14T09:15:22Z</time>
      </trkpt>
      <trkpt lat="38.4358950" lon="-0.6350550">
        <ele>288.0</ele>
        <time>2018-10-14T09:15:23Z</time>
      </trkpt>
      <trkpt lat="38.4358950" lon="-0.6350550">
        <ele>288.0</ele>
        <time>2018-10-14T09:15:24Z</time>
      </trkpt>
      <trkpt lat="38.4357980" lon="-0.6350500">
        <ele>288.0</ele>
        <time>2018-10-14T09:15:25Z</time>
      </trkpt>
      <trkpt lat="38.4357980" lon="-0.6350500">
        <ele>288.0</ele>
        <time>2018-10-14T09:15:26Z</time>
      </trkpt>
      <trkpt lat="38.4356970" lon="-0.6350500">
        <ele>287.0</ele>
        <time>2018-10-14T09:15:27Z</time>
      </trkpt>
      <trkpt lat="38.4356970" lon="-0.6350500">
        <ele>287.0</ele>
        <time>2018-10-14T09:15:28Z</time>
      </trkpt>
      <trkpt lat="38.4356000" lon="-0.6350450">
        <ele>287.0</ele>
        <time>2018-10-14T09:15:29Z</time>
      </trkpt>
      <trkpt lat="38.4356000" lon="-0.6350450">
        <ele>287.0</ele>
        <time>2018-10-14T09:15:30Z</time>
      </trkpt>
      <trkpt lat="38.4355150" lon="-0.6350770">
        <ele>287.0</ele>
        <time>2018-10-14T09:15:31Z</time>
      </trkpt>
      <trkpt lat="38.4355150" lon="-0.6350770">
        <ele>287.0</ele>
        <time>2018-10-14T09:15:32Z</time>
      </trkpt>
      <trkpt lat="38.4354800" lon="-0.6351870">
        <ele>287.0</ele>
        <time>2018-10-14T09:15:33Z</time>
      </trkpt>
      <trkpt lat="38.4354800" lon="-0.6351870">
        <ele>287.0</ele>
        <time>2018-10-14T09:15:34Z</time>
      </trkpt>
      <trkpt lat="38.4354820" lon="-0.6353070">
        <ele>287.0</ele>
        <time>2018-10-14T09:15:35Z</time>
      </trkpt>
      <trkpt lat="38.4354820" lon="-0.6353070">
        <ele>287.0</ele>
        <time>2018-10-14T09:15:36Z</time>
      </trkpt>
      <trkpt lat="38.4354920" lon="-0.6354250">
        <ele>287.0</ele>
        <time>2018-10-14T09:15:37Z</time>
      </trkpt>
      <trkpt lat="38.4354920" lon="-0.6354250">
        <ele>287.0</ele>
        <time>2018-10-14T09:15:38Z</time>
      </trkpt>
      <trkpt lat="38.4354970" lon="-0.6355380">
        <ele>286.0</ele>
        <time>2018-10-14T09:15:39Z</time>
      </trkpt>
      <trkpt lat="38.4354970" lon="-0.6355380">
        <ele>286.0</ele>
        <time>2018-10-14T09:15:40Z</time>
      </trkpt>
      <trkpt lat="38.4354980" lon="-0.6356500">
        <ele>286.0</ele>
        <time>2018-10-14T09:15:41Z</time>
      </trkpt>
      <trkpt lat="38.4354920" lon="-0.6357080">
        <ele>286.0</ele>
        <time>2018-10-14T09:15:42Z</time>
      </trkpt>
      <trkpt lat="38.4354920" lon="-0.6357080">
        <ele>286.0</ele>
        <time>2018-10-14T09:15:43Z</time>
      </trkpt>
      <trkpt lat="38.4354980" lon="-0.6358100">
        <ele>286.0</ele>
        <time>2018-10-14T09:15:44Z</time>
      </trkpt>
      <trkpt lat="38.4355070" lon="-0.6358600">
        <ele>287.0</ele>
        <time>2018-10-14T09:15:45Z</time>
      </trkpt>
      <trkpt lat="38.4355070" lon="-0.6358600">
        <ele>287.0</ele>
        <time>2018-10-14T09:15:46Z</time>
      </trkpt>
      <trkpt lat="38.4355130" lon="-0.6359670">
        <ele>287.0</ele>
        <time>2018-10-14T09:15:47Z</time>
      </trkpt>
      <trkpt lat="38.4355150" lon="-0.6360170">
        <ele>287.0</ele>
        <time>2018-10-14T09:15:48Z</time>
      </trkpt>
      <trkpt lat="38.4355170" lon="-0.6360680">
        <ele>287.0</ele>
        <time>2018-10-14T09:15:49Z</time>
      </trkpt>
      <trkpt lat="38.4355170" lon="-0.6360680">
        <ele>287.0</ele>
        <time>2018-10-14T09:15:50Z</time>
      </trkpt>
      <trkpt lat="38.4355150" lon="-0.6361730">
        <ele>287.0</ele>
        <time>2018-10-14T09:15:51Z</time>
      </trkpt>
      <trkpt lat="38.4355150" lon="-0.6361730">
        <ele>287.0</ele>
        <time>2018-10-14T09:15:52Z</time>
      </trkpt>
      <trkpt lat="38.4355150" lon="-0.6362700">
        <ele>287.0</ele>
        <time>2018-10-14T09:15:53Z</time>
      </trkpt>
      <trkpt lat="38.4355150" lon="-0.6362700">
        <ele>287.0</ele>
        <time>2018-10-14T09:15:54Z</time>
      </trkpt>
      <trkpt lat="38.4354980" lon="-0.6363630">
        <ele>287.0</ele>
        <time>2018-10-14T09:15:55Z</time>
      </trkpt>
      <trkpt lat="38.4354920" lon="-0.6364050">
        <ele>287.0</ele>
        <time>2018-10-14T09:15:56Z</time>
      </trkpt>
      <trkpt lat="38.4354920" lon="-0.6364050">
        <ele>263.0</ele>
        <time>2018-10-14T09:15:57Z</time>
      </trkpt>
      <trkpt lat="38.4354870" lon="-0.6364780">
        <ele>263.0</ele>
        <time>2018-10-14T09:15:58Z</time>
      </trkpt>
      <trkpt lat="38.4354870" lon="-0.6365130">
        <ele>279.0</ele>
        <time>2018-10-14T09:15:59Z</time>
      </trkpt>
      <trkpt lat="38.4354870" lon="-0.6365130">
        <ele>279.0</ele>
        <time>2018-10-14T09:16:00Z</time>
      </trkpt>
      <trkpt lat="38.4355080" lon="-0.6365720">
        <ele>284.0</ele>
        <time>2018-10-14T09:16:01Z</time>
      </trkpt>
      <trkpt lat="38.4355080" lon="-0.6365720">
        <ele>284.0</ele>
        <time>2018-10-14T09:16:02Z</time>
      </trkpt>
      <trkpt lat="38.4355000" lon="-0.6366470">
        <ele>286.0</ele>
        <time>2018-10-14T09:16:03Z</time>
      </trkpt>
      <trkpt lat="38.4355000" lon="-0.6366470">
        <ele>286.0</ele>
        <time>2018-10-14T09:16:04Z</time>
      </trkpt>
      <trkpt lat="38.4355020" lon="-0.6367330">
        <ele>286.0</ele>
        <time>2018-10-14T09:16:05Z</time>
      </trkpt>
      <trkpt lat="38.4355020" lon="-0.6367750">
        <ele>286.0</ele>
        <time>2018-10-14T09:16:06Z</time>
      </trkpt>
      <trkpt lat="38.4355000" lon="-0.6368170">
        <ele>287.0</ele>
        <time>2018-10-14T09:16:07Z</time>
      </trkpt>
      <trkpt lat="38.4355000" lon="-0.6368170">
        <ele>287.0</ele>
        <time>2018-10-14T09:16:08Z</time>
      </trkpt>
      <trkpt lat="38.4354970" lon="-0.6368970">
        <ele>287.0</ele>
        <time>2018-10-14T09:16:09Z</time>
      </trkpt>
      <trkpt lat="38.4354970" lon="-0.6368970">
        <ele>287.0</ele>
        <time>2018-10-14T09:16:10Z</time>
      </trkpt>
      <trkpt lat="38.4355030" lon="-0.6369850">
        <ele>287.0</ele>
        <time>2018-10-14T09:16:11Z</time>
      </trkpt>
      <trkpt lat="38.4355030" lon="-0.6369850">
        <ele>287.0</ele>
        <time>2018-10-14T09:16:12Z</time>
      </trkpt>
      <trkpt lat="38.4355120" lon="-0.6370770">
        <ele>287.0</ele>
        <time>2018-10-14T09:16:13Z</time>
      </trkpt>
      <trkpt lat="38.4355120" lon="-0.6370770">
        <ele>287.0</ele>
        <time>2018-10-14T09:16:14Z</time>
      </trkpt>
      <trkpt lat="38.4355120" lon="-0.6371720">
        <ele>287.0</ele>
        <time>2018-10-14T09:16:15Z</time>
      </trkpt>
      <trkpt lat="38.4355120" lon="-0.6371720">
        <ele>287.0</ele>
        <time>2018-10-14T09:16:16Z</time>
      </trkpt>
      <trkpt lat="38.4355100" lon="-0.6372680">
        <ele>287.0</ele>
        <time>2018-10-14T09:16:17Z</time>
      </trkpt>
      <trkpt lat="38.4355100" lon="-0.6372680">
        <ele>287.0</ele>
        <time>2018-10-14T09:16:18Z</time>
      </trkpt>
      <trkpt lat="38.4355030" lon="-0.6373730">
        <ele>287.0</ele>
        <time>2018-10-14T09:16:19Z</time>
      </trkpt>
      <trkpt lat="38.4355030" lon="-0.6373730">
        <ele>287.0</ele>
        <time>2018-10-14T09:16:20Z</time>
      </trkpt>
      <trkpt lat="38.4355020" lon="-0.6374880">
        <ele>287.0</ele>
        <time>2018-10-14T09:16:21Z</time>
      </trkpt>
      <trkpt lat="38.4355020" lon="-0.6374880">
        <ele>287.0</ele>
        <time>2018-10-14T09:16:22Z</time>
      </trkpt>
      <trkpt lat="38.4355080" lon="-0.6375880">
        <ele>287.0</ele>
        <time>2018-10-14T09:16:23Z</time>
      </trkpt>
      <trkpt lat="38.4355080" lon="-0.6375880">
        <ele>286.0</ele>
        <time>2018-10-14T09:16:24Z</time>
      </trkpt>
      <trkpt lat="38.4355080" lon="-0.6376400">
        <ele>286.0</ele>
        <time>2018-10-14T09:16:25Z</time>
      </trkpt>
      <trkpt lat="38.4355080" lon="-0.6376400">
        <ele>286.0</ele>
        <time>2018-10-14T09:16:26Z</time>
      </trkpt>
      <trkpt lat="38.4355050" lon="-0.6376870">
        <ele>286.0</ele>
        <time>2018-10-14T09:16:27Z</time>
      </trkpt>
      <trkpt lat="38.4355050" lon="-0.6376870">
        <ele>286.0</ele>
        <time>2018-10-14T09:16:28Z</time>
      </trkpt>
      <trkpt lat="38.4354950" lon="-0.6377470">
        <ele>286.0</ele>
        <time>2018-10-14T09:16:29Z</time>
      </trkpt>
      <trkpt lat="38.4354950" lon="-0.6377470">
        <ele>286.0</ele>
        <time>2018-10-14T09:16:30Z</time>
      </trkpt>
      <trkpt lat="38.4354930" lon="-0.6378200">
        <ele>286.0</ele>
        <time>2018-10-14T09:16:31Z</time>
      </trkpt>
      <trkpt lat="38.4354930" lon="-0.6378200">
        <ele>286.0</ele>
        <time>2018-10-14T09:16:32Z</time>
      </trkpt>
      <trkpt lat="38.4354880" lon="-0.6378720">
        <ele>286.0</ele>
        <time>2018-10-14T09:16:33Z</time>
      </trkpt>
      <trkpt lat="38.4354880" lon="-0.6378720">
        <ele>285.0</ele>
        <time>2018-10-14T09:16:34Z</time>
      </trkpt>
      <trkpt lat="38.4354770" lon="-0.6379080">
        <ele>285.0</ele>
        <time>2018-10-14T09:16:35Z</time>
      </trkpt>
      <trkpt lat="38.4354770" lon="-0.6379080">
        <ele>285.0</ele>
        <time>2018-10-14T09:16:36Z</time>
      </trkpt>
      <trkpt lat="38.4354620" lon="-0.6379280">
        <ele>285.0</ele>
        <time>2018-10-14T09:16:37Z</time>
      </trkpt>
      <trkpt lat="38.4354620" lon="-0.6379280">
        <ele>284.0</ele>
        <time>2018-10-14T09:16:38Z</time>
      </trkpt>
      <trkpt lat="38.4354530" lon="-0.6379380">
        <ele>284.0</ele>
        <time>2018-10-14T09:16:39Z</time>
      </trkpt>
      <trkpt lat="38.4354530" lon="-0.6379380">
        <ele>284.0</ele>
        <time>2018-10-14T09:16:40Z</time>
      </trkpt>
      <trkpt lat="38.4354480" lon="-0.6379400">
        <ele>284.0</ele>
        <time>2018-10-14T09:16:41Z</time>
      </trkpt>
      <trkpt lat="38.4354480" lon="-0.6379400">
        <ele>284.0</ele>
        <time>2018-10-14T09:16:43Z</time>
      </trkpt>
      <trkpt lat="38.4353750" lon="-0.6379680">
        <ele>284.0</ele>
        <time>2018-10-14T09:16:44Z</time>
      </trkpt>
      <trkpt lat="38.4353750" lon="-0.6379680">
        <ele>284.0</ele>
        <time>2018-10-14T09:16:45Z</time>
      </trkpt>
      <trkpt lat="38.4353150" lon="-0.6379600">
        <ele>284.0</ele>
        <time>2018-10-14T09:16:46Z</time>
      </trkpt>
      <trkpt lat="38.4352920" lon="-0.6379480">
        <ele>284.0</ele>
        <time>2018-10-14T09:16:47Z</time>
      </trkpt>
      <trkpt lat="38.4352920" lon="-0.6379480">
        <ele>284.0</ele>
        <time>2018-10-14T09:16:48Z</time>
      </trkpt>
      <trkpt lat="38.4352520" lon="-0.6379320">
        <ele>284.0</ele>
        <time>2018-10-14T09:16:49Z</time>
      </trkpt>
      <trkpt lat="38.4352330" lon="-0.6379200">
        <ele>284.0</ele>
        <time>2018-10-14T09:16:50Z</time>
      </trkpt>
      <trkpt lat="38.4352330" lon="-0.6379200">
        <ele>284.0</ele>
        <time>2018-10-14T09:16:51Z</time>
      </trkpt>
      <trkpt lat="38.4351970" lon="-0.6378820">
        <ele>284.0</ele>
        <time>2018-10-14T09:16:52Z</time>
      </trkpt>
      <trkpt lat="38.4351970" lon="-0.6378820">
        <ele>284.0</ele>
        <time>2018-10-14T09:16:53Z</time>
      </trkpt>
      <trkpt lat="38.4351500" lon="-0.6378350">
        <ele>284.0</ele>
        <time>2018-10-14T09:16:54Z</time>
      </trkpt>
      <trkpt lat="38.4351500" lon="-0.6378350">
        <ele>284.0</ele>
        <time>2018-10-14T09:16:55Z</time>
      </trkpt>
      <trkpt lat="38.4350970" lon="-0.6377820">
        <ele>284.0</ele>
        <time>2018-10-14T09:16:56Z</time>
      </trkpt>
      <trkpt lat="38.4350970" lon="-0.6377820">
        <ele>284.0</ele>
        <time>2018-10-14T09:16:57Z</time>
      </trkpt>
      <trkpt lat="38.4350420" lon="-0.6377230">
        <ele>284.0</ele>
        <time>2018-10-14T09:16:58Z</time>
      </trkpt>
      <trkpt lat="38.4350420" lon="-0.6377230">
        <ele>284.0</ele>
        <time>2018-10-14T09:16:59Z</time>
      </trkpt>
      <trkpt lat="38.4349870" lon="-0.6376620">
        <ele>283.0</ele>
        <time>2018-10-14T09:17:00Z</time>
      </trkpt>
      <trkpt lat="38.4349580" lon="-0.6376300">
        <ele>283.0</ele>
        <time>2018-10-14T09:17:01Z</time>
      </trkpt>
      <trkpt lat="38.4349580" lon="-0.6376300">
        <ele>283.0</ele>
        <time>2018-10-14T09:17:02Z</time>
      </trkpt>
      <trkpt lat="38.4349050" lon="-0.6375650">
        <ele>283.0</ele>
        <time>2018-10-14T09:17:03Z</time>
      </trkpt>
      <trkpt lat="38.4348800" lon="-0.6375320">
        <ele>283.0</ele>
        <time>2018-10-14T09:17:04Z</time>
      </trkpt>
      <trkpt lat="38.4348800" lon="-0.6375320">
        <ele>283.0</ele>
        <time>2018-10-14T09:17:05Z</time>
      </trkpt>
      <trkpt lat="38.4348320" lon="-0.6374670">
        <ele>283.0</ele>
        <time>2018-10-14T09:17:06Z</time>
      </trkpt>
      <trkpt lat="38.4348320" lon="-0.6374670">
        <ele>283.0</ele>
        <time>2018-10-14T09:17:07Z</time>
      </trkpt>
      <trkpt lat="38.4347800" lon="-0.6374020">
        <ele>283.0</ele>
        <time>2018-10-14T09:17:08Z</time>
      </trkpt>
      <trkpt lat="38.4347530" lon="-0.6373670">
        <ele>283.0</ele>
        <time>2018-10-14T09:17:09Z</time>
      </trkpt>
      <trkpt lat="38.4347530" lon="-0.6373670">
        <ele>283.0</ele>
        <time>2018-10-14T09:17:10Z</time>
      </trkpt>
      <trkpt lat="38.4346980" lon="-0.6372980">
        <ele>283.0</ele>
        <time>2018-10-14T09:17:11Z</time>
      </trkpt>
      <trkpt lat="38.4346700" lon="-0.6372650">
        <ele>283.0</ele>
        <time>2018-10-14T09:17:12Z</time>
      </trkpt>
      <trkpt lat="38.4346700" lon="-0.6372650">
        <ele>283.0</ele>
        <time>2018-10-14T09:17:13Z</time>
      </trkpt>
      <trkpt lat="38.4346170" lon="-0.6371870">
        <ele>282.0</ele>
        <time>2018-10-14T09:17:14Z</time>
      </trkpt>
      <trkpt lat="38.4346170" lon="-0.6371870">
        <ele>282.0</ele>
        <time>2018-10-14T09:17:15Z</time>
      </trkpt>
      <trkpt lat="38.4345670" lon="-0.6371120">
        <ele>282.0</ele>
        <time>2018-10-14T09:17:16Z</time>
      </trkpt>
      <trkpt lat="38.4345400" lon="-0.6370770">
        <ele>282.0</ele>
        <time>2018-10-14T09:17:17Z</time>
      </trkpt>
      <trkpt lat="38.4345400" lon="-0.6370770">
        <ele>282.0</ele>
        <time>2018-10-14T09:17:18Z</time>
      </trkpt>
      <trkpt lat="38.4344920" lon="-0.6370070">
        <ele>282.0</ele>
        <time>2018-10-14T09:17:19Z</time>
      </trkpt>
      <trkpt lat="38.4344720" lon="-0.6369700">
        <ele>282.0</ele>
        <time>2018-10-14T09:17:20Z</time>
      </trkpt>
      <trkpt lat="38.4344720" lon="-0.6369700">
        <ele>282.0</ele>
        <time>2018-10-14T09:17:21Z</time>
      </trkpt>
      <trkpt lat="38.4344270" lon="-0.6369000">
        <ele>282.0</ele>
        <time>2018-10-14T09:17:22Z</time>
      </trkpt>
      <trkpt lat="38.4344270" lon="-0.6369000">
        <ele>282.0</ele>
        <time>2018-10-14T09:17:23Z</time>
      </trkpt>
      <trkpt lat="38.4343980" lon="-0.6368500">
        <ele>282.0</ele>
        <time>2018-10-14T09:17:24Z</time>
      </trkpt>
      <trkpt lat="38.4343980" lon="-0.6368500">
        <ele>282.0</ele>
        <time>2018-10-14T09:17:25Z</time>
      </trkpt>
      <trkpt lat="38.4343700" lon="-0.6368120">
        <ele>282.0</ele>
        <time>2018-10-14T09:17:26Z</time>
      </trkpt>
      <trkpt lat="38.4343570" lon="-0.6367950">
        <ele>282.0</ele>
        <time>2018-10-14T09:17:27Z</time>
      </trkpt>
      <trkpt lat="38.4343570" lon="-0.6367950">
        <ele>282.0</ele>
        <time>2018-10-14T09:17:28Z</time>
      </trkpt>
      <trkpt lat="38.4343200" lon="-0.6367930">
        <ele>282.0</ele>
        <time>2018-10-14T09:17:29Z</time>
      </trkpt>
      <trkpt lat="38.4343050" lon="-0.6368080">
        <ele>282.0</ele>
        <time>2018-10-14T09:17:30Z</time>
      </trkpt>
      <trkpt lat="38.4343050" lon="-0.6368080">
        <ele>282.0</ele>
        <time>2018-10-14T09:17:31Z</time>
      </trkpt>
      <trkpt lat="38.4342850" lon="-0.6368650">
        <ele>299.0</ele>
        <time>2018-10-14T09:17:32Z</time>
      </trkpt>
      <trkpt lat="38.4342800" lon="-0.6369030">
        <ele>299.0</ele>
        <time>2018-10-14T09:17:33Z</time>
      </trkpt>
      <trkpt lat="38.4342800" lon="-0.6369030">
        <ele>299.0</ele>
        <time>2018-10-14T09:17:34Z</time>
      </trkpt>
      <trkpt lat="38.4342650" lon="-0.6369870">
        <ele>299.0</ele>
        <time>2018-10-14T09:17:35Z</time>
      </trkpt>
      <trkpt lat="38.4342480" lon="-0.6370280">
        <ele>299.0</ele>
        <time>2018-10-14T09:17:36Z</time>
      </trkpt>
      <trkpt lat="38.4342480" lon="-0.6370280">
        <ele>299.0</ele>
        <time>2018-10-14T09:17:37Z</time>
      </trkpt>
      <trkpt lat="38.4342200" lon="-0.6370930">
        <ele>298.0</ele>
        <time>2018-10-14T09:17:38Z</time>
      </trkpt>
      <trkpt lat="38.4342200" lon="-0.6370930">
        <ele>298.0</ele>
        <time>2018-10-14T09:17:39Z</time>
      </trkpt>
      <trkpt lat="38.4342080" lon="-0.6371720">
        <ele>297.0</ele>
        <time>2018-10-14T09:17:40Z</time>
      </trkpt>
      <trkpt lat="38.4342080" lon="-0.6371720">
        <ele>297.0</ele>
        <time>2018-10-14T09:17:41Z</time>
      </trkpt>
      <trkpt lat="38.4341730" lon="-0.6372620">
        <ele>297.0</ele>
        <time>2018-10-14T09:17:42Z</time>
      </trkpt>
      <trkpt lat="38.4341730" lon="-0.6372620">
        <ele>297.0</ele>
        <time>2018-10-14T09:17:43Z</time>
      </trkpt>
      <trkpt lat="38.4341450" lon="-0.6373630">
        <ele>294.0</ele>
        <time>2018-10-14T09:17:44Z</time>
      </trkpt>
      <trkpt lat="38.4341450" lon="-0.6373630">
        <ele>294.0</ele>
        <time>2018-10-14T09:17:45Z</time>
      </trkpt>
      <trkpt lat="38.4341230" lon="-0.6374600">
        <ele>294.0</ele>
        <time>2018-10-14T09:17:46Z</time>
      </trkpt>
      <trkpt lat="38.4341130" lon="-0.6375030">
        <ele>294.0</ele>
        <time>2018-10-14T09:17:47Z</time>
      </trkpt>
      <trkpt lat="38.4341070" lon="-0.6375430">
        <ele>294.0</ele>
        <time>2018-10-14T09:17:48Z</time>
      </trkpt>
      <trkpt lat="38.4341070" lon="-0.6375430">
        <ele>294.0</ele>
        <time>2018-10-14T09:17:49Z</time>
      </trkpt>
      <trkpt lat="38.4340980" lon="-0.6376100">
        <ele>294.0</ele>
        <time>2018-10-14T09:17:50Z</time>
      </trkpt>
      <trkpt lat="38.4340980" lon="-0.6376100">
        <ele>294.0</ele>
        <time>2018-10-14T09:17:51Z</time>
      </trkpt>
      <trkpt lat="38.4340950" lon="-0.6376780">
        <ele>294.0</ele>
        <time>2018-10-14T09:17:52Z</time>
      </trkpt>
      <trkpt lat="38.4340950" lon="-0.6376780">
        <ele>293.0</ele>
        <time>2018-10-14T09:17:53Z</time>
      </trkpt>
      <trkpt lat="38.4340870" lon="-0.6377430">
        <ele>293.0</ele>
        <time>2018-10-14T09:17:54Z</time>
      </trkpt>
      <trkpt lat="38.4340870" lon="-0.6377430">
        <ele>293.0</ele>
        <time>2018-10-14T09:17:55Z</time>
      </trkpt>
      <trkpt lat="38.4340800" lon="-0.6378200">
        <ele>293.0</ele>
        <time>2018-10-14T09:17:56Z</time>
      </trkpt>
      <trkpt lat="38.4340750" lon="-0.6378630">
        <ele>293.0</ele>
        <time>2018-10-14T09:17:57Z</time>
      </trkpt>
      <trkpt lat="38.4340750" lon="-0.6378630">
        <ele>293.0</ele>
        <time>2018-10-14T09:17:58Z</time>
      </trkpt>
      <trkpt lat="38.4340620" lon="-0.6379530">
        <ele>293.0</ele>
        <time>2018-10-14T09:17:59Z</time>
      </trkpt>
      <trkpt lat="38.4340550" lon="-0.6380020">
        <ele>293.0</ele>
        <time>2018-10-14T09:18:00Z</time>
      </trkpt>
      <trkpt lat="38.4340550" lon="-0.6380020">
        <ele>293.0</ele>
        <time>2018-10-14T09:18:01Z</time>
      </trkpt>
      <trkpt lat="38.4340370" lon="-0.6380970">
        <ele>293.0</ele>
        <time>2018-10-14T09:18:02Z</time>
      </trkpt>
      <trkpt lat="38.4340220" lon="-0.6381470">
        <ele>293.0</ele>
        <time>2018-10-14T09:18:03Z</time>
      </trkpt>
      <trkpt lat="38.4340220" lon="-0.6381470">
        <ele>293.0</ele>
        <time>2018-10-14T09:18:04Z</time>
      </trkpt>
      <trkpt lat="38.4339930" lon="-0.6382470">
        <ele>293.0</ele>
        <time>2018-10-14T09:18:05Z</time>
      </trkpt>
      <trkpt lat="38.4339770" lon="-0.6382950">
        <ele>293.0</ele>
        <time>2018-10-14T09:18:06Z</time>
      </trkpt>
      <trkpt lat="38.4339770" lon="-0.6382950">
        <ele>293.0</ele>
        <time>2018-10-14T09:18:07Z</time>
      </trkpt>
      <trkpt lat="38.4339530" lon="-0.6383750">
        <ele>293.0</ele>
        <time>2018-10-14T09:18:08Z</time>
      </trkpt>
      <trkpt lat="38.4339530" lon="-0.6383750">
        <ele>293.0</ele>
        <time>2018-10-14T09:18:09Z</time>
      </trkpt>
      <trkpt lat="38.4339320" lon="-0.6384450">
        <ele>293.0</ele>
        <time>2018-10-14T09:18:10Z</time>
      </trkpt>
      <trkpt lat="38.4339320" lon="-0.6384450">
        <ele>292.0</ele>
        <time>2018-10-14T09:18:11Z</time>
      </trkpt>
      <trkpt lat="38.4339200" lon="-0.6385070">
        <ele>292.0</ele>
        <time>2018-10-14T09:18:12Z</time>
      </trkpt>
      <trkpt lat="38.4339200" lon="-0.6385070">
        <ele>292.0</ele>
        <time>2018-10-14T09:18:13Z</time>
      </trkpt>
      <trkpt lat="38.4339020" lon="-0.6385750">
        <ele>292.0</ele>
        <time>2018-10-14T09:18:14Z</time>
      </trkpt>
      <trkpt lat="38.4339020" lon="-0.6385750">
        <ele>292.0</ele>
        <time>2018-10-14T09:18:15Z</time>
      </trkpt>
      <trkpt lat="38.4338770" lon="-0.6386520">
        <ele>292.0</ele>
        <time>2018-10-14T09:18:16Z</time>
      </trkpt>
      <trkpt lat="38.4338620" lon="-0.6386900">
        <ele>292.0</ele>
        <time>2018-10-14T09:18:17Z</time>
      </trkpt>
      <trkpt lat="38.4338470" lon="-0.6387280">
        <ele>292.0</ele>
        <time>2018-10-14T09:18:18Z</time>
      </trkpt>
      <trkpt lat="38.4338470" lon="-0.6387280">
        <ele>292.0</ele>
        <time>2018-10-14T09:18:19Z</time>
      </trkpt>
      <trkpt lat="38.4338150" lon="-0.6388120">
        <ele>292.0</ele>
        <time>2018-10-14T09:18:20Z</time>
      </trkpt>
      <trkpt lat="38.4338150" lon="-0.6388120">
        <ele>292.0</ele>
        <time>2018-10-14T09:18:21Z</time>
      </trkpt>
      <trkpt lat="38.4337820" lon="-0.6388950">
        <ele>292.0</ele>
        <time>2018-10-14T09:18:22Z</time>
      </trkpt>
      <trkpt lat="38.4337650" lon="-0.6389370">
        <ele>292.0</ele>
        <time>2018-10-14T09:18:23Z</time>
      </trkpt>
      <trkpt lat="38.4337450" lon="-0.6389820">
        <ele>292.0</ele>
        <time>2018-10-14T09:18:24Z</time>
      </trkpt>
      <trkpt lat="38.4337450" lon="-0.6389820">
        <ele>292.0</ele>
        <time>2018-10-14T09:18:25Z</time>
      </trkpt>
      <trkpt lat="38.4337100" lon="-0.6390880">
        <ele>292.0</ele>
        <time>2018-10-14T09:18:26Z</time>
      </trkpt>
      <trkpt lat="38.4336950" lon="-0.6391470">
        <ele>291.0</ele>
        <time>2018-10-14T09:18:27Z</time>
      </trkpt>
      <trkpt lat="38.4336950" lon="-0.6391470">
        <ele>291.0</ele>
        <time>2018-10-14T09:18:28Z</time>
      </trkpt>
      <trkpt lat="38.4336720" lon="-0.6392650">
        <ele>291.0</ele>
        <time>2018-10-14T09:18:29Z</time>
      </trkpt>
      <trkpt lat="38.4336650" lon="-0.6393230">
        <ele>291.0</ele>
        <time>2018-10-14T09:18:30Z</time>
      </trkpt>
      <trkpt lat="38.4336650" lon="-0.6393230">
        <ele>291.0</ele>
        <time>2018-10-14T09:18:31Z</time>
      </trkpt>
      <trkpt lat="38.4336600" lon="-0.6394350">
        <ele>291.0</ele>
        <time>2018-10-14T09:18:32Z</time>
      </trkpt>
      <trkpt lat="38.4336600" lon="-0.6394350">
        <ele>291.0</ele>
        <time>2018-10-14T09:18:33Z</time>
      </trkpt>
      <trkpt lat="38.4336600" lon="-0.6395420">
        <ele>291.0</ele>
        <time>2018-10-14T09:18:34Z</time>
      </trkpt>
      <trkpt lat="38.4336620" lon="-0.6395920">
        <ele>291.0</ele>
        <time>2018-10-14T09:18:35Z</time>
      </trkpt>
      <trkpt lat="38.4336620" lon="-0.6395920">
        <ele>291.0</ele>
        <time>2018-10-14T09:18:36Z</time>
      </trkpt>
      <trkpt lat="38.4336620" lon="-0.6396900">
        <ele>291.0</ele>
        <time>2018-10-14T09:18:37Z</time>
      </trkpt>
      <trkpt lat="38.4336620" lon="-0.6397420">
        <ele>291.0</ele>
        <time>2018-10-14T09:18:38Z</time>
      </trkpt>
      <trkpt lat="38.4336620" lon="-0.6397420">
        <ele>291.0</ele>
        <time>2018-10-14T09:18:39Z</time>
      </trkpt>
      <trkpt lat="38.4336580" lon="-0.6398550">
        <ele>291.0</ele>
        <time>2018-10-14T09:18:40Z</time>
      </trkpt>
      <trkpt lat="38.4336580" lon="-0.6398550">
        <ele>290.0</ele>
        <time>2018-10-14T09:18:41Z</time>
      </trkpt>
      <trkpt lat="38.4336530" lon="-0.6399700">
        <ele>290.0</ele>
        <time>2018-10-14T09:18:42Z</time>
      </trkpt>
      <trkpt lat="38.4336520" lon="-0.6400250">
        <ele>290.0</ele>
        <time>2018-10-14T09:18:43Z</time>
      </trkpt>
      <trkpt lat="38.4336520" lon="-0.6400250">
        <ele>290.0</ele>
        <time>2018-10-14T09:18:44Z</time>
      </trkpt>
      <trkpt lat="38.4336500" lon="-0.6401370">
        <ele>290.0</ele>
        <time>2018-10-14T09:18:45Z</time>
      </trkpt>
      <trkpt lat="38.4336500" lon="-0.6401370">
        <ele>290.0</ele>
        <time>2018-10-14T09:18:46Z</time>
      </trkpt>
      <trkpt lat="38.4336580" lon="-0.6402780">
        <ele>289.0</ele>
        <time>2018-10-14T09:18:47Z</time>
      </trkpt>
      <trkpt lat="38.4336700" lon="-0.6403500">
        <ele>289.0</ele>
        <time>2018-10-14T09:18:48Z</time>
      </trkpt>
      <trkpt lat="38.4336800" lon="-0.6404220">
        <ele>289.0</ele>
        <time>2018-10-14T09:18:49Z</time>
      </trkpt>
      <trkpt lat="38.4336800" lon="-0.6404220">
        <ele>289.0</ele>
        <time>2018-10-14T09:18:50Z</time>
      </trkpt>
      <trkpt lat="38.4336920" lon="-0.6405650">
        <ele>288.0</ele>
        <time>2018-10-14T09:18:51Z</time>
      </trkpt>
      <trkpt lat="38.4336920" lon="-0.6405650">
        <ele>288.0</ele>
        <time>2018-10-14T09:18:52Z</time>
      </trkpt>
      <trkpt lat="38.4336930" lon="-0.6407020">
        <ele>288.0</ele>
        <time>2018-10-14T09:18:53Z</time>
      </trkpt>
      <trkpt lat="38.4336880" lon="-0.6407670">
        <ele>288.0</ele>
        <time>2018-10-14T09:18:54Z</time>
      </trkpt>
      <trkpt lat="38.4336880" lon="-0.6407670">
        <ele>288.0</ele>
        <time>2018-10-14T09:18:55Z</time>
      </trkpt>
      <trkpt lat="38.4336820" lon="-0.6408880">
        <ele>288.0</ele>
        <time>2018-10-14T09:18:56Z</time>
      </trkpt>
      <trkpt lat="38.4336900" lon="-0.6409450">
        <ele>288.0</ele>
        <time>2018-10-14T09:18:57Z</time>
      </trkpt>
      <trkpt lat="38.4336900" lon="-0.6409450">
        <ele>288.0</ele>
        <time>2018-10-14T09:18:58Z</time>
      </trkpt>
      <trkpt lat="38.4337370" lon="-0.6410370">
        <ele>288.0</ele>
        <time>2018-10-14T09:18:59Z</time>
      </trkpt>
      <trkpt lat="38.4337670" lon="-0.6410650">
        <ele>288.0</ele>
        <time>2018-10-14T09:19:00Z</time>
      </trkpt>
      <trkpt lat="38.4337670" lon="-0.6410650">
        <ele>288.0</ele>
        <time>2018-10-14T09:19:01Z</time>
      </trkpt>
      <trkpt lat="38.4338230" lon="-0.6411150">
        <ele>288.0</ele>
        <time>2018-10-14T09:19:02Z</time>
      </trkpt>
      <trkpt lat="38.4338480" lon="-0.6411420">
        <ele>288.0</ele>
        <time>2018-10-14T09:19:03Z</time>
      </trkpt>
      <trkpt lat="38.4338480" lon="-0.6411420">
        <ele>288.0</ele>
        <time>2018-10-14T09:19:04Z</time>
      </trkpt>
      <trkpt lat="38.4338880" lon="-0.6411880">
        <ele>288.0</ele>
        <time>2018-10-14T09:19:05Z</time>
      </trkpt>
      <trkpt lat="38.4339070" lon="-0.6412130">
        <ele>290.0</ele>
        <time>2018-10-14T09:19:06Z</time>
      </trkpt>
      <trkpt lat="38.4339070" lon="-0.6412130">
        <ele>290.0</ele>
        <time>2018-10-14T09:19:07Z</time>
      </trkpt>
      <trkpt lat="38.4339500" lon="-0.6412580">
        <ele>290.0</ele>
        <time>2018-10-14T09:19:08Z</time>
      </trkpt>
      <trkpt lat="38.4339500" lon="-0.6412580">
        <ele>290.0</ele>
        <time>2018-10-14T09:19:09Z</time>
      </trkpt>
      <trkpt lat="38.4339950" lon="-0.6413030">
        <ele>290.0</ele>
        <time>2018-10-14T09:19:10Z</time>
      </trkpt>
      <trkpt lat="38.4339950" lon="-0.6413030">
        <ele>290.0</ele>
        <time>2018-10-14T09:19:11Z</time>
      </trkpt>
      <trkpt lat="38.4340320" lon="-0.6413570">
        <ele>291.0</ele>
        <time>2018-10-14T09:19:12Z</time>
      </trkpt>
      <trkpt lat="38.4340320" lon="-0.6413570">
        <ele>291.0</ele>
        <time>2018-10-14T09:19:13Z</time>
      </trkpt>
      <trkpt lat="38.4340530" lon="-0.6414070">
        <ele>291.0</ele>
        <time>2018-10-14T09:19:14Z</time>
      </trkpt>
      <trkpt lat="38.4340530" lon="-0.6414070">
        <ele>291.0</ele>
        <time>2018-10-14T09:19:15Z</time>
      </trkpt>
      <trkpt lat="38.4340720" lon="-0.6414400">
        <ele>291.0</ele>
        <time>2018-10-14T09:19:16Z</time>
      </trkpt>
      <trkpt lat="38.4340720" lon="-0.6414400">
        <ele>291.0</ele>
        <time>2018-10-14T09:19:17Z</time>
      </trkpt>
      <trkpt lat="38.4340870" lon="-0.6414680">
        <ele>291.0</ele>
        <time>2018-10-14T09:19:18Z</time>
      </trkpt>
      <trkpt lat="38.4340870" lon="-0.6414680">
        <ele>291.0</ele>
        <time>2018-10-14T09:19:19Z</time>
      </trkpt>
      <trkpt lat="38.4341080" lon="-0.6414970">
        <ele>291.0</ele>
        <time>2018-10-14T09:19:20Z</time>
      </trkpt>
      <trkpt lat="38.4341080" lon="-0.6414970">
        <ele>292.0</ele>
        <time>2018-10-14T09:19:21Z</time>
      </trkpt>
      <trkpt lat="38.4341330" lon="-0.6415270">
        <ele>292.0</ele>
        <time>2018-10-14T09:19:22Z</time>
      </trkpt>
      <trkpt lat="38.4341480" lon="-0.6415430">
        <ele>292.0</ele>
        <time>2018-10-14T09:19:23Z</time>
      </trkpt>
      <trkpt lat="38.4341600" lon="-0.6415570">
        <ele>292.0</ele>
        <time>2018-10-14T09:19:24Z</time>
      </trkpt>
      <trkpt lat="38.4341600" lon="-0.6415570">
        <ele>292.0</ele>
        <time>2018-10-14T09:19:25Z</time>
      </trkpt>
      <trkpt lat="38.4341780" lon="-0.6415780">
        <ele>292.0</ele>
        <time>2018-10-14T09:19:26Z</time>
      </trkpt>
      <trkpt lat="38.4341800" lon="-0.6415820">
        <ele>292.0</ele>
        <time>2018-10-14T09:19:27Z</time>
      </trkpt>
      <trkpt lat="38.4341800" lon="-0.6415820">
        <ele>292.0</ele>
        <time>2018-10-14T09:19:28Z</time>
      </trkpt>
      <trkpt lat="38.4341780" lon="-0.6415830">
        <ele>292.0</ele>
        <time>2018-10-14T09:19:29Z</time>
      </trkpt>
      <trkpt lat="38.4341780" lon="-0.6415830">
        <ele>292.0</ele>
        <time>2018-10-14T09:19:30Z</time>
      </trkpt>
      <trkpt lat="38.4342070" lon="-0.6416370">
        <ele>292.0</ele>
        <time>2018-10-14T09:19:58Z</time>
      </trkpt>
      <trkpt lat="38.4342070" lon="-0.6416370">
        <ele>292.0</ele>
        <time>2018-10-14T09:19:59Z</time>
      </trkpt>
      <trkpt lat="38.4342330" lon="-0.6416600">
        <ele>292.0</ele>
        <time>2018-10-14T09:20:00Z</time>
      </trkpt>
      <trkpt lat="38.4342330" lon="-0.6416600">
        <ele>292.0</ele>
        <time>2018-10-14T09:20:01Z</time>
      </trkpt>
      <trkpt lat="38.4342630" lon="-0.6416830">
        <ele>292.0</ele>
        <time>2018-10-14T09:20:02Z</time>
      </trkpt>
      <trkpt lat="38.4342630" lon="-0.6416830">
        <ele>292.0</ele>
        <time>2018-10-14T09:20:03Z</time>
      </trkpt>
      <trkpt lat="38.4342870" lon="-0.6417070">
        <ele>292.0</ele>
        <time>2018-10-14T09:20:04Z</time>
      </trkpt>
      <trkpt lat="38.4342920" lon="-0.6417200">
        <ele>292.0</ele>
        <time>2018-10-14T09:20:05Z</time>
      </trkpt>
      <trkpt lat="38.4342920" lon="-0.6417200">
        <ele>292.0</ele>
        <time>2018-10-14T09:20:06Z</time>
      </trkpt>
      <trkpt lat="38.4343020" lon="-0.6417580">
        <ele>292.0</ele>
        <time>2018-10-14T09:20:07Z</time>
      </trkpt>
      <trkpt lat="38.4343020" lon="-0.6417580">
        <ele>292.0</ele>
        <time>2018-10-14T09:20:08Z</time>
      </trkpt>
      <trkpt lat="38.4342970" lon="-0.6418050">
        <ele>292.0</ele>
        <time>2018-10-14T09:20:09Z</time>
      </trkpt>
      <trkpt lat="38.4342970" lon="-0.6418050">
        <ele>292.0</ele>
        <time>2018-10-14T09:20:10Z</time>
      </trkpt>
      <trkpt lat="38.4342820" lon="-0.6418380">
        <ele>292.0</ele>
        <time>2018-10-14T09:20:11Z</time>
      </trkpt>
      <trkpt lat="38.4342720" lon="-0.6418530">
        <ele>292.0</ele>
        <time>2018-10-14T09:20:12Z</time>
      </trkpt>
      <trkpt lat="38.4342720" lon="-0.6418530">
        <ele>292.0</ele>
        <time>2018-10-14T09:20:13Z</time>
      </trkpt>
      <trkpt lat="38.4342530" lon="-0.6418680">
        <ele>292.0</ele>
        <time>2018-10-14T09:20:14Z</time>
      </trkpt>
      <trkpt lat="38.4342530" lon="-0.6418680">
        <ele>292.0</ele>
        <time>2018-10-14T09:20:15Z</time>
      </trkpt>
      <trkpt lat="38.4342350" lon="-0.6418750">
        <ele>292.0</ele>
        <time>2018-10-14T09:20:16Z</time>
      </trkpt>
      <trkpt lat="38.4342350" lon="-0.6418750">
        <ele>292.0</ele>
        <time>2018-10-14T09:20:17Z</time>
      </trkpt>
      <trkpt lat="38.4342330" lon="-0.6418770">
        <ele>292.0</ele>
        <time>2018-10-14T09:20:18Z</time>
      </trkpt>
      <trkpt lat="38.4342330" lon="-0.6418770">
        <ele>292.0</ele>
        <time>2018-10-14T09:20:25Z</time>
      </trkpt>
      <trkpt lat="38.4341550" lon="-0.6418870">
        <ele>292.0</ele>
        <time>2018-10-14T09:20:26Z</time>
      </trkpt>
      <trkpt lat="38.4341550" lon="-0.6418870">
        <ele>292.0</ele>
        <time>2018-10-14T09:20:27Z</time>
      </trkpt>
      <trkpt lat="38.4341030" lon="-0.6419030">
        <ele>292.0</ele>
        <time>2018-10-14T09:20:28Z</time>
      </trkpt>
      <trkpt lat="38.4341030" lon="-0.6419030">
        <ele>292.0</ele>
        <time>2018-10-14T09:20:29Z</time>
      </trkpt>
      <trkpt lat="38.4340470" lon="-0.6419180">
        <ele>292.0</ele>
        <time>2018-10-14T09:20:30Z</time>
      </trkpt>
      <trkpt lat="38.4340470" lon="-0.6419180">
        <ele>292.0</ele>
        <time>2018-10-14T09:20:31Z</time>
      </trkpt>
      <trkpt lat="38.4339920" lon="-0.6419320">
        <ele>292.0</ele>
        <time>2018-10-14T09:20:32Z</time>
      </trkpt>
      <trkpt lat="38.4339920" lon="-0.6419320">
        <ele>292.0</ele>
        <time>2018-10-14T09:20:33Z</time>
      </trkpt>
      <trkpt lat="38.4339400" lon="-0.6419550">
        <ele>292.0</ele>
        <time>2018-10-14T09:20:34Z</time>
      </trkpt>
      <trkpt lat="38.4339400" lon="-0.6419550">
        <ele>292.0</ele>
        <time>2018-10-14T09:20:35Z</time>
      </trkpt>
      <trkpt lat="38.4338970" lon="-0.6419730">
        <ele>292.0</ele>
        <time>2018-10-14T09:20:36Z</time>
      </trkpt>
      <trkpt lat="38.4338730" lon="-0.6419850">
        <ele>292.0</ele>
        <time>2018-10-14T09:20:37Z</time>
      </trkpt>
      <trkpt lat="38.4338480" lon="-0.6419950">
        <ele>292.0</ele>
        <time>2018-10-14T09:20:38Z</time>
      </trkpt>
      <trkpt lat="38.4338480" lon="-0.6419950">
        <ele>292.0</ele>
        <time>2018-10-14T09:20:39Z</time>
      </trkpt>
      <trkpt lat="38.4337920" lon="-0.6420180">
        <ele>292.0</ele>
        <time>2018-10-14T09:20:40Z</time>
      </trkpt>
      <trkpt lat="38.4337920" lon="-0.6420180">
        <ele>292.0</ele>
        <time>2018-10-14T09:20:41Z</time>
      </trkpt>
      <trkpt lat="38.4337350" lon="-0.6420450">
        <ele>292.0</ele>
        <time>2018-10-14T09:20:42Z</time>
      </trkpt>
      <trkpt lat="38.4337350" lon="-0.6420450">
        <ele>292.0</ele>
        <time>2018-10-14T09:20:43Z</time>
      </trkpt>
      <trkpt lat="38.4336750" lon="-0.6420670">
        <ele>292.0</ele>
        <time>2018-10-14T09:20:44Z</time>
      </trkpt>
      <trkpt lat="38.4336750" lon="-0.6420670">
        <ele>292.0</ele>
        <time>2018-10-14T09:20:45Z</time>
      </trkpt>
      <trkpt lat="38.4336170" lon="-0.6420820">
        <ele>293.0</ele>
        <time>2018-10-14T09:20:46Z</time>
      </trkpt>
      <trkpt lat="38.4335870" lon="-0.6420920">
        <ele>293.0</ele>
        <time>2018-10-14T09:20:47Z</time>
      </trkpt>
      <trkpt lat="38.4335550" lon="-0.6421030">
        <ele>293.0</ele>
        <time>2018-10-14T09:20:48Z</time>
      </trkpt>
      <trkpt lat="38.4335550" lon="-0.6421030">
        <ele>293.0</ele>
        <time>2018-10-14T09:20:49Z</time>
      </trkpt>
      <trkpt lat="38.4334900" lon="-0.6421200">
        <ele>293.0</ele>
        <time>2018-10-14T09:20:50Z</time>
      </trkpt>
      <trkpt lat="38.4334900" lon="-0.6421200">
        <ele>293.0</ele>
        <time>2018-10-14T09:20:51Z</time>
      </trkpt>
      <trkpt lat="38.4334230" lon="-0.6421420">
        <ele>293.0</ele>
        <time>2018-10-14T09:20:52Z</time>
      </trkpt>
      <trkpt lat="38.4334230" lon="-0.6421420">
        <ele>293.0</ele>
        <time>2018-10-14T09:20:53Z</time>
      </trkpt>
      <trkpt lat="38.4333570" lon="-0.6421670">
        <ele>293.0</ele>
        <time>2018-10-14T09:20:54Z</time>
      </trkpt>
      <trkpt lat="38.4333570" lon="-0.6421670">
        <ele>293.0</ele>
        <time>2018-10-14T09:20:55Z</time>
      </trkpt>
      <trkpt lat="38.4332920" lon="-0.6421930">
        <ele>293.0</ele>
        <time>2018-10-14T09:20:56Z</time>
      </trkpt>
      <trkpt lat="38.4332600" lon="-0.6422080">
        <ele>294.0</ele>
        <time>2018-10-14T09:20:57Z</time>
      </trkpt>
      <trkpt lat="38.4332600" lon="-0.6422080">
        <ele>294.0</ele>
        <time>2018-10-14T09:20:58Z</time>
      </trkpt>
      <trkpt lat="38.4332050" lon="-0.6422420">
        <ele>294.0</ele>
        <time>2018-10-14T09:20:59Z</time>
      </trkpt>
      <trkpt lat="38.4331770" lon="-0.6422620">
        <ele>294.0</ele>
        <time>2018-10-14T09:21:00Z</time>
      </trkpt>
      <trkpt lat="38.4331770" lon="-0.6422620">
        <ele>294.0</ele>
        <time>2018-10-14T09:21:01Z</time>
      </trkpt>
      <trkpt lat="38.4331230" lon="-0.6423020">
        <ele>294.0</ele>
        <time>2018-10-14T09:21:02Z</time>
      </trkpt>
      <trkpt lat="38.4331230" lon="-0.6423020">
        <ele>294.0</ele>
        <time>2018-10-14T09:21:03Z</time>
      </trkpt>
      <trkpt lat="38.4330680" lon="-0.6423430">
        <ele>294.0</ele>
        <time>2018-10-14T09:21:04Z</time>
      </trkpt>
      <trkpt lat="38.4330680" lon="-0.6423430">
        <ele>295.0</ele>
        <time>2018-10-14T09:21:05Z</time>
      </trkpt>
      <trkpt lat="38.4330080" lon="-0.6423820">
        <ele>295.0</ele>
        <time>2018-10-14T09:21:06Z</time>
      </trkpt>
      <trkpt lat="38.4330080" lon="-0.6423820">
        <ele>295.0</ele>
        <time>2018-10-14T09:21:07Z</time>
      </trkpt>
      <trkpt lat="38.4329520" lon="-0.6424220">
        <ele>295.0</ele>
        <time>2018-10-14T09:21:08Z</time>
      </trkpt>
      <trkpt lat="38.4329520" lon="-0.6424220">
        <ele>295.0</ele>
        <time>2018-10-14T09:21:09Z</time>
      </trkpt>
      <trkpt lat="38.4328980" lon="-0.6424700">
        <ele>295.0</ele>
        <time>2018-10-14T09:21:10Z</time>
      </trkpt>
      <trkpt lat="38.4328980" lon="-0.6424700">
        <ele>295.0</ele>
        <time>2018-10-14T09:21:11Z</time>
      </trkpt>
      <trkpt lat="38.4328430" lon="-0.6425270">
        <ele>295.0</ele>
        <time>2018-10-14T09:21:12Z</time>
      </trkpt>
      <trkpt lat="38.4328430" lon="-0.6425270">
        <ele>295.0</ele>
        <time>2018-10-14T09:21:13Z</time>
      </trkpt>
      <trkpt lat="38.4327920" lon="-0.6425770">
        <ele>295.0</ele>
        <time>2018-10-14T09:21:14Z</time>
      </trkpt>
      <trkpt lat="38.4327920" lon="-0.6425770">
        <ele>295.0</ele>
        <time>2018-10-14T09:21:15Z</time>
      </trkpt>
      <trkpt lat="38.4327400" lon="-0.6426270">
        <ele>295.0</ele>
        <time>2018-10-14T09:21:16Z</time>
      </trkpt>
      <trkpt lat="38.4327120" lon="-0.6426500">
        <ele>295.0</ele>
        <time>2018-10-14T09:21:17Z</time>
      </trkpt>
      <trkpt lat="38.4327120" lon="-0.6426500">
        <ele>295.0</ele>
        <time>2018-10-14T09:21:18Z</time>
      </trkpt>
      <trkpt lat="38.4326530" lon="-0.6427000">
        <ele>295.0</ele>
        <time>2018-10-14T09:21:19Z</time>
      </trkpt>
      <trkpt lat="38.4326220" lon="-0.6427230">
        <ele>295.0</ele>
        <time>2018-10-14T09:21:20Z</time>
      </trkpt>
      <trkpt lat="38.4326220" lon="-0.6427230">
        <ele>295.0</ele>
        <time>2018-10-14T09:21:21Z</time>
      </trkpt>
      <trkpt lat="38.4325530" lon="-0.6427770">
        <ele>295.0</ele>
        <time>2018-10-14T09:21:22Z</time>
      </trkpt>
      <trkpt lat="38.4325530" lon="-0.6427770">
        <ele>295.0</ele>
        <time>2018-10-14T09:21:23Z</time>
      </trkpt>
      <trkpt lat="38.4324770" lon="-0.6428230">
        <ele>295.0</ele>
        <time>2018-10-14T09:21:24Z</time>
      </trkpt>
      <trkpt lat="38.4324770" lon="-0.6428230">
        <ele>295.0</ele>
        <time>2018-10-14T09:21:25Z</time>
      </trkpt>
      <trkpt lat="38.4324020" lon="-0.6428650">
        <ele>295.0</ele>
        <time>2018-10-14T09:21:26Z</time>
      </trkpt>
      <trkpt lat="38.4324020" lon="-0.6428650">
        <ele>296.0</ele>
        <time>2018-10-14T09:21:27Z</time>
      </trkpt>
      <trkpt lat="38.4323230" lon="-0.6429030">
        <ele>296.0</ele>
        <time>2018-10-14T09:21:28Z</time>
      </trkpt>
      <trkpt lat="38.4323230" lon="-0.6429030">
        <ele>296.0</ele>
        <time>2018-10-14T09:21:29Z</time>
      </trkpt>
      <trkpt lat="38.4322420" lon="-0.6429470">
        <ele>296.0</ele>
        <time>2018-10-14T09:21:30Z</time>
      </trkpt>
      <trkpt lat="38.4322420" lon="-0.6429470">
        <ele>296.0</ele>
        <time>2018-10-14T09:21:31Z</time>
      </trkpt>
      <trkpt lat="38.4321620" lon="-0.6429820">
        <ele>296.0</ele>
        <time>2018-10-14T09:21:32Z</time>
      </trkpt>
      <trkpt lat="38.4321620" lon="-0.6429820">
        <ele>296.0</ele>
        <time>2018-10-14T09:21:33Z</time>
      </trkpt>
      <trkpt lat="38.4320780" lon="-0.6430180">
        <ele>296.0</ele>
        <time>2018-10-14T09:21:34Z</time>
      </trkpt>
      <trkpt lat="38.4320780" lon="-0.6430180">
        <ele>296.0</ele>
        <time>2018-10-14T09:21:35Z</time>
      </trkpt>
      <trkpt lat="38.4319950" lon="-0.6430570">
        <ele>296.0</ele>
        <time>2018-10-14T09:21:36Z</time>
      </trkpt>
      <trkpt lat="38.4319950" lon="-0.6430570">
        <ele>296.0</ele>
        <time>2018-10-14T09:21:37Z</time>
      </trkpt>
      <trkpt lat="38.4319120" lon="-0.6430950">
        <ele>296.0</ele>
        <time>2018-10-14T09:21:38Z</time>
      </trkpt>
      <trkpt lat="38.4319120" lon="-0.6430950">
        <ele>296.0</ele>
        <time>2018-10-14T09:21:39Z</time>
      </trkpt>
      <trkpt lat="38.4318280" lon="-0.6431300">
        <ele>296.0</ele>
        <time>2018-10-14T09:21:40Z</time>
      </trkpt>
      <trkpt lat="38.4318280" lon="-0.6431300">
        <ele>296.0</ele>
        <time>2018-10-14T09:21:41Z</time>
      </trkpt>
      <trkpt lat="38.4317430" lon="-0.6431670">
        <ele>296.0</ele>
        <time>2018-10-14T09:21:42Z</time>
      </trkpt>
      <trkpt lat="38.4317430" lon="-0.6431670">
        <ele>296.0</ele>
        <time>2018-10-14T09:21:43Z</time>
      </trkpt>
      <trkpt lat="38.4316600" lon="-0.6431980">
        <ele>296.0</ele>
        <time>2018-10-14T09:21:44Z</time>
      </trkpt>
      <trkpt lat="38.4316600" lon="-0.6431980">
        <ele>296.0</ele>
        <time>2018-10-14T09:21:45Z</time>
      </trkpt>
      <trkpt lat="38.4315770" lon="-0.6432250">
        <ele>296.0</ele>
        <time>2018-10-14T09:21:46Z</time>
      </trkpt>
      <trkpt lat="38.4315770" lon="-0.6432250">
        <ele>296.0</ele>
        <time>2018-10-14T09:21:47Z</time>
      </trkpt>
      <trkpt lat="38.4314900" lon="-0.6432500">
        <ele>296.0</ele>
        <time>2018-10-14T09:21:48Z</time>
      </trkpt>
      <trkpt lat="38.4314900" lon="-0.6432500">
        <ele>296.0</ele>
        <time>2018-10-14T09:21:49Z</time>
      </trkpt>
      <trkpt lat="38.4314020" lon="-0.6432730">
        <ele>296.0</ele>
        <time>2018-10-14T09:21:50Z</time>
      </trkpt>
      <trkpt lat="38.4314020" lon="-0.6432730">
        <ele>296.0</ele>
        <time>2018-10-14T09:21:51Z</time>
      </trkpt>
      <trkpt lat="38.4313150" lon="-0.6432980">
        <ele>296.0</ele>
        <time>2018-10-14T09:21:52Z</time>
      </trkpt>
      <trkpt lat="38.4313150" lon="-0.6432980">
        <ele>296.0</ele>
        <time>2018-10-14T09:21:53Z</time>
      </trkpt>
      <trkpt lat="38.4312300" lon="-0.6433250">
        <ele>296.0</ele>
        <time>2018-10-14T09:21:54Z</time>
      </trkpt>
      <trkpt lat="38.4312300" lon="-0.6433250">
        <ele>296.0</ele>
        <time>2018-10-14T09:21:55Z</time>
      </trkpt>
      <trkpt lat="38.4311480" lon="-0.6433520">
        <ele>296.0</ele>
        <time>2018-10-14T09:21:56Z</time>
      </trkpt>
      <trkpt lat="38.4311480" lon="-0.6433520">
        <ele>296.0</ele>
        <time>2018-10-14T09:21:57Z</time>
      </trkpt>
      <trkpt lat="38.4310680" lon="-0.6433850">
        <ele>296.0</ele>
        <time>2018-10-14T09:21:58Z</time>
      </trkpt>
      <trkpt lat="38.4310680" lon="-0.6433850">
        <ele>296.0</ele>
        <time>2018-10-14T09:21:59Z</time>
      </trkpt>
      <trkpt lat="38.4309870" lon="-0.6434250">
        <ele>296.0</ele>
        <time>2018-10-14T09:22:00Z</time>
      </trkpt>
      <trkpt lat="38.4309870" lon="-0.6434250">
        <ele>296.0</ele>
        <time>2018-10-14T09:22:01Z</time>
      </trkpt>
      <trkpt lat="38.4309080" lon="-0.6434780">
        <ele>296.0</ele>
        <time>2018-10-14T09:22:02Z</time>
      </trkpt>
      <trkpt lat="38.4309080" lon="-0.6434780">
        <ele>296.0</ele>
        <time>2018-10-14T09:22:03Z</time>
      </trkpt>
      <trkpt lat="38.4308370" lon="-0.6435380">
        <ele>296.0</ele>
        <time>2018-10-14T09:22:04Z</time>
      </trkpt>
      <trkpt lat="38.4308370" lon="-0.6435380">
        <ele>296.0</ele>
        <time>2018-10-14T09:22:05Z</time>
      </trkpt>
      <trkpt lat="38.4307630" lon="-0.6436070">
        <ele>296.0</ele>
        <time>2018-10-14T09:22:06Z</time>
      </trkpt>
      <trkpt lat="38.4307630" lon="-0.6436070">
        <ele>296.0</ele>
        <time>2018-10-14T09:22:07Z</time>
      </trkpt>
      <trkpt lat="38.4306920" lon="-0.6436770">
        <ele>296.0</ele>
        <time>2018-10-14T09:22:08Z</time>
      </trkpt>
      <trkpt lat="38.4306920" lon="-0.6436770">
        <ele>296.0</ele>
        <time>2018-10-14T09:22:09Z</time>
      </trkpt>
      <trkpt lat="38.4306200" lon="-0.6437470">
        <ele>296.0</ele>
        <time>2018-10-14T09:22:10Z</time>
      </trkpt>
      <trkpt lat="38.4306200" lon="-0.6437470">
        <ele>296.0</ele>
        <time>2018-10-14T09:22:11Z</time>
      </trkpt>
      <trkpt lat="38.4305470" lon="-0.6438150">
        <ele>296.0</ele>
        <time>2018-10-14T09:22:12Z</time>
      </trkpt>
      <trkpt lat="38.4305100" lon="-0.6438520">
        <ele>296.0</ele>
        <time>2018-10-14T09:22:13Z</time>
      </trkpt>
      <trkpt lat="38.4304720" lon="-0.6438870">
        <ele>296.0</ele>
        <time>2018-10-14T09:22:14Z</time>
      </trkpt>
      <trkpt lat="38.4304720" lon="-0.6438870">
        <ele>296.0</ele>
        <time>2018-10-14T09:22:15Z</time>
      </trkpt>
      <trkpt lat="38.4303970" lon="-0.6439600">
        <ele>296.0</ele>
        <time>2018-10-14T09:22:16Z</time>
      </trkpt>
      <trkpt lat="38.4303970" lon="-0.6439600">
        <ele>296.0</ele>
        <time>2018-10-14T09:22:17Z</time>
      </trkpt>
      <trkpt lat="38.4303230" lon="-0.6440320">
        <ele>296.0</ele>
        <time>2018-10-14T09:22:18Z</time>
      </trkpt>
      <trkpt lat="38.4303230" lon="-0.6440320">
        <ele>296.0</ele>
        <time>2018-10-14T09:22:19Z</time>
      </trkpt>
      <trkpt lat="38.4302500" lon="-0.6441030">
        <ele>296.0</ele>
        <time>2018-10-14T09:22:20Z</time>
      </trkpt>
      <trkpt lat="38.4302500" lon="-0.6441030">
        <ele>296.0</ele>
        <time>2018-10-14T09:22:21Z</time>
      </trkpt>
      <trkpt lat="38.4301750" lon="-0.6441700">
        <ele>296.0</ele>
        <time>2018-10-14T09:22:22Z</time>
      </trkpt>
      <trkpt lat="38.4301750" lon="-0.6441700">
        <ele>296.0</ele>
        <time>2018-10-14T09:22:23Z</time>
      </trkpt>
      <trkpt lat="38.4300970" lon="-0.6442330">
        <ele>296.0</ele>
        <time>2018-10-14T09:22:24Z</time>
      </trkpt>
      <trkpt lat="38.4300970" lon="-0.6442330">
        <ele>296.0</ele>
        <time>2018-10-14T09:22:25Z</time>
      </trkpt>
      <trkpt lat="38.4300180" lon="-0.6442930">
        <ele>296.0</ele>
        <time>2018-10-14T09:22:26Z</time>
      </trkpt>
      <trkpt lat="38.4300180" lon="-0.6442930">
        <ele>296.0</ele>
        <time>2018-10-14T09:22:27Z</time>
      </trkpt>
      <trkpt lat="38.4299380" lon="-0.6443520">
        <ele>296.0</ele>
        <time>2018-10-14T09:22:28Z</time>
      </trkpt>
      <trkpt lat="38.4299380" lon="-0.6443520">
        <ele>296.0</ele>
        <time>2018-10-14T09:22:29Z</time>
      </trkpt>
      <trkpt lat="38.4298620" lon="-0.6444120">
        <ele>296.0</ele>
        <time>2018-10-14T09:22:30Z</time>
      </trkpt>
      <trkpt lat="38.4298620" lon="-0.6444120">
        <ele>296.0</ele>
        <time>2018-10-14T09:22:31Z</time>
      </trkpt>
      <trkpt lat="38.4297880" lon="-0.6444700">
        <ele>296.0</ele>
        <time>2018-10-14T09:22:32Z</time>
      </trkpt>
      <trkpt lat="38.4297880" lon="-0.6444700">
        <ele>296.0</ele>
        <time>2018-10-14T09:22:33Z</time>
      </trkpt>
      <trkpt lat="38.4297120" lon="-0.6445330">
        <ele>296.0</ele>
        <time>2018-10-14T09:22:34Z</time>
      </trkpt>
      <trkpt lat="38.4297120" lon="-0.6445330">
        <ele>296.0</ele>
        <time>2018-10-14T09:22:35Z</time>
      </trkpt>
      <trkpt lat="38.4296300" lon="-0.6446020">
        <ele>296.0</ele>
        <time>2018-10-14T09:22:36Z</time>
      </trkpt>
      <trkpt lat="38.4296300" lon="-0.6446020">
        <ele>296.0</ele>
        <time>2018-10-14T09:22:37Z</time>
      </trkpt>
      <trkpt lat="38.4295520" lon="-0.6446750">
        <ele>296.0</ele>
        <time>2018-10-14T09:22:38Z</time>
      </trkpt>
      <trkpt lat="38.4295520" lon="-0.6446750">
        <ele>296.0</ele>
        <time>2018-10-14T09:22:39Z</time>
      </trkpt>
      <trkpt lat="38.4294670" lon="-0.6447480">
        <ele>296.0</ele>
        <time>2018-10-14T09:22:40Z</time>
      </trkpt>
      <trkpt lat="38.4294220" lon="-0.6447870">
        <ele>296.0</ele>
        <time>2018-10-14T09:22:41Z</time>
      </trkpt>
      <trkpt lat="38.4293780" lon="-0.6448250">
        <ele>296.0</ele>
        <time>2018-10-14T09:22:42Z</time>
      </trkpt>
      <trkpt lat="38.4293780" lon="-0.6448250">
        <ele>296.0</ele>
        <time>2018-10-14T09:22:43Z</time>
      </trkpt>
      <trkpt lat="38.4292850" lon="-0.6449050">
        <ele>296.0</ele>
        <time>2018-10-14T09:22:44Z</time>
      </trkpt>
      <trkpt lat="38.4292850" lon="-0.6449050">
        <ele>295.0</ele>
        <time>2018-10-14T09:22:45Z</time>
      </trkpt>
      <trkpt lat="38.4291880" lon="-0.6449800">
        <ele>295.0</ele>
        <time>2018-10-14T09:22:46Z</time>
      </trkpt>
      <trkpt lat="38.4291370" lon="-0.6450170">
        <ele>295.0</ele>
        <time>2018-10-14T09:22:47Z</time>
      </trkpt>
      <trkpt lat="38.4290830" lon="-0.6450500">
        <ele>295.0</ele>
        <time>2018-10-14T09:22:48Z</time>
      </trkpt>
      <trkpt lat="38.4290830" lon="-0.6450500">
        <ele>295.0</ele>
        <time>2018-10-14T09:22:49Z</time>
      </trkpt>
      <trkpt lat="38.4289720" lon="-0.6451100">
        <ele>294.0</ele>
        <time>2018-10-14T09:22:50Z</time>
      </trkpt>
      <trkpt lat="38.4289720" lon="-0.6451100">
        <ele>294.0</ele>
        <time>2018-10-14T09:22:51Z</time>
      </trkpt>
      <trkpt lat="38.4288570" lon="-0.6451670">
        <ele>294.0</ele>
        <time>2018-10-14T09:22:52Z</time>
      </trkpt>
      <trkpt lat="38.4288570" lon="-0.6451670">
        <ele>294.0</ele>
        <time>2018-10-14T09:22:53Z</time>
      </trkpt>
      <trkpt lat="38.4287530" lon="-0.6452570">
        <ele>294.0</ele>
        <time>2018-10-14T09:22:54Z</time>
      </trkpt>
      <trkpt lat="38.4287530" lon="-0.6452570">
        <ele>294.0</ele>
        <time>2018-10-14T09:22:55Z</time>
      </trkpt>
      <trkpt lat="38.4286630" lon="-0.6453670">
        <ele>293.0</ele>
        <time>2018-10-14T09:22:56Z</time>
      </trkpt>
      <trkpt lat="38.4286170" lon="-0.6454220">
        <ele>293.0</ele>
        <time>2018-10-14T09:22:57Z</time>
      </trkpt>
      <trkpt lat="38.4286170" lon="-0.6454220">
        <ele>293.0</ele>
        <time>2018-10-14T09:22:58Z</time>
      </trkpt>
      <trkpt lat="38.4285250" lon="-0.6455280">
        <ele>293.0</ele>
        <time>2018-10-14T09:22:59Z</time>
      </trkpt>
      <trkpt lat="38.4284800" lon="-0.6455800">
        <ele>293.0</ele>
        <time>2018-10-14T09:23:00Z</time>
      </trkpt>
      <trkpt lat="38.4284800" lon="-0.6455800">
        <ele>293.0</ele>
        <time>2018-10-14T09:23:01Z</time>
      </trkpt>
      <trkpt lat="38.4283920" lon="-0.6456800">
        <ele>293.0</ele>
        <time>2018-10-14T09:23:02Z</time>
      </trkpt>
      <trkpt lat="38.4283920" lon="-0.6456800">
        <ele>293.0</ele>
        <time>2018-10-14T09:23:03Z</time>
      </trkpt>
      <trkpt lat="38.4283020" lon="-0.6457720">
        <ele>293.0</ele>
        <time>2018-10-14T09:23:04Z</time>
      </trkpt>
      <trkpt lat="38.4283020" lon="-0.6457720">
        <ele>293.0</ele>
        <time>2018-10-14T09:23:05Z</time>
      </trkpt>
      <trkpt lat="38.4282180" lon="-0.6458670">
        <ele>293.0</ele>
        <time>2018-10-14T09:23:06Z</time>
      </trkpt>
      <trkpt lat="38.4281800" lon="-0.6459170">
        <ele>293.0</ele>
        <time>2018-10-14T09:23:07Z</time>
      </trkpt>
      <trkpt lat="38.4281800" lon="-0.6459170">
        <ele>293.0</ele>
        <time>2018-10-14T09:23:08Z</time>
      </trkpt>
      <trkpt lat="38.4281050" lon="-0.6460220">
        <ele>293.0</ele>
        <time>2018-10-14T09:23:09Z</time>
      </trkpt>
      <trkpt lat="38.4281050" lon="-0.6460220">
        <ele>293.0</ele>
        <time>2018-10-14T09:23:10Z</time>
      </trkpt>
      <trkpt lat="38.4280280" lon="-0.6461280">
        <ele>293.0</ele>
        <time>2018-10-14T09:23:11Z</time>
      </trkpt>
      <trkpt lat="38.4280280" lon="-0.6461280">
        <ele>293.0</ele>
        <time>2018-10-14T09:23:12Z</time>
      </trkpt>
      <trkpt lat="38.4279500" lon="-0.6462430">
        <ele>292.0</ele>
        <time>2018-10-14T09:23:13Z</time>
      </trkpt>
      <trkpt lat="38.4279080" lon="-0.6463030">
        <ele>292.0</ele>
        <time>2018-10-14T09:23:14Z</time>
      </trkpt>
      <trkpt lat="38.4279080" lon="-0.6463030">
        <ele>292.0</ele>
        <time>2018-10-14T09:23:15Z</time>
      </trkpt>
      <trkpt lat="38.4278220" lon="-0.6464220">
        <ele>292.0</ele>
        <time>2018-10-14T09:23:16Z</time>
      </trkpt>
      <trkpt lat="38.4278220" lon="-0.6464220">
        <ele>292.0</ele>
        <time>2018-10-14T09:23:17Z</time>
      </trkpt>
      <trkpt lat="38.4277330" lon="-0.6465400">
        <ele>292.0</ele>
        <time>2018-10-14T09:23:18Z</time>
      </trkpt>
      <trkpt lat="38.4277330" lon="-0.6465400">
        <ele>292.0</ele>
        <time>2018-10-14T09:23:19Z</time>
      </trkpt>
      <trkpt lat="38.4276450" lon="-0.6466630">
        <ele>292.0</ele>
        <time>2018-10-14T09:23:20Z</time>
      </trkpt>
      <trkpt lat="38.4276450" lon="-0.6466630">
        <ele>292.0</ele>
        <time>2018-10-14T09:23:21Z</time>
      </trkpt>
      <trkpt lat="38.4275530" lon="-0.6467850">
        <ele>292.0</ele>
        <time>2018-10-14T09:23:22Z</time>
      </trkpt>
      <trkpt lat="38.4275530" lon="-0.6467850">
        <ele>292.0</ele>
        <time>2018-10-14T09:23:23Z</time>
      </trkpt>
      <trkpt lat="38.4274600" lon="-0.6469120">
        <ele>292.0</ele>
        <time>2018-10-14T09:23:24Z</time>
      </trkpt>
      <trkpt lat="38.4274600" lon="-0.6469120">
        <ele>292.0</ele>
        <time>2018-10-14T09:23:25Z</time>
      </trkpt>
      <trkpt lat="38.4273680" lon="-0.6470350">
        <ele>292.0</ele>
        <time>2018-10-14T09:23:26Z</time>
      </trkpt>
      <trkpt lat="38.4273230" lon="-0.6470980">
        <ele>292.0</ele>
        <time>2018-10-14T09:23:27Z</time>
      </trkpt>
      <trkpt lat="38.4273230" lon="-0.6470980">
        <ele>292.0</ele>
        <time>2018-10-14T09:23:28Z</time>
      </trkpt>
      <trkpt lat="38.4272370" lon="-0.6472270">
        <ele>292.0</ele>
        <time>2018-10-14T09:23:29Z</time>
      </trkpt>
      <trkpt lat="38.4272370" lon="-0.6472270">
        <ele>292.0</ele>
        <time>2018-10-14T09:23:30Z</time>
      </trkpt>
      <trkpt lat="38.4271480" lon="-0.6473520">
        <ele>292.0</ele>
        <time>2018-10-14T09:23:31Z</time>
      </trkpt>
      <trkpt lat="38.4271020" lon="-0.6474100">
        <ele>292.0</ele>
        <time>2018-10-14T09:23:32Z</time>
      </trkpt>
      <trkpt lat="38.4271020" lon="-0.6474100">
        <ele>292.0</ele>
        <time>2018-10-14T09:23:33Z</time>
      </trkpt>
      <trkpt lat="38.4270170" lon="-0.6475320">
        <ele>292.0</ele>
        <time>2018-10-14T09:23:34Z</time>
      </trkpt>
      <trkpt lat="38.4270170" lon="-0.6475320">
        <ele>292.0</ele>
        <time>2018-10-14T09:23:35Z</time>
      </trkpt>
      <trkpt lat="38.4269350" lon="-0.6476530">
        <ele>291.0</ele>
        <time>2018-10-14T09:23:36Z</time>
      </trkpt>
      <trkpt lat="38.4269350" lon="-0.6476530">
        <ele>291.0</ele>
        <time>2018-10-14T09:23:37Z</time>
      </trkpt>
      <trkpt lat="38.4268550" lon="-0.6477750">
        <ele>291.0</ele>
        <time>2018-10-14T09:23:38Z</time>
      </trkpt>
      <trkpt lat="38.4268120" lon="-0.6478350">
        <ele>291.0</ele>
        <time>2018-10-14T09:23:39Z</time>
      </trkpt>
      <trkpt lat="38.4268120" lon="-0.6478350">
        <ele>291.0</ele>
        <time>2018-10-14T09:23:40Z</time>
      </trkpt>
      <trkpt lat="38.4267250" lon="-0.6479530">
        <ele>291.0</ele>
        <time>2018-10-14T09:23:41Z</time>
      </trkpt>
      <trkpt lat="38.4266780" lon="-0.6480120">
        <ele>291.0</ele>
        <time>2018-10-14T09:23:42Z</time>
      </trkpt>
      <trkpt lat="38.4266780" lon="-0.6480120">
        <ele>291.0</ele>
        <time>2018-10-14T09:23:43Z</time>
      </trkpt>
      <trkpt lat="38.4265830" lon="-0.6481250">
        <ele>291.0</ele>
        <time>2018-10-14T09:23:44Z</time>
      </trkpt>
      <trkpt lat="38.4265370" lon="-0.6481820">
        <ele>291.0</ele>
        <time>2018-10-14T09:23:45Z</time>
      </trkpt>
      <trkpt lat="38.4265370" lon="-0.6481820">
        <ele>291.0</ele>
        <time>2018-10-14T09:23:46Z</time>
      </trkpt>
      <trkpt lat="38.4264420" lon="-0.6482970">
        <ele>290.0</ele>
        <time>2018-10-14T09:23:47Z</time>
      </trkpt>
      <trkpt lat="38.4263920" lon="-0.6483550">
        <ele>290.0</ele>
        <time>2018-10-14T09:23:48Z</time>
      </trkpt>
      <trkpt lat="38.4263920" lon="-0.6483550">
        <ele>290.0</ele>
        <time>2018-10-14T09:23:49Z</time>
      </trkpt>
      <trkpt lat="38.4262950" lon="-0.6484770">
        <ele>290.0</ele>
        <time>2018-10-14T09:23:50Z</time>
      </trkpt>
      <trkpt lat="38.4262950" lon="-0.6484770">
        <ele>290.0</ele>
        <time>2018-10-14T09:23:51Z</time>
      </trkpt>
      <trkpt lat="38.4262020" lon="-0.6486080">
        <ele>290.0</ele>
        <time>2018-10-14T09:23:52Z</time>
      </trkpt>
      <trkpt lat="38.4262020" lon="-0.6486080">
        <ele>289.0</ele>
        <time>2018-10-14T09:23:53Z</time>
      </trkpt>
      <trkpt lat="38.4261180" lon="-0.6487480">
        <ele>289.0</ele>
        <time>2018-10-14T09:23:54Z</time>
      </trkpt>
      <trkpt lat="38.4261180" lon="-0.6487480">
        <ele>289.0</ele>
        <time>2018-10-14T09:23:55Z</time>
      </trkpt>
      <trkpt lat="38.4260370" lon="-0.6488830">
        <ele>289.0</ele>
        <time>2018-10-14T09:23:56Z</time>
      </trkpt>
      <trkpt lat="38.4259970" lon="-0.6489470">
        <ele>289.0</ele>
        <time>2018-10-14T09:23:57Z</time>
      </trkpt>
      <trkpt lat="38.4259970" lon="-0.6489470">
        <ele>289.0</ele>
        <time>2018-10-14T09:23:58Z</time>
      </trkpt>
      <trkpt lat="38.4259220" lon="-0.6490770">
        <ele>289.0</ele>
        <time>2018-10-14T09:23:59Z</time>
      </trkpt>
      <trkpt lat="38.4258830" lon="-0.6491400">
        <ele>289.0</ele>
        <time>2018-10-14T09:24:00Z</time>
      </trkpt>
      <trkpt lat="38.4258830" lon="-0.6491400">
        <ele>288.0</ele>
        <time>2018-10-14T09:24:01Z</time>
      </trkpt>
      <trkpt lat="38.4258050" lon="-0.6492600">
        <ele>288.0</ele>
        <time>2018-10-14T09:24:02Z</time>
      </trkpt>
      <trkpt lat="38.4258050" lon="-0.6492600">
        <ele>288.0</ele>
        <time>2018-10-14T09:24:03Z</time>
      </trkpt>
      <trkpt lat="38.4257180" lon="-0.6493680">
        <ele>288.0</ele>
        <time>2018-10-14T09:24:04Z</time>
      </trkpt>
      <trkpt lat="38.4257180" lon="-0.6493680">
        <ele>288.0</ele>
        <time>2018-10-14T09:24:05Z</time>
      </trkpt>
      <trkpt lat="38.4256280" lon="-0.6494720">
        <ele>288.0</ele>
        <time>2018-10-14T09:24:06Z</time>
      </trkpt>
      <trkpt lat="38.4255830" lon="-0.6495230">
        <ele>288.0</ele>
        <time>2018-10-14T09:24:07Z</time>
      </trkpt>
      <trkpt lat="38.4255830" lon="-0.6495230">
        <ele>288.0</ele>
        <time>2018-10-14T09:24:08Z</time>
      </trkpt>
      <trkpt lat="38.4254950" lon="-0.6496230">
        <ele>288.0</ele>
        <time>2018-10-14T09:24:09Z</time>
      </trkpt>
      <trkpt lat="38.4254500" lon="-0.6496750">
        <ele>288.0</ele>
        <time>2018-10-14T09:24:10Z</time>
      </trkpt>
      <trkpt lat="38.4254500" lon="-0.6496750">
        <ele>288.0</ele>
        <time>2018-10-14T09:24:11Z</time>
      </trkpt>
      <trkpt lat="38.4253600" lon="-0.6497780">
        <ele>288.0</ele>
        <time>2018-10-14T09:24:12Z</time>
      </trkpt>
      <trkpt lat="38.4253600" lon="-0.6497780">
        <ele>288.0</ele>
        <time>2018-10-14T09:24:13Z</time>
      </trkpt>
      <trkpt lat="38.4252700" lon="-0.6498920">
        <ele>288.0</ele>
        <time>2018-10-14T09:24:14Z</time>
      </trkpt>
      <trkpt lat="38.4252700" lon="-0.6498920">
        <ele>288.0</ele>
        <time>2018-10-14T09:24:15Z</time>
      </trkpt>
      <trkpt lat="38.4251720" lon="-0.6500130">
        <ele>288.0</ele>
        <time>2018-10-14T09:24:16Z</time>
      </trkpt>
      <trkpt lat="38.4251220" lon="-0.6500730">
        <ele>287.0</ele>
        <time>2018-10-14T09:24:17Z</time>
      </trkpt>
      <trkpt lat="38.4250700" lon="-0.6501330">
        <ele>287.0</ele>
        <time>2018-10-14T09:24:18Z</time>
      </trkpt>
      <trkpt lat="38.4250700" lon="-0.6501330">
        <ele>287.0</ele>
        <time>2018-10-14T09:24:19Z</time>
      </trkpt>
      <trkpt lat="38.4249700" lon="-0.6502530">
        <ele>287.0</ele>
        <time>2018-10-14T09:24:20Z</time>
      </trkpt>
      <trkpt lat="38.4249700" lon="-0.6502530">
        <ele>287.0</ele>
        <time>2018-10-14T09:24:21Z</time>
      </trkpt>
      <trkpt lat="38.4248720" lon="-0.6503730">
        <ele>287.0</ele>
        <time>2018-10-14T09:24:22Z</time>
      </trkpt>
      <trkpt lat="38.4248720" lon="-0.6503730">
        <ele>287.0</ele>
        <time>2018-10-14T09:24:23Z</time>
      </trkpt>
      <trkpt lat="38.4247750" lon="-0.6504970">
        <ele>287.0</ele>
        <time>2018-10-14T09:24:24Z</time>
      </trkpt>
      <trkpt lat="38.4247750" lon="-0.6504970">
        <ele>286.0</ele>
        <time>2018-10-14T09:24:25Z</time>
      </trkpt>
      <trkpt lat="38.4246830" lon="-0.6506180">
        <ele>286.0</ele>
        <time>2018-10-14T09:24:26Z</time>
      </trkpt>
      <trkpt lat="38.4246830" lon="-0.6506180">
        <ele>286.0</ele>
        <time>2018-10-14T09:24:27Z</time>
      </trkpt>
      <trkpt lat="38.4245950" lon="-0.6507300">
        <ele>286.0</ele>
        <time>2018-10-14T09:24:28Z</time>
      </trkpt>
      <trkpt lat="38.4245950" lon="-0.6507300">
        <ele>286.0</ele>
        <time>2018-10-14T09:24:29Z</time>
      </trkpt>
      <trkpt lat="38.4245050" lon="-0.6508380">
        <ele>286.0</ele>
        <time>2018-10-14T09:24:30Z</time>
      </trkpt>
      <trkpt lat="38.4245050" lon="-0.6508380">
        <ele>286.0</ele>
        <time>2018-10-14T09:24:31Z</time>
      </trkpt>
      <trkpt lat="38.4244170" lon="-0.6509500">
        <ele>286.0</ele>
        <time>2018-10-14T09:24:32Z</time>
      </trkpt>
      <trkpt lat="38.4244170" lon="-0.6509500">
        <ele>286.0</ele>
        <time>2018-10-14T09:24:33Z</time>
      </trkpt>
      <trkpt lat="38.4243300" lon="-0.6510620">
        <ele>286.0</ele>
        <time>2018-10-14T09:24:34Z</time>
      </trkpt>
      <trkpt lat="38.4243300" lon="-0.6510620">
        <ele>286.0</ele>
        <time>2018-10-14T09:24:35Z</time>
      </trkpt>
      <trkpt lat="38.4242380" lon="-0.6511730">
        <ele>286.0</ele>
        <time>2018-10-14T09:24:36Z</time>
      </trkpt>
      <trkpt lat="38.4242380" lon="-0.6511730">
        <ele>285.0</ele>
        <time>2018-10-14T09:24:37Z</time>
      </trkpt>
      <trkpt lat="38.4241420" lon="-0.6512900">
        <ele>285.0</ele>
        <time>2018-10-14T09:24:38Z</time>
      </trkpt>
      <trkpt lat="38.4241420" lon="-0.6512900">
        <ele>285.0</ele>
        <time>2018-10-14T09:24:39Z</time>
      </trkpt>
      <trkpt lat="38.4240450" lon="-0.6514120">
        <ele>285.0</ele>
        <time>2018-10-14T09:24:40Z</time>
      </trkpt>
      <trkpt lat="38.4240450" lon="-0.6514120">
        <ele>285.0</ele>
        <time>2018-10-14T09:24:41Z</time>
      </trkpt>
      <trkpt lat="38.4239530" lon="-0.6515370">
        <ele>285.0</ele>
        <time>2018-10-14T09:24:42Z</time>
      </trkpt>
      <trkpt lat="38.4239530" lon="-0.6515370">
        <ele>285.0</ele>
        <time>2018-10-14T09:24:43Z</time>
      </trkpt>
      <trkpt lat="38.4238630" lon="-0.6516580">
        <ele>285.0</ele>
        <time>2018-10-14T09:24:44Z</time>
      </trkpt>
      <trkpt lat="38.4238630" lon="-0.6516580">
        <ele>285.0</ele>
        <time>2018-10-14T09:24:45Z</time>
      </trkpt>
      <trkpt lat="38.4237850" lon="-0.6517830">
        <ele>285.0</ele>
        <time>2018-10-14T09:24:46Z</time>
      </trkpt>
      <trkpt lat="38.4237430" lon="-0.6518430">
        <ele>285.0</ele>
        <time>2018-10-14T09:24:47Z</time>
      </trkpt>
      <trkpt lat="38.4237000" lon="-0.6519020">
        <ele>285.0</ele>
        <time>2018-10-14T09:24:48Z</time>
      </trkpt>
      <trkpt lat="38.4237000" lon="-0.6519020">
        <ele>285.0</ele>
        <time>2018-10-14T09:24:49Z</time>
      </trkpt>
      <trkpt lat="38.4236100" lon="-0.6520200">
        <ele>285.0</ele>
        <time>2018-10-14T09:24:50Z</time>
      </trkpt>
      <trkpt lat="38.4236100" lon="-0.6520200">
        <ele>285.0</ele>
        <time>2018-10-14T09:24:51Z</time>
      </trkpt>
      <trkpt lat="38.4235170" lon="-0.6521420">
        <ele>285.0</ele>
        <time>2018-10-14T09:24:52Z</time>
      </trkpt>
      <trkpt lat="38.4234720" lon="-0.6522020">
        <ele>285.0</ele>
        <time>2018-10-14T09:24:53Z</time>
      </trkpt>
      <trkpt lat="38.4234250" lon="-0.6522620">
        <ele>285.0</ele>
        <time>2018-10-14T09:24:54Z</time>
      </trkpt>
      <trkpt lat="38.4234250" lon="-0.6522620">
        <ele>285.0</ele>
        <time>2018-10-14T09:24:55Z</time>
      </trkpt>
      <trkpt lat="38.4233330" lon="-0.6523820">
        <ele>284.0</ele>
        <time>2018-10-14T09:24:56Z</time>
      </trkpt>
      <trkpt lat="38.4233330" lon="-0.6523820">
        <ele>284.0</ele>
        <time>2018-10-14T09:24:57Z</time>
      </trkpt>
      <trkpt lat="38.4232400" lon="-0.6525020">
        <ele>284.0</ele>
        <time>2018-10-14T09:24:58Z</time>
      </trkpt>
      <trkpt lat="38.4232400" lon="-0.6525020">
        <ele>284.0</ele>
        <time>2018-10-14T09:24:59Z</time>
      </trkpt>
      <trkpt lat="38.4231550" lon="-0.6526200">
        <ele>284.0</ele>
        <time>2018-10-14T09:25:00Z</time>
      </trkpt>
      <trkpt lat="38.4231550" lon="-0.6526200">
        <ele>284.0</ele>
        <time>2018-10-14T09:25:01Z</time>
      </trkpt>
      <trkpt lat="38.4230730" lon="-0.6527220">
        <ele>284.0</ele>
        <time>2018-10-14T09:25:02Z</time>
      </trkpt>
      <trkpt lat="38.4230730" lon="-0.6527220">
        <ele>284.0</ele>
        <time>2018-10-14T09:25:03Z</time>
      </trkpt>
      <trkpt lat="38.4229920" lon="-0.6528270">
        <ele>284.0</ele>
        <time>2018-10-14T09:25:04Z</time>
      </trkpt>
      <trkpt lat="38.4229920" lon="-0.6528270">
        <ele>284.0</ele>
        <time>2018-10-14T09:25:05Z</time>
      </trkpt>
      <trkpt lat="38.4229130" lon="-0.6529380">
        <ele>284.0</ele>
        <time>2018-10-14T09:25:06Z</time>
      </trkpt>
      <trkpt lat="38.4229130" lon="-0.6529380">
        <ele>284.0</ele>
        <time>2018-10-14T09:25:07Z</time>
      </trkpt>
      <trkpt lat="38.4228350" lon="-0.6530550">
        <ele>283.0</ele>
        <time>2018-10-14T09:25:08Z</time>
      </trkpt>
      <trkpt lat="38.4228350" lon="-0.6530550">
        <ele>283.0</ele>
        <time>2018-10-14T09:25:09Z</time>
      </trkpt>
      <trkpt lat="38.4227670" lon="-0.6531820">
        <ele>283.0</ele>
        <time>2018-10-14T09:25:10Z</time>
      </trkpt>
      <trkpt lat="38.4227670" lon="-0.6531820">
        <ele>283.0</ele>
        <time>2018-10-14T09:25:11Z</time>
      </trkpt>
      <trkpt lat="38.4227150" lon="-0.6533300">
        <ele>283.0</ele>
        <time>2018-10-14T09:25:12Z</time>
      </trkpt>
      <trkpt lat="38.4227150" lon="-0.6533300">
        <ele>283.0</ele>
        <time>2018-10-14T09:25:13Z</time>
      </trkpt>
      <trkpt lat="38.4226720" lon="-0.6534920">
        <ele>283.0</ele>
        <time>2018-10-14T09:25:14Z</time>
      </trkpt>
      <trkpt lat="38.4226720" lon="-0.6534920">
        <ele>283.0</ele>
        <time>2018-10-14T09:25:15Z</time>
      </trkpt>
      <trkpt lat="38.4226300" lon="-0.6536500">
        <ele>283.0</ele>
        <time>2018-10-14T09:25:16Z</time>
      </trkpt>
      <trkpt lat="38.4226070" lon="-0.6537270">
        <ele>283.0</ele>
        <time>2018-10-14T09:25:17Z</time>
      </trkpt>
      <trkpt lat="38.4225820" lon="-0.6537980">
        <ele>283.0</ele>
        <time>2018-10-14T09:25:18Z</time>
      </trkpt>
      <trkpt lat="38.4225820" lon="-0.6537980">
        <ele>283.0</ele>
        <time>2018-10-14T09:25:19Z</time>
      </trkpt>
      <trkpt lat="38.4225230" lon="-0.6539400">
        <ele>283.0</ele>
        <time>2018-10-14T09:25:20Z</time>
      </trkpt>
      <trkpt lat="38.4225230" lon="-0.6539400">
        <ele>283.0</ele>
        <time>2018-10-14T09:25:21Z</time>
      </trkpt>
      <trkpt lat="38.4224600" lon="-0.6540770">
        <ele>283.0</ele>
        <time>2018-10-14T09:25:22Z</time>
      </trkpt>
      <trkpt lat="38.4224600" lon="-0.6540770">
        <ele>283.0</ele>
        <time>2018-10-14T09:25:23Z</time>
      </trkpt>
      <trkpt lat="38.4223920" lon="-0.6542080">
        <ele>283.0</ele>
        <time>2018-10-14T09:25:24Z</time>
      </trkpt>
      <trkpt lat="38.4223920" lon="-0.6542080">
        <ele>283.0</ele>
        <time>2018-10-14T09:25:25Z</time>
      </trkpt>
      <trkpt lat="38.4223280" lon="-0.6543300">
        <ele>283.0</ele>
        <time>2018-10-14T09:25:26Z</time>
      </trkpt>
      <trkpt lat="38.4223280" lon="-0.6543300">
        <ele>283.0</ele>
        <time>2018-10-14T09:25:27Z</time>
      </trkpt>
      <trkpt lat="38.4222680" lon="-0.6544450">
        <ele>283.0</ele>
        <time>2018-10-14T09:25:28Z</time>
      </trkpt>
      <trkpt lat="38.4222680" lon="-0.6544450">
        <ele>283.0</ele>
        <time>2018-10-14T09:25:29Z</time>
      </trkpt>
      <trkpt lat="38.4222130" lon="-0.6545680">
        <ele>283.0</ele>
        <time>2018-10-14T09:25:30Z</time>
      </trkpt>
      <trkpt lat="38.4222130" lon="-0.6545680">
        <ele>283.0</ele>
        <time>2018-10-14T09:25:31Z</time>
      </trkpt>
      <trkpt lat="38.4221600" lon="-0.6547080">
        <ele>283.0</ele>
        <time>2018-10-14T09:25:32Z</time>
      </trkpt>
      <trkpt lat="38.4221600" lon="-0.6547080">
        <ele>283.0</ele>
        <time>2018-10-14T09:25:33Z</time>
      </trkpt>
      <trkpt lat="38.4220980" lon="-0.6548630">
        <ele>282.0</ele>
        <time>2018-10-14T09:25:34Z</time>
      </trkpt>
      <trkpt lat="38.4220980" lon="-0.6548630">
        <ele>282.0</ele>
        <time>2018-10-14T09:25:35Z</time>
      </trkpt>
      <trkpt lat="38.4220170" lon="-0.6550130">
        <ele>282.0</ele>
        <time>2018-10-14T09:25:36Z</time>
      </trkpt>
      <trkpt lat="38.4219670" lon="-0.6550770">
        <ele>282.0</ele>
        <time>2018-10-14T09:25:37Z</time>
      </trkpt>
      <trkpt lat="38.4219670" lon="-0.6550770">
        <ele>282.0</ele>
        <time>2018-10-14T09:25:38Z</time>
      </trkpt>
      <trkpt lat="38.4218480" lon="-0.6551780">
        <ele>281.0</ele>
        <time>2018-10-14T09:25:39Z</time>
      </trkpt>
      <trkpt lat="38.4218480" lon="-0.6551780">
        <ele>281.0</ele>
        <time>2018-10-14T09:25:40Z</time>
      </trkpt>
      <trkpt lat="38.4217200" lon="-0.6552580">
        <ele>281.0</ele>
        <time>2018-10-14T09:25:41Z</time>
      </trkpt>
      <trkpt lat="38.4216550" lon="-0.6552900">
        <ele>281.0</ele>
        <time>2018-10-14T09:25:42Z</time>
      </trkpt>
      <trkpt lat="38.4216550" lon="-0.6552900">
        <ele>280.0</ele>
        <time>2018-10-14T09:25:43Z</time>
      </trkpt>
      <trkpt lat="38.4215220" lon="-0.6553450">
        <ele>280.0</ele>
        <time>2018-10-14T09:25:44Z</time>
      </trkpt>
      <trkpt lat="38.4215220" lon="-0.6553450">
        <ele>280.0</ele>
        <time>2018-10-14T09:25:45Z</time>
      </trkpt>
      <trkpt lat="38.4213820" lon="-0.6553750">
        <ele>280.0</ele>
        <time>2018-10-14T09:25:46Z</time>
      </trkpt>
      <trkpt lat="38.4213820" lon="-0.6553750">
        <ele>280.0</ele>
        <time>2018-10-14T09:25:47Z</time>
      </trkpt>
      <trkpt lat="38.4212470" lon="-0.6554100">
        <ele>280.0</ele>
        <time>2018-10-14T09:25:48Z</time>
      </trkpt>
      <trkpt lat="38.4212470" lon="-0.6554100">
        <ele>280.0</ele>
        <time>2018-10-14T09:25:49Z</time>
      </trkpt>
      <trkpt lat="38.4211150" lon="-0.6554520">
        <ele>280.0</ele>
        <time>2018-10-14T09:25:50Z</time>
      </trkpt>
      <trkpt lat="38.4210520" lon="-0.6554800">
        <ele>280.0</ele>
        <time>2018-10-14T09:25:51Z</time>
      </trkpt>
      <trkpt lat="38.4210520" lon="-0.6554800">
        <ele>280.0</ele>
        <time>2018-10-14T09:25:52Z</time>
      </trkpt>
      <trkpt lat="38.4209220" lon="-0.6555520">
        <ele>280.0</ele>
        <time>2018-10-14T09:25:53Z</time>
      </trkpt>
      <trkpt lat="38.4209220" lon="-0.6555520">
        <ele>280.0</ele>
        <time>2018-10-14T09:25:54Z</time>
      </trkpt>
      <trkpt lat="38.4207850" lon="-0.6556430">
        <ele>279.0</ele>
        <time>2018-10-14T09:25:55Z</time>
      </trkpt>
      <trkpt lat="38.4207180" lon="-0.6557000">
        <ele>279.0</ele>
        <time>2018-10-14T09:25:56Z</time>
      </trkpt>
      <trkpt lat="38.4207180" lon="-0.6557000">
        <ele>279.0</ele>
        <time>2018-10-14T09:25:57Z</time>
      </trkpt>
      <trkpt lat="38.4205930" lon="-0.6558200">
        <ele>279.0</ele>
        <time>2018-10-14T09:25:58Z</time>
      </trkpt>
      <trkpt lat="38.4205930" lon="-0.6558200">
        <ele>279.0</ele>
        <time>2018-10-14T09:25:59Z</time>
      </trkpt>
      <trkpt lat="38.4204700" lon="-0.6559380">
        <ele>279.0</ele>
        <time>2018-10-14T09:26:00Z</time>
      </trkpt>
      <trkpt lat="38.4204700" lon="-0.6559380">
        <ele>279.0</ele>
        <time>2018-10-14T09:26:01Z</time>
      </trkpt>
      <trkpt lat="38.4203480" lon="-0.6560580">
        <ele>279.0</ele>
        <time>2018-10-14T09:26:02Z</time>
      </trkpt>
      <trkpt lat="38.4202900" lon="-0.6561080">
        <ele>279.0</ele>
        <time>2018-10-14T09:26:03Z</time>
      </trkpt>
      <trkpt lat="38.4202900" lon="-0.6561080">
        <ele>279.0</ele>
        <time>2018-10-14T09:26:04Z</time>
      </trkpt>
      <trkpt lat="38.4201820" lon="-0.6561830">
        <ele>279.0</ele>
        <time>2018-10-14T09:26:05Z</time>
      </trkpt>
      <trkpt lat="38.4201300" lon="-0.6562100">
        <ele>279.0</ele>
        <time>2018-10-14T09:26:06Z</time>
      </trkpt>
      <trkpt lat="38.4200770" lon="-0.6562270">
        <ele>278.0</ele>
        <time>2018-10-14T09:26:07Z</time>
      </trkpt>
      <trkpt lat="38.4200180" lon="-0.6562330">
        <ele>278.0</ele>
        <time>2018-10-14T09:26:08Z</time>
      </trkpt>
      <trkpt lat="38.4200180" lon="-0.6562330">
        <ele>278.0</ele>
        <time>2018-10-14T09:26:09Z</time>
      </trkpt>
      <trkpt lat="38.4198820" lon="-0.6562420">
        <ele>278.0</ele>
        <time>2018-10-14T09:26:10Z</time>
      </trkpt>
      <trkpt lat="38.4198820" lon="-0.6562420">
        <ele>278.0</ele>
        <time>2018-10-14T09:26:11Z</time>
      </trkpt>
      <trkpt lat="38.4197350" lon="-0.6563020">
        <ele>278.0</ele>
        <time>2018-10-14T09:26:12Z</time>
      </trkpt>
      <trkpt lat="38.4197350" lon="-0.6563020">
        <ele>277.0</ele>
        <time>2018-10-14T09:26:13Z</time>
      </trkpt>
      <trkpt lat="38.4195970" lon="-0.6563830">
        <ele>277.0</ele>
        <time>2018-10-14T09:26:14Z</time>
      </trkpt>
      <trkpt lat="38.4195970" lon="-0.6563830">
        <ele>277.0</ele>
        <time>2018-10-14T09:26:15Z</time>
      </trkpt>
      <trkpt lat="38.4194650" lon="-0.6564770">
        <ele>277.0</ele>
        <time>2018-10-14T09:26:16Z</time>
      </trkpt>
      <trkpt lat="38.4194650" lon="-0.6564770">
        <ele>277.0</ele>
        <time>2018-10-14T09:26:17Z</time>
      </trkpt>
      <trkpt lat="38.4193430" lon="-0.6566000">
        <ele>277.0</ele>
        <time>2018-10-14T09:26:18Z</time>
      </trkpt>
      <trkpt lat="38.4193430" lon="-0.6566000">
        <ele>277.0</ele>
        <time>2018-10-14T09:26:19Z</time>
      </trkpt>
      <trkpt lat="38.4192320" lon="-0.6567400">
        <ele>277.0</ele>
        <time>2018-10-14T09:26:20Z</time>
      </trkpt>
      <trkpt lat="38.4192320" lon="-0.6567400">
        <ele>276.0</ele>
        <time>2018-10-14T09:26:21Z</time>
      </trkpt>
      <trkpt lat="38.4191300" lon="-0.6568970">
        <ele>276.0</ele>
        <time>2018-10-14T09:26:22Z</time>
      </trkpt>
      <trkpt lat="38.4191300" lon="-0.6568970">
        <ele>276.0</ele>
        <time>2018-10-14T09:26:23Z</time>
      </trkpt>
      <trkpt lat="38.4190350" lon="-0.6570600">
        <ele>276.0</ele>
        <time>2018-10-14T09:26:24Z</time>
      </trkpt>
      <trkpt lat="38.4190350" lon="-0.6570600">
        <ele>258.0</ele>
        <time>2018-10-14T09:26:25Z</time>
      </trkpt>
      <trkpt lat="38.4189450" lon="-0.6572280">
        <ele>258.0</ele>
        <time>2018-10-14T09:26:26Z</time>
      </trkpt>
      <trkpt lat="38.4189450" lon="-0.6572280">
        <ele>267.0</ele>
        <time>2018-10-14T09:26:27Z</time>
      </trkpt>
      <trkpt lat="38.4188570" lon="-0.6573900">
        <ele>267.0</ele>
        <time>2018-10-14T09:26:28Z</time>
      </trkpt>
      <trkpt lat="38.4188570" lon="-0.6573900">
        <ele>271.0</ele>
        <time>2018-10-14T09:26:29Z</time>
      </trkpt>
      <trkpt lat="38.4187630" lon="-0.6575420">
        <ele>271.0</ele>
        <time>2018-10-14T09:26:30Z</time>
      </trkpt>
      <trkpt lat="38.4187630" lon="-0.6575420">
        <ele>273.0</ele>
        <time>2018-10-14T09:26:31Z</time>
      </trkpt>
      <trkpt lat="38.4186820" lon="-0.6576850">
        <ele>273.0</ele>
        <time>2018-10-14T09:26:32Z</time>
      </trkpt>
      <trkpt lat="38.4186430" lon="-0.6577520">
        <ele>274.0</ele>
        <time>2018-10-14T09:26:33Z</time>
      </trkpt>
      <trkpt lat="38.4186430" lon="-0.6577520">
        <ele>274.0</ele>
        <time>2018-10-14T09:26:34Z</time>
      </trkpt>
      <trkpt lat="38.4185700" lon="-0.6578850">
        <ele>274.0</ele>
        <time>2018-10-14T09:26:35Z</time>
      </trkpt>
      <trkpt lat="38.4185330" lon="-0.6579500">
        <ele>274.0</ele>
        <time>2018-10-14T09:26:36Z</time>
      </trkpt>
      <trkpt lat="38.4185330" lon="-0.6579500">
        <ele>274.0</ele>
        <time>2018-10-14T09:26:37Z</time>
      </trkpt>
      <trkpt lat="38.4184550" lon="-0.6580800">
        <ele>274.0</ele>
        <time>2018-10-14T09:26:38Z</time>
      </trkpt>
      <trkpt lat="38.4184130" lon="-0.6581450">
        <ele>274.0</ele>
        <time>2018-10-14T09:26:39Z</time>
      </trkpt>
      <trkpt lat="38.4184130" lon="-0.6581450">
        <ele>274.0</ele>
        <time>2018-10-14T09:26:40Z</time>
      </trkpt>
      <trkpt lat="38.4183270" lon="-0.6582730">
        <ele>274.0</ele>
        <time>2018-10-14T09:26:41Z</time>
      </trkpt>
      <trkpt lat="38.4182830" lon="-0.6583350">
        <ele>275.0</ele>
        <time>2018-10-14T09:26:42Z</time>
      </trkpt>
      <trkpt lat="38.4182830" lon="-0.6583350">
        <ele>275.0</ele>
        <time>2018-10-14T09:26:43Z</time>
      </trkpt>
      <trkpt lat="38.4181900" lon="-0.6584500">
        <ele>275.0</ele>
        <time>2018-10-14T09:26:44Z</time>
      </trkpt>
      <trkpt lat="38.4181900" lon="-0.6584500">
        <ele>275.0</ele>
        <time>2018-10-14T09:26:45Z</time>
      </trkpt>
      <trkpt lat="38.4180770" lon="-0.6585370">
        <ele>275.0</ele>
        <time>2018-10-14T09:26:46Z</time>
      </trkpt>
      <trkpt lat="38.4180770" lon="-0.6585370">
        <ele>275.0</ele>
        <time>2018-10-14T09:26:47Z</time>
      </trkpt>
      <trkpt lat="38.4179570" lon="-0.6586100">
        <ele>275.0</ele>
        <time>2018-10-14T09:26:48Z</time>
      </trkpt>
      <trkpt lat="38.4179570" lon="-0.6586100">
        <ele>275.0</ele>
        <time>2018-10-14T09:26:49Z</time>
      </trkpt>
      <trkpt lat="38.4178380" lon="-0.6586900">
        <ele>275.0</ele>
        <time>2018-10-14T09:26:50Z</time>
      </trkpt>
      <trkpt lat="38.4177800" lon="-0.6587350">
        <ele>275.0</ele>
        <time>2018-10-14T09:26:51Z</time>
      </trkpt>
      <trkpt lat="38.4177800" lon="-0.6587350">
        <ele>275.0</ele>
        <time>2018-10-14T09:26:52Z</time>
      </trkpt>
      <trkpt lat="38.4176780" lon="-0.6588380">
        <ele>275.0</ele>
        <time>2018-10-14T09:26:53Z</time>
      </trkpt>
      <trkpt lat="38.4176300" lon="-0.6588980">
        <ele>275.0</ele>
        <time>2018-10-14T09:26:54Z</time>
      </trkpt>
      <trkpt lat="38.4176300" lon="-0.6588980">
        <ele>275.0</ele>
        <time>2018-10-14T09:26:55Z</time>
      </trkpt>
      <trkpt lat="38.4175370" lon="-0.6590230">
        <ele>274.0</ele>
        <time>2018-10-14T09:26:56Z</time>
      </trkpt>
      <trkpt lat="38.4174950" lon="-0.6590900">
        <ele>274.0</ele>
        <time>2018-10-14T09:26:57Z</time>
      </trkpt>
      <trkpt lat="38.4174950" lon="-0.6590900">
        <ele>274.0</ele>
        <time>2018-10-14T09:26:58Z</time>
      </trkpt>
      <trkpt lat="38.4174150" lon="-0.6592270">
        <ele>274.0</ele>
        <time>2018-10-14T09:26:59Z</time>
      </trkpt>
      <trkpt lat="38.4174150" lon="-0.6592270">
        <ele>274.0</ele>
        <time>2018-10-14T09:27:00Z</time>
      </trkpt>
      <trkpt lat="38.4173370" lon="-0.6593620">
        <ele>274.0</ele>
        <time>2018-10-14T09:27:01Z</time>
      </trkpt>
      <trkpt lat="38.4172970" lon="-0.6594280">
        <ele>274.0</ele>
        <time>2018-10-14T09:27:02Z</time>
      </trkpt>
      <trkpt lat="38.4172970" lon="-0.6594280">
        <ele>274.0</ele>
        <time>2018-10-14T09:27:03Z</time>
      </trkpt>
      <trkpt lat="38.4172170" lon="-0.6595650">
        <ele>274.0</ele>
        <time>2018-10-14T09:27:04Z</time>
      </trkpt>
      <trkpt lat="38.4172170" lon="-0.6595650">
        <ele>274.0</ele>
        <time>2018-10-14T09:27:05Z</time>
      </trkpt>
      <trkpt lat="38.4171420" lon="-0.6597080">
        <ele>274.0</ele>
        <time>2018-10-14T09:27:06Z</time>
      </trkpt>
      <trkpt lat="38.4171420" lon="-0.6597080">
        <ele>274.0</ele>
        <time>2018-10-14T09:27:07Z</time>
      </trkpt>
      <trkpt lat="38.4170750" lon="-0.6598620">
        <ele>274.0</ele>
        <time>2018-10-14T09:27:08Z</time>
      </trkpt>
      <trkpt lat="38.4170750" lon="-0.6598620">
        <ele>274.0</ele>
        <time>2018-10-14T09:27:09Z</time>
      </trkpt>
      <trkpt lat="38.4170180" lon="-0.6600180">
        <ele>274.0</ele>
        <time>2018-10-14T09:27:10Z</time>
      </trkpt>
      <trkpt lat="38.4169900" lon="-0.6600950">
        <ele>274.0</ele>
        <time>2018-10-14T09:27:11Z</time>
      </trkpt>
      <trkpt lat="38.4169630" lon="-0.6601730">
        <ele>274.0</ele>
        <time>2018-10-14T09:27:12Z</time>
      </trkpt>
      <trkpt lat="38.4169630" lon="-0.6601730">
        <ele>274.0</ele>
        <time>2018-10-14T09:27:13Z</time>
      </trkpt>
      <trkpt lat="38.4169050" lon="-0.6603330">
        <ele>274.0</ele>
        <time>2018-10-14T09:27:14Z</time>
      </trkpt>
      <trkpt lat="38.4169050" lon="-0.6603330">
        <ele>274.0</ele>
        <time>2018-10-14T09:27:15Z</time>
      </trkpt>
      <trkpt lat="38.4168420" lon="-0.6604900">
        <ele>274.0</ele>
        <time>2018-10-14T09:27:16Z</time>
      </trkpt>
      <trkpt lat="38.4168420" lon="-0.6604900">
        <ele>274.0</ele>
        <time>2018-10-14T09:27:17Z</time>
      </trkpt>
      <trkpt lat="38.4167800" lon="-0.6606480">
        <ele>274.0</ele>
        <time>2018-10-14T09:27:18Z</time>
      </trkpt>
      <trkpt lat="38.4167800" lon="-0.6606480">
        <ele>274.0</ele>
        <time>2018-10-14T09:27:19Z</time>
      </trkpt>
      <trkpt lat="38.4167200" lon="-0.6608020">
        <ele>274.0</ele>
        <time>2018-10-14T09:27:20Z</time>
      </trkpt>
      <trkpt lat="38.4167200" lon="-0.6608020">
        <ele>274.0</ele>
        <time>2018-10-14T09:27:21Z</time>
      </trkpt>
      <trkpt lat="38.4166630" lon="-0.6609530">
        <ele>274.0</ele>
        <time>2018-10-14T09:27:22Z</time>
      </trkpt>
      <trkpt lat="38.4166630" lon="-0.6609530">
        <ele>274.0</ele>
        <time>2018-10-14T09:27:23Z</time>
      </trkpt>
      <trkpt lat="38.4166030" lon="-0.6611000">
        <ele>274.0</ele>
        <time>2018-10-14T09:27:24Z</time>
      </trkpt>
      <trkpt lat="38.4166030" lon="-0.6611000">
        <ele>274.0</ele>
        <time>2018-10-14T09:27:25Z</time>
      </trkpt>
      <trkpt lat="38.4165470" lon="-0.6612520">
        <ele>274.0</ele>
        <time>2018-10-14T09:27:26Z</time>
      </trkpt>
      <trkpt lat="38.4165200" lon="-0.6613300">
        <ele>274.0</ele>
        <time>2018-10-14T09:27:27Z</time>
      </trkpt>
      <trkpt lat="38.4165200" lon="-0.6613300">
        <ele>274.0</ele>
        <time>2018-10-14T09:27:28Z</time>
      </trkpt>
      <trkpt lat="38.4164650" lon="-0.6614800">
        <ele>274.0</ele>
        <time>2018-10-14T09:27:29Z</time>
      </trkpt>
      <trkpt lat="38.4164650" lon="-0.6614800">
        <ele>274.0</ele>
        <time>2018-10-14T09:27:30Z</time>
      </trkpt>
      <trkpt lat="38.4164070" lon="-0.6616280">
        <ele>274.0</ele>
        <time>2018-10-14T09:27:31Z</time>
      </trkpt>
      <trkpt lat="38.4163780" lon="-0.6617030">
        <ele>274.0</ele>
        <time>2018-10-14T09:27:32Z</time>
      </trkpt>
      <trkpt lat="38.4163780" lon="-0.6617030">
        <ele>274.0</ele>
        <time>2018-10-14T09:27:33Z</time>
      </trkpt>
      <trkpt lat="38.4163250" lon="-0.6618530">
        <ele>274.0</ele>
        <time>2018-10-14T09:27:34Z</time>
      </trkpt>
      <trkpt lat="38.4163250" lon="-0.6618530">
        <ele>274.0</ele>
        <time>2018-10-14T09:27:35Z</time>
      </trkpt>
      <trkpt lat="38.4162830" lon="-0.6620120">
        <ele>274.0</ele>
        <time>2018-10-14T09:27:36Z</time>
      </trkpt>
      <trkpt lat="38.4162830" lon="-0.6620120">
        <ele>274.0</ele>
        <time>2018-10-14T09:27:37Z</time>
      </trkpt>
      <trkpt lat="38.4162570" lon="-0.6621780">
        <ele>274.0</ele>
        <time>2018-10-14T09:27:38Z</time>
      </trkpt>
      <trkpt lat="38.4162450" lon="-0.6622630">
        <ele>274.0</ele>
        <time>2018-10-14T09:27:39Z</time>
      </trkpt>
      <trkpt lat="38.4162450" lon="-0.6622630">
        <ele>274.0</ele>
        <time>2018-10-14T09:27:40Z</time>
      </trkpt>
      <trkpt lat="38.4162280" lon="-0.6624350">
        <ele>274.0</ele>
        <time>2018-10-14T09:27:41Z</time>
      </trkpt>
      <trkpt lat="38.4162220" lon="-0.6625220">
        <ele>273.0</ele>
        <time>2018-10-14T09:27:42Z</time>
      </trkpt>
      <trkpt lat="38.4162220" lon="-0.6625220">
        <ele>273.0</ele>
        <time>2018-10-14T09:27:43Z</time>
      </trkpt>
      <trkpt lat="38.4162080" lon="-0.6626930">
        <ele>273.0</ele>
        <time>2018-10-14T09:27:44Z</time>
      </trkpt>
      <trkpt lat="38.4161970" lon="-0.6627800">
        <ele>273.0</ele>
        <time>2018-10-14T09:27:45Z</time>
      </trkpt>
      <trkpt lat="38.4161970" lon="-0.6627800">
        <ele>273.0</ele>
        <time>2018-10-14T09:27:46Z</time>
      </trkpt>
      <trkpt lat="38.4161770" lon="-0.6629530">
        <ele>273.0</ele>
        <time>2018-10-14T09:27:47Z</time>
      </trkpt>
      <trkpt lat="38.4161720" lon="-0.6630400">
        <ele>273.0</ele>
        <time>2018-10-14T09:27:48Z</time>
      </trkpt>
      <trkpt lat="38.4161720" lon="-0.6630400">
        <ele>273.0</ele>
        <time>2018-10-14T09:27:49Z</time>
      </trkpt>
      <trkpt lat="38.4161680" lon="-0.6632150">
        <ele>273.0</ele>
        <time>2018-10-14T09:27:50Z</time>
      </trkpt>
      <trkpt lat="38.4161680" lon="-0.6632150">
        <ele>273.0</ele>
        <time>2018-10-14T09:27:51Z</time>
      </trkpt>
      <trkpt lat="38.4161350" lon="-0.6633830">
        <ele>273.0</ele>
        <time>2018-10-14T09:27:52Z</time>
      </trkpt>
      <trkpt lat="38.4161020" lon="-0.6634600">
        <ele>273.0</ele>
        <time>2018-10-14T09:27:53Z</time>
      </trkpt>
      <trkpt lat="38.4160650" lon="-0.6635330">
        <ele>273.0</ele>
        <time>2018-10-14T09:27:54Z</time>
      </trkpt>
      <trkpt lat="38.4160650" lon="-0.6635330">
        <ele>273.0</ele>
        <time>2018-10-14T09:27:55Z</time>
      </trkpt>
      <trkpt lat="38.4159830" lon="-0.6636750">
        <ele>273.0</ele>
        <time>2018-10-14T09:27:56Z</time>
      </trkpt>
      <trkpt lat="38.4159420" lon="-0.6637450">
        <ele>273.0</ele>
        <time>2018-10-14T09:27:57Z</time>
      </trkpt>
      <trkpt lat="38.4159420" lon="-0.6637450">
        <ele>273.0</ele>
        <time>2018-10-14T09:27:58Z</time>
      </trkpt>
      <trkpt lat="38.4158570" lon="-0.6638820">
        <ele>273.0</ele>
        <time>2018-10-14T09:27:59Z</time>
      </trkpt>
      <trkpt lat="38.4158120" lon="-0.6639500">
        <ele>273.0</ele>
        <time>2018-10-14T09:28:00Z</time>
      </trkpt>
      <trkpt lat="38.4158120" lon="-0.6639500">
        <ele>273.0</ele>
        <time>2018-10-14T09:28:01Z</time>
      </trkpt>
      <trkpt lat="38.4157220" lon="-0.6640830">
        <ele>273.0</ele>
        <time>2018-10-14T09:28:02Z</time>
      </trkpt>
      <trkpt lat="38.4157220" lon="-0.6640830">
        <ele>273.0</ele>
        <time>2018-10-14T09:28:03Z</time>
      </trkpt>
      <trkpt lat="38.4156330" lon="-0.6642170">
        <ele>273.0</ele>
        <time>2018-10-14T09:28:04Z</time>
      </trkpt>
      <trkpt lat="38.4156330" lon="-0.6642170">
        <ele>273.0</ele>
        <time>2018-10-14T09:28:05Z</time>
      </trkpt>
      <trkpt lat="38.4155430" lon="-0.6643470">
        <ele>273.0</ele>
        <time>2018-10-14T09:28:06Z</time>
      </trkpt>
      <trkpt lat="38.4155430" lon="-0.6643470">
        <ele>273.0</ele>
        <time>2018-10-14T09:28:07Z</time>
      </trkpt>
      <trkpt lat="38.4154520" lon="-0.6644750">
        <ele>273.0</ele>
        <time>2018-10-14T09:28:08Z</time>
      </trkpt>
      <trkpt lat="38.4154070" lon="-0.6645380">
        <ele>273.0</ele>
        <time>2018-10-14T09:28:09Z</time>
      </trkpt>
      <trkpt lat="38.4154070" lon="-0.6645380">
        <ele>273.0</ele>
        <time>2018-10-14T09:28:10Z</time>
      </trkpt>
      <trkpt lat="38.4153100" lon="-0.6646580">
        <ele>273.0</ele>
        <time>2018-10-14T09:28:11Z</time>
      </trkpt>
      <trkpt lat="38.4152620" lon="-0.6647180">
        <ele>273.0</ele>
        <time>2018-10-14T09:28:12Z</time>
      </trkpt>
      <trkpt lat="38.4152620" lon="-0.6647180">
        <ele>273.0</ele>
        <time>2018-10-14T09:28:13Z</time>
      </trkpt>
      <trkpt lat="38.4151650" lon="-0.6648380">
        <ele>273.0</ele>
        <time>2018-10-14T09:28:14Z</time>
      </trkpt>
      <trkpt lat="38.4151650" lon="-0.6648380">
        <ele>273.0</ele>
        <time>2018-10-14T09:28:15Z</time>
      </trkpt>
      <trkpt lat="38.4150630" lon="-0.6649550">
        <ele>273.0</ele>
        <time>2018-10-14T09:28:16Z</time>
      </trkpt>
      <trkpt lat="38.4150100" lon="-0.6650120">
        <ele>273.0</ele>
        <time>2018-10-14T09:28:17Z</time>
      </trkpt>
      <trkpt lat="38.4149580" lon="-0.6650650">
        <ele>273.0</ele>
        <time>2018-10-14T09:28:18Z</time>
      </trkpt>
      <trkpt lat="38.4149580" lon="-0.6650650">
        <ele>273.0</ele>
        <time>2018-10-14T09:28:19Z</time>
      </trkpt>
      <trkpt lat="38.4148550" lon="-0.6651680">
        <ele>273.0</ele>
        <time>2018-10-14T09:28:20Z</time>
      </trkpt>
      <trkpt lat="38.4148550" lon="-0.6651680">
        <ele>273.0</ele>
        <time>2018-10-14T09:28:21Z</time>
      </trkpt>
      <trkpt lat="38.4147470" lon="-0.6652780">
        <ele>273.0</ele>
        <time>2018-10-14T09:28:22Z</time>
      </trkpt>
      <trkpt lat="38.4147470" lon="-0.6652780">
        <ele>273.0</ele>
        <time>2018-10-14T09:28:23Z</time>
      </trkpt>
      <trkpt lat="38.4146500" lon="-0.6654000">
        <ele>273.0</ele>
        <time>2018-10-14T09:28:24Z</time>
      </trkpt>
      <trkpt lat="38.4146500" lon="-0.6654000">
        <ele>273.0</ele>
        <time>2018-10-14T09:28:25Z</time>
      </trkpt>
      <trkpt lat="38.4145600" lon="-0.6655320">
        <ele>273.0</ele>
        <time>2018-10-14T09:28:26Z</time>
      </trkpt>
      <trkpt lat="38.4145170" lon="-0.6655970">
        <ele>272.0</ele>
        <time>2018-10-14T09:28:27Z</time>
      </trkpt>
      <trkpt lat="38.4145170" lon="-0.6655970">
        <ele>272.0</ele>
        <time>2018-10-14T09:28:28Z</time>
      </trkpt>
      <trkpt lat="38.4144220" lon="-0.6657180">
        <ele>272.0</ele>
        <time>2018-10-14T09:28:29Z</time>
      </trkpt>
      <trkpt lat="38.4143730" lon="-0.6657800">
        <ele>272.0</ele>
        <time>2018-10-14T09:28:30Z</time>
      </trkpt>
      <trkpt lat="38.4143730" lon="-0.6657800">
        <ele>272.0</ele>
        <time>2018-10-14T09:28:31Z</time>
      </trkpt>
      <trkpt lat="38.4142900" lon="-0.6659080">
        <ele>272.0</ele>
        <time>2018-10-14T09:28:32Z</time>
      </trkpt>
      <trkpt lat="38.4142900" lon="-0.6659080">
        <ele>272.0</ele>
        <time>2018-10-14T09:28:33Z</time>
      </trkpt>
      <trkpt lat="38.4142220" lon="-0.6660370">
        <ele>272.0</ele>
        <time>2018-10-14T09:28:34Z</time>
      </trkpt>
      <trkpt lat="38.4142220" lon="-0.6660370">
        <ele>272.0</ele>
        <time>2018-10-14T09:28:35Z</time>
      </trkpt>
      <trkpt lat="38.4141680" lon="-0.6661720">
        <ele>272.0</ele>
        <time>2018-10-14T09:28:36Z</time>
      </trkpt>
      <trkpt lat="38.4141680" lon="-0.6661720">
        <ele>272.0</ele>
        <time>2018-10-14T09:28:37Z</time>
      </trkpt>
      <trkpt lat="38.4141320" lon="-0.6663170">
        <ele>272.0</ele>
        <time>2018-10-14T09:28:38Z</time>
      </trkpt>
      <trkpt lat="38.4141150" lon="-0.6663920">
        <ele>272.0</ele>
        <time>2018-10-14T09:28:39Z</time>
      </trkpt>
      <trkpt lat="38.4141150" lon="-0.6663920">
        <ele>272.0</ele>
        <time>2018-10-14T09:28:40Z</time>
      </trkpt>
      <trkpt lat="38.4140850" lon="-0.6665450">
        <ele>272.0</ele>
        <time>2018-10-14T09:28:41Z</time>
      </trkpt>
      <trkpt lat="38.4140700" lon="-0.6666220">
        <ele>272.0</ele>
        <time>2018-10-14T09:28:42Z</time>
      </trkpt>
      <trkpt lat="38.4140700" lon="-0.6666220">
        <ele>272.0</ele>
        <time>2018-10-14T09:28:43Z</time>
      </trkpt>
      <trkpt lat="38.4140370" lon="-0.6667770">
        <ele>272.0</ele>
        <time>2018-10-14T09:28:44Z</time>
      </trkpt>
      <trkpt lat="38.4140370" lon="-0.6667770">
        <ele>272.0</ele>
        <time>2018-10-14T09:28:45Z</time>
      </trkpt>
      <trkpt lat="38.4140030" lon="-0.6669270">
        <ele>272.0</ele>
        <time>2018-10-14T09:28:46Z</time>
      </trkpt>
      <trkpt lat="38.4139850" lon="-0.6670020">
        <ele>272.0</ele>
        <time>2018-10-14T09:28:47Z</time>
      </trkpt>
      <trkpt lat="38.4139850" lon="-0.6670020">
        <ele>272.0</ele>
        <time>2018-10-14T09:28:48Z</time>
      </trkpt>
      <trkpt lat="38.4139520" lon="-0.6671500">
        <ele>272.0</ele>
        <time>2018-10-14T09:28:49Z</time>
      </trkpt>
      <trkpt lat="38.4139350" lon="-0.6672220">
        <ele>272.0</ele>
        <time>2018-10-14T09:28:50Z</time>
      </trkpt>
      <trkpt lat="38.4139350" lon="-0.6672220">
        <ele>272.0</ele>
        <time>2018-10-14T09:28:51Z</time>
      </trkpt>
      <trkpt lat="38.4139120" lon="-0.6673700">
        <ele>272.0</ele>
        <time>2018-10-14T09:28:52Z</time>
      </trkpt>
      <trkpt lat="38.4139120" lon="-0.6673700">
        <ele>272.0</ele>
        <time>2018-10-14T09:28:53Z</time>
      </trkpt>
      <trkpt lat="38.4139020" lon="-0.6675200">
        <ele>272.0</ele>
        <time>2018-10-14T09:28:54Z</time>
      </trkpt>
      <trkpt lat="38.4139020" lon="-0.6675200">
        <ele>272.0</ele>
        <time>2018-10-14T09:28:55Z</time>
      </trkpt>
      <trkpt lat="38.4138830" lon="-0.6676700">
        <ele>273.0</ele>
        <time>2018-10-14T09:28:56Z</time>
      </trkpt>
      <trkpt lat="38.4138630" lon="-0.6677450">
        <ele>273.0</ele>
        <time>2018-10-14T09:28:57Z</time>
      </trkpt>
      <trkpt lat="38.4138370" lon="-0.6678150">
        <ele>273.0</ele>
        <time>2018-10-14T09:28:58Z</time>
      </trkpt>
      <trkpt lat="38.4138370" lon="-0.6678150">
        <ele>273.0</ele>
        <time>2018-10-14T09:28:59Z</time>
      </trkpt>
      <trkpt lat="38.4137680" lon="-0.6679450">
        <ele>273.0</ele>
        <time>2018-10-14T09:29:00Z</time>
      </trkpt>
      <trkpt lat="38.4137680" lon="-0.6679450">
        <ele>273.0</ele>
        <time>2018-10-14T09:29:01Z</time>
      </trkpt>
      <trkpt lat="38.4136980" lon="-0.6680630">
        <ele>273.0</ele>
        <time>2018-10-14T09:29:02Z</time>
      </trkpt>
      <trkpt lat="38.4136670" lon="-0.6681200">
        <ele>273.0</ele>
        <time>2018-10-14T09:29:03Z</time>
      </trkpt>
      <trkpt lat="38.4136670" lon="-0.6681200">
        <ele>273.0</ele>
        <time>2018-10-14T09:29:04Z</time>
      </trkpt>
      <trkpt lat="38.4136080" lon="-0.6682300">
        <ele>273.0</ele>
        <time>2018-10-14T09:29:05Z</time>
      </trkpt>
      <trkpt lat="38.4135770" lon="-0.6682870">
        <ele>273.0</ele>
        <time>2018-10-14T09:29:06Z</time>
      </trkpt>
      <trkpt lat="38.4135770" lon="-0.6682870">
        <ele>273.0</ele>
        <time>2018-10-14T09:29:07Z</time>
      </trkpt>
      <trkpt lat="38.4135170" lon="-0.6684080">
        <ele>273.0</ele>
        <time>2018-10-14T09:29:08Z</time>
      </trkpt>
      <trkpt lat="38.4134870" lon="-0.6684700">
        <ele>273.0</ele>
        <time>2018-10-14T09:29:09Z</time>
      </trkpt>
      <trkpt lat="38.4134870" lon="-0.6684700">
        <ele>273.0</ele>
        <time>2018-10-14T09:29:10Z</time>
      </trkpt>
      <trkpt lat="38.4134250" lon="-0.6685950">
        <ele>273.0</ele>
        <time>2018-10-14T09:29:11Z</time>
      </trkpt>
      <trkpt lat="38.4133950" lon="-0.6686550">
        <ele>273.0</ele>
        <time>2018-10-14T09:29:12Z</time>
      </trkpt>
      <trkpt lat="38.4133950" lon="-0.6686550">
        <ele>273.0</ele>
        <time>2018-10-14T09:29:13Z</time>
      </trkpt>
      <trkpt lat="38.4133270" lon="-0.6687680">
        <ele>273.0</ele>
        <time>2018-10-14T09:29:14Z</time>
      </trkpt>
      <trkpt lat="38.4133270" lon="-0.6687680">
        <ele>273.0</ele>
        <time>2018-10-14T09:29:15Z</time>
      </trkpt>
      <trkpt lat="38.4132530" lon="-0.6688820">
        <ele>273.0</ele>
        <time>2018-10-14T09:29:16Z</time>
      </trkpt>
      <trkpt lat="38.4132180" lon="-0.6689400">
        <ele>273.0</ele>
        <time>2018-10-14T09:29:17Z</time>
      </trkpt>
      <trkpt lat="38.4131870" lon="-0.6690020">
        <ele>273.0</ele>
        <time>2018-10-14T09:29:18Z</time>
      </trkpt>
      <trkpt lat="38.4131870" lon="-0.6690020">
        <ele>274.0</ele>
        <time>2018-10-14T09:29:19Z</time>
      </trkpt>
      <trkpt lat="38.4131270" lon="-0.6691230">
        <ele>274.0</ele>
        <time>2018-10-14T09:29:20Z</time>
      </trkpt>
      <trkpt lat="38.4131030" lon="-0.6691880">
        <ele>274.0</ele>
        <time>2018-10-14T09:29:21Z</time>
      </trkpt>
      <trkpt lat="38.4131030" lon="-0.6691880">
        <ele>274.0</ele>
        <time>2018-10-14T09:29:22Z</time>
      </trkpt>
      <trkpt lat="38.4130630" lon="-0.6693220">
        <ele>274.0</ele>
        <time>2018-10-14T09:29:23Z</time>
      </trkpt>
      <trkpt lat="38.4130430" lon="-0.6693900">
        <ele>274.0</ele>
        <time>2018-10-14T09:29:24Z</time>
      </trkpt>
      <trkpt lat="38.4130430" lon="-0.6693900">
        <ele>274.0</ele>
        <time>2018-10-14T09:29:25Z</time>
      </trkpt>
      <trkpt lat="38.4130050" lon="-0.6695280">
        <ele>274.0</ele>
        <time>2018-10-14T09:29:26Z</time>
      </trkpt>
      <trkpt lat="38.4130050" lon="-0.6695280">
        <ele>274.0</ele>
        <time>2018-10-14T09:29:27Z</time>
      </trkpt>
      <trkpt lat="38.4129630" lon="-0.6696620">
        <ele>274.0</ele>
        <time>2018-10-14T09:29:28Z</time>
      </trkpt>
      <trkpt lat="38.4129630" lon="-0.6696620">
        <ele>274.0</ele>
        <time>2018-10-14T09:29:29Z</time>
      </trkpt>
      <trkpt lat="38.4129170" lon="-0.6697920">
        <ele>274.0</ele>
        <time>2018-10-14T09:29:30Z</time>
      </trkpt>
      <trkpt lat="38.4129170" lon="-0.6697920">
        <ele>274.0</ele>
        <time>2018-10-14T09:29:31Z</time>
      </trkpt>
      <trkpt lat="38.4128630" lon="-0.6699150">
        <ele>275.0</ele>
        <time>2018-10-14T09:29:32Z</time>
      </trkpt>
      <trkpt lat="38.4128330" lon="-0.6699750">
        <ele>275.0</ele>
        <time>2018-10-14T09:29:33Z</time>
      </trkpt>
      <trkpt lat="38.4128330" lon="-0.6699750">
        <ele>275.0</ele>
        <time>2018-10-14T09:29:34Z</time>
      </trkpt>
      <trkpt lat="38.4127630" lon="-0.6700920">
        <ele>275.0</ele>
        <time>2018-10-14T09:29:35Z</time>
      </trkpt>
      <trkpt lat="38.4127250" lon="-0.6701470">
        <ele>276.0</ele>
        <time>2018-10-14T09:29:36Z</time>
      </trkpt>
      <trkpt lat="38.4127250" lon="-0.6701470">
        <ele>276.0</ele>
        <time>2018-10-14T09:29:37Z</time>
      </trkpt>
      <trkpt lat="38.4126480" lon="-0.6702580">
        <ele>276.0</ele>
        <time>2018-10-14T09:29:38Z</time>
      </trkpt>
      <trkpt lat="38.4126100" lon="-0.6703150">
        <ele>276.0</ele>
        <time>2018-10-14T09:29:39Z</time>
      </trkpt>
      <trkpt lat="38.4126100" lon="-0.6703150">
        <ele>276.0</ele>
        <time>2018-10-14T09:29:40Z</time>
      </trkpt>
      <trkpt lat="38.4125270" lon="-0.6704200">
        <ele>276.0</ele>
        <time>2018-10-14T09:29:41Z</time>
      </trkpt>
      <trkpt lat="38.4124800" lon="-0.6704670">
        <ele>276.0</ele>
        <time>2018-10-14T09:29:42Z</time>
      </trkpt>
      <trkpt lat="38.4124800" lon="-0.6704670">
        <ele>276.0</ele>
        <time>2018-10-14T09:29:43Z</time>
      </trkpt>
      <trkpt lat="38.4123880" lon="-0.6705600">
        <ele>276.0</ele>
        <time>2018-10-14T09:29:44Z</time>
      </trkpt>
      <trkpt lat="38.4123880" lon="-0.6705600">
        <ele>276.0</ele>
        <time>2018-10-14T09:29:45Z</time>
      </trkpt>
      <trkpt lat="38.4122930" lon="-0.6706430">
        <ele>276.0</ele>
        <time>2018-10-14T09:29:46Z</time>
      </trkpt>
      <trkpt lat="38.4122450" lon="-0.6706920">
        <ele>276.0</ele>
        <time>2018-10-14T09:29:47Z</time>
      </trkpt>
      <trkpt lat="38.4122020" lon="-0.6707470">
        <ele>276.0</ele>
        <time>2018-10-14T09:29:48Z</time>
      </trkpt>
      <trkpt lat="38.4122020" lon="-0.6707470">
        <ele>276.0</ele>
        <time>2018-10-14T09:29:49Z</time>
      </trkpt>
      <trkpt lat="38.4121200" lon="-0.6708730">
        <ele>276.0</ele>
        <time>2018-10-14T09:29:50Z</time>
      </trkpt>
      <trkpt lat="38.4120820" lon="-0.6709370">
        <ele>276.0</ele>
        <time>2018-10-14T09:29:51Z</time>
      </trkpt>
      <trkpt lat="38.4120820" lon="-0.6709370">
        <ele>276.0</ele>
        <time>2018-10-14T09:29:52Z</time>
      </trkpt>
      <trkpt lat="38.4120070" lon="-0.6710630">
        <ele>276.0</ele>
        <time>2018-10-14T09:29:53Z</time>
      </trkpt>
      <trkpt lat="38.4120070" lon="-0.6710630">
        <ele>276.0</ele>
        <time>2018-10-14T09:29:54Z</time>
      </trkpt>
      <trkpt lat="38.4119330" lon="-0.6711950">
        <ele>276.0</ele>
        <time>2018-10-14T09:29:55Z</time>
      </trkpt>
      <trkpt lat="38.4118970" lon="-0.6712600">
        <ele>276.0</ele>
        <time>2018-10-14T09:29:56Z</time>
      </trkpt>
      <trkpt lat="38.4118970" lon="-0.6712600">
        <ele>276.0</ele>
        <time>2018-10-14T09:29:57Z</time>
      </trkpt>
      <trkpt lat="38.4118280" lon="-0.6713950">
        <ele>276.0</ele>
        <time>2018-10-14T09:29:58Z</time>
      </trkpt>
      <trkpt lat="38.4118280" lon="-0.6713950">
        <ele>275.0</ele>
        <time>2018-10-14T09:29:59Z</time>
      </trkpt>
      <trkpt lat="38.4117670" lon="-0.6715220">
        <ele>275.0</ele>
        <time>2018-10-14T09:30:00Z</time>
      </trkpt>
      <trkpt lat="38.4117670" lon="-0.6715220">
        <ele>275.0</ele>
        <time>2018-10-14T09:30:01Z</time>
      </trkpt>
      <trkpt lat="38.4117030" lon="-0.6716550">
        <ele>275.0</ele>
        <time>2018-10-14T09:30:02Z</time>
      </trkpt>
      <trkpt lat="38.4116700" lon="-0.6717220">
        <ele>275.0</ele>
        <time>2018-10-14T09:30:03Z</time>
      </trkpt>
      <trkpt lat="38.4116700" lon="-0.6717220">
        <ele>275.0</ele>
        <time>2018-10-14T09:30:04Z</time>
      </trkpt>
      <trkpt lat="38.4116020" lon="-0.6718570">
        <ele>275.0</ele>
        <time>2018-10-14T09:30:05Z</time>
      </trkpt>
      <trkpt lat="38.4116020" lon="-0.6718570">
        <ele>275.0</ele>
        <time>2018-10-14T09:30:06Z</time>
      </trkpt>
      <trkpt lat="38.4115320" lon="-0.6719900">
        <ele>276.0</ele>
        <time>2018-10-14T09:30:07Z</time>
      </trkpt>
      <trkpt lat="38.4115320" lon="-0.6719900">
        <ele>276.0</ele>
        <time>2018-10-14T09:30:08Z</time>
      </trkpt>
      <trkpt lat="38.4114630" lon="-0.6721230">
        <ele>276.0</ele>
        <time>2018-10-14T09:30:09Z</time>
      </trkpt>
      <trkpt lat="38.4114630" lon="-0.6721230">
        <ele>276.0</ele>
        <time>2018-10-14T09:30:10Z</time>
      </trkpt>
      <trkpt lat="38.4113930" lon="-0.6722470">
        <ele>276.0</ele>
        <time>2018-10-14T09:30:11Z</time>
      </trkpt>
      <trkpt lat="38.4113930" lon="-0.6722470">
        <ele>276.0</ele>
        <time>2018-10-14T09:30:12Z</time>
      </trkpt>
      <trkpt lat="38.4113230" lon="-0.6723770">
        <ele>276.0</ele>
        <time>2018-10-14T09:30:13Z</time>
      </trkpt>
      <trkpt lat="38.4112880" lon="-0.6724400">
        <ele>276.0</ele>
        <time>2018-10-14T09:30:14Z</time>
      </trkpt>
      <trkpt lat="38.4112880" lon="-0.6724400">
        <ele>276.0</ele>
        <time>2018-10-14T09:30:15Z</time>
      </trkpt>
      <trkpt lat="38.4112130" lon="-0.6725630">
        <ele>276.0</ele>
        <time>2018-10-14T09:30:16Z</time>
      </trkpt>
      <trkpt lat="38.4112130" lon="-0.6725630">
        <ele>276.0</ele>
        <time>2018-10-14T09:30:17Z</time>
      </trkpt>
      <trkpt lat="38.4111330" lon="-0.6726820">
        <ele>276.0</ele>
        <time>2018-10-14T09:30:18Z</time>
      </trkpt>
      <trkpt lat="38.4111330" lon="-0.6726820">
        <ele>276.0</ele>
        <time>2018-10-14T09:30:19Z</time>
      </trkpt>
      <trkpt lat="38.4110550" lon="-0.6728030">
        <ele>276.0</ele>
        <time>2018-10-14T09:30:20Z</time>
      </trkpt>
      <trkpt lat="38.4110150" lon="-0.6728600">
        <ele>276.0</ele>
        <time>2018-10-14T09:30:21Z</time>
      </trkpt>
      <trkpt lat="38.4110150" lon="-0.6728600">
        <ele>276.0</ele>
        <time>2018-10-14T09:30:22Z</time>
      </trkpt>
      <trkpt lat="38.4109330" lon="-0.6729720">
        <ele>276.0</ele>
        <time>2018-10-14T09:30:23Z</time>
      </trkpt>
      <trkpt lat="38.4108900" lon="-0.6730220">
        <ele>276.0</ele>
        <time>2018-10-14T09:30:24Z</time>
      </trkpt>
      <trkpt lat="38.4108900" lon="-0.6730220">
        <ele>276.0</ele>
        <time>2018-10-14T09:30:25Z</time>
      </trkpt>
      <trkpt lat="38.4108030" lon="-0.6731220">
        <ele>276.0</ele>
        <time>2018-10-14T09:30:26Z</time>
      </trkpt>
      <trkpt lat="38.4108030" lon="-0.6731220">
        <ele>276.0</ele>
        <time>2018-10-14T09:30:27Z</time>
      </trkpt>
      <trkpt lat="38.4107150" lon="-0.6732170">
        <ele>276.0</ele>
        <time>2018-10-14T09:30:28Z</time>
      </trkpt>
      <trkpt lat="38.4107150" lon="-0.6732170">
        <ele>276.0</ele>
        <time>2018-10-14T09:30:29Z</time>
      </trkpt>
      <trkpt lat="38.4106250" lon="-0.6733080">
        <ele>276.0</ele>
        <time>2018-10-14T09:30:30Z</time>
      </trkpt>
      <trkpt lat="38.4106250" lon="-0.6733080">
        <ele>276.0</ele>
        <time>2018-10-14T09:30:31Z</time>
      </trkpt>
      <trkpt lat="38.4105350" lon="-0.6734000">
        <ele>276.0</ele>
        <time>2018-10-14T09:30:32Z</time>
      </trkpt>
      <trkpt lat="38.4105350" lon="-0.6734000">
        <ele>276.0</ele>
        <time>2018-10-14T09:30:33Z</time>
      </trkpt>
      <trkpt lat="38.4104450" lon="-0.6734920">
        <ele>276.0</ele>
        <time>2018-10-14T09:30:34Z</time>
      </trkpt>
      <trkpt lat="38.4104450" lon="-0.6734920">
        <ele>276.0</ele>
        <time>2018-10-14T09:30:35Z</time>
      </trkpt>
      <trkpt lat="38.4103550" lon="-0.6735880">
        <ele>276.0</ele>
        <time>2018-10-14T09:30:36Z</time>
      </trkpt>
      <trkpt lat="38.4103550" lon="-0.6735880">
        <ele>276.0</ele>
        <time>2018-10-14T09:30:37Z</time>
      </trkpt>
      <trkpt lat="38.4102620" lon="-0.6736850">
        <ele>276.0</ele>
        <time>2018-10-14T09:30:38Z</time>
      </trkpt>
      <trkpt lat="38.4102620" lon="-0.6736850">
        <ele>276.0</ele>
        <time>2018-10-14T09:30:39Z</time>
      </trkpt>
      <trkpt lat="38.4101720" lon="-0.6737820">
        <ele>276.0</ele>
        <time>2018-10-14T09:30:40Z</time>
      </trkpt>
      <trkpt lat="38.4101720" lon="-0.6737820">
        <ele>276.0</ele>
        <time>2018-10-14T09:30:41Z</time>
      </trkpt>
      <trkpt lat="38.4100780" lon="-0.6738720">
        <ele>276.0</ele>
        <time>2018-10-14T09:30:42Z</time>
      </trkpt>
      <trkpt lat="38.4100780" lon="-0.6738720">
        <ele>276.0</ele>
        <time>2018-10-14T09:30:43Z</time>
      </trkpt>
      <trkpt lat="38.4099870" lon="-0.6739550">
        <ele>276.0</ele>
        <time>2018-10-14T09:30:44Z</time>
      </trkpt>
      <trkpt lat="38.4099870" lon="-0.6739550">
        <ele>276.0</ele>
        <time>2018-10-14T09:30:45Z</time>
      </trkpt>
      <trkpt lat="38.4099080" lon="-0.6740380">
        <ele>276.0</ele>
        <time>2018-10-14T09:30:46Z</time>
      </trkpt>
      <trkpt lat="38.4099080" lon="-0.6740380">
        <ele>276.0</ele>
        <time>2018-10-14T09:30:47Z</time>
      </trkpt>
      <trkpt lat="38.4098500" lon="-0.6741370">
        <ele>276.0</ele>
        <time>2018-10-14T09:30:48Z</time>
      </trkpt>
      <trkpt lat="38.4098500" lon="-0.6741370">
        <ele>276.0</ele>
        <time>2018-10-14T09:30:49Z</time>
      </trkpt>
      <trkpt lat="38.4098050" lon="-0.6742370">
        <ele>276.0</ele>
        <time>2018-10-14T09:30:50Z</time>
      </trkpt>
      <trkpt lat="38.4098050" lon="-0.6742370">
        <ele>276.0</ele>
        <time>2018-10-14T09:30:51Z</time>
      </trkpt>
      <trkpt lat="38.4097650" lon="-0.6743320">
        <ele>276.0</ele>
        <time>2018-10-14T09:30:52Z</time>
      </trkpt>
      <trkpt lat="38.4097450" lon="-0.6743780">
        <ele>276.0</ele>
        <time>2018-10-14T09:30:53Z</time>
      </trkpt>
      <trkpt lat="38.4097450" lon="-0.6743780">
        <ele>276.0</ele>
        <time>2018-10-14T09:30:54Z</time>
      </trkpt>
      <trkpt lat="38.4097100" lon="-0.6744820">
        <ele>276.0</ele>
        <time>2018-10-14T09:30:55Z</time>
      </trkpt>
      <trkpt lat="38.4097100" lon="-0.6744820">
        <ele>276.0</ele>
        <time>2018-10-14T09:30:56Z</time>
      </trkpt>
      <trkpt lat="38.4096700" lon="-0.6745950">
        <ele>277.0</ele>
        <time>2018-10-14T09:30:57Z</time>
      </trkpt>
      <trkpt lat="38.4096700" lon="-0.6745950">
        <ele>277.0</ele>
        <time>2018-10-14T09:30:58Z</time>
      </trkpt>
      <trkpt lat="38.4096270" lon="-0.6747370">
        <ele>277.0</ele>
        <time>2018-10-14T09:30:59Z</time>
      </trkpt>
      <trkpt lat="38.4096050" lon="-0.6748150">
        <ele>277.0</ele>
        <time>2018-10-14T09:31:00Z</time>
      </trkpt>
      <trkpt lat="38.4096050" lon="-0.6748150">
        <ele>277.0</ele>
        <time>2018-10-14T09:31:01Z</time>
      </trkpt>
      <trkpt lat="38.4095700" lon="-0.6749830">
        <ele>277.0</ele>
        <time>2018-10-14T09:31:02Z</time>
      </trkpt>
      <trkpt lat="38.4095570" lon="-0.6750700">
        <ele>277.0</ele>
        <time>2018-10-14T09:31:03Z</time>
      </trkpt>
      <trkpt lat="38.4095570" lon="-0.6750700">
        <ele>277.0</ele>
        <time>2018-10-14T09:31:04Z</time>
      </trkpt>
      <trkpt lat="38.4095380" lon="-0.6752420">
        <ele>277.0</ele>
        <time>2018-10-14T09:31:05Z</time>
      </trkpt>
      <trkpt lat="38.4095300" lon="-0.6753270">
        <ele>277.0</ele>
        <time>2018-10-14T09:31:06Z</time>
      </trkpt>
      <trkpt lat="38.4095220" lon="-0.6754100">
        <ele>277.0</ele>
        <time>2018-10-14T09:31:07Z</time>
      </trkpt>
      <trkpt lat="38.4095220" lon="-0.6754100">
        <ele>277.0</ele>
        <time>2018-10-14T09:31:08Z</time>
      </trkpt>
      <trkpt lat="38.4095050" lon="-0.6755730">
        <ele>277.0</ele>
        <time>2018-10-14T09:31:09Z</time>
      </trkpt>
      <trkpt lat="38.4095050" lon="-0.6755730">
        <ele>277.0</ele>
        <time>2018-10-14T09:31:10Z</time>
      </trkpt>
      <trkpt lat="38.4094950" lon="-0.6757350">
        <ele>277.0</ele>
        <time>2018-10-14T09:31:11Z</time>
      </trkpt>
      <trkpt lat="38.4094920" lon="-0.6758150">
        <ele>277.0</ele>
        <time>2018-10-14T09:31:12Z</time>
      </trkpt>
      <trkpt lat="38.4094920" lon="-0.6758150">
        <ele>277.0</ele>
        <time>2018-10-14T09:31:13Z</time>
      </trkpt>
      <trkpt lat="38.4094780" lon="-0.6759750">
        <ele>277.0</ele>
        <time>2018-10-14T09:31:14Z</time>
      </trkpt>
      <trkpt lat="38.4094780" lon="-0.6759750">
        <ele>277.0</ele>
        <time>2018-10-14T09:31:15Z</time>
      </trkpt>
      <trkpt lat="38.4094620" lon="-0.6761330">
        <ele>277.0</ele>
        <time>2018-10-14T09:31:16Z</time>
      </trkpt>
      <trkpt lat="38.4094620" lon="-0.6761330">
        <ele>277.0</ele>
        <time>2018-10-14T09:31:17Z</time>
      </trkpt>
      <trkpt lat="38.4094720" lon="-0.6762920">
        <ele>277.0</ele>
        <time>2018-10-14T09:31:18Z</time>
      </trkpt>
      <trkpt lat="38.4094720" lon="-0.6762920">
        <ele>277.0</ele>
        <time>2018-10-14T09:31:19Z</time>
      </trkpt>
      <trkpt lat="38.4094950" lon="-0.6764430">
        <ele>277.0</ele>
        <time>2018-10-14T09:31:20Z</time>
      </trkpt>
      <trkpt lat="38.4095020" lon="-0.6765180">
        <ele>277.0</ele>
        <time>2018-10-14T09:31:21Z</time>
      </trkpt>
      <trkpt lat="38.4095020" lon="-0.6765180">
        <ele>277.0</ele>
        <time>2018-10-14T09:31:22Z</time>
      </trkpt>
      <trkpt lat="38.4094950" lon="-0.6766680">
        <ele>278.0</ele>
        <time>2018-10-14T09:31:23Z</time>
      </trkpt>
      <trkpt lat="38.4094900" lon="-0.6767420">
        <ele>278.0</ele>
        <time>2018-10-14T09:31:24Z</time>
      </trkpt>
      <trkpt lat="38.4094900" lon="-0.6767420">
        <ele>278.0</ele>
        <time>2018-10-14T09:31:25Z</time>
      </trkpt>
      <trkpt lat="38.4094920" lon="-0.6768800">
        <ele>278.0</ele>
        <time>2018-10-14T09:31:26Z</time>
      </trkpt>
      <trkpt lat="38.4094920" lon="-0.6768800">
        <ele>278.0</ele>
        <time>2018-10-14T09:31:27Z</time>
      </trkpt>
      <trkpt lat="38.4094880" lon="-0.6770070">
        <ele>279.0</ele>
        <time>2018-10-14T09:31:28Z</time>
      </trkpt>
      <trkpt lat="38.4094820" lon="-0.6770630">
        <ele>279.0</ele>
        <time>2018-10-14T09:31:29Z</time>
      </trkpt>
      <trkpt lat="38.4094720" lon="-0.6771170">
        <ele>279.0</ele>
        <time>2018-10-14T09:31:30Z</time>
      </trkpt>
      <trkpt lat="38.4094720" lon="-0.6771170">
        <ele>279.0</ele>
        <time>2018-10-14T09:31:31Z</time>
      </trkpt>
      <trkpt lat="38.4094450" lon="-0.6772120">
        <ele>279.0</ele>
        <time>2018-10-14T09:31:32Z</time>
      </trkpt>
      <trkpt lat="38.4094450" lon="-0.6772120">
        <ele>279.0</ele>
        <time>2018-10-14T09:31:33Z</time>
      </trkpt>
      <trkpt lat="38.4094170" lon="-0.6773030">
        <ele>279.0</ele>
        <time>2018-10-14T09:31:34Z</time>
      </trkpt>
      <trkpt lat="38.4094020" lon="-0.6773500">
        <ele>279.0</ele>
        <time>2018-10-14T09:31:35Z</time>
      </trkpt>
      <trkpt lat="38.4093870" lon="-0.6773980">
        <ele>279.0</ele>
        <time>2018-10-14T09:31:36Z</time>
      </trkpt>
      <trkpt lat="38.4093870" lon="-0.6773980">
        <ele>279.0</ele>
        <time>2018-10-14T09:31:37Z</time>
      </trkpt>
      <trkpt lat="38.4093600" lon="-0.6774880">
        <ele>279.0</ele>
        <time>2018-10-14T09:31:38Z</time>
      </trkpt>
      <trkpt lat="38.4093600" lon="-0.6774880">
        <ele>279.0</ele>
        <time>2018-10-14T09:31:39Z</time>
      </trkpt>
      <trkpt lat="38.4093400" lon="-0.6775820">
        <ele>279.0</ele>
        <time>2018-10-14T09:31:40Z</time>
      </trkpt>
      <trkpt lat="38.4093400" lon="-0.6775820">
        <ele>279.0</ele>
        <time>2018-10-14T09:31:41Z</time>
      </trkpt>
      <trkpt lat="38.4093170" lon="-0.6776720">
        <ele>279.0</ele>
        <time>2018-10-14T09:31:42Z</time>
      </trkpt>
      <trkpt lat="38.4093170" lon="-0.6776720">
        <ele>279.0</ele>
        <time>2018-10-14T09:31:43Z</time>
      </trkpt>
      <trkpt lat="38.4092970" lon="-0.6777570">
        <ele>279.0</ele>
        <time>2018-10-14T09:31:44Z</time>
      </trkpt>
      <trkpt lat="38.4092970" lon="-0.6777570">
        <ele>279.0</ele>
        <time>2018-10-14T09:31:45Z</time>
      </trkpt>
      <trkpt lat="38.4092780" lon="-0.6778400">
        <ele>279.0</ele>
        <time>2018-10-14T09:31:46Z</time>
      </trkpt>
      <trkpt lat="38.4092780" lon="-0.6778400">
        <ele>279.0</ele>
        <time>2018-10-14T09:31:47Z</time>
      </trkpt>
      <trkpt lat="38.4092630" lon="-0.6779280">
        <ele>279.0</ele>
        <time>2018-10-14T09:31:48Z</time>
      </trkpt>
      <trkpt lat="38.4092630" lon="-0.6779280">
        <ele>279.0</ele>
        <time>2018-10-14T09:31:49Z</time>
      </trkpt>
      <trkpt lat="38.4092500" lon="-0.6780150">
        <ele>279.0</ele>
        <time>2018-10-14T09:31:50Z</time>
      </trkpt>
      <trkpt lat="38.4092500" lon="-0.6780150">
        <ele>279.0</ele>
        <time>2018-10-14T09:31:51Z</time>
      </trkpt>
      <trkpt lat="38.4092420" lon="-0.6780930">
        <ele>279.0</ele>
        <time>2018-10-14T09:31:52Z</time>
      </trkpt>
      <trkpt lat="38.4092420" lon="-0.6780930">
        <ele>279.0</ele>
        <time>2018-10-14T09:31:53Z</time>
      </trkpt>
      <trkpt lat="38.4092400" lon="-0.6781670">
        <ele>279.0</ele>
        <time>2018-10-14T09:31:54Z</time>
      </trkpt>
      <trkpt lat="38.4092400" lon="-0.6781670">
        <ele>279.0</ele>
        <time>2018-10-14T09:31:55Z</time>
      </trkpt>
      <trkpt lat="38.4092300" lon="-0.6782380">
        <ele>279.0</ele>
        <time>2018-10-14T09:31:56Z</time>
      </trkpt>
      <trkpt lat="38.4092220" lon="-0.6782700">
        <ele>279.0</ele>
        <time>2018-10-14T09:31:57Z</time>
      </trkpt>
      <trkpt lat="38.4092220" lon="-0.6782700">
        <ele>279.0</ele>
        <time>2018-10-14T09:31:58Z</time>
      </trkpt>
      <trkpt lat="38.4092120" lon="-0.6783000">
        <ele>279.0</ele>
        <time>2018-10-14T09:31:59Z</time>
      </trkpt>
      <trkpt lat="38.4092120" lon="-0.6783000">
        <ele>279.0</ele>
        <time>2018-10-14T09:32:00Z</time>
      </trkpt>
      <trkpt lat="38.4092130" lon="-0.6783000">
        <ele>279.0</ele>
        <time>2018-10-14T09:32:01Z</time>
      </trkpt>
      <trkpt lat="38.4092130" lon="-0.6783000">
        <ele>279.0</ele>
        <time>2018-10-14T09:32:02Z</time>
      </trkpt>
      <trkpt lat="38.4092130" lon="-0.6783000">
        <ele>279.0</ele>
        <time>2018-10-14T09:32:03Z</time>
      </trkpt>
      <trkpt lat="38.4092180" lon="-0.6783180">
        <ele>279.0</ele>
        <time>2018-10-14T09:34:09Z</time>
      </trkpt>
      <trkpt lat="38.4092180" lon="-0.6783180">
        <ele>279.0</ele>
        <time>2018-10-14T09:34:10Z</time>
      </trkpt>
      <trkpt lat="38.4091930" lon="-0.6783270">
        <ele>279.0</ele>
        <time>2018-10-14T09:34:11Z</time>
      </trkpt>
      <trkpt lat="38.4091900" lon="-0.6783180">
        <ele>279.0</ele>
        <time>2018-10-14T09:34:12Z</time>
      </trkpt>
      <trkpt lat="38.4091900" lon="-0.6783180">
        <ele>279.0</ele>
        <time>2018-10-14T09:34:13Z</time>
      </trkpt>
      <trkpt lat="38.4092050" lon="-0.6782900">
        <ele>278.0</ele>
        <time>2018-10-14T09:34:14Z</time>
      </trkpt>
      <trkpt lat="38.4092050" lon="-0.6782900">
        <ele>278.0</ele>
        <time>2018-10-14T09:34:15Z</time>
      </trkpt>
      <trkpt lat="38.4092200" lon="-0.6782520">
        <ele>278.0</ele>
        <time>2018-10-14T09:34:16Z</time>
      </trkpt>
      <trkpt lat="38.4092200" lon="-0.6782520">
        <ele>278.0</ele>
        <time>2018-10-14T09:34:17Z</time>
      </trkpt>
      <trkpt lat="38.4092320" lon="-0.6782020">
        <ele>278.0</ele>
        <time>2018-10-14T09:34:18Z</time>
      </trkpt>
      <trkpt lat="38.4092350" lon="-0.6781700">
        <ele>278.0</ele>
        <time>2018-10-14T09:34:19Z</time>
      </trkpt>
      <trkpt lat="38.4092350" lon="-0.6781700">
        <ele>278.0</ele>
        <time>2018-10-14T09:34:20Z</time>
      </trkpt>
      <trkpt lat="38.4092420" lon="-0.6780900">
        <ele>278.0</ele>
        <time>2018-10-14T09:34:21Z</time>
      </trkpt>
      <trkpt lat="38.4092420" lon="-0.6780900">
        <ele>278.0</ele>
        <time>2018-10-14T09:34:22Z</time>
      </trkpt>
      <trkpt lat="38.4092530" lon="-0.6780030">
        <ele>278.0</ele>
        <time>2018-10-14T09:34:23Z</time>
      </trkpt>
      <trkpt lat="38.4092530" lon="-0.6780030">
        <ele>278.0</ele>
        <time>2018-10-14T09:34:24Z</time>
      </trkpt>
      <trkpt lat="38.4092670" lon="-0.6779070">
        <ele>278.0</ele>
        <time>2018-10-14T09:34:25Z</time>
      </trkpt>
      <trkpt lat="38.4092670" lon="-0.6779070">
        <ele>278.0</ele>
        <time>2018-10-14T09:34:26Z</time>
      </trkpt>
      <trkpt lat="38.4092870" lon="-0.6778030">
        <ele>278.0</ele>
        <time>2018-10-14T09:34:27Z</time>
      </trkpt>
      <trkpt lat="38.4092870" lon="-0.6778030">
        <ele>278.0</ele>
        <time>2018-10-14T09:34:28Z</time>
      </trkpt>
      <trkpt lat="38.4093100" lon="-0.6777000">
        <ele>278.0</ele>
        <time>2018-10-14T09:34:29Z</time>
      </trkpt>
      <trkpt lat="38.4093100" lon="-0.6777000">
        <ele>278.0</ele>
        <time>2018-10-14T09:34:30Z</time>
      </trkpt>
      <trkpt lat="38.4093380" lon="-0.6775980">
        <ele>278.0</ele>
        <time>2018-10-14T09:34:31Z</time>
      </trkpt>
      <trkpt lat="38.4093380" lon="-0.6775980">
        <ele>278.0</ele>
        <time>2018-10-14T09:34:32Z</time>
      </trkpt>
      <trkpt lat="38.4093670" lon="-0.6774970">
        <ele>278.0</ele>
        <time>2018-10-14T09:34:33Z</time>
      </trkpt>
      <trkpt lat="38.4093670" lon="-0.6774970">
        <ele>278.0</ele>
        <time>2018-10-14T09:34:34Z</time>
      </trkpt>
      <trkpt lat="38.4093920" lon="-0.6773980">
        <ele>278.0</ele>
        <time>2018-10-14T09:34:35Z</time>
      </trkpt>
      <trkpt lat="38.4093920" lon="-0.6773980">
        <ele>278.0</ele>
        <time>2018-10-14T09:34:36Z</time>
      </trkpt>
      <trkpt lat="38.4094180" lon="-0.6772950">
        <ele>278.0</ele>
        <time>2018-10-14T09:34:37Z</time>
      </trkpt>
      <trkpt lat="38.4094350" lon="-0.6772450">
        <ele>278.0</ele>
        <time>2018-10-14T09:34:38Z</time>
      </trkpt>
      <trkpt lat="38.4094480" lon="-0.6771920">
        <ele>278.0</ele>
        <time>2018-10-14T09:34:39Z</time>
      </trkpt>
      <trkpt lat="38.4094480" lon="-0.6771920">
        <ele>278.0</ele>
        <time>2018-10-14T09:34:40Z</time>
      </trkpt>
      <trkpt lat="38.4094700" lon="-0.6770820">
        <ele>279.0</ele>
        <time>2018-10-14T09:34:41Z</time>
      </trkpt>
      <trkpt lat="38.4094700" lon="-0.6770820">
        <ele>279.0</ele>
        <time>2018-10-14T09:34:42Z</time>
      </trkpt>
      <trkpt lat="38.4094830" lon="-0.6769670">
        <ele>279.0</ele>
        <time>2018-10-14T09:34:43Z</time>
      </trkpt>
      <trkpt lat="38.4094880" lon="-0.6769100">
        <ele>279.0</ele>
        <time>2018-10-14T09:34:44Z</time>
      </trkpt>
      <trkpt lat="38.4094880" lon="-0.6769100">
        <ele>279.0</ele>
        <time>2018-10-14T09:34:45Z</time>
      </trkpt>
      <trkpt lat="38.4094900" lon="-0.6767930">
        <ele>279.0</ele>
        <time>2018-10-14T09:34:46Z</time>
      </trkpt>
      <trkpt lat="38.4094900" lon="-0.6767930">
        <ele>279.0</ele>
        <time>2018-10-14T09:34:47Z</time>
      </trkpt>
      <trkpt lat="38.4094950" lon="-0.6766680">
        <ele>279.0</ele>
        <time>2018-10-14T09:34:48Z</time>
      </trkpt>
      <trkpt lat="38.4094980" lon="-0.6766050">
        <ele>279.0</ele>
        <time>2018-10-14T09:34:49Z</time>
      </trkpt>
      <trkpt lat="38.4094980" lon="-0.6766050">
        <ele>279.0</ele>
        <time>2018-10-14T09:34:50Z</time>
      </trkpt>
      <trkpt lat="38.4095050" lon="-0.6764730">
        <ele>279.0</ele>
        <time>2018-10-14T09:34:51Z</time>
      </trkpt>
      <trkpt lat="38.4095050" lon="-0.6764730">
        <ele>279.0</ele>
        <time>2018-10-14T09:34:52Z</time>
      </trkpt>
      <trkpt lat="38.4094970" lon="-0.6763350">
        <ele>278.0</ele>
        <time>2018-10-14T09:34:53Z</time>
      </trkpt>
      <trkpt lat="38.4094970" lon="-0.6763350">
        <ele>278.0</ele>
        <time>2018-10-14T09:34:54Z</time>
      </trkpt>
      <trkpt lat="38.4094820" lon="-0.6761950">
        <ele>278.0</ele>
        <time>2018-10-14T09:34:55Z</time>
      </trkpt>
      <trkpt lat="38.4094730" lon="-0.6761220">
        <ele>278.0</ele>
        <time>2018-10-14T09:34:56Z</time>
      </trkpt>
      <trkpt lat="38.4094730" lon="-0.6761220">
        <ele>278.0</ele>
        <time>2018-10-14T09:34:57Z</time>
      </trkpt>
      <trkpt lat="38.4094700" lon="-0.6759800">
        <ele>278.0</ele>
        <time>2018-10-14T09:34:58Z</time>
      </trkpt>
      <trkpt lat="38.4094700" lon="-0.6759800">
        <ele>278.0</ele>
        <time>2018-10-14T09:34:59Z</time>
      </trkpt>
      <trkpt lat="38.4094830" lon="-0.6758400">
        <ele>278.0</ele>
        <time>2018-10-14T09:35:00Z</time>
      </trkpt>
      <trkpt lat="38.4094920" lon="-0.6757720">
        <ele>277.0</ele>
        <time>2018-10-14T09:35:01Z</time>
      </trkpt>
      <trkpt lat="38.4094920" lon="-0.6757720">
        <ele>277.0</ele>
        <time>2018-10-14T09:35:02Z</time>
      </trkpt>
      <trkpt lat="38.4095000" lon="-0.6756420">
        <ele>277.0</ele>
        <time>2018-10-14T09:35:03Z</time>
      </trkpt>
      <trkpt lat="38.4095000" lon="-0.6756420">
        <ele>277.0</ele>
        <time>2018-10-14T09:35:04Z</time>
      </trkpt>
      <trkpt lat="38.4095050" lon="-0.6755080">
        <ele>277.0</ele>
        <time>2018-10-14T09:35:05Z</time>
      </trkpt>
      <trkpt lat="38.4095050" lon="-0.6755080">
        <ele>277.0</ele>
        <time>2018-10-14T09:35:06Z</time>
      </trkpt>
      <trkpt lat="38.4095170" lon="-0.6753720">
        <ele>277.0</ele>
        <time>2018-10-14T09:35:07Z</time>
      </trkpt>
      <trkpt lat="38.4095230" lon="-0.6753030">
        <ele>277.0</ele>
        <time>2018-10-14T09:35:08Z</time>
      </trkpt>
      <trkpt lat="38.4095280" lon="-0.6752370">
        <ele>277.0</ele>
        <time>2018-10-14T09:35:09Z</time>
      </trkpt>
      <trkpt lat="38.4095280" lon="-0.6752370">
        <ele>277.0</ele>
        <time>2018-10-14T09:35:10Z</time>
      </trkpt>
      <trkpt lat="38.4095420" lon="-0.6751070">
        <ele>277.0</ele>
        <time>2018-10-14T09:35:11Z</time>
      </trkpt>
      <trkpt lat="38.4095420" lon="-0.6751070">
        <ele>277.0</ele>
        <time>2018-10-14T09:35:12Z</time>
      </trkpt>
      <trkpt lat="38.4095580" lon="-0.6749770">
        <ele>277.0</ele>
        <time>2018-10-14T09:35:13Z</time>
      </trkpt>
      <trkpt lat="38.4095680" lon="-0.6749130">
        <ele>277.0</ele>
        <time>2018-10-14T09:35:14Z</time>
      </trkpt>
      <trkpt lat="38.4095680" lon="-0.6749130">
        <ele>277.0</ele>
        <time>2018-10-14T09:35:15Z</time>
      </trkpt>
      <trkpt lat="38.4095950" lon="-0.6747880">
        <ele>277.0</ele>
        <time>2018-10-14T09:35:16Z</time>
      </trkpt>
      <trkpt lat="38.4096100" lon="-0.6747270">
        <ele>277.0</ele>
        <time>2018-10-14T09:35:17Z</time>
      </trkpt>
      <trkpt lat="38.4096100" lon="-0.6747270">
        <ele>277.0</ele>
        <time>2018-10-14T09:35:18Z</time>
      </trkpt>
      <trkpt lat="38.4096450" lon="-0.6746070">
        <ele>276.0</ele>
        <time>2018-10-14T09:35:19Z</time>
      </trkpt>
      <trkpt lat="38.4096450" lon="-0.6746070">
        <ele>276.0</ele>
        <time>2018-10-14T09:35:20Z</time>
      </trkpt>
      <trkpt lat="38.4096830" lon="-0.6744920">
        <ele>276.0</ele>
        <time>2018-10-14T09:35:21Z</time>
      </trkpt>
      <trkpt lat="38.4096830" lon="-0.6744920">
        <ele>276.0</ele>
        <time>2018-10-14T09:35:22Z</time>
      </trkpt>
      <trkpt lat="38.4097230" lon="-0.6743820">
        <ele>276.0</ele>
        <time>2018-10-14T09:35:23Z</time>
      </trkpt>
      <trkpt lat="38.4097470" lon="-0.6743270">
        <ele>276.0</ele>
        <time>2018-10-14T09:35:24Z</time>
      </trkpt>
      <trkpt lat="38.4097470" lon="-0.6743270">
        <ele>276.0</ele>
        <time>2018-10-14T09:35:25Z</time>
      </trkpt>
      <trkpt lat="38.4097920" lon="-0.6742200">
        <ele>276.0</ele>
        <time>2018-10-14T09:35:26Z</time>
      </trkpt>
      <trkpt lat="38.4097920" lon="-0.6742200">
        <ele>276.0</ele>
        <time>2018-10-14T09:35:27Z</time>
      </trkpt>
      <trkpt lat="38.4098380" lon="-0.6741180">
        <ele>276.0</ele>
        <time>2018-10-14T09:35:28Z</time>
      </trkpt>
      <trkpt lat="38.4098380" lon="-0.6741180">
        <ele>276.0</ele>
        <time>2018-10-14T09:35:29Z</time>
      </trkpt>
      <trkpt lat="38.4098830" lon="-0.6740230">
        <ele>276.0</ele>
        <time>2018-10-14T09:35:30Z</time>
      </trkpt>
      <trkpt lat="38.4099100" lon="-0.6739800">
        <ele>276.0</ele>
        <time>2018-10-14T09:35:31Z</time>
      </trkpt>
      <trkpt lat="38.4099100" lon="-0.6739800">
        <ele>276.0</ele>
        <time>2018-10-14T09:35:32Z</time>
      </trkpt>
      <trkpt lat="38.4099780" lon="-0.6738970">
        <ele>276.0</ele>
        <time>2018-10-14T09:35:33Z</time>
      </trkpt>
      <trkpt lat="38.4099780" lon="-0.6738970">
        <ele>276.0</ele>
        <time>2018-10-14T09:35:34Z</time>
      </trkpt>
      <trkpt lat="38.4100620" lon="-0.6738180">
        <ele>276.0</ele>
        <time>2018-10-14T09:35:35Z</time>
      </trkpt>
      <trkpt lat="38.4100620" lon="-0.6738180">
        <ele>276.0</ele>
        <time>2018-10-14T09:35:36Z</time>
      </trkpt>
      <trkpt lat="38.4101500" lon="-0.6737420">
        <ele>276.0</ele>
        <time>2018-10-14T09:35:37Z</time>
      </trkpt>
      <trkpt lat="38.4101500" lon="-0.6737420">
        <ele>276.0</ele>
        <time>2018-10-14T09:35:38Z</time>
      </trkpt>
      <trkpt lat="38.4102350" lon="-0.6736600">
        <ele>276.0</ele>
        <time>2018-10-14T09:35:39Z</time>
      </trkpt>
      <trkpt lat="38.4102350" lon="-0.6736600">
        <ele>276.0</ele>
        <time>2018-10-14T09:35:40Z</time>
      </trkpt>
      <trkpt lat="38.4103170" lon="-0.6735700">
        <ele>276.0</ele>
        <time>2018-10-14T09:35:41Z</time>
      </trkpt>
      <trkpt lat="38.4103170" lon="-0.6735700">
        <ele>276.0</ele>
        <time>2018-10-14T09:35:42Z</time>
      </trkpt>
      <trkpt lat="38.4104020" lon="-0.6734850">
        <ele>276.0</ele>
        <time>2018-10-14T09:35:43Z</time>
      </trkpt>
      <trkpt lat="38.4104020" lon="-0.6734850">
        <ele>276.0</ele>
        <time>2018-10-14T09:35:44Z</time>
      </trkpt>
      <trkpt lat="38.4104830" lon="-0.6734050">
        <ele>276.0</ele>
        <time>2018-10-14T09:35:45Z</time>
      </trkpt>
      <trkpt lat="38.4104830" lon="-0.6734050">
        <ele>276.0</ele>
        <time>2018-10-14T09:35:46Z</time>
      </trkpt>
      <trkpt lat="38.4105620" lon="-0.6733180">
        <ele>276.0</ele>
        <time>2018-10-14T09:35:47Z</time>
      </trkpt>
      <trkpt lat="38.4105620" lon="-0.6733180">
        <ele>276.0</ele>
        <time>2018-10-14T09:35:48Z</time>
      </trkpt>
      <trkpt lat="38.4106430" lon="-0.6732370">
        <ele>276.0</ele>
        <time>2018-10-14T09:35:49Z</time>
      </trkpt>
      <trkpt lat="38.4106430" lon="-0.6732370">
        <ele>276.0</ele>
        <time>2018-10-14T09:35:50Z</time>
      </trkpt>
      <trkpt lat="38.4107270" lon="-0.6731550">
        <ele>276.0</ele>
        <time>2018-10-14T09:35:51Z</time>
      </trkpt>
      <trkpt lat="38.4107270" lon="-0.6731550">
        <ele>276.0</ele>
        <time>2018-10-14T09:35:52Z</time>
      </trkpt>
      <trkpt lat="38.4108080" lon="-0.6730700">
        <ele>276.0</ele>
        <time>2018-10-14T09:35:53Z</time>
      </trkpt>
      <trkpt lat="38.4108080" lon="-0.6730700">
        <ele>276.0</ele>
        <time>2018-10-14T09:35:54Z</time>
      </trkpt>
      <trkpt lat="38.4108900" lon="-0.6729800">
        <ele>276.0</ele>
        <time>2018-10-14T09:35:55Z</time>
      </trkpt>
      <trkpt lat="38.4108900" lon="-0.6729800">
        <ele>276.0</ele>
        <time>2018-10-14T09:35:56Z</time>
      </trkpt>
      <trkpt lat="38.4109700" lon="-0.6728830">
        <ele>276.0</ele>
        <time>2018-10-14T09:35:57Z</time>
      </trkpt>
      <trkpt lat="38.4109700" lon="-0.6728830">
        <ele>276.0</ele>
        <time>2018-10-14T09:35:58Z</time>
      </trkpt>
      <trkpt lat="38.4110430" lon="-0.6727820">
        <ele>276.0</ele>
        <time>2018-10-14T09:35:59Z</time>
      </trkpt>
      <trkpt lat="38.4110430" lon="-0.6727820">
        <ele>276.0</ele>
        <time>2018-10-14T09:36:00Z</time>
      </trkpt>
      <trkpt lat="38.4111150" lon="-0.6726750">
        <ele>276.0</ele>
        <time>2018-10-14T09:36:01Z</time>
      </trkpt>
      <trkpt lat="38.4111150" lon="-0.6726750">
        <ele>276.0</ele>
        <time>2018-10-14T09:36:02Z</time>
      </trkpt>
      <trkpt lat="38.4111880" lon="-0.6725680">
        <ele>276.0</ele>
        <time>2018-10-14T09:36:03Z</time>
      </trkpt>
      <trkpt lat="38.4111880" lon="-0.6725680">
        <ele>276.0</ele>
        <time>2018-10-14T09:36:04Z</time>
      </trkpt>
      <trkpt lat="38.4112580" lon="-0.6724580">
        <ele>276.0</ele>
        <time>2018-10-14T09:36:05Z</time>
      </trkpt>
      <trkpt lat="38.4112950" lon="-0.6724030">
        <ele>276.0</ele>
        <time>2018-10-14T09:36:06Z</time>
      </trkpt>
      <trkpt lat="38.4113300" lon="-0.6723450">
        <ele>276.0</ele>
        <time>2018-10-14T09:36:07Z</time>
      </trkpt>
      <trkpt lat="38.4113300" lon="-0.6723450">
        <ele>276.0</ele>
        <time>2018-10-14T09:36:08Z</time>
      </trkpt>
      <trkpt lat="38.4113970" lon="-0.6722280">
        <ele>276.0</ele>
        <time>2018-10-14T09:36:09Z</time>
      </trkpt>
      <trkpt lat="38.4113970" lon="-0.6722280">
        <ele>276.0</ele>
        <time>2018-10-14T09:36:10Z</time>
      </trkpt>
      <trkpt lat="38.4114580" lon="-0.6721100">
        <ele>276.0</ele>
        <time>2018-10-14T09:36:11Z</time>
      </trkpt>
      <trkpt lat="38.4114900" lon="-0.6720520">
        <ele>276.0</ele>
        <time>2018-10-14T09:36:12Z</time>
      </trkpt>
      <trkpt lat="38.4115200" lon="-0.6719930">
        <ele>276.0</ele>
        <time>2018-10-14T09:36:13Z</time>
      </trkpt>
      <trkpt lat="38.4115200" lon="-0.6719930">
        <ele>276.0</ele>
        <time>2018-10-14T09:36:14Z</time>
      </trkpt>
      <trkpt lat="38.4115780" lon="-0.6718770">
        <ele>276.0</ele>
        <time>2018-10-14T09:36:15Z</time>
      </trkpt>
      <trkpt lat="38.4115780" lon="-0.6718770">
        <ele>276.0</ele>
        <time>2018-10-14T09:36:16Z</time>
      </trkpt>
      <trkpt lat="38.4116380" lon="-0.6717620">
        <ele>276.0</ele>
        <time>2018-10-14T09:36:17Z</time>
      </trkpt>
      <trkpt lat="38.4116380" lon="-0.6717620">
        <ele>276.0</ele>
        <time>2018-10-14T09:36:18Z</time>
      </trkpt>
      <trkpt lat="38.4116980" lon="-0.6716330">
        <ele>276.0</ele>
        <time>2018-10-14T09:36:19Z</time>
      </trkpt>
      <trkpt lat="38.4116980" lon="-0.6716330">
        <ele>276.0</ele>
        <time>2018-10-14T09:36:20Z</time>
      </trkpt>
      <trkpt lat="38.4117580" lon="-0.6715080">
        <ele>276.0</ele>
        <time>2018-10-14T09:36:21Z</time>
      </trkpt>
      <trkpt lat="38.4117580" lon="-0.6715080">
        <ele>276.0</ele>
        <time>2018-10-14T09:36:22Z</time>
      </trkpt>
      <trkpt lat="38.4118130" lon="-0.6713830">
        <ele>276.0</ele>
        <time>2018-10-14T09:36:23Z</time>
      </trkpt>
      <trkpt lat="38.4118130" lon="-0.6713830">
        <ele>276.0</ele>
        <time>2018-10-14T09:36:24Z</time>
      </trkpt>
      <trkpt lat="38.4118700" lon="-0.6712650">
        <ele>276.0</ele>
        <time>2018-10-14T09:36:25Z</time>
      </trkpt>
      <trkpt lat="38.4118700" lon="-0.6712650">
        <ele>276.0</ele>
        <time>2018-10-14T09:36:26Z</time>
      </trkpt>
      <trkpt lat="38.4119300" lon="-0.6711580">
        <ele>276.0</ele>
        <time>2018-10-14T09:36:27Z</time>
      </trkpt>
      <trkpt lat="38.4119600" lon="-0.6711030">
        <ele>277.0</ele>
        <time>2018-10-14T09:36:28Z</time>
      </trkpt>
      <trkpt lat="38.4119870" lon="-0.6710530">
        <ele>277.0</ele>
        <time>2018-10-14T09:36:29Z</time>
      </trkpt>
      <trkpt lat="38.4119870" lon="-0.6710530">
        <ele>277.0</ele>
        <time>2018-10-14T09:36:30Z</time>
      </trkpt>
      <trkpt lat="38.4120470" lon="-0.6709500">
        <ele>277.0</ele>
        <time>2018-10-14T09:36:31Z</time>
      </trkpt>
      <trkpt lat="38.4120470" lon="-0.6709500">
        <ele>276.0</ele>
        <time>2018-10-14T09:36:32Z</time>
      </trkpt>
      <trkpt lat="38.4121070" lon="-0.6708520">
        <ele>276.0</ele>
        <time>2018-10-14T09:36:33Z</time>
      </trkpt>
      <trkpt lat="38.4121380" lon="-0.6708030">
        <ele>276.0</ele>
        <time>2018-10-14T09:36:34Z</time>
      </trkpt>
      <trkpt lat="38.4121380" lon="-0.6708030">
        <ele>276.0</ele>
        <time>2018-10-14T09:36:35Z</time>
      </trkpt>
      <trkpt lat="38.4122000" lon="-0.6707100">
        <ele>276.0</ele>
        <time>2018-10-14T09:36:36Z</time>
      </trkpt>
      <trkpt lat="38.4122320" lon="-0.6706650">
        <ele>276.0</ele>
        <time>2018-10-14T09:36:37Z</time>
      </trkpt>
      <trkpt lat="38.4122650" lon="-0.6706250">
        <ele>276.0</ele>
        <time>2018-10-14T09:36:38Z</time>
      </trkpt>
      <trkpt lat="38.4123020" lon="-0.6705900">
        <ele>276.0</ele>
        <time>2018-10-14T09:36:39Z</time>
      </trkpt>
      <trkpt lat="38.4123020" lon="-0.6705900">
        <ele>276.0</ele>
        <time>2018-10-14T09:36:40Z</time>
      </trkpt>
      <trkpt lat="38.4123800" lon="-0.6705270">
        <ele>276.0</ele>
        <time>2018-10-14T09:36:41Z</time>
      </trkpt>
      <trkpt lat="38.4124230" lon="-0.6704930">
        <ele>276.0</ele>
        <time>2018-10-14T09:36:42Z</time>
      </trkpt>
      <trkpt lat="38.4124230" lon="-0.6704930">
        <ele>276.0</ele>
        <time>2018-10-14T09:36:43Z</time>
      </trkpt>
      <trkpt lat="38.4125030" lon="-0.6704120">
        <ele>276.0</ele>
        <time>2018-10-14T09:36:44Z</time>
      </trkpt>
      <trkpt lat="38.4125420" lon="-0.6703680">
        <ele>276.0</ele>
        <time>2018-10-14T09:36:45Z</time>
      </trkpt>
      <trkpt lat="38.4125420" lon="-0.6703680">
        <ele>276.0</ele>
        <time>2018-10-14T09:36:46Z</time>
      </trkpt>
      <trkpt lat="38.4126170" lon="-0.6702720">
        <ele>276.0</ele>
        <time>2018-10-14T09:36:47Z</time>
      </trkpt>
      <trkpt lat="38.4126530" lon="-0.6702200">
        <ele>276.0</ele>
        <time>2018-10-14T09:36:48Z</time>
      </trkpt>
      <trkpt lat="38.4126870" lon="-0.6701670">
        <ele>276.0</ele>
        <time>2018-10-14T09:36:49Z</time>
      </trkpt>
      <trkpt lat="38.4126870" lon="-0.6701670">
        <ele>276.0</ele>
        <time>2018-10-14T09:36:50Z</time>
      </trkpt>
      <trkpt lat="38.4127530" lon="-0.6700650">
        <ele>276.0</ele>
        <time>2018-10-14T09:36:51Z</time>
      </trkpt>
      <trkpt lat="38.4127530" lon="-0.6700650">
        <ele>276.0</ele>
        <time>2018-10-14T09:36:52Z</time>
      </trkpt>
      <trkpt lat="38.4128200" lon="-0.6699650">
        <ele>276.0</ele>
        <time>2018-10-14T09:36:53Z</time>
      </trkpt>
      <trkpt lat="38.4128200" lon="-0.6699650">
        <ele>276.0</ele>
        <time>2018-10-14T09:36:54Z</time>
      </trkpt>
      <trkpt lat="38.4128800" lon="-0.6698470">
        <ele>276.0</ele>
        <time>2018-10-14T09:36:55Z</time>
      </trkpt>
      <trkpt lat="38.4128800" lon="-0.6698470">
        <ele>276.0</ele>
        <time>2018-10-14T09:36:56Z</time>
      </trkpt>
      <trkpt lat="38.4129370" lon="-0.6697200">
        <ele>276.0</ele>
        <time>2018-10-14T09:36:57Z</time>
      </trkpt>
      <trkpt lat="38.4129370" lon="-0.6697200">
        <ele>276.0</ele>
        <time>2018-10-14T09:36:58Z</time>
      </trkpt>
      <trkpt lat="38.4129870" lon="-0.6695830">
        <ele>276.0</ele>
        <time>2018-10-14T09:36:59Z</time>
      </trkpt>
      <trkpt lat="38.4129870" lon="-0.6695830">
        <ele>276.0</ele>
        <time>2018-10-14T09:37:00Z</time>
      </trkpt>
      <trkpt lat="38.4130300" lon="-0.6694430">
        <ele>276.0</ele>
        <time>2018-10-14T09:37:01Z</time>
      </trkpt>
      <trkpt lat="38.4130300" lon="-0.6694430">
        <ele>276.0</ele>
        <time>2018-10-14T09:37:02Z</time>
      </trkpt>
      <trkpt lat="38.4130630" lon="-0.6693070">
        <ele>275.0</ele>
        <time>2018-10-14T09:37:03Z</time>
      </trkpt>
      <trkpt lat="38.4130630" lon="-0.6693070">
        <ele>275.0</ele>
        <time>2018-10-14T09:37:04Z</time>
      </trkpt>
      <trkpt lat="38.4130930" lon="-0.6691820">
        <ele>275.0</ele>
        <time>2018-10-14T09:37:05Z</time>
      </trkpt>
      <trkpt lat="38.4130930" lon="-0.6691820">
        <ele>275.0</ele>
        <time>2018-10-14T09:37:06Z</time>
      </trkpt>
      <trkpt lat="38.4131370" lon="-0.6690680">
        <ele>275.0</ele>
        <time>2018-10-14T09:37:07Z</time>
      </trkpt>
      <trkpt lat="38.4131370" lon="-0.6690680">
        <ele>275.0</ele>
        <time>2018-10-14T09:37:08Z</time>
      </trkpt>
      <trkpt lat="38.4131880" lon="-0.6689650">
        <ele>274.0</ele>
        <time>2018-10-14T09:37:09Z</time>
      </trkpt>
      <trkpt lat="38.4131880" lon="-0.6689650">
        <ele>274.0</ele>
        <time>2018-10-14T09:37:10Z</time>
      </trkpt>
      <trkpt lat="38.4132480" lon="-0.6688680">
        <ele>274.0</ele>
        <time>2018-10-14T09:37:11Z</time>
      </trkpt>
      <trkpt lat="38.4132480" lon="-0.6688680">
        <ele>274.0</ele>
        <time>2018-10-14T09:37:12Z</time>
      </trkpt>
      <trkpt lat="38.4133050" lon="-0.6687800">
        <ele>274.0</ele>
        <time>2018-10-14T09:37:13Z</time>
      </trkpt>
      <trkpt lat="38.4133050" lon="-0.6687800">
        <ele>274.0</ele>
        <time>2018-10-14T09:37:14Z</time>
      </trkpt>
      <trkpt lat="38.4133450" lon="-0.6687170">
        <ele>274.0</ele>
        <time>2018-10-14T09:37:15Z</time>
      </trkpt>
      <trkpt lat="38.4133450" lon="-0.6687170">
        <ele>274.0</ele>
        <time>2018-10-14T09:37:16Z</time>
      </trkpt>
      <trkpt lat="38.4133630" lon="-0.6686870">
        <ele>273.0</ele>
        <time>2018-10-14T09:37:17Z</time>
      </trkpt>
      <trkpt lat="38.4133670" lon="-0.6686830">
        <ele>273.0</ele>
        <time>2018-10-14T09:37:18Z</time>
      </trkpt>
      <trkpt lat="38.4133670" lon="-0.6686830">
        <ele>273.0</ele>
        <time>2018-10-14T09:37:19Z</time>
      </trkpt>
      <trkpt lat="38.4133670" lon="-0.6686830">
        <ele>273.0</ele>
        <time>2018-10-14T09:37:20Z</time>
      </trkpt>
      <trkpt lat="38.4133380" lon="-0.6687120">
        <ele>273.0</ele>
        <time>2018-10-14T09:40:47Z</time>
      </trkpt>
      <trkpt lat="38.4133380" lon="-0.6687120">
        <ele>273.0</ele>
        <time>2018-10-14T09:40:48Z</time>
      </trkpt>
      <trkpt lat="38.4133400" lon="-0.6687220">
        <ele>273.0</ele>
        <time>2018-10-14T09:40:49Z</time>
      </trkpt>
      <trkpt lat="38.4133400" lon="-0.6687220">
        <ele>273.0</ele>
        <time>2018-10-14T09:41:54Z</time>
      </trkpt>
      <trkpt lat="38.4133430" lon="-0.6687070">
        <ele>273.0</ele>
        <time>2018-10-14T09:41:55Z</time>
      </trkpt>
      <trkpt lat="38.4133430" lon="-0.6687070">
        <ele>273.0</ele>
        <time>2018-10-14T09:41:56Z</time>
      </trkpt>
      <trkpt lat="38.4133450" lon="-0.6687070">
        <ele>273.0</ele>
        <time>2018-10-14T09:41:57Z</time>
      </trkpt>
      <trkpt lat="38.4133450" lon="-0.6687070">
        <ele>273.0</ele>
        <time>2018-10-14T09:42:19Z</time>
      </trkpt>
      <trkpt lat="38.4133530" lon="-0.6686880">
        <ele>273.0</ele>
        <time>2018-10-14T09:42:20Z</time>
      </trkpt>
      <trkpt lat="38.4133550" lon="-0.6686880">
        <ele>273.0</ele>
        <time>2018-10-14T09:42:21Z</time>
      </trkpt>
      <trkpt lat="38.4133550" lon="-0.6686880">
        <ele>273.0</ele>
        <time>2018-10-14T09:44:06Z</time>
      </trkpt>
      <trkpt lat="38.4133380" lon="-0.6687080">
        <ele>273.0</ele>
        <time>2018-10-14T09:44:07Z</time>
      </trkpt>
      <trkpt lat="38.4133380" lon="-0.6687080">
        <ele>273.0</ele>
        <time>2018-10-14T09:44:08Z</time>
      </trkpt>
      <trkpt lat="38.4133200" lon="-0.6687280">
        <ele>273.0</ele>
        <time>2018-10-14T09:44:09Z</time>
      </trkpt>
      <trkpt lat="38.4133080" lon="-0.6687470">
        <ele>273.0</ele>
        <time>2018-10-14T09:44:10Z</time>
      </trkpt>
      <trkpt lat="38.4133080" lon="-0.6687470">
        <ele>273.0</ele>
        <time>2018-10-14T09:44:11Z</time>
      </trkpt>
      <trkpt lat="38.4132850" lon="-0.6687870">
        <ele>273.0</ele>
        <time>2018-10-14T09:44:12Z</time>
      </trkpt>
      <trkpt lat="38.4132850" lon="-0.6687870">
        <ele>273.0</ele>
        <time>2018-10-14T09:44:13Z</time>
      </trkpt>
      <trkpt lat="38.4132570" lon="-0.6688350">
        <ele>273.0</ele>
        <time>2018-10-14T09:44:14Z</time>
      </trkpt>
      <trkpt lat="38.4132570" lon="-0.6688350">
        <ele>273.0</ele>
        <time>2018-10-14T09:44:15Z</time>
      </trkpt>
      <trkpt lat="38.4132270" lon="-0.6688870">
        <ele>273.0</ele>
        <time>2018-10-14T09:44:16Z</time>
      </trkpt>
      <trkpt lat="38.4132130" lon="-0.6689150">
        <ele>273.0</ele>
        <time>2018-10-14T09:44:17Z</time>
      </trkpt>
      <trkpt lat="38.4132130" lon="-0.6689150">
        <ele>273.0</ele>
        <time>2018-10-14T09:44:18Z</time>
      </trkpt>
      <trkpt lat="38.4131800" lon="-0.6689770">
        <ele>273.0</ele>
        <time>2018-10-14T09:44:19Z</time>
      </trkpt>
      <trkpt lat="38.4131800" lon="-0.6689770">
        <ele>273.0</ele>
        <time>2018-10-14T09:44:20Z</time>
      </trkpt>
      <trkpt lat="38.4131500" lon="-0.6690420">
        <ele>273.0</ele>
        <time>2018-10-14T09:44:21Z</time>
      </trkpt>
      <trkpt lat="38.4131500" lon="-0.6690420">
        <ele>273.0</ele>
        <time>2018-10-14T09:44:22Z</time>
      </trkpt>
      <trkpt lat="38.4131200" lon="-0.6691070">
        <ele>273.0</ele>
        <time>2018-10-14T09:44:23Z</time>
      </trkpt>
      <trkpt lat="38.4131200" lon="-0.6691070">
        <ele>273.0</ele>
        <time>2018-10-14T09:44:24Z</time>
      </trkpt>
      <trkpt lat="38.4130930" lon="-0.6691830">
        <ele>273.0</ele>
        <time>2018-10-14T09:44:25Z</time>
      </trkpt>
      <trkpt lat="38.4130930" lon="-0.6691830">
        <ele>273.0</ele>
        <time>2018-10-14T09:44:26Z</time>
      </trkpt>
      <trkpt lat="38.4130680" lon="-0.6692620">
        <ele>273.0</ele>
        <time>2018-10-14T09:44:27Z</time>
      </trkpt>
      <trkpt lat="38.4130680" lon="-0.6692620">
        <ele>273.0</ele>
        <time>2018-10-14T09:44:28Z</time>
      </trkpt>
      <trkpt lat="38.4130500" lon="-0.6693370">
        <ele>273.0</ele>
        <time>2018-10-14T09:44:29Z</time>
      </trkpt>
      <trkpt lat="38.4130400" lon="-0.6693730">
        <ele>273.0</ele>
        <time>2018-10-14T09:44:30Z</time>
      </trkpt>
      <trkpt lat="38.4130320" lon="-0.6694080">
        <ele>273.0</ele>
        <time>2018-10-14T09:44:31Z</time>
      </trkpt>
      <trkpt lat="38.4130320" lon="-0.6694080">
        <ele>273.0</ele>
        <time>2018-10-14T09:44:32Z</time>
      </trkpt>
      <trkpt lat="38.4130100" lon="-0.6694680">
        <ele>273.0</ele>
        <time>2018-10-14T09:44:33Z</time>
      </trkpt>
      <trkpt lat="38.4130100" lon="-0.6694680">
        <ele>273.0</ele>
        <time>2018-10-14T09:44:34Z</time>
      </trkpt>
      <trkpt lat="38.4129930" lon="-0.6695100">
        <ele>274.0</ele>
        <time>2018-10-14T09:44:35Z</time>
      </trkpt>
      <trkpt lat="38.4129930" lon="-0.6695100">
        <ele>274.0</ele>
        <time>2018-10-14T09:44:36Z</time>
      </trkpt>
      <trkpt lat="38.4129820" lon="-0.6695530">
        <ele>274.0</ele>
        <time>2018-10-14T09:44:37Z</time>
      </trkpt>
      <trkpt lat="38.4129820" lon="-0.6695530">
        <ele>274.0</ele>
        <time>2018-10-14T09:44:38Z</time>
      </trkpt>
      <trkpt lat="38.4129720" lon="-0.6696020">
        <ele>274.0</ele>
        <time>2018-10-14T09:44:39Z</time>
      </trkpt>
      <trkpt lat="38.4129720" lon="-0.6696020">
        <ele>274.0</ele>
        <time>2018-10-14T09:44:40Z</time>
      </trkpt>
      <trkpt lat="38.4129550" lon="-0.6696520">
        <ele>274.0</ele>
        <time>2018-10-14T09:44:41Z</time>
      </trkpt>
      <trkpt lat="38.4129550" lon="-0.6696520">
        <ele>274.0</ele>
        <time>2018-10-14T09:44:42Z</time>
      </trkpt>
      <trkpt lat="38.4129330" lon="-0.6697080">
        <ele>274.0</ele>
        <time>2018-10-14T09:44:43Z</time>
      </trkpt>
      <trkpt lat="38.4129330" lon="-0.6697080">
        <ele>274.0</ele>
        <time>2018-10-14T09:44:44Z</time>
      </trkpt>
      <trkpt lat="38.4129180" lon="-0.6697630">
        <ele>274.0</ele>
        <time>2018-10-14T09:44:45Z</time>
      </trkpt>
      <trkpt lat="38.4129180" lon="-0.6697630">
        <ele>274.0</ele>
        <time>2018-10-14T09:44:46Z</time>
      </trkpt>
      <trkpt lat="38.4129000" lon="-0.6698170">
        <ele>274.0</ele>
        <time>2018-10-14T09:44:47Z</time>
      </trkpt>
      <trkpt lat="38.4129000" lon="-0.6698170">
        <ele>274.0</ele>
        <time>2018-10-14T09:44:48Z</time>
      </trkpt>
      <trkpt lat="38.4128730" lon="-0.6698700">
        <ele>274.0</ele>
        <time>2018-10-14T09:44:49Z</time>
      </trkpt>
      <trkpt lat="38.4128730" lon="-0.6698700">
        <ele>274.0</ele>
        <time>2018-10-14T09:44:50Z</time>
      </trkpt>
      <trkpt lat="38.4128400" lon="-0.6699230">
        <ele>274.0</ele>
        <time>2018-10-14T09:44:51Z</time>
      </trkpt>
      <trkpt lat="38.4128400" lon="-0.6699230">
        <ele>275.0</ele>
        <time>2018-10-14T09:44:52Z</time>
      </trkpt>
      <trkpt lat="38.4128100" lon="-0.6699750">
        <ele>275.0</ele>
        <time>2018-10-14T09:44:53Z</time>
      </trkpt>
      <trkpt lat="38.4128100" lon="-0.6699750">
        <ele>275.0</ele>
        <time>2018-10-14T09:44:54Z</time>
      </trkpt>
      <trkpt lat="38.4127820" lon="-0.6700250">
        <ele>275.0</ele>
        <time>2018-10-14T09:44:55Z</time>
      </trkpt>
      <trkpt lat="38.4127820" lon="-0.6700250">
        <ele>275.0</ele>
        <time>2018-10-14T09:44:56Z</time>
      </trkpt>
      <trkpt lat="38.4127520" lon="-0.6700770">
        <ele>275.0</ele>
        <time>2018-10-14T09:44:57Z</time>
      </trkpt>
      <trkpt lat="38.4127350" lon="-0.6701030">
        <ele>275.0</ele>
        <time>2018-10-14T09:44:58Z</time>
      </trkpt>
      <trkpt lat="38.4127350" lon="-0.6701030">
        <ele>275.0</ele>
        <time>2018-10-14T09:44:59Z</time>
      </trkpt>
      <trkpt lat="38.4127070" lon="-0.6701520">
        <ele>275.0</ele>
        <time>2018-10-14T09:45:00Z</time>
      </trkpt>
      <trkpt lat="38.4126900" lon="-0.6701730">
        <ele>275.0</ele>
        <time>2018-10-14T09:45:01Z</time>
      </trkpt>
      <trkpt lat="38.4126900" lon="-0.6701730">
        <ele>275.0</ele>
        <time>2018-10-14T09:45:02Z</time>
      </trkpt>
      <trkpt lat="38.4126580" lon="-0.6702200">
        <ele>275.0</ele>
        <time>2018-10-14T09:45:03Z</time>
      </trkpt>
      <trkpt lat="38.4126450" lon="-0.6702420">
        <ele>275.0</ele>
        <time>2018-10-14T09:45:04Z</time>
      </trkpt>
      <trkpt lat="38.4126450" lon="-0.6702420">
        <ele>275.0</ele>
        <time>2018-10-14T09:45:05Z</time>
      </trkpt>
      <trkpt lat="38.4126150" lon="-0.6702850">
        <ele>275.0</ele>
        <time>2018-10-14T09:45:06Z</time>
      </trkpt>
      <trkpt lat="38.4125980" lon="-0.6703080">
        <ele>275.0</ele>
        <time>2018-10-14T09:45:07Z</time>
      </trkpt>
      <trkpt lat="38.4125980" lon="-0.6703080">
        <ele>275.0</ele>
        <time>2018-10-14T09:45:08Z</time>
      </trkpt>
      <trkpt lat="38.4125650" lon="-0.6703520">
        <ele>275.0</ele>
        <time>2018-10-14T09:45:09Z</time>
      </trkpt>
      <trkpt lat="38.4125650" lon="-0.6703520">
        <ele>275.0</ele>
        <time>2018-10-14T09:45:10Z</time>
      </trkpt>
      <trkpt lat="38.4125280" lon="-0.6703870">
        <ele>275.0</ele>
        <time>2018-10-14T09:45:11Z</time>
      </trkpt>
      <trkpt lat="38.4125280" lon="-0.6703870">
        <ele>275.0</ele>
        <time>2018-10-14T09:45:12Z</time>
      </trkpt>
      <trkpt lat="38.4124980" lon="-0.6704200">
        <ele>275.0</ele>
        <time>2018-10-14T09:45:13Z</time>
      </trkpt>
      <trkpt lat="38.4124980" lon="-0.6704200">
        <ele>275.0</ele>
        <time>2018-10-14T09:45:14Z</time>
      </trkpt>
      <trkpt lat="38.4124750" lon="-0.6704600">
        <ele>275.0</ele>
        <time>2018-10-14T09:45:15Z</time>
      </trkpt>
      <trkpt lat="38.4124750" lon="-0.6704600">
        <ele>276.0</ele>
        <time>2018-10-14T09:45:16Z</time>
      </trkpt>
      <trkpt lat="38.4124480" lon="-0.6705080">
        <ele>276.0</ele>
        <time>2018-10-14T09:45:17Z</time>
      </trkpt>
      <trkpt lat="38.4124330" lon="-0.6705300">
        <ele>276.0</ele>
        <time>2018-10-14T09:45:18Z</time>
      </trkpt>
      <trkpt lat="38.4124330" lon="-0.6705300">
        <ele>276.0</ele>
        <time>2018-10-14T09:45:19Z</time>
      </trkpt>
      <trkpt lat="38.4123950" lon="-0.6705670">
        <ele>276.0</ele>
        <time>2018-10-14T09:45:20Z</time>
      </trkpt>
      <trkpt lat="38.4123720" lon="-0.6705820">
        <ele>276.0</ele>
        <time>2018-10-14T09:45:21Z</time>
      </trkpt>
      <trkpt lat="38.4123720" lon="-0.6705820">
        <ele>276.0</ele>
        <time>2018-10-14T09:45:22Z</time>
      </trkpt>
      <trkpt lat="38.4123270" lon="-0.6706100">
        <ele>276.0</ele>
        <time>2018-10-14T09:45:23Z</time>
      </trkpt>
      <trkpt lat="38.4123270" lon="-0.6706100">
        <ele>276.0</ele>
        <time>2018-10-14T09:45:24Z</time>
      </trkpt>
      <trkpt lat="38.4122870" lon="-0.6706330">
        <ele>276.0</ele>
        <time>2018-10-14T09:45:25Z</time>
      </trkpt>
      <trkpt lat="38.4122870" lon="-0.6706330">
        <ele>276.0</ele>
        <time>2018-10-14T09:45:26Z</time>
      </trkpt>
      <trkpt lat="38.4122520" lon="-0.6706720">
        <ele>276.0</ele>
        <time>2018-10-14T09:45:27Z</time>
      </trkpt>
      <trkpt lat="38.4122520" lon="-0.6706720">
        <ele>276.0</ele>
        <time>2018-10-14T09:45:28Z</time>
      </trkpt>
      <trkpt lat="38.4122120" lon="-0.6707250">
        <ele>276.0</ele>
        <time>2018-10-14T09:45:29Z</time>
      </trkpt>
      <trkpt lat="38.4122120" lon="-0.6707250">
        <ele>276.0</ele>
        <time>2018-10-14T09:45:30Z</time>
      </trkpt>
      <trkpt lat="38.4121720" lon="-0.6707900">
        <ele>276.0</ele>
        <time>2018-10-14T09:45:31Z</time>
      </trkpt>
      <trkpt lat="38.4121520" lon="-0.6708230">
        <ele>276.0</ele>
        <time>2018-10-14T09:45:32Z</time>
      </trkpt>
      <trkpt lat="38.4121320" lon="-0.6708570">
        <ele>276.0</ele>
        <time>2018-10-14T09:45:33Z</time>
      </trkpt>
      <trkpt lat="38.4121320" lon="-0.6708570">
        <ele>276.0</ele>
        <time>2018-10-14T09:45:34Z</time>
      </trkpt>
      <trkpt lat="38.4120920" lon="-0.6709200">
        <ele>276.0</ele>
        <time>2018-10-14T09:45:35Z</time>
      </trkpt>
      <trkpt lat="38.4120920" lon="-0.6709200">
        <ele>276.0</ele>
        <time>2018-10-14T09:45:36Z</time>
      </trkpt>
      <trkpt lat="38.4120530" lon="-0.6709880">
        <ele>276.0</ele>
        <time>2018-10-14T09:45:37Z</time>
      </trkpt>
      <trkpt lat="38.4120530" lon="-0.6709880">
        <ele>276.0</ele>
        <time>2018-10-14T09:45:38Z</time>
      </trkpt>
      <trkpt lat="38.4120130" lon="-0.6710580">
        <ele>276.0</ele>
        <time>2018-10-14T09:45:39Z</time>
      </trkpt>
      <trkpt lat="38.4119930" lon="-0.6710930">
        <ele>276.0</ele>
        <time>2018-10-14T09:45:40Z</time>
      </trkpt>
      <trkpt lat="38.4119930" lon="-0.6710930">
        <ele>276.0</ele>
        <time>2018-10-14T09:45:41Z</time>
      </trkpt>
      <trkpt lat="38.4119530" lon="-0.6711630">
        <ele>276.0</ele>
        <time>2018-10-14T09:45:42Z</time>
      </trkpt>
      <trkpt lat="38.4119350" lon="-0.6711980">
        <ele>276.0</ele>
        <time>2018-10-14T09:45:43Z</time>
      </trkpt>
      <trkpt lat="38.4119350" lon="-0.6711980">
        <ele>276.0</ele>
        <time>2018-10-14T09:45:44Z</time>
      </trkpt>
      <trkpt lat="38.4118980" lon="-0.6712650">
        <ele>276.0</ele>
        <time>2018-10-14T09:45:45Z</time>
      </trkpt>
      <trkpt lat="38.4118800" lon="-0.6712970">
        <ele>276.0</ele>
        <time>2018-10-14T09:45:46Z</time>
      </trkpt>
      <trkpt lat="38.4118800" lon="-0.6712970">
        <ele>276.0</ele>
        <time>2018-10-14T09:45:47Z</time>
      </trkpt>
      <trkpt lat="38.4118430" lon="-0.6713620">
        <ele>276.0</ele>
        <time>2018-10-14T09:45:48Z</time>
      </trkpt>
      <trkpt lat="38.4118280" lon="-0.6713950">
        <ele>275.0</ele>
        <time>2018-10-14T09:45:49Z</time>
      </trkpt>
      <trkpt lat="38.4118280" lon="-0.6713950">
        <ele>275.0</ele>
        <time>2018-10-14T09:45:50Z</time>
      </trkpt>
      <trkpt lat="38.4118020" lon="-0.6714520">
        <ele>275.0</ele>
        <time>2018-10-14T09:45:51Z</time>
      </trkpt>
      <trkpt lat="38.4118020" lon="-0.6714520">
        <ele>275.0</ele>
        <time>2018-10-14T09:45:52Z</time>
      </trkpt>
      <trkpt lat="38.4117720" lon="-0.6715170">
        <ele>275.0</ele>
        <time>2018-10-14T09:45:53Z</time>
      </trkpt>
      <trkpt lat="38.4117720" lon="-0.6715170">
        <ele>275.0</ele>
        <time>2018-10-14T09:45:54Z</time>
      </trkpt>
      <trkpt lat="38.4117420" lon="-0.6715870">
        <ele>275.0</ele>
        <time>2018-10-14T09:45:55Z</time>
      </trkpt>
      <trkpt lat="38.4117420" lon="-0.6715870">
        <ele>275.0</ele>
        <time>2018-10-14T09:45:56Z</time>
      </trkpt>
      <trkpt lat="38.4117080" lon="-0.6716570">
        <ele>275.0</ele>
        <time>2018-10-14T09:45:57Z</time>
      </trkpt>
      <trkpt lat="38.4116920" lon="-0.6716900">
        <ele>275.0</ele>
        <time>2018-10-14T09:45:58Z</time>
      </trkpt>
      <trkpt lat="38.4116920" lon="-0.6716900">
        <ele>275.0</ele>
        <time>2018-10-14T09:45:59Z</time>
      </trkpt>
      <trkpt lat="38.4116580" lon="-0.6717570">
        <ele>275.0</ele>
        <time>2018-10-14T09:46:00Z</time>
      </trkpt>
      <trkpt lat="38.4116430" lon="-0.6717880">
        <ele>275.0</ele>
        <time>2018-10-14T09:46:01Z</time>
      </trkpt>
      <trkpt lat="38.4116430" lon="-0.6717880">
        <ele>275.0</ele>
        <time>2018-10-14T09:46:02Z</time>
      </trkpt>
      <trkpt lat="38.4116130" lon="-0.6718470">
        <ele>275.0</ele>
        <time>2018-10-14T09:46:03Z</time>
      </trkpt>
      <trkpt lat="38.4116130" lon="-0.6718470">
        <ele>275.0</ele>
        <time>2018-10-14T09:46:04Z</time>
      </trkpt>
      <trkpt lat="38.4115820" lon="-0.6719030">
        <ele>275.0</ele>
        <time>2018-10-14T09:46:05Z</time>
      </trkpt>
      <trkpt lat="38.4115820" lon="-0.6719030">
        <ele>275.0</ele>
        <time>2018-10-14T09:46:06Z</time>
      </trkpt>
      <trkpt lat="38.4115500" lon="-0.6719600">
        <ele>275.0</ele>
        <time>2018-10-14T09:46:07Z</time>
      </trkpt>
      <trkpt lat="38.4115500" lon="-0.6719600">
        <ele>275.0</ele>
        <time>2018-10-14T09:46:08Z</time>
      </trkpt>
      <trkpt lat="38.4115200" lon="-0.6720200">
        <ele>275.0</ele>
        <time>2018-10-14T09:46:09Z</time>
      </trkpt>
      <trkpt lat="38.4115050" lon="-0.6720480">
        <ele>275.0</ele>
        <time>2018-10-14T09:46:10Z</time>
      </trkpt>
      <trkpt lat="38.4114900" lon="-0.6720780">
        <ele>275.0</ele>
        <time>2018-10-14T09:46:11Z</time>
      </trkpt>
      <trkpt lat="38.4114900" lon="-0.6720780">
        <ele>275.0</ele>
        <time>2018-10-14T09:46:12Z</time>
      </trkpt>
      <trkpt lat="38.4114530" lon="-0.6721420">
        <ele>275.0</ele>
        <time>2018-10-14T09:46:13Z</time>
      </trkpt>
      <trkpt lat="38.4114530" lon="-0.6721420">
        <ele>275.0</ele>
        <time>2018-10-14T09:46:14Z</time>
      </trkpt>
      <trkpt lat="38.4114180" lon="-0.6722030">
        <ele>275.0</ele>
        <time>2018-10-14T09:46:15Z</time>
      </trkpt>
      <trkpt lat="38.4114020" lon="-0.6722370">
        <ele>275.0</ele>
        <time>2018-10-14T09:46:16Z</time>
      </trkpt>
      <trkpt lat="38.4114020" lon="-0.6722370">
        <ele>275.0</ele>
        <time>2018-10-14T09:46:17Z</time>
      </trkpt>
      <trkpt lat="38.4113650" lon="-0.6723030">
        <ele>275.0</ele>
        <time>2018-10-14T09:46:18Z</time>
      </trkpt>
      <trkpt lat="38.4113470" lon="-0.6723380">
        <ele>275.0</ele>
        <time>2018-10-14T09:46:19Z</time>
      </trkpt>
      <trkpt lat="38.4113470" lon="-0.6723380">
        <ele>275.0</ele>
        <time>2018-10-14T09:46:20Z</time>
      </trkpt>
      <trkpt lat="38.4113120" lon="-0.6724030">
        <ele>275.0</ele>
        <time>2018-10-14T09:46:21Z</time>
      </trkpt>
      <trkpt lat="38.4113120" lon="-0.6724030">
        <ele>275.0</ele>
        <time>2018-10-14T09:46:22Z</time>
      </trkpt>
      <trkpt lat="38.4112700" lon="-0.6724720">
        <ele>275.0</ele>
        <time>2018-10-14T09:46:23Z</time>
      </trkpt>
      <trkpt lat="38.4112500" lon="-0.6725080">
        <ele>275.0</ele>
        <time>2018-10-14T09:46:24Z</time>
      </trkpt>
      <trkpt lat="38.4112280" lon="-0.6725450">
        <ele>275.0</ele>
        <time>2018-10-14T09:46:25Z</time>
      </trkpt>
      <trkpt lat="38.4112280" lon="-0.6725450">
        <ele>275.0</ele>
        <time>2018-10-14T09:46:26Z</time>
      </trkpt>
      <trkpt lat="38.4111820" lon="-0.6726230">
        <ele>275.0</ele>
        <time>2018-10-14T09:46:27Z</time>
      </trkpt>
      <trkpt lat="38.4111820" lon="-0.6726230">
        <ele>275.0</ele>
        <time>2018-10-14T09:46:28Z</time>
      </trkpt>
      <trkpt lat="38.4111350" lon="-0.6726900">
        <ele>275.0</ele>
        <time>2018-10-14T09:46:29Z</time>
      </trkpt>
      <trkpt lat="38.4111350" lon="-0.6726900">
        <ele>275.0</ele>
        <time>2018-10-14T09:46:30Z</time>
      </trkpt>
      <trkpt lat="38.4110920" lon="-0.6727520">
        <ele>275.0</ele>
        <time>2018-10-14T09:46:31Z</time>
      </trkpt>
      <trkpt lat="38.4110920" lon="-0.6727520">
        <ele>275.0</ele>
        <time>2018-10-14T09:46:32Z</time>
      </trkpt>
      <trkpt lat="38.4110520" lon="-0.6728130">
        <ele>275.0</ele>
        <time>2018-10-14T09:46:33Z</time>
      </trkpt>
      <trkpt lat="38.4110300" lon="-0.6728470">
        <ele>275.0</ele>
        <time>2018-10-14T09:46:34Z</time>
      </trkpt>
      <trkpt lat="38.4110300" lon="-0.6728470">
        <ele>275.0</ele>
        <time>2018-10-14T09:46:35Z</time>
      </trkpt>
      <trkpt lat="38.4109830" lon="-0.6729150">
        <ele>275.0</ele>
        <time>2018-10-14T09:46:36Z</time>
      </trkpt>
      <trkpt lat="38.4109580" lon="-0.6729480">
        <ele>275.0</ele>
        <time>2018-10-14T09:46:37Z</time>
      </trkpt>
      <trkpt lat="38.4109580" lon="-0.6729480">
        <ele>275.0</ele>
        <time>2018-10-14T09:46:38Z</time>
      </trkpt>
      <trkpt lat="38.4109080" lon="-0.6730120">
        <ele>275.0</ele>
        <time>2018-10-14T09:46:39Z</time>
      </trkpt>
      <trkpt lat="38.4108830" lon="-0.6730420">
        <ele>276.0</ele>
        <time>2018-10-14T09:46:40Z</time>
      </trkpt>
      <trkpt lat="38.4108830" lon="-0.6730420">
        <ele>276.0</ele>
        <time>2018-10-14T09:46:41Z</time>
      </trkpt>
      <trkpt lat="38.4108330" lon="-0.6731000">
        <ele>276.0</ele>
        <time>2018-10-14T09:46:42Z</time>
      </trkpt>
      <trkpt lat="38.4108100" lon="-0.6731280">
        <ele>276.0</ele>
        <time>2018-10-14T09:46:43Z</time>
      </trkpt>
      <trkpt lat="38.4107830" lon="-0.6731550">
        <ele>276.0</ele>
        <time>2018-10-14T09:46:44Z</time>
      </trkpt>
      <trkpt lat="38.4107830" lon="-0.6731550">
        <ele>276.0</ele>
        <time>2018-10-14T09:46:45Z</time>
      </trkpt>
      <trkpt lat="38.4107320" lon="-0.6732120">
        <ele>276.0</ele>
        <time>2018-10-14T09:46:46Z</time>
      </trkpt>
      <trkpt lat="38.4107030" lon="-0.6732420">
        <ele>276.0</ele>
        <time>2018-10-14T09:46:47Z</time>
      </trkpt>
      <trkpt lat="38.4107030" lon="-0.6732420">
        <ele>276.0</ele>
        <time>2018-10-14T09:46:48Z</time>
      </trkpt>
      <trkpt lat="38.4106470" lon="-0.6733000">
        <ele>276.0</ele>
        <time>2018-10-14T09:46:49Z</time>
      </trkpt>
      <trkpt lat="38.4106470" lon="-0.6733000">
        <ele>276.0</ele>
        <time>2018-10-14T09:46:50Z</time>
      </trkpt>
      <trkpt lat="38.4105850" lon="-0.6733620">
        <ele>276.0</ele>
        <time>2018-10-14T09:46:51Z</time>
      </trkpt>
      <trkpt lat="38.4105850" lon="-0.6733620">
        <ele>276.0</ele>
        <time>2018-10-14T09:46:52Z</time>
      </trkpt>
      <trkpt lat="38.4105220" lon="-0.6734250">
        <ele>276.0</ele>
        <time>2018-10-14T09:46:53Z</time>
      </trkpt>
      <trkpt lat="38.4104900" lon="-0.6734600">
        <ele>276.0</ele>
        <time>2018-10-14T09:46:54Z</time>
      </trkpt>
      <trkpt lat="38.4104580" lon="-0.6734930">
        <ele>276.0</ele>
        <time>2018-10-14T09:46:55Z</time>
      </trkpt>
      <trkpt lat="38.4104580" lon="-0.6734930">
        <ele>276.0</ele>
        <time>2018-10-14T09:46:56Z</time>
      </trkpt>
      <trkpt lat="38.4103930" lon="-0.6735600">
        <ele>276.0</ele>
        <time>2018-10-14T09:46:57Z</time>
      </trkpt>
      <trkpt lat="38.4103580" lon="-0.6735930">
        <ele>276.0</ele>
        <time>2018-10-14T09:46:58Z</time>
      </trkpt>
      <trkpt lat="38.4103580" lon="-0.6735930">
        <ele>276.0</ele>
        <time>2018-10-14T09:46:59Z</time>
      </trkpt>
      <trkpt lat="38.4102900" lon="-0.6736630">
        <ele>276.0</ele>
        <time>2018-10-14T09:47:00Z</time>
      </trkpt>
      <trkpt lat="38.4102570" lon="-0.6736980">
        <ele>276.0</ele>
        <time>2018-10-14T09:47:01Z</time>
      </trkpt>
      <trkpt lat="38.4102570" lon="-0.6736980">
        <ele>276.0</ele>
        <time>2018-10-14T09:47:02Z</time>
      </trkpt>
      <trkpt lat="38.4101870" lon="-0.6737680">
        <ele>276.0</ele>
        <time>2018-10-14T09:47:03Z</time>
      </trkpt>
      <trkpt lat="38.4101500" lon="-0.6738050">
        <ele>276.0</ele>
        <time>2018-10-14T09:47:04Z</time>
      </trkpt>
      <trkpt lat="38.4101500" lon="-0.6738050">
        <ele>276.0</ele>
        <time>2018-10-14T09:47:05Z</time>
      </trkpt>
      <trkpt lat="38.4100770" lon="-0.6738780">
        <ele>276.0</ele>
        <time>2018-10-14T09:47:06Z</time>
      </trkpt>
      <trkpt lat="38.4100400" lon="-0.6739130">
        <ele>276.0</ele>
        <time>2018-10-14T09:47:07Z</time>
      </trkpt>
      <trkpt lat="38.4100400" lon="-0.6739130">
        <ele>276.0</ele>
        <time>2018-10-14T09:47:08Z</time>
      </trkpt>
      <trkpt lat="38.4099650" lon="-0.6739850">
        <ele>276.0</ele>
        <time>2018-10-14T09:47:09Z</time>
      </trkpt>
      <trkpt lat="38.4099320" lon="-0.6740230">
        <ele>276.0</ele>
        <time>2018-10-14T09:47:10Z</time>
      </trkpt>
      <trkpt lat="38.4099320" lon="-0.6740230">
        <ele>276.0</ele>
        <time>2018-10-14T09:47:11Z</time>
      </trkpt>
      <trkpt lat="38.4098770" lon="-0.6741120">
        <ele>276.0</ele>
        <time>2018-10-14T09:47:12Z</time>
      </trkpt>
      <trkpt lat="38.4098770" lon="-0.6741120">
        <ele>276.0</ele>
        <time>2018-10-14T09:47:13Z</time>
      </trkpt>
      <trkpt lat="38.4098320" lon="-0.6742100">
        <ele>276.0</ele>
        <time>2018-10-14T09:47:14Z</time>
      </trkpt>
      <trkpt lat="38.4098100" lon="-0.6742620">
        <ele>276.0</ele>
        <time>2018-10-14T09:47:15Z</time>
      </trkpt>
      <trkpt lat="38.4098100" lon="-0.6742620">
        <ele>276.0</ele>
        <time>2018-10-14T09:47:16Z</time>
      </trkpt>
      <trkpt lat="38.4097670" lon="-0.6743630">
        <ele>276.0</ele>
        <time>2018-10-14T09:47:17Z</time>
      </trkpt>
      <trkpt lat="38.4097670" lon="-0.6743630">
        <ele>276.0</ele>
        <time>2018-10-14T09:47:18Z</time>
      </trkpt>
      <trkpt lat="38.4097250" lon="-0.6744670">
        <ele>276.0</ele>
        <time>2018-10-14T09:47:19Z</time>
      </trkpt>
      <trkpt lat="38.4097250" lon="-0.6744670">
        <ele>276.0</ele>
        <time>2018-10-14T09:47:20Z</time>
      </trkpt>
      <trkpt lat="38.4096870" lon="-0.6745700">
        <ele>276.0</ele>
        <time>2018-10-14T09:47:21Z</time>
      </trkpt>
      <trkpt lat="38.4096870" lon="-0.6745700">
        <ele>276.0</ele>
        <time>2018-10-14T09:47:22Z</time>
      </trkpt>
      <trkpt lat="38.4096500" lon="-0.6746750">
        <ele>276.0</ele>
        <time>2018-10-14T09:47:23Z</time>
      </trkpt>
      <trkpt lat="38.4096500" lon="-0.6746750">
        <ele>276.0</ele>
        <time>2018-10-14T09:47:24Z</time>
      </trkpt>
      <trkpt lat="38.4096180" lon="-0.6747870">
        <ele>276.0</ele>
        <time>2018-10-14T09:47:25Z</time>
      </trkpt>
      <trkpt lat="38.4096180" lon="-0.6747870">
        <ele>276.0</ele>
        <time>2018-10-14T09:47:26Z</time>
      </trkpt>
      <trkpt lat="38.4095920" lon="-0.6749000">
        <ele>276.0</ele>
        <time>2018-10-14T09:47:27Z</time>
      </trkpt>
      <trkpt lat="38.4095920" lon="-0.6749000">
        <ele>276.0</ele>
        <time>2018-10-14T09:47:28Z</time>
      </trkpt>
      <trkpt lat="38.4095700" lon="-0.6750130">
        <ele>276.0</ele>
        <time>2018-10-14T09:47:29Z</time>
      </trkpt>
      <trkpt lat="38.4095700" lon="-0.6750130">
        <ele>276.0</ele>
        <time>2018-10-14T09:47:30Z</time>
      </trkpt>
      <trkpt lat="38.4095530" lon="-0.6751270">
        <ele>276.0</ele>
        <time>2018-10-14T09:47:31Z</time>
      </trkpt>
      <trkpt lat="38.4095530" lon="-0.6751270">
        <ele>276.0</ele>
        <time>2018-10-14T09:47:32Z</time>
      </trkpt>
      <trkpt lat="38.4095420" lon="-0.6752470">
        <ele>276.0</ele>
        <time>2018-10-14T09:47:33Z</time>
      </trkpt>
      <trkpt lat="38.4095420" lon="-0.6752470">
        <ele>276.0</ele>
        <time>2018-10-14T09:47:34Z</time>
      </trkpt>
      <trkpt lat="38.4095300" lon="-0.6753650">
        <ele>276.0</ele>
        <time>2018-10-14T09:47:35Z</time>
      </trkpt>
      <trkpt lat="38.4095300" lon="-0.6753650">
        <ele>276.0</ele>
        <time>2018-10-14T09:47:36Z</time>
      </trkpt>
      <trkpt lat="38.4095200" lon="-0.6754800">
        <ele>276.0</ele>
        <time>2018-10-14T09:47:37Z</time>
      </trkpt>
      <trkpt lat="38.4095170" lon="-0.6755370">
        <ele>276.0</ele>
        <time>2018-10-14T09:47:38Z</time>
      </trkpt>
      <trkpt lat="38.4095170" lon="-0.6755370">
        <ele>276.0</ele>
        <time>2018-10-14T09:47:39Z</time>
      </trkpt>
      <trkpt lat="38.4095080" lon="-0.6756450">
        <ele>276.0</ele>
        <time>2018-10-14T09:47:40Z</time>
      </trkpt>
      <trkpt lat="38.4095070" lon="-0.6756980">
        <ele>276.0</ele>
        <time>2018-10-14T09:47:41Z</time>
      </trkpt>
      <trkpt lat="38.4095070" lon="-0.6756980">
        <ele>276.0</ele>
        <time>2018-10-14T09:47:42Z</time>
      </trkpt>
      <trkpt lat="38.4095020" lon="-0.6758070">
        <ele>276.0</ele>
        <time>2018-10-14T09:47:43Z</time>
      </trkpt>
      <trkpt lat="38.4095020" lon="-0.6758070">
        <ele>276.0</ele>
        <time>2018-10-14T09:47:44Z</time>
      </trkpt>
      <trkpt lat="38.4094920" lon="-0.6759170">
        <ele>276.0</ele>
        <time>2018-10-14T09:47:45Z</time>
      </trkpt>
      <trkpt lat="38.4094920" lon="-0.6759170">
        <ele>276.0</ele>
        <time>2018-10-14T09:47:46Z</time>
      </trkpt>
      <trkpt lat="38.4094900" lon="-0.6760300">
        <ele>276.0</ele>
        <time>2018-10-14T09:47:47Z</time>
      </trkpt>
      <trkpt lat="38.4094950" lon="-0.6760850">
        <ele>276.0</ele>
        <time>2018-10-14T09:47:48Z</time>
      </trkpt>
      <trkpt lat="38.4094950" lon="-0.6760850">
        <ele>276.0</ele>
        <time>2018-10-14T09:47:49Z</time>
      </trkpt>
      <trkpt lat="38.4095020" lon="-0.6761870">
        <ele>278.0</ele>
        <time>2018-10-14T09:47:50Z</time>
      </trkpt>
      <trkpt lat="38.4095050" lon="-0.6762420">
        <ele>278.0</ele>
        <time>2018-10-14T09:47:51Z</time>
      </trkpt>
      <trkpt lat="38.4095050" lon="-0.6762420">
        <ele>278.0</ele>
        <time>2018-10-14T09:47:52Z</time>
      </trkpt>
      <trkpt lat="38.4095120" lon="-0.6763470">
        <ele>278.0</ele>
        <time>2018-10-14T09:47:53Z</time>
      </trkpt>
      <trkpt lat="38.4095120" lon="-0.6763470">
        <ele>278.0</ele>
        <time>2018-10-14T09:47:54Z</time>
      </trkpt>
      <trkpt lat="38.4095170" lon="-0.6764470">
        <ele>278.0</ele>
        <time>2018-10-14T09:47:55Z</time>
      </trkpt>
      <trkpt lat="38.4095170" lon="-0.6764470">
        <ele>278.0</ele>
        <time>2018-10-14T09:47:56Z</time>
      </trkpt>
      <trkpt lat="38.4095170" lon="-0.6765470">
        <ele>278.0</ele>
        <time>2018-10-14T09:47:57Z</time>
      </trkpt>
      <trkpt lat="38.4095170" lon="-0.6765470">
        <ele>278.0</ele>
        <time>2018-10-14T09:47:58Z</time>
      </trkpt>
      <trkpt lat="38.4095130" lon="-0.6766450">
        <ele>278.0</ele>
        <time>2018-10-14T09:47:59Z</time>
      </trkpt>
      <trkpt lat="38.4095130" lon="-0.6766450">
        <ele>278.0</ele>
        <time>2018-10-14T09:48:00Z</time>
      </trkpt>
      <trkpt lat="38.4095080" lon="-0.6767420">
        <ele>278.0</ele>
        <time>2018-10-14T09:48:01Z</time>
      </trkpt>
      <trkpt lat="38.4095080" lon="-0.6767420">
        <ele>278.0</ele>
        <time>2018-10-14T09:48:02Z</time>
      </trkpt>
      <trkpt lat="38.4095050" lon="-0.6768400">
        <ele>278.0</ele>
        <time>2018-10-14T09:48:03Z</time>
      </trkpt>
      <trkpt lat="38.4095050" lon="-0.6768400">
        <ele>278.0</ele>
        <time>2018-10-14T09:48:04Z</time>
      </trkpt>
      <trkpt lat="38.4095050" lon="-0.6769400">
        <ele>278.0</ele>
        <time>2018-10-14T09:48:05Z</time>
      </trkpt>
      <trkpt lat="38.4095050" lon="-0.6769400">
        <ele>278.0</ele>
        <time>2018-10-14T09:48:06Z</time>
      </trkpt>
      <trkpt lat="38.4094950" lon="-0.6770370">
        <ele>278.0</ele>
        <time>2018-10-14T09:48:07Z</time>
      </trkpt>
      <trkpt lat="38.4094870" lon="-0.6770850">
        <ele>278.0</ele>
        <time>2018-10-14T09:48:08Z</time>
      </trkpt>
      <trkpt lat="38.4094780" lon="-0.6771320">
        <ele>281.0</ele>
        <time>2018-10-14T09:48:09Z</time>
      </trkpt>
      <trkpt lat="38.4094780" lon="-0.6771320">
        <ele>281.0</ele>
        <time>2018-10-14T09:48:10Z</time>
      </trkpt>
      <trkpt lat="38.4094530" lon="-0.6772300">
        <ele>280.0</ele>
        <time>2018-10-14T09:48:11Z</time>
      </trkpt>
      <trkpt lat="38.4094530" lon="-0.6772300">
        <ele>280.0</ele>
        <time>2018-10-14T09:48:12Z</time>
      </trkpt>
      <trkpt lat="38.4094250" lon="-0.6773350">
        <ele>280.0</ele>
        <time>2018-10-14T09:48:13Z</time>
      </trkpt>
      <trkpt lat="38.4094250" lon="-0.6773350">
        <ele>280.0</ele>
        <time>2018-10-14T09:48:14Z</time>
      </trkpt>
      <trkpt lat="38.4093950" lon="-0.6774470">
        <ele>279.0</ele>
        <time>2018-10-14T09:48:15Z</time>
      </trkpt>
      <trkpt lat="38.4093950" lon="-0.6774470">
        <ele>279.0</ele>
        <time>2018-10-14T09:48:16Z</time>
      </trkpt>
      <trkpt lat="38.4093650" lon="-0.6775600">
        <ele>279.0</ele>
        <time>2018-10-14T09:48:17Z</time>
      </trkpt>
      <trkpt lat="38.4093650" lon="-0.6775600">
        <ele>279.0</ele>
        <time>2018-10-14T09:48:18Z</time>
      </trkpt>
      <trkpt lat="38.4093330" lon="-0.6776750">
        <ele>279.0</ele>
        <time>2018-10-14T09:48:19Z</time>
      </trkpt>
      <trkpt lat="38.4093330" lon="-0.6776750">
        <ele>279.0</ele>
        <time>2018-10-14T09:48:20Z</time>
      </trkpt>
      <trkpt lat="38.4093070" lon="-0.6777920">
        <ele>278.0</ele>
        <time>2018-10-14T09:48:21Z</time>
      </trkpt>
      <trkpt lat="38.4093070" lon="-0.6777920">
        <ele>278.0</ele>
        <time>2018-10-14T09:48:22Z</time>
      </trkpt>
      <trkpt lat="38.4092830" lon="-0.6779120">
        <ele>278.0</ele>
        <time>2018-10-14T09:48:23Z</time>
      </trkpt>
      <trkpt lat="38.4092830" lon="-0.6779120">
        <ele>278.0</ele>
        <time>2018-10-14T09:48:24Z</time>
      </trkpt>
      <trkpt lat="38.4092670" lon="-0.6780300">
        <ele>278.0</ele>
        <time>2018-10-14T09:48:25Z</time>
      </trkpt>
      <trkpt lat="38.4092670" lon="-0.6780300">
        <ele>278.0</ele>
        <time>2018-10-14T09:48:26Z</time>
      </trkpt>
      <trkpt lat="38.4092550" lon="-0.6781470">
        <ele>278.0</ele>
        <time>2018-10-14T09:48:27Z</time>
      </trkpt>
      <trkpt lat="38.4092520" lon="-0.6782070">
        <ele>278.0</ele>
        <time>2018-10-14T09:48:28Z</time>
      </trkpt>
      <trkpt lat="38.4092520" lon="-0.6782070">
        <ele>278.0</ele>
        <time>2018-10-14T09:48:29Z</time>
      </trkpt>
      <trkpt lat="38.4092330" lon="-0.6783250">
        <ele>278.0</ele>
        <time>2018-10-14T09:48:30Z</time>
      </trkpt>
      <trkpt lat="38.4092150" lon="-0.6783800">
        <ele>278.0</ele>
        <time>2018-10-14T09:48:31Z</time>
      </trkpt>
      <trkpt lat="38.4092150" lon="-0.6783800">
        <ele>278.0</ele>
        <time>2018-10-14T09:48:32Z</time>
      </trkpt>
      <trkpt lat="38.4091780" lon="-0.6784930">
        <ele>278.0</ele>
        <time>2018-10-14T09:48:33Z</time>
      </trkpt>
      <trkpt lat="38.4091780" lon="-0.6784930">
        <ele>278.0</ele>
        <time>2018-10-14T09:48:34Z</time>
      </trkpt>
      <trkpt lat="38.4091550" lon="-0.6786050">
        <ele>278.0</ele>
        <time>2018-10-14T09:48:35Z</time>
      </trkpt>
      <trkpt lat="38.4091550" lon="-0.6786050">
        <ele>278.0</ele>
        <time>2018-10-14T09:48:36Z</time>
      </trkpt>
      <trkpt lat="38.4091450" lon="-0.6787070">
        <ele>278.0</ele>
        <time>2018-10-14T09:48:37Z</time>
      </trkpt>
      <trkpt lat="38.4091450" lon="-0.6787070">
        <ele>278.0</ele>
        <time>2018-10-14T09:48:38Z</time>
      </trkpt>
      <trkpt lat="38.4091300" lon="-0.6788100">
        <ele>278.0</ele>
        <time>2018-10-14T09:48:39Z</time>
      </trkpt>
      <trkpt lat="38.4091220" lon="-0.6788630">
        <ele>278.0</ele>
        <time>2018-10-14T09:48:40Z</time>
      </trkpt>
      <trkpt lat="38.4091220" lon="-0.6788630">
        <ele>279.0</ele>
        <time>2018-10-14T09:48:41Z</time>
      </trkpt>
      <trkpt lat="38.4091070" lon="-0.6789630">
        <ele>279.0</ele>
        <time>2018-10-14T09:48:42Z</time>
      </trkpt>
      <trkpt lat="38.4091030" lon="-0.6790150">
        <ele>279.0</ele>
        <time>2018-10-14T09:48:43Z</time>
      </trkpt>
      <trkpt lat="38.4091030" lon="-0.6790150">
        <ele>279.0</ele>
        <time>2018-10-14T09:48:44Z</time>
      </trkpt>
      <trkpt lat="38.4090980" lon="-0.6791270">
        <ele>279.0</ele>
        <time>2018-10-14T09:48:45Z</time>
      </trkpt>
      <trkpt lat="38.4090980" lon="-0.6791270">
        <ele>279.0</ele>
        <time>2018-10-14T09:48:46Z</time>
      </trkpt>
      <trkpt lat="38.4090920" lon="-0.6792500">
        <ele>279.0</ele>
        <time>2018-10-14T09:48:47Z</time>
      </trkpt>
      <trkpt lat="38.4090920" lon="-0.6792500">
        <ele>279.0</ele>
        <time>2018-10-14T09:48:48Z</time>
      </trkpt>
      <trkpt lat="38.4090820" lon="-0.6793680">
        <ele>279.0</ele>
        <time>2018-10-14T09:48:49Z</time>
      </trkpt>
      <trkpt lat="38.4090820" lon="-0.6793680">
        <ele>279.0</ele>
        <time>2018-10-14T09:48:50Z</time>
      </trkpt>
      <trkpt lat="38.4090720" lon="-0.6794870">
        <ele>279.0</ele>
        <time>2018-10-14T09:48:51Z</time>
      </trkpt>
      <trkpt lat="38.4090680" lon="-0.6795450">
        <ele>279.0</ele>
        <time>2018-10-14T09:48:52Z</time>
      </trkpt>
      <trkpt lat="38.4090680" lon="-0.6795450">
        <ele>279.0</ele>
        <time>2018-10-14T09:48:53Z</time>
      </trkpt>
      <trkpt lat="38.4090550" lon="-0.6796570">
        <ele>279.0</ele>
        <time>2018-10-14T09:48:54Z</time>
      </trkpt>
      <trkpt lat="38.4090480" lon="-0.6797120">
        <ele>279.0</ele>
        <time>2018-10-14T09:48:55Z</time>
      </trkpt>
      <trkpt lat="38.4090480" lon="-0.6797120">
        <ele>279.0</ele>
        <time>2018-10-14T09:48:56Z</time>
      </trkpt>
      <trkpt lat="38.4090420" lon="-0.6798100">
        <ele>279.0</ele>
        <time>2018-10-14T09:48:57Z</time>
      </trkpt>
      <trkpt lat="38.4090370" lon="-0.6798470">
        <ele>279.0</ele>
        <time>2018-10-14T09:48:58Z</time>
      </trkpt>
      <trkpt lat="38.4090370" lon="-0.6798470">
        <ele>279.0</ele>
        <time>2018-10-14T09:48:59Z</time>
      </trkpt>
      <trkpt lat="38.4090300" lon="-0.6799050">
        <ele>279.0</ele>
        <time>2018-10-14T09:49:00Z</time>
      </trkpt>
      <trkpt lat="38.4090270" lon="-0.6799220">
        <ele>279.0</ele>
        <time>2018-10-14T09:49:01Z</time>
      </trkpt>
      <trkpt lat="38.4090270" lon="-0.6799220">
        <ele>279.0</ele>
        <time>2018-10-14T09:49:02Z</time>
      </trkpt>
      <trkpt lat="38.4090230" lon="-0.6799330">
        <ele>279.0</ele>
        <time>2018-10-14T09:49:03Z</time>
      </trkpt>
      <trkpt lat="38.4090230" lon="-0.6799330">
        <ele>279.0</ele>
        <time>2018-10-14T09:49:04Z</time>
      </trkpt>
      <trkpt lat="38.4090180" lon="-0.6799600">
        <ele>279.0</ele>
        <time>2018-10-14T09:49:17Z</time>
      </trkpt>
      <trkpt lat="38.4090180" lon="-0.6799620">
        <ele>279.0</ele>
        <time>2018-10-14T09:49:18Z</time>
      </trkpt>
      <trkpt lat="38.4090180" lon="-0.6799630">
        <ele>279.0</ele>
        <time>2018-10-14T09:49:19Z</time>
      </trkpt>
      <trkpt lat="38.4090180" lon="-0.6799630">
        <ele>279.0</ele>
        <time>2018-10-14T10:06:20Z</time>
      </trkpt>
      <trkpt lat="38.4090220" lon="-0.6800120">
        <ele>279.0</ele>
        <time>2018-10-14T10:06:21Z</time>
      </trkpt>
      <trkpt lat="38.4090220" lon="-0.6800120">
        <ele>279.0</ele>
        <time>2018-10-14T10:06:22Z</time>
      </trkpt>
      <trkpt lat="38.4090180" lon="-0.6800370">
        <ele>280.0</ele>
        <time>2018-10-14T10:06:23Z</time>
      </trkpt>
      <trkpt lat="38.4090170" lon="-0.6800570">
        <ele>280.0</ele>
        <time>2018-10-14T10:06:24Z</time>
      </trkpt>
      <trkpt lat="38.4090150" lon="-0.6800820">
        <ele>280.0</ele>
        <time>2018-10-14T10:06:25Z</time>
      </trkpt>
      <trkpt lat="38.4090150" lon="-0.6800820">
        <ele>280.0</ele>
        <time>2018-10-14T10:06:26Z</time>
      </trkpt>
      <trkpt lat="38.4090130" lon="-0.6801550">
        <ele>281.0</ele>
        <time>2018-10-14T10:06:27Z</time>
      </trkpt>
      <trkpt lat="38.4090130" lon="-0.6801950">
        <ele>281.0</ele>
        <time>2018-10-14T10:06:28Z</time>
      </trkpt>
      <trkpt lat="38.4090130" lon="-0.6801950">
        <ele>281.0</ele>
        <time>2018-10-14T10:06:29Z</time>
      </trkpt>
      <trkpt lat="38.4090070" lon="-0.6802880">
        <ele>281.0</ele>
        <time>2018-10-14T10:06:30Z</time>
      </trkpt>
      <trkpt lat="38.4090000" lon="-0.6803400">
        <ele>281.0</ele>
        <time>2018-10-14T10:06:31Z</time>
      </trkpt>
      <trkpt lat="38.4090000" lon="-0.6803400">
        <ele>281.0</ele>
        <time>2018-10-14T10:06:32Z</time>
      </trkpt>
      <trkpt lat="38.4089880" lon="-0.6804570">
        <ele>281.0</ele>
        <time>2018-10-14T10:06:33Z</time>
      </trkpt>
      <trkpt lat="38.4089880" lon="-0.6804570">
        <ele>281.0</ele>
        <time>2018-10-14T10:06:34Z</time>
      </trkpt>
      <trkpt lat="38.4089800" lon="-0.6805850">
        <ele>281.0</ele>
        <time>2018-10-14T10:06:35Z</time>
      </trkpt>
      <trkpt lat="38.4089800" lon="-0.6805850">
        <ele>281.0</ele>
        <time>2018-10-14T10:06:36Z</time>
      </trkpt>
      <trkpt lat="38.4089750" lon="-0.6807180">
        <ele>281.0</ele>
        <time>2018-10-14T10:06:37Z</time>
      </trkpt>
      <trkpt lat="38.4089750" lon="-0.6807180">
        <ele>281.0</ele>
        <time>2018-10-14T10:06:38Z</time>
      </trkpt>
      <trkpt lat="38.4089700" lon="-0.6808500">
        <ele>281.0</ele>
        <time>2018-10-14T10:06:39Z</time>
      </trkpt>
      <trkpt lat="38.4089700" lon="-0.6808500">
        <ele>281.0</ele>
        <time>2018-10-14T10:06:40Z</time>
      </trkpt>
      <trkpt lat="38.4089600" lon="-0.6809850">
        <ele>281.0</ele>
        <time>2018-10-14T10:06:41Z</time>
      </trkpt>
      <trkpt lat="38.4089600" lon="-0.6809850">
        <ele>281.0</ele>
        <time>2018-10-14T10:06:42Z</time>
      </trkpt>
      <trkpt lat="38.4089530" lon="-0.6811280">
        <ele>281.0</ele>
        <time>2018-10-14T10:06:43Z</time>
      </trkpt>
      <trkpt lat="38.4089530" lon="-0.6811280">
        <ele>282.0</ele>
        <time>2018-10-14T10:06:44Z</time>
      </trkpt>
      <trkpt lat="38.4089470" lon="-0.6812730">
        <ele>282.0</ele>
        <time>2018-10-14T10:06:45Z</time>
      </trkpt>
      <trkpt lat="38.4089470" lon="-0.6812730">
        <ele>285.0</ele>
        <time>2018-10-14T10:06:46Z</time>
      </trkpt>
      <trkpt lat="38.4089420" lon="-0.6814220">
        <ele>285.0</ele>
        <time>2018-10-14T10:06:47Z</time>
      </trkpt>
      <trkpt lat="38.4089380" lon="-0.6814930">
        <ele>276.0</ele>
        <time>2018-10-14T10:06:48Z</time>
      </trkpt>
      <trkpt lat="38.4089380" lon="-0.6814930">
        <ele>276.0</ele>
        <time>2018-10-14T10:06:49Z</time>
      </trkpt>
      <trkpt lat="38.4089280" lon="-0.6816350">
        <ele>279.0</ele>
        <time>2018-10-14T10:06:50Z</time>
      </trkpt>
      <trkpt lat="38.4089220" lon="-0.6817070">
        <ele>279.0</ele>
        <time>2018-10-14T10:06:51Z</time>
      </trkpt>
      <trkpt lat="38.4089220" lon="-0.6817070">
        <ele>281.0</ele>
        <time>2018-10-14T10:06:52Z</time>
      </trkpt>
      <trkpt lat="38.4089120" lon="-0.6818570">
        <ele>281.0</ele>
        <time>2018-10-14T10:06:53Z</time>
      </trkpt>
      <trkpt lat="38.4089120" lon="-0.6818570">
        <ele>281.0</ele>
        <time>2018-10-14T10:06:54Z</time>
      </trkpt>
      <trkpt lat="38.4089030" lon="-0.6820180">
        <ele>281.0</ele>
        <time>2018-10-14T10:06:55Z</time>
      </trkpt>
      <trkpt lat="38.4088970" lon="-0.6821020">
        <ele>282.0</ele>
        <time>2018-10-14T10:06:56Z</time>
      </trkpt>
      <trkpt lat="38.4088970" lon="-0.6821020">
        <ele>282.0</ele>
        <time>2018-10-14T10:06:57Z</time>
      </trkpt>
      <trkpt lat="38.4088830" lon="-0.6822730">
        <ele>282.0</ele>
        <time>2018-10-14T10:06:58Z</time>
      </trkpt>
      <trkpt lat="38.4088770" lon="-0.6823600">
        <ele>282.0</ele>
        <time>2018-10-14T10:06:59Z</time>
      </trkpt>
      <trkpt lat="38.4088770" lon="-0.6823600">
        <ele>282.0</ele>
        <time>2018-10-14T10:07:00Z</time>
      </trkpt>
      <trkpt lat="38.4088650" lon="-0.6825380">
        <ele>282.0</ele>
        <time>2018-10-14T10:07:01Z</time>
      </trkpt>
      <trkpt lat="38.4088650" lon="-0.6825380">
        <ele>282.0</ele>
        <time>2018-10-14T10:07:02Z</time>
      </trkpt>
      <trkpt lat="38.4088530" lon="-0.6827170">
        <ele>282.0</ele>
        <time>2018-10-14T10:07:03Z</time>
      </trkpt>
      <trkpt lat="38.4088530" lon="-0.6827170">
        <ele>282.0</ele>
        <time>2018-10-14T10:07:04Z</time>
      </trkpt>
      <trkpt lat="38.4088370" lon="-0.6828950">
        <ele>282.0</ele>
        <time>2018-10-14T10:07:05Z</time>
      </trkpt>
      <trkpt lat="38.4088300" lon="-0.6829870">
        <ele>282.0</ele>
        <time>2018-10-14T10:07:06Z</time>
      </trkpt>
      <trkpt lat="38.4088230" lon="-0.6830780">
        <ele>282.0</ele>
        <time>2018-10-14T10:07:07Z</time>
      </trkpt>
      <trkpt lat="38.4088230" lon="-0.6830780">
        <ele>282.0</ele>
        <time>2018-10-14T10:07:08Z</time>
      </trkpt>
      <trkpt lat="38.4088080" lon="-0.6832650">
        <ele>282.0</ele>
        <time>2018-10-14T10:07:09Z</time>
      </trkpt>
      <trkpt lat="38.4088080" lon="-0.6832650">
        <ele>282.0</ele>
        <time>2018-10-14T10:07:10Z</time>
      </trkpt>
      <trkpt lat="38.4087880" lon="-0.6834530">
        <ele>282.0</ele>
        <time>2018-10-14T10:07:11Z</time>
      </trkpt>
      <trkpt lat="38.4087880" lon="-0.6834530">
        <ele>282.0</ele>
        <time>2018-10-14T10:07:12Z</time>
      </trkpt>
      <trkpt lat="38.4087700" lon="-0.6836400">
        <ele>282.0</ele>
        <time>2018-10-14T10:07:13Z</time>
      </trkpt>
      <trkpt lat="38.4087700" lon="-0.6836400">
        <ele>281.0</ele>
        <time>2018-10-14T10:07:14Z</time>
      </trkpt>
      <trkpt lat="38.4087530" lon="-0.6838230">
        <ele>281.0</ele>
        <time>2018-10-14T10:07:15Z</time>
      </trkpt>
      <trkpt lat="38.4087530" lon="-0.6838230">
        <ele>281.0</ele>
        <time>2018-10-14T10:07:16Z</time>
      </trkpt>
      <trkpt lat="38.4087280" lon="-0.6840100">
        <ele>281.0</ele>
        <time>2018-10-14T10:07:17Z</time>
      </trkpt>
      <trkpt lat="38.4087200" lon="-0.6841020">
        <ele>281.0</ele>
        <time>2018-10-14T10:07:18Z</time>
      </trkpt>
      <trkpt lat="38.4087120" lon="-0.6841950">
        <ele>281.0</ele>
        <time>2018-10-14T10:07:19Z</time>
      </trkpt>
      <trkpt lat="38.4087120" lon="-0.6841950">
        <ele>281.0</ele>
        <time>2018-10-14T10:07:20Z</time>
      </trkpt>
      <trkpt lat="38.4086930" lon="-0.6843820">
        <ele>281.0</ele>
        <time>2018-10-14T10:07:21Z</time>
      </trkpt>
      <trkpt lat="38.4086930" lon="-0.6843820">
        <ele>280.0</ele>
        <time>2018-10-14T10:07:22Z</time>
      </trkpt>
      <trkpt lat="38.4086680" lon="-0.6845700">
        <ele>280.0</ele>
        <time>2018-10-14T10:07:23Z</time>
      </trkpt>
      <trkpt lat="38.4086680" lon="-0.6845700">
        <ele>280.0</ele>
        <time>2018-10-14T10:07:24Z</time>
      </trkpt>
      <trkpt lat="38.4086480" lon="-0.6847630">
        <ele>280.0</ele>
        <time>2018-10-14T10:07:25Z</time>
      </trkpt>
      <trkpt lat="38.4086480" lon="-0.6847630">
        <ele>280.0</ele>
        <time>2018-10-14T10:07:26Z</time>
      </trkpt>
      <trkpt lat="38.4086300" lon="-0.6849600">
        <ele>280.0</ele>
        <time>2018-10-14T10:07:27Z</time>
      </trkpt>
      <trkpt lat="38.4086300" lon="-0.6849600">
        <ele>280.0</ele>
        <time>2018-10-14T10:07:28Z</time>
      </trkpt>
      <trkpt lat="38.4086050" lon="-0.6851500">
        <ele>280.0</ele>
        <time>2018-10-14T10:07:29Z</time>
      </trkpt>
      <trkpt lat="38.4086050" lon="-0.6851500">
        <ele>280.0</ele>
        <time>2018-10-14T10:07:30Z</time>
      </trkpt>
      <trkpt lat="38.4085780" lon="-0.6853420">
        <ele>280.0</ele>
        <time>2018-10-14T10:07:31Z</time>
      </trkpt>
      <trkpt lat="38.4085780" lon="-0.6853420">
        <ele>279.0</ele>
        <time>2018-10-14T10:07:32Z</time>
      </trkpt>
      <trkpt lat="38.4085470" lon="-0.6855400">
        <ele>279.0</ele>
        <time>2018-10-14T10:07:33Z</time>
      </trkpt>
      <trkpt lat="38.4085330" lon="-0.6856430">
        <ele>279.0</ele>
        <time>2018-10-14T10:07:34Z</time>
      </trkpt>
      <trkpt lat="38.4085180" lon="-0.6857470">
        <ele>279.0</ele>
        <time>2018-10-14T10:07:35Z</time>
      </trkpt>
      <trkpt lat="38.4085180" lon="-0.6857470">
        <ele>278.0</ele>
        <time>2018-10-14T10:07:36Z</time>
      </trkpt>
      <trkpt lat="38.4084930" lon="-0.6859530">
        <ele>278.0</ele>
        <time>2018-10-14T10:07:37Z</time>
      </trkpt>
      <trkpt lat="38.4084930" lon="-0.6859530">
        <ele>278.0</ele>
        <time>2018-10-14T10:07:38Z</time>
      </trkpt>
      <trkpt lat="38.4084720" lon="-0.6861600">
        <ele>278.0</ele>
        <time>2018-10-14T10:07:39Z</time>
      </trkpt>
      <trkpt lat="38.4084720" lon="-0.6861600">
        <ele>278.0</ele>
        <time>2018-10-14T10:07:40Z</time>
      </trkpt>
      <trkpt lat="38.4084480" lon="-0.6863580">
        <ele>278.0</ele>
        <time>2018-10-14T10:07:41Z</time>
      </trkpt>
      <trkpt lat="38.4084480" lon="-0.6863580">
        <ele>278.0</ele>
        <time>2018-10-14T10:07:42Z</time>
      </trkpt>
      <trkpt lat="38.4084280" lon="-0.6865580">
        <ele>278.0</ele>
        <time>2018-10-14T10:07:43Z</time>
      </trkpt>
      <trkpt lat="38.4084280" lon="-0.6865580">
        <ele>278.0</ele>
        <time>2018-10-14T10:07:44Z</time>
      </trkpt>
      <trkpt lat="38.4084120" lon="-0.6867650">
        <ele>277.0</ele>
        <time>2018-10-14T10:07:45Z</time>
      </trkpt>
      <trkpt lat="38.4084120" lon="-0.6867650">
        <ele>277.0</ele>
        <time>2018-10-14T10:07:46Z</time>
      </trkpt>
      <trkpt lat="38.4083880" lon="-0.6869720">
        <ele>277.0</ele>
        <time>2018-10-14T10:07:47Z</time>
      </trkpt>
      <trkpt lat="38.4083730" lon="-0.6870750">
        <ele>277.0</ele>
        <time>2018-10-14T10:07:48Z</time>
      </trkpt>
      <trkpt lat="38.4083730" lon="-0.6870750">
        <ele>276.0</ele>
        <time>2018-10-14T10:07:49Z</time>
      </trkpt>
      <trkpt lat="38.4083450" lon="-0.6872820">
        <ele>276.0</ele>
        <time>2018-10-14T10:07:50Z</time>
      </trkpt>
      <trkpt lat="38.4083450" lon="-0.6872820">
        <ele>276.0</ele>
        <time>2018-10-14T10:07:51Z</time>
      </trkpt>
      <trkpt lat="38.4083170" lon="-0.6874870">
        <ele>276.0</ele>
        <time>2018-10-14T10:07:52Z</time>
      </trkpt>
      <trkpt lat="38.4083020" lon="-0.6875880">
        <ele>276.0</ele>
        <time>2018-10-14T10:07:53Z</time>
      </trkpt>
      <trkpt lat="38.4083020" lon="-0.6875880">
        <ele>276.0</ele>
        <time>2018-10-14T10:07:54Z</time>
      </trkpt>
      <trkpt lat="38.4082770" lon="-0.6877900">
        <ele>275.0</ele>
        <time>2018-10-14T10:07:55Z</time>
      </trkpt>
      <trkpt lat="38.4082650" lon="-0.6878900">
        <ele>275.0</ele>
        <time>2018-10-14T10:07:56Z</time>
      </trkpt>
      <trkpt lat="38.4082650" lon="-0.6878900">
        <ele>275.0</ele>
        <time>2018-10-14T10:07:57Z</time>
      </trkpt>
      <trkpt lat="38.4082380" lon="-0.6880880">
        <ele>275.0</ele>
        <time>2018-10-14T10:07:58Z</time>
      </trkpt>
      <trkpt lat="38.4082380" lon="-0.6880880">
        <ele>275.0</ele>
        <time>2018-10-14T10:07:59Z</time>
      </trkpt>
      <trkpt lat="38.4082120" lon="-0.6882870">
        <ele>275.0</ele>
        <time>2018-10-14T10:08:00Z</time>
      </trkpt>
      <trkpt lat="38.4082000" lon="-0.6883770">
        <ele>274.0</ele>
        <time>2018-10-14T10:08:01Z</time>
      </trkpt>
      <trkpt lat="38.4082000" lon="-0.6883770">
        <ele>274.0</ele>
        <time>2018-10-14T10:08:02Z</time>
      </trkpt>
      <trkpt lat="38.4081730" lon="-0.6885500">
        <ele>274.0</ele>
        <time>2018-10-14T10:08:03Z</time>
      </trkpt>
      <trkpt lat="38.4081730" lon="-0.6885500">
        <ele>274.0</ele>
        <time>2018-10-14T10:08:04Z</time>
      </trkpt>
      <trkpt lat="38.4081420" lon="-0.6887280">
        <ele>274.0</ele>
        <time>2018-10-14T10:08:05Z</time>
      </trkpt>
      <trkpt lat="38.4081300" lon="-0.6888200">
        <ele>274.0</ele>
        <time>2018-10-14T10:08:06Z</time>
      </trkpt>
      <trkpt lat="38.4081300" lon="-0.6888200">
        <ele>274.0</ele>
        <time>2018-10-14T10:08:07Z</time>
      </trkpt>
      <trkpt lat="38.4081070" lon="-0.6889880">
        <ele>274.0</ele>
        <time>2018-10-14T10:08:08Z</time>
      </trkpt>
      <trkpt lat="38.4081070" lon="-0.6889880">
        <ele>273.0</ele>
        <time>2018-10-14T10:08:09Z</time>
      </trkpt>
      <trkpt lat="38.4080520" lon="-0.6891000">
        <ele>273.0</ele>
        <time>2018-10-14T10:08:10Z</time>
      </trkpt>
      <trkpt lat="38.4080070" lon="-0.6891230">
        <ele>272.0</ele>
        <time>2018-10-14T10:08:11Z</time>
      </trkpt>
      <trkpt lat="38.4080070" lon="-0.6891230">
        <ele>272.0</ele>
        <time>2018-10-14T10:08:12Z</time>
      </trkpt>
      <trkpt lat="38.4079150" lon="-0.6891330">
        <ele>272.0</ele>
        <time>2018-10-14T10:08:13Z</time>
      </trkpt>
      <trkpt lat="38.4079150" lon="-0.6891330">
        <ele>272.0</ele>
        <time>2018-10-14T10:08:14Z</time>
      </trkpt>
      <trkpt lat="38.4078030" lon="-0.6891420">
        <ele>271.0</ele>
        <time>2018-10-14T10:08:15Z</time>
      </trkpt>
      <trkpt lat="38.4078030" lon="-0.6891420">
        <ele>271.0</ele>
        <time>2018-10-14T10:08:16Z</time>
      </trkpt>
      <trkpt lat="38.4076680" lon="-0.6891550">
        <ele>271.0</ele>
        <time>2018-10-14T10:08:17Z</time>
      </trkpt>
      <trkpt lat="38.4076680" lon="-0.6891550">
        <ele>271.0</ele>
        <time>2018-10-14T10:08:18Z</time>
      </trkpt>
      <trkpt lat="38.4075300" lon="-0.6891700">
        <ele>271.0</ele>
        <time>2018-10-14T10:08:19Z</time>
      </trkpt>
      <trkpt lat="38.4075300" lon="-0.6891700">
        <ele>271.0</ele>
        <time>2018-10-14T10:08:20Z</time>
      </trkpt>
      <trkpt lat="38.4073870" lon="-0.6891870">
        <ele>271.0</ele>
        <time>2018-10-14T10:08:21Z</time>
      </trkpt>
      <trkpt lat="38.4073150" lon="-0.6891970">
        <ele>271.0</ele>
        <time>2018-10-14T10:08:22Z</time>
      </trkpt>
      <trkpt lat="38.4071300" lon="-0.6891330">
        <ele>271.0</ele>
        <time>2018-10-14T10:08:23Z</time>
      </trkpt>
      <trkpt lat="38.4071300" lon="-0.6891330">
        <ele>271.0</ele>
        <time>2018-10-14T10:08:24Z</time>
      </trkpt>
      <trkpt lat="38.4071980" lon="-0.6890780">
        <ele>271.0</ele>
        <time>2018-10-14T10:08:25Z</time>
      </trkpt>
      <trkpt lat="38.4071980" lon="-0.6890780">
        <ele>271.0</ele>
        <time>2018-10-14T10:08:26Z</time>
      </trkpt>
      <trkpt lat="38.4071750" lon="-0.6891080">
        <ele>271.0</ele>
        <time>2018-10-14T10:08:27Z</time>
      </trkpt>
      <trkpt lat="38.4071680" lon="-0.6891700">
        <ele>271.0</ele>
        <time>2018-10-14T10:08:28Z</time>
      </trkpt>
      <trkpt lat="38.4071680" lon="-0.6891700">
        <ele>271.0</ele>
        <time>2018-10-14T10:08:29Z</time>
      </trkpt>
      <trkpt lat="38.4071680" lon="-0.6893020">
        <ele>271.0</ele>
        <time>2018-10-14T10:08:30Z</time>
      </trkpt>
      <trkpt lat="38.4071670" lon="-0.6893720">
        <ele>271.0</ele>
        <time>2018-10-14T10:08:31Z</time>
      </trkpt>
      <trkpt lat="38.4071640" lon="-0.6894180">
        <ele>270.0</ele>
        <time>2018-10-14T10:08:32Z</time>
      </trkpt>
      <trkpt lat="38.4071610" lon="-0.6894640">
        <ele>270.0</ele>
        <time>2018-10-14T10:08:33Z</time>
      </trkpt>
      <trkpt lat="38.4071580" lon="-0.6895100">
        <ele>270.0</ele>
        <time>2018-10-14T10:08:34Z</time>
      </trkpt>
      <trkpt lat="38.4071400" lon="-0.6896530">
        <ele>270.0</ele>
        <time>2018-10-14T10:08:35Z</time>
      </trkpt>
      <trkpt lat="38.4071400" lon="-0.6896530">
        <ele>270.0</ele>
        <time>2018-10-14T10:08:36Z</time>
      </trkpt>
      <trkpt lat="38.4071150" lon="-0.6898030">
        <ele>270.0</ele>
        <time>2018-10-14T10:08:37Z</time>
      </trkpt>
      <trkpt lat="38.4071070" lon="-0.6898780">
        <ele>270.0</ele>
        <time>2018-10-14T10:08:38Z</time>
      </trkpt>
      <trkpt lat="38.4071000" lon="-0.6899520">
        <ele>270.0</ele>
        <time>2018-10-14T10:08:39Z</time>
      </trkpt>
      <trkpt lat="38.4071000" lon="-0.6899520">
        <ele>270.0</ele>
        <time>2018-10-14T10:08:40Z</time>
      </trkpt>
      <trkpt lat="38.4070800" lon="-0.6900980">
        <ele>270.0</ele>
        <time>2018-10-14T10:08:41Z</time>
      </trkpt>
      <trkpt lat="38.4070800" lon="-0.6900980">
        <ele>270.0</ele>
        <time>2018-10-14T10:08:42Z</time>
      </trkpt>
      <trkpt lat="38.4070800" lon="-0.6902330">
        <ele>270.0</ele>
        <time>2018-10-14T10:08:43Z</time>
      </trkpt>
      <trkpt lat="38.4070800" lon="-0.6902330">
        <ele>270.0</ele>
        <time>2018-10-14T10:08:44Z</time>
      </trkpt>
      <trkpt lat="38.4070820" lon="-0.6903650">
        <ele>270.0</ele>
        <time>2018-10-14T10:08:45Z</time>
      </trkpt>
      <trkpt lat="38.4070820" lon="-0.6903650">
        <ele>271.0</ele>
        <time>2018-10-14T10:08:46Z</time>
      </trkpt>
      <trkpt lat="38.4070570" lon="-0.6904780">
        <ele>271.0</ele>
        <time>2018-10-14T10:08:47Z</time>
      </trkpt>
      <trkpt lat="38.4070570" lon="-0.6904780">
        <ele>271.0</ele>
        <time>2018-10-14T10:08:48Z</time>
      </trkpt>
      <trkpt lat="38.4070400" lon="-0.6905980">
        <ele>271.0</ele>
        <time>2018-10-14T10:08:49Z</time>
      </trkpt>
      <trkpt lat="38.4070400" lon="-0.6905980">
        <ele>271.0</ele>
        <time>2018-10-14T10:08:50Z</time>
      </trkpt>
      <trkpt lat="38.4070200" lon="-0.6907270">
        <ele>271.0</ele>
        <time>2018-10-14T10:08:51Z</time>
      </trkpt>
      <trkpt lat="38.4070200" lon="-0.6907270">
        <ele>271.0</ele>
        <time>2018-10-14T10:08:52Z</time>
      </trkpt>
      <trkpt lat="38.4069650" lon="-0.6908320">
        <ele>271.0</ele>
        <time>2018-10-14T10:08:53Z</time>
      </trkpt>
      <trkpt lat="38.4069650" lon="-0.6908320">
        <ele>271.0</ele>
        <time>2018-10-14T10:08:54Z</time>
      </trkpt>
      <trkpt lat="38.4068870" lon="-0.6909120">
        <ele>271.0</ele>
        <time>2018-10-14T10:08:55Z</time>
      </trkpt>
      <trkpt lat="38.4068870" lon="-0.6909120">
        <ele>272.0</ele>
        <time>2018-10-14T10:08:56Z</time>
      </trkpt>
      <trkpt lat="38.4067980" lon="-0.6909680">
        <ele>272.0</ele>
        <time>2018-10-14T10:08:57Z</time>
      </trkpt>
      <trkpt lat="38.4067980" lon="-0.6909680">
        <ele>272.0</ele>
        <time>2018-10-14T10:08:58Z</time>
      </trkpt>
      <trkpt lat="38.4066980" lon="-0.6910220">
        <ele>272.0</ele>
        <time>2018-10-14T10:08:59Z</time>
      </trkpt>
      <trkpt lat="38.4066980" lon="-0.6910220">
        <ele>273.0</ele>
        <time>2018-10-14T10:09:00Z</time>
      </trkpt>
      <trkpt lat="38.4065980" lon="-0.6911030">
        <ele>273.0</ele>
        <time>2018-10-14T10:09:01Z</time>
      </trkpt>
      <trkpt lat="38.4065980" lon="-0.6911030">
        <ele>273.0</ele>
        <time>2018-10-14T10:09:02Z</time>
      </trkpt>
      <trkpt lat="38.4064980" lon="-0.6911850">
        <ele>273.0</ele>
        <time>2018-10-14T10:09:03Z</time>
      </trkpt>
      <trkpt lat="38.4064480" lon="-0.6912250">
        <ele>272.0</ele>
        <time>2018-10-14T10:09:04Z</time>
      </trkpt>
      <trkpt lat="38.4064480" lon="-0.6912250">
        <ele>272.0</ele>
        <time>2018-10-14T10:09:05Z</time>
      </trkpt>
      <trkpt lat="38.4063400" lon="-0.6912950">
        <ele>272.0</ele>
        <time>2018-10-14T10:09:06Z</time>
      </trkpt>
      <trkpt lat="38.4062820" lon="-0.6913200">
        <ele>272.0</ele>
        <time>2018-10-14T10:09:07Z</time>
      </trkpt>
      <trkpt lat="38.4062820" lon="-0.6913200">
        <ele>272.0</ele>
        <time>2018-10-14T10:09:08Z</time>
      </trkpt>
      <trkpt lat="38.4061650" lon="-0.6913250">
        <ele>272.0</ele>
        <time>2018-10-14T10:09:09Z</time>
      </trkpt>
      <trkpt lat="38.4061650" lon="-0.6913250">
        <ele>272.0</ele>
        <time>2018-10-14T10:09:10Z</time>
      </trkpt>
      <trkpt lat="38.4060520" lon="-0.6912850">
        <ele>272.0</ele>
        <time>2018-10-14T10:09:11Z</time>
      </trkpt>
      <trkpt lat="38.4060520" lon="-0.6912850">
        <ele>272.0</ele>
        <time>2018-10-14T10:09:12Z</time>
      </trkpt>
      <trkpt lat="38.4059430" lon="-0.6912220">
        <ele>272.0</ele>
        <time>2018-10-14T10:09:13Z</time>
      </trkpt>
      <trkpt lat="38.4059430" lon="-0.6912220">
        <ele>272.0</ele>
        <time>2018-10-14T10:09:14Z</time>
      </trkpt>
      <trkpt lat="38.4058330" lon="-0.6911570">
        <ele>272.0</ele>
        <time>2018-10-14T10:09:15Z</time>
      </trkpt>
      <trkpt lat="38.4058330" lon="-0.6911570">
        <ele>271.0</ele>
        <time>2018-10-14T10:09:16Z</time>
      </trkpt>
      <trkpt lat="38.4057220" lon="-0.6910950">
        <ele>271.0</ele>
        <time>2018-10-14T10:09:17Z</time>
      </trkpt>
      <trkpt lat="38.4057220" lon="-0.6910950">
        <ele>271.0</ele>
        <time>2018-10-14T10:09:18Z</time>
      </trkpt>
      <trkpt lat="38.4056280" lon="-0.6910480">
        <ele>271.0</ele>
        <time>2018-10-14T10:09:19Z</time>
      </trkpt>
      <trkpt lat="38.4056280" lon="-0.6910480">
        <ele>271.0</ele>
        <time>2018-10-14T10:09:20Z</time>
      </trkpt>
      <trkpt lat="38.4055520" lon="-0.6910180">
        <ele>270.0</ele>
        <time>2018-10-14T10:09:21Z</time>
      </trkpt>
      <trkpt lat="38.4055520" lon="-0.6910180">
        <ele>270.0</ele>
        <time>2018-10-14T10:09:22Z</time>
      </trkpt>
      <trkpt lat="38.4054900" lon="-0.6910180">
        <ele>270.0</ele>
        <time>2018-10-14T10:09:23Z</time>
      </trkpt>
      <trkpt lat="38.4054900" lon="-0.6910180">
        <ele>270.0</ele>
        <time>2018-10-14T10:09:24Z</time>
      </trkpt>
      <trkpt lat="38.4054570" lon="-0.6910500">
        <ele>270.0</ele>
        <time>2018-10-14T10:09:25Z</time>
      </trkpt>
      <trkpt lat="38.4054570" lon="-0.6910500">
        <ele>270.0</ele>
        <time>2018-10-14T10:09:26Z</time>
      </trkpt>
      <trkpt lat="38.4054480" lon="-0.6910600">
        <ele>269.0</ele>
        <time>2018-10-14T10:09:27Z</time>
      </trkpt>
      <trkpt lat="38.4054480" lon="-0.6910600">
        <ele>269.0</ele>
        <time>2018-10-14T10:09:28Z</time>
      </trkpt>
      <trkpt lat="38.4054480" lon="-0.6910600">
        <ele>269.0</ele>
        <time>2018-10-14T10:09:29Z</time>
      </trkpt>
      <trkpt lat="38.4054480" lon="-0.6910580">
        <ele>269.0</ele>
        <time>2018-10-14T10:09:36Z</time>
      </trkpt>
      <trkpt lat="38.4054080" lon="-0.6911120">
        <ele>269.0</ele>
        <time>2018-10-14T10:09:37Z</time>
      </trkpt>
      <trkpt lat="38.4054080" lon="-0.6911120">
        <ele>269.0</ele>
        <time>2018-10-14T10:09:38Z</time>
      </trkpt>
      <trkpt lat="38.4053730" lon="-0.6911770">
        <ele>269.0</ele>
        <time>2018-10-14T10:09:39Z</time>
      </trkpt>
      <trkpt lat="38.4053730" lon="-0.6911770">
        <ele>269.0</ele>
        <time>2018-10-14T10:09:40Z</time>
      </trkpt>
      <trkpt lat="38.4053280" lon="-0.6912700">
        <ele>269.0</ele>
        <time>2018-10-14T10:09:41Z</time>
      </trkpt>
      <trkpt lat="38.4053280" lon="-0.6912700">
        <ele>269.0</ele>
        <time>2018-10-14T10:09:42Z</time>
      </trkpt>
      <trkpt lat="38.4052800" lon="-0.6913820">
        <ele>269.0</ele>
        <time>2018-10-14T10:09:43Z</time>
      </trkpt>
      <trkpt lat="38.4052800" lon="-0.6913820">
        <ele>269.0</ele>
        <time>2018-10-14T10:09:44Z</time>
      </trkpt>
      <trkpt lat="38.4052280" lon="-0.6914980">
        <ele>269.0</ele>
        <time>2018-10-14T10:09:45Z</time>
      </trkpt>
      <trkpt lat="38.4052280" lon="-0.6914980">
        <ele>269.0</ele>
        <time>2018-10-14T10:09:46Z</time>
      </trkpt>
      <trkpt lat="38.4051650" lon="-0.6916180">
        <ele>269.0</ele>
        <time>2018-10-14T10:09:47Z</time>
      </trkpt>
      <trkpt lat="38.4051650" lon="-0.6916180">
        <ele>269.0</ele>
        <time>2018-10-14T10:09:48Z</time>
      </trkpt>
      <trkpt lat="38.4051020" lon="-0.6917500">
        <ele>269.0</ele>
        <time>2018-10-14T10:09:49Z</time>
      </trkpt>
      <trkpt lat="38.4051020" lon="-0.6917500">
        <ele>268.0</ele>
        <time>2018-10-14T10:09:50Z</time>
      </trkpt>
      <trkpt lat="38.4050350" lon="-0.6918850">
        <ele>268.0</ele>
        <time>2018-10-14T10:09:51Z</time>
      </trkpt>
      <trkpt lat="38.4050350" lon="-0.6918850">
        <ele>268.0</ele>
        <time>2018-10-14T10:09:52Z</time>
      </trkpt>
      <trkpt lat="38.4049680" lon="-0.6920270">
        <ele>268.0</ele>
        <time>2018-10-14T10:09:53Z</time>
      </trkpt>
      <trkpt lat="38.4049680" lon="-0.6920270">
        <ele>268.0</ele>
        <time>2018-10-14T10:09:54Z</time>
      </trkpt>
      <trkpt lat="38.4049000" lon="-0.6921720">
        <ele>268.0</ele>
        <time>2018-10-14T10:09:55Z</time>
      </trkpt>
      <trkpt lat="38.4049000" lon="-0.6921720">
        <ele>268.0</ele>
        <time>2018-10-14T10:09:56Z</time>
      </trkpt>
      <trkpt lat="38.4048320" lon="-0.6923150">
        <ele>268.0</ele>
        <time>2018-10-14T10:09:57Z</time>
      </trkpt>
      <trkpt lat="38.4048320" lon="-0.6923150">
        <ele>268.0</ele>
        <time>2018-10-14T10:09:58Z</time>
      </trkpt>
      <trkpt lat="38.4047600" lon="-0.6924580">
        <ele>268.0</ele>
        <time>2018-10-14T10:09:59Z</time>
      </trkpt>
      <trkpt lat="38.4047250" lon="-0.6925300">
        <ele>268.0</ele>
        <time>2018-10-14T10:10:00Z</time>
      </trkpt>
      <trkpt lat="38.4047250" lon="-0.6925300">
        <ele>268.0</ele>
        <time>2018-10-14T10:10:01Z</time>
      </trkpt>
      <trkpt lat="38.4046530" lon="-0.6926720">
        <ele>268.0</ele>
        <time>2018-10-14T10:10:02Z</time>
      </trkpt>
      <trkpt lat="38.4046180" lon="-0.6927430">
        <ele>268.0</ele>
        <time>2018-10-14T10:10:03Z</time>
      </trkpt>
      <trkpt lat="38.4046180" lon="-0.6927430">
        <ele>268.0</ele>
        <time>2018-10-14T10:10:04Z</time>
      </trkpt>
      <trkpt lat="38.4045480" lon="-0.6928820">
        <ele>268.0</ele>
        <time>2018-10-14T10:10:05Z</time>
      </trkpt>
      <trkpt lat="38.4045480" lon="-0.6928820">
        <ele>268.0</ele>
        <time>2018-10-14T10:10:06Z</time>
      </trkpt>
      <trkpt lat="38.4044830" lon="-0.6930220">
        <ele>268.0</ele>
        <time>2018-10-14T10:10:07Z</time>
      </trkpt>
      <trkpt lat="38.4044830" lon="-0.6930220">
        <ele>268.0</ele>
        <time>2018-10-14T10:10:08Z</time>
      </trkpt>
      <trkpt lat="38.4044180" lon="-0.6931550">
        <ele>268.0</ele>
        <time>2018-10-14T10:10:09Z</time>
      </trkpt>
      <trkpt lat="38.4043870" lon="-0.6932200">
        <ele>268.0</ele>
        <time>2018-10-14T10:10:10Z</time>
      </trkpt>
      <trkpt lat="38.4043870" lon="-0.6932200">
        <ele>268.0</ele>
        <time>2018-10-14T10:10:11Z</time>
      </trkpt>
      <trkpt lat="38.4043250" lon="-0.6933530">
        <ele>268.0</ele>
        <time>2018-10-14T10:10:12Z</time>
      </trkpt>
      <trkpt lat="38.4043250" lon="-0.6933530">
        <ele>268.0</ele>
        <time>2018-10-14T10:10:13Z</time>
      </trkpt>
      <trkpt lat="38.4042650" lon="-0.6934870">
        <ele>268.0</ele>
        <time>2018-10-14T10:10:14Z</time>
      </trkpt>
      <trkpt lat="38.4042650" lon="-0.6934870">
        <ele>268.0</ele>
        <time>2018-10-14T10:10:15Z</time>
      </trkpt>
      <trkpt lat="38.4042070" lon="-0.6936150">
        <ele>268.0</ele>
        <time>2018-10-14T10:10:16Z</time>
      </trkpt>
      <trkpt lat="38.4042070" lon="-0.6936150">
        <ele>268.0</ele>
        <time>2018-10-14T10:10:17Z</time>
      </trkpt>
      <trkpt lat="38.4041450" lon="-0.6937380">
        <ele>268.0</ele>
        <time>2018-10-14T10:10:18Z</time>
      </trkpt>
      <trkpt lat="38.4041130" lon="-0.6938020">
        <ele>268.0</ele>
        <time>2018-10-14T10:10:19Z</time>
      </trkpt>
      <trkpt lat="38.4041130" lon="-0.6938020">
        <ele>268.0</ele>
        <time>2018-10-14T10:10:20Z</time>
      </trkpt>
      <trkpt lat="38.4040530" lon="-0.6939250">
        <ele>268.0</ele>
        <time>2018-10-14T10:10:21Z</time>
      </trkpt>
      <trkpt lat="38.4040250" lon="-0.6939900">
        <ele>268.0</ele>
        <time>2018-10-14T10:10:22Z</time>
      </trkpt>
      <trkpt lat="38.4040250" lon="-0.6939900">
        <ele>268.0</ele>
        <time>2018-10-14T10:10:23Z</time>
      </trkpt>
      <trkpt lat="38.4039770" lon="-0.6941350">
        <ele>268.0</ele>
        <time>2018-10-14T10:10:24Z</time>
      </trkpt>
      <trkpt lat="38.4039520" lon="-0.6942080">
        <ele>268.0</ele>
        <time>2018-10-14T10:10:25Z</time>
      </trkpt>
      <trkpt lat="38.4039520" lon="-0.6942080">
        <ele>268.0</ele>
        <time>2018-10-14T10:10:26Z</time>
      </trkpt>
      <trkpt lat="38.4039070" lon="-0.6943580">
        <ele>268.0</ele>
        <time>2018-10-14T10:10:27Z</time>
      </trkpt>
      <trkpt lat="38.4038830" lon="-0.6944320">
        <ele>268.0</ele>
        <time>2018-10-14T10:10:28Z</time>
      </trkpt>
      <trkpt lat="38.4038830" lon="-0.6944320">
        <ele>268.0</ele>
        <time>2018-10-14T10:10:29Z</time>
      </trkpt>
      <trkpt lat="38.4038370" lon="-0.6945730">
        <ele>268.0</ele>
        <time>2018-10-14T10:10:30Z</time>
      </trkpt>
      <trkpt lat="38.4038370" lon="-0.6945730">
        <ele>268.0</ele>
        <time>2018-10-14T10:10:31Z</time>
      </trkpt>
      <trkpt lat="38.4038000" lon="-0.6947000">
        <ele>268.0</ele>
        <time>2018-10-14T10:10:32Z</time>
      </trkpt>
      <trkpt lat="38.4037850" lon="-0.6947520">
        <ele>268.0</ele>
        <time>2018-10-14T10:10:33Z</time>
      </trkpt>
      <trkpt lat="38.4037850" lon="-0.6947520">
        <ele>268.0</ele>
        <time>2018-10-14T10:10:34Z</time>
      </trkpt>
      <trkpt lat="38.4037580" lon="-0.6948320">
        <ele>268.0</ele>
        <time>2018-10-14T10:10:35Z</time>
      </trkpt>
      <trkpt lat="38.4037580" lon="-0.6948320">
        <ele>268.0</ele>
        <time>2018-10-14T10:10:36Z</time>
      </trkpt>
      <trkpt lat="38.4037400" lon="-0.6948900">
        <ele>268.0</ele>
        <time>2018-10-14T10:10:37Z</time>
      </trkpt>
      <trkpt lat="38.4037400" lon="-0.6948900">
        <ele>268.0</ele>
        <time>2018-10-14T10:10:38Z</time>
      </trkpt>
      <trkpt lat="38.4037180" lon="-0.6949570">
        <ele>268.0</ele>
        <time>2018-10-14T10:10:39Z</time>
      </trkpt>
      <trkpt lat="38.4037080" lon="-0.6949950">
        <ele>268.0</ele>
        <time>2018-10-14T10:10:40Z</time>
      </trkpt>
      <trkpt lat="38.4037080" lon="-0.6949950">
        <ele>268.0</ele>
        <time>2018-10-14T10:10:41Z</time>
      </trkpt>
      <trkpt lat="38.4036850" lon="-0.6950900">
        <ele>268.0</ele>
        <time>2018-10-14T10:10:42Z</time>
      </trkpt>
      <trkpt lat="38.4036700" lon="-0.6951420">
        <ele>268.0</ele>
        <time>2018-10-14T10:10:43Z</time>
      </trkpt>
      <trkpt lat="38.4036700" lon="-0.6951420">
        <ele>268.0</ele>
        <time>2018-10-14T10:10:44Z</time>
      </trkpt>
      <trkpt lat="38.4036350" lon="-0.6952520">
        <ele>268.0</ele>
        <time>2018-10-14T10:10:45Z</time>
      </trkpt>
      <trkpt lat="38.4036350" lon="-0.6952520">
        <ele>268.0</ele>
        <time>2018-10-14T10:10:46Z</time>
      </trkpt>
      <trkpt lat="38.4036020" lon="-0.6953680">
        <ele>268.0</ele>
        <time>2018-10-14T10:10:47Z</time>
      </trkpt>
      <trkpt lat="38.4036020" lon="-0.6953680">
        <ele>268.0</ele>
        <time>2018-10-14T10:10:48Z</time>
      </trkpt>
      <trkpt lat="38.4035750" lon="-0.6954970">
        <ele>268.0</ele>
        <time>2018-10-14T10:10:49Z</time>
      </trkpt>
      <trkpt lat="38.4035750" lon="-0.6954970">
        <ele>268.0</ele>
        <time>2018-10-14T10:10:50Z</time>
      </trkpt>
      <trkpt lat="38.4035530" lon="-0.6956400">
        <ele>268.0</ele>
        <time>2018-10-14T10:10:51Z</time>
      </trkpt>
      <trkpt lat="38.4035450" lon="-0.6957200">
        <ele>268.0</ele>
        <time>2018-10-14T10:10:52Z</time>
      </trkpt>
      <trkpt lat="38.4035450" lon="-0.6957200">
        <ele>268.0</ele>
        <time>2018-10-14T10:10:53Z</time>
      </trkpt>
      <trkpt lat="38.4035330" lon="-0.6958780">
        <ele>268.0</ele>
        <time>2018-10-14T10:10:54Z</time>
      </trkpt>
      <trkpt lat="38.4035330" lon="-0.6958780">
        <ele>268.0</ele>
        <time>2018-10-14T10:10:55Z</time>
      </trkpt>
      <trkpt lat="38.4035150" lon="-0.6960300">
        <ele>268.0</ele>
        <time>2018-10-14T10:10:56Z</time>
      </trkpt>
      <trkpt lat="38.4035000" lon="-0.6961030">
        <ele>268.0</ele>
        <time>2018-10-14T10:10:57Z</time>
      </trkpt>
      <trkpt lat="38.4035000" lon="-0.6961030">
        <ele>268.0</ele>
        <time>2018-10-14T10:10:58Z</time>
      </trkpt>
      <trkpt lat="38.4034620" lon="-0.6962480">
        <ele>268.0</ele>
        <time>2018-10-14T10:10:59Z</time>
      </trkpt>
      <trkpt lat="38.4034620" lon="-0.6962480">
        <ele>268.0</ele>
        <time>2018-10-14T10:11:00Z</time>
      </trkpt>
      <trkpt lat="38.4034320" lon="-0.6963930">
        <ele>268.0</ele>
        <time>2018-10-14T10:11:01Z</time>
      </trkpt>
      <trkpt lat="38.4034320" lon="-0.6963930">
        <ele>268.0</ele>
        <time>2018-10-14T10:11:02Z</time>
      </trkpt>
      <trkpt lat="38.4034050" lon="-0.6965330">
        <ele>268.0</ele>
        <time>2018-10-14T10:11:03Z</time>
      </trkpt>
      <trkpt lat="38.4034050" lon="-0.6965330">
        <ele>268.0</ele>
        <time>2018-10-14T10:11:04Z</time>
      </trkpt>
      <trkpt lat="38.4033650" lon="-0.6966820">
        <ele>268.0</ele>
        <time>2018-10-14T10:11:05Z</time>
      </trkpt>
      <trkpt lat="38.4033650" lon="-0.6966820">
        <ele>268.0</ele>
        <time>2018-10-14T10:11:06Z</time>
      </trkpt>
      <trkpt lat="38.4033070" lon="-0.6968270">
        <ele>268.0</ele>
        <time>2018-10-14T10:11:07Z</time>
      </trkpt>
      <trkpt lat="38.4033070" lon="-0.6968270">
        <ele>268.0</ele>
        <time>2018-10-14T10:11:08Z</time>
      </trkpt>
      <trkpt lat="38.4032370" lon="-0.6969680">
        <ele>268.0</ele>
        <time>2018-10-14T10:11:09Z</time>
      </trkpt>
      <trkpt lat="38.4032370" lon="-0.6969680">
        <ele>268.0</ele>
        <time>2018-10-14T10:11:10Z</time>
      </trkpt>
      <trkpt lat="38.4031950" lon="-0.6971220">
        <ele>268.0</ele>
        <time>2018-10-14T10:11:11Z</time>
      </trkpt>
      <trkpt lat="38.4031900" lon="-0.6972020">
        <ele>268.0</ele>
        <time>2018-10-14T10:11:12Z</time>
      </trkpt>
      <trkpt lat="38.4031950" lon="-0.6972850">
        <ele>267.0</ele>
        <time>2018-10-14T10:11:13Z</time>
      </trkpt>
      <trkpt lat="38.4031950" lon="-0.6972850">
        <ele>267.0</ele>
        <time>2018-10-14T10:11:14Z</time>
      </trkpt>
      <trkpt lat="38.4032300" lon="-0.6974450">
        <ele>267.0</ele>
        <time>2018-10-14T10:11:15Z</time>
      </trkpt>
      <trkpt lat="38.4032300" lon="-0.6974450">
        <ele>267.0</ele>
        <time>2018-10-14T10:11:16Z</time>
      </trkpt>
      <trkpt lat="38.4032770" lon="-0.6976050">
        <ele>267.0</ele>
        <time>2018-10-14T10:11:17Z</time>
      </trkpt>
      <trkpt lat="38.4032770" lon="-0.6976050">
        <ele>267.0</ele>
        <time>2018-10-14T10:11:18Z</time>
      </trkpt>
      <trkpt lat="38.4033250" lon="-0.6977670">
        <ele>267.0</ele>
        <time>2018-10-14T10:11:19Z</time>
      </trkpt>
      <trkpt lat="38.4033250" lon="-0.6977670">
        <ele>267.0</ele>
        <time>2018-10-14T10:11:20Z</time>
      </trkpt>
      <trkpt lat="38.4033670" lon="-0.6979280">
        <ele>267.0</ele>
        <time>2018-10-14T10:11:21Z</time>
      </trkpt>
      <trkpt lat="38.4033670" lon="-0.6979280">
        <ele>267.0</ele>
        <time>2018-10-14T10:11:22Z</time>
      </trkpt>
      <trkpt lat="38.4034120" lon="-0.6980900">
        <ele>266.0</ele>
        <time>2018-10-14T10:11:23Z</time>
      </trkpt>
      <trkpt lat="38.4034120" lon="-0.6980900">
        <ele>266.0</ele>
        <time>2018-10-14T10:11:24Z</time>
      </trkpt>
      <trkpt lat="38.4034480" lon="-0.6982520">
        <ele>266.0</ele>
        <time>2018-10-14T10:11:25Z</time>
      </trkpt>
      <trkpt lat="38.4034480" lon="-0.6982520">
        <ele>266.0</ele>
        <time>2018-10-14T10:11:26Z</time>
      </trkpt>
      <trkpt lat="38.4034780" lon="-0.6984170">
        <ele>266.0</ele>
        <time>2018-10-14T10:11:27Z</time>
      </trkpt>
      <trkpt lat="38.4034780" lon="-0.6984170">
        <ele>266.0</ele>
        <time>2018-10-14T10:11:28Z</time>
      </trkpt>
      <trkpt lat="38.4035100" lon="-0.6985830">
        <ele>266.0</ele>
        <time>2018-10-14T10:11:29Z</time>
      </trkpt>
      <trkpt lat="38.4035100" lon="-0.6985830">
        <ele>266.0</ele>
        <time>2018-10-14T10:11:30Z</time>
      </trkpt>
      <trkpt lat="38.4035320" lon="-0.6987580">
        <ele>266.0</ele>
        <time>2018-10-14T10:11:31Z</time>
      </trkpt>
      <trkpt lat="38.4035320" lon="-0.6987580">
        <ele>266.0</ele>
        <time>2018-10-14T10:11:32Z</time>
      </trkpt>
      <trkpt lat="38.4035400" lon="-0.6989280">
        <ele>266.0</ele>
        <time>2018-10-14T10:11:33Z</time>
      </trkpt>
      <trkpt lat="38.4035400" lon="-0.6989280">
        <ele>266.0</ele>
        <time>2018-10-14T10:11:34Z</time>
      </trkpt>
      <trkpt lat="38.4035180" lon="-0.6990850">
        <ele>266.0</ele>
        <time>2018-10-14T10:11:35Z</time>
      </trkpt>
      <trkpt lat="38.4035180" lon="-0.6990850">
        <ele>266.0</ele>
        <time>2018-10-14T10:11:36Z</time>
      </trkpt>
      <trkpt lat="38.4034720" lon="-0.6992220">
        <ele>266.0</ele>
        <time>2018-10-14T10:11:37Z</time>
      </trkpt>
      <trkpt lat="38.4034720" lon="-0.6992220">
        <ele>266.0</ele>
        <time>2018-10-14T10:11:38Z</time>
      </trkpt>
      <trkpt lat="38.4034380" lon="-0.6993420">
        <ele>266.0</ele>
        <time>2018-10-14T10:11:39Z</time>
      </trkpt>
      <trkpt lat="38.4034380" lon="-0.6993420">
        <ele>266.0</ele>
        <time>2018-10-14T10:11:40Z</time>
      </trkpt>
      <trkpt lat="38.4034220" lon="-0.6994330">
        <ele>266.0</ele>
        <time>2018-10-14T10:11:41Z</time>
      </trkpt>
      <trkpt lat="38.4034220" lon="-0.6994330">
        <ele>266.0</ele>
        <time>2018-10-14T10:11:42Z</time>
      </trkpt>
      <trkpt lat="38.4033880" lon="-0.6994900">
        <ele>266.0</ele>
        <time>2018-10-14T10:11:43Z</time>
      </trkpt>
      <trkpt lat="38.4033880" lon="-0.6994900">
        <ele>266.0</ele>
        <time>2018-10-14T10:11:44Z</time>
      </trkpt>
      <trkpt lat="38.4033330" lon="-0.6995380">
        <ele>266.0</ele>
        <time>2018-10-14T10:11:45Z</time>
      </trkpt>
      <trkpt lat="38.4033330" lon="-0.6995380">
        <ele>266.0</ele>
        <time>2018-10-14T10:11:46Z</time>
      </trkpt>
      <trkpt lat="38.4032570" lon="-0.6995920">
        <ele>266.0</ele>
        <time>2018-10-14T10:11:47Z</time>
      </trkpt>
      <trkpt lat="38.4032150" lon="-0.6996220">
        <ele>266.0</ele>
        <time>2018-10-14T10:11:48Z</time>
      </trkpt>
      <trkpt lat="38.4031720" lon="-0.6996570">
        <ele>266.0</ele>
        <time>2018-10-14T10:11:49Z</time>
      </trkpt>
      <trkpt lat="38.4031720" lon="-0.6996570">
        <ele>266.0</ele>
        <time>2018-10-14T10:11:50Z</time>
      </trkpt>
      <trkpt lat="38.4030900" lon="-0.6997400">
        <ele>266.0</ele>
        <time>2018-10-14T10:11:51Z</time>
      </trkpt>
      <trkpt lat="38.4030530" lon="-0.6997920">
        <ele>266.0</ele>
        <time>2018-10-14T10:11:52Z</time>
      </trkpt>
      <trkpt lat="38.4030530" lon="-0.6997920">
        <ele>266.0</ele>
        <time>2018-10-14T10:11:53Z</time>
      </trkpt>
      <trkpt lat="38.4029930" lon="-0.6999000">
        <ele>266.0</ele>
        <time>2018-10-14T10:11:54Z</time>
      </trkpt>
      <trkpt lat="38.4029670" lon="-0.6999430">
        <ele>265.0</ele>
        <time>2018-10-14T10:11:55Z</time>
      </trkpt>
      <trkpt lat="38.4029670" lon="-0.6999430">
        <ele>265.0</ele>
        <time>2018-10-14T10:11:56Z</time>
      </trkpt>
      <trkpt lat="38.4029170" lon="-0.7000200">
        <ele>265.0</ele>
        <time>2018-10-14T10:11:57Z</time>
      </trkpt>
      <trkpt lat="38.4028930" lon="-0.7000620">
        <ele>265.0</ele>
        <time>2018-10-14T10:11:58Z</time>
      </trkpt>
      <trkpt lat="38.4028930" lon="-0.7000620">
        <ele>265.0</ele>
        <time>2018-10-14T10:11:59Z</time>
      </trkpt>
      <trkpt lat="38.4028450" lon="-0.7001530">
        <ele>265.0</ele>
        <time>2018-10-14T10:12:00Z</time>
      </trkpt>
      <trkpt lat="38.4028200" lon="-0.7002030">
        <ele>265.0</ele>
        <time>2018-10-14T10:12:01Z</time>
      </trkpt>
      <trkpt lat="38.4028200" lon="-0.7002030">
        <ele>265.0</ele>
        <time>2018-10-14T10:12:02Z</time>
      </trkpt>
      <trkpt lat="38.4027650" lon="-0.7003070">
        <ele>265.0</ele>
        <time>2018-10-14T10:12:03Z</time>
      </trkpt>
      <trkpt lat="38.4027350" lon="-0.7003580">
        <ele>265.0</ele>
        <time>2018-10-14T10:12:04Z</time>
      </trkpt>
      <trkpt lat="38.4027350" lon="-0.7003580">
        <ele>265.0</ele>
        <time>2018-10-14T10:12:05Z</time>
      </trkpt>
      <trkpt lat="38.4026670" lon="-0.7004580">
        <ele>265.0</ele>
        <time>2018-10-14T10:12:06Z</time>
      </trkpt>
      <trkpt lat="38.4026270" lon="-0.7005070">
        <ele>265.0</ele>
        <time>2018-10-14T10:12:07Z</time>
      </trkpt>
      <trkpt lat="38.4026270" lon="-0.7005070">
        <ele>265.0</ele>
        <time>2018-10-14T10:12:08Z</time>
      </trkpt>
      <trkpt lat="38.4025400" lon="-0.7005930">
        <ele>264.0</ele>
        <time>2018-10-14T10:12:09Z</time>
      </trkpt>
      <trkpt lat="38.4025400" lon="-0.7005930">
        <ele>264.0</ele>
        <time>2018-10-14T10:12:10Z</time>
      </trkpt>
      <trkpt lat="38.4024420" lon="-0.7006750">
        <ele>264.0</ele>
        <time>2018-10-14T10:12:11Z</time>
      </trkpt>
      <trkpt lat="38.4024420" lon="-0.7006750">
        <ele>264.0</ele>
        <time>2018-10-14T10:12:12Z</time>
      </trkpt>
      <trkpt lat="38.4023370" lon="-0.7007530">
        <ele>263.0</ele>
        <time>2018-10-14T10:12:13Z</time>
      </trkpt>
      <trkpt lat="38.4023370" lon="-0.7007530">
        <ele>263.0</ele>
        <time>2018-10-14T10:12:14Z</time>
      </trkpt>
      <trkpt lat="38.4022230" lon="-0.7008320">
        <ele>263.0</ele>
        <time>2018-10-14T10:12:15Z</time>
      </trkpt>
      <trkpt lat="38.4022230" lon="-0.7008320">
        <ele>263.0</ele>
        <time>2018-10-14T10:12:16Z</time>
      </trkpt>
      <trkpt lat="38.4021100" lon="-0.7009120">
        <ele>263.0</ele>
        <time>2018-10-14T10:12:17Z</time>
      </trkpt>
      <trkpt lat="38.4020520" lon="-0.7009520">
        <ele>263.0</ele>
        <time>2018-10-14T10:12:18Z</time>
      </trkpt>
      <trkpt lat="38.4019920" lon="-0.7009930">
        <ele>262.0</ele>
        <time>2018-10-14T10:12:19Z</time>
      </trkpt>
      <trkpt lat="38.4019920" lon="-0.7009930">
        <ele>262.0</ele>
        <time>2018-10-14T10:12:20Z</time>
      </trkpt>
      <trkpt lat="38.4018730" lon="-0.7010720">
        <ele>262.0</ele>
        <time>2018-10-14T10:12:21Z</time>
      </trkpt>
      <trkpt lat="38.4018730" lon="-0.7010720">
        <ele>261.0</ele>
        <time>2018-10-14T10:12:22Z</time>
      </trkpt>
      <trkpt lat="38.4017550" lon="-0.7011420">
        <ele>261.0</ele>
        <time>2018-10-14T10:12:23Z</time>
      </trkpt>
      <trkpt lat="38.4016980" lon="-0.7011730">
        <ele>261.0</ele>
        <time>2018-10-14T10:12:24Z</time>
      </trkpt>
      <trkpt lat="38.4016980" lon="-0.7011730">
        <ele>261.0</ele>
        <time>2018-10-14T10:12:25Z</time>
      </trkpt>
      <trkpt lat="38.4015780" lon="-0.7012370">
        <ele>261.0</ele>
        <time>2018-10-14T10:12:26Z</time>
      </trkpt>
      <trkpt lat="38.4015780" lon="-0.7012370">
        <ele>261.0</ele>
        <time>2018-10-14T10:12:27Z</time>
      </trkpt>
      <trkpt lat="38.4014400" lon="-0.7013030">
        <ele>260.0</ele>
        <time>2018-10-14T10:12:28Z</time>
      </trkpt>
      <trkpt lat="38.4014400" lon="-0.7013030">
        <ele>260.0</ele>
        <time>2018-10-14T10:12:29Z</time>
      </trkpt>
      <trkpt lat="38.4013050" lon="-0.7013730">
        <ele>260.0</ele>
        <time>2018-10-14T10:12:30Z</time>
      </trkpt>
      <trkpt lat="38.4012400" lon="-0.7014100">
        <ele>260.0</ele>
        <time>2018-10-14T10:12:31Z</time>
      </trkpt>
      <trkpt lat="38.4012400" lon="-0.7014100">
        <ele>259.0</ele>
        <time>2018-10-14T10:12:32Z</time>
      </trkpt>
      <trkpt lat="38.4011120" lon="-0.7014820">
        <ele>259.0</ele>
        <time>2018-10-14T10:12:33Z</time>
      </trkpt>
      <trkpt lat="38.4011120" lon="-0.7014820">
        <ele>259.0</ele>
        <time>2018-10-14T10:12:34Z</time>
      </trkpt>
      <trkpt lat="38.4009770" lon="-0.7015500">
        <ele>259.0</ele>
        <time>2018-10-14T10:12:35Z</time>
      </trkpt>
      <trkpt lat="38.4009770" lon="-0.7015500">
        <ele>259.0</ele>
        <time>2018-10-14T10:12:36Z</time>
      </trkpt>
      <trkpt lat="38.4008420" lon="-0.7016120">
        <ele>258.0</ele>
        <time>2018-10-14T10:12:37Z</time>
      </trkpt>
      <trkpt lat="38.4008420" lon="-0.7016120">
        <ele>258.0</ele>
        <time>2018-10-14T10:12:38Z</time>
      </trkpt>
      <trkpt lat="38.4007080" lon="-0.7016700">
        <ele>258.0</ele>
        <time>2018-10-14T10:12:39Z</time>
      </trkpt>
      <trkpt lat="38.4007080" lon="-0.7016700">
        <ele>258.0</ele>
        <time>2018-10-14T10:12:40Z</time>
      </trkpt>
      <trkpt lat="38.4005800" lon="-0.7017380">
        <ele>257.0</ele>
        <time>2018-10-14T10:12:41Z</time>
      </trkpt>
      <trkpt lat="38.4005800" lon="-0.7017380">
        <ele>257.0</ele>
        <time>2018-10-14T10:12:42Z</time>
      </trkpt>
      <trkpt lat="38.4004650" lon="-0.7018130">
        <ele>257.0</ele>
        <time>2018-10-14T10:12:43Z</time>
      </trkpt>
      <trkpt lat="38.4004650" lon="-0.7018130">
        <ele>257.0</ele>
        <time>2018-10-14T10:12:44Z</time>
      </trkpt>
      <trkpt lat="38.4003570" lon="-0.7018950">
        <ele>257.0</ele>
        <time>2018-10-14T10:12:45Z</time>
      </trkpt>
      <trkpt lat="38.4003570" lon="-0.7018950">
        <ele>257.0</ele>
        <time>2018-10-14T10:12:46Z</time>
      </trkpt>
      <trkpt lat="38.4002500" lon="-0.7019830">
        <ele>256.0</ele>
        <time>2018-10-14T10:12:47Z</time>
      </trkpt>
      <trkpt lat="38.4001970" lon="-0.7020300">
        <ele>256.0</ele>
        <time>2018-10-14T10:12:48Z</time>
      </trkpt>
      <trkpt lat="38.4001420" lon="-0.7020700">
        <ele>256.0</ele>
        <time>2018-10-14T10:12:49Z</time>
      </trkpt>
      <trkpt lat="38.4001420" lon="-0.7020700">
        <ele>256.0</ele>
        <time>2018-10-14T10:12:50Z</time>
      </trkpt>
      <trkpt lat="38.4000320" lon="-0.7021480">
        <ele>256.0</ele>
        <time>2018-10-14T10:12:51Z</time>
      </trkpt>
      <trkpt lat="38.4000320" lon="-0.7021480">
        <ele>256.0</ele>
        <time>2018-10-14T10:12:52Z</time>
      </trkpt>
      <trkpt lat="38.3999220" lon="-0.7022280">
        <ele>256.0</ele>
        <time>2018-10-14T10:12:53Z</time>
      </trkpt>
      <trkpt lat="38.3999220" lon="-0.7022280">
        <ele>256.0</ele>
        <time>2018-10-14T10:12:54Z</time>
      </trkpt>
      <trkpt lat="38.3998150" lon="-0.7023080">
        <ele>255.0</ele>
        <time>2018-10-14T10:12:55Z</time>
      </trkpt>
      <trkpt lat="38.3998150" lon="-0.7023080">
        <ele>255.0</ele>
        <time>2018-10-14T10:12:56Z</time>
      </trkpt>
      <trkpt lat="38.3997150" lon="-0.7023900">
        <ele>255.0</ele>
        <time>2018-10-14T10:12:57Z</time>
      </trkpt>
      <trkpt lat="38.3996650" lon="-0.7024300">
        <ele>255.0</ele>
        <time>2018-10-14T10:12:58Z</time>
      </trkpt>
      <trkpt lat="38.3996170" lon="-0.7024650">
        <ele>255.0</ele>
        <time>2018-10-14T10:12:59Z</time>
      </trkpt>
      <trkpt lat="38.3996170" lon="-0.7024650">
        <ele>255.0</ele>
        <time>2018-10-14T10:13:00Z</time>
      </trkpt>
      <trkpt lat="38.3995030" lon="-0.7025370">
        <ele>254.0</ele>
        <time>2018-10-14T10:13:01Z</time>
      </trkpt>
      <trkpt lat="38.3995030" lon="-0.7025370">
        <ele>254.0</ele>
        <time>2018-10-14T10:13:02Z</time>
      </trkpt>
      <trkpt lat="38.3993770" lon="-0.7026120">
        <ele>253.0</ele>
        <time>2018-10-14T10:13:03Z</time>
      </trkpt>
      <trkpt lat="38.3993770" lon="-0.7026120">
        <ele>253.0</ele>
        <time>2018-10-14T10:13:04Z</time>
      </trkpt>
      <trkpt lat="38.3992550" lon="-0.7027020">
        <ele>253.0</ele>
        <time>2018-10-14T10:13:05Z</time>
      </trkpt>
      <trkpt lat="38.3992550" lon="-0.7027020">
        <ele>253.0</ele>
        <time>2018-10-14T10:13:06Z</time>
      </trkpt>
      <trkpt lat="38.3991520" lon="-0.7028070">
        <ele>253.0</ele>
        <time>2018-10-14T10:13:07Z</time>
      </trkpt>
      <trkpt lat="38.3991070" lon="-0.7028630">
        <ele>253.0</ele>
        <time>2018-10-14T10:13:08Z</time>
      </trkpt>
      <trkpt lat="38.3991070" lon="-0.7028630">
        <ele>253.0</ele>
        <time>2018-10-14T10:13:09Z</time>
      </trkpt>
      <trkpt lat="38.3990200" lon="-0.7029770">
        <ele>253.0</ele>
        <time>2018-10-14T10:13:10Z</time>
      </trkpt>
      <trkpt lat="38.3990200" lon="-0.7029770">
        <ele>253.0</ele>
        <time>2018-10-14T10:13:11Z</time>
      </trkpt>
      <trkpt lat="38.3989320" lon="-0.7030920">
        <ele>253.0</ele>
        <time>2018-10-14T10:13:12Z</time>
      </trkpt>
      <trkpt lat="38.3989320" lon="-0.7030920">
        <ele>252.0</ele>
        <time>2018-10-14T10:13:13Z</time>
      </trkpt>
      <trkpt lat="38.3988380" lon="-0.7032080">
        <ele>252.0</ele>
        <time>2018-10-14T10:13:14Z</time>
      </trkpt>
      <trkpt lat="38.3987930" lon="-0.7032650">
        <ele>252.0</ele>
        <time>2018-10-14T10:13:15Z</time>
      </trkpt>
      <trkpt lat="38.3987930" lon="-0.7032650">
        <ele>251.0</ele>
        <time>2018-10-14T10:13:16Z</time>
      </trkpt>
      <trkpt lat="38.3987070" lon="-0.7033770">
        <ele>251.0</ele>
        <time>2018-10-14T10:13:17Z</time>
      </trkpt>
      <trkpt lat="38.3986580" lon="-0.7034320">
        <ele>251.0</ele>
        <time>2018-10-14T10:13:18Z</time>
      </trkpt>
      <trkpt lat="38.3986100" lon="-0.7034850">
        <ele>251.0</ele>
        <time>2018-10-14T10:13:19Z</time>
      </trkpt>
      <trkpt lat="38.3986100" lon="-0.7034850">
        <ele>251.0</ele>
        <time>2018-10-14T10:13:20Z</time>
      </trkpt>
      <trkpt lat="38.3985100" lon="-0.7035950">
        <ele>251.0</ele>
        <time>2018-10-14T10:13:21Z</time>
      </trkpt>
      <trkpt lat="38.3985100" lon="-0.7035950">
        <ele>250.0</ele>
        <time>2018-10-14T10:13:22Z</time>
      </trkpt>
      <trkpt lat="38.3984150" lon="-0.7037000">
        <ele>250.0</ele>
        <time>2018-10-14T10:13:23Z</time>
      </trkpt>
      <trkpt lat="38.3984150" lon="-0.7037000">
        <ele>250.0</ele>
        <time>2018-10-14T10:13:24Z</time>
      </trkpt>
      <trkpt lat="38.3983230" lon="-0.7038100">
        <ele>250.0</ele>
        <time>2018-10-14T10:13:25Z</time>
      </trkpt>
      <trkpt lat="38.3983230" lon="-0.7038100">
        <ele>249.0</ele>
        <time>2018-10-14T10:13:26Z</time>
      </trkpt>
      <trkpt lat="38.3982350" lon="-0.7039080">
        <ele>249.0</ele>
        <time>2018-10-14T10:13:27Z</time>
      </trkpt>
      <trkpt lat="38.3981980" lon="-0.7039500">
        <ele>249.0</ele>
        <time>2018-10-14T10:13:28Z</time>
      </trkpt>
      <trkpt lat="38.3981980" lon="-0.7039500">
        <ele>249.0</ele>
        <time>2018-10-14T10:13:29Z</time>
      </trkpt>
      <trkpt lat="38.3981470" lon="-0.7040080">
        <ele>249.0</ele>
        <time>2018-10-14T10:13:30Z</time>
      </trkpt>
      <trkpt lat="38.3981270" lon="-0.7040350">
        <ele>249.0</ele>
        <time>2018-10-14T10:13:31Z</time>
      </trkpt>
      <trkpt lat="38.3981270" lon="-0.7040350">
        <ele>248.0</ele>
        <time>2018-10-14T10:13:32Z</time>
      </trkpt>
      <trkpt lat="38.3981020" lon="-0.7041120">
        <ele>248.0</ele>
        <time>2018-10-14T10:13:33Z</time>
      </trkpt>
      <trkpt lat="38.3981020" lon="-0.7041120">
        <ele>248.0</ele>
        <time>2018-10-14T10:13:34Z</time>
      </trkpt>
      <trkpt lat="38.3980970" lon="-0.7042230">
        <ele>248.0</ele>
        <time>2018-10-14T10:13:35Z</time>
      </trkpt>
      <trkpt lat="38.3980970" lon="-0.7042230">
        <ele>248.0</ele>
        <time>2018-10-14T10:13:36Z</time>
      </trkpt>
      <trkpt lat="38.3981000" lon="-0.7043620">
        <ele>248.0</ele>
        <time>2018-10-14T10:13:37Z</time>
      </trkpt>
      <trkpt lat="38.3981030" lon="-0.7044350">
        <ele>248.0</ele>
        <time>2018-10-14T10:13:38Z</time>
      </trkpt>
      <trkpt lat="38.3981030" lon="-0.7044350">
        <ele>248.0</ele>
        <time>2018-10-14T10:13:39Z</time>
      </trkpt>
      <trkpt lat="38.3981180" lon="-0.7045900">
        <ele>247.0</ele>
        <time>2018-10-14T10:13:40Z</time>
      </trkpt>
      <trkpt lat="38.3981180" lon="-0.7045900">
        <ele>247.0</ele>
        <time>2018-10-14T10:13:41Z</time>
      </trkpt>
      <trkpt lat="38.3981380" lon="-0.7047420">
        <ele>247.0</ele>
        <time>2018-10-14T10:13:42Z</time>
      </trkpt>
      <trkpt lat="38.3981500" lon="-0.7048170">
        <ele>247.0</ele>
        <time>2018-10-14T10:13:43Z</time>
      </trkpt>
      <trkpt lat="38.3981500" lon="-0.7048170">
        <ele>247.0</ele>
        <time>2018-10-14T10:13:44Z</time>
      </trkpt>
      <trkpt lat="38.3981780" lon="-0.7049620">
        <ele>247.0</ele>
        <time>2018-10-14T10:13:45Z</time>
      </trkpt>
      <trkpt lat="38.3981780" lon="-0.7049620">
        <ele>247.0</ele>
        <time>2018-10-14T10:13:46Z</time>
      </trkpt>
      <trkpt lat="38.3982130" lon="-0.7051030">
        <ele>247.0</ele>
        <time>2018-10-14T10:13:47Z</time>
      </trkpt>
      <trkpt lat="38.3982250" lon="-0.7051730">
        <ele>247.0</ele>
        <time>2018-10-14T10:13:48Z</time>
      </trkpt>
      <trkpt lat="38.3982370" lon="-0.7052420">
        <ele>247.0</ele>
        <time>2018-10-14T10:13:49Z</time>
      </trkpt>
      <trkpt lat="38.3982370" lon="-0.7052420">
        <ele>247.0</ele>
        <time>2018-10-14T10:13:50Z</time>
      </trkpt>
      <trkpt lat="38.3982570" lon="-0.7053720">
        <ele>247.0</ele>
        <time>2018-10-14T10:13:51Z</time>
      </trkpt>
      <trkpt lat="38.3982570" lon="-0.7053720">
        <ele>247.0</ele>
        <time>2018-10-14T10:13:52Z</time>
      </trkpt>
      <trkpt lat="38.3982730" lon="-0.7055000">
        <ele>247.0</ele>
        <time>2018-10-14T10:13:53Z</time>
      </trkpt>
      <trkpt lat="38.3982730" lon="-0.7055000">
        <ele>247.0</ele>
        <time>2018-10-14T10:13:54Z</time>
      </trkpt>
      <trkpt lat="38.3982870" lon="-0.7056330">
        <ele>247.0</ele>
        <time>2018-10-14T10:13:55Z</time>
      </trkpt>
      <trkpt lat="38.3982870" lon="-0.7056330">
        <ele>247.0</ele>
        <time>2018-10-14T10:13:56Z</time>
      </trkpt>
      <trkpt lat="38.3982950" lon="-0.7057680">
        <ele>247.0</ele>
        <time>2018-10-14T10:13:57Z</time>
      </trkpt>
      <trkpt lat="38.3983000" lon="-0.7058350">
        <ele>247.0</ele>
        <time>2018-10-14T10:13:58Z</time>
      </trkpt>
      <trkpt lat="38.3983000" lon="-0.7058350">
        <ele>247.0</ele>
        <time>2018-10-14T10:13:59Z</time>
      </trkpt>
      <trkpt lat="38.3983030" lon="-0.7059630">
        <ele>247.0</ele>
        <time>2018-10-14T10:14:00Z</time>
      </trkpt>
      <trkpt lat="38.3983030" lon="-0.7060250">
        <ele>247.0</ele>
        <time>2018-10-14T10:14:01Z</time>
      </trkpt>
      <trkpt lat="38.3983030" lon="-0.7060250">
        <ele>247.0</ele>
        <time>2018-10-14T10:14:02Z</time>
      </trkpt>
      <trkpt lat="38.3983000" lon="-0.7061430">
        <ele>247.0</ele>
        <time>2018-10-14T10:14:03Z</time>
      </trkpt>
      <trkpt lat="38.3982970" lon="-0.7061980">
        <ele>247.0</ele>
        <time>2018-10-14T10:14:04Z</time>
      </trkpt>
      <trkpt lat="38.3982970" lon="-0.7061980">
        <ele>247.0</ele>
        <time>2018-10-14T10:14:05Z</time>
      </trkpt>
      <trkpt lat="38.3982880" lon="-0.7062930">
        <ele>247.0</ele>
        <time>2018-10-14T10:14:06Z</time>
      </trkpt>
      <trkpt lat="38.3982880" lon="-0.7062930">
        <ele>247.0</ele>
        <time>2018-10-14T10:14:07Z</time>
      </trkpt>
      <trkpt lat="38.3982820" lon="-0.7063700">
        <ele>247.0</ele>
        <time>2018-10-14T10:14:08Z</time>
      </trkpt>
      <trkpt lat="38.3982820" lon="-0.7063700">
        <ele>247.0</ele>
        <time>2018-10-14T10:14:09Z</time>
      </trkpt>
      <trkpt lat="38.3982800" lon="-0.7064280">
        <ele>247.0</ele>
        <time>2018-10-14T10:14:10Z</time>
      </trkpt>
      <trkpt lat="38.3982800" lon="-0.7064280">
        <ele>247.0</ele>
        <time>2018-10-14T10:14:11Z</time>
      </trkpt>
      <trkpt lat="38.3982850" lon="-0.7064780">
        <ele>247.0</ele>
        <time>2018-10-14T10:14:12Z</time>
      </trkpt>
      <trkpt lat="38.3982850" lon="-0.7065080">
        <ele>247.0</ele>
        <time>2018-10-14T10:14:13Z</time>
      </trkpt>
      <trkpt lat="38.3982850" lon="-0.7065080">
        <ele>247.0</ele>
        <time>2018-10-14T10:14:14Z</time>
      </trkpt>
      <trkpt lat="38.3982780" lon="-0.7066080">
        <ele>247.0</ele>
        <time>2018-10-14T10:14:15Z</time>
      </trkpt>
      <trkpt lat="38.3982780" lon="-0.7066080">
        <ele>247.0</ele>
        <time>2018-10-14T10:14:16Z</time>
      </trkpt>
      <trkpt lat="38.3982650" lon="-0.7067380">
        <ele>247.0</ele>
        <time>2018-10-14T10:14:17Z</time>
      </trkpt>
      <trkpt lat="38.3982570" lon="-0.7068030">
        <ele>247.0</ele>
        <time>2018-10-14T10:14:18Z</time>
      </trkpt>
      <trkpt lat="38.3982480" lon="-0.7068670">
        <ele>247.0</ele>
        <time>2018-10-14T10:14:19Z</time>
      </trkpt>
      <trkpt lat="38.3982480" lon="-0.7068670">
        <ele>247.0</ele>
        <time>2018-10-14T10:14:20Z</time>
      </trkpt>
      <trkpt lat="38.3982350" lon="-0.7069900">
        <ele>247.0</ele>
        <time>2018-10-14T10:14:21Z</time>
      </trkpt>
      <trkpt lat="38.3982300" lon="-0.7070500">
        <ele>247.0</ele>
        <time>2018-10-14T10:14:22Z</time>
      </trkpt>
      <trkpt lat="38.3982300" lon="-0.7070500">
        <ele>247.0</ele>
        <time>2018-10-14T10:14:23Z</time>
      </trkpt>
      <trkpt lat="38.3982270" lon="-0.7071720">
        <ele>247.0</ele>
        <time>2018-10-14T10:14:24Z</time>
      </trkpt>
      <trkpt lat="38.3982230" lon="-0.7072320">
        <ele>247.0</ele>
        <time>2018-10-14T10:14:25Z</time>
      </trkpt>
      <trkpt lat="38.3982230" lon="-0.7072320">
        <ele>247.0</ele>
        <time>2018-10-14T10:14:26Z</time>
      </trkpt>
      <trkpt lat="38.3982180" lon="-0.7073530">
        <ele>247.0</ele>
        <time>2018-10-14T10:14:27Z</time>
      </trkpt>
      <trkpt lat="38.3982170" lon="-0.7074130">
        <ele>247.0</ele>
        <time>2018-10-14T10:14:28Z</time>
      </trkpt>
      <trkpt lat="38.3982170" lon="-0.7074130">
        <ele>247.0</ele>
        <time>2018-10-14T10:14:29Z</time>
      </trkpt>
      <trkpt lat="38.3982120" lon="-0.7075350">
        <ele>247.0</ele>
        <time>2018-10-14T10:14:30Z</time>
      </trkpt>
      <trkpt lat="38.3982120" lon="-0.7075970">
        <ele>247.0</ele>
        <time>2018-10-14T10:14:31Z</time>
      </trkpt>
      <trkpt lat="38.3982120" lon="-0.7075970">
        <ele>247.0</ele>
        <time>2018-10-14T10:14:32Z</time>
      </trkpt>
      <trkpt lat="38.3982100" lon="-0.7077250">
        <ele>247.0</ele>
        <time>2018-10-14T10:14:33Z</time>
      </trkpt>
      <trkpt lat="38.3982100" lon="-0.7077250">
        <ele>247.0</ele>
        <time>2018-10-14T10:14:34Z</time>
      </trkpt>
      <trkpt lat="38.3982000" lon="-0.7078530">
        <ele>247.0</ele>
        <time>2018-10-14T10:14:35Z</time>
      </trkpt>
      <trkpt lat="38.3982000" lon="-0.7078530">
        <ele>247.0</ele>
        <time>2018-10-14T10:14:36Z</time>
      </trkpt>
      <trkpt lat="38.3981920" lon="-0.7079850">
        <ele>247.0</ele>
        <time>2018-10-14T10:14:37Z</time>
      </trkpt>
      <trkpt lat="38.3981920" lon="-0.7079850">
        <ele>247.0</ele>
        <time>2018-10-14T10:14:38Z</time>
      </trkpt>
      <trkpt lat="38.3981720" lon="-0.7081180">
        <ele>247.0</ele>
        <time>2018-10-14T10:14:39Z</time>
      </trkpt>
      <trkpt lat="38.3981720" lon="-0.7081180">
        <ele>247.0</ele>
        <time>2018-10-14T10:14:40Z</time>
      </trkpt>
      <trkpt lat="38.3981400" lon="-0.7082520">
        <ele>247.0</ele>
        <time>2018-10-14T10:14:41Z</time>
      </trkpt>
      <trkpt lat="38.3981400" lon="-0.7082520">
        <ele>247.0</ele>
        <time>2018-10-14T10:14:42Z</time>
      </trkpt>
      <trkpt lat="38.3980980" lon="-0.7083850">
        <ele>247.0</ele>
        <time>2018-10-14T10:14:43Z</time>
      </trkpt>
      <trkpt lat="38.3980980" lon="-0.7083850">
        <ele>247.0</ele>
        <time>2018-10-14T10:14:44Z</time>
      </trkpt>
      <trkpt lat="38.3980480" lon="-0.7085170">
        <ele>247.0</ele>
        <time>2018-10-14T10:14:45Z</time>
      </trkpt>
      <trkpt lat="38.3980480" lon="-0.7085170">
        <ele>247.0</ele>
        <time>2018-10-14T10:14:46Z</time>
      </trkpt>
      <trkpt lat="38.3979970" lon="-0.7086450">
        <ele>247.0</ele>
        <time>2018-10-14T10:14:47Z</time>
      </trkpt>
      <trkpt lat="38.3979700" lon="-0.7087080">
        <ele>247.0</ele>
        <time>2018-10-14T10:14:48Z</time>
      </trkpt>
      <trkpt lat="38.3979700" lon="-0.7087080">
        <ele>247.0</ele>
        <time>2018-10-14T10:14:49Z</time>
      </trkpt>
      <trkpt lat="38.3979180" lon="-0.7088380">
        <ele>247.0</ele>
        <time>2018-10-14T10:14:50Z</time>
      </trkpt>
      <trkpt lat="38.3979180" lon="-0.7088380">
        <ele>247.0</ele>
        <time>2018-10-14T10:14:51Z</time>
      </trkpt>
      <trkpt lat="38.3978650" lon="-0.7089620">
        <ele>247.0</ele>
        <time>2018-10-14T10:14:52Z</time>
      </trkpt>
      <trkpt lat="38.3978400" lon="-0.7090230">
        <ele>247.0</ele>
        <time>2018-10-14T10:14:53Z</time>
      </trkpt>
      <trkpt lat="38.3978400" lon="-0.7090230">
        <ele>247.0</ele>
        <time>2018-10-14T10:14:54Z</time>
      </trkpt>
      <trkpt lat="38.3977900" lon="-0.7091450">
        <ele>247.0</ele>
        <time>2018-10-14T10:14:55Z</time>
      </trkpt>
      <trkpt lat="38.3977900" lon="-0.7091450">
        <ele>247.0</ele>
        <time>2018-10-14T10:14:56Z</time>
      </trkpt>
      <trkpt lat="38.3977380" lon="-0.7092720">
        <ele>247.0</ele>
        <time>2018-10-14T10:14:57Z</time>
      </trkpt>
      <trkpt lat="38.3977380" lon="-0.7092720">
        <ele>247.0</ele>
        <time>2018-10-14T10:14:58Z</time>
      </trkpt>
      <trkpt lat="38.3976920" lon="-0.7093950">
        <ele>247.0</ele>
        <time>2018-10-14T10:14:59Z</time>
      </trkpt>
      <trkpt lat="38.3976920" lon="-0.7093950">
        <ele>247.0</ele>
        <time>2018-10-14T10:15:00Z</time>
      </trkpt>
      <trkpt lat="38.3976450" lon="-0.7095170">
        <ele>247.0</ele>
        <time>2018-10-14T10:15:01Z</time>
      </trkpt>
      <trkpt lat="38.3976450" lon="-0.7095170">
        <ele>247.0</ele>
        <time>2018-10-14T10:15:02Z</time>
      </trkpt>
      <trkpt lat="38.3976000" lon="-0.7096400">
        <ele>247.0</ele>
        <time>2018-10-14T10:15:03Z</time>
      </trkpt>
      <trkpt lat="38.3975770" lon="-0.7097050">
        <ele>247.0</ele>
        <time>2018-10-14T10:15:04Z</time>
      </trkpt>
      <trkpt lat="38.3975530" lon="-0.7097700">
        <ele>247.0</ele>
        <time>2018-10-14T10:15:05Z</time>
      </trkpt>
      <trkpt lat="38.3975530" lon="-0.7097700">
        <ele>247.0</ele>
        <time>2018-10-14T10:15:06Z</time>
      </trkpt>
      <trkpt lat="38.3975120" lon="-0.7099000">
        <ele>247.0</ele>
        <time>2018-10-14T10:15:07Z</time>
      </trkpt>
      <trkpt lat="38.3975120" lon="-0.7099000">
        <ele>247.0</ele>
        <time>2018-10-14T10:15:08Z</time>
      </trkpt>
      <trkpt lat="38.3974750" lon="-0.7100330">
        <ele>247.0</ele>
        <time>2018-10-14T10:15:09Z</time>
      </trkpt>
      <trkpt lat="38.3974750" lon="-0.7100330">
        <ele>248.0</ele>
        <time>2018-10-14T10:15:10Z</time>
      </trkpt>
      <trkpt lat="38.3974370" lon="-0.7101650">
        <ele>248.0</ele>
        <time>2018-10-14T10:15:11Z</time>
      </trkpt>
      <trkpt lat="38.3974370" lon="-0.7101650">
        <ele>248.0</ele>
        <time>2018-10-14T10:15:12Z</time>
      </trkpt>
      <trkpt lat="38.3973970" lon="-0.7102980">
        <ele>248.0</ele>
        <time>2018-10-14T10:15:13Z</time>
      </trkpt>
      <trkpt lat="38.3973780" lon="-0.7103630">
        <ele>248.0</ele>
        <time>2018-10-14T10:15:14Z</time>
      </trkpt>
      <trkpt lat="38.3973780" lon="-0.7103630">
        <ele>248.0</ele>
        <time>2018-10-14T10:15:15Z</time>
      </trkpt>
      <trkpt lat="38.3973430" lon="-0.7104950">
        <ele>248.0</ele>
        <time>2018-10-14T10:15:16Z</time>
      </trkpt>
      <trkpt lat="38.3973270" lon="-0.7105620">
        <ele>248.0</ele>
        <time>2018-10-14T10:15:17Z</time>
      </trkpt>
      <trkpt lat="38.3973270" lon="-0.7105620">
        <ele>248.0</ele>
        <time>2018-10-14T10:15:18Z</time>
      </trkpt>
      <trkpt lat="38.3972880" lon="-0.7106970">
        <ele>248.0</ele>
        <time>2018-10-14T10:15:19Z</time>
      </trkpt>
      <trkpt lat="38.3972880" lon="-0.7106970">
        <ele>248.0</ele>
        <time>2018-10-14T10:15:20Z</time>
      </trkpt>
      <trkpt lat="38.3972520" lon="-0.7108370">
        <ele>248.0</ele>
        <time>2018-10-14T10:15:21Z</time>
      </trkpt>
      <trkpt lat="38.3972520" lon="-0.7108370">
        <ele>248.0</ele>
        <time>2018-10-14T10:15:22Z</time>
      </trkpt>
      <trkpt lat="38.3972200" lon="-0.7109770">
        <ele>248.0</ele>
        <time>2018-10-14T10:15:23Z</time>
      </trkpt>
      <trkpt lat="38.3972200" lon="-0.7109770">
        <ele>248.0</ele>
        <time>2018-10-14T10:15:24Z</time>
      </trkpt>
      <trkpt lat="38.3971950" lon="-0.7111200">
        <ele>248.0</ele>
        <time>2018-10-14T10:15:25Z</time>
      </trkpt>
      <trkpt lat="38.3971950" lon="-0.7111200">
        <ele>248.0</ele>
        <time>2018-10-14T10:15:26Z</time>
      </trkpt>
      <trkpt lat="38.3971780" lon="-0.7112620">
        <ele>248.0</ele>
        <time>2018-10-14T10:15:27Z</time>
      </trkpt>
      <trkpt lat="38.3971780" lon="-0.7112620">
        <ele>249.0</ele>
        <time>2018-10-14T10:15:28Z</time>
      </trkpt>
      <trkpt lat="38.3971780" lon="-0.7114070">
        <ele>249.0</ele>
        <time>2018-10-14T10:15:29Z</time>
      </trkpt>
      <trkpt lat="38.3971780" lon="-0.7114070">
        <ele>249.0</ele>
        <time>2018-10-14T10:15:30Z</time>
      </trkpt>
      <trkpt lat="38.3971880" lon="-0.7115480">
        <ele>249.0</ele>
        <time>2018-10-14T10:15:31Z</time>
      </trkpt>
      <trkpt lat="38.3971880" lon="-0.7115480">
        <ele>249.0</ele>
        <time>2018-10-14T10:15:32Z</time>
      </trkpt>
      <trkpt lat="38.3972080" lon="-0.7116900">
        <ele>249.0</ele>
        <time>2018-10-14T10:15:33Z</time>
      </trkpt>
      <trkpt lat="38.3972080" lon="-0.7116900">
        <ele>249.0</ele>
        <time>2018-10-14T10:15:34Z</time>
      </trkpt>
      <trkpt lat="38.3972330" lon="-0.7118270">
        <ele>249.0</ele>
        <time>2018-10-14T10:15:35Z</time>
      </trkpt>
      <trkpt lat="38.3972330" lon="-0.7118270">
        <ele>249.0</ele>
        <time>2018-10-14T10:15:36Z</time>
      </trkpt>
      <trkpt lat="38.3972570" lon="-0.7119550">
        <ele>249.0</ele>
        <time>2018-10-14T10:15:37Z</time>
      </trkpt>
      <trkpt lat="38.3972570" lon="-0.7119550">
        <ele>250.0</ele>
        <time>2018-10-14T10:15:38Z</time>
      </trkpt>
      <trkpt lat="38.3972800" lon="-0.7120820">
        <ele>250.0</ele>
        <time>2018-10-14T10:15:39Z</time>
      </trkpt>
      <trkpt lat="38.3972800" lon="-0.7120820">
        <ele>250.0</ele>
        <time>2018-10-14T10:15:40Z</time>
      </trkpt>
      <trkpt lat="38.3973050" lon="-0.7122030">
        <ele>250.0</ele>
        <time>2018-10-14T10:15:41Z</time>
      </trkpt>
      <trkpt lat="38.3973050" lon="-0.7122030">
        <ele>250.0</ele>
        <time>2018-10-14T10:15:42Z</time>
      </trkpt>
      <trkpt lat="38.3973300" lon="-0.7123070">
        <ele>250.0</ele>
        <time>2018-10-14T10:15:43Z</time>
      </trkpt>
      <trkpt lat="38.3973300" lon="-0.7123070">
        <ele>251.0</ele>
        <time>2018-10-14T10:15:44Z</time>
      </trkpt>
      <trkpt lat="38.3973550" lon="-0.7124100">
        <ele>251.0</ele>
        <time>2018-10-14T10:15:45Z</time>
      </trkpt>
      <trkpt lat="38.3973550" lon="-0.7124100">
        <ele>251.0</ele>
        <time>2018-10-14T10:15:46Z</time>
      </trkpt>
      <trkpt lat="38.3973770" lon="-0.7125320">
        <ele>251.0</ele>
        <time>2018-10-14T10:15:47Z</time>
      </trkpt>
      <trkpt lat="38.3973770" lon="-0.7125320">
        <ele>251.0</ele>
        <time>2018-10-14T10:15:48Z</time>
      </trkpt>
      <trkpt lat="38.3973950" lon="-0.7126620">
        <ele>251.0</ele>
        <time>2018-10-14T10:15:49Z</time>
      </trkpt>
      <trkpt lat="38.3973950" lon="-0.7126620">
        <ele>251.0</ele>
        <time>2018-10-14T10:15:50Z</time>
      </trkpt>
      <trkpt lat="38.3974200" lon="-0.7127950">
        <ele>251.0</ele>
        <time>2018-10-14T10:15:51Z</time>
      </trkpt>
      <trkpt lat="38.3974350" lon="-0.7128620">
        <ele>251.0</ele>
        <time>2018-10-14T10:15:52Z</time>
      </trkpt>
      <trkpt lat="38.3974350" lon="-0.7128620">
        <ele>251.0</ele>
        <time>2018-10-14T10:15:53Z</time>
      </trkpt>
      <trkpt lat="38.3974600" lon="-0.7129920">
        <ele>251.0</ele>
        <time>2018-10-14T10:15:54Z</time>
      </trkpt>
      <trkpt lat="38.3974600" lon="-0.7129920">
        <ele>251.0</ele>
        <time>2018-10-14T10:15:55Z</time>
      </trkpt>
      <trkpt lat="38.3974780" lon="-0.7131230">
        <ele>251.0</ele>
        <time>2018-10-14T10:15:56Z</time>
      </trkpt>
      <trkpt lat="38.3974780" lon="-0.7131230">
        <ele>251.0</ele>
        <time>2018-10-14T10:15:57Z</time>
      </trkpt>
      <trkpt lat="38.3974920" lon="-0.7132570">
        <ele>252.0</ele>
        <time>2018-10-14T10:15:58Z</time>
      </trkpt>
      <trkpt lat="38.3974970" lon="-0.7133250">
        <ele>252.0</ele>
        <time>2018-10-14T10:15:59Z</time>
      </trkpt>
      <trkpt lat="38.3974970" lon="-0.7133250">
        <ele>252.0</ele>
        <time>2018-10-14T10:16:00Z</time>
      </trkpt>
      <trkpt lat="38.3975070" lon="-0.7134580">
        <ele>252.0</ele>
        <time>2018-10-14T10:16:01Z</time>
      </trkpt>
      <trkpt lat="38.3975070" lon="-0.7134580">
        <ele>252.0</ele>
        <time>2018-10-14T10:16:02Z</time>
      </trkpt>
      <trkpt lat="38.3975150" lon="-0.7135930">
        <ele>252.0</ele>
        <time>2018-10-14T10:16:03Z</time>
      </trkpt>
      <trkpt lat="38.3975180" lon="-0.7136600">
        <ele>252.0</ele>
        <time>2018-10-14T10:16:04Z</time>
      </trkpt>
      <trkpt lat="38.3975180" lon="-0.7136600">
        <ele>252.0</ele>
        <time>2018-10-14T10:16:05Z</time>
      </trkpt>
      <trkpt lat="38.3975250" lon="-0.7137980">
        <ele>253.0</ele>
        <time>2018-10-14T10:16:06Z</time>
      </trkpt>
      <trkpt lat="38.3975300" lon="-0.7138700">
        <ele>253.0</ele>
        <time>2018-10-14T10:16:07Z</time>
      </trkpt>
      <trkpt lat="38.3975300" lon="-0.7138700">
        <ele>253.0</ele>
        <time>2018-10-14T10:16:08Z</time>
      </trkpt>
      <trkpt lat="38.3975400" lon="-0.7140100">
        <ele>253.0</ele>
        <time>2018-10-14T10:16:09Z</time>
      </trkpt>
      <trkpt lat="38.3975400" lon="-0.7140100">
        <ele>253.0</ele>
        <time>2018-10-14T10:16:10Z</time>
      </trkpt>
      <trkpt lat="38.3975530" lon="-0.7141480">
        <ele>253.0</ele>
        <time>2018-10-14T10:16:11Z</time>
      </trkpt>
      <trkpt lat="38.3975530" lon="-0.7141480">
        <ele>253.0</ele>
        <time>2018-10-14T10:16:12Z</time>
      </trkpt>
      <trkpt lat="38.3975650" lon="-0.7142870">
        <ele>253.0</ele>
        <time>2018-10-14T10:16:13Z</time>
      </trkpt>
      <trkpt lat="38.3975650" lon="-0.7142870">
        <ele>253.0</ele>
        <time>2018-10-14T10:16:14Z</time>
      </trkpt>
      <trkpt lat="38.3975770" lon="-0.7144230">
        <ele>253.0</ele>
        <time>2018-10-14T10:16:15Z</time>
      </trkpt>
      <trkpt lat="38.3975770" lon="-0.7144230">
        <ele>253.0</ele>
        <time>2018-10-14T10:16:16Z</time>
      </trkpt>
      <trkpt lat="38.3975920" lon="-0.7145620">
        <ele>253.0</ele>
        <time>2018-10-14T10:16:17Z</time>
      </trkpt>
      <trkpt lat="38.3975920" lon="-0.7145620">
        <ele>253.0</ele>
        <time>2018-10-14T10:16:18Z</time>
      </trkpt>
      <trkpt lat="38.3976050" lon="-0.7147020">
        <ele>253.0</ele>
        <time>2018-10-14T10:16:19Z</time>
      </trkpt>
      <trkpt lat="38.3976120" lon="-0.7147700">
        <ele>254.0</ele>
        <time>2018-10-14T10:16:20Z</time>
      </trkpt>
      <trkpt lat="38.3976200" lon="-0.7148380">
        <ele>254.0</ele>
        <time>2018-10-14T10:16:21Z</time>
      </trkpt>
      <trkpt lat="38.3976200" lon="-0.7148380">
        <ele>254.0</ele>
        <time>2018-10-14T10:16:22Z</time>
      </trkpt>
      <trkpt lat="38.3976350" lon="-0.7149770">
        <ele>254.0</ele>
        <time>2018-10-14T10:16:23Z</time>
      </trkpt>
      <trkpt lat="38.3976350" lon="-0.7149770">
        <ele>254.0</ele>
        <time>2018-10-14T10:16:24Z</time>
      </trkpt>
      <trkpt lat="38.3976450" lon="-0.7151100">
        <ele>254.0</ele>
        <time>2018-10-14T10:16:25Z</time>
      </trkpt>
      <trkpt lat="38.3976450" lon="-0.7151100">
        <ele>254.0</ele>
        <time>2018-10-14T10:16:26Z</time>
      </trkpt>
      <trkpt lat="38.3976520" lon="-0.7152450">
        <ele>254.0</ele>
        <time>2018-10-14T10:16:27Z</time>
      </trkpt>
      <trkpt lat="38.3976520" lon="-0.7152450">
        <ele>254.0</ele>
        <time>2018-10-14T10:16:28Z</time>
      </trkpt>
      <trkpt lat="38.3976580" lon="-0.7153820">
        <ele>254.0</ele>
        <time>2018-10-14T10:16:29Z</time>
      </trkpt>
      <trkpt lat="38.3976580" lon="-0.7153820">
        <ele>254.0</ele>
        <time>2018-10-14T10:16:30Z</time>
      </trkpt>
      <trkpt lat="38.3976680" lon="-0.7155200">
        <ele>254.0</ele>
        <time>2018-10-14T10:16:31Z</time>
      </trkpt>
      <trkpt lat="38.3976680" lon="-0.7155200">
        <ele>254.0</ele>
        <time>2018-10-14T10:16:32Z</time>
      </trkpt>
      <trkpt lat="38.3976850" lon="-0.7156570">
        <ele>254.0</ele>
        <time>2018-10-14T10:16:33Z</time>
      </trkpt>
      <trkpt lat="38.3976930" lon="-0.7157250">
        <ele>254.0</ele>
        <time>2018-10-14T10:16:34Z</time>
      </trkpt>
      <trkpt lat="38.3976930" lon="-0.7157250">
        <ele>254.0</ele>
        <time>2018-10-14T10:16:35Z</time>
      </trkpt>
      <trkpt lat="38.3977080" lon="-0.7158600">
        <ele>254.0</ele>
        <time>2018-10-14T10:16:36Z</time>
      </trkpt>
      <trkpt lat="38.3977170" lon="-0.7159270">
        <ele>254.0</ele>
        <time>2018-10-14T10:16:37Z</time>
      </trkpt>
      <trkpt lat="38.3977170" lon="-0.7159270">
        <ele>254.0</ele>
        <time>2018-10-14T10:16:38Z</time>
      </trkpt>
      <trkpt lat="38.3977250" lon="-0.7160630">
        <ele>255.0</ele>
        <time>2018-10-14T10:16:39Z</time>
      </trkpt>
      <trkpt lat="38.3977250" lon="-0.7160630">
        <ele>255.0</ele>
        <time>2018-10-14T10:16:40Z</time>
      </trkpt>
      <trkpt lat="38.3977280" lon="-0.7162020">
        <ele>255.0</ele>
        <time>2018-10-14T10:16:41Z</time>
      </trkpt>
      <trkpt lat="38.3977280" lon="-0.7162020">
        <ele>255.0</ele>
        <time>2018-10-14T10:16:42Z</time>
      </trkpt>
      <trkpt lat="38.3977270" lon="-0.7163420">
        <ele>255.0</ele>
        <time>2018-10-14T10:16:43Z</time>
      </trkpt>
      <trkpt lat="38.3977270" lon="-0.7163420">
        <ele>255.0</ele>
        <time>2018-10-14T10:16:44Z</time>
      </trkpt>
      <trkpt lat="38.3977150" lon="-0.7164850">
        <ele>255.0</ele>
        <time>2018-10-14T10:16:45Z</time>
      </trkpt>
      <trkpt lat="38.3977080" lon="-0.7165570">
        <ele>255.0</ele>
        <time>2018-10-14T10:16:46Z</time>
      </trkpt>
      <trkpt lat="38.3977080" lon="-0.7165570">
        <ele>255.0</ele>
        <time>2018-10-14T10:16:47Z</time>
      </trkpt>
      <trkpt lat="38.3976950" lon="-0.7166980">
        <ele>255.0</ele>
        <time>2018-10-14T10:16:48Z</time>
      </trkpt>
      <trkpt lat="38.3976880" lon="-0.7167700">
        <ele>255.0</ele>
        <time>2018-10-14T10:16:49Z</time>
      </trkpt>
      <trkpt lat="38.3976880" lon="-0.7167700">
        <ele>255.0</ele>
        <time>2018-10-14T10:16:50Z</time>
      </trkpt>
      <trkpt lat="38.3976730" lon="-0.7169120">
        <ele>255.0</ele>
        <time>2018-10-14T10:16:51Z</time>
      </trkpt>
      <trkpt lat="38.3976730" lon="-0.7169120">
        <ele>255.0</ele>
        <time>2018-10-14T10:16:52Z</time>
      </trkpt>
      <trkpt lat="38.3976600" lon="-0.7170520">
        <ele>255.0</ele>
        <time>2018-10-14T10:16:53Z</time>
      </trkpt>
      <trkpt lat="38.3976600" lon="-0.7170520">
        <ele>255.0</ele>
        <time>2018-10-14T10:16:54Z</time>
      </trkpt>
      <trkpt lat="38.3976480" lon="-0.7171950">
        <ele>256.0</ele>
        <time>2018-10-14T10:16:55Z</time>
      </trkpt>
      <trkpt lat="38.3976480" lon="-0.7171950">
        <ele>256.0</ele>
        <time>2018-10-14T10:16:56Z</time>
      </trkpt>
      <trkpt lat="38.3976430" lon="-0.7173400">
        <ele>256.0</ele>
        <time>2018-10-14T10:16:57Z</time>
      </trkpt>
      <trkpt lat="38.3976430" lon="-0.7174130">
        <ele>256.0</ele>
        <time>2018-10-14T10:16:58Z</time>
      </trkpt>
      <trkpt lat="38.3976430" lon="-0.7174130">
        <ele>256.0</ele>
        <time>2018-10-14T10:16:59Z</time>
      </trkpt>
      <trkpt lat="38.3976400" lon="-0.7175620">
        <ele>256.0</ele>
        <time>2018-10-14T10:17:00Z</time>
      </trkpt>
      <trkpt lat="38.3976380" lon="-0.7176330">
        <ele>256.0</ele>
        <time>2018-10-14T10:17:01Z</time>
      </trkpt>
      <trkpt lat="38.3976380" lon="-0.7176330">
        <ele>256.0</ele>
        <time>2018-10-14T10:17:02Z</time>
      </trkpt>
      <trkpt lat="38.3976380" lon="-0.7177720">
        <ele>256.0</ele>
        <time>2018-10-14T10:17:03Z</time>
      </trkpt>
      <trkpt lat="38.3976380" lon="-0.7177720">
        <ele>256.0</ele>
        <time>2018-10-14T10:17:04Z</time>
      </trkpt>
      <trkpt lat="38.3976380" lon="-0.7179230">
        <ele>256.0</ele>
        <time>2018-10-14T10:17:05Z</time>
      </trkpt>
      <trkpt lat="38.3976380" lon="-0.7179230">
        <ele>256.0</ele>
        <time>2018-10-14T10:17:06Z</time>
      </trkpt>
      <trkpt lat="38.3976400" lon="-0.7180800">
        <ele>256.0</ele>
        <time>2018-10-14T10:17:07Z</time>
      </trkpt>
      <trkpt lat="38.3976400" lon="-0.7180800">
        <ele>256.0</ele>
        <time>2018-10-14T10:17:08Z</time>
      </trkpt>
      <trkpt lat="38.3976430" lon="-0.7182350">
        <ele>257.0</ele>
        <time>2018-10-14T10:17:09Z</time>
      </trkpt>
      <trkpt lat="38.3976420" lon="-0.7183130">
        <ele>257.0</ele>
        <time>2018-10-14T10:17:10Z</time>
      </trkpt>
      <trkpt lat="38.3976420" lon="-0.7183130">
        <ele>257.0</ele>
        <time>2018-10-14T10:17:11Z</time>
      </trkpt>
      <trkpt lat="38.3976450" lon="-0.7184670">
        <ele>257.0</ele>
        <time>2018-10-14T10:17:12Z</time>
      </trkpt>
      <trkpt lat="38.3976450" lon="-0.7184670">
        <ele>257.0</ele>
        <time>2018-10-14T10:17:13Z</time>
      </trkpt>
      <trkpt lat="38.3976600" lon="-0.7186170">
        <ele>257.0</ele>
        <time>2018-10-14T10:17:14Z</time>
      </trkpt>
      <trkpt lat="38.3976700" lon="-0.7186900">
        <ele>258.0</ele>
        <time>2018-10-14T10:17:15Z</time>
      </trkpt>
      <trkpt lat="38.3976700" lon="-0.7186900">
        <ele>258.0</ele>
        <time>2018-10-14T10:17:16Z</time>
      </trkpt>
      <trkpt lat="38.3976980" lon="-0.7188380">
        <ele>258.0</ele>
        <time>2018-10-14T10:17:17Z</time>
      </trkpt>
      <trkpt lat="38.3977170" lon="-0.7189080">
        <ele>258.0</ele>
        <time>2018-10-14T10:17:18Z</time>
      </trkpt>
      <trkpt lat="38.3977170" lon="-0.7189080">
        <ele>258.0</ele>
        <time>2018-10-14T10:17:19Z</time>
      </trkpt>
      <trkpt lat="38.3977500" lon="-0.7190450">
        <ele>258.0</ele>
        <time>2018-10-14T10:17:20Z</time>
      </trkpt>
      <trkpt lat="38.3977700" lon="-0.7191150">
        <ele>258.0</ele>
        <time>2018-10-14T10:17:21Z</time>
      </trkpt>
      <trkpt lat="38.3977700" lon="-0.7191150">
        <ele>258.0</ele>
        <time>2018-10-14T10:17:22Z</time>
      </trkpt>
      <trkpt lat="38.3978120" lon="-0.7192550">
        <ele>258.0</ele>
        <time>2018-10-14T10:17:23Z</time>
      </trkpt>
      <trkpt lat="38.3978320" lon="-0.7193270">
        <ele>258.0</ele>
        <time>2018-10-14T10:17:24Z</time>
      </trkpt>
      <trkpt lat="38.3978520" lon="-0.7193980">
        <ele>258.0</ele>
        <time>2018-10-14T10:17:25Z</time>
      </trkpt>
      <trkpt lat="38.3978520" lon="-0.7193980">
        <ele>258.0</ele>
        <time>2018-10-14T10:17:26Z</time>
      </trkpt>
      <trkpt lat="38.3978820" lon="-0.7195450">
        <ele>259.0</ele>
        <time>2018-10-14T10:17:27Z</time>
      </trkpt>
      <trkpt lat="38.3978930" lon="-0.7196200">
        <ele>259.0</ele>
        <time>2018-10-14T10:17:28Z</time>
      </trkpt>
      <trkpt lat="38.3978930" lon="-0.7196200">
        <ele>259.0</ele>
        <time>2018-10-14T10:17:29Z</time>
      </trkpt>
      <trkpt lat="38.3979050" lon="-0.7197700">
        <ele>259.0</ele>
        <time>2018-10-14T10:17:30Z</time>
      </trkpt>
      <trkpt lat="38.3979080" lon="-0.7198450">
        <ele>259.0</ele>
        <time>2018-10-14T10:17:31Z</time>
      </trkpt>
      <trkpt lat="38.3979080" lon="-0.7198450">
        <ele>259.0</ele>
        <time>2018-10-14T10:17:32Z</time>
      </trkpt>
      <trkpt lat="38.3979150" lon="-0.7199970">
        <ele>259.0</ele>
        <time>2018-10-14T10:17:33Z</time>
      </trkpt>
      <trkpt lat="38.3979180" lon="-0.7200750">
        <ele>259.0</ele>
        <time>2018-10-14T10:17:34Z</time>
      </trkpt>
      <trkpt lat="38.3979180" lon="-0.7200750">
        <ele>259.0</ele>
        <time>2018-10-14T10:17:35Z</time>
      </trkpt>
      <trkpt lat="38.3979220" lon="-0.7202330">
        <ele>260.0</ele>
        <time>2018-10-14T10:17:36Z</time>
      </trkpt>
      <trkpt lat="38.3979220" lon="-0.7202330">
        <ele>260.0</ele>
        <time>2018-10-14T10:17:37Z</time>
      </trkpt>
      <trkpt lat="38.3979230" lon="-0.7203930">
        <ele>260.0</ele>
        <time>2018-10-14T10:17:38Z</time>
      </trkpt>
      <trkpt lat="38.3979230" lon="-0.7203930">
        <ele>260.0</ele>
        <time>2018-10-14T10:17:39Z</time>
      </trkpt>
      <trkpt lat="38.3979450" lon="-0.7205430">
        <ele>260.0</ele>
        <time>2018-10-14T10:17:40Z</time>
      </trkpt>
      <trkpt lat="38.3979450" lon="-0.7205430">
        <ele>260.0</ele>
        <time>2018-10-14T10:17:41Z</time>
      </trkpt>
      <trkpt lat="38.3979530" lon="-0.7206820">
        <ele>260.0</ele>
        <time>2018-10-14T10:17:42Z</time>
      </trkpt>
      <trkpt lat="38.3979620" lon="-0.7207580">
        <ele>260.0</ele>
        <time>2018-10-14T10:17:43Z</time>
      </trkpt>
      <trkpt lat="38.3979620" lon="-0.7207580">
        <ele>260.0</ele>
        <time>2018-10-14T10:17:44Z</time>
      </trkpt>
      <trkpt lat="38.3979730" lon="-0.7209200">
        <ele>260.0</ele>
        <time>2018-10-14T10:17:45Z</time>
      </trkpt>
      <trkpt lat="38.3979730" lon="-0.7209200">
        <ele>260.0</ele>
        <time>2018-10-14T10:17:46Z</time>
      </trkpt>
      <trkpt lat="38.3979800" lon="-0.7210850">
        <ele>260.0</ele>
        <time>2018-10-14T10:17:47Z</time>
      </trkpt>
      <trkpt lat="38.3979850" lon="-0.7211670">
        <ele>260.0</ele>
        <time>2018-10-14T10:17:48Z</time>
      </trkpt>
      <trkpt lat="38.3979850" lon="-0.7211670">
        <ele>260.0</ele>
        <time>2018-10-14T10:17:49Z</time>
      </trkpt>
      <trkpt lat="38.3979930" lon="-0.7213250">
        <ele>261.0</ele>
        <time>2018-10-14T10:17:50Z</time>
      </trkpt>
      <trkpt lat="38.3979970" lon="-0.7214030">
        <ele>261.0</ele>
        <time>2018-10-14T10:17:51Z</time>
      </trkpt>
      <trkpt lat="38.3979970" lon="-0.7214030">
        <ele>261.0</ele>
        <time>2018-10-14T10:17:52Z</time>
      </trkpt>
      <trkpt lat="38.3980020" lon="-0.7215620">
        <ele>261.0</ele>
        <time>2018-10-14T10:17:53Z</time>
      </trkpt>
      <trkpt lat="38.3980020" lon="-0.7215620">
        <ele>261.0</ele>
        <time>2018-10-14T10:17:54Z</time>
      </trkpt>
      <trkpt lat="38.3980150" lon="-0.7217200">
        <ele>261.0</ele>
        <time>2018-10-14T10:17:55Z</time>
      </trkpt>
      <trkpt lat="38.3980150" lon="-0.7217200">
        <ele>261.0</ele>
        <time>2018-10-14T10:17:56Z</time>
      </trkpt>
      <trkpt lat="38.3980330" lon="-0.7218770">
        <ele>261.0</ele>
        <time>2018-10-14T10:17:57Z</time>
      </trkpt>
      <trkpt lat="38.3980330" lon="-0.7218770">
        <ele>261.0</ele>
        <time>2018-10-14T10:17:58Z</time>
      </trkpt>
      <trkpt lat="38.3980530" lon="-0.7220370">
        <ele>261.0</ele>
        <time>2018-10-14T10:17:59Z</time>
      </trkpt>
      <trkpt lat="38.3980530" lon="-0.7220370">
        <ele>261.0</ele>
        <time>2018-10-14T10:18:00Z</time>
      </trkpt>
      <trkpt lat="38.3980750" lon="-0.7221950">
        <ele>262.0</ele>
        <time>2018-10-14T10:18:01Z</time>
      </trkpt>
      <trkpt lat="38.3980750" lon="-0.7221950">
        <ele>262.0</ele>
        <time>2018-10-14T10:18:02Z</time>
      </trkpt>
      <trkpt lat="38.3980950" lon="-0.7223530">
        <ele>262.0</ele>
        <time>2018-10-14T10:18:03Z</time>
      </trkpt>
      <trkpt lat="38.3980950" lon="-0.7223530">
        <ele>262.0</ele>
        <time>2018-10-14T10:18:04Z</time>
      </trkpt>
      <trkpt lat="38.3981150" lon="-0.7225130">
        <ele>262.0</ele>
        <time>2018-10-14T10:18:05Z</time>
      </trkpt>
      <trkpt lat="38.3981150" lon="-0.7225130">
        <ele>262.0</ele>
        <time>2018-10-14T10:18:06Z</time>
      </trkpt>
      <trkpt lat="38.3981280" lon="-0.7226750">
        <ele>262.0</ele>
        <time>2018-10-14T10:18:07Z</time>
      </trkpt>
      <trkpt lat="38.3981280" lon="-0.7226750">
        <ele>262.0</ele>
        <time>2018-10-14T10:18:08Z</time>
      </trkpt>
      <trkpt lat="38.3981420" lon="-0.7228420">
        <ele>262.0</ele>
        <time>2018-10-14T10:18:09Z</time>
      </trkpt>
      <trkpt lat="38.3981420" lon="-0.7228420">
        <ele>262.0</ele>
        <time>2018-10-14T10:18:10Z</time>
      </trkpt>
      <trkpt lat="38.3981480" lon="-0.7230120">
        <ele>262.0</ele>
        <time>2018-10-14T10:18:11Z</time>
      </trkpt>
      <trkpt lat="38.3981480" lon="-0.7230120">
        <ele>262.0</ele>
        <time>2018-10-14T10:18:12Z</time>
      </trkpt>
      <trkpt lat="38.3981570" lon="-0.7231820">
        <ele>262.0</ele>
        <time>2018-10-14T10:18:13Z</time>
      </trkpt>
      <trkpt lat="38.3981600" lon="-0.7232680">
        <ele>262.0</ele>
        <time>2018-10-14T10:18:14Z</time>
      </trkpt>
      <trkpt lat="38.3981600" lon="-0.7232680">
        <ele>262.0</ele>
        <time>2018-10-14T10:18:15Z</time>
      </trkpt>
      <trkpt lat="38.3981620" lon="-0.7234450">
        <ele>262.0</ele>
        <time>2018-10-14T10:18:16Z</time>
      </trkpt>
      <trkpt lat="38.3981620" lon="-0.7234450">
        <ele>262.0</ele>
        <time>2018-10-14T10:18:17Z</time>
      </trkpt>
      <trkpt lat="38.3981680" lon="-0.7236220">
        <ele>262.0</ele>
        <time>2018-10-14T10:18:18Z</time>
      </trkpt>
      <trkpt lat="38.3981770" lon="-0.7237120">
        <ele>262.0</ele>
        <time>2018-10-14T10:18:19Z</time>
      </trkpt>
      <trkpt lat="38.3981770" lon="-0.7237120">
        <ele>262.0</ele>
        <time>2018-10-14T10:18:20Z</time>
      </trkpt>
      <trkpt lat="38.3982070" lon="-0.7238870">
        <ele>262.0</ele>
        <time>2018-10-14T10:18:21Z</time>
      </trkpt>
      <trkpt lat="38.3982070" lon="-0.7238870">
        <ele>262.0</ele>
        <time>2018-10-14T10:18:22Z</time>
      </trkpt>
      <trkpt lat="38.3982370" lon="-0.7240650">
        <ele>262.0</ele>
        <time>2018-10-14T10:18:23Z</time>
      </trkpt>
      <trkpt lat="38.3982370" lon="-0.7240650">
        <ele>262.0</ele>
        <time>2018-10-14T10:18:24Z</time>
      </trkpt>
      <trkpt lat="38.3982600" lon="-0.7242470">
        <ele>262.0</ele>
        <time>2018-10-14T10:18:25Z</time>
      </trkpt>
      <trkpt lat="38.3982600" lon="-0.7242470">
        <ele>262.0</ele>
        <time>2018-10-14T10:18:26Z</time>
      </trkpt>
      <trkpt lat="38.3982770" lon="-0.7244300">
        <ele>262.0</ele>
        <time>2018-10-14T10:18:27Z</time>
      </trkpt>
      <trkpt lat="38.3982770" lon="-0.7244300">
        <ele>262.0</ele>
        <time>2018-10-14T10:18:28Z</time>
      </trkpt>
      <trkpt lat="38.3982870" lon="-0.7246150">
        <ele>262.0</ele>
        <time>2018-10-14T10:18:29Z</time>
      </trkpt>
      <trkpt lat="38.3982870" lon="-0.7246150">
        <ele>262.0</ele>
        <time>2018-10-14T10:18:30Z</time>
      </trkpt>
      <trkpt lat="38.3982950" lon="-0.7248030">
        <ele>262.0</ele>
        <time>2018-10-14T10:18:31Z</time>
      </trkpt>
      <trkpt lat="38.3982930" lon="-0.7248970">
        <ele>262.0</ele>
        <time>2018-10-14T10:18:32Z</time>
      </trkpt>
      <trkpt lat="38.3982930" lon="-0.7248970">
        <ele>262.0</ele>
        <time>2018-10-14T10:18:33Z</time>
      </trkpt>
      <trkpt lat="38.3982750" lon="-0.7250830">
        <ele>262.0</ele>
        <time>2018-10-14T10:18:34Z</time>
      </trkpt>
      <trkpt lat="38.3982750" lon="-0.7250830">
        <ele>262.0</ele>
        <time>2018-10-14T10:18:35Z</time>
      </trkpt>
      <trkpt lat="38.3982420" lon="-0.7252670">
        <ele>262.0</ele>
        <time>2018-10-14T10:18:36Z</time>
      </trkpt>
      <trkpt lat="38.3982420" lon="-0.7252670">
        <ele>262.0</ele>
        <time>2018-10-14T10:18:37Z</time>
      </trkpt>
      <trkpt lat="38.3982000" lon="-0.7254480">
        <ele>262.0</ele>
        <time>2018-10-14T10:18:38Z</time>
      </trkpt>
      <trkpt lat="38.3981780" lon="-0.7255380">
        <ele>262.0</ele>
        <time>2018-10-14T10:18:39Z</time>
      </trkpt>
      <trkpt lat="38.3981780" lon="-0.7255380">
        <ele>262.0</ele>
        <time>2018-10-14T10:18:40Z</time>
      </trkpt>
      <trkpt lat="38.3981430" lon="-0.7257230">
        <ele>262.0</ele>
        <time>2018-10-14T10:18:41Z</time>
      </trkpt>
      <trkpt lat="38.3981430" lon="-0.7257230">
        <ele>262.0</ele>
        <time>2018-10-14T10:18:42Z</time>
      </trkpt>
      <trkpt lat="38.3981230" lon="-0.7259120">
        <ele>262.0</ele>
        <time>2018-10-14T10:18:43Z</time>
      </trkpt>
      <trkpt lat="38.3981230" lon="-0.7259120">
        <ele>262.0</ele>
        <time>2018-10-14T10:18:44Z</time>
      </trkpt>
      <trkpt lat="38.3981070" lon="-0.7261050">
        <ele>262.0</ele>
        <time>2018-10-14T10:18:45Z</time>
      </trkpt>
      <trkpt lat="38.3981070" lon="-0.7261050">
        <ele>262.0</ele>
        <time>2018-10-14T10:18:46Z</time>
      </trkpt>
      <trkpt lat="38.3981030" lon="-0.7262970">
        <ele>262.0</ele>
        <time>2018-10-14T10:18:47Z</time>
      </trkpt>
      <trkpt lat="38.3981030" lon="-0.7262970">
        <ele>262.0</ele>
        <time>2018-10-14T10:18:48Z</time>
      </trkpt>
      <trkpt lat="38.3981020" lon="-0.7264880">
        <ele>262.0</ele>
        <time>2018-10-14T10:18:49Z</time>
      </trkpt>
      <trkpt lat="38.3981020" lon="-0.7264880">
        <ele>262.0</ele>
        <time>2018-10-14T10:18:50Z</time>
      </trkpt>
      <trkpt lat="38.3981030" lon="-0.7266780">
        <ele>262.0</ele>
        <time>2018-10-14T10:18:51Z</time>
      </trkpt>
      <trkpt lat="38.3981030" lon="-0.7266780">
        <ele>262.0</ele>
        <time>2018-10-14T10:18:52Z</time>
      </trkpt>
      <trkpt lat="38.3981030" lon="-0.7268730">
        <ele>262.0</ele>
        <time>2018-10-14T10:18:53Z</time>
      </trkpt>
      <trkpt lat="38.3981030" lon="-0.7268730">
        <ele>262.0</ele>
        <time>2018-10-14T10:18:54Z</time>
      </trkpt>
      <trkpt lat="38.3981100" lon="-0.7270700">
        <ele>262.0</ele>
        <time>2018-10-14T10:18:55Z</time>
      </trkpt>
      <trkpt lat="38.3981100" lon="-0.7270700">
        <ele>262.0</ele>
        <time>2018-10-14T10:18:56Z</time>
      </trkpt>
      <trkpt lat="38.3981150" lon="-0.7272730">
        <ele>262.0</ele>
        <time>2018-10-14T10:18:57Z</time>
      </trkpt>
      <trkpt lat="38.3981150" lon="-0.7272730">
        <ele>262.0</ele>
        <time>2018-10-14T10:18:58Z</time>
      </trkpt>
      <trkpt lat="38.3981170" lon="-0.7274770">
        <ele>262.0</ele>
        <time>2018-10-14T10:18:59Z</time>
      </trkpt>
      <trkpt lat="38.3981200" lon="-0.7275780">
        <ele>262.0</ele>
        <time>2018-10-14T10:19:00Z</time>
      </trkpt>
      <trkpt lat="38.3981230" lon="-0.7276780">
        <ele>262.0</ele>
        <time>2018-10-14T10:19:01Z</time>
      </trkpt>
      <trkpt lat="38.3981230" lon="-0.7276780">
        <ele>262.0</ele>
        <time>2018-10-14T10:19:02Z</time>
      </trkpt>
      <trkpt lat="38.3981300" lon="-0.7278770">
        <ele>262.0</ele>
        <time>2018-10-14T10:19:03Z</time>
      </trkpt>
      <trkpt lat="38.3981300" lon="-0.7278770">
        <ele>262.0</ele>
        <time>2018-10-14T10:19:04Z</time>
      </trkpt>
      <trkpt lat="38.3981430" lon="-0.7280780">
        <ele>261.0</ele>
        <time>2018-10-14T10:19:05Z</time>
      </trkpt>
      <trkpt lat="38.3981430" lon="-0.7280780">
        <ele>261.0</ele>
        <time>2018-10-14T10:19:06Z</time>
      </trkpt>
      <trkpt lat="38.3981580" lon="-0.7282850">
        <ele>261.0</ele>
        <time>2018-10-14T10:19:07Z</time>
      </trkpt>
      <trkpt lat="38.3981580" lon="-0.7282850">
        <ele>261.0</ele>
        <time>2018-10-14T10:19:08Z</time>
      </trkpt>
      <trkpt lat="38.3981750" lon="-0.7284920">
        <ele>261.0</ele>
        <time>2018-10-14T10:19:09Z</time>
      </trkpt>
      <trkpt lat="38.3981750" lon="-0.7284920">
        <ele>261.0</ele>
        <time>2018-10-14T10:19:10Z</time>
      </trkpt>
      <trkpt lat="38.3982020" lon="-0.7286970">
        <ele>261.0</ele>
        <time>2018-10-14T10:19:11Z</time>
      </trkpt>
      <trkpt lat="38.3982180" lon="-0.7287980">
        <ele>261.0</ele>
        <time>2018-10-14T10:19:12Z</time>
      </trkpt>
      <trkpt lat="38.3982180" lon="-0.7287980">
        <ele>261.0</ele>
        <time>2018-10-14T10:19:13Z</time>
      </trkpt>
      <trkpt lat="38.3982470" lon="-0.7290030">
        <ele>261.0</ele>
        <time>2018-10-14T10:19:14Z</time>
      </trkpt>
      <trkpt lat="38.3982550" lon="-0.7291080">
        <ele>261.0</ele>
        <time>2018-10-14T10:19:15Z</time>
      </trkpt>
      <trkpt lat="38.3982550" lon="-0.7291080">
        <ele>261.0</ele>
        <time>2018-10-14T10:19:16Z</time>
      </trkpt>
      <trkpt lat="38.3982620" lon="-0.7293220">
        <ele>261.0</ele>
        <time>2018-10-14T10:19:17Z</time>
      </trkpt>
      <trkpt lat="38.3982600" lon="-0.7294300">
        <ele>261.0</ele>
        <time>2018-10-14T10:19:18Z</time>
      </trkpt>
      <trkpt lat="38.3982500" lon="-0.7295400">
        <ele>261.0</ele>
        <time>2018-10-14T10:19:19Z</time>
      </trkpt>
      <trkpt lat="38.3982500" lon="-0.7295400">
        <ele>261.0</ele>
        <time>2018-10-14T10:19:20Z</time>
      </trkpt>
      <trkpt lat="38.3982100" lon="-0.7297570">
        <ele>261.0</ele>
        <time>2018-10-14T10:19:21Z</time>
      </trkpt>
      <trkpt lat="38.3982100" lon="-0.7297570">
        <ele>261.0</ele>
        <time>2018-10-14T10:19:22Z</time>
      </trkpt>
      <trkpt lat="38.3981430" lon="-0.7299670">
        <ele>260.0</ele>
        <time>2018-10-14T10:19:23Z</time>
      </trkpt>
      <trkpt lat="38.3981430" lon="-0.7299670">
        <ele>260.0</ele>
        <time>2018-10-14T10:19:24Z</time>
      </trkpt>
      <trkpt lat="38.3980700" lon="-0.7301730">
        <ele>260.0</ele>
        <time>2018-10-14T10:19:25Z</time>
      </trkpt>
      <trkpt lat="38.3980700" lon="-0.7301730">
        <ele>260.0</ele>
        <time>2018-10-14T10:19:26Z</time>
      </trkpt>
      <trkpt lat="38.3980080" lon="-0.7303830">
        <ele>259.0</ele>
        <time>2018-10-14T10:19:27Z</time>
      </trkpt>
      <trkpt lat="38.3980080" lon="-0.7303830">
        <ele>259.0</ele>
        <time>2018-10-14T10:19:28Z</time>
      </trkpt>
      <trkpt lat="38.3979480" lon="-0.7305900">
        <ele>259.0</ele>
        <time>2018-10-14T10:19:29Z</time>
      </trkpt>
      <trkpt lat="38.3979480" lon="-0.7305900">
        <ele>259.0</ele>
        <time>2018-10-14T10:19:30Z</time>
      </trkpt>
      <trkpt lat="38.3978880" lon="-0.7308000">
        <ele>259.0</ele>
        <time>2018-10-14T10:19:31Z</time>
      </trkpt>
      <trkpt lat="38.3978880" lon="-0.7308000">
        <ele>259.0</ele>
        <time>2018-10-14T10:19:32Z</time>
      </trkpt>
      <trkpt lat="38.3978400" lon="-0.7310170">
        <ele>259.0</ele>
        <time>2018-10-14T10:19:33Z</time>
      </trkpt>
      <trkpt lat="38.3978400" lon="-0.7310170">
        <ele>258.0</ele>
        <time>2018-10-14T10:19:34Z</time>
      </trkpt>
      <trkpt lat="38.3977950" lon="-0.7312380">
        <ele>258.0</ele>
        <time>2018-10-14T10:19:35Z</time>
      </trkpt>
      <trkpt lat="38.3977730" lon="-0.7313480">
        <ele>258.0</ele>
        <time>2018-10-14T10:19:36Z</time>
      </trkpt>
      <trkpt lat="38.3977730" lon="-0.7313480">
        <ele>258.0</ele>
        <time>2018-10-14T10:19:37Z</time>
      </trkpt>
      <trkpt lat="38.3977280" lon="-0.7315730">
        <ele>258.0</ele>
        <time>2018-10-14T10:19:38Z</time>
      </trkpt>
      <trkpt lat="38.3977080" lon="-0.7316850">
        <ele>258.0</ele>
        <time>2018-10-14T10:19:39Z</time>
      </trkpt>
      <trkpt lat="38.3977080" lon="-0.7316850">
        <ele>257.0</ele>
        <time>2018-10-14T10:19:40Z</time>
      </trkpt>
      <trkpt lat="38.3976700" lon="-0.7319100">
        <ele>257.0</ele>
        <time>2018-10-14T10:19:41Z</time>
      </trkpt>
      <trkpt lat="38.3976700" lon="-0.7319100">
        <ele>257.0</ele>
        <time>2018-10-14T10:19:42Z</time>
      </trkpt>
      <trkpt lat="38.3976300" lon="-0.7321370">
        <ele>257.0</ele>
        <time>2018-10-14T10:19:43Z</time>
      </trkpt>
      <trkpt lat="38.3976300" lon="-0.7321370">
        <ele>256.0</ele>
        <time>2018-10-14T10:19:44Z</time>
      </trkpt>
      <trkpt lat="38.3975920" lon="-0.7323650">
        <ele>256.0</ele>
        <time>2018-10-14T10:19:45Z</time>
      </trkpt>
      <trkpt lat="38.3975920" lon="-0.7323650">
        <ele>256.0</ele>
        <time>2018-10-14T10:19:46Z</time>
      </trkpt>
      <trkpt lat="38.3975730" lon="-0.7325900">
        <ele>256.0</ele>
        <time>2018-10-14T10:19:47Z</time>
      </trkpt>
      <trkpt lat="38.3975730" lon="-0.7325900">
        <ele>256.0</ele>
        <time>2018-10-14T10:19:48Z</time>
      </trkpt>
      <trkpt lat="38.3975980" lon="-0.7328200">
        <ele>256.0</ele>
        <time>2018-10-14T10:19:49Z</time>
      </trkpt>
      <trkpt lat="38.3975980" lon="-0.7328200">
        <ele>255.0</ele>
        <time>2018-10-14T10:19:50Z</time>
      </trkpt>
      <trkpt lat="38.3976570" lon="-0.7330480">
        <ele>255.0</ele>
        <time>2018-10-14T10:19:51Z</time>
      </trkpt>
      <trkpt lat="38.3976570" lon="-0.7330480">
        <ele>255.0</ele>
        <time>2018-10-14T10:19:52Z</time>
      </trkpt>
      <trkpt lat="38.3977150" lon="-0.7332780">
        <ele>255.0</ele>
        <time>2018-10-14T10:19:53Z</time>
      </trkpt>
      <trkpt lat="38.3977400" lon="-0.7333950">
        <ele>254.0</ele>
        <time>2018-10-14T10:19:54Z</time>
      </trkpt>
      <trkpt lat="38.3977600" lon="-0.7335120">
        <ele>254.0</ele>
        <time>2018-10-14T10:19:55Z</time>
      </trkpt>
      <trkpt lat="38.3977600" lon="-0.7335120">
        <ele>254.0</ele>
        <time>2018-10-14T10:19:56Z</time>
      </trkpt>
      <trkpt lat="38.3977850" lon="-0.7337430">
        <ele>254.0</ele>
        <time>2018-10-14T10:19:57Z</time>
      </trkpt>
      <trkpt lat="38.3977950" lon="-0.7338570">
        <ele>254.0</ele>
        <time>2018-10-14T10:19:58Z</time>
      </trkpt>
      <trkpt lat="38.3977950" lon="-0.7338570">
        <ele>254.0</ele>
        <time>2018-10-14T10:19:59Z</time>
      </trkpt>
      <trkpt lat="38.3978120" lon="-0.7340830">
        <ele>253.0</ele>
        <time>2018-10-14T10:20:00Z</time>
      </trkpt>
      <trkpt lat="38.3978200" lon="-0.7341950">
        <ele>253.0</ele>
        <time>2018-10-14T10:20:01Z</time>
      </trkpt>
      <trkpt lat="38.3978200" lon="-0.7341950">
        <ele>253.0</ele>
        <time>2018-10-14T10:20:02Z</time>
      </trkpt>
      <trkpt lat="38.3978320" lon="-0.7344220">
        <ele>253.0</ele>
        <time>2018-10-14T10:20:03Z</time>
      </trkpt>
      <trkpt lat="38.3978320" lon="-0.7344220">
        <ele>253.0</ele>
        <time>2018-10-14T10:20:04Z</time>
      </trkpt>
      <trkpt lat="38.3978500" lon="-0.7346450">
        <ele>253.0</ele>
        <time>2018-10-14T10:20:05Z</time>
      </trkpt>
      <trkpt lat="38.3978500" lon="-0.7346450">
        <ele>253.0</ele>
        <time>2018-10-14T10:20:06Z</time>
      </trkpt>
      <trkpt lat="38.3978720" lon="-0.7348680">
        <ele>253.0</ele>
        <time>2018-10-14T10:20:07Z</time>
      </trkpt>
      <trkpt lat="38.3978720" lon="-0.7348680">
        <ele>253.0</ele>
        <time>2018-10-14T10:20:08Z</time>
      </trkpt>
      <trkpt lat="38.3978820" lon="-0.7350900">
        <ele>253.0</ele>
        <time>2018-10-14T10:20:09Z</time>
      </trkpt>
      <trkpt lat="38.3978820" lon="-0.7350900">
        <ele>253.0</ele>
        <time>2018-10-14T10:20:10Z</time>
      </trkpt>
      <trkpt lat="38.3978920" lon="-0.7353100">
        <ele>253.0</ele>
        <time>2018-10-14T10:20:11Z</time>
      </trkpt>
      <trkpt lat="38.3978920" lon="-0.7353100">
        <ele>253.0</ele>
        <time>2018-10-14T10:20:12Z</time>
      </trkpt>
      <trkpt lat="38.3978980" lon="-0.7355270">
        <ele>253.0</ele>
        <time>2018-10-14T10:20:13Z</time>
      </trkpt>
      <trkpt lat="38.3978980" lon="-0.7355270">
        <ele>253.0</ele>
        <time>2018-10-14T10:20:14Z</time>
      </trkpt>
      <trkpt lat="38.3978970" lon="-0.7357450">
        <ele>253.0</ele>
        <time>2018-10-14T10:20:15Z</time>
      </trkpt>
      <trkpt lat="38.3978970" lon="-0.7357450">
        <ele>252.0</ele>
        <time>2018-10-14T10:20:16Z</time>
      </trkpt>
      <trkpt lat="38.3978950" lon="-0.7359730">
        <ele>252.0</ele>
        <time>2018-10-14T10:20:17Z</time>
      </trkpt>
      <trkpt lat="38.3978950" lon="-0.7359730">
        <ele>252.0</ele>
        <time>2018-10-14T10:20:18Z</time>
      </trkpt>
      <trkpt lat="38.3979120" lon="-0.7361980">
        <ele>252.0</ele>
        <time>2018-10-14T10:20:19Z</time>
      </trkpt>
      <trkpt lat="38.3979120" lon="-0.7361980">
        <ele>251.0</ele>
        <time>2018-10-14T10:20:20Z</time>
      </trkpt>
      <trkpt lat="38.3979250" lon="-0.7364120">
        <ele>251.0</ele>
        <time>2018-10-14T10:20:21Z</time>
      </trkpt>
      <trkpt lat="38.3979250" lon="-0.7364120">
        <ele>251.0</ele>
        <time>2018-10-14T10:20:22Z</time>
      </trkpt>
      <trkpt lat="38.3979420" lon="-0.7365870">
        <ele>251.0</ele>
        <time>2018-10-14T10:20:23Z</time>
      </trkpt>
      <trkpt lat="38.3979420" lon="-0.7365870">
        <ele>250.0</ele>
        <time>2018-10-14T10:20:24Z</time>
      </trkpt>
      <trkpt lat="38.3979430" lon="-0.7367170">
        <ele>250.0</ele>
        <time>2018-10-14T10:20:25Z</time>
      </trkpt>
      <trkpt lat="38.3979430" lon="-0.7367170">
        <ele>250.0</ele>
        <time>2018-10-14T10:20:26Z</time>
      </trkpt>
      <trkpt lat="38.3979320" lon="-0.7368180">
        <ele>250.0</ele>
        <time>2018-10-14T10:20:27Z</time>
      </trkpt>
      <trkpt lat="38.3979320" lon="-0.7368180">
        <ele>250.0</ele>
        <time>2018-10-14T10:20:28Z</time>
      </trkpt>
      <trkpt lat="38.3979300" lon="-0.7369320">
        <ele>250.0</ele>
        <time>2018-10-14T10:20:29Z</time>
      </trkpt>
      <trkpt lat="38.3979300" lon="-0.7369320">
        <ele>250.0</ele>
        <time>2018-10-14T10:20:30Z</time>
      </trkpt>
      <trkpt lat="38.3979100" lon="-0.7370720">
        <ele>250.0</ele>
        <time>2018-10-14T10:20:31Z</time>
      </trkpt>
      <trkpt lat="38.3979100" lon="-0.7370720">
        <ele>250.0</ele>
        <time>2018-10-14T10:20:32Z</time>
      </trkpt>
      <trkpt lat="38.3978600" lon="-0.7372150">
        <ele>250.0</ele>
        <time>2018-10-14T10:20:33Z</time>
      </trkpt>
      <trkpt lat="38.3978600" lon="-0.7372150">
        <ele>250.0</ele>
        <time>2018-10-14T10:20:34Z</time>
      </trkpt>
      <trkpt lat="38.3977950" lon="-0.7373620">
        <ele>250.0</ele>
        <time>2018-10-14T10:20:35Z</time>
      </trkpt>
      <trkpt lat="38.3977950" lon="-0.7373620">
        <ele>250.0</ele>
        <time>2018-10-14T10:20:36Z</time>
      </trkpt>
      <trkpt lat="38.3977300" lon="-0.7375230">
        <ele>250.0</ele>
        <time>2018-10-14T10:20:37Z</time>
      </trkpt>
      <trkpt lat="38.3977300" lon="-0.7375230">
        <ele>250.0</ele>
        <time>2018-10-14T10:20:38Z</time>
      </trkpt>
      <trkpt lat="38.3976650" lon="-0.7376900">
        <ele>250.0</ele>
        <time>2018-10-14T10:20:39Z</time>
      </trkpt>
      <trkpt lat="38.3976650" lon="-0.7376900">
        <ele>250.0</ele>
        <time>2018-10-14T10:20:40Z</time>
      </trkpt>
      <trkpt lat="38.3975970" lon="-0.7378550">
        <ele>250.0</ele>
        <time>2018-10-14T10:20:41Z</time>
      </trkpt>
      <trkpt lat="38.3975970" lon="-0.7378550">
        <ele>250.0</ele>
        <time>2018-10-14T10:20:42Z</time>
      </trkpt>
      <trkpt lat="38.3975250" lon="-0.7380230">
        <ele>250.0</ele>
        <time>2018-10-14T10:20:43Z</time>
      </trkpt>
      <trkpt lat="38.3975250" lon="-0.7380230">
        <ele>250.0</ele>
        <time>2018-10-14T10:20:44Z</time>
      </trkpt>
      <trkpt lat="38.3974530" lon="-0.7381880">
        <ele>250.0</ele>
        <time>2018-10-14T10:20:45Z</time>
      </trkpt>
      <trkpt lat="38.3974530" lon="-0.7381880">
        <ele>250.0</ele>
        <time>2018-10-14T10:20:46Z</time>
      </trkpt>
      <trkpt lat="38.3973750" lon="-0.7383500">
        <ele>250.0</ele>
        <time>2018-10-14T10:20:47Z</time>
      </trkpt>
      <trkpt lat="38.3973320" lon="-0.7384250">
        <ele>250.0</ele>
        <time>2018-10-14T10:20:48Z</time>
      </trkpt>
      <trkpt lat="38.3972870" lon="-0.7384970">
        <ele>250.0</ele>
        <time>2018-10-14T10:20:49Z</time>
      </trkpt>
      <trkpt lat="38.3972870" lon="-0.7384970">
        <ele>250.0</ele>
        <time>2018-10-14T10:20:50Z</time>
      </trkpt>
      <trkpt lat="38.3971930" lon="-0.7386350">
        <ele>250.0</ele>
        <time>2018-10-14T10:20:51Z</time>
      </trkpt>
      <trkpt lat="38.3971930" lon="-0.7386350">
        <ele>250.0</ele>
        <time>2018-10-14T10:20:52Z</time>
      </trkpt>
      <trkpt lat="38.3971020" lon="-0.7387700">
        <ele>250.0</ele>
        <time>2018-10-14T10:20:53Z</time>
      </trkpt>
      <trkpt lat="38.3971020" lon="-0.7387700">
        <ele>250.0</ele>
        <time>2018-10-14T10:20:54Z</time>
      </trkpt>
      <trkpt lat="38.3970120" lon="-0.7389000">
        <ele>249.0</ele>
        <time>2018-10-14T10:20:55Z</time>
      </trkpt>
      <trkpt lat="38.3970120" lon="-0.7389000">
        <ele>249.0</ele>
        <time>2018-10-14T10:20:56Z</time>
      </trkpt>
      <trkpt lat="38.3969200" lon="-0.7390280">
        <ele>249.0</ele>
        <time>2018-10-14T10:20:57Z</time>
      </trkpt>
      <trkpt lat="38.3968750" lon="-0.7390920">
        <ele>249.0</ele>
        <time>2018-10-14T10:20:58Z</time>
      </trkpt>
      <trkpt lat="38.3968750" lon="-0.7390920">
        <ele>249.0</ele>
        <time>2018-10-14T10:20:59Z</time>
      </trkpt>
      <trkpt lat="38.3967870" lon="-0.7392170">
        <ele>249.0</ele>
        <time>2018-10-14T10:21:00Z</time>
      </trkpt>
      <trkpt lat="38.3967870" lon="-0.7392170">
        <ele>249.0</ele>
        <time>2018-10-14T10:21:01Z</time>
      </trkpt>
      <trkpt lat="38.3966970" lon="-0.7393420">
        <ele>249.0</ele>
        <time>2018-10-14T10:21:02Z</time>
      </trkpt>
      <trkpt lat="38.3966970" lon="-0.7393420">
        <ele>249.0</ele>
        <time>2018-10-14T10:21:03Z</time>
      </trkpt>
      <trkpt lat="38.3966120" lon="-0.7394670">
        <ele>248.0</ele>
        <time>2018-10-14T10:21:04Z</time>
      </trkpt>
      <trkpt lat="38.3966120" lon="-0.7394670">
        <ele>248.0</ele>
        <time>2018-10-14T10:21:05Z</time>
      </trkpt>
      <trkpt lat="38.3965230" lon="-0.7395850">
        <ele>248.0</ele>
        <time>2018-10-14T10:21:06Z</time>
      </trkpt>
      <trkpt lat="38.3964780" lon="-0.7396400">
        <ele>248.0</ele>
        <time>2018-10-14T10:21:07Z</time>
      </trkpt>
      <trkpt lat="38.3964780" lon="-0.7396400">
        <ele>248.0</ele>
        <time>2018-10-14T10:21:08Z</time>
      </trkpt>
      <trkpt lat="38.3963820" lon="-0.7397470">
        <ele>248.0</ele>
        <time>2018-10-14T10:21:09Z</time>
      </trkpt>
      <trkpt lat="38.3963320" lon="-0.7397980">
        <ele>248.0</ele>
        <time>2018-10-14T10:21:10Z</time>
      </trkpt>
      <trkpt lat="38.3963320" lon="-0.7397980">
        <ele>248.0</ele>
        <time>2018-10-14T10:21:11Z</time>
      </trkpt>
      <trkpt lat="38.3962180" lon="-0.7398950">
        <ele>248.0</ele>
        <time>2018-10-14T10:21:12Z</time>
      </trkpt>
      <trkpt lat="38.3961570" lon="-0.7399400">
        <ele>248.0</ele>
        <time>2018-10-14T10:21:13Z</time>
      </trkpt>
      <trkpt lat="38.3960920" lon="-0.7399850">
        <ele>248.0</ele>
        <time>2018-10-14T10:21:14Z</time>
      </trkpt>
      <trkpt lat="38.3960920" lon="-0.7399850">
        <ele>248.0</ele>
        <time>2018-10-14T10:21:15Z</time>
      </trkpt>
      <trkpt lat="38.3959550" lon="-0.7400770">
        <ele>247.0</ele>
        <time>2018-10-14T10:21:16Z</time>
      </trkpt>
      <trkpt lat="38.3959550" lon="-0.7400770">
        <ele>247.0</ele>
        <time>2018-10-14T10:21:17Z</time>
      </trkpt>
      <trkpt lat="38.3958200" lon="-0.7401700">
        <ele>247.0</ele>
        <time>2018-10-14T10:21:18Z</time>
      </trkpt>
      <trkpt lat="38.3957500" lon="-0.7402180">
        <ele>247.0</ele>
        <time>2018-10-14T10:21:19Z</time>
      </trkpt>
      <trkpt lat="38.3957500" lon="-0.7402180">
        <ele>247.0</ele>
        <time>2018-10-14T10:21:20Z</time>
      </trkpt>
      <trkpt lat="38.3956080" lon="-0.7403170">
        <ele>247.0</ele>
        <time>2018-10-14T10:21:21Z</time>
      </trkpt>
      <trkpt lat="38.3955370" lon="-0.7403700">
        <ele>247.0</ele>
        <time>2018-10-14T10:21:22Z</time>
      </trkpt>
      <trkpt lat="38.3954670" lon="-0.7404270">
        <ele>247.0</ele>
        <time>2018-10-14T10:21:23Z</time>
      </trkpt>
      <trkpt lat="38.3954670" lon="-0.7404270">
        <ele>247.0</ele>
        <time>2018-10-14T10:21:24Z</time>
      </trkpt>
      <trkpt lat="38.3953330" lon="-0.7405570">
        <ele>247.0</ele>
        <time>2018-10-14T10:21:25Z</time>
      </trkpt>
      <trkpt lat="38.3953330" lon="-0.7405570">
        <ele>247.0</ele>
        <time>2018-10-14T10:21:26Z</time>
      </trkpt>
      <trkpt lat="38.3952020" lon="-0.7407030">
        <ele>247.0</ele>
        <time>2018-10-14T10:21:27Z</time>
      </trkpt>
      <trkpt lat="38.3951420" lon="-0.7407880">
        <ele>246.0</ele>
        <time>2018-10-14T10:21:28Z</time>
      </trkpt>
      <trkpt lat="38.3951420" lon="-0.7407880">
        <ele>246.0</ele>
        <time>2018-10-14T10:21:29Z</time>
      </trkpt>
      <trkpt lat="38.3950180" lon="-0.7409650">
        <ele>246.0</ele>
        <time>2018-10-14T10:21:30Z</time>
      </trkpt>
      <trkpt lat="38.3950180" lon="-0.7409650">
        <ele>246.0</ele>
        <time>2018-10-14T10:21:31Z</time>
      </trkpt>
      <trkpt lat="38.3948970" lon="-0.7411550">
        <ele>246.0</ele>
        <time>2018-10-14T10:21:32Z</time>
      </trkpt>
      <trkpt lat="38.3948370" lon="-0.7412500">
        <ele>246.0</ele>
        <time>2018-10-14T10:21:33Z</time>
      </trkpt>
      <trkpt lat="38.3948370" lon="-0.7412500">
        <ele>246.0</ele>
        <time>2018-10-14T10:21:34Z</time>
      </trkpt>
      <trkpt lat="38.3947200" lon="-0.7414280">
        <ele>246.0</ele>
        <time>2018-10-14T10:21:35Z</time>
      </trkpt>
      <trkpt lat="38.3947200" lon="-0.7414280">
        <ele>246.0</ele>
        <time>2018-10-14T10:21:36Z</time>
      </trkpt>
      <trkpt lat="38.3946030" lon="-0.7416020">
        <ele>246.0</ele>
        <time>2018-10-14T10:21:37Z</time>
      </trkpt>
      <trkpt lat="38.3946030" lon="-0.7416020">
        <ele>246.0</ele>
        <time>2018-10-14T10:21:38Z</time>
      </trkpt>
      <trkpt lat="38.3944880" lon="-0.7417700">
        <ele>246.0</ele>
        <time>2018-10-14T10:21:39Z</time>
      </trkpt>
      <trkpt lat="38.3944880" lon="-0.7417700">
        <ele>246.0</ele>
        <time>2018-10-14T10:21:40Z</time>
      </trkpt>
      <trkpt lat="38.3943750" lon="-0.7419430">
        <ele>246.0</ele>
        <time>2018-10-14T10:21:41Z</time>
      </trkpt>
      <trkpt lat="38.3943150" lon="-0.7420300">
        <ele>246.0</ele>
        <time>2018-10-14T10:21:42Z</time>
      </trkpt>
      <trkpt lat="38.3942530" lon="-0.7421180">
        <ele>246.0</ele>
        <time>2018-10-14T10:21:43Z</time>
      </trkpt>
      <trkpt lat="38.3942530" lon="-0.7421180">
        <ele>246.0</ele>
        <time>2018-10-14T10:21:44Z</time>
      </trkpt>
      <trkpt lat="38.3941330" lon="-0.7422970">
        <ele>245.0</ele>
        <time>2018-10-14T10:21:45Z</time>
      </trkpt>
      <trkpt lat="38.3941330" lon="-0.7422970">
        <ele>245.0</ele>
        <time>2018-10-14T10:21:46Z</time>
      </trkpt>
      <trkpt lat="38.3940150" lon="-0.7424730">
        <ele>245.0</ele>
        <time>2018-10-14T10:21:47Z</time>
      </trkpt>
      <trkpt lat="38.3939570" lon="-0.7425630">
        <ele>245.0</ele>
        <time>2018-10-14T10:21:48Z</time>
      </trkpt>
      <trkpt lat="38.3938980" lon="-0.7426550">
        <ele>245.0</ele>
        <time>2018-10-14T10:21:49Z</time>
      </trkpt>
      <trkpt lat="38.3938980" lon="-0.7426550">
        <ele>245.0</ele>
        <time>2018-10-14T10:21:50Z</time>
      </trkpt>
      <trkpt lat="38.3937830" lon="-0.7428400">
        <ele>245.0</ele>
        <time>2018-10-14T10:21:51Z</time>
      </trkpt>
      <trkpt lat="38.3937830" lon="-0.7428400">
        <ele>244.0</ele>
        <time>2018-10-14T10:21:52Z</time>
      </trkpt>
      <trkpt lat="38.3936720" lon="-0.7430280">
        <ele>244.0</ele>
        <time>2018-10-14T10:21:53Z</time>
      </trkpt>
      <trkpt lat="38.3936720" lon="-0.7430280">
        <ele>244.0</ele>
        <time>2018-10-14T10:21:54Z</time>
      </trkpt>
      <trkpt lat="38.3935620" lon="-0.7432180">
        <ele>244.0</ele>
        <time>2018-10-14T10:21:55Z</time>
      </trkpt>
      <trkpt lat="38.3935620" lon="-0.7432180">
        <ele>243.0</ele>
        <time>2018-10-14T10:21:56Z</time>
      </trkpt>
      <trkpt lat="38.3934570" lon="-0.7434150">
        <ele>243.0</ele>
        <time>2018-10-14T10:21:57Z</time>
      </trkpt>
      <trkpt lat="38.3934570" lon="-0.7434150">
        <ele>243.0</ele>
        <time>2018-10-14T10:21:58Z</time>
      </trkpt>
      <trkpt lat="38.3933550" lon="-0.7436070">
        <ele>243.0</ele>
        <time>2018-10-14T10:21:59Z</time>
      </trkpt>
      <trkpt lat="38.3933550" lon="-0.7436070">
        <ele>243.0</ele>
        <time>2018-10-14T10:22:00Z</time>
      </trkpt>
      <trkpt lat="38.3932550" lon="-0.7437970">
        <ele>243.0</ele>
        <time>2018-10-14T10:22:01Z</time>
      </trkpt>
      <trkpt lat="38.3932550" lon="-0.7437970">
        <ele>243.0</ele>
        <time>2018-10-14T10:22:02Z</time>
      </trkpt>
      <trkpt lat="38.3931550" lon="-0.7439900">
        <ele>243.0</ele>
        <time>2018-10-14T10:22:03Z</time>
      </trkpt>
      <trkpt lat="38.3931550" lon="-0.7439900">
        <ele>243.0</ele>
        <time>2018-10-14T10:22:04Z</time>
      </trkpt>
      <trkpt lat="38.3930520" lon="-0.7441900">
        <ele>243.0</ele>
        <time>2018-10-14T10:22:05Z</time>
      </trkpt>
      <trkpt lat="38.3930030" lon="-0.7442920">
        <ele>243.0</ele>
        <time>2018-10-14T10:22:06Z</time>
      </trkpt>
      <trkpt lat="38.3929570" lon="-0.7443920">
        <ele>243.0</ele>
        <time>2018-10-14T10:22:07Z</time>
      </trkpt>
      <trkpt lat="38.3929570" lon="-0.7443920">
        <ele>243.0</ele>
        <time>2018-10-14T10:22:08Z</time>
      </trkpt>
      <trkpt lat="38.3928670" lon="-0.7445970">
        <ele>243.0</ele>
        <time>2018-10-14T10:22:09Z</time>
      </trkpt>
      <trkpt lat="38.3928670" lon="-0.7445970">
        <ele>242.0</ele>
        <time>2018-10-14T10:22:10Z</time>
      </trkpt>
      <trkpt lat="38.3927800" lon="-0.7447920">
        <ele>242.0</ele>
        <time>2018-10-14T10:22:11Z</time>
      </trkpt>
      <trkpt lat="38.3927800" lon="-0.7447920">
        <ele>242.0</ele>
        <time>2018-10-14T10:22:12Z</time>
      </trkpt>
      <trkpt lat="38.3926950" lon="-0.7449830">
        <ele>242.0</ele>
        <time>2018-10-14T10:22:13Z</time>
      </trkpt>
      <trkpt lat="38.3926950" lon="-0.7449830">
        <ele>242.0</ele>
        <time>2018-10-14T10:22:14Z</time>
      </trkpt>
      <trkpt lat="38.3926150" lon="-0.7451720">
        <ele>242.0</ele>
        <time>2018-10-14T10:22:15Z</time>
      </trkpt>
      <trkpt lat="38.3926150" lon="-0.7451720">
        <ele>242.0</ele>
        <time>2018-10-14T10:22:16Z</time>
      </trkpt>
      <trkpt lat="38.3925430" lon="-0.7453620">
        <ele>242.0</ele>
        <time>2018-10-14T10:22:17Z</time>
      </trkpt>
      <trkpt lat="38.3925430" lon="-0.7453620">
        <ele>241.0</ele>
        <time>2018-10-14T10:22:18Z</time>
      </trkpt>
      <trkpt lat="38.3924830" lon="-0.7455330">
        <ele>241.0</ele>
        <time>2018-10-14T10:22:19Z</time>
      </trkpt>
      <trkpt lat="38.3924830" lon="-0.7455330">
        <ele>241.0</ele>
        <time>2018-10-14T10:22:20Z</time>
      </trkpt>
      <trkpt lat="38.3924430" lon="-0.7457150">
        <ele>241.0</ele>
        <time>2018-10-14T10:22:21Z</time>
      </trkpt>
      <trkpt lat="38.3924430" lon="-0.7457150">
        <ele>241.0</ele>
        <time>2018-10-14T10:22:22Z</time>
      </trkpt>
      <trkpt lat="38.3924220" lon="-0.7459080">
        <ele>241.0</ele>
        <time>2018-10-14T10:22:23Z</time>
      </trkpt>
      <trkpt lat="38.3924220" lon="-0.7459080">
        <ele>241.0</ele>
        <time>2018-10-14T10:22:24Z</time>
      </trkpt>
      <trkpt lat="38.3923600" lon="-0.7460850">
        <ele>241.0</ele>
        <time>2018-10-14T10:22:25Z</time>
      </trkpt>
      <trkpt lat="38.3923600" lon="-0.7460850">
        <ele>241.0</ele>
        <time>2018-10-14T10:22:26Z</time>
      </trkpt>
      <trkpt lat="38.3922530" lon="-0.7462220">
        <ele>241.0</ele>
        <time>2018-10-14T10:22:27Z</time>
      </trkpt>
      <trkpt lat="38.3922530" lon="-0.7462220">
        <ele>241.0</ele>
        <time>2018-10-14T10:22:28Z</time>
      </trkpt>
      <trkpt lat="38.3921580" lon="-0.7463680">
        <ele>241.0</ele>
        <time>2018-10-14T10:22:29Z</time>
      </trkpt>
      <trkpt lat="38.3921580" lon="-0.7463680">
        <ele>241.0</ele>
        <time>2018-10-14T10:22:30Z</time>
      </trkpt>
      <trkpt lat="38.3920930" lon="-0.7465430">
        <ele>241.0</ele>
        <time>2018-10-14T10:22:31Z</time>
      </trkpt>
      <trkpt lat="38.3920930" lon="-0.7465430">
        <ele>241.0</ele>
        <time>2018-10-14T10:22:32Z</time>
      </trkpt>
      <trkpt lat="38.3920420" lon="-0.7467150">
        <ele>241.0</ele>
        <time>2018-10-14T10:22:33Z</time>
      </trkpt>
      <trkpt lat="38.3920420" lon="-0.7467150">
        <ele>241.0</ele>
        <time>2018-10-14T10:22:34Z</time>
      </trkpt>
      <trkpt lat="38.3919830" lon="-0.7468750">
        <ele>241.0</ele>
        <time>2018-10-14T10:22:35Z</time>
      </trkpt>
      <trkpt lat="38.3919830" lon="-0.7468750">
        <ele>241.0</ele>
        <time>2018-10-14T10:22:36Z</time>
      </trkpt>
      <trkpt lat="38.3919480" lon="-0.7470400">
        <ele>241.0</ele>
        <time>2018-10-14T10:22:37Z</time>
      </trkpt>
      <trkpt lat="38.3919480" lon="-0.7470400">
        <ele>241.0</ele>
        <time>2018-10-14T10:22:38Z</time>
      </trkpt>
      <trkpt lat="38.3919300" lon="-0.7472020">
        <ele>241.0</ele>
        <time>2018-10-14T10:22:39Z</time>
      </trkpt>
      <trkpt lat="38.3919300" lon="-0.7472020">
        <ele>241.0</ele>
        <time>2018-10-14T10:22:40Z</time>
      </trkpt>
      <trkpt lat="38.3918800" lon="-0.7473570">
        <ele>241.0</ele>
        <time>2018-10-14T10:22:41Z</time>
      </trkpt>
      <trkpt lat="38.3918530" lon="-0.7474300">
        <ele>241.0</ele>
        <time>2018-10-14T10:22:42Z</time>
      </trkpt>
      <trkpt lat="38.3918270" lon="-0.7475050">
        <ele>240.0</ele>
        <time>2018-10-14T10:22:43Z</time>
      </trkpt>
      <trkpt lat="38.3918270" lon="-0.7475050">
        <ele>240.0</ele>
        <time>2018-10-14T10:22:44Z</time>
      </trkpt>
      <trkpt lat="38.3917800" lon="-0.7476500">
        <ele>240.0</ele>
        <time>2018-10-14T10:22:45Z</time>
      </trkpt>
      <trkpt lat="38.3917800" lon="-0.7476500">
        <ele>240.0</ele>
        <time>2018-10-14T10:22:46Z</time>
      </trkpt>
      <trkpt lat="38.3917320" lon="-0.7477900">
        <ele>240.0</ele>
        <time>2018-10-14T10:22:47Z</time>
      </trkpt>
      <trkpt lat="38.3917080" lon="-0.7478580">
        <ele>240.0</ele>
        <time>2018-10-14T10:22:48Z</time>
      </trkpt>
      <trkpt lat="38.3916870" lon="-0.7479230">
        <ele>240.0</ele>
        <time>2018-10-14T10:22:49Z</time>
      </trkpt>
      <trkpt lat="38.3916870" lon="-0.7479230">
        <ele>240.0</ele>
        <time>2018-10-14T10:22:50Z</time>
      </trkpt>
      <trkpt lat="38.3916480" lon="-0.7480520">
        <ele>240.0</ele>
        <time>2018-10-14T10:22:51Z</time>
      </trkpt>
      <trkpt lat="38.3916480" lon="-0.7480520">
        <ele>240.0</ele>
        <time>2018-10-14T10:22:52Z</time>
      </trkpt>
      <trkpt lat="38.3916100" lon="-0.7481720">
        <ele>240.0</ele>
        <time>2018-10-14T10:22:53Z</time>
      </trkpt>
      <trkpt lat="38.3916100" lon="-0.7481720">
        <ele>240.0</ele>
        <time>2018-10-14T10:22:54Z</time>
      </trkpt>
      <trkpt lat="38.3915700" lon="-0.7482830">
        <ele>240.0</ele>
        <time>2018-10-14T10:22:55Z</time>
      </trkpt>
      <trkpt lat="38.3915700" lon="-0.7482830">
        <ele>240.0</ele>
        <time>2018-10-14T10:22:56Z</time>
      </trkpt>
      <trkpt lat="38.3915280" lon="-0.7483900">
        <ele>240.0</ele>
        <time>2018-10-14T10:22:57Z</time>
      </trkpt>
      <trkpt lat="38.3915080" lon="-0.7484450">
        <ele>240.0</ele>
        <time>2018-10-14T10:22:58Z</time>
      </trkpt>
      <trkpt lat="38.3915080" lon="-0.7484450">
        <ele>240.0</ele>
        <time>2018-10-14T10:22:59Z</time>
      </trkpt>
      <trkpt lat="38.3914670" lon="-0.7485530">
        <ele>240.0</ele>
        <time>2018-10-14T10:23:00Z</time>
      </trkpt>
      <trkpt lat="38.3914450" lon="-0.7486080">
        <ele>240.0</ele>
        <time>2018-10-14T10:23:01Z</time>
      </trkpt>
      <trkpt lat="38.3914450" lon="-0.7486080">
        <ele>240.0</ele>
        <time>2018-10-14T10:23:02Z</time>
      </trkpt>
      <trkpt lat="38.3914000" lon="-0.7487200">
        <ele>240.0</ele>
        <time>2018-10-14T10:23:03Z</time>
      </trkpt>
      <trkpt lat="38.3914000" lon="-0.7487200">
        <ele>240.0</ele>
        <time>2018-10-14T10:23:04Z</time>
      </trkpt>
      <trkpt lat="38.3913570" lon="-0.7488270">
        <ele>240.0</ele>
        <time>2018-10-14T10:23:05Z</time>
      </trkpt>
      <trkpt lat="38.3913570" lon="-0.7488270">
        <ele>240.0</ele>
        <time>2018-10-14T10:23:06Z</time>
      </trkpt>
      <trkpt lat="38.3913170" lon="-0.7489280">
        <ele>240.0</ele>
        <time>2018-10-14T10:23:07Z</time>
      </trkpt>
      <trkpt lat="38.3913170" lon="-0.7489280">
        <ele>240.0</ele>
        <time>2018-10-14T10:23:08Z</time>
      </trkpt>
      <trkpt lat="38.3912800" lon="-0.7490320">
        <ele>240.0</ele>
        <time>2018-10-14T10:23:09Z</time>
      </trkpt>
      <trkpt lat="38.3912800" lon="-0.7490320">
        <ele>240.0</ele>
        <time>2018-10-14T10:23:10Z</time>
      </trkpt>
      <trkpt lat="38.3912480" lon="-0.7491370">
        <ele>238.0</ele>
        <time>2018-10-14T10:23:11Z</time>
      </trkpt>
      <trkpt lat="38.3912480" lon="-0.7491370">
        <ele>238.0</ele>
        <time>2018-10-14T10:23:12Z</time>
      </trkpt>
      <trkpt lat="38.3912170" lon="-0.7492380">
        <ele>238.0</ele>
        <time>2018-10-14T10:23:13Z</time>
      </trkpt>
      <trkpt lat="38.3912170" lon="-0.7492380">
        <ele>238.0</ele>
        <time>2018-10-14T10:23:14Z</time>
      </trkpt>
      <trkpt lat="38.3911880" lon="-0.7493400">
        <ele>238.0</ele>
        <time>2018-10-14T10:23:15Z</time>
      </trkpt>
      <trkpt lat="38.3911880" lon="-0.7493400">
        <ele>238.0</ele>
        <time>2018-10-14T10:23:16Z</time>
      </trkpt>
      <trkpt lat="38.3911770" lon="-0.7494420">
        <ele>238.0</ele>
        <time>2018-10-14T10:23:17Z</time>
      </trkpt>
      <trkpt lat="38.3911770" lon="-0.7494420">
        <ele>238.0</ele>
        <time>2018-10-14T10:23:18Z</time>
      </trkpt>
      <trkpt lat="38.3911830" lon="-0.7495380">
        <ele>238.0</ele>
        <time>2018-10-14T10:23:19Z</time>
      </trkpt>
      <trkpt lat="38.3911830" lon="-0.7495380">
        <ele>238.0</ele>
        <time>2018-10-14T10:23:20Z</time>
      </trkpt>
      <trkpt lat="38.3911820" lon="-0.7496400">
        <ele>238.0</ele>
        <time>2018-10-14T10:23:21Z</time>
      </trkpt>
      <trkpt lat="38.3911820" lon="-0.7496400">
        <ele>238.0</ele>
        <time>2018-10-14T10:23:22Z</time>
      </trkpt>
      <trkpt lat="38.3911630" lon="-0.7497350">
        <ele>238.0</ele>
        <time>2018-10-14T10:23:23Z</time>
      </trkpt>
      <trkpt lat="38.3911630" lon="-0.7497350">
        <ele>238.0</ele>
        <time>2018-10-14T10:23:24Z</time>
      </trkpt>
      <trkpt lat="38.3911280" lon="-0.7498170">
        <ele>238.0</ele>
        <time>2018-10-14T10:23:25Z</time>
      </trkpt>
      <trkpt lat="38.3911280" lon="-0.7498170">
        <ele>238.0</ele>
        <time>2018-10-14T10:23:26Z</time>
      </trkpt>
      <trkpt lat="38.3910730" lon="-0.7498820">
        <ele>238.0</ele>
        <time>2018-10-14T10:23:27Z</time>
      </trkpt>
      <trkpt lat="38.3910380" lon="-0.7499050">
        <ele>238.0</ele>
        <time>2018-10-14T10:23:28Z</time>
      </trkpt>
      <trkpt lat="38.3910380" lon="-0.7499050">
        <ele>238.0</ele>
        <time>2018-10-14T10:23:29Z</time>
      </trkpt>
      <trkpt lat="38.3909780" lon="-0.7499520">
        <ele>238.0</ele>
        <time>2018-10-14T10:23:30Z</time>
      </trkpt>
      <trkpt lat="38.3909580" lon="-0.7499800">
        <ele>238.0</ele>
        <time>2018-10-14T10:23:31Z</time>
      </trkpt>
      <trkpt lat="38.3909580" lon="-0.7499800">
        <ele>238.0</ele>
        <time>2018-10-14T10:23:32Z</time>
      </trkpt>
      <trkpt lat="38.3909330" lon="-0.7500500">
        <ele>238.0</ele>
        <time>2018-10-14T10:23:33Z</time>
      </trkpt>
      <trkpt lat="38.3909330" lon="-0.7500500">
        <ele>238.0</ele>
        <time>2018-10-14T10:23:34Z</time>
      </trkpt>
      <trkpt lat="38.3909230" lon="-0.7501200">
        <ele>238.0</ele>
        <time>2018-10-14T10:23:35Z</time>
      </trkpt>
      <trkpt lat="38.3909230" lon="-0.7501200">
        <ele>238.0</ele>
        <time>2018-10-14T10:23:36Z</time>
      </trkpt>
      <trkpt lat="38.3909080" lon="-0.7501670">
        <ele>238.0</ele>
        <time>2018-10-14T10:23:37Z</time>
      </trkpt>
      <trkpt lat="38.3909080" lon="-0.7501670">
        <ele>238.0</ele>
        <time>2018-10-14T10:23:38Z</time>
      </trkpt>
      <trkpt lat="38.3908870" lon="-0.7502120">
        <ele>238.0</ele>
        <time>2018-10-14T10:23:39Z</time>
      </trkpt>
      <trkpt lat="38.3908870" lon="-0.7502120">
        <ele>238.0</ele>
        <time>2018-10-14T10:23:40Z</time>
      </trkpt>
      <trkpt lat="38.3908630" lon="-0.7502620">
        <ele>238.0</ele>
        <time>2018-10-14T10:23:41Z</time>
      </trkpt>
      <trkpt lat="38.3908630" lon="-0.7502620">
        <ele>238.0</ele>
        <time>2018-10-14T10:23:42Z</time>
      </trkpt>
      <trkpt lat="38.3908380" lon="-0.7503150">
        <ele>238.0</ele>
        <time>2018-10-14T10:23:43Z</time>
      </trkpt>
      <trkpt lat="38.3908380" lon="-0.7503150">
        <ele>238.0</ele>
        <time>2018-10-14T10:23:44Z</time>
      </trkpt>
      <trkpt lat="38.3908150" lon="-0.7503750">
        <ele>238.0</ele>
        <time>2018-10-14T10:23:45Z</time>
      </trkpt>
      <trkpt lat="38.3908150" lon="-0.7503750">
        <ele>238.0</ele>
        <time>2018-10-14T10:23:46Z</time>
      </trkpt>
      <trkpt lat="38.3907880" lon="-0.7504300">
        <ele>238.0</ele>
        <time>2018-10-14T10:23:47Z</time>
      </trkpt>
      <trkpt lat="38.3907880" lon="-0.7504300">
        <ele>238.0</ele>
        <time>2018-10-14T10:23:48Z</time>
      </trkpt>
      <trkpt lat="38.3907670" lon="-0.7504750">
        <ele>238.0</ele>
        <time>2018-10-14T10:23:49Z</time>
      </trkpt>
      <trkpt lat="38.3907670" lon="-0.7504750">
        <ele>238.0</ele>
        <time>2018-10-14T10:23:50Z</time>
      </trkpt>
      <trkpt lat="38.3907430" lon="-0.7505070">
        <ele>238.0</ele>
        <time>2018-10-14T10:23:51Z</time>
      </trkpt>
      <trkpt lat="38.3907430" lon="-0.7505070">
        <ele>238.0</ele>
        <time>2018-10-14T10:23:52Z</time>
      </trkpt>
      <trkpt lat="38.3907420" lon="-0.7505120">
        <ele>238.0</ele>
        <time>2018-10-14T10:23:53Z</time>
      </trkpt>
      <trkpt lat="38.3907420" lon="-0.7505120">
        <ele>237.0</ele>
        <time>2018-10-14T10:24:27Z</time>
      </trkpt>
      <trkpt lat="38.3907470" lon="-0.7505200">
        <ele>237.0</ele>
        <time>2018-10-14T10:24:28Z</time>
      </trkpt>
      <trkpt lat="38.3907470" lon="-0.7505200">
        <ele>237.0</ele>
        <time>2018-10-14T10:24:29Z</time>
      </trkpt>
      <trkpt lat="38.3907470" lon="-0.7505220">
        <ele>237.0</ele>
        <time>2018-10-14T10:24:54Z</time>
      </trkpt>
      <trkpt lat="38.3906980" lon="-0.7505650">
        <ele>237.0</ele>
        <time>2018-10-14T10:24:55Z</time>
      </trkpt>
      <trkpt lat="38.3906980" lon="-0.7505650">
        <ele>237.0</ele>
        <time>2018-10-14T10:24:56Z</time>
      </trkpt>
      <trkpt lat="38.3906670" lon="-0.7506250">
        <ele>237.0</ele>
        <time>2018-10-14T10:24:57Z</time>
      </trkpt>
      <trkpt lat="38.3906500" lon="-0.7506620">
        <ele>237.0</ele>
        <time>2018-10-14T10:24:58Z</time>
      </trkpt>
      <trkpt lat="38.3906500" lon="-0.7506620">
        <ele>237.0</ele>
        <time>2018-10-14T10:24:59Z</time>
      </trkpt>
      <trkpt lat="38.3906070" lon="-0.7507450">
        <ele>237.0</ele>
        <time>2018-10-14T10:25:00Z</time>
      </trkpt>
      <trkpt lat="38.3905800" lon="-0.7507930">
        <ele>237.0</ele>
        <time>2018-10-14T10:25:01Z</time>
      </trkpt>
      <trkpt lat="38.3905800" lon="-0.7507930">
        <ele>237.0</ele>
        <time>2018-10-14T10:25:02Z</time>
      </trkpt>
      <trkpt lat="38.3905270" lon="-0.7509020">
        <ele>237.0</ele>
        <time>2018-10-14T10:25:03Z</time>
      </trkpt>
      <trkpt lat="38.3904980" lon="-0.7509570">
        <ele>237.0</ele>
        <time>2018-10-14T10:25:04Z</time>
      </trkpt>
      <trkpt lat="38.3904680" lon="-0.7510100">
        <ele>237.0</ele>
        <time>2018-10-14T10:25:05Z</time>
      </trkpt>
      <trkpt lat="38.3904680" lon="-0.7510100">
        <ele>237.0</ele>
        <time>2018-10-14T10:25:06Z</time>
      </trkpt>
      <trkpt lat="38.3904050" lon="-0.7511070">
        <ele>237.0</ele>
        <time>2018-10-14T10:25:07Z</time>
      </trkpt>
      <trkpt lat="38.3904050" lon="-0.7511070">
        <ele>237.0</ele>
        <time>2018-10-14T10:25:08Z</time>
      </trkpt>
      <trkpt lat="38.3903520" lon="-0.7512070">
        <ele>237.0</ele>
        <time>2018-10-14T10:25:09Z</time>
      </trkpt>
      <trkpt lat="38.3903520" lon="-0.7512070">
        <ele>237.0</ele>
        <time>2018-10-14T10:25:10Z</time>
      </trkpt>
      <trkpt lat="38.3903020" lon="-0.7513050">
        <ele>237.0</ele>
        <time>2018-10-14T10:25:11Z</time>
      </trkpt>
      <trkpt lat="38.3903020" lon="-0.7513050">
        <ele>237.0</ele>
        <time>2018-10-14T10:25:12Z</time>
      </trkpt>
      <trkpt lat="38.3902480" lon="-0.7513970">
        <ele>237.0</ele>
        <time>2018-10-14T10:25:13Z</time>
      </trkpt>
      <trkpt lat="38.3902480" lon="-0.7513970">
        <ele>237.0</ele>
        <time>2018-10-14T10:25:14Z</time>
      </trkpt>
      <trkpt lat="38.3901920" lon="-0.7514900">
        <ele>237.0</ele>
        <time>2018-10-14T10:25:15Z</time>
      </trkpt>
      <trkpt lat="38.3901920" lon="-0.7514900">
        <ele>237.0</ele>
        <time>2018-10-14T10:25:16Z</time>
      </trkpt>
      <trkpt lat="38.3901380" lon="-0.7515880">
        <ele>237.0</ele>
        <time>2018-10-14T10:25:17Z</time>
      </trkpt>
      <trkpt lat="38.3901380" lon="-0.7515880">
        <ele>237.0</ele>
        <time>2018-10-14T10:25:18Z</time>
      </trkpt>
      <trkpt lat="38.3900870" lon="-0.7516820">
        <ele>237.0</ele>
        <time>2018-10-14T10:25:19Z</time>
      </trkpt>
      <trkpt lat="38.3900870" lon="-0.7516820">
        <ele>237.0</ele>
        <time>2018-10-14T10:25:20Z</time>
      </trkpt>
      <trkpt lat="38.3900430" lon="-0.7517670">
        <ele>237.0</ele>
        <time>2018-10-14T10:25:21Z</time>
      </trkpt>
      <trkpt lat="38.3900430" lon="-0.7517670">
        <ele>237.0</ele>
        <time>2018-10-14T10:25:22Z</time>
      </trkpt>
      <trkpt lat="38.3900030" lon="-0.7518500">
        <ele>237.0</ele>
        <time>2018-10-14T10:25:23Z</time>
      </trkpt>
      <trkpt lat="38.3899830" lon="-0.7518980">
        <ele>237.0</ele>
        <time>2018-10-14T10:25:24Z</time>
      </trkpt>
      <trkpt lat="38.3899620" lon="-0.7519500">
        <ele>237.0</ele>
        <time>2018-10-14T10:25:25Z</time>
      </trkpt>
      <trkpt lat="38.3899620" lon="-0.7519500">
        <ele>237.0</ele>
        <time>2018-10-14T10:25:26Z</time>
      </trkpt>
      <trkpt lat="38.3899170" lon="-0.7520500">
        <ele>237.0</ele>
        <time>2018-10-14T10:25:27Z</time>
      </trkpt>
      <trkpt lat="38.3898920" lon="-0.7520980">
        <ele>237.0</ele>
        <time>2018-10-14T10:25:28Z</time>
      </trkpt>
      <trkpt lat="38.3898700" lon="-0.7521450">
        <ele>237.0</ele>
        <time>2018-10-14T10:25:29Z</time>
      </trkpt>
      <trkpt lat="38.3898700" lon="-0.7521450">
        <ele>237.0</ele>
        <time>2018-10-14T10:25:30Z</time>
      </trkpt>
      <trkpt lat="38.3898220" lon="-0.7522380">
        <ele>237.0</ele>
        <time>2018-10-14T10:25:31Z</time>
      </trkpt>
      <trkpt lat="38.3898220" lon="-0.7522380">
        <ele>237.0</ele>
        <time>2018-10-14T10:25:32Z</time>
      </trkpt>
      <trkpt lat="38.3897730" lon="-0.7523280">
        <ele>237.0</ele>
        <time>2018-10-14T10:25:33Z</time>
      </trkpt>
      <trkpt lat="38.3897520" lon="-0.7523770">
        <ele>237.0</ele>
        <time>2018-10-14T10:25:34Z</time>
      </trkpt>
      <trkpt lat="38.3897520" lon="-0.7523770">
        <ele>237.0</ele>
        <time>2018-10-14T10:25:35Z</time>
      </trkpt>
      <trkpt lat="38.3897050" lon="-0.7524670">
        <ele>237.0</ele>
        <time>2018-10-14T10:25:36Z</time>
      </trkpt>
      <trkpt lat="38.3896820" lon="-0.7525100">
        <ele>237.0</ele>
        <time>2018-10-14T10:25:37Z</time>
      </trkpt>
      <trkpt lat="38.3896820" lon="-0.7525100">
        <ele>237.0</ele>
        <time>2018-10-14T10:25:38Z</time>
      </trkpt>
      <trkpt lat="38.3896420" lon="-0.7526000">
        <ele>237.0</ele>
        <time>2018-10-14T10:25:39Z</time>
      </trkpt>
      <trkpt lat="38.3896420" lon="-0.7526000">
        <ele>237.0</ele>
        <time>2018-10-14T10:25:40Z</time>
      </trkpt>
      <trkpt lat="38.3896300" lon="-0.7527020">
        <ele>237.0</ele>
        <time>2018-10-14T10:25:41Z</time>
      </trkpt>
      <trkpt lat="38.3896300" lon="-0.7527020">
        <ele>237.0</ele>
        <time>2018-10-14T10:25:42Z</time>
      </trkpt>
      <trkpt lat="38.3896200" lon="-0.7528150">
        <ele>237.0</ele>
        <time>2018-10-14T10:25:43Z</time>
      </trkpt>
      <trkpt lat="38.3896200" lon="-0.7528150">
        <ele>237.0</ele>
        <time>2018-10-14T10:25:44Z</time>
      </trkpt>
      <trkpt lat="38.3895780" lon="-0.7529230">
        <ele>237.0</ele>
        <time>2018-10-14T10:25:45Z</time>
      </trkpt>
      <trkpt lat="38.3895780" lon="-0.7529230">
        <ele>237.0</ele>
        <time>2018-10-14T10:25:46Z</time>
      </trkpt>
      <trkpt lat="38.3895070" lon="-0.7529980">
        <ele>237.0</ele>
        <time>2018-10-14T10:25:47Z</time>
      </trkpt>
      <trkpt lat="38.3894630" lon="-0.7530270">
        <ele>237.0</ele>
        <time>2018-10-14T10:25:48Z</time>
      </trkpt>
      <trkpt lat="38.3894220" lon="-0.7530620">
        <ele>237.0</ele>
        <time>2018-10-14T10:25:49Z</time>
      </trkpt>
      <trkpt lat="38.3894220" lon="-0.7530620">
        <ele>237.0</ele>
        <time>2018-10-14T10:25:50Z</time>
      </trkpt>
      <trkpt lat="38.3893480" lon="-0.7531600">
        <ele>237.0</ele>
        <time>2018-10-14T10:25:51Z</time>
      </trkpt>
      <trkpt lat="38.3893480" lon="-0.7531600">
        <ele>237.0</ele>
        <time>2018-10-14T10:25:52Z</time>
      </trkpt>
      <trkpt lat="38.3892850" lon="-0.7532730">
        <ele>237.0</ele>
        <time>2018-10-14T10:25:53Z</time>
      </trkpt>
      <trkpt lat="38.3892850" lon="-0.7532730">
        <ele>237.0</ele>
        <time>2018-10-14T10:25:54Z</time>
      </trkpt>
      <trkpt lat="38.3892320" lon="-0.7533870">
        <ele>237.0</ele>
        <time>2018-10-14T10:25:55Z</time>
      </trkpt>
      <trkpt lat="38.3892320" lon="-0.7533870">
        <ele>237.0</ele>
        <time>2018-10-14T10:25:56Z</time>
      </trkpt>
      <trkpt lat="38.3891800" lon="-0.7534930">
        <ele>237.0</ele>
        <time>2018-10-14T10:25:57Z</time>
      </trkpt>
      <trkpt lat="38.3891800" lon="-0.7534930">
        <ele>237.0</ele>
        <time>2018-10-14T10:25:58Z</time>
      </trkpt>
      <trkpt lat="38.3891200" lon="-0.7535980">
        <ele>237.0</ele>
        <time>2018-10-14T10:25:59Z</time>
      </trkpt>
      <trkpt lat="38.3891200" lon="-0.7535980">
        <ele>237.0</ele>
        <time>2018-10-14T10:26:00Z</time>
      </trkpt>
      <trkpt lat="38.3890630" lon="-0.7537050">
        <ele>237.0</ele>
        <time>2018-10-14T10:26:01Z</time>
      </trkpt>
      <trkpt lat="38.3890630" lon="-0.7537050">
        <ele>237.0</ele>
        <time>2018-10-14T10:26:02Z</time>
      </trkpt>
      <trkpt lat="38.3890080" lon="-0.7538080">
        <ele>237.0</ele>
        <time>2018-10-14T10:26:03Z</time>
      </trkpt>
      <trkpt lat="38.3890080" lon="-0.7538080">
        <ele>237.0</ele>
        <time>2018-10-14T10:26:04Z</time>
      </trkpt>
      <trkpt lat="38.3889550" lon="-0.7539050">
        <ele>237.0</ele>
        <time>2018-10-14T10:26:05Z</time>
      </trkpt>
      <trkpt lat="38.3889300" lon="-0.7539520">
        <ele>237.0</ele>
        <time>2018-10-14T10:26:06Z</time>
      </trkpt>
      <trkpt lat="38.3889050" lon="-0.7539950">
        <ele>237.0</ele>
        <time>2018-10-14T10:26:07Z</time>
      </trkpt>
      <trkpt lat="38.3889050" lon="-0.7539950">
        <ele>238.0</ele>
        <time>2018-10-14T10:26:08Z</time>
      </trkpt>
      <trkpt lat="38.3888530" lon="-0.7540730">
        <ele>238.0</ele>
        <time>2018-10-14T10:26:09Z</time>
      </trkpt>
      <trkpt lat="38.3888530" lon="-0.7540730">
        <ele>238.0</ele>
        <time>2018-10-14T10:26:10Z</time>
      </trkpt>
      <trkpt lat="38.3888120" lon="-0.7541530">
        <ele>238.0</ele>
        <time>2018-10-14T10:26:11Z</time>
      </trkpt>
      <trkpt lat="38.3888120" lon="-0.7541530">
        <ele>238.0</ele>
        <time>2018-10-14T10:26:12Z</time>
      </trkpt>
      <trkpt lat="38.3887720" lon="-0.7542330">
        <ele>238.0</ele>
        <time>2018-10-14T10:26:13Z</time>
      </trkpt>
      <trkpt lat="38.3887720" lon="-0.7542330">
        <ele>238.0</ele>
        <time>2018-10-14T10:26:14Z</time>
      </trkpt>
      <trkpt lat="38.3887330" lon="-0.7543050">
        <ele>238.0</ele>
        <time>2018-10-14T10:26:15Z</time>
      </trkpt>
      <trkpt lat="38.3887330" lon="-0.7543050">
        <ele>238.0</ele>
        <time>2018-10-14T10:26:16Z</time>
      </trkpt>
      <trkpt lat="38.3886880" lon="-0.7543650">
        <ele>238.0</ele>
        <time>2018-10-14T10:26:17Z</time>
      </trkpt>
      <trkpt lat="38.3886580" lon="-0.7543900">
        <ele>238.0</ele>
        <time>2018-10-14T10:26:18Z</time>
      </trkpt>
      <trkpt lat="38.3886250" lon="-0.7544180">
        <ele>238.0</ele>
        <time>2018-10-14T10:26:19Z</time>
      </trkpt>
      <trkpt lat="38.3886250" lon="-0.7544180">
        <ele>238.0</ele>
        <time>2018-10-14T10:26:20Z</time>
      </trkpt>
      <trkpt lat="38.3885570" lon="-0.7545150">
        <ele>238.0</ele>
        <time>2018-10-14T10:26:21Z</time>
      </trkpt>
      <trkpt lat="38.3885570" lon="-0.7545150">
        <ele>238.0</ele>
        <time>2018-10-14T10:26:22Z</time>
      </trkpt>
      <trkpt lat="38.3884980" lon="-0.7546270">
        <ele>238.0</ele>
        <time>2018-10-14T10:26:23Z</time>
      </trkpt>
      <trkpt lat="38.3884980" lon="-0.7546270">
        <ele>238.0</ele>
        <time>2018-10-14T10:26:24Z</time>
      </trkpt>
      <trkpt lat="38.3884420" lon="-0.7547250">
        <ele>238.0</ele>
        <time>2018-10-14T10:26:25Z</time>
      </trkpt>
      <trkpt lat="38.3884420" lon="-0.7547250">
        <ele>238.0</ele>
        <time>2018-10-14T10:26:26Z</time>
      </trkpt>
      <trkpt lat="38.3883970" lon="-0.7548220">
        <ele>238.0</ele>
        <time>2018-10-14T10:26:27Z</time>
      </trkpt>
      <trkpt lat="38.3883700" lon="-0.7548720">
        <ele>238.0</ele>
        <time>2018-10-14T10:26:28Z</time>
      </trkpt>
      <trkpt lat="38.3883700" lon="-0.7548720">
        <ele>238.0</ele>
        <time>2018-10-14T10:26:29Z</time>
      </trkpt>
      <trkpt lat="38.3883150" lon="-0.7549700">
        <ele>238.0</ele>
        <time>2018-10-14T10:26:30Z</time>
      </trkpt>
      <trkpt lat="38.3882880" lon="-0.7550180">
        <ele>238.0</ele>
        <time>2018-10-14T10:26:31Z</time>
      </trkpt>
      <trkpt lat="38.3882880" lon="-0.7550180">
        <ele>238.0</ele>
        <time>2018-10-14T10:26:32Z</time>
      </trkpt>
      <trkpt lat="38.3882370" lon="-0.7551180">
        <ele>238.0</ele>
        <time>2018-10-14T10:26:33Z</time>
      </trkpt>
      <trkpt lat="38.3882370" lon="-0.7551180">
        <ele>238.0</ele>
        <time>2018-10-14T10:26:34Z</time>
      </trkpt>
      <trkpt lat="38.3881920" lon="-0.7552200">
        <ele>238.0</ele>
        <time>2018-10-14T10:26:35Z</time>
      </trkpt>
      <trkpt lat="38.3881920" lon="-0.7552200">
        <ele>238.0</ele>
        <time>2018-10-14T10:26:36Z</time>
      </trkpt>
      <trkpt lat="38.3881600" lon="-0.7553270">
        <ele>238.0</ele>
        <time>2018-10-14T10:26:37Z</time>
      </trkpt>
      <trkpt lat="38.3881600" lon="-0.7553270">
        <ele>238.0</ele>
        <time>2018-10-14T10:26:38Z</time>
      </trkpt>
      <trkpt lat="38.3881250" lon="-0.7554320">
        <ele>238.0</ele>
        <time>2018-10-14T10:26:39Z</time>
      </trkpt>
      <trkpt lat="38.3881250" lon="-0.7554320">
        <ele>238.0</ele>
        <time>2018-10-14T10:26:40Z</time>
      </trkpt>
      <trkpt lat="38.3880900" lon="-0.7555420">
        <ele>238.0</ele>
        <time>2018-10-14T10:26:41Z</time>
      </trkpt>
      <trkpt lat="38.3880900" lon="-0.7555420">
        <ele>238.0</ele>
        <time>2018-10-14T10:26:42Z</time>
      </trkpt>
      <trkpt lat="38.3880630" lon="-0.7556480">
        <ele>238.0</ele>
        <time>2018-10-14T10:26:43Z</time>
      </trkpt>
      <trkpt lat="38.3880630" lon="-0.7556480">
        <ele>238.0</ele>
        <time>2018-10-14T10:26:44Z</time>
      </trkpt>
      <trkpt lat="38.3880470" lon="-0.7557620">
        <ele>238.0</ele>
        <time>2018-10-14T10:26:45Z</time>
      </trkpt>
      <trkpt lat="38.3880470" lon="-0.7557620">
        <ele>238.0</ele>
        <time>2018-10-14T10:26:46Z</time>
      </trkpt>
      <trkpt lat="38.3880620" lon="-0.7558830">
        <ele>238.0</ele>
        <time>2018-10-14T10:26:47Z</time>
      </trkpt>
      <trkpt lat="38.3880620" lon="-0.7558830">
        <ele>238.0</ele>
        <time>2018-10-14T10:26:48Z</time>
      </trkpt>
      <trkpt lat="38.3880620" lon="-0.7560120">
        <ele>238.0</ele>
        <time>2018-10-14T10:26:49Z</time>
      </trkpt>
      <trkpt lat="38.3880620" lon="-0.7560120">
        <ele>238.0</ele>
        <time>2018-10-14T10:26:50Z</time>
      </trkpt>
      <trkpt lat="38.3880330" lon="-0.7561300">
        <ele>238.0</ele>
        <time>2018-10-14T10:26:51Z</time>
      </trkpt>
      <trkpt lat="38.3880330" lon="-0.7561300">
        <ele>238.0</ele>
        <time>2018-10-14T10:26:52Z</time>
      </trkpt>
      <trkpt lat="38.3879820" lon="-0.7562280">
        <ele>238.0</ele>
        <time>2018-10-14T10:26:53Z</time>
      </trkpt>
      <trkpt lat="38.3879820" lon="-0.7562280">
        <ele>238.0</ele>
        <time>2018-10-14T10:26:54Z</time>
      </trkpt>
      <trkpt lat="38.3879050" lon="-0.7563030">
        <ele>238.0</ele>
        <time>2018-10-14T10:26:55Z</time>
      </trkpt>
      <trkpt lat="38.3879050" lon="-0.7563030">
        <ele>238.0</ele>
        <time>2018-10-14T10:26:56Z</time>
      </trkpt>
      <trkpt lat="38.3878170" lon="-0.7563500">
        <ele>238.0</ele>
        <time>2018-10-14T10:26:57Z</time>
      </trkpt>
      <trkpt lat="38.3878170" lon="-0.7563500">
        <ele>238.0</ele>
        <time>2018-10-14T10:26:58Z</time>
      </trkpt>
      <trkpt lat="38.3877180" lon="-0.7563630">
        <ele>238.0</ele>
        <time>2018-10-14T10:26:59Z</time>
      </trkpt>
      <trkpt lat="38.3877180" lon="-0.7563630">
        <ele>238.0</ele>
        <time>2018-10-14T10:27:00Z</time>
      </trkpt>
      <trkpt lat="38.3876170" lon="-0.7563950">
        <ele>238.0</ele>
        <time>2018-10-14T10:27:01Z</time>
      </trkpt>
      <trkpt lat="38.3876170" lon="-0.7563950">
        <ele>238.0</ele>
        <time>2018-10-14T10:27:02Z</time>
      </trkpt>
      <trkpt lat="38.3875280" lon="-0.7564770">
        <ele>238.0</ele>
        <time>2018-10-14T10:27:03Z</time>
      </trkpt>
      <trkpt lat="38.3875280" lon="-0.7564770">
        <ele>238.0</ele>
        <time>2018-10-14T10:27:04Z</time>
      </trkpt>
      <trkpt lat="38.3874580" lon="-0.7565850">
        <ele>238.0</ele>
        <time>2018-10-14T10:27:05Z</time>
      </trkpt>
      <trkpt lat="38.3874580" lon="-0.7565850">
        <ele>238.0</ele>
        <time>2018-10-14T10:27:06Z</time>
      </trkpt>
      <trkpt lat="38.3873970" lon="-0.7566980">
        <ele>238.0</ele>
        <time>2018-10-14T10:27:07Z</time>
      </trkpt>
      <trkpt lat="38.3873970" lon="-0.7566980">
        <ele>238.0</ele>
        <time>2018-10-14T10:27:08Z</time>
      </trkpt>
      <trkpt lat="38.3873420" lon="-0.7568080">
        <ele>238.0</ele>
        <time>2018-10-14T10:27:09Z</time>
      </trkpt>
      <trkpt lat="38.3873420" lon="-0.7568080">
        <ele>238.0</ele>
        <time>2018-10-14T10:27:10Z</time>
      </trkpt>
      <trkpt lat="38.3872880" lon="-0.7569180">
        <ele>238.0</ele>
        <time>2018-10-14T10:27:11Z</time>
      </trkpt>
      <trkpt lat="38.3872880" lon="-0.7569180">
        <ele>238.0</ele>
        <time>2018-10-14T10:27:12Z</time>
      </trkpt>
      <trkpt lat="38.3872330" lon="-0.7570270">
        <ele>238.0</ele>
        <time>2018-10-14T10:27:13Z</time>
      </trkpt>
      <trkpt lat="38.3872330" lon="-0.7570270">
        <ele>238.0</ele>
        <time>2018-10-14T10:27:14Z</time>
      </trkpt>
      <trkpt lat="38.3871780" lon="-0.7571380">
        <ele>238.0</ele>
        <time>2018-10-14T10:27:15Z</time>
      </trkpt>
      <trkpt lat="38.3871780" lon="-0.7571380">
        <ele>238.0</ele>
        <time>2018-10-14T10:27:16Z</time>
      </trkpt>
      <trkpt lat="38.3871180" lon="-0.7572530">
        <ele>238.0</ele>
        <time>2018-10-14T10:27:17Z</time>
      </trkpt>
      <trkpt lat="38.3870880" lon="-0.7573150">
        <ele>238.0</ele>
        <time>2018-10-14T10:27:18Z</time>
      </trkpt>
      <trkpt lat="38.3870580" lon="-0.7573720">
        <ele>238.0</ele>
        <time>2018-10-14T10:27:19Z</time>
      </trkpt>
      <trkpt lat="38.3870580" lon="-0.7573720">
        <ele>238.0</ele>
        <time>2018-10-14T10:27:20Z</time>
      </trkpt>
      <trkpt lat="38.3870020" lon="-0.7574900">
        <ele>238.0</ele>
        <time>2018-10-14T10:27:21Z</time>
      </trkpt>
      <trkpt lat="38.3870020" lon="-0.7574900">
        <ele>238.0</ele>
        <time>2018-10-14T10:27:22Z</time>
      </trkpt>
      <trkpt lat="38.3869450" lon="-0.7576100">
        <ele>238.0</ele>
        <time>2018-10-14T10:27:23Z</time>
      </trkpt>
      <trkpt lat="38.3869450" lon="-0.7576100">
        <ele>238.0</ele>
        <time>2018-10-14T10:27:24Z</time>
      </trkpt>
      <trkpt lat="38.3868920" lon="-0.7577320">
        <ele>238.0</ele>
        <time>2018-10-14T10:27:25Z</time>
      </trkpt>
      <trkpt lat="38.3868920" lon="-0.7577320">
        <ele>238.0</ele>
        <time>2018-10-14T10:27:26Z</time>
      </trkpt>
      <trkpt lat="38.3868450" lon="-0.7578500">
        <ele>238.0</ele>
        <time>2018-10-14T10:27:27Z</time>
      </trkpt>
      <trkpt lat="38.3868450" lon="-0.7578500">
        <ele>238.0</ele>
        <time>2018-10-14T10:27:28Z</time>
      </trkpt>
      <trkpt lat="38.3868070" lon="-0.7579550">
        <ele>238.0</ele>
        <time>2018-10-14T10:27:29Z</time>
      </trkpt>
      <trkpt lat="38.3868070" lon="-0.7579550">
        <ele>238.0</ele>
        <time>2018-10-14T10:27:30Z</time>
      </trkpt>
      <trkpt lat="38.3867830" lon="-0.7580570">
        <ele>238.0</ele>
        <time>2018-10-14T10:27:31Z</time>
      </trkpt>
      <trkpt lat="38.3867830" lon="-0.7580570">
        <ele>238.0</ele>
        <time>2018-10-14T10:27:32Z</time>
      </trkpt>
      <trkpt lat="38.3867700" lon="-0.7581620">
        <ele>238.0</ele>
        <time>2018-10-14T10:27:33Z</time>
      </trkpt>
      <trkpt lat="38.3867700" lon="-0.7581620">
        <ele>238.0</ele>
        <time>2018-10-14T10:27:34Z</time>
      </trkpt>
      <trkpt lat="38.3867470" lon="-0.7582630">
        <ele>238.0</ele>
        <time>2018-10-14T10:27:35Z</time>
      </trkpt>
      <trkpt lat="38.3867470" lon="-0.7582630">
        <ele>238.0</ele>
        <time>2018-10-14T10:27:36Z</time>
      </trkpt>
      <trkpt lat="38.3867130" lon="-0.7583700">
        <ele>238.0</ele>
        <time>2018-10-14T10:27:37Z</time>
      </trkpt>
      <trkpt lat="38.3867130" lon="-0.7583700">
        <ele>238.0</ele>
        <time>2018-10-14T10:27:38Z</time>
      </trkpt>
      <trkpt lat="38.3866930" lon="-0.7584880">
        <ele>238.0</ele>
        <time>2018-10-14T10:27:39Z</time>
      </trkpt>
      <trkpt lat="38.3866930" lon="-0.7584880">
        <ele>238.0</ele>
        <time>2018-10-14T10:27:40Z</time>
      </trkpt>
      <trkpt lat="38.3866680" lon="-0.7586150">
        <ele>238.0</ele>
        <time>2018-10-14T10:27:41Z</time>
      </trkpt>
      <trkpt lat="38.3866680" lon="-0.7586150">
        <ele>238.0</ele>
        <time>2018-10-14T10:27:42Z</time>
      </trkpt>
      <trkpt lat="38.3866370" lon="-0.7587450">
        <ele>238.0</ele>
        <time>2018-10-14T10:27:43Z</time>
      </trkpt>
      <trkpt lat="38.3866370" lon="-0.7587450">
        <ele>238.0</ele>
        <time>2018-10-14T10:27:44Z</time>
      </trkpt>
      <trkpt lat="38.3866120" lon="-0.7588700">
        <ele>238.0</ele>
        <time>2018-10-14T10:27:45Z</time>
      </trkpt>
      <trkpt lat="38.3866120" lon="-0.7588700">
        <ele>238.0</ele>
        <time>2018-10-14T10:27:46Z</time>
      </trkpt>
      <trkpt lat="38.3865870" lon="-0.7589930">
        <ele>239.0</ele>
        <time>2018-10-14T10:27:47Z</time>
      </trkpt>
      <trkpt lat="38.3865870" lon="-0.7589930">
        <ele>239.0</ele>
        <time>2018-10-14T10:27:48Z</time>
      </trkpt>
      <trkpt lat="38.3865620" lon="-0.7591170">
        <ele>239.0</ele>
        <time>2018-10-14T10:27:49Z</time>
      </trkpt>
      <trkpt lat="38.3865620" lon="-0.7591170">
        <ele>239.0</ele>
        <time>2018-10-14T10:27:50Z</time>
      </trkpt>
      <trkpt lat="38.3865380" lon="-0.7592470">
        <ele>239.0</ele>
        <time>2018-10-14T10:27:51Z</time>
      </trkpt>
      <trkpt lat="38.3865380" lon="-0.7592470">
        <ele>239.0</ele>
        <time>2018-10-14T10:27:52Z</time>
      </trkpt>
      <trkpt lat="38.3865180" lon="-0.7593670">
        <ele>239.0</ele>
        <time>2018-10-14T10:27:53Z</time>
      </trkpt>
      <trkpt lat="38.3865180" lon="-0.7593670">
        <ele>239.0</ele>
        <time>2018-10-14T10:27:54Z</time>
      </trkpt>
      <trkpt lat="38.3864980" lon="-0.7594830">
        <ele>240.0</ele>
        <time>2018-10-14T10:27:55Z</time>
      </trkpt>
      <trkpt lat="38.3864980" lon="-0.7594830">
        <ele>240.0</ele>
        <time>2018-10-14T10:27:56Z</time>
      </trkpt>
      <trkpt lat="38.3864830" lon="-0.7595930">
        <ele>240.0</ele>
        <time>2018-10-14T10:27:57Z</time>
      </trkpt>
      <trkpt lat="38.3864830" lon="-0.7595930">
        <ele>240.0</ele>
        <time>2018-10-14T10:27:58Z</time>
      </trkpt>
      <trkpt lat="38.3864630" lon="-0.7597050">
        <ele>240.0</ele>
        <time>2018-10-14T10:27:59Z</time>
      </trkpt>
      <trkpt lat="38.3864630" lon="-0.7597050">
        <ele>240.0</ele>
        <time>2018-10-14T10:28:00Z</time>
      </trkpt>
      <trkpt lat="38.3864370" lon="-0.7598230">
        <ele>240.0</ele>
        <time>2018-10-14T10:28:01Z</time>
      </trkpt>
      <trkpt lat="38.3864370" lon="-0.7598230">
        <ele>240.0</ele>
        <time>2018-10-14T10:28:02Z</time>
      </trkpt>
      <trkpt lat="38.3864120" lon="-0.7599420">
        <ele>240.0</ele>
        <time>2018-10-14T10:28:03Z</time>
      </trkpt>
      <trkpt lat="38.3864120" lon="-0.7599420">
        <ele>240.0</ele>
        <time>2018-10-14T10:28:04Z</time>
      </trkpt>
      <trkpt lat="38.3863880" lon="-0.7600480">
        <ele>240.0</ele>
        <time>2018-10-14T10:28:05Z</time>
      </trkpt>
      <trkpt lat="38.3863880" lon="-0.7600480">
        <ele>240.0</ele>
        <time>2018-10-14T10:28:06Z</time>
      </trkpt>
      <trkpt lat="38.3863680" lon="-0.7601600">
        <ele>240.0</ele>
        <time>2018-10-14T10:28:07Z</time>
      </trkpt>
      <trkpt lat="38.3863680" lon="-0.7601600">
        <ele>240.0</ele>
        <time>2018-10-14T10:28:08Z</time>
      </trkpt>
      <trkpt lat="38.3863580" lon="-0.7602820">
        <ele>241.0</ele>
        <time>2018-10-14T10:28:09Z</time>
      </trkpt>
      <trkpt lat="38.3863580" lon="-0.7602820">
        <ele>241.0</ele>
        <time>2018-10-14T10:28:10Z</time>
      </trkpt>
      <trkpt lat="38.3863330" lon="-0.7603900">
        <ele>241.0</ele>
        <time>2018-10-14T10:28:11Z</time>
      </trkpt>
      <trkpt lat="38.3863330" lon="-0.7603900">
        <ele>241.0</ele>
        <time>2018-10-14T10:28:12Z</time>
      </trkpt>
      <trkpt lat="38.3863100" lon="-0.7604900">
        <ele>241.0</ele>
        <time>2018-10-14T10:28:13Z</time>
      </trkpt>
      <trkpt lat="38.3863100" lon="-0.7604900">
        <ele>241.0</ele>
        <time>2018-10-14T10:28:14Z</time>
      </trkpt>
      <trkpt lat="38.3862850" lon="-0.7605830">
        <ele>241.0</ele>
        <time>2018-10-14T10:28:15Z</time>
      </trkpt>
      <trkpt lat="38.3862850" lon="-0.7605830">
        <ele>241.0</ele>
        <time>2018-10-14T10:28:16Z</time>
      </trkpt>
      <trkpt lat="38.3862650" lon="-0.7606930">
        <ele>241.0</ele>
        <time>2018-10-14T10:28:17Z</time>
      </trkpt>
      <trkpt lat="38.3862570" lon="-0.7607500">
        <ele>241.0</ele>
        <time>2018-10-14T10:28:18Z</time>
      </trkpt>
      <trkpt lat="38.3862570" lon="-0.7607500">
        <ele>241.0</ele>
        <time>2018-10-14T10:28:19Z</time>
      </trkpt>
      <trkpt lat="38.3862400" lon="-0.7608570">
        <ele>241.0</ele>
        <time>2018-10-14T10:28:20Z</time>
      </trkpt>
      <trkpt lat="38.3862320" lon="-0.7609070">
        <ele>241.0</ele>
        <time>2018-10-14T10:28:21Z</time>
      </trkpt>
      <trkpt lat="38.3862320" lon="-0.7609070">
        <ele>241.0</ele>
        <time>2018-10-14T10:28:22Z</time>
      </trkpt>
      <trkpt lat="38.3862130" lon="-0.7610030">
        <ele>241.0</ele>
        <time>2018-10-14T10:28:23Z</time>
      </trkpt>
      <trkpt lat="38.3862050" lon="-0.7610500">
        <ele>241.0</ele>
        <time>2018-10-14T10:28:24Z</time>
      </trkpt>
      <trkpt lat="38.3862050" lon="-0.7610500">
        <ele>241.0</ele>
        <time>2018-10-14T10:28:25Z</time>
      </trkpt>
      <trkpt lat="38.3861870" lon="-0.7611420">
        <ele>241.0</ele>
        <time>2018-10-14T10:28:26Z</time>
      </trkpt>
      <trkpt lat="38.3861770" lon="-0.7611870">
        <ele>241.0</ele>
        <time>2018-10-14T10:28:27Z</time>
      </trkpt>
      <trkpt lat="38.3861770" lon="-0.7611870">
        <ele>241.0</ele>
        <time>2018-10-14T10:28:28Z</time>
      </trkpt>
      <trkpt lat="38.3861520" lon="-0.7612770">
        <ele>241.0</ele>
        <time>2018-10-14T10:28:29Z</time>
      </trkpt>
      <trkpt lat="38.3861520" lon="-0.7612770">
        <ele>241.0</ele>
        <time>2018-10-14T10:28:30Z</time>
      </trkpt>
      <trkpt lat="38.3861320" lon="-0.7613530">
        <ele>241.0</ele>
        <time>2018-10-14T10:28:31Z</time>
      </trkpt>
      <trkpt lat="38.3861320" lon="-0.7613530">
        <ele>241.0</ele>
        <time>2018-10-14T10:28:32Z</time>
      </trkpt>
      <trkpt lat="38.3861220" lon="-0.7614230">
        <ele>241.0</ele>
        <time>2018-10-14T10:28:33Z</time>
      </trkpt>
      <trkpt lat="38.3861220" lon="-0.7614230">
        <ele>241.0</ele>
        <time>2018-10-14T10:28:34Z</time>
      </trkpt>
      <trkpt lat="38.3861120" lon="-0.7614920">
        <ele>241.0</ele>
        <time>2018-10-14T10:28:35Z</time>
      </trkpt>
      <trkpt lat="38.3861020" lon="-0.7615220">
        <ele>241.0</ele>
        <time>2018-10-14T10:28:36Z</time>
      </trkpt>
      <trkpt lat="38.3861020" lon="-0.7615220">
        <ele>241.0</ele>
        <time>2018-10-14T10:28:37Z</time>
      </trkpt>
      <trkpt lat="38.3860900" lon="-0.7615720">
        <ele>241.0</ele>
        <time>2018-10-14T10:28:38Z</time>
      </trkpt>
      <trkpt lat="38.3860850" lon="-0.7615930">
        <ele>241.0</ele>
        <time>2018-10-14T10:28:39Z</time>
      </trkpt>
      <trkpt lat="38.3860850" lon="-0.7615930">
        <ele>241.0</ele>
        <time>2018-10-14T10:28:40Z</time>
      </trkpt>
      <trkpt lat="38.3860830" lon="-0.7616250">
        <ele>241.0</ele>
        <time>2018-10-14T10:28:41Z</time>
      </trkpt>
      <trkpt lat="38.3860830" lon="-0.7616250">
        <ele>241.0</ele>
        <time>2018-10-14T10:28:42Z</time>
      </trkpt>
      <trkpt lat="38.3860820" lon="-0.7616670">
        <ele>241.0</ele>
        <time>2018-10-14T10:28:43Z</time>
      </trkpt>
      <trkpt lat="38.3860820" lon="-0.7616670">
        <ele>241.0</ele>
        <time>2018-10-14T10:28:44Z</time>
      </trkpt>
      <trkpt lat="38.3860800" lon="-0.7617050">
        <ele>241.0</ele>
        <time>2018-10-14T10:28:45Z</time>
      </trkpt>
      <trkpt lat="38.3860800" lon="-0.7617050">
        <ele>241.0</ele>
        <time>2018-10-14T10:28:46Z</time>
      </trkpt>
      <trkpt lat="38.3860770" lon="-0.7617500">
        <ele>241.0</ele>
        <time>2018-10-14T10:28:47Z</time>
      </trkpt>
      <trkpt lat="38.3860770" lon="-0.7617700">
        <ele>241.0</ele>
        <time>2018-10-14T10:28:48Z</time>
      </trkpt>
      <trkpt lat="38.3860780" lon="-0.7617920">
        <ele>241.0</ele>
        <time>2018-10-14T10:28:49Z</time>
      </trkpt>
      <trkpt lat="38.3860780" lon="-0.7617920">
        <ele>241.0</ele>
        <time>2018-10-14T10:28:50Z</time>
      </trkpt>
      <trkpt lat="38.3860730" lon="-0.7618320">
        <ele>241.0</ele>
        <time>2018-10-14T10:28:51Z</time>
      </trkpt>
      <trkpt lat="38.3860730" lon="-0.7618320">
        <ele>241.0</ele>
        <time>2018-10-14T10:28:52Z</time>
      </trkpt>
      <trkpt lat="38.3860700" lon="-0.7618720">
        <ele>241.0</ele>
        <time>2018-10-14T10:28:53Z</time>
      </trkpt>
      <trkpt lat="38.3860700" lon="-0.7618720">
        <ele>241.0</ele>
        <time>2018-10-14T10:28:54Z</time>
      </trkpt>
      <trkpt lat="38.3860700" lon="-0.7619070">
        <ele>241.0</ele>
        <time>2018-10-14T10:28:55Z</time>
      </trkpt>
      <trkpt lat="38.3860720" lon="-0.7619200">
        <ele>241.0</ele>
        <time>2018-10-14T10:28:56Z</time>
      </trkpt>
      <trkpt lat="38.3860720" lon="-0.7619200">
        <ele>241.0</ele>
        <time>2018-10-14T10:28:57Z</time>
      </trkpt>
      <trkpt lat="38.3860800" lon="-0.7619350">
        <ele>241.0</ele>
        <time>2018-10-14T10:28:58Z</time>
      </trkpt>
      <trkpt lat="38.3860800" lon="-0.7619350">
        <ele>241.0</ele>
        <time>2018-10-14T10:28:59Z</time>
      </trkpt>
      <trkpt lat="38.3860870" lon="-0.7619320">
        <ele>241.0</ele>
        <time>2018-10-14T10:29:09Z</time>
      </trkpt>
      <trkpt lat="38.3860870" lon="-0.7619320">
        <ele>240.0</ele>
        <time>2018-10-14T10:29:10Z</time>
      </trkpt>
      <trkpt lat="38.3860870" lon="-0.7619320">
        <ele>240.0</ele>
        <time>2018-10-14T10:29:11Z</time>
      </trkpt>
      <trkpt lat="38.3860870" lon="-0.7619320">
        <ele>240.0</ele>
        <time>2018-10-14T10:29:12Z</time>
      </trkpt>
      <trkpt lat="38.3860870" lon="-0.7619320">
        <ele>241.0</ele>
        <time>2018-10-14T10:29:13Z</time>
      </trkpt>
      <trkpt lat="38.3860870" lon="-0.7619320">
        <ele>241.0</ele>
        <time>2018-10-14T10:29:14Z</time>
      </trkpt>
      <trkpt lat="38.3860870" lon="-0.7619320">
        <ele>241.0</ele>
        <time>2018-10-14T10:29:15Z</time>
      </trkpt>
      <trkpt lat="38.3860870" lon="-0.7619320">
        <ele>241.0</ele>
        <time>2018-10-14T10:29:16Z</time>
      </trkpt>
      <trkpt lat="38.3860870" lon="-0.7619320">
        <ele>241.0</ele>
        <time>2018-10-14T10:29:17Z</time>
      </trkpt>
      <trkpt lat="38.3860870" lon="-0.7619320">
        <ele>241.0</ele>
        <time>2018-10-14T10:29:18Z</time>
      </trkpt>
      <trkpt lat="38.3860870" lon="-0.7619320">
        <ele>241.0</ele>
        <time>2018-10-14T10:29:19Z</time>
      </trkpt>
      <trkpt lat="38.3860870" lon="-0.7619320">
        <ele>241.0</ele>
        <time>2018-10-14T10:29:20Z</time>
      </trkpt>
      <trkpt lat="38.3860870" lon="-0.7619320">
        <ele>241.0</ele>
        <time>2018-10-14T10:29:21Z</time>
      </trkpt>
      <trkpt lat="38.3860870" lon="-0.7619320">
        <ele>241.0</ele>
        <time>2018-10-14T10:29:22Z</time>
      </trkpt>
      <trkpt lat="38.3860870" lon="-0.7619320">
        <ele>241.0</ele>
        <time>2018-10-14T10:29:23Z</time>
      </trkpt>
      <trkpt lat="38.3860870" lon="-0.7619320">
        <ele>241.0</ele>
        <time>2018-10-14T10:29:24Z</time>
      </trkpt>
      <trkpt lat="38.3860870" lon="-0.7619320">
        <ele>242.0</ele>
        <time>2018-10-14T10:29:25Z</time>
      </trkpt>
      <trkpt lat="38.3860870" lon="-0.7619320">
        <ele>242.0</ele>
        <time>2018-10-14T10:29:26Z</time>
      </trkpt>
      <trkpt lat="38.3860880" lon="-0.7619550">
        <ele>242.0</ele>
        <time>2018-10-14T10:29:27Z</time>
      </trkpt>
      <trkpt lat="38.3860880" lon="-0.7619550">
        <ele>242.0</ele>
        <time>2018-10-14T10:29:28Z</time>
      </trkpt>
      <trkpt lat="38.3860900" lon="-0.7620170">
        <ele>242.0</ele>
        <time>2018-10-14T10:29:29Z</time>
      </trkpt>
      <trkpt lat="38.3860900" lon="-0.7620170">
        <ele>242.0</ele>
        <time>2018-10-14T10:29:30Z</time>
      </trkpt>
      <trkpt lat="38.3860650" lon="-0.7621150">
        <ele>242.0</ele>
        <time>2018-10-14T10:29:31Z</time>
      </trkpt>
      <trkpt lat="38.3860520" lon="-0.7621670">
        <ele>242.0</ele>
        <time>2018-10-14T10:29:32Z</time>
      </trkpt>
      <trkpt lat="38.3860520" lon="-0.7621670">
        <ele>242.0</ele>
        <time>2018-10-14T10:29:33Z</time>
      </trkpt>
      <trkpt lat="38.3860230" lon="-0.7622750">
        <ele>242.0</ele>
        <time>2018-10-14T10:29:34Z</time>
      </trkpt>
      <trkpt lat="38.3860230" lon="-0.7622750">
        <ele>242.0</ele>
        <time>2018-10-14T10:29:35Z</time>
      </trkpt>
      <trkpt lat="38.3859770" lon="-0.7623980">
        <ele>242.0</ele>
        <time>2018-10-14T10:29:36Z</time>
      </trkpt>
      <trkpt lat="38.3859530" lon="-0.7624620">
        <ele>242.0</ele>
        <time>2018-10-14T10:29:37Z</time>
      </trkpt>
      <trkpt lat="38.3859530" lon="-0.7624620">
        <ele>242.0</ele>
        <time>2018-10-14T10:29:38Z</time>
      </trkpt>
      <trkpt lat="38.3859150" lon="-0.7625950">
        <ele>242.0</ele>
        <time>2018-10-14T10:29:39Z</time>
      </trkpt>
      <trkpt lat="38.3859150" lon="-0.7625950">
        <ele>242.0</ele>
        <time>2018-10-14T10:29:40Z</time>
      </trkpt>
      <trkpt lat="38.3858730" lon="-0.7627230">
        <ele>242.0</ele>
        <time>2018-10-14T10:29:41Z</time>
      </trkpt>
      <trkpt lat="38.3858730" lon="-0.7627230">
        <ele>242.0</ele>
        <time>2018-10-14T10:29:42Z</time>
      </trkpt>
      <trkpt lat="38.3858520" lon="-0.7628480">
        <ele>242.0</ele>
        <time>2018-10-14T10:29:43Z</time>
      </trkpt>
      <trkpt lat="38.3858520" lon="-0.7628480">
        <ele>242.0</ele>
        <time>2018-10-14T10:29:44Z</time>
      </trkpt>
      <trkpt lat="38.3858220" lon="-0.7629720">
        <ele>242.0</ele>
        <time>2018-10-14T10:29:45Z</time>
      </trkpt>
      <trkpt lat="38.3858220" lon="-0.7629720">
        <ele>242.0</ele>
        <time>2018-10-14T10:29:46Z</time>
      </trkpt>
      <trkpt lat="38.3857950" lon="-0.7630970">
        <ele>242.0</ele>
        <time>2018-10-14T10:29:47Z</time>
      </trkpt>
      <trkpt lat="38.3857950" lon="-0.7630970">
        <ele>242.0</ele>
        <time>2018-10-14T10:29:48Z</time>
      </trkpt>
      <trkpt lat="38.3857750" lon="-0.7632170">
        <ele>242.0</ele>
        <time>2018-10-14T10:29:49Z</time>
      </trkpt>
      <trkpt lat="38.3857750" lon="-0.7632170">
        <ele>242.0</ele>
        <time>2018-10-14T10:29:50Z</time>
      </trkpt>
      <trkpt lat="38.3857550" lon="-0.7633300">
        <ele>242.0</ele>
        <time>2018-10-14T10:29:51Z</time>
      </trkpt>
      <trkpt lat="38.3857550" lon="-0.7633300">
        <ele>242.0</ele>
        <time>2018-10-14T10:29:52Z</time>
      </trkpt>
      <trkpt lat="38.3857330" lon="-0.7634450">
        <ele>242.0</ele>
        <time>2018-10-14T10:29:53Z</time>
      </trkpt>
      <trkpt lat="38.3857330" lon="-0.7634450">
        <ele>242.0</ele>
        <time>2018-10-14T10:29:54Z</time>
      </trkpt>
      <trkpt lat="38.3857070" lon="-0.7635630">
        <ele>242.0</ele>
        <time>2018-10-14T10:29:55Z</time>
      </trkpt>
      <trkpt lat="38.3857070" lon="-0.7635630">
        <ele>242.0</ele>
        <time>2018-10-14T10:29:56Z</time>
      </trkpt>
      <trkpt lat="38.3856800" lon="-0.7636820">
        <ele>242.0</ele>
        <time>2018-10-14T10:29:57Z</time>
      </trkpt>
      <trkpt lat="38.3856700" lon="-0.7637400">
        <ele>242.0</ele>
        <time>2018-10-14T10:29:58Z</time>
      </trkpt>
      <trkpt lat="38.3856700" lon="-0.7637400">
        <ele>242.0</ele>
        <time>2018-10-14T10:29:59Z</time>
      </trkpt>
      <trkpt lat="38.3856600" lon="-0.7638580">
        <ele>242.0</ele>
        <time>2018-10-14T10:30:00Z</time>
      </trkpt>
      <trkpt lat="38.3856550" lon="-0.7639200">
        <ele>242.0</ele>
        <time>2018-10-14T10:30:01Z</time>
      </trkpt>
      <trkpt lat="38.3856550" lon="-0.7639200">
        <ele>242.0</ele>
        <time>2018-10-14T10:30:02Z</time>
      </trkpt>
      <trkpt lat="38.3856470" lon="-0.7640350">
        <ele>242.0</ele>
        <time>2018-10-14T10:30:03Z</time>
      </trkpt>
      <trkpt lat="38.3856470" lon="-0.7640350">
        <ele>242.0</ele>
        <time>2018-10-14T10:30:04Z</time>
      </trkpt>
      <trkpt lat="38.3856220" lon="-0.7641530">
        <ele>242.0</ele>
        <time>2018-10-14T10:30:05Z</time>
      </trkpt>
      <trkpt lat="38.3856130" lon="-0.7642180">
        <ele>242.0</ele>
        <time>2018-10-14T10:30:06Z</time>
      </trkpt>
      <trkpt lat="38.3856130" lon="-0.7642180">
        <ele>242.0</ele>
        <time>2018-10-14T10:30:07Z</time>
      </trkpt>
      <trkpt lat="38.3855850" lon="-0.7643400">
        <ele>242.0</ele>
        <time>2018-10-14T10:30:08Z</time>
      </trkpt>
      <trkpt lat="38.3855600" lon="-0.7643980">
        <ele>242.0</ele>
        <time>2018-10-14T10:30:09Z</time>
      </trkpt>
      <trkpt lat="38.3855600" lon="-0.7643980">
        <ele>242.0</ele>
        <time>2018-10-14T10:30:10Z</time>
      </trkpt>
      <trkpt lat="38.3855330" lon="-0.7645220">
        <ele>242.0</ele>
        <time>2018-10-14T10:30:11Z</time>
      </trkpt>
      <trkpt lat="38.3855330" lon="-0.7645220">
        <ele>242.0</ele>
        <time>2018-10-14T10:30:12Z</time>
      </trkpt>
      <trkpt lat="38.3854870" lon="-0.7646100">
        <ele>242.0</ele>
        <time>2018-10-14T10:30:13Z</time>
      </trkpt>
      <trkpt lat="38.3854870" lon="-0.7646100">
        <ele>242.0</ele>
        <time>2018-10-14T10:30:14Z</time>
      </trkpt>
      <trkpt lat="38.3854680" lon="-0.7647220">
        <ele>242.0</ele>
        <time>2018-10-14T10:30:15Z</time>
      </trkpt>
      <trkpt lat="38.3854550" lon="-0.7647830">
        <ele>242.0</ele>
        <time>2018-10-14T10:30:16Z</time>
      </trkpt>
      <trkpt lat="38.3854550" lon="-0.7647830">
        <ele>242.0</ele>
        <time>2018-10-14T10:30:17Z</time>
      </trkpt>
      <trkpt lat="38.3854300" lon="-0.7649070">
        <ele>242.0</ele>
        <time>2018-10-14T10:30:18Z</time>
      </trkpt>
      <trkpt lat="38.3854100" lon="-0.7649650">
        <ele>242.0</ele>
        <time>2018-10-14T10:30:19Z</time>
      </trkpt>
      <trkpt lat="38.3854100" lon="-0.7649650">
        <ele>242.0</ele>
        <time>2018-10-14T10:30:20Z</time>
      </trkpt>
      <trkpt lat="38.3854070" lon="-0.7651180">
        <ele>242.0</ele>
        <time>2018-10-14T10:30:21Z</time>
      </trkpt>
      <trkpt lat="38.3854070" lon="-0.7651180">
        <ele>242.0</ele>
        <time>2018-10-14T10:30:22Z</time>
      </trkpt>
      <trkpt lat="38.3853800" lon="-0.7652570">
        <ele>242.0</ele>
        <time>2018-10-14T10:30:23Z</time>
      </trkpt>
      <trkpt lat="38.3853800" lon="-0.7652570">
        <ele>242.0</ele>
        <time>2018-10-14T10:30:24Z</time>
      </trkpt>
      <trkpt lat="38.3853620" lon="-0.7653950">
        <ele>242.0</ele>
        <time>2018-10-14T10:30:25Z</time>
      </trkpt>
      <trkpt lat="38.3853620" lon="-0.7653950">
        <ele>242.0</ele>
        <time>2018-10-14T10:30:26Z</time>
      </trkpt>
      <trkpt lat="38.3853120" lon="-0.7655100">
        <ele>242.0</ele>
        <time>2018-10-14T10:30:27Z</time>
      </trkpt>
      <trkpt lat="38.3853120" lon="-0.7655100">
        <ele>242.0</ele>
        <time>2018-10-14T10:30:28Z</time>
      </trkpt>
      <trkpt lat="38.3852720" lon="-0.7656170">
        <ele>242.0</ele>
        <time>2018-10-14T10:30:29Z</time>
      </trkpt>
      <trkpt lat="38.3852720" lon="-0.7656170">
        <ele>242.0</ele>
        <time>2018-10-14T10:30:30Z</time>
      </trkpt>
      <trkpt lat="38.3852530" lon="-0.7657580">
        <ele>242.0</ele>
        <time>2018-10-14T10:30:31Z</time>
      </trkpt>
      <trkpt lat="38.3852530" lon="-0.7657580">
        <ele>242.0</ele>
        <time>2018-10-14T10:30:32Z</time>
      </trkpt>
      <trkpt lat="38.3852130" lon="-0.7658870">
        <ele>242.0</ele>
        <time>2018-10-14T10:30:33Z</time>
      </trkpt>
      <trkpt lat="38.3852130" lon="-0.7658870">
        <ele>242.0</ele>
        <time>2018-10-14T10:30:34Z</time>
      </trkpt>
      <trkpt lat="38.3851580" lon="-0.7660180">
        <ele>242.0</ele>
        <time>2018-10-14T10:30:35Z</time>
      </trkpt>
      <trkpt lat="38.3851580" lon="-0.7660180">
        <ele>242.0</ele>
        <time>2018-10-14T10:30:36Z</time>
      </trkpt>
      <trkpt lat="38.3851080" lon="-0.7661470">
        <ele>242.0</ele>
        <time>2018-10-14T10:30:37Z</time>
      </trkpt>
      <trkpt lat="38.3851080" lon="-0.7661470">
        <ele>242.0</ele>
        <time>2018-10-14T10:30:38Z</time>
      </trkpt>
      <trkpt lat="38.3850770" lon="-0.7662850">
        <ele>242.0</ele>
        <time>2018-10-14T10:30:39Z</time>
      </trkpt>
      <trkpt lat="38.3850770" lon="-0.7662850">
        <ele>242.0</ele>
        <time>2018-10-14T10:30:40Z</time>
      </trkpt>
      <trkpt lat="38.3850500" lon="-0.7664180">
        <ele>242.0</ele>
        <time>2018-10-14T10:30:41Z</time>
      </trkpt>
      <trkpt lat="38.3850200" lon="-0.7664850">
        <ele>242.0</ele>
        <time>2018-10-14T10:30:42Z</time>
      </trkpt>
      <trkpt lat="38.3850200" lon="-0.7664850">
        <ele>242.0</ele>
        <time>2018-10-14T10:30:43Z</time>
      </trkpt>
      <trkpt lat="38.3849830" lon="-0.7666380">
        <ele>242.0</ele>
        <time>2018-10-14T10:30:44Z</time>
      </trkpt>
      <trkpt lat="38.3849720" lon="-0.7667230">
        <ele>242.0</ele>
        <time>2018-10-14T10:30:45Z</time>
      </trkpt>
      <trkpt lat="38.3849720" lon="-0.7667230">
        <ele>242.0</ele>
        <time>2018-10-14T10:30:46Z</time>
      </trkpt>
      <trkpt lat="38.3849450" lon="-0.7668670">
        <ele>242.0</ele>
        <time>2018-10-14T10:30:47Z</time>
      </trkpt>
      <trkpt lat="38.3849450" lon="-0.7668670">
        <ele>242.0</ele>
        <time>2018-10-14T10:30:48Z</time>
      </trkpt>
      <trkpt lat="38.3849120" lon="-0.7669830">
        <ele>242.0</ele>
        <time>2018-10-14T10:30:49Z</time>
      </trkpt>
      <trkpt lat="38.3849120" lon="-0.7669830">
        <ele>242.0</ele>
        <time>2018-10-14T10:30:50Z</time>
      </trkpt>
      <trkpt lat="38.3848770" lon="-0.7670950">
        <ele>242.0</ele>
        <time>2018-10-14T10:30:51Z</time>
      </trkpt>
      <trkpt lat="38.3848770" lon="-0.7670950">
        <ele>242.0</ele>
        <time>2018-10-14T10:30:52Z</time>
      </trkpt>
      <trkpt lat="38.3848530" lon="-0.7672070">
        <ele>242.0</ele>
        <time>2018-10-14T10:30:53Z</time>
      </trkpt>
      <trkpt lat="38.3848530" lon="-0.7672070">
        <ele>242.0</ele>
        <time>2018-10-14T10:30:54Z</time>
      </trkpt>
      <trkpt lat="38.3848200" lon="-0.7673000">
        <ele>242.0</ele>
        <time>2018-10-14T10:30:55Z</time>
      </trkpt>
      <trkpt lat="38.3848200" lon="-0.7673000">
        <ele>242.0</ele>
        <time>2018-10-14T10:30:56Z</time>
      </trkpt>
      <trkpt lat="38.3847930" lon="-0.7673980">
        <ele>242.0</ele>
        <time>2018-10-14T10:30:57Z</time>
      </trkpt>
      <trkpt lat="38.3847930" lon="-0.7673980">
        <ele>243.0</ele>
        <time>2018-10-14T10:30:58Z</time>
      </trkpt>
      <trkpt lat="38.3847720" lon="-0.7674850">
        <ele>243.0</ele>
        <time>2018-10-14T10:30:59Z</time>
      </trkpt>
      <trkpt lat="38.3847720" lon="-0.7674850">
        <ele>243.0</ele>
        <time>2018-10-14T10:31:00Z</time>
      </trkpt>
      <trkpt lat="38.3847550" lon="-0.7675730">
        <ele>243.0</ele>
        <time>2018-10-14T10:31:01Z</time>
      </trkpt>
      <trkpt lat="38.3847550" lon="-0.7675730">
        <ele>243.0</ele>
        <time>2018-10-14T10:31:02Z</time>
      </trkpt>
      <trkpt lat="38.3847420" lon="-0.7676670">
        <ele>243.0</ele>
        <time>2018-10-14T10:31:03Z</time>
      </trkpt>
      <trkpt lat="38.3847420" lon="-0.7676670">
        <ele>243.0</ele>
        <time>2018-10-14T10:31:04Z</time>
      </trkpt>
      <trkpt lat="38.3846970" lon="-0.7677530">
        <ele>243.0</ele>
        <time>2018-10-14T10:31:05Z</time>
      </trkpt>
      <trkpt lat="38.3846970" lon="-0.7677530">
        <ele>243.0</ele>
        <time>2018-10-14T10:31:06Z</time>
      </trkpt>
      <trkpt lat="38.3846420" lon="-0.7678680">
        <ele>244.0</ele>
        <time>2018-10-14T10:31:07Z</time>
      </trkpt>
      <trkpt lat="38.3846420" lon="-0.7678680">
        <ele>244.0</ele>
        <time>2018-10-14T10:31:08Z</time>
      </trkpt>
      <trkpt lat="38.3846050" lon="-0.7679930">
        <ele>244.0</ele>
        <time>2018-10-14T10:31:09Z</time>
      </trkpt>
      <trkpt lat="38.3845850" lon="-0.7680570">
        <ele>244.0</ele>
        <time>2018-10-14T10:31:10Z</time>
      </trkpt>
      <trkpt lat="38.3845850" lon="-0.7680570">
        <ele>244.0</ele>
        <time>2018-10-14T10:31:11Z</time>
      </trkpt>
      <trkpt lat="38.3845470" lon="-0.7681880">
        <ele>244.0</ele>
        <time>2018-10-14T10:31:12Z</time>
      </trkpt>
      <trkpt lat="38.3845430" lon="-0.7682600">
        <ele>244.0</ele>
        <time>2018-10-14T10:31:13Z</time>
      </trkpt>
      <trkpt lat="38.3845430" lon="-0.7682600">
        <ele>244.0</ele>
        <time>2018-10-14T10:31:14Z</time>
      </trkpt>
      <trkpt lat="38.3845130" lon="-0.7683800">
        <ele>244.0</ele>
        <time>2018-10-14T10:31:15Z</time>
      </trkpt>
      <trkpt lat="38.3845130" lon="-0.7683800">
        <ele>244.0</ele>
        <time>2018-10-14T10:31:16Z</time>
      </trkpt>
      <trkpt lat="38.3844800" lon="-0.7684950">
        <ele>244.0</ele>
        <time>2018-10-14T10:31:17Z</time>
      </trkpt>
      <trkpt lat="38.3844800" lon="-0.7684950">
        <ele>244.0</ele>
        <time>2018-10-14T10:31:18Z</time>
      </trkpt>
      <trkpt lat="38.3844350" lon="-0.7685970">
        <ele>244.0</ele>
        <time>2018-10-14T10:31:19Z</time>
      </trkpt>
      <trkpt lat="38.3844350" lon="-0.7685970">
        <ele>244.0</ele>
        <time>2018-10-14T10:31:20Z</time>
      </trkpt>
      <trkpt lat="38.3844000" lon="-0.7687070">
        <ele>244.0</ele>
        <time>2018-10-14T10:31:21Z</time>
      </trkpt>
      <trkpt lat="38.3844000" lon="-0.7687070">
        <ele>244.0</ele>
        <time>2018-10-14T10:31:22Z</time>
      </trkpt>
      <trkpt lat="38.3843800" lon="-0.7688380">
        <ele>244.0</ele>
        <time>2018-10-14T10:31:23Z</time>
      </trkpt>
      <trkpt lat="38.3843800" lon="-0.7688380">
        <ele>244.0</ele>
        <time>2018-10-14T10:31:24Z</time>
      </trkpt>
      <trkpt lat="38.3843570" lon="-0.7689630">
        <ele>244.0</ele>
        <time>2018-10-14T10:31:25Z</time>
      </trkpt>
      <trkpt lat="38.3843570" lon="-0.7689630">
        <ele>244.0</ele>
        <time>2018-10-14T10:31:26Z</time>
      </trkpt>
      <trkpt lat="38.3843280" lon="-0.7690900">
        <ele>245.0</ele>
        <time>2018-10-14T10:31:27Z</time>
      </trkpt>
      <trkpt lat="38.3843280" lon="-0.7690900">
        <ele>245.0</ele>
        <time>2018-10-14T10:31:28Z</time>
      </trkpt>
      <trkpt lat="38.3842980" lon="-0.7692120">
        <ele>245.0</ele>
        <time>2018-10-14T10:31:29Z</time>
      </trkpt>
      <trkpt lat="38.3842980" lon="-0.7692120">
        <ele>245.0</ele>
        <time>2018-10-14T10:31:30Z</time>
      </trkpt>
      <trkpt lat="38.3842680" lon="-0.7693300">
        <ele>245.0</ele>
        <time>2018-10-14T10:31:31Z</time>
      </trkpt>
      <trkpt lat="38.3842680" lon="-0.7693300">
        <ele>245.0</ele>
        <time>2018-10-14T10:31:32Z</time>
      </trkpt>
      <trkpt lat="38.3842200" lon="-0.7694330">
        <ele>246.0</ele>
        <time>2018-10-14T10:31:33Z</time>
      </trkpt>
      <trkpt lat="38.3842200" lon="-0.7694330">
        <ele>246.0</ele>
        <time>2018-10-14T10:31:34Z</time>
      </trkpt>
      <trkpt lat="38.3841850" lon="-0.7695350">
        <ele>246.0</ele>
        <time>2018-10-14T10:31:35Z</time>
      </trkpt>
      <trkpt lat="38.3841850" lon="-0.7695350">
        <ele>246.0</ele>
        <time>2018-10-14T10:31:36Z</time>
      </trkpt>
      <trkpt lat="38.3841630" lon="-0.7696500">
        <ele>247.0</ele>
        <time>2018-10-14T10:31:37Z</time>
      </trkpt>
      <trkpt lat="38.3841480" lon="-0.7697000">
        <ele>247.0</ele>
        <time>2018-10-14T10:31:38Z</time>
      </trkpt>
      <trkpt lat="38.3841480" lon="-0.7697000">
        <ele>247.0</ele>
        <time>2018-10-14T10:31:39Z</time>
      </trkpt>
      <trkpt lat="38.3841230" lon="-0.7697920">
        <ele>247.0</ele>
        <time>2018-10-14T10:31:40Z</time>
      </trkpt>
      <trkpt lat="38.3841180" lon="-0.7698380">
        <ele>247.0</ele>
        <time>2018-10-14T10:31:41Z</time>
      </trkpt>
      <trkpt lat="38.3841180" lon="-0.7698380">
        <ele>247.0</ele>
        <time>2018-10-14T10:31:42Z</time>
      </trkpt>
      <trkpt lat="38.3840880" lon="-0.7698970">
        <ele>247.0</ele>
        <time>2018-10-14T10:31:43Z</time>
      </trkpt>
      <trkpt lat="38.3840880" lon="-0.7698970">
        <ele>247.0</ele>
        <time>2018-10-14T10:31:44Z</time>
      </trkpt>
      <trkpt lat="38.3840730" lon="-0.7699370">
        <ele>247.0</ele>
        <time>2018-10-14T10:31:45Z</time>
      </trkpt>
      <trkpt lat="38.3840730" lon="-0.7699370">
        <ele>247.0</ele>
        <time>2018-10-14T10:31:46Z</time>
      </trkpt>
      <trkpt lat="38.3840580" lon="-0.7700200">
        <ele>248.0</ele>
        <time>2018-10-14T10:31:47Z</time>
      </trkpt>
      <trkpt lat="38.3840580" lon="-0.7700200">
        <ele>248.0</ele>
        <time>2018-10-14T10:31:48Z</time>
      </trkpt>
      <trkpt lat="38.3840420" lon="-0.7701230">
        <ele>248.0</ele>
        <time>2018-10-14T10:31:49Z</time>
      </trkpt>
      <trkpt lat="38.3840420" lon="-0.7701230">
        <ele>248.0</ele>
        <time>2018-10-14T10:31:50Z</time>
      </trkpt>
      <trkpt lat="38.3840230" lon="-0.7702380">
        <ele>248.0</ele>
        <time>2018-10-14T10:31:51Z</time>
      </trkpt>
      <trkpt lat="38.3840230" lon="-0.7702380">
        <ele>248.0</ele>
        <time>2018-10-14T10:31:52Z</time>
      </trkpt>
      <trkpt lat="38.3839920" lon="-0.7703480">
        <ele>248.0</ele>
        <time>2018-10-14T10:31:53Z</time>
      </trkpt>
      <trkpt lat="38.3839920" lon="-0.7703480">
        <ele>248.0</ele>
        <time>2018-10-14T10:31:54Z</time>
      </trkpt>
      <trkpt lat="38.3839670" lon="-0.7704700">
        <ele>248.0</ele>
        <time>2018-10-14T10:31:55Z</time>
      </trkpt>
      <trkpt lat="38.3839670" lon="-0.7704700">
        <ele>248.0</ele>
        <time>2018-10-14T10:31:56Z</time>
      </trkpt>
      <trkpt lat="38.3839430" lon="-0.7705880">
        <ele>248.0</ele>
        <time>2018-10-14T10:31:57Z</time>
      </trkpt>
      <trkpt lat="38.3839430" lon="-0.7705880">
        <ele>248.0</ele>
        <time>2018-10-14T10:31:58Z</time>
      </trkpt>
      <trkpt lat="38.3839330" lon="-0.7707120">
        <ele>248.0</ele>
        <time>2018-10-14T10:31:59Z</time>
      </trkpt>
      <trkpt lat="38.3839330" lon="-0.7707120">
        <ele>248.0</ele>
        <time>2018-10-14T10:32:00Z</time>
      </trkpt>
      <trkpt lat="38.3839350" lon="-0.7708330">
        <ele>249.0</ele>
        <time>2018-10-14T10:32:01Z</time>
      </trkpt>
      <trkpt lat="38.3839350" lon="-0.7708330">
        <ele>249.0</ele>
        <time>2018-10-14T10:32:02Z</time>
      </trkpt>
      <trkpt lat="38.3839380" lon="-0.7709600">
        <ele>249.0</ele>
        <time>2018-10-14T10:32:03Z</time>
      </trkpt>
      <trkpt lat="38.3839380" lon="-0.7709600">
        <ele>249.0</ele>
        <time>2018-10-14T10:32:04Z</time>
      </trkpt>
      <trkpt lat="38.3839470" lon="-0.7710780">
        <ele>249.0</ele>
        <time>2018-10-14T10:32:05Z</time>
      </trkpt>
      <trkpt lat="38.3839470" lon="-0.7710780">
        <ele>250.0</ele>
        <time>2018-10-14T10:32:06Z</time>
      </trkpt>
      <trkpt lat="38.3839520" lon="-0.7711970">
        <ele>250.0</ele>
        <time>2018-10-14T10:32:07Z</time>
      </trkpt>
      <trkpt lat="38.3839520" lon="-0.7711970">
        <ele>250.0</ele>
        <time>2018-10-14T10:32:08Z</time>
      </trkpt>
      <trkpt lat="38.3839550" lon="-0.7713150">
        <ele>250.0</ele>
        <time>2018-10-14T10:32:09Z</time>
      </trkpt>
      <trkpt lat="38.3839550" lon="-0.7713150">
        <ele>251.0</ele>
        <time>2018-10-14T10:32:10Z</time>
      </trkpt>
      <trkpt lat="38.3839630" lon="-0.7714350">
        <ele>251.0</ele>
        <time>2018-10-14T10:32:11Z</time>
      </trkpt>
      <trkpt lat="38.3839630" lon="-0.7714350">
        <ele>251.0</ele>
        <time>2018-10-14T10:32:12Z</time>
      </trkpt>
      <trkpt lat="38.3839700" lon="-0.7715550">
        <ele>251.0</ele>
        <time>2018-10-14T10:32:13Z</time>
      </trkpt>
      <trkpt lat="38.3839700" lon="-0.7715550">
        <ele>251.0</ele>
        <time>2018-10-14T10:32:14Z</time>
      </trkpt>
      <trkpt lat="38.3839800" lon="-0.7716730">
        <ele>251.0</ele>
        <time>2018-10-14T10:32:15Z</time>
      </trkpt>
      <trkpt lat="38.3839800" lon="-0.7716730">
        <ele>252.0</ele>
        <time>2018-10-14T10:32:16Z</time>
      </trkpt>
      <trkpt lat="38.3839880" lon="-0.7717970">
        <ele>252.0</ele>
        <time>2018-10-14T10:32:17Z</time>
      </trkpt>
      <trkpt lat="38.3839880" lon="-0.7717970">
        <ele>252.0</ele>
        <time>2018-10-14T10:32:18Z</time>
      </trkpt>
      <trkpt lat="38.3839950" lon="-0.7719200">
        <ele>252.0</ele>
        <time>2018-10-14T10:32:19Z</time>
      </trkpt>
      <trkpt lat="38.3839950" lon="-0.7719200">
        <ele>252.0</ele>
        <time>2018-10-14T10:32:20Z</time>
      </trkpt>
      <trkpt lat="38.3840000" lon="-0.7720500">
        <ele>252.0</ele>
        <time>2018-10-14T10:32:21Z</time>
      </trkpt>
      <trkpt lat="38.3840000" lon="-0.7720500">
        <ele>252.0</ele>
        <time>2018-10-14T10:32:22Z</time>
      </trkpt>
      <trkpt lat="38.3840050" lon="-0.7721750">
        <ele>252.0</ele>
        <time>2018-10-14T10:32:23Z</time>
      </trkpt>
      <trkpt lat="38.3840050" lon="-0.7721750">
        <ele>252.0</ele>
        <time>2018-10-14T10:32:24Z</time>
      </trkpt>
      <trkpt lat="38.3840270" lon="-0.7722900">
        <ele>252.0</ele>
        <time>2018-10-14T10:32:25Z</time>
      </trkpt>
      <trkpt lat="38.3840270" lon="-0.7722900">
        <ele>253.0</ele>
        <time>2018-10-14T10:32:26Z</time>
      </trkpt>
      <trkpt lat="38.3840400" lon="-0.7724020">
        <ele>253.0</ele>
        <time>2018-10-14T10:32:27Z</time>
      </trkpt>
      <trkpt lat="38.3840400" lon="-0.7724020">
        <ele>253.0</ele>
        <time>2018-10-14T10:32:28Z</time>
      </trkpt>
      <trkpt lat="38.3840530" lon="-0.7725120">
        <ele>253.0</ele>
        <time>2018-10-14T10:32:29Z</time>
      </trkpt>
      <trkpt lat="38.3840530" lon="-0.7725120">
        <ele>253.0</ele>
        <time>2018-10-14T10:32:30Z</time>
      </trkpt>
      <trkpt lat="38.3840600" lon="-0.7726280">
        <ele>253.0</ele>
        <time>2018-10-14T10:32:31Z</time>
      </trkpt>
      <trkpt lat="38.3840600" lon="-0.7726280">
        <ele>254.0</ele>
        <time>2018-10-14T10:32:32Z</time>
      </trkpt>
      <trkpt lat="38.3840730" lon="-0.7727650">
        <ele>254.0</ele>
        <time>2018-10-14T10:32:33Z</time>
      </trkpt>
      <trkpt lat="38.3840730" lon="-0.7727650">
        <ele>254.0</ele>
        <time>2018-10-14T10:32:34Z</time>
      </trkpt>
      <trkpt lat="38.3840920" lon="-0.7728850">
        <ele>254.0</ele>
        <time>2018-10-14T10:32:35Z</time>
      </trkpt>
      <trkpt lat="38.3840920" lon="-0.7728850">
        <ele>254.0</ele>
        <time>2018-10-14T10:32:36Z</time>
      </trkpt>
      <trkpt lat="38.3840700" lon="-0.7730000">
        <ele>254.0</ele>
        <time>2018-10-14T10:32:37Z</time>
      </trkpt>
      <trkpt lat="38.3840700" lon="-0.7730000">
        <ele>254.0</ele>
        <time>2018-10-14T10:32:38Z</time>
      </trkpt>
      <trkpt lat="38.3840200" lon="-0.7730980">
        <ele>254.0</ele>
        <time>2018-10-14T10:32:39Z</time>
      </trkpt>
      <trkpt lat="38.3839980" lon="-0.7731480">
        <ele>254.0</ele>
        <time>2018-10-14T10:32:40Z</time>
      </trkpt>
      <trkpt lat="38.3839980" lon="-0.7731480">
        <ele>254.0</ele>
        <time>2018-10-14T10:32:41Z</time>
      </trkpt>
      <trkpt lat="38.3839670" lon="-0.7732470">
        <ele>255.0</ele>
        <time>2018-10-14T10:32:42Z</time>
      </trkpt>
      <trkpt lat="38.3839570" lon="-0.7732970">
        <ele>255.0</ele>
        <time>2018-10-14T10:32:43Z</time>
      </trkpt>
      <trkpt lat="38.3839570" lon="-0.7732970">
        <ele>255.0</ele>
        <time>2018-10-14T10:32:44Z</time>
      </trkpt>
      <trkpt lat="38.3839280" lon="-0.7733980">
        <ele>255.0</ele>
        <time>2018-10-14T10:32:45Z</time>
      </trkpt>
      <trkpt lat="38.3839280" lon="-0.7733980">
        <ele>255.0</ele>
        <time>2018-10-14T10:32:46Z</time>
      </trkpt>
      <trkpt lat="38.3838770" lon="-0.7734930">
        <ele>255.0</ele>
        <time>2018-10-14T10:32:47Z</time>
      </trkpt>
      <trkpt lat="38.3838770" lon="-0.7734930">
        <ele>256.0</ele>
        <time>2018-10-14T10:32:48Z</time>
      </trkpt>
      <trkpt lat="38.3838370" lon="-0.7735970">
        <ele>256.0</ele>
        <time>2018-10-14T10:32:49Z</time>
      </trkpt>
      <trkpt lat="38.3838370" lon="-0.7735970">
        <ele>256.0</ele>
        <time>2018-10-14T10:32:50Z</time>
      </trkpt>
      <trkpt lat="38.3838030" lon="-0.7737020">
        <ele>256.0</ele>
        <time>2018-10-14T10:32:51Z</time>
      </trkpt>
      <trkpt lat="38.3838030" lon="-0.7737020">
        <ele>256.0</ele>
        <time>2018-10-14T10:32:52Z</time>
      </trkpt>
      <trkpt lat="38.3837700" lon="-0.7738050">
        <ele>256.0</ele>
        <time>2018-10-14T10:32:53Z</time>
      </trkpt>
      <trkpt lat="38.3837700" lon="-0.7738050">
        <ele>257.0</ele>
        <time>2018-10-14T10:32:54Z</time>
      </trkpt>
      <trkpt lat="38.3837470" lon="-0.7739080">
        <ele>257.0</ele>
        <time>2018-10-14T10:32:55Z</time>
      </trkpt>
      <trkpt lat="38.3837470" lon="-0.7739080">
        <ele>257.0</ele>
        <time>2018-10-14T10:32:56Z</time>
      </trkpt>
      <trkpt lat="38.3837200" lon="-0.7740030">
        <ele>257.0</ele>
        <time>2018-10-14T10:32:57Z</time>
      </trkpt>
      <trkpt lat="38.3837050" lon="-0.7740500">
        <ele>258.0</ele>
        <time>2018-10-14T10:32:58Z</time>
      </trkpt>
      <trkpt lat="38.3837050" lon="-0.7740500">
        <ele>258.0</ele>
        <time>2018-10-14T10:32:59Z</time>
      </trkpt>
      <trkpt lat="38.3836780" lon="-0.7741450">
        <ele>258.0</ele>
        <time>2018-10-14T10:33:00Z</time>
      </trkpt>
      <trkpt lat="38.3836650" lon="-0.7741920">
        <ele>258.0</ele>
        <time>2018-10-14T10:33:01Z</time>
      </trkpt>
      <trkpt lat="38.3836650" lon="-0.7741920">
        <ele>258.0</ele>
        <time>2018-10-14T10:33:02Z</time>
      </trkpt>
      <trkpt lat="38.3836370" lon="-0.7742800">
        <ele>259.0</ele>
        <time>2018-10-14T10:33:03Z</time>
      </trkpt>
      <trkpt lat="38.3836370" lon="-0.7742800">
        <ele>259.0</ele>
        <time>2018-10-14T10:33:04Z</time>
      </trkpt>
      <trkpt lat="38.3836100" lon="-0.7743630">
        <ele>259.0</ele>
        <time>2018-10-14T10:33:05Z</time>
      </trkpt>
      <trkpt lat="38.3836100" lon="-0.7743630">
        <ele>259.0</ele>
        <time>2018-10-14T10:33:06Z</time>
      </trkpt>
      <trkpt lat="38.3836230" lon="-0.7744430">
        <ele>259.0</ele>
        <time>2018-10-14T10:33:07Z</time>
      </trkpt>
      <trkpt lat="38.3836230" lon="-0.7744430">
        <ele>259.0</ele>
        <time>2018-10-14T10:33:08Z</time>
      </trkpt>
      <trkpt lat="38.3836770" lon="-0.7744780">
        <ele>259.0</ele>
        <time>2018-10-14T10:33:09Z</time>
      </trkpt>
      <trkpt lat="38.3836770" lon="-0.7744780">
        <ele>259.0</ele>
        <time>2018-10-14T10:33:10Z</time>
      </trkpt>
      <trkpt lat="38.3837480" lon="-0.7744700">
        <ele>260.0</ele>
        <time>2018-10-14T10:33:11Z</time>
      </trkpt>
      <trkpt lat="38.3837480" lon="-0.7744700">
        <ele>260.0</ele>
        <time>2018-10-14T10:33:12Z</time>
      </trkpt>
      <trkpt lat="38.3838320" lon="-0.7744620">
        <ele>260.0</ele>
        <time>2018-10-14T10:33:13Z</time>
      </trkpt>
      <trkpt lat="38.3838320" lon="-0.7744620">
        <ele>260.0</ele>
        <time>2018-10-14T10:33:14Z</time>
      </trkpt>
      <trkpt lat="38.3839200" lon="-0.7744570">
        <ele>260.0</ele>
        <time>2018-10-14T10:33:15Z</time>
      </trkpt>
      <trkpt lat="38.3839200" lon="-0.7744570">
        <ele>260.0</ele>
        <time>2018-10-14T10:33:16Z</time>
      </trkpt>
      <trkpt lat="38.3840130" lon="-0.7744530">
        <ele>260.0</ele>
        <time>2018-10-14T10:33:17Z</time>
      </trkpt>
      <trkpt lat="38.3840570" lon="-0.7744500">
        <ele>260.0</ele>
        <time>2018-10-14T10:33:18Z</time>
      </trkpt>
      <trkpt lat="38.3840570" lon="-0.7744500">
        <ele>260.0</ele>
        <time>2018-10-14T10:33:19Z</time>
      </trkpt>
      <trkpt lat="38.3841450" lon="-0.7744520">
        <ele>260.0</ele>
        <time>2018-10-14T10:33:20Z</time>
      </trkpt>
      <trkpt lat="38.3841870" lon="-0.7744520">
        <ele>260.0</ele>
        <time>2018-10-14T10:33:21Z</time>
      </trkpt>
      <trkpt lat="38.3841870" lon="-0.7744520">
        <ele>260.0</ele>
        <time>2018-10-14T10:33:22Z</time>
      </trkpt>
      <trkpt lat="38.3842680" lon="-0.7744520">
        <ele>260.0</ele>
        <time>2018-10-14T10:33:23Z</time>
      </trkpt>
      <trkpt lat="38.3842680" lon="-0.7744520">
        <ele>260.0</ele>
        <time>2018-10-14T10:33:24Z</time>
      </trkpt>
      <trkpt lat="38.3843550" lon="-0.7744450">
        <ele>260.0</ele>
        <time>2018-10-14T10:33:25Z</time>
      </trkpt>
      <trkpt lat="38.3843550" lon="-0.7744450">
        <ele>260.0</ele>
        <time>2018-10-14T10:33:26Z</time>
      </trkpt>
      <trkpt lat="38.3844420" lon="-0.7744430">
        <ele>260.0</ele>
        <time>2018-10-14T10:33:27Z</time>
      </trkpt>
      <trkpt lat="38.3844420" lon="-0.7744430">
        <ele>260.0</ele>
        <time>2018-10-14T10:33:28Z</time>
      </trkpt>
      <trkpt lat="38.3845220" lon="-0.7744300">
        <ele>260.0</ele>
        <time>2018-10-14T10:33:29Z</time>
      </trkpt>
      <trkpt lat="38.3845220" lon="-0.7744300">
        <ele>260.0</ele>
        <time>2018-10-14T10:33:30Z</time>
      </trkpt>
      <trkpt lat="38.3846030" lon="-0.7744250">
        <ele>260.0</ele>
        <time>2018-10-14T10:33:31Z</time>
      </trkpt>
      <trkpt lat="38.3846030" lon="-0.7744250">
        <ele>260.0</ele>
        <time>2018-10-14T10:33:32Z</time>
      </trkpt>
      <trkpt lat="38.3846850" lon="-0.7744180">
        <ele>260.0</ele>
        <time>2018-10-14T10:33:33Z</time>
      </trkpt>
      <trkpt lat="38.3846850" lon="-0.7744180">
        <ele>260.0</ele>
        <time>2018-10-14T10:33:34Z</time>
      </trkpt>
      <trkpt lat="38.3847650" lon="-0.7744100">
        <ele>260.0</ele>
        <time>2018-10-14T10:33:35Z</time>
      </trkpt>
      <trkpt lat="38.3847650" lon="-0.7744100">
        <ele>260.0</ele>
        <time>2018-10-14T10:33:36Z</time>
      </trkpt>
      <trkpt lat="38.3848400" lon="-0.7744220">
        <ele>260.0</ele>
        <time>2018-10-14T10:33:37Z</time>
      </trkpt>
      <trkpt lat="38.3848400" lon="-0.7744220">
        <ele>260.0</ele>
        <time>2018-10-14T10:33:38Z</time>
      </trkpt>
      <trkpt lat="38.3848870" lon="-0.7744980">
        <ele>260.0</ele>
        <time>2018-10-14T10:33:39Z</time>
      </trkpt>
      <trkpt lat="38.3848870" lon="-0.7744980">
        <ele>260.0</ele>
        <time>2018-10-14T10:33:40Z</time>
      </trkpt>
      <trkpt lat="38.3849050" lon="-0.7745900">
        <ele>260.0</ele>
        <time>2018-10-14T10:33:41Z</time>
      </trkpt>
      <trkpt lat="38.3849050" lon="-0.7745900">
        <ele>260.0</ele>
        <time>2018-10-14T10:33:42Z</time>
      </trkpt>
      <trkpt lat="38.3849200" lon="-0.7746550">
        <ele>260.0</ele>
        <time>2018-10-14T10:33:43Z</time>
      </trkpt>
      <trkpt lat="38.3849200" lon="-0.7746550">
        <ele>260.0</ele>
        <time>2018-10-14T10:33:44Z</time>
      </trkpt>
      <trkpt lat="38.3849420" lon="-0.7746870">
        <ele>260.0</ele>
        <time>2018-10-14T10:33:45Z</time>
      </trkpt>
      <trkpt lat="38.3849420" lon="-0.7746870">
        <ele>260.0</ele>
        <time>2018-10-14T10:33:46Z</time>
      </trkpt>
      <trkpt lat="38.3849670" lon="-0.7746920">
        <ele>260.0</ele>
        <time>2018-10-14T10:33:47Z</time>
      </trkpt>
      <trkpt lat="38.3849670" lon="-0.7746920">
        <ele>260.0</ele>
        <time>2018-10-14T10:33:48Z</time>
      </trkpt>
      <trkpt lat="38.3849920" lon="-0.7746880">
        <ele>260.0</ele>
        <time>2018-10-14T10:33:49Z</time>
      </trkpt>
      <trkpt lat="38.3849920" lon="-0.7746880">
        <ele>260.0</ele>
        <time>2018-10-14T10:33:50Z</time>
      </trkpt>
      <trkpt lat="38.3850400" lon="-0.7746880">
        <ele>260.0</ele>
        <time>2018-10-14T10:33:51Z</time>
      </trkpt>
      <trkpt lat="38.3850400" lon="-0.7746880">
        <ele>260.0</ele>
        <time>2018-10-14T10:33:52Z</time>
      </trkpt>
      <trkpt lat="38.3851050" lon="-0.7746920">
        <ele>260.0</ele>
        <time>2018-10-14T10:33:53Z</time>
      </trkpt>
      <trkpt lat="38.3851400" lon="-0.7746880">
        <ele>260.0</ele>
        <time>2018-10-14T10:33:54Z</time>
      </trkpt>
      <trkpt lat="38.3851720" lon="-0.7746900">
        <ele>260.0</ele>
        <time>2018-10-14T10:33:55Z</time>
      </trkpt>
      <trkpt lat="38.3851720" lon="-0.7746900">
        <ele>260.0</ele>
        <time>2018-10-14T10:33:56Z</time>
      </trkpt>
      <trkpt lat="38.3852250" lon="-0.7747150">
        <ele>260.0</ele>
        <time>2018-10-14T10:33:57Z</time>
      </trkpt>
      <trkpt lat="38.3852250" lon="-0.7747150">
        <ele>260.0</ele>
        <time>2018-10-14T10:33:58Z</time>
      </trkpt>
      <trkpt lat="38.3852370" lon="-0.7747470">
        <ele>260.0</ele>
        <time>2018-10-14T10:33:59Z</time>
      </trkpt>
      <trkpt lat="38.3852370" lon="-0.7747470">
        <ele>260.0</ele>
        <time>2018-10-14T10:34:00Z</time>
      </trkpt>
    </trkseg>
  </trk>
</gpx>
